<?xml version="1.0" encoding="UTF-8" standalone="no" ?>
<gpx xmlns="http://www.topografix.com/GPX/1/1" xmlns:xsi="http://www.w3.org/2001/XMLSchema-instance" xsi:schemaLocation="http://www.topografix.com/GPX/1/1 http://www.topografix.com/GPX/1/1/gpx.xsd" version="1.1" creator="VisuGPX - https://www.visugpx.com">
  <metadata>
    <name>Duo Trail Sapeurs pompiers Thiers 2024</name>
    <desc><![CDATA[12,20 km - 680d+ ]]></desc>
  </metadata>
  <trk>
    <name><![CDATA[Trail des sapeurs pompiers Thiers]]></name>
    <desc><![CDATA[12,20 km - 680d+ ]]></desc>
    <trkseg>
      <trkpt lat="45.84815" lon="3.54233">
        <ele>316.39999389648</ele>
        <time>2024-11-15T18:00:25.000Z</time>
      </trkpt>
      <trkpt lat="45.84817" lon="3.54233">
        <ele>316.39999389648</ele>
        <time>2024-11-15T18:00:26.000Z</time>
      </trkpt>
      <trkpt lat="45.84819" lon="3.54233">
        <ele>316.20001220703</ele>
        <time>2024-11-15T18:00:27.000Z</time>
      </trkpt>
      <trkpt lat="45.84822" lon="3.54233">
        <ele>316</ele>
        <time>2024-11-15T18:00:28.000Z</time>
      </trkpt>
      <trkpt lat="45.84824" lon="3.54234">
        <ele>315.79998779297</ele>
        <time>2024-11-15T18:00:29.000Z</time>
      </trkpt>
      <trkpt lat="45.84827" lon="3.54234">
        <ele>315.79998779297</ele>
        <time>2024-11-15T18:00:30.000Z</time>
      </trkpt>
      <trkpt lat="45.84829" lon="3.54234">
        <ele>315.60000610352</ele>
        <time>2024-11-15T18:00:31.000Z</time>
      </trkpt>
      <trkpt lat="45.84832" lon="3.54234">
        <ele>315.39999389648</ele>
        <time>2024-11-15T18:00:32.000Z</time>
      </trkpt>
      <trkpt lat="45.84835" lon="3.54234">
        <ele>315.39999389648</ele>
        <time>2024-11-15T18:00:33.000Z</time>
      </trkpt>
      <trkpt lat="45.84838" lon="3.54234">
        <ele>315.20001220703</ele>
        <time>2024-11-15T18:00:34.000Z</time>
      </trkpt>
      <trkpt lat="45.8484" lon="3.54234">
        <ele>315.20001220703</ele>
        <time>2024-11-15T18:00:35.000Z</time>
      </trkpt>
      <trkpt lat="45.84843" lon="3.54234">
        <ele>315.20001220703</ele>
        <time>2024-11-15T18:00:36.000Z</time>
      </trkpt>
      <trkpt lat="45.84846" lon="3.54234">
        <ele>315.20001220703</ele>
        <time>2024-11-15T18:00:37.000Z</time>
      </trkpt>
      <trkpt lat="45.84849" lon="3.54234">
        <ele>315</ele>
        <time>2024-11-15T18:00:38.000Z</time>
      </trkpt>
      <trkpt lat="45.84852" lon="3.54234">
        <ele>315</ele>
        <time>2024-11-15T18:00:39.000Z</time>
      </trkpt>
      <trkpt lat="45.84855" lon="3.54234">
        <ele>314.79998779297</ele>
        <time>2024-11-15T18:00:40.000Z</time>
      </trkpt>
      <trkpt lat="45.84858" lon="3.54234">
        <ele>314.79998779297</ele>
        <time>2024-11-15T18:00:41.000Z</time>
      </trkpt>
      <trkpt lat="45.8486" lon="3.54234">
        <ele>314.39999389648</ele>
        <time>2024-11-15T18:00:42.000Z</time>
      </trkpt>
      <trkpt lat="45.84863" lon="3.54234">
        <ele>314.39999389648</ele>
        <time>2024-11-15T18:00:43.000Z</time>
      </trkpt>
      <trkpt lat="45.84866" lon="3.54235">
        <ele>314.39999389648</ele>
        <time>2024-11-15T18:00:44.000Z</time>
      </trkpt>
      <trkpt lat="45.84869" lon="3.54235">
        <ele>314.39999389648</ele>
        <time>2024-11-15T18:00:45.000Z</time>
      </trkpt>
      <trkpt lat="45.84872" lon="3.54235">
        <ele>314.20001220703</ele>
        <time>2024-11-15T18:00:46.000Z</time>
      </trkpt>
      <trkpt lat="45.84875" lon="3.54235">
        <ele>314</ele>
        <time>2024-11-15T18:00:47.000Z</time>
      </trkpt>
      <trkpt lat="45.84878" lon="3.54235">
        <ele>314</ele>
        <time>2024-11-15T18:00:48.000Z</time>
      </trkpt>
      <trkpt lat="45.8488" lon="3.54235">
        <ele>314</ele>
        <time>2024-11-15T18:00:49.000Z</time>
      </trkpt>
      <trkpt lat="45.84883" lon="3.54235">
        <ele>313.79998779297</ele>
        <time>2024-11-15T18:00:50.000Z</time>
      </trkpt>
      <trkpt lat="45.84886" lon="3.54235">
        <ele>313.79998779297</ele>
        <time>2024-11-15T18:00:51.000Z</time>
      </trkpt>
      <trkpt lat="45.84889" lon="3.54235">
        <ele>313.60000610352</ele>
        <time>2024-11-15T18:00:52.000Z</time>
      </trkpt>
      <trkpt lat="45.84893" lon="3.54235">
        <ele>313.60000610352</ele>
        <time>2024-11-15T18:00:53.000Z</time>
      </trkpt>
      <trkpt lat="45.84896" lon="3.54235">
        <ele>313.39999389648</ele>
        <time>2024-11-15T18:00:54.000Z</time>
      </trkpt>
      <trkpt lat="45.84899" lon="3.54236">
        <ele>313.39999389648</ele>
        <time>2024-11-15T18:00:55.000Z</time>
      </trkpt>
      <trkpt lat="45.84902" lon="3.54236">
        <ele>313.39999389648</ele>
        <time>2024-11-15T18:00:56.000Z</time>
      </trkpt>
      <trkpt lat="45.84905" lon="3.54238">
        <ele>313.20001220703</ele>
        <time>2024-11-15T18:00:57.000Z</time>
      </trkpt>
      <trkpt lat="45.84907" lon="3.5424">
        <ele>313.20001220703</ele>
        <time>2024-11-15T18:00:58.000Z</time>
      </trkpt>
      <trkpt lat="45.8491" lon="3.54242">
        <ele>313</ele>
        <time>2024-11-15T18:00:59.000Z</time>
      </trkpt>
      <trkpt lat="45.84912" lon="3.54245">
        <ele>313</ele>
        <time>2024-11-15T18:01:00.000Z</time>
      </trkpt>
      <trkpt lat="45.84914" lon="3.54249">
        <ele>313</ele>
        <time>2024-11-15T18:01:01.000Z</time>
      </trkpt>
      <trkpt lat="45.84915" lon="3.54252">
        <ele>312.79998779297</ele>
        <time>2024-11-15T18:01:02.000Z</time>
      </trkpt>
      <trkpt lat="45.84916" lon="3.54256">
        <ele>312.79998779297</ele>
        <time>2024-11-15T18:01:03.000Z</time>
      </trkpt>
      <trkpt lat="45.84917" lon="3.54259">
        <ele>312.60000610352</ele>
        <time>2024-11-15T18:01:04.000Z</time>
      </trkpt>
      <trkpt lat="45.84918" lon="3.54263">
        <ele>312.79998779297</ele>
        <time>2024-11-15T18:01:05.000Z</time>
      </trkpt>
      <trkpt lat="45.84919" lon="3.54267">
        <ele>312.60000610352</ele>
        <time>2024-11-15T18:01:06.000Z</time>
      </trkpt>
      <trkpt lat="45.84919" lon="3.54272">
        <ele>312.60000610352</ele>
        <time>2024-11-15T18:01:07.000Z</time>
      </trkpt>
      <trkpt lat="45.8492" lon="3.54276">
        <ele>312.39999389648</ele>
        <time>2024-11-15T18:01:08.000Z</time>
      </trkpt>
      <trkpt lat="45.84921" lon="3.5428">
        <ele>312.39999389648</ele>
        <time>2024-11-15T18:01:09.000Z</time>
      </trkpt>
      <trkpt lat="45.84921" lon="3.54284">
        <ele>312.39999389648</ele>
        <time>2024-11-15T18:01:10.000Z</time>
      </trkpt>
      <trkpt lat="45.84922" lon="3.54288">
        <ele>312.39999389648</ele>
        <time>2024-11-15T18:01:11.000Z</time>
      </trkpt>
      <trkpt lat="45.84922" lon="3.54291">
        <ele>312.39999389648</ele>
        <time>2024-11-15T18:01:12.000Z</time>
      </trkpt>
      <trkpt lat="45.84922" lon="3.54295">
        <ele>312.39999389648</ele>
        <time>2024-11-15T18:01:13.000Z</time>
      </trkpt>
      <trkpt lat="45.84923" lon="3.54299">
        <ele>312.39999389648</ele>
        <time>2024-11-15T18:01:14.000Z</time>
      </trkpt>
      <trkpt lat="45.84923" lon="3.54303">
        <ele>312.20001220703</ele>
        <time>2024-11-15T18:01:15.000Z</time>
      </trkpt>
      <trkpt lat="45.84924" lon="3.54307">
        <ele>312.20001220703</ele>
        <time>2024-11-15T18:01:16.000Z</time>
      </trkpt>
      <trkpt lat="45.84924" lon="3.54311">
        <ele>312.20001220703</ele>
        <time>2024-11-15T18:01:17.000Z</time>
      </trkpt>
      <trkpt lat="45.84925" lon="3.54315">
        <ele>312.20001220703</ele>
        <time>2024-11-15T18:01:18.000Z</time>
      </trkpt>
      <trkpt lat="45.84925" lon="3.54319">
        <ele>312.20001220703</ele>
        <time>2024-11-15T18:01:19.000Z</time>
      </trkpt>
      <trkpt lat="45.84925" lon="3.54323">
        <ele>312.39999389648</ele>
        <time>2024-11-15T18:01:20.000Z</time>
      </trkpt>
      <trkpt lat="45.84926" lon="3.54327">
        <ele>312.20001220703</ele>
        <time>2024-11-15T18:01:21.000Z</time>
      </trkpt>
      <trkpt lat="45.84926" lon="3.54331">
        <ele>312.20001220703</ele>
        <time>2024-11-15T18:01:22.000Z</time>
      </trkpt>
      <trkpt lat="45.84926" lon="3.54335">
        <ele>312.39999389648</ele>
        <time>2024-11-15T18:01:23.000Z</time>
      </trkpt>
      <trkpt lat="45.84926" lon="3.54339">
        <ele>312.39999389648</ele>
        <time>2024-11-15T18:01:24.000Z</time>
      </trkpt>
      <trkpt lat="45.84926" lon="3.54343">
        <ele>312.20001220703</ele>
        <time>2024-11-15T18:01:25.000Z</time>
      </trkpt>
      <trkpt lat="45.84927" lon="3.54347">
        <ele>312.20001220703</ele>
        <time>2024-11-15T18:01:26.000Z</time>
      </trkpt>
      <trkpt lat="45.84927" lon="3.54351">
        <ele>312.20001220703</ele>
        <time>2024-11-15T18:01:27.000Z</time>
      </trkpt>
      <trkpt lat="45.84928" lon="3.54354">
        <ele>312.20001220703</ele>
        <time>2024-11-15T18:01:28.000Z</time>
      </trkpt>
      <trkpt lat="45.84928" lon="3.54358">
        <ele>312.20001220703</ele>
        <time>2024-11-15T18:01:29.000Z</time>
      </trkpt>
      <trkpt lat="45.84928" lon="3.54362">
        <ele>312.20001220703</ele>
        <time>2024-11-15T18:01:30.000Z</time>
      </trkpt>
      <trkpt lat="45.84929" lon="3.54366">
        <ele>312.60000610352</ele>
        <time>2024-11-15T18:01:31.000Z</time>
      </trkpt>
      <trkpt lat="45.84929" lon="3.54369">
        <ele>313</ele>
        <time>2024-11-15T18:01:32.000Z</time>
      </trkpt>
      <trkpt lat="45.8493" lon="3.54373">
        <ele>313.20001220703</ele>
        <time>2024-11-15T18:01:33.000Z</time>
      </trkpt>
      <trkpt lat="45.8493" lon="3.54377">
        <ele>313.20001220703</ele>
        <time>2024-11-15T18:01:34.000Z</time>
      </trkpt>
      <trkpt lat="45.8493" lon="3.54381">
        <ele>313.39999389648</ele>
        <time>2024-11-15T18:01:35.000Z</time>
      </trkpt>
      <trkpt lat="45.84931" lon="3.54385">
        <ele>313.39999389648</ele>
        <time>2024-11-15T18:01:36.000Z</time>
      </trkpt>
      <trkpt lat="45.84931" lon="3.54389">
        <ele>313.39999389648</ele>
        <time>2024-11-15T18:01:37.000Z</time>
      </trkpt>
      <trkpt lat="45.84931" lon="3.54392">
        <ele>313.60000610352</ele>
        <time>2024-11-15T18:01:38.000Z</time>
      </trkpt>
      <trkpt lat="45.84932" lon="3.54396">
        <ele>313.79998779297</ele>
        <time>2024-11-15T18:01:39.000Z</time>
      </trkpt>
      <trkpt lat="45.84932" lon="3.54399">
        <ele>313.79998779297</ele>
        <time>2024-11-15T18:01:40.000Z</time>
      </trkpt>
      <trkpt lat="45.84932" lon="3.54403">
        <ele>314</ele>
        <time>2024-11-15T18:01:41.000Z</time>
      </trkpt>
      <trkpt lat="45.84933" lon="3.54407">
        <ele>314.39999389648</ele>
        <time>2024-11-15T18:01:42.000Z</time>
      </trkpt>
      <trkpt lat="45.84933" lon="3.5441">
        <ele>314.39999389648</ele>
        <time>2024-11-15T18:01:43.000Z</time>
      </trkpt>
      <trkpt lat="45.84933" lon="3.54414">
        <ele>314.60000610352</ele>
        <time>2024-11-15T18:01:44.000Z</time>
      </trkpt>
      <trkpt lat="45.84934" lon="3.54418">
        <ele>314.79998779297</ele>
        <time>2024-11-15T18:01:45.000Z</time>
      </trkpt>
      <trkpt lat="45.84934" lon="3.54422">
        <ele>314.79998779297</ele>
        <time>2024-11-15T18:01:46.000Z</time>
      </trkpt>
      <trkpt lat="45.84934" lon="3.54426">
        <ele>314.79998779297</ele>
        <time>2024-11-15T18:01:47.000Z</time>
      </trkpt>
      <trkpt lat="45.84935" lon="3.5443">
        <ele>315</ele>
        <time>2024-11-15T18:01:48.000Z</time>
      </trkpt>
      <trkpt lat="45.84935" lon="3.54433">
        <ele>315.20001220703</ele>
        <time>2024-11-15T18:01:49.000Z</time>
      </trkpt>
      <trkpt lat="45.84936" lon="3.54437">
        <ele>315.20001220703</ele>
        <time>2024-11-15T18:01:50.000Z</time>
      </trkpt>
      <trkpt lat="45.84936" lon="3.54441">
        <ele>315.60000610352</ele>
        <time>2024-11-15T18:01:51.000Z</time>
      </trkpt>
      <trkpt lat="45.84937" lon="3.54444">
        <ele>315.60000610352</ele>
        <time>2024-11-15T18:01:52.000Z</time>
      </trkpt>
      <trkpt lat="45.84939" lon="3.54448">
        <ele>315.79998779297</ele>
        <time>2024-11-15T18:01:53.000Z</time>
      </trkpt>
      <trkpt lat="45.8494" lon="3.54451">
        <ele>316</ele>
        <time>2024-11-15T18:01:54.000Z</time>
      </trkpt>
      <trkpt lat="45.84942" lon="3.54454">
        <ele>316</ele>
        <time>2024-11-15T18:01:55.000Z</time>
      </trkpt>
      <trkpt lat="45.84944" lon="3.54456">
        <ele>316</ele>
        <time>2024-11-15T18:01:56.000Z</time>
      </trkpt>
      <trkpt lat="45.84946" lon="3.54458">
        <ele>316.20001220703</ele>
        <time>2024-11-15T18:01:57.000Z</time>
      </trkpt>
      <trkpt lat="45.84948" lon="3.5446">
        <ele>316.20001220703</ele>
        <time>2024-11-15T18:01:58.000Z</time>
      </trkpt>
      <trkpt lat="45.8495" lon="3.54462">
        <ele>316.20001220703</ele>
        <time>2024-11-15T18:01:59.000Z</time>
      </trkpt>
      <trkpt lat="45.84953" lon="3.54463">
        <ele>316.20001220703</ele>
        <time>2024-11-15T18:02:00.000Z</time>
      </trkpt>
      <trkpt lat="45.84955" lon="3.54464">
        <ele>316</ele>
        <time>2024-11-15T18:02:01.000Z</time>
      </trkpt>
      <trkpt lat="45.84958" lon="3.54465">
        <ele>316</ele>
        <time>2024-11-15T18:02:02.000Z</time>
      </trkpt>
      <trkpt lat="45.8496" lon="3.54465">
        <ele>316</ele>
        <time>2024-11-15T18:02:03.000Z</time>
      </trkpt>
      <trkpt lat="45.84963" lon="3.54466">
        <ele>315.60000610352</ele>
        <time>2024-11-15T18:02:04.000Z</time>
      </trkpt>
      <trkpt lat="45.84966" lon="3.54467">
        <ele>315.39999389648</ele>
        <time>2024-11-15T18:02:05.000Z</time>
      </trkpt>
      <trkpt lat="45.84968" lon="3.54468">
        <ele>315.39999389648</ele>
        <time>2024-11-15T18:02:06.000Z</time>
      </trkpt>
      <trkpt lat="45.84971" lon="3.54469">
        <ele>315.39999389648</ele>
        <time>2024-11-15T18:02:07.000Z</time>
      </trkpt>
      <trkpt lat="45.84973" lon="3.5447">
        <ele>315.20001220703</ele>
        <time>2024-11-15T18:02:08.000Z</time>
      </trkpt>
      <trkpt lat="45.84976" lon="3.54471">
        <ele>315.20001220703</ele>
        <time>2024-11-15T18:02:09.000Z</time>
      </trkpt>
      <trkpt lat="45.84979" lon="3.54472">
        <ele>315.20001220703</ele>
        <time>2024-11-15T18:02:10.000Z</time>
      </trkpt>
      <trkpt lat="45.84981" lon="3.54473">
        <ele>315</ele>
        <time>2024-11-15T18:02:11.000Z</time>
      </trkpt>
      <trkpt lat="45.84984" lon="3.54473">
        <ele>315</ele>
        <time>2024-11-15T18:02:12.000Z</time>
      </trkpt>
      <trkpt lat="45.84987" lon="3.54474">
        <ele>314.79998779297</ele>
        <time>2024-11-15T18:02:13.000Z</time>
      </trkpt>
      <trkpt lat="45.84989" lon="3.54475">
        <ele>314.79998779297</ele>
        <time>2024-11-15T18:02:14.000Z</time>
      </trkpt>
      <trkpt lat="45.84992" lon="3.54476">
        <ele>314.79998779297</ele>
        <time>2024-11-15T18:02:15.000Z</time>
      </trkpt>
      <trkpt lat="45.84994" lon="3.54478">
        <ele>314.79998779297</ele>
        <time>2024-11-15T18:02:16.000Z</time>
      </trkpt>
      <trkpt lat="45.84995" lon="3.5448">
        <ele>314.79998779297</ele>
        <time>2024-11-15T18:02:17.000Z</time>
      </trkpt>
      <trkpt lat="45.84995" lon="3.54483">
        <ele>314.79998779297</ele>
        <time>2024-11-15T18:02:18.000Z</time>
      </trkpt>
      <trkpt lat="45.84994" lon="3.54485">
        <ele>315</ele>
        <time>2024-11-15T18:02:19.000Z</time>
      </trkpt>
      <trkpt lat="45.84993" lon="3.54487">
        <ele>315</ele>
        <time>2024-11-15T18:02:20.000Z</time>
      </trkpt>
      <trkpt lat="45.84992" lon="3.5449">
        <ele>315.20001220703</ele>
        <time>2024-11-15T18:02:21.000Z</time>
      </trkpt>
      <trkpt lat="45.84991" lon="3.54492">
        <ele>315.20001220703</ele>
        <time>2024-11-15T18:02:22.000Z</time>
      </trkpt>
      <trkpt lat="45.8499" lon="3.54494">
        <ele>315.60000610352</ele>
        <time>2024-11-15T18:02:23.000Z</time>
      </trkpt>
      <trkpt lat="45.84989" lon="3.54497">
        <ele>316</ele>
        <time>2024-11-15T18:02:24.000Z</time>
      </trkpt>
      <trkpt lat="45.84988" lon="3.54499">
        <ele>316.60000610352</ele>
        <time>2024-11-15T18:02:25.000Z</time>
      </trkpt>
      <trkpt lat="45.84987" lon="3.54502">
        <ele>316.79998779297</ele>
        <time>2024-11-15T18:02:26.000Z</time>
      </trkpt>
      <trkpt lat="45.84986" lon="3.54504">
        <ele>317.20001220703</ele>
        <time>2024-11-15T18:02:27.000Z</time>
      </trkpt>
      <trkpt lat="45.84986" lon="3.54507">
        <ele>317.39999389648</ele>
        <time>2024-11-15T18:02:28.000Z</time>
      </trkpt>
      <trkpt lat="45.84986" lon="3.5451">
        <ele>317.79998779297</ele>
        <time>2024-11-15T18:02:29.000Z</time>
      </trkpt>
      <trkpt lat="45.84985" lon="3.54513">
        <ele>318.20001220703</ele>
        <time>2024-11-15T18:02:30.000Z</time>
      </trkpt>
      <trkpt lat="45.84985" lon="3.54515">
        <ele>318.39999389648</ele>
        <time>2024-11-15T18:02:31.000Z</time>
      </trkpt>
      <trkpt lat="45.84984" lon="3.54518">
        <ele>318.60000610352</ele>
        <time>2024-11-15T18:02:32.000Z</time>
      </trkpt>
      <trkpt lat="45.84984" lon="3.54521">
        <ele>319</ele>
        <time>2024-11-15T18:02:33.000Z</time>
      </trkpt>
      <trkpt lat="45.84984" lon="3.54523">
        <ele>319.20001220703</ele>
        <time>2024-11-15T18:02:34.000Z</time>
      </trkpt>
      <trkpt lat="45.84983" lon="3.54526">
        <ele>319.39999389648</ele>
        <time>2024-11-15T18:02:35.000Z</time>
      </trkpt>
      <trkpt lat="45.84983" lon="3.54528">
        <ele>319.79998779297</ele>
        <time>2024-11-15T18:02:36.000Z</time>
      </trkpt>
      <trkpt lat="45.84983" lon="3.54531">
        <ele>320.39999389648</ele>
        <time>2024-11-15T18:02:37.000Z</time>
      </trkpt>
      <trkpt lat="45.84983" lon="3.54533">
        <ele>320.60000610352</ele>
        <time>2024-11-15T18:02:38.000Z</time>
      </trkpt>
      <trkpt lat="45.84983" lon="3.54536">
        <ele>321.20001220703</ele>
        <time>2024-11-15T18:02:39.000Z</time>
      </trkpt>
      <trkpt lat="45.84983" lon="3.54538">
        <ele>321.60000610352</ele>
        <time>2024-11-15T18:02:40.000Z</time>
      </trkpt>
      <trkpt lat="45.84984" lon="3.5454">
        <ele>322.20001220703</ele>
        <time>2024-11-15T18:02:41.000Z</time>
      </trkpt>
      <trkpt lat="45.84984" lon="3.54542">
        <ele>323</ele>
        <time>2024-11-15T18:02:42.000Z</time>
      </trkpt>
      <trkpt lat="45.84985" lon="3.54544">
        <ele>323.20001220703</ele>
        <time>2024-11-15T18:02:43.000Z</time>
      </trkpt>
      <trkpt lat="45.84986" lon="3.54546">
        <ele>323.39999389648</ele>
        <time>2024-11-15T18:02:44.000Z</time>
      </trkpt>
      <trkpt lat="45.84988" lon="3.54548">
        <ele>323.60000610352</ele>
        <time>2024-11-15T18:02:45.000Z</time>
      </trkpt>
      <trkpt lat="45.84989" lon="3.5455">
        <ele>324</ele>
        <time>2024-11-15T18:02:46.000Z</time>
      </trkpt>
      <trkpt lat="45.8499" lon="3.54552">
        <ele>324.39999389648</ele>
        <time>2024-11-15T18:02:47.000Z</time>
      </trkpt>
      <trkpt lat="45.84991" lon="3.54553">
        <ele>324.60000610352</ele>
        <time>2024-11-15T18:02:48.000Z</time>
      </trkpt>
      <trkpt lat="45.84992" lon="3.54555">
        <ele>325</ele>
        <time>2024-11-15T18:02:49.000Z</time>
      </trkpt>
      <trkpt lat="45.84993" lon="3.54556">
        <ele>325.20001220703</ele>
        <time>2024-11-15T18:02:50.000Z</time>
      </trkpt>
      <trkpt lat="45.84994" lon="3.54558">
        <ele>325.60000610352</ele>
        <time>2024-11-15T18:02:51.000Z</time>
      </trkpt>
      <trkpt lat="45.84995" lon="3.5456">
        <ele>325.79998779297</ele>
        <time>2024-11-15T18:02:52.000Z</time>
      </trkpt>
      <trkpt lat="45.84996" lon="3.54561">
        <ele>326.20001220703</ele>
        <time>2024-11-15T18:02:53.000Z</time>
      </trkpt>
      <trkpt lat="45.84997" lon="3.54563">
        <ele>326.79998779297</ele>
        <time>2024-11-15T18:02:54.000Z</time>
      </trkpt>
      <trkpt lat="45.84998" lon="3.54564">
        <ele>327</ele>
        <time>2024-11-15T18:02:55.000Z</time>
      </trkpt>
      <trkpt lat="45.84999" lon="3.54565">
        <ele>327.20001220703</ele>
        <time>2024-11-15T18:02:56.000Z</time>
      </trkpt>
      <trkpt lat="45.85" lon="3.54566">
        <ele>327.60000610352</ele>
        <time>2024-11-15T18:02:57.000Z</time>
      </trkpt>
      <trkpt lat="45.85001" lon="3.54567">
        <ele>328</ele>
        <time>2024-11-15T18:02:58.000Z</time>
      </trkpt>
      <trkpt lat="45.85003" lon="3.54568">
        <ele>328.60000610352</ele>
        <time>2024-11-15T18:02:59.000Z</time>
      </trkpt>
      <trkpt lat="45.85004" lon="3.54569">
        <ele>328.79998779297</ele>
        <time>2024-11-15T18:03:00.000Z</time>
      </trkpt>
      <trkpt lat="45.85005" lon="3.5457">
        <ele>329.39999389648</ele>
        <time>2024-11-15T18:03:01.000Z</time>
      </trkpt>
      <trkpt lat="45.85006" lon="3.54572">
        <ele>329.79998779297</ele>
        <time>2024-11-15T18:03:02.000Z</time>
      </trkpt>
      <trkpt lat="45.85006" lon="3.54573">
        <ele>330</ele>
        <time>2024-11-15T18:03:03.000Z</time>
      </trkpt>
      <trkpt lat="45.85007" lon="3.54575">
        <ele>330.39999389648</ele>
        <time>2024-11-15T18:03:04.000Z</time>
      </trkpt>
      <trkpt lat="45.85007" lon="3.54576">
        <ele>330.79998779297</ele>
        <time>2024-11-15T18:03:05.000Z</time>
      </trkpt>
      <trkpt lat="45.85008" lon="3.54578">
        <ele>331</ele>
        <time>2024-11-15T18:03:06.000Z</time>
      </trkpt>
      <trkpt lat="45.85008" lon="3.5458">
        <ele>331.39999389648</ele>
        <time>2024-11-15T18:03:07.000Z</time>
      </trkpt>
      <trkpt lat="45.85008" lon="3.54581">
        <ele>331.79998779297</ele>
        <time>2024-11-15T18:03:08.000Z</time>
      </trkpt>
      <trkpt lat="45.85008" lon="3.54583">
        <ele>332.20001220703</ele>
        <time>2024-11-15T18:03:09.000Z</time>
      </trkpt>
      <trkpt lat="45.85008" lon="3.54585">
        <ele>332.39999389648</ele>
        <time>2024-11-15T18:03:10.000Z</time>
      </trkpt>
      <trkpt lat="45.85008" lon="3.54587">
        <ele>332.60000610352</ele>
        <time>2024-11-15T18:03:11.000Z</time>
      </trkpt>
      <trkpt lat="45.85008" lon="3.54589">
        <ele>333</ele>
        <time>2024-11-15T18:03:12.000Z</time>
      </trkpt>
      <trkpt lat="45.85008" lon="3.54591">
        <ele>333.20001220703</ele>
        <time>2024-11-15T18:03:13.000Z</time>
      </trkpt>
      <trkpt lat="45.85008" lon="3.54593">
        <ele>333.39999389648</ele>
        <time>2024-11-15T18:03:14.000Z</time>
      </trkpt>
      <trkpt lat="45.85008" lon="3.54595">
        <ele>333.60000610352</ele>
        <time>2024-11-15T18:03:15.000Z</time>
      </trkpt>
      <trkpt lat="45.85009" lon="3.54596">
        <ele>334</ele>
        <time>2024-11-15T18:03:16.000Z</time>
      </trkpt>
      <trkpt lat="45.85009" lon="3.54598">
        <ele>334.39999389648</ele>
        <time>2024-11-15T18:03:17.000Z</time>
      </trkpt>
      <trkpt lat="45.85009" lon="3.54599">
        <ele>334.60000610352</ele>
        <time>2024-11-15T18:03:18.000Z</time>
      </trkpt>
      <trkpt lat="45.8501" lon="3.546">
        <ele>334.79998779297</ele>
        <time>2024-11-15T18:03:19.000Z</time>
      </trkpt>
      <trkpt lat="45.8501" lon="3.54601">
        <ele>335</ele>
        <time>2024-11-15T18:03:20.000Z</time>
      </trkpt>
      <trkpt lat="45.8501" lon="3.54602">
        <ele>335.20001220703</ele>
        <time>2024-11-15T18:03:21.000Z</time>
      </trkpt>
      <trkpt lat="45.85011" lon="3.54604">
        <ele>335.39999389648</ele>
        <time>2024-11-15T18:03:22.000Z</time>
      </trkpt>
      <trkpt lat="45.85011" lon="3.54605">
        <ele>335.79998779297</ele>
        <time>2024-11-15T18:03:23.000Z</time>
      </trkpt>
      <trkpt lat="45.85011" lon="3.54607">
        <ele>336</ele>
        <time>2024-11-15T18:03:24.000Z</time>
      </trkpt>
      <trkpt lat="45.85012" lon="3.54608">
        <ele>336.60000610352</ele>
        <time>2024-11-15T18:03:25.000Z</time>
      </trkpt>
      <trkpt lat="45.85012" lon="3.5461">
        <ele>337</ele>
        <time>2024-11-15T18:03:26.000Z</time>
      </trkpt>
      <trkpt lat="45.85012" lon="3.54612">
        <ele>337.20001220703</ele>
        <time>2024-11-15T18:03:27.000Z</time>
      </trkpt>
      <trkpt lat="45.85012" lon="3.54613">
        <ele>337.39999389648</ele>
        <time>2024-11-15T18:03:28.000Z</time>
      </trkpt>
      <trkpt lat="45.85012" lon="3.54615">
        <ele>337.60000610352</ele>
        <time>2024-11-15T18:03:29.000Z</time>
      </trkpt>
      <trkpt lat="45.85012" lon="3.54617">
        <ele>338</ele>
        <time>2024-11-15T18:03:30.000Z</time>
      </trkpt>
      <trkpt lat="45.85012" lon="3.54618">
        <ele>338.39999389648</ele>
        <time>2024-11-15T18:03:31.000Z</time>
      </trkpt>
      <trkpt lat="45.85012" lon="3.5462">
        <ele>338.60000610352</ele>
        <time>2024-11-15T18:03:32.000Z</time>
      </trkpt>
      <trkpt lat="45.85012" lon="3.54622">
        <ele>338.79998779297</ele>
        <time>2024-11-15T18:03:33.000Z</time>
      </trkpt>
      <trkpt lat="45.85012" lon="3.54624">
        <ele>339.39999389648</ele>
        <time>2024-11-15T18:03:34.000Z</time>
      </trkpt>
      <trkpt lat="45.85013" lon="3.54626">
        <ele>339.60000610352</ele>
        <time>2024-11-15T18:03:35.000Z</time>
      </trkpt>
      <trkpt lat="45.85013" lon="3.54628">
        <ele>339.79998779297</ele>
        <time>2024-11-15T18:03:36.000Z</time>
      </trkpt>
      <trkpt lat="45.85013" lon="3.54629">
        <ele>340.20001220703</ele>
        <time>2024-11-15T18:03:37.000Z</time>
      </trkpt>
      <trkpt lat="45.85013" lon="3.54631">
        <ele>340.39999389648</ele>
        <time>2024-11-15T18:03:38.000Z</time>
      </trkpt>
      <trkpt lat="45.85013" lon="3.54632">
        <ele>340.60000610352</ele>
        <time>2024-11-15T18:03:39.000Z</time>
      </trkpt>
      <trkpt lat="45.85013" lon="3.54633">
        <ele>340.79998779297</ele>
        <time>2024-11-15T18:03:40.000Z</time>
      </trkpt>
      <trkpt lat="45.85013" lon="3.54634">
        <ele>341.20001220703</ele>
        <time>2024-11-15T18:03:41.000Z</time>
      </trkpt>
      <trkpt lat="45.85013" lon="3.54635">
        <ele>341.39999389648</ele>
        <time>2024-11-15T18:03:42.000Z</time>
      </trkpt>
      <trkpt lat="45.85013" lon="3.54636">
        <ele>341.79998779297</ele>
        <time>2024-11-15T18:03:43.000Z</time>
      </trkpt>
      <trkpt lat="45.85013" lon="3.54638">
        <ele>342.20001220703</ele>
        <time>2024-11-15T18:03:44.000Z</time>
      </trkpt>
      <trkpt lat="45.85013" lon="3.54639">
        <ele>342.60000610352</ele>
        <time>2024-11-15T18:03:45.000Z</time>
      </trkpt>
      <trkpt lat="45.85014" lon="3.54641">
        <ele>342.79998779297</ele>
        <time>2024-11-15T18:03:46.000Z</time>
      </trkpt>
      <trkpt lat="45.85014" lon="3.54642">
        <ele>343</ele>
        <time>2024-11-15T18:03:47.000Z</time>
      </trkpt>
      <trkpt lat="45.85014" lon="3.54643">
        <ele>343.39999389648</ele>
        <time>2024-11-15T18:03:48.000Z</time>
      </trkpt>
      <trkpt lat="45.85015" lon="3.54644">
        <ele>343.60000610352</ele>
        <time>2024-11-15T18:03:49.000Z</time>
      </trkpt>
      <trkpt lat="45.85015" lon="3.54645">
        <ele>344</ele>
        <time>2024-11-15T18:03:50.000Z</time>
      </trkpt>
      <trkpt lat="45.85015" lon="3.54646">
        <ele>344.20001220703</ele>
        <time>2024-11-15T18:03:51.000Z</time>
      </trkpt>
      <trkpt lat="45.85015" lon="3.54647">
        <ele>344.60000610352</ele>
        <time>2024-11-15T18:03:52.000Z</time>
      </trkpt>
      <trkpt lat="45.85016" lon="3.54648">
        <ele>344.79998779297</ele>
        <time>2024-11-15T18:03:53.000Z</time>
      </trkpt>
      <trkpt lat="45.85016" lon="3.54649">
        <ele>345</ele>
        <time>2024-11-15T18:03:54.000Z</time>
      </trkpt>
      <trkpt lat="45.85016" lon="3.5465">
        <ele>345.20001220703</ele>
        <time>2024-11-15T18:03:55.000Z</time>
      </trkpt>
      <trkpt lat="45.85016" lon="3.54651">
        <ele>345.39999389648</ele>
        <time>2024-11-15T18:03:56.000Z</time>
      </trkpt>
      <trkpt lat="45.85017" lon="3.54652">
        <ele>345.79998779297</ele>
        <time>2024-11-15T18:03:57.000Z</time>
      </trkpt>
      <trkpt lat="45.85017" lon="3.54653">
        <ele>345.79998779297</ele>
        <time>2024-11-15T18:03:58.000Z</time>
      </trkpt>
      <trkpt lat="45.85017" lon="3.54654">
        <ele>346.20001220703</ele>
        <time>2024-11-15T18:03:59.000Z</time>
      </trkpt>
      <trkpt lat="45.85017" lon="3.54655">
        <ele>346.39999389648</ele>
        <time>2024-11-15T18:04:00.000Z</time>
      </trkpt>
      <trkpt lat="45.85017" lon="3.54656">
        <ele>346.79998779297</ele>
        <time>2024-11-15T18:04:01.000Z</time>
      </trkpt>
      <trkpt lat="45.85017" lon="3.54658">
        <ele>347</ele>
        <time>2024-11-15T18:04:02.000Z</time>
      </trkpt>
      <trkpt lat="45.85018" lon="3.54659">
        <ele>347.20001220703</ele>
        <time>2024-11-15T18:04:03.000Z</time>
      </trkpt>
      <trkpt lat="45.85018" lon="3.5466">
        <ele>347.60000610352</ele>
        <time>2024-11-15T18:04:04.000Z</time>
      </trkpt>
      <trkpt lat="45.85018" lon="3.54661">
        <ele>347.79998779297</ele>
        <time>2024-11-15T18:04:05.000Z</time>
      </trkpt>
      <trkpt lat="45.85018" lon="3.54662">
        <ele>348.20001220703</ele>
        <time>2024-11-15T18:04:06.000Z</time>
      </trkpt>
      <trkpt lat="45.85018" lon="3.54664">
        <ele>348.39999389648</ele>
        <time>2024-11-15T18:04:07.000Z</time>
      </trkpt>
      <trkpt lat="45.85018" lon="3.54665">
        <ele>348.60000610352</ele>
        <time>2024-11-15T18:04:08.000Z</time>
      </trkpt>
      <trkpt lat="45.85018" lon="3.54666">
        <ele>349</ele>
        <time>2024-11-15T18:04:09.000Z</time>
      </trkpt>
      <trkpt lat="45.85018" lon="3.54667">
        <ele>349.60000610352</ele>
        <time>2024-11-15T18:04:10.000Z</time>
      </trkpt>
      <trkpt lat="45.85018" lon="3.54668">
        <ele>349.79998779297</ele>
        <time>2024-11-15T18:04:11.000Z</time>
      </trkpt>
      <trkpt lat="45.85018" lon="3.54669">
        <ele>350</ele>
        <time>2024-11-15T18:04:12.000Z</time>
      </trkpt>
      <trkpt lat="45.85018" lon="3.5467">
        <ele>350.39999389648</ele>
        <time>2024-11-15T18:04:13.000Z</time>
      </trkpt>
      <trkpt lat="45.85017" lon="3.54671">
        <ele>350.60000610352</ele>
        <time>2024-11-15T18:04:14.000Z</time>
      </trkpt>
      <trkpt lat="45.85017" lon="3.54671">
        <ele>350.79998779297</ele>
        <time>2024-11-15T18:04:15.000Z</time>
      </trkpt>
      <trkpt lat="45.85016" lon="3.54672">
        <ele>351.20001220703</ele>
        <time>2024-11-15T18:04:16.000Z</time>
      </trkpt>
      <trkpt lat="45.85016" lon="3.54673">
        <ele>351.39999389648</ele>
        <time>2024-11-15T18:04:17.000Z</time>
      </trkpt>
      <trkpt lat="45.85015" lon="3.54674">
        <ele>351.60000610352</ele>
        <time>2024-11-15T18:04:18.000Z</time>
      </trkpt>
      <trkpt lat="45.85014" lon="3.54675">
        <ele>352</ele>
        <time>2024-11-15T18:04:19.000Z</time>
      </trkpt>
      <trkpt lat="45.85014" lon="3.54675">
        <ele>352.20001220703</ele>
        <time>2024-11-15T18:04:20.000Z</time>
      </trkpt>
      <trkpt lat="45.85013" lon="3.54675">
        <ele>352.39999389648</ele>
        <time>2024-11-15T18:04:21.000Z</time>
      </trkpt>
      <trkpt lat="45.85012" lon="3.54675">
        <ele>352.79998779297</ele>
        <time>2024-11-15T18:04:22.000Z</time>
      </trkpt>
      <trkpt lat="45.85011" lon="3.54675">
        <ele>353</ele>
        <time>2024-11-15T18:04:23.000Z</time>
      </trkpt>
      <trkpt lat="45.8501" lon="3.54675">
        <ele>353.20001220703</ele>
        <time>2024-11-15T18:04:24.000Z</time>
      </trkpt>
      <trkpt lat="45.85009" lon="3.54675">
        <ele>353.20001220703</ele>
        <time>2024-11-15T18:04:25.000Z</time>
      </trkpt>
      <trkpt lat="45.85009" lon="3.54674">
        <ele>353.39999389648</ele>
        <time>2024-11-15T18:04:26.000Z</time>
      </trkpt>
      <trkpt lat="45.85008" lon="3.54673">
        <ele>353.79998779297</ele>
        <time>2024-11-15T18:04:27.000Z</time>
      </trkpt>
      <trkpt lat="45.85007" lon="3.54673">
        <ele>354.20001220703</ele>
        <time>2024-11-15T18:04:28.000Z</time>
      </trkpt>
      <trkpt lat="45.85007" lon="3.54672">
        <ele>354.39999389648</ele>
        <time>2024-11-15T18:04:29.000Z</time>
      </trkpt>
      <trkpt lat="45.85006" lon="3.54671">
        <ele>354.60000610352</ele>
        <time>2024-11-15T18:04:30.000Z</time>
      </trkpt>
      <trkpt lat="45.85006" lon="3.5467">
        <ele>354.79998779297</ele>
        <time>2024-11-15T18:04:31.000Z</time>
      </trkpt>
      <trkpt lat="45.85005" lon="3.54669">
        <ele>355</ele>
        <time>2024-11-15T18:04:32.000Z</time>
      </trkpt>
      <trkpt lat="45.85004" lon="3.54669">
        <ele>355.20001220703</ele>
        <time>2024-11-15T18:04:33.000Z</time>
      </trkpt>
      <trkpt lat="45.85004" lon="3.54668">
        <ele>355.60000610352</ele>
        <time>2024-11-15T18:04:34.000Z</time>
      </trkpt>
      <trkpt lat="45.85003" lon="3.54667">
        <ele>356</ele>
        <time>2024-11-15T18:04:35.000Z</time>
      </trkpt>
      <trkpt lat="45.85002" lon="3.54666">
        <ele>356.20001220703</ele>
        <time>2024-11-15T18:04:36.000Z</time>
      </trkpt>
      <trkpt lat="45.85002" lon="3.54666">
        <ele>356.39999389648</ele>
        <time>2024-11-15T18:04:37.000Z</time>
      </trkpt>
      <trkpt lat="45.85001" lon="3.54665">
        <ele>356.60000610352</ele>
        <time>2024-11-15T18:04:38.000Z</time>
      </trkpt>
      <trkpt lat="45.85" lon="3.54664">
        <ele>356.79998779297</ele>
        <time>2024-11-15T18:04:39.000Z</time>
      </trkpt>
      <trkpt lat="45.84999" lon="3.54663">
        <ele>357</ele>
        <time>2024-11-15T18:04:40.000Z</time>
      </trkpt>
      <trkpt lat="45.84999" lon="3.54662">
        <ele>357.20001220703</ele>
        <time>2024-11-15T18:04:41.000Z</time>
      </trkpt>
      <trkpt lat="45.84998" lon="3.54661">
        <ele>357.39999389648</ele>
        <time>2024-11-15T18:04:42.000Z</time>
      </trkpt>
      <trkpt lat="45.84997" lon="3.5466">
        <ele>357.79998779297</ele>
        <time>2024-11-15T18:04:43.000Z</time>
      </trkpt>
      <trkpt lat="45.84997" lon="3.54659">
        <ele>358.20001220703</ele>
        <time>2024-11-15T18:04:44.000Z</time>
      </trkpt>
      <trkpt lat="45.84996" lon="3.54658">
        <ele>358.39999389648</ele>
        <time>2024-11-15T18:04:45.000Z</time>
      </trkpt>
      <trkpt lat="45.84995" lon="3.54657">
        <ele>358.60000610352</ele>
        <time>2024-11-15T18:04:46.000Z</time>
      </trkpt>
      <trkpt lat="45.84994" lon="3.54656">
        <ele>358.79998779297</ele>
        <time>2024-11-15T18:04:47.000Z</time>
      </trkpt>
      <trkpt lat="45.84993" lon="3.54655">
        <ele>359</ele>
        <time>2024-11-15T18:04:48.000Z</time>
      </trkpt>
      <trkpt lat="45.84992" lon="3.54655">
        <ele>359.20001220703</ele>
        <time>2024-11-15T18:04:49.000Z</time>
      </trkpt>
      <trkpt lat="45.84991" lon="3.54654">
        <ele>359.39999389648</ele>
        <time>2024-11-15T18:04:50.000Z</time>
      </trkpt>
      <trkpt lat="45.8499" lon="3.54653">
        <ele>359.60000610352</ele>
        <time>2024-11-15T18:04:51.000Z</time>
      </trkpt>
      <trkpt lat="45.84989" lon="3.54653">
        <ele>359.79998779297</ele>
        <time>2024-11-15T18:04:52.000Z</time>
      </trkpt>
      <trkpt lat="45.84988" lon="3.54652">
        <ele>360</ele>
        <time>2024-11-15T18:04:53.000Z</time>
      </trkpt>
      <trkpt lat="45.84987" lon="3.54651">
        <ele>360.20001220703</ele>
        <time>2024-11-15T18:04:54.000Z</time>
      </trkpt>
      <trkpt lat="45.84986" lon="3.5465">
        <ele>360.60000610352</ele>
        <time>2024-11-15T18:04:55.000Z</time>
      </trkpt>
      <trkpt lat="45.84985" lon="3.54649">
        <ele>360.79998779297</ele>
        <time>2024-11-15T18:04:56.000Z</time>
      </trkpt>
      <trkpt lat="45.84984" lon="3.54648">
        <ele>361.20001220703</ele>
        <time>2024-11-15T18:04:57.000Z</time>
      </trkpt>
      <trkpt lat="45.84983" lon="3.54648">
        <ele>361.39999389648</ele>
        <time>2024-11-15T18:04:58.000Z</time>
      </trkpt>
      <trkpt lat="45.84982" lon="3.54647">
        <ele>361.39999389648</ele>
        <time>2024-11-15T18:04:59.000Z</time>
      </trkpt>
      <trkpt lat="45.84981" lon="3.54646">
        <ele>361.79998779297</ele>
        <time>2024-11-15T18:05:00.000Z</time>
      </trkpt>
      <trkpt lat="45.8498" lon="3.54645">
        <ele>361.79998779297</ele>
        <time>2024-11-15T18:05:01.000Z</time>
      </trkpt>
      <trkpt lat="45.84979" lon="3.54644">
        <ele>362</ele>
        <time>2024-11-15T18:05:02.000Z</time>
      </trkpt>
      <trkpt lat="45.84979" lon="3.54643">
        <ele>362.39999389648</ele>
        <time>2024-11-15T18:05:03.000Z</time>
      </trkpt>
      <trkpt lat="45.84978" lon="3.54642">
        <ele>362.60000610352</ele>
        <time>2024-11-15T18:05:04.000Z</time>
      </trkpt>
      <trkpt lat="45.84977" lon="3.54641">
        <ele>362.79998779297</ele>
        <time>2024-11-15T18:05:05.000Z</time>
      </trkpt>
      <trkpt lat="45.84976" lon="3.54639">
        <ele>363</ele>
        <time>2024-11-15T18:05:06.000Z</time>
      </trkpt>
      <trkpt lat="45.84975" lon="3.54638">
        <ele>363.39999389648</ele>
        <time>2024-11-15T18:05:07.000Z</time>
      </trkpt>
      <trkpt lat="45.84974" lon="3.54637">
        <ele>363.60000610352</ele>
        <time>2024-11-15T18:05:08.000Z</time>
      </trkpt>
      <trkpt lat="45.84973" lon="3.54636">
        <ele>364.20001220703</ele>
        <time>2024-11-15T18:05:09.000Z</time>
      </trkpt>
      <trkpt lat="45.84972" lon="3.54636">
        <ele>364.20001220703</ele>
        <time>2024-11-15T18:05:10.000Z</time>
      </trkpt>
      <trkpt lat="45.84972" lon="3.54635">
        <ele>364.39999389648</ele>
        <time>2024-11-15T18:05:11.000Z</time>
      </trkpt>
      <trkpt lat="45.84971" lon="3.54634">
        <ele>364.79998779297</ele>
        <time>2024-11-15T18:05:12.000Z</time>
      </trkpt>
      <trkpt lat="45.8497" lon="3.54633">
        <ele>365.20001220703</ele>
        <time>2024-11-15T18:05:13.000Z</time>
      </trkpt>
      <trkpt lat="45.84969" lon="3.54632">
        <ele>365.20001220703</ele>
        <time>2024-11-15T18:05:14.000Z</time>
      </trkpt>
      <trkpt lat="45.84968" lon="3.54631">
        <ele>365.60000610352</ele>
        <time>2024-11-15T18:05:15.000Z</time>
      </trkpt>
      <trkpt lat="45.84967" lon="3.54631">
        <ele>365.79998779297</ele>
        <time>2024-11-15T18:05:16.000Z</time>
      </trkpt>
      <trkpt lat="45.84966" lon="3.5463">
        <ele>366</ele>
        <time>2024-11-15T18:05:17.000Z</time>
      </trkpt>
      <trkpt lat="45.84965" lon="3.54629">
        <ele>366.39999389648</ele>
        <time>2024-11-15T18:05:18.000Z</time>
      </trkpt>
      <trkpt lat="45.84964" lon="3.54628">
        <ele>366.60000610352</ele>
        <time>2024-11-15T18:05:19.000Z</time>
      </trkpt>
      <trkpt lat="45.84963" lon="3.54627">
        <ele>367</ele>
        <time>2024-11-15T18:05:20.000Z</time>
      </trkpt>
      <trkpt lat="45.84962" lon="3.54626">
        <ele>367.20001220703</ele>
        <time>2024-11-15T18:05:21.000Z</time>
      </trkpt>
      <trkpt lat="45.84961" lon="3.54625">
        <ele>367.39999389648</ele>
        <time>2024-11-15T18:05:22.000Z</time>
      </trkpt>
      <trkpt lat="45.84959" lon="3.54625">
        <ele>367.60000610352</ele>
        <time>2024-11-15T18:05:23.000Z</time>
      </trkpt>
      <trkpt lat="45.84958" lon="3.54624">
        <ele>367.79998779297</ele>
        <time>2024-11-15T18:05:24.000Z</time>
      </trkpt>
      <trkpt lat="45.84957" lon="3.54624">
        <ele>368</ele>
        <time>2024-11-15T18:05:25.000Z</time>
      </trkpt>
      <trkpt lat="45.84956" lon="3.54624">
        <ele>368.20001220703</ele>
        <time>2024-11-15T18:05:26.000Z</time>
      </trkpt>
      <trkpt lat="45.84955" lon="3.54624">
        <ele>368.39999389648</ele>
        <time>2024-11-15T18:05:27.000Z</time>
      </trkpt>
      <trkpt lat="45.84954" lon="3.54624">
        <ele>368.60000610352</ele>
        <time>2024-11-15T18:05:28.000Z</time>
      </trkpt>
      <trkpt lat="45.84953" lon="3.54624">
        <ele>368.79998779297</ele>
        <time>2024-11-15T18:05:29.000Z</time>
      </trkpt>
      <trkpt lat="45.84952" lon="3.54624">
        <ele>369</ele>
        <time>2024-11-15T18:05:30.000Z</time>
      </trkpt>
      <trkpt lat="45.84951" lon="3.54623">
        <ele>369.20001220703</ele>
        <time>2024-11-15T18:05:31.000Z</time>
      </trkpt>
      <trkpt lat="45.84951" lon="3.54623">
        <ele>369.60000610352</ele>
        <time>2024-11-15T18:05:32.000Z</time>
      </trkpt>
      <trkpt lat="45.8495" lon="3.54623">
        <ele>369.60000610352</ele>
        <time>2024-11-15T18:05:33.000Z</time>
      </trkpt>
      <trkpt lat="45.84949" lon="3.54623">
        <ele>370</ele>
        <time>2024-11-15T18:05:34.000Z</time>
      </trkpt>
      <trkpt lat="45.84948" lon="3.54623">
        <ele>370.60000610352</ele>
        <time>2024-11-15T18:05:35.000Z</time>
      </trkpt>
      <trkpt lat="45.84947" lon="3.54623">
        <ele>370.79998779297</ele>
        <time>2024-11-15T18:05:36.000Z</time>
      </trkpt>
      <trkpt lat="45.84946" lon="3.54623">
        <ele>371.20001220703</ele>
        <time>2024-11-15T18:05:37.000Z</time>
      </trkpt>
      <trkpt lat="45.84946" lon="3.54623">
        <ele>371.39999389648</ele>
        <time>2024-11-15T18:05:38.000Z</time>
      </trkpt>
      <trkpt lat="45.84945" lon="3.54623">
        <ele>371.79998779297</ele>
        <time>2024-11-15T18:05:39.000Z</time>
      </trkpt>
      <trkpt lat="45.84944" lon="3.54624">
        <ele>372</ele>
        <time>2024-11-15T18:05:40.000Z</time>
      </trkpt>
      <trkpt lat="45.84943" lon="3.54624">
        <ele>372.20001220703</ele>
        <time>2024-11-15T18:05:41.000Z</time>
      </trkpt>
      <trkpt lat="45.84942" lon="3.54624">
        <ele>372.79998779297</ele>
        <time>2024-11-15T18:05:42.000Z</time>
      </trkpt>
      <trkpt lat="45.84941" lon="3.54624">
        <ele>373</ele>
        <time>2024-11-15T18:05:43.000Z</time>
      </trkpt>
      <trkpt lat="45.84941" lon="3.54625">
        <ele>373.20001220703</ele>
        <time>2024-11-15T18:05:44.000Z</time>
      </trkpt>
      <trkpt lat="45.8494" lon="3.54625">
        <ele>373.39999389648</ele>
        <time>2024-11-15T18:05:45.000Z</time>
      </trkpt>
      <trkpt lat="45.84939" lon="3.54626">
        <ele>373.79998779297</ele>
        <time>2024-11-15T18:05:46.000Z</time>
      </trkpt>
      <trkpt lat="45.84939" lon="3.54627">
        <ele>374</ele>
        <time>2024-11-15T18:05:47.000Z</time>
      </trkpt>
      <trkpt lat="45.84938" lon="3.54628">
        <ele>374.20001220703</ele>
        <time>2024-11-15T18:05:48.000Z</time>
      </trkpt>
      <trkpt lat="45.84938" lon="3.54629">
        <ele>374.60000610352</ele>
        <time>2024-11-15T18:05:49.000Z</time>
      </trkpt>
      <trkpt lat="45.84937" lon="3.5463">
        <ele>374.79998779297</ele>
        <time>2024-11-15T18:05:50.000Z</time>
      </trkpt>
      <trkpt lat="45.84937" lon="3.54631">
        <ele>375.20001220703</ele>
        <time>2024-11-15T18:05:51.000Z</time>
      </trkpt>
      <trkpt lat="45.84937" lon="3.54632">
        <ele>375.60000610352</ele>
        <time>2024-11-15T18:05:52.000Z</time>
      </trkpt>
      <trkpt lat="45.84936" lon="3.54633">
        <ele>375.79998779297</ele>
        <time>2024-11-15T18:05:53.000Z</time>
      </trkpt>
      <trkpt lat="45.84936" lon="3.54634">
        <ele>376</ele>
        <time>2024-11-15T18:05:54.000Z</time>
      </trkpt>
      <trkpt lat="45.84936" lon="3.54635">
        <ele>376.39999389648</ele>
        <time>2024-11-15T18:05:55.000Z</time>
      </trkpt>
      <trkpt lat="45.84935" lon="3.54636">
        <ele>376.39999389648</ele>
        <time>2024-11-15T18:05:56.000Z</time>
      </trkpt>
      <trkpt lat="45.84935" lon="3.54638">
        <ele>376.60000610352</ele>
        <time>2024-11-15T18:05:57.000Z</time>
      </trkpt>
      <trkpt lat="45.84935" lon="3.54639">
        <ele>376.79998779297</ele>
        <time>2024-11-15T18:05:58.000Z</time>
      </trkpt>
      <trkpt lat="45.84935" lon="3.5464">
        <ele>377</ele>
        <time>2024-11-15T18:05:59.000Z</time>
      </trkpt>
      <trkpt lat="45.84935" lon="3.54641">
        <ele>377.20001220703</ele>
        <time>2024-11-15T18:06:00.000Z</time>
      </trkpt>
      <trkpt lat="45.84935" lon="3.54643">
        <ele>377.60000610352</ele>
        <time>2024-11-15T18:06:01.000Z</time>
      </trkpt>
      <trkpt lat="45.84935" lon="3.54644">
        <ele>377.79998779297</ele>
        <time>2024-11-15T18:06:02.000Z</time>
      </trkpt>
      <trkpt lat="45.84935" lon="3.54645">
        <ele>378.20001220703</ele>
        <time>2024-11-15T18:06:03.000Z</time>
      </trkpt>
      <trkpt lat="45.84935" lon="3.54646">
        <ele>378.60000610352</ele>
        <time>2024-11-15T18:06:04.000Z</time>
      </trkpt>
      <trkpt lat="45.84935" lon="3.54646">
        <ele>378.79998779297</ele>
        <time>2024-11-15T18:06:05.000Z</time>
      </trkpt>
      <trkpt lat="45.84935" lon="3.54647">
        <ele>379.20001220703</ele>
        <time>2024-11-15T18:06:06.000Z</time>
      </trkpt>
      <trkpt lat="45.84935" lon="3.54647">
        <ele>379.39999389648</ele>
        <time>2024-11-15T18:06:07.000Z</time>
      </trkpt>
      <trkpt lat="45.84935" lon="3.54647">
        <ele>379.60000610352</ele>
        <time>2024-11-15T18:06:08.000Z</time>
      </trkpt>
      <trkpt lat="45.84935" lon="3.54647">
        <ele>379.79998779297</ele>
        <time>2024-11-15T18:06:09.000Z</time>
      </trkpt>
      <trkpt lat="45.84935" lon="3.54648">
        <ele>379.79998779297</ele>
        <time>2024-11-15T18:06:10.000Z</time>
      </trkpt>
      <trkpt lat="45.84935" lon="3.54648">
        <ele>379.79998779297</ele>
        <time>2024-11-15T18:06:11.000Z</time>
      </trkpt>
      <trkpt lat="45.84935" lon="3.54649">
        <ele>379.79998779297</ele>
        <time>2024-11-15T18:06:12.000Z</time>
      </trkpt>
      <trkpt lat="45.84935" lon="3.5465">
        <ele>379.79998779297</ele>
        <time>2024-11-15T18:06:13.000Z</time>
      </trkpt>
      <trkpt lat="45.84935" lon="3.54652">
        <ele>379.79998779297</ele>
        <time>2024-11-15T18:06:14.000Z</time>
      </trkpt>
      <trkpt lat="45.84935" lon="3.54653">
        <ele>380</ele>
        <time>2024-11-15T18:06:15.000Z</time>
      </trkpt>
      <trkpt lat="45.84934" lon="3.54654">
        <ele>380.39999389648</ele>
        <time>2024-11-15T18:06:16.000Z</time>
      </trkpt>
      <trkpt lat="45.84934" lon="3.54655">
        <ele>381</ele>
        <time>2024-11-15T18:06:17.000Z</time>
      </trkpt>
      <trkpt lat="45.84934" lon="3.54656">
        <ele>381.20001220703</ele>
        <time>2024-11-15T18:06:18.000Z</time>
      </trkpt>
      <trkpt lat="45.84934" lon="3.54657">
        <ele>381.39999389648</ele>
        <time>2024-11-15T18:06:19.000Z</time>
      </trkpt>
      <trkpt lat="45.84934" lon="3.54658">
        <ele>381.79998779297</ele>
        <time>2024-11-15T18:06:20.000Z</time>
      </trkpt>
      <trkpt lat="45.84933" lon="3.5466">
        <ele>382</ele>
        <time>2024-11-15T18:06:21.000Z</time>
      </trkpt>
      <trkpt lat="45.84933" lon="3.54661">
        <ele>382.20001220703</ele>
        <time>2024-11-15T18:06:22.000Z</time>
      </trkpt>
      <trkpt lat="45.84933" lon="3.54662">
        <ele>382.60000610352</ele>
        <time>2024-11-15T18:06:23.000Z</time>
      </trkpt>
      <trkpt lat="45.84932" lon="3.54663">
        <ele>383</ele>
        <time>2024-11-15T18:06:24.000Z</time>
      </trkpt>
      <trkpt lat="45.84932" lon="3.54665">
        <ele>383.39999389648</ele>
        <time>2024-11-15T18:06:25.000Z</time>
      </trkpt>
      <trkpt lat="45.84932" lon="3.54665">
        <ele>383.79998779297</ele>
        <time>2024-11-15T18:06:26.000Z</time>
      </trkpt>
      <trkpt lat="45.84932" lon="3.54666">
        <ele>384</ele>
        <time>2024-11-15T18:06:27.000Z</time>
      </trkpt>
      <trkpt lat="45.84932" lon="3.54666">
        <ele>384.39999389648</ele>
        <time>2024-11-15T18:06:28.000Z</time>
      </trkpt>
      <trkpt lat="45.84932" lon="3.54666">
        <ele>384.60000610352</ele>
        <time>2024-11-15T18:06:29.000Z</time>
      </trkpt>
      <trkpt lat="45.84931" lon="3.54667">
        <ele>384.79998779297</ele>
        <time>2024-11-15T18:06:30.000Z</time>
      </trkpt>
      <trkpt lat="45.84931" lon="3.54668">
        <ele>385</ele>
        <time>2024-11-15T18:06:31.000Z</time>
      </trkpt>
      <trkpt lat="45.84931" lon="3.54669">
        <ele>385</ele>
        <time>2024-11-15T18:06:32.000Z</time>
      </trkpt>
      <trkpt lat="45.84931" lon="3.5467">
        <ele>385</ele>
        <time>2024-11-15T18:06:33.000Z</time>
      </trkpt>
      <trkpt lat="45.8493" lon="3.54671">
        <ele>385</ele>
        <time>2024-11-15T18:06:34.000Z</time>
      </trkpt>
      <trkpt lat="45.8493" lon="3.54672">
        <ele>385.20001220703</ele>
        <time>2024-11-15T18:06:35.000Z</time>
      </trkpt>
      <trkpt lat="45.8493" lon="3.54673">
        <ele>385.39999389648</ele>
        <time>2024-11-15T18:06:36.000Z</time>
      </trkpt>
      <trkpt lat="45.8493" lon="3.54674">
        <ele>385.79998779297</ele>
        <time>2024-11-15T18:06:37.000Z</time>
      </trkpt>
      <trkpt lat="45.84929" lon="3.54676">
        <ele>385.79998779297</ele>
        <time>2024-11-15T18:06:38.000Z</time>
      </trkpt>
      <trkpt lat="45.84929" lon="3.54676">
        <ele>386</ele>
        <time>2024-11-15T18:06:39.000Z</time>
      </trkpt>
      <trkpt lat="45.84929" lon="3.54676">
        <ele>386.20001220703</ele>
        <time>2024-11-15T18:06:40.000Z</time>
      </trkpt>
      <trkpt lat="45.84929" lon="3.54676">
        <ele>386.39999389648</ele>
        <time>2024-11-15T18:06:41.000Z</time>
      </trkpt>
      <trkpt lat="45.84929" lon="3.54676">
        <ele>386.79998779297</ele>
        <time>2024-11-15T18:06:42.000Z</time>
      </trkpt>
      <trkpt lat="45.84929" lon="3.54676">
        <ele>386.79998779297</ele>
        <time>2024-11-15T18:06:43.000Z</time>
      </trkpt>
      <trkpt lat="45.84929" lon="3.54676">
        <ele>386.79998779297</ele>
        <time>2024-11-15T18:06:44.000Z</time>
      </trkpt>
      <trkpt lat="45.84929" lon="3.54677">
        <ele>387</ele>
        <time>2024-11-15T18:06:45.000Z</time>
      </trkpt>
      <trkpt lat="45.84928" lon="3.54678">
        <ele>387</ele>
        <time>2024-11-15T18:06:46.000Z</time>
      </trkpt>
      <trkpt lat="45.84928" lon="3.54679">
        <ele>387</ele>
        <time>2024-11-15T18:06:47.000Z</time>
      </trkpt>
      <trkpt lat="45.84927" lon="3.5468">
        <ele>387</ele>
        <time>2024-11-15T18:06:48.000Z</time>
      </trkpt>
      <trkpt lat="45.84927" lon="3.54681">
        <ele>387</ele>
        <time>2024-11-15T18:06:49.000Z</time>
      </trkpt>
      <trkpt lat="45.84927" lon="3.54682">
        <ele>387.20001220703</ele>
        <time>2024-11-15T18:06:50.000Z</time>
      </trkpt>
      <trkpt lat="45.84926" lon="3.54684">
        <ele>387.60000610352</ele>
        <time>2024-11-15T18:06:51.000Z</time>
      </trkpt>
      <trkpt lat="45.84926" lon="3.54685">
        <ele>388</ele>
        <time>2024-11-15T18:06:52.000Z</time>
      </trkpt>
      <trkpt lat="45.84926" lon="3.54686">
        <ele>388.20001220703</ele>
        <time>2024-11-15T18:06:53.000Z</time>
      </trkpt>
      <trkpt lat="45.84925" lon="3.54687">
        <ele>388.60000610352</ele>
        <time>2024-11-15T18:06:54.000Z</time>
      </trkpt>
      <trkpt lat="45.84925" lon="3.54688">
        <ele>389</ele>
        <time>2024-11-15T18:06:55.000Z</time>
      </trkpt>
      <trkpt lat="45.84925" lon="3.54689">
        <ele>389.20001220703</ele>
        <time>2024-11-15T18:06:56.000Z</time>
      </trkpt>
      <trkpt lat="45.84924" lon="3.5469">
        <ele>389.39999389648</ele>
        <time>2024-11-15T18:06:57.000Z</time>
      </trkpt>
      <trkpt lat="45.84924" lon="3.5469">
        <ele>389.60000610352</ele>
        <time>2024-11-15T18:06:58.000Z</time>
      </trkpt>
      <trkpt lat="45.84923" lon="3.5469">
        <ele>390.20001220703</ele>
        <time>2024-11-15T18:06:59.000Z</time>
      </trkpt>
      <trkpt lat="45.84923" lon="3.5469">
        <ele>390.39999389648</ele>
        <time>2024-11-15T18:07:00.000Z</time>
      </trkpt>
      <trkpt lat="45.84923" lon="3.5469">
        <ele>390.79998779297</ele>
        <time>2024-11-15T18:07:01.000Z</time>
      </trkpt>
      <trkpt lat="45.84923" lon="3.54691">
        <ele>390.79998779297</ele>
        <time>2024-11-15T18:07:02.000Z</time>
      </trkpt>
      <trkpt lat="45.84923" lon="3.54691">
        <ele>390.79998779297</ele>
        <time>2024-11-15T18:07:03.000Z</time>
      </trkpt>
      <trkpt lat="45.84923" lon="3.54691">
        <ele>390.79998779297</ele>
        <time>2024-11-15T18:07:04.000Z</time>
      </trkpt>
      <trkpt lat="45.84923" lon="3.54691">
        <ele>390.79998779297</ele>
        <time>2024-11-15T18:07:05.000Z</time>
      </trkpt>
      <trkpt lat="45.84923" lon="3.54691">
        <ele>390.79998779297</ele>
        <time>2024-11-15T18:07:06.000Z</time>
      </trkpt>
      <trkpt lat="45.84923" lon="3.54691">
        <ele>390.79998779297</ele>
        <time>2024-11-15T18:07:07.000Z</time>
      </trkpt>
      <trkpt lat="45.84923" lon="3.54692">
        <ele>391</ele>
        <time>2024-11-15T18:07:08.000Z</time>
      </trkpt>
      <trkpt lat="45.84922" lon="3.54693">
        <ele>391</ele>
        <time>2024-11-15T18:07:09.000Z</time>
      </trkpt>
      <trkpt lat="45.84922" lon="3.54694">
        <ele>391</ele>
        <time>2024-11-15T18:07:10.000Z</time>
      </trkpt>
      <trkpt lat="45.84922" lon="3.54695">
        <ele>391.20001220703</ele>
        <time>2024-11-15T18:07:11.000Z</time>
      </trkpt>
      <trkpt lat="45.84921" lon="3.54696">
        <ele>391.39999389648</ele>
        <time>2024-11-15T18:07:12.000Z</time>
      </trkpt>
      <trkpt lat="45.84921" lon="3.54696">
        <ele>391.60000610352</ele>
        <time>2024-11-15T18:07:13.000Z</time>
      </trkpt>
      <trkpt lat="45.84921" lon="3.54697">
        <ele>392</ele>
        <time>2024-11-15T18:07:14.000Z</time>
      </trkpt>
      <trkpt lat="45.84921" lon="3.54698">
        <ele>392.39999389648</ele>
        <time>2024-11-15T18:07:15.000Z</time>
      </trkpt>
      <trkpt lat="45.8492" lon="3.54699">
        <ele>392.60000610352</ele>
        <time>2024-11-15T18:07:16.000Z</time>
      </trkpt>
      <trkpt lat="45.8492" lon="3.547">
        <ele>392.79998779297</ele>
        <time>2024-11-15T18:07:17.000Z</time>
      </trkpt>
      <trkpt lat="45.8492" lon="3.54701">
        <ele>392.79998779297</ele>
        <time>2024-11-15T18:07:18.000Z</time>
      </trkpt>
      <trkpt lat="45.84919" lon="3.54702">
        <ele>393.20001220703</ele>
        <time>2024-11-15T18:07:19.000Z</time>
      </trkpt>
      <trkpt lat="45.84919" lon="3.54703">
        <ele>393.39999389648</ele>
        <time>2024-11-15T18:07:20.000Z</time>
      </trkpt>
      <trkpt lat="45.84918" lon="3.54705">
        <ele>393.79998779297</ele>
        <time>2024-11-15T18:07:21.000Z</time>
      </trkpt>
      <trkpt lat="45.84918" lon="3.54706">
        <ele>394.20001220703</ele>
        <time>2024-11-15T18:07:22.000Z</time>
      </trkpt>
      <trkpt lat="45.84918" lon="3.54707">
        <ele>394.20001220703</ele>
        <time>2024-11-15T18:07:23.000Z</time>
      </trkpt>
      <trkpt lat="45.84917" lon="3.54708">
        <ele>394.39999389648</ele>
        <time>2024-11-15T18:07:24.000Z</time>
      </trkpt>
      <trkpt lat="45.84917" lon="3.5471">
        <ele>394.39999389648</ele>
        <time>2024-11-15T18:07:25.000Z</time>
      </trkpt>
      <trkpt lat="45.84916" lon="3.54711">
        <ele>394.60000610352</ele>
        <time>2024-11-15T18:07:26.000Z</time>
      </trkpt>
      <trkpt lat="45.84915" lon="3.54712">
        <ele>395</ele>
        <time>2024-11-15T18:07:27.000Z</time>
      </trkpt>
      <trkpt lat="45.84915" lon="3.54712">
        <ele>395.20001220703</ele>
        <time>2024-11-15T18:07:28.000Z</time>
      </trkpt>
      <trkpt lat="45.84914" lon="3.54713">
        <ele>395.60000610352</ele>
        <time>2024-11-15T18:07:29.000Z</time>
      </trkpt>
      <trkpt lat="45.84914" lon="3.54713">
        <ele>395.79998779297</ele>
        <time>2024-11-15T18:07:30.000Z</time>
      </trkpt>
      <trkpt lat="45.84914" lon="3.54713">
        <ele>396</ele>
        <time>2024-11-15T18:07:31.000Z</time>
      </trkpt>
      <trkpt lat="45.84913" lon="3.54713">
        <ele>396.20001220703</ele>
        <time>2024-11-15T18:07:32.000Z</time>
      </trkpt>
      <trkpt lat="45.84913" lon="3.54713">
        <ele>396.20001220703</ele>
        <time>2024-11-15T18:07:33.000Z</time>
      </trkpt>
      <trkpt lat="45.84913" lon="3.54714">
        <ele>396.20001220703</ele>
        <time>2024-11-15T18:07:34.000Z</time>
      </trkpt>
      <trkpt lat="45.84913" lon="3.54714">
        <ele>396.20001220703</ele>
        <time>2024-11-15T18:07:35.000Z</time>
      </trkpt>
      <trkpt lat="45.84913" lon="3.54715">
        <ele>396.20001220703</ele>
        <time>2024-11-15T18:07:36.000Z</time>
      </trkpt>
      <trkpt lat="45.84912" lon="3.54716">
        <ele>396.20001220703</ele>
        <time>2024-11-15T18:07:37.000Z</time>
      </trkpt>
      <trkpt lat="45.84912" lon="3.54717">
        <ele>396.39999389648</ele>
        <time>2024-11-15T18:07:38.000Z</time>
      </trkpt>
      <trkpt lat="45.84911" lon="3.54718">
        <ele>396.60000610352</ele>
        <time>2024-11-15T18:07:39.000Z</time>
      </trkpt>
      <trkpt lat="45.84911" lon="3.54719">
        <ele>396.79998779297</ele>
        <time>2024-11-15T18:07:40.000Z</time>
      </trkpt>
      <trkpt lat="45.84911" lon="3.54719">
        <ele>396.79998779297</ele>
        <time>2024-11-15T18:07:41.000Z</time>
      </trkpt>
      <trkpt lat="45.8491" lon="3.5472">
        <ele>397</ele>
        <time>2024-11-15T18:07:42.000Z</time>
      </trkpt>
      <trkpt lat="45.8491" lon="3.54721">
        <ele>397.20001220703</ele>
        <time>2024-11-15T18:07:43.000Z</time>
      </trkpt>
      <trkpt lat="45.84909" lon="3.54722">
        <ele>397.20001220703</ele>
        <time>2024-11-15T18:07:44.000Z</time>
      </trkpt>
      <trkpt lat="45.84909" lon="3.54724">
        <ele>397.39999389648</ele>
        <time>2024-11-15T18:07:45.000Z</time>
      </trkpt>
      <trkpt lat="45.84908" lon="3.54725">
        <ele>397.60000610352</ele>
        <time>2024-11-15T18:07:46.000Z</time>
      </trkpt>
      <trkpt lat="45.84908" lon="3.54727">
        <ele>397.79998779297</ele>
        <time>2024-11-15T18:07:47.000Z</time>
      </trkpt>
      <trkpt lat="45.84907" lon="3.54729">
        <ele>397.79998779297</ele>
        <time>2024-11-15T18:07:48.000Z</time>
      </trkpt>
      <trkpt lat="45.84906" lon="3.5473">
        <ele>398.20001220703</ele>
        <time>2024-11-15T18:07:49.000Z</time>
      </trkpt>
      <trkpt lat="45.84906" lon="3.54732">
        <ele>398.39999389648</ele>
        <time>2024-11-15T18:07:50.000Z</time>
      </trkpt>
      <trkpt lat="45.84905" lon="3.54733">
        <ele>398.60000610352</ele>
        <time>2024-11-15T18:07:51.000Z</time>
      </trkpt>
      <trkpt lat="45.84904" lon="3.54735">
        <ele>398.79998779297</ele>
        <time>2024-11-15T18:07:52.000Z</time>
      </trkpt>
      <trkpt lat="45.84903" lon="3.54736">
        <ele>399.20001220703</ele>
        <time>2024-11-15T18:07:53.000Z</time>
      </trkpt>
      <trkpt lat="45.84902" lon="3.54738">
        <ele>399.39999389648</ele>
        <time>2024-11-15T18:07:54.000Z</time>
      </trkpt>
      <trkpt lat="45.84901" lon="3.54739">
        <ele>399.60000610352</ele>
        <time>2024-11-15T18:07:55.000Z</time>
      </trkpt>
      <trkpt lat="45.849" lon="3.54741">
        <ele>399.79998779297</ele>
        <time>2024-11-15T18:07:56.000Z</time>
      </trkpt>
      <trkpt lat="45.84899" lon="3.54742">
        <ele>400.20001220703</ele>
        <time>2024-11-15T18:07:57.000Z</time>
      </trkpt>
      <trkpt lat="45.84897" lon="3.54743">
        <ele>400.39999389648</ele>
        <time>2024-11-15T18:07:58.000Z</time>
      </trkpt>
      <trkpt lat="45.84896" lon="3.54745">
        <ele>400.60000610352</ele>
        <time>2024-11-15T18:07:59.000Z</time>
      </trkpt>
      <trkpt lat="45.84895" lon="3.54746">
        <ele>400.79998779297</ele>
        <time>2024-11-15T18:08:00.000Z</time>
      </trkpt>
      <trkpt lat="45.84893" lon="3.54748">
        <ele>401.20001220703</ele>
        <time>2024-11-15T18:08:01.000Z</time>
      </trkpt>
      <trkpt lat="45.84892" lon="3.54749">
        <ele>401.39999389648</ele>
        <time>2024-11-15T18:08:02.000Z</time>
      </trkpt>
      <trkpt lat="45.8489" lon="3.54751">
        <ele>401.60000610352</ele>
        <time>2024-11-15T18:08:03.000Z</time>
      </trkpt>
      <trkpt lat="45.84889" lon="3.54752">
        <ele>401.79998779297</ele>
        <time>2024-11-15T18:08:04.000Z</time>
      </trkpt>
      <trkpt lat="45.84887" lon="3.54753">
        <ele>402</ele>
        <time>2024-11-15T18:08:05.000Z</time>
      </trkpt>
      <trkpt lat="45.84886" lon="3.54755">
        <ele>402</ele>
        <time>2024-11-15T18:08:06.000Z</time>
      </trkpt>
      <trkpt lat="45.84884" lon="3.54756">
        <ele>402.20001220703</ele>
        <time>2024-11-15T18:08:07.000Z</time>
      </trkpt>
      <trkpt lat="45.84883" lon="3.54757">
        <ele>402.20001220703</ele>
        <time>2024-11-15T18:08:08.000Z</time>
      </trkpt>
      <trkpt lat="45.84881" lon="3.54759">
        <ele>402.39999389648</ele>
        <time>2024-11-15T18:08:09.000Z</time>
      </trkpt>
      <trkpt lat="45.8488" lon="3.54761">
        <ele>402.39999389648</ele>
        <time>2024-11-15T18:08:10.000Z</time>
      </trkpt>
      <trkpt lat="45.84878" lon="3.54762">
        <ele>402.79998779297</ele>
        <time>2024-11-15T18:08:11.000Z</time>
      </trkpt>
      <trkpt lat="45.84877" lon="3.54764">
        <ele>403</ele>
        <time>2024-11-15T18:08:12.000Z</time>
      </trkpt>
      <trkpt lat="45.84875" lon="3.54765">
        <ele>403.20001220703</ele>
        <time>2024-11-15T18:08:13.000Z</time>
      </trkpt>
      <trkpt lat="45.84874" lon="3.54766">
        <ele>403.20001220703</ele>
        <time>2024-11-15T18:08:14.000Z</time>
      </trkpt>
      <trkpt lat="45.84873" lon="3.54768">
        <ele>403.60000610352</ele>
        <time>2024-11-15T18:08:15.000Z</time>
      </trkpt>
      <trkpt lat="45.84871" lon="3.54769">
        <ele>403.79998779297</ele>
        <time>2024-11-15T18:08:16.000Z</time>
      </trkpt>
      <trkpt lat="45.8487" lon="3.54771">
        <ele>404</ele>
        <time>2024-11-15T18:08:17.000Z</time>
      </trkpt>
      <trkpt lat="45.84869" lon="3.54772">
        <ele>404.20001220703</ele>
        <time>2024-11-15T18:08:18.000Z</time>
      </trkpt>
      <trkpt lat="45.84867" lon="3.54774">
        <ele>404.39999389648</ele>
        <time>2024-11-15T18:08:19.000Z</time>
      </trkpt>
      <trkpt lat="45.84866" lon="3.54775">
        <ele>404.39999389648</ele>
        <time>2024-11-15T18:08:20.000Z</time>
      </trkpt>
      <trkpt lat="45.84864" lon="3.54777">
        <ele>404.79998779297</ele>
        <time>2024-11-15T18:08:21.000Z</time>
      </trkpt>
      <trkpt lat="45.84863" lon="3.54778">
        <ele>405</ele>
        <time>2024-11-15T18:08:22.000Z</time>
      </trkpt>
      <trkpt lat="45.84862" lon="3.5478">
        <ele>405.20001220703</ele>
        <time>2024-11-15T18:08:23.000Z</time>
      </trkpt>
      <trkpt lat="45.8486" lon="3.54781">
        <ele>405.60000610352</ele>
        <time>2024-11-15T18:08:24.000Z</time>
      </trkpt>
      <trkpt lat="45.84859" lon="3.54783">
        <ele>405.79998779297</ele>
        <time>2024-11-15T18:08:25.000Z</time>
      </trkpt>
      <trkpt lat="45.84857" lon="3.54784">
        <ele>405.79998779297</ele>
        <time>2024-11-15T18:08:26.000Z</time>
      </trkpt>
      <trkpt lat="45.84856" lon="3.54786">
        <ele>406</ele>
        <time>2024-11-15T18:08:27.000Z</time>
      </trkpt>
      <trkpt lat="45.84855" lon="3.54787">
        <ele>406</ele>
        <time>2024-11-15T18:08:28.000Z</time>
      </trkpt>
      <trkpt lat="45.84853" lon="3.54788">
        <ele>406.20001220703</ele>
        <time>2024-11-15T18:08:29.000Z</time>
      </trkpt>
      <trkpt lat="45.84852" lon="3.5479">
        <ele>406.39999389648</ele>
        <time>2024-11-15T18:08:30.000Z</time>
      </trkpt>
      <trkpt lat="45.8485" lon="3.54791">
        <ele>406.39999389648</ele>
        <time>2024-11-15T18:08:31.000Z</time>
      </trkpt>
      <trkpt lat="45.84849" lon="3.54793">
        <ele>406.60000610352</ele>
        <time>2024-11-15T18:08:32.000Z</time>
      </trkpt>
      <trkpt lat="45.84848" lon="3.54795">
        <ele>407</ele>
        <time>2024-11-15T18:08:33.000Z</time>
      </trkpt>
      <trkpt lat="45.84846" lon="3.54796">
        <ele>407.20001220703</ele>
        <time>2024-11-15T18:08:34.000Z</time>
      </trkpt>
      <trkpt lat="45.84845" lon="3.54798">
        <ele>407.20001220703</ele>
        <time>2024-11-15T18:08:35.000Z</time>
      </trkpt>
      <trkpt lat="45.84844" lon="3.54799">
        <ele>407.60000610352</ele>
        <time>2024-11-15T18:08:36.000Z</time>
      </trkpt>
      <trkpt lat="45.84843" lon="3.548">
        <ele>407.79998779297</ele>
        <time>2024-11-15T18:08:37.000Z</time>
      </trkpt>
      <trkpt lat="45.84842" lon="3.54802">
        <ele>408</ele>
        <time>2024-11-15T18:08:38.000Z</time>
      </trkpt>
      <trkpt lat="45.84841" lon="3.54803">
        <ele>408.39999389648</ele>
        <time>2024-11-15T18:08:39.000Z</time>
      </trkpt>
      <trkpt lat="45.84841" lon="3.54804">
        <ele>408.60000610352</ele>
        <time>2024-11-15T18:08:40.000Z</time>
      </trkpt>
      <trkpt lat="45.8484" lon="3.54805">
        <ele>408.79998779297</ele>
        <time>2024-11-15T18:08:41.000Z</time>
      </trkpt>
      <trkpt lat="45.8484" lon="3.54806">
        <ele>408.79998779297</ele>
        <time>2024-11-15T18:08:42.000Z</time>
      </trkpt>
      <trkpt lat="45.84839" lon="3.54807">
        <ele>408.79998779297</ele>
        <time>2024-11-15T18:08:43.000Z</time>
      </trkpt>
      <trkpt lat="45.84838" lon="3.54808">
        <ele>408.79998779297</ele>
        <time>2024-11-15T18:08:44.000Z</time>
      </trkpt>
      <trkpt lat="45.84837" lon="3.5481">
        <ele>409.20001220703</ele>
        <time>2024-11-15T18:08:45.000Z</time>
      </trkpt>
      <trkpt lat="45.84836" lon="3.54811">
        <ele>409.20001220703</ele>
        <time>2024-11-15T18:08:46.000Z</time>
      </trkpt>
      <trkpt lat="45.84835" lon="3.54813">
        <ele>409.39999389648</ele>
        <time>2024-11-15T18:08:47.000Z</time>
      </trkpt>
      <trkpt lat="45.84834" lon="3.54814">
        <ele>409.60000610352</ele>
        <time>2024-11-15T18:08:48.000Z</time>
      </trkpt>
      <trkpt lat="45.84833" lon="3.54816">
        <ele>409.60000610352</ele>
        <time>2024-11-15T18:08:49.000Z</time>
      </trkpt>
      <trkpt lat="45.84833" lon="3.54818">
        <ele>409.79998779297</ele>
        <time>2024-11-15T18:08:50.000Z</time>
      </trkpt>
      <trkpt lat="45.84832" lon="3.5482">
        <ele>410</ele>
        <time>2024-11-15T18:08:51.000Z</time>
      </trkpt>
      <trkpt lat="45.8483" lon="3.54822">
        <ele>410</ele>
        <time>2024-11-15T18:08:52.000Z</time>
      </trkpt>
      <trkpt lat="45.84829" lon="3.54824">
        <ele>410.20001220703</ele>
        <time>2024-11-15T18:08:53.000Z</time>
      </trkpt>
      <trkpt lat="45.84828" lon="3.54826">
        <ele>410.20001220703</ele>
        <time>2024-11-15T18:08:54.000Z</time>
      </trkpt>
      <trkpt lat="45.84827" lon="3.54828">
        <ele>410.39999389648</ele>
        <time>2024-11-15T18:08:55.000Z</time>
      </trkpt>
      <trkpt lat="45.84826" lon="3.54831">
        <ele>410.79998779297</ele>
        <time>2024-11-15T18:08:56.000Z</time>
      </trkpt>
      <trkpt lat="45.84824" lon="3.54833">
        <ele>410.79998779297</ele>
        <time>2024-11-15T18:08:57.000Z</time>
      </trkpt>
      <trkpt lat="45.84823" lon="3.54835">
        <ele>411</ele>
        <time>2024-11-15T18:08:58.000Z</time>
      </trkpt>
      <trkpt lat="45.84822" lon="3.54837">
        <ele>411</ele>
        <time>2024-11-15T18:08:59.000Z</time>
      </trkpt>
      <trkpt lat="45.84821" lon="3.5484">
        <ele>411</ele>
        <time>2024-11-15T18:09:00.000Z</time>
      </trkpt>
      <trkpt lat="45.8482" lon="3.54842">
        <ele>411</ele>
        <time>2024-11-15T18:09:01.000Z</time>
      </trkpt>
      <trkpt lat="45.84818" lon="3.54844">
        <ele>411</ele>
        <time>2024-11-15T18:09:02.000Z</time>
      </trkpt>
      <trkpt lat="45.84817" lon="3.54847">
        <ele>411</ele>
        <time>2024-11-15T18:09:03.000Z</time>
      </trkpt>
      <trkpt lat="45.84816" lon="3.54849">
        <ele>411.20001220703</ele>
        <time>2024-11-15T18:09:04.000Z</time>
      </trkpt>
      <trkpt lat="45.84815" lon="3.54851">
        <ele>411.20001220703</ele>
        <time>2024-11-15T18:09:05.000Z</time>
      </trkpt>
      <trkpt lat="45.84814" lon="3.54853">
        <ele>411.20001220703</ele>
        <time>2024-11-15T18:09:06.000Z</time>
      </trkpt>
      <trkpt lat="45.84813" lon="3.54855">
        <ele>411.39999389648</ele>
        <time>2024-11-15T18:09:07.000Z</time>
      </trkpt>
      <trkpt lat="45.84811" lon="3.54858">
        <ele>411.39999389648</ele>
        <time>2024-11-15T18:09:08.000Z</time>
      </trkpt>
      <trkpt lat="45.8481" lon="3.5486">
        <ele>411.79998779297</ele>
        <time>2024-11-15T18:09:09.000Z</time>
      </trkpt>
      <trkpt lat="45.84809" lon="3.54862">
        <ele>412.20001220703</ele>
        <time>2024-11-15T18:09:10.000Z</time>
      </trkpt>
      <trkpt lat="45.84808" lon="3.54864">
        <ele>412.39999389648</ele>
        <time>2024-11-15T18:09:11.000Z</time>
      </trkpt>
      <trkpt lat="45.84807" lon="3.54866">
        <ele>412.60000610352</ele>
        <time>2024-11-15T18:09:12.000Z</time>
      </trkpt>
      <trkpt lat="45.84806" lon="3.54869">
        <ele>412.79998779297</ele>
        <time>2024-11-15T18:09:13.000Z</time>
      </trkpt>
      <trkpt lat="45.84805" lon="3.54871">
        <ele>413</ele>
        <time>2024-11-15T18:09:14.000Z</time>
      </trkpt>
      <trkpt lat="45.84804" lon="3.54873">
        <ele>413</ele>
        <time>2024-11-15T18:09:15.000Z</time>
      </trkpt>
      <trkpt lat="45.84803" lon="3.54875">
        <ele>413.20001220703</ele>
        <time>2024-11-15T18:09:16.000Z</time>
      </trkpt>
      <trkpt lat="45.84801" lon="3.54878">
        <ele>413.39999389648</ele>
        <time>2024-11-15T18:09:17.000Z</time>
      </trkpt>
      <trkpt lat="45.848" lon="3.5488">
        <ele>413.39999389648</ele>
        <time>2024-11-15T18:09:18.000Z</time>
      </trkpt>
      <trkpt lat="45.84799" lon="3.54882">
        <ele>413.39999389648</ele>
        <time>2024-11-15T18:09:19.000Z</time>
      </trkpt>
      <trkpt lat="45.84798" lon="3.54884">
        <ele>413.39999389648</ele>
        <time>2024-11-15T18:09:20.000Z</time>
      </trkpt>
      <trkpt lat="45.84797" lon="3.54886">
        <ele>413.60000610352</ele>
        <time>2024-11-15T18:09:21.000Z</time>
      </trkpt>
      <trkpt lat="45.84796" lon="3.54888">
        <ele>413.60000610352</ele>
        <time>2024-11-15T18:09:22.000Z</time>
      </trkpt>
      <trkpt lat="45.84795" lon="3.54891">
        <ele>413.60000610352</ele>
        <time>2024-11-15T18:09:23.000Z</time>
      </trkpt>
      <trkpt lat="45.84794" lon="3.54893">
        <ele>413.79998779297</ele>
        <time>2024-11-15T18:09:24.000Z</time>
      </trkpt>
      <trkpt lat="45.84794" lon="3.54895">
        <ele>413.79998779297</ele>
        <time>2024-11-15T18:09:25.000Z</time>
      </trkpt>
      <trkpt lat="45.84793" lon="3.54897">
        <ele>414.20001220703</ele>
        <time>2024-11-15T18:09:26.000Z</time>
      </trkpt>
      <trkpt lat="45.84792" lon="3.54899">
        <ele>414.39999389648</ele>
        <time>2024-11-15T18:09:27.000Z</time>
      </trkpt>
      <trkpt lat="45.84791" lon="3.54901">
        <ele>414.39999389648</ele>
        <time>2024-11-15T18:09:28.000Z</time>
      </trkpt>
      <trkpt lat="45.8479" lon="3.54904">
        <ele>414.79998779297</ele>
        <time>2024-11-15T18:09:29.000Z</time>
      </trkpt>
      <trkpt lat="45.84789" lon="3.54906">
        <ele>415</ele>
        <time>2024-11-15T18:09:30.000Z</time>
      </trkpt>
      <trkpt lat="45.84788" lon="3.54908">
        <ele>415.60000610352</ele>
        <time>2024-11-15T18:09:31.000Z</time>
      </trkpt>
      <trkpt lat="45.84787" lon="3.5491">
        <ele>415.60000610352</ele>
        <time>2024-11-15T18:09:32.000Z</time>
      </trkpt>
      <trkpt lat="45.84786" lon="3.54912">
        <ele>415.79998779297</ele>
        <time>2024-11-15T18:09:33.000Z</time>
      </trkpt>
      <trkpt lat="45.84785" lon="3.54914">
        <ele>416</ele>
        <time>2024-11-15T18:09:34.000Z</time>
      </trkpt>
      <trkpt lat="45.84784" lon="3.54916">
        <ele>416</ele>
        <time>2024-11-15T18:09:35.000Z</time>
      </trkpt>
      <trkpt lat="45.84783" lon="3.54918">
        <ele>416.20001220703</ele>
        <time>2024-11-15T18:09:36.000Z</time>
      </trkpt>
      <trkpt lat="45.84782" lon="3.5492">
        <ele>416.20001220703</ele>
        <time>2024-11-15T18:09:37.000Z</time>
      </trkpt>
      <trkpt lat="45.84781" lon="3.54922">
        <ele>416.60000610352</ele>
        <time>2024-11-15T18:09:38.000Z</time>
      </trkpt>
      <trkpt lat="45.8478" lon="3.54925">
        <ele>417</ele>
        <time>2024-11-15T18:09:39.000Z</time>
      </trkpt>
      <trkpt lat="45.84779" lon="3.54927">
        <ele>417.20001220703</ele>
        <time>2024-11-15T18:09:40.000Z</time>
      </trkpt>
      <trkpt lat="45.84778" lon="3.54929">
        <ele>417.39999389648</ele>
        <time>2024-11-15T18:09:41.000Z</time>
      </trkpt>
      <trkpt lat="45.84777" lon="3.54931">
        <ele>417.39999389648</ele>
        <time>2024-11-15T18:09:42.000Z</time>
      </trkpt>
      <trkpt lat="45.84776" lon="3.54933">
        <ele>417.60000610352</ele>
        <time>2024-11-15T18:09:43.000Z</time>
      </trkpt>
      <trkpt lat="45.84775" lon="3.54936">
        <ele>417.60000610352</ele>
        <time>2024-11-15T18:09:44.000Z</time>
      </trkpt>
      <trkpt lat="45.84774" lon="3.54938">
        <ele>417.79998779297</ele>
        <time>2024-11-15T18:09:45.000Z</time>
      </trkpt>
      <trkpt lat="45.84773" lon="3.5494">
        <ele>418</ele>
        <time>2024-11-15T18:09:46.000Z</time>
      </trkpt>
      <trkpt lat="45.84772" lon="3.54942">
        <ele>418.20001220703</ele>
        <time>2024-11-15T18:09:47.000Z</time>
      </trkpt>
      <trkpt lat="45.84771" lon="3.54944">
        <ele>418.39999389648</ele>
        <time>2024-11-15T18:09:48.000Z</time>
      </trkpt>
      <trkpt lat="45.8477" lon="3.54946">
        <ele>418.60000610352</ele>
        <time>2024-11-15T18:09:49.000Z</time>
      </trkpt>
      <trkpt lat="45.84769" lon="3.54948">
        <ele>419</ele>
        <time>2024-11-15T18:09:50.000Z</time>
      </trkpt>
      <trkpt lat="45.84768" lon="3.5495">
        <ele>419.20001220703</ele>
        <time>2024-11-15T18:09:51.000Z</time>
      </trkpt>
      <trkpt lat="45.84767" lon="3.54952">
        <ele>419.60000610352</ele>
        <time>2024-11-15T18:09:52.000Z</time>
      </trkpt>
      <trkpt lat="45.84766" lon="3.54954">
        <ele>420</ele>
        <time>2024-11-15T18:09:53.000Z</time>
      </trkpt>
      <trkpt lat="45.84765" lon="3.54956">
        <ele>420.60000610352</ele>
        <time>2024-11-15T18:09:54.000Z</time>
      </trkpt>
      <trkpt lat="45.84764" lon="3.54958">
        <ele>420.79998779297</ele>
        <time>2024-11-15T18:09:55.000Z</time>
      </trkpt>
      <trkpt lat="45.84763" lon="3.5496">
        <ele>421.20001220703</ele>
        <time>2024-11-15T18:09:56.000Z</time>
      </trkpt>
      <trkpt lat="45.84762" lon="3.54962">
        <ele>421.60000610352</ele>
        <time>2024-11-15T18:09:57.000Z</time>
      </trkpt>
      <trkpt lat="45.84761" lon="3.54964">
        <ele>421.79998779297</ele>
        <time>2024-11-15T18:09:58.000Z</time>
      </trkpt>
      <trkpt lat="45.8476" lon="3.54966">
        <ele>422</ele>
        <time>2024-11-15T18:09:59.000Z</time>
      </trkpt>
      <trkpt lat="45.8476" lon="3.54968">
        <ele>422.60000610352</ele>
        <time>2024-11-15T18:10:00.000Z</time>
      </trkpt>
      <trkpt lat="45.8476" lon="3.54971">
        <ele>422.79998779297</ele>
        <time>2024-11-15T18:10:01.000Z</time>
      </trkpt>
      <trkpt lat="45.8476" lon="3.54973">
        <ele>423.20001220703</ele>
        <time>2024-11-15T18:10:02.000Z</time>
      </trkpt>
      <trkpt lat="45.84762" lon="3.54974">
        <ele>423.60000610352</ele>
        <time>2024-11-15T18:10:03.000Z</time>
      </trkpt>
      <trkpt lat="45.84763" lon="3.54975">
        <ele>423.79998779297</ele>
        <time>2024-11-15T18:10:04.000Z</time>
      </trkpt>
      <trkpt lat="45.84765" lon="3.54976">
        <ele>424</ele>
        <time>2024-11-15T18:10:05.000Z</time>
      </trkpt>
      <trkpt lat="45.84768" lon="3.54976">
        <ele>424.20001220703</ele>
        <time>2024-11-15T18:10:06.000Z</time>
      </trkpt>
      <trkpt lat="45.8477" lon="3.54976">
        <ele>424.20001220703</ele>
        <time>2024-11-15T18:10:07.000Z</time>
      </trkpt>
      <trkpt lat="45.84772" lon="3.54976">
        <ele>424.39999389648</ele>
        <time>2024-11-15T18:10:08.000Z</time>
      </trkpt>
      <trkpt lat="45.84774" lon="3.54976">
        <ele>424.39999389648</ele>
        <time>2024-11-15T18:10:09.000Z</time>
      </trkpt>
      <trkpt lat="45.84776" lon="3.54976">
        <ele>424.39999389648</ele>
        <time>2024-11-15T18:10:10.000Z</time>
      </trkpt>
      <trkpt lat="45.84779" lon="3.54977">
        <ele>424.39999389648</ele>
        <time>2024-11-15T18:10:11.000Z</time>
      </trkpt>
      <trkpt lat="45.84781" lon="3.54977">
        <ele>424.39999389648</ele>
        <time>2024-11-15T18:10:12.000Z</time>
      </trkpt>
      <trkpt lat="45.84783" lon="3.54977">
        <ele>424.20001220703</ele>
        <time>2024-11-15T18:10:13.000Z</time>
      </trkpt>
      <trkpt lat="45.84785" lon="3.54977">
        <ele>424.20001220703</ele>
        <time>2024-11-15T18:10:14.000Z</time>
      </trkpt>
      <trkpt lat="45.84788" lon="3.54977">
        <ele>424</ele>
        <time>2024-11-15T18:10:15.000Z</time>
      </trkpt>
      <trkpt lat="45.8479" lon="3.54977">
        <ele>424</ele>
        <time>2024-11-15T18:10:16.000Z</time>
      </trkpt>
      <trkpt lat="45.84792" lon="3.54978">
        <ele>424</ele>
        <time>2024-11-15T18:10:17.000Z</time>
      </trkpt>
      <trkpt lat="45.84794" lon="3.54978">
        <ele>424</ele>
        <time>2024-11-15T18:10:18.000Z</time>
      </trkpt>
      <trkpt lat="45.84797" lon="3.54978">
        <ele>424</ele>
        <time>2024-11-15T18:10:19.000Z</time>
      </trkpt>
      <trkpt lat="45.84799" lon="3.54979">
        <ele>424</ele>
        <time>2024-11-15T18:10:20.000Z</time>
      </trkpt>
      <trkpt lat="45.84801" lon="3.5498">
        <ele>424</ele>
        <time>2024-11-15T18:10:21.000Z</time>
      </trkpt>
      <trkpt lat="45.84803" lon="3.5498">
        <ele>424</ele>
        <time>2024-11-15T18:10:22.000Z</time>
      </trkpt>
      <trkpt lat="45.84806" lon="3.54981">
        <ele>424</ele>
        <time>2024-11-15T18:10:23.000Z</time>
      </trkpt>
      <trkpt lat="45.84808" lon="3.54982">
        <ele>424</ele>
        <time>2024-11-15T18:10:24.000Z</time>
      </trkpt>
      <trkpt lat="45.8481" lon="3.54983">
        <ele>424</ele>
        <time>2024-11-15T18:10:25.000Z</time>
      </trkpt>
      <trkpt lat="45.84812" lon="3.54984">
        <ele>424</ele>
        <time>2024-11-15T18:10:26.000Z</time>
      </trkpt>
      <trkpt lat="45.84815" lon="3.54985">
        <ele>424</ele>
        <time>2024-11-15T18:10:27.000Z</time>
      </trkpt>
      <trkpt lat="45.84817" lon="3.54986">
        <ele>424.20001220703</ele>
        <time>2024-11-15T18:10:28.000Z</time>
      </trkpt>
      <trkpt lat="45.84819" lon="3.54987">
        <ele>424.39999389648</ele>
        <time>2024-11-15T18:10:29.000Z</time>
      </trkpt>
      <trkpt lat="45.84821" lon="3.54988">
        <ele>424.60000610352</ele>
        <time>2024-11-15T18:10:30.000Z</time>
      </trkpt>
      <trkpt lat="45.84824" lon="3.54989">
        <ele>424.60000610352</ele>
        <time>2024-11-15T18:10:31.000Z</time>
      </trkpt>
      <trkpt lat="45.84826" lon="3.5499">
        <ele>424.60000610352</ele>
        <time>2024-11-15T18:10:32.000Z</time>
      </trkpt>
      <trkpt lat="45.84829" lon="3.54991">
        <ele>424.60000610352</ele>
        <time>2024-11-15T18:10:33.000Z</time>
      </trkpt>
      <trkpt lat="45.84831" lon="3.54992">
        <ele>424.60000610352</ele>
        <time>2024-11-15T18:10:34.000Z</time>
      </trkpt>
      <trkpt lat="45.84834" lon="3.54994">
        <ele>424.79998779297</ele>
        <time>2024-11-15T18:10:35.000Z</time>
      </trkpt>
      <trkpt lat="45.84836" lon="3.54995">
        <ele>424.60000610352</ele>
        <time>2024-11-15T18:10:36.000Z</time>
      </trkpt>
      <trkpt lat="45.84839" lon="3.54996">
        <ele>424.60000610352</ele>
        <time>2024-11-15T18:10:37.000Z</time>
      </trkpt>
      <trkpt lat="45.84841" lon="3.54998">
        <ele>424.39999389648</ele>
        <time>2024-11-15T18:10:38.000Z</time>
      </trkpt>
      <trkpt lat="45.84844" lon="3.54999">
        <ele>424.20001220703</ele>
        <time>2024-11-15T18:10:39.000Z</time>
      </trkpt>
      <trkpt lat="45.84846" lon="3.55001">
        <ele>424.20001220703</ele>
        <time>2024-11-15T18:10:40.000Z</time>
      </trkpt>
      <trkpt lat="45.84849" lon="3.55002">
        <ele>424</ele>
        <time>2024-11-15T18:10:41.000Z</time>
      </trkpt>
      <trkpt lat="45.84851" lon="3.55003">
        <ele>424</ele>
        <time>2024-11-15T18:10:42.000Z</time>
      </trkpt>
      <trkpt lat="45.84853" lon="3.55004">
        <ele>423.79998779297</ele>
        <time>2024-11-15T18:10:43.000Z</time>
      </trkpt>
      <trkpt lat="45.84856" lon="3.55006">
        <ele>423.79998779297</ele>
        <time>2024-11-15T18:10:44.000Z</time>
      </trkpt>
      <trkpt lat="45.84858" lon="3.55007">
        <ele>423.60000610352</ele>
        <time>2024-11-15T18:10:45.000Z</time>
      </trkpt>
      <trkpt lat="45.84861" lon="3.55009">
        <ele>423.60000610352</ele>
        <time>2024-11-15T18:10:46.000Z</time>
      </trkpt>
      <trkpt lat="45.84864" lon="3.5501">
        <ele>423.39999389648</ele>
        <time>2024-11-15T18:10:47.000Z</time>
      </trkpt>
      <trkpt lat="45.84866" lon="3.55012">
        <ele>423</ele>
        <time>2024-11-15T18:10:48.000Z</time>
      </trkpt>
      <trkpt lat="45.84869" lon="3.55013">
        <ele>422.79998779297</ele>
        <time>2024-11-15T18:10:49.000Z</time>
      </trkpt>
      <trkpt lat="45.84871" lon="3.55015">
        <ele>422.60000610352</ele>
        <time>2024-11-15T18:10:50.000Z</time>
      </trkpt>
      <trkpt lat="45.84874" lon="3.55017">
        <ele>422.39999389648</ele>
        <time>2024-11-15T18:10:51.000Z</time>
      </trkpt>
      <trkpt lat="45.84876" lon="3.55018">
        <ele>422.20001220703</ele>
        <time>2024-11-15T18:10:52.000Z</time>
      </trkpt>
      <trkpt lat="45.84879" lon="3.5502">
        <ele>422</ele>
        <time>2024-11-15T18:10:53.000Z</time>
      </trkpt>
      <trkpt lat="45.84882" lon="3.55022">
        <ele>421.79998779297</ele>
        <time>2024-11-15T18:10:54.000Z</time>
      </trkpt>
      <trkpt lat="45.84884" lon="3.55024">
        <ele>421.79998779297</ele>
        <time>2024-11-15T18:10:55.000Z</time>
      </trkpt>
      <trkpt lat="45.84887" lon="3.55026">
        <ele>421.39999389648</ele>
        <time>2024-11-15T18:10:56.000Z</time>
      </trkpt>
      <trkpt lat="45.8489" lon="3.55028">
        <ele>421.20001220703</ele>
        <time>2024-11-15T18:10:57.000Z</time>
      </trkpt>
      <trkpt lat="45.84892" lon="3.5503">
        <ele>421</ele>
        <time>2024-11-15T18:10:58.000Z</time>
      </trkpt>
      <trkpt lat="45.84895" lon="3.55032">
        <ele>420.79998779297</ele>
        <time>2024-11-15T18:10:59.000Z</time>
      </trkpt>
      <trkpt lat="45.84898" lon="3.55034">
        <ele>420.39999389648</ele>
        <time>2024-11-15T18:11:00.000Z</time>
      </trkpt>
      <trkpt lat="45.84901" lon="3.55037">
        <ele>420</ele>
        <time>2024-11-15T18:11:01.000Z</time>
      </trkpt>
      <trkpt lat="45.84903" lon="3.55039">
        <ele>419.60000610352</ele>
        <time>2024-11-15T18:11:02.000Z</time>
      </trkpt>
      <trkpt lat="45.84906" lon="3.55042">
        <ele>419.39999389648</ele>
        <time>2024-11-15T18:11:03.000Z</time>
      </trkpt>
      <trkpt lat="45.84908" lon="3.55044">
        <ele>418.79998779297</ele>
        <time>2024-11-15T18:11:04.000Z</time>
      </trkpt>
      <trkpt lat="45.8491" lon="3.55047">
        <ele>418.39999389648</ele>
        <time>2024-11-15T18:11:05.000Z</time>
      </trkpt>
      <trkpt lat="45.84913" lon="3.5505">
        <ele>418</ele>
        <time>2024-11-15T18:11:06.000Z</time>
      </trkpt>
      <trkpt lat="45.84915" lon="3.55053">
        <ele>417.79998779297</ele>
        <time>2024-11-15T18:11:07.000Z</time>
      </trkpt>
      <trkpt lat="45.84917" lon="3.55057">
        <ele>417.39999389648</ele>
        <time>2024-11-15T18:11:08.000Z</time>
      </trkpt>
      <trkpt lat="45.84919" lon="3.5506">
        <ele>417.20001220703</ele>
        <time>2024-11-15T18:11:09.000Z</time>
      </trkpt>
      <trkpt lat="45.84921" lon="3.55064">
        <ele>416.79998779297</ele>
        <time>2024-11-15T18:11:10.000Z</time>
      </trkpt>
      <trkpt lat="45.84923" lon="3.55067">
        <ele>416.39999389648</ele>
        <time>2024-11-15T18:11:11.000Z</time>
      </trkpt>
      <trkpt lat="45.84925" lon="3.5507">
        <ele>416</ele>
        <time>2024-11-15T18:11:12.000Z</time>
      </trkpt>
      <trkpt lat="45.84927" lon="3.55073">
        <ele>415.60000610352</ele>
        <time>2024-11-15T18:11:13.000Z</time>
      </trkpt>
      <trkpt lat="45.84929" lon="3.55076">
        <ele>415.39999389648</ele>
        <time>2024-11-15T18:11:14.000Z</time>
      </trkpt>
      <trkpt lat="45.84931" lon="3.55079">
        <ele>415.20001220703</ele>
        <time>2024-11-15T18:11:15.000Z</time>
      </trkpt>
      <trkpt lat="45.84933" lon="3.55081">
        <ele>414.79998779297</ele>
        <time>2024-11-15T18:11:16.000Z</time>
      </trkpt>
      <trkpt lat="45.84936" lon="3.55084">
        <ele>414.39999389648</ele>
        <time>2024-11-15T18:11:17.000Z</time>
      </trkpt>
      <trkpt lat="45.84938" lon="3.55087">
        <ele>414</ele>
        <time>2024-11-15T18:11:18.000Z</time>
      </trkpt>
      <trkpt lat="45.8494" lon="3.5509">
        <ele>413.79998779297</ele>
        <time>2024-11-15T18:11:19.000Z</time>
      </trkpt>
      <trkpt lat="45.84942" lon="3.55093">
        <ele>413.39999389648</ele>
        <time>2024-11-15T18:11:20.000Z</time>
      </trkpt>
      <trkpt lat="45.84945" lon="3.55096">
        <ele>413.20001220703</ele>
        <time>2024-11-15T18:11:21.000Z</time>
      </trkpt>
      <trkpt lat="45.84947" lon="3.55099">
        <ele>413</ele>
        <time>2024-11-15T18:11:22.000Z</time>
      </trkpt>
      <trkpt lat="45.84949" lon="3.55102">
        <ele>412.79998779297</ele>
        <time>2024-11-15T18:11:23.000Z</time>
      </trkpt>
      <trkpt lat="45.84951" lon="3.55104">
        <ele>412.60000610352</ele>
        <time>2024-11-15T18:11:24.000Z</time>
      </trkpt>
      <trkpt lat="45.84954" lon="3.55107">
        <ele>412.20001220703</ele>
        <time>2024-11-15T18:11:25.000Z</time>
      </trkpt>
      <trkpt lat="45.84956" lon="3.5511">
        <ele>411.60000610352</ele>
        <time>2024-11-15T18:11:26.000Z</time>
      </trkpt>
      <trkpt lat="45.84958" lon="3.55113">
        <ele>411.39999389648</ele>
        <time>2024-11-15T18:11:27.000Z</time>
      </trkpt>
      <trkpt lat="45.8496" lon="3.55116">
        <ele>411.20001220703</ele>
        <time>2024-11-15T18:11:28.000Z</time>
      </trkpt>
      <trkpt lat="45.84962" lon="3.55119">
        <ele>410.79998779297</ele>
        <time>2024-11-15T18:11:29.000Z</time>
      </trkpt>
      <trkpt lat="45.84964" lon="3.55122">
        <ele>410.39999389648</ele>
        <time>2024-11-15T18:11:30.000Z</time>
      </trkpt>
      <trkpt lat="45.84966" lon="3.55125">
        <ele>410</ele>
        <time>2024-11-15T18:11:31.000Z</time>
      </trkpt>
      <trkpt lat="45.84968" lon="3.55129">
        <ele>409.79998779297</ele>
        <time>2024-11-15T18:11:32.000Z</time>
      </trkpt>
      <trkpt lat="45.8497" lon="3.55133">
        <ele>409.60000610352</ele>
        <time>2024-11-15T18:11:33.000Z</time>
      </trkpt>
      <trkpt lat="45.84971" lon="3.55137">
        <ele>409.20001220703</ele>
        <time>2024-11-15T18:11:34.000Z</time>
      </trkpt>
      <trkpt lat="45.84973" lon="3.5514">
        <ele>409</ele>
        <time>2024-11-15T18:11:35.000Z</time>
      </trkpt>
      <trkpt lat="45.84974" lon="3.55144">
        <ele>408.79998779297</ele>
        <time>2024-11-15T18:11:36.000Z</time>
      </trkpt>
      <trkpt lat="45.84975" lon="3.55148">
        <ele>408.79998779297</ele>
        <time>2024-11-15T18:11:37.000Z</time>
      </trkpt>
      <trkpt lat="45.84976" lon="3.55152">
        <ele>408.60000610352</ele>
        <time>2024-11-15T18:11:38.000Z</time>
      </trkpt>
      <trkpt lat="45.84977" lon="3.55156">
        <ele>408.39999389648</ele>
        <time>2024-11-15T18:11:39.000Z</time>
      </trkpt>
      <trkpt lat="45.84978" lon="3.55159">
        <ele>408.39999389648</ele>
        <time>2024-11-15T18:11:40.000Z</time>
      </trkpt>
      <trkpt lat="45.84979" lon="3.55163">
        <ele>408.20001220703</ele>
        <time>2024-11-15T18:11:41.000Z</time>
      </trkpt>
      <trkpt lat="45.8498" lon="3.55167">
        <ele>408</ele>
        <time>2024-11-15T18:11:42.000Z</time>
      </trkpt>
      <trkpt lat="45.8498" lon="3.55171">
        <ele>407.79998779297</ele>
        <time>2024-11-15T18:11:43.000Z</time>
      </trkpt>
      <trkpt lat="45.84981" lon="3.55174">
        <ele>407.79998779297</ele>
        <time>2024-11-15T18:11:44.000Z</time>
      </trkpt>
      <trkpt lat="45.84983" lon="3.55177">
        <ele>407.60000610352</ele>
        <time>2024-11-15T18:11:45.000Z</time>
      </trkpt>
      <trkpt lat="45.84984" lon="3.5518">
        <ele>407.39999389648</ele>
        <time>2024-11-15T18:11:46.000Z</time>
      </trkpt>
      <trkpt lat="45.84985" lon="3.55183">
        <ele>407.39999389648</ele>
        <time>2024-11-15T18:11:47.000Z</time>
      </trkpt>
      <trkpt lat="45.84987" lon="3.55186">
        <ele>407.20001220703</ele>
        <time>2024-11-15T18:11:48.000Z</time>
      </trkpt>
      <trkpt lat="45.84989" lon="3.55188">
        <ele>407.20001220703</ele>
        <time>2024-11-15T18:11:49.000Z</time>
      </trkpt>
      <trkpt lat="45.84991" lon="3.5519">
        <ele>407</ele>
        <time>2024-11-15T18:11:50.000Z</time>
      </trkpt>
      <trkpt lat="45.84994" lon="3.55192">
        <ele>407</ele>
        <time>2024-11-15T18:11:51.000Z</time>
      </trkpt>
      <trkpt lat="45.84996" lon="3.55194">
        <ele>407</ele>
        <time>2024-11-15T18:11:52.000Z</time>
      </trkpt>
      <trkpt lat="45.84998" lon="3.55197">
        <ele>407</ele>
        <time>2024-11-15T18:11:53.000Z</time>
      </trkpt>
      <trkpt lat="45.85" lon="3.55199">
        <ele>407.20001220703</ele>
        <time>2024-11-15T18:11:54.000Z</time>
      </trkpt>
      <trkpt lat="45.85002" lon="3.55201">
        <ele>407.20001220703</ele>
        <time>2024-11-15T18:11:55.000Z</time>
      </trkpt>
      <trkpt lat="45.85005" lon="3.55203">
        <ele>407.20001220703</ele>
        <time>2024-11-15T18:11:56.000Z</time>
      </trkpt>
      <trkpt lat="45.85007" lon="3.55206">
        <ele>407.20001220703</ele>
        <time>2024-11-15T18:11:57.000Z</time>
      </trkpt>
      <trkpt lat="45.85009" lon="3.55208">
        <ele>407.20001220703</ele>
        <time>2024-11-15T18:11:58.000Z</time>
      </trkpt>
      <trkpt lat="45.85011" lon="3.55211">
        <ele>407</ele>
        <time>2024-11-15T18:11:59.000Z</time>
      </trkpt>
      <trkpt lat="45.85013" lon="3.55214">
        <ele>407</ele>
        <time>2024-11-15T18:12:00.000Z</time>
      </trkpt>
      <trkpt lat="45.85015" lon="3.55217">
        <ele>407</ele>
        <time>2024-11-15T18:12:01.000Z</time>
      </trkpt>
      <trkpt lat="45.85016" lon="3.5522">
        <ele>407</ele>
        <time>2024-11-15T18:12:02.000Z</time>
      </trkpt>
      <trkpt lat="45.85018" lon="3.55223">
        <ele>407</ele>
        <time>2024-11-15T18:12:03.000Z</time>
      </trkpt>
      <trkpt lat="45.8502" lon="3.55227">
        <ele>407</ele>
        <time>2024-11-15T18:12:04.000Z</time>
      </trkpt>
      <trkpt lat="45.85022" lon="3.5523">
        <ele>407</ele>
        <time>2024-11-15T18:12:05.000Z</time>
      </trkpt>
      <trkpt lat="45.85023" lon="3.55233">
        <ele>406.79998779297</ele>
        <time>2024-11-15T18:12:06.000Z</time>
      </trkpt>
      <trkpt lat="45.85024" lon="3.55236">
        <ele>406.79998779297</ele>
        <time>2024-11-15T18:12:07.000Z</time>
      </trkpt>
      <trkpt lat="45.85026" lon="3.55239">
        <ele>406.39999389648</ele>
        <time>2024-11-15T18:12:08.000Z</time>
      </trkpt>
      <trkpt lat="45.85027" lon="3.55243">
        <ele>406.39999389648</ele>
        <time>2024-11-15T18:12:09.000Z</time>
      </trkpt>
      <trkpt lat="45.85028" lon="3.55246">
        <ele>406.20001220703</ele>
        <time>2024-11-15T18:12:10.000Z</time>
      </trkpt>
      <trkpt lat="45.85028" lon="3.5525">
        <ele>406</ele>
        <time>2024-11-15T18:12:11.000Z</time>
      </trkpt>
      <trkpt lat="45.85029" lon="3.55254">
        <ele>406</ele>
        <time>2024-11-15T18:12:12.000Z</time>
      </trkpt>
      <trkpt lat="45.85029" lon="3.55258">
        <ele>406</ele>
        <time>2024-11-15T18:12:13.000Z</time>
      </trkpt>
      <trkpt lat="45.85029" lon="3.55262">
        <ele>406</ele>
        <time>2024-11-15T18:12:14.000Z</time>
      </trkpt>
      <trkpt lat="45.85029" lon="3.55266">
        <ele>406</ele>
        <time>2024-11-15T18:12:15.000Z</time>
      </trkpt>
      <trkpt lat="45.8503" lon="3.5527">
        <ele>405.79998779297</ele>
        <time>2024-11-15T18:12:16.000Z</time>
      </trkpt>
      <trkpt lat="45.8503" lon="3.55274">
        <ele>405.79998779297</ele>
        <time>2024-11-15T18:12:17.000Z</time>
      </trkpt>
      <trkpt lat="45.85031" lon="3.55278">
        <ele>405.60000610352</ele>
        <time>2024-11-15T18:12:18.000Z</time>
      </trkpt>
      <trkpt lat="45.85031" lon="3.55281">
        <ele>405.60000610352</ele>
        <time>2024-11-15T18:12:19.000Z</time>
      </trkpt>
      <trkpt lat="45.85032" lon="3.55284">
        <ele>405.60000610352</ele>
        <time>2024-11-15T18:12:20.000Z</time>
      </trkpt>
      <trkpt lat="45.85033" lon="3.55287">
        <ele>405.39999389648</ele>
        <time>2024-11-15T18:12:21.000Z</time>
      </trkpt>
      <trkpt lat="45.85033" lon="3.5529">
        <ele>405.39999389648</ele>
        <time>2024-11-15T18:12:22.000Z</time>
      </trkpt>
      <trkpt lat="45.85035" lon="3.55293">
        <ele>405.39999389648</ele>
        <time>2024-11-15T18:12:23.000Z</time>
      </trkpt>
      <trkpt lat="45.85036" lon="3.55296">
        <ele>405.39999389648</ele>
        <time>2024-11-15T18:12:24.000Z</time>
      </trkpt>
      <trkpt lat="45.85037" lon="3.55298">
        <ele>405.39999389648</ele>
        <time>2024-11-15T18:12:25.000Z</time>
      </trkpt>
      <trkpt lat="45.85038" lon="3.553">
        <ele>405.39999389648</ele>
        <time>2024-11-15T18:12:26.000Z</time>
      </trkpt>
      <trkpt lat="45.8504" lon="3.55301">
        <ele>405.60000610352</ele>
        <time>2024-11-15T18:12:27.000Z</time>
      </trkpt>
      <trkpt lat="45.85042" lon="3.55301">
        <ele>405.60000610352</ele>
        <time>2024-11-15T18:12:28.000Z</time>
      </trkpt>
      <trkpt lat="45.85044" lon="3.55301">
        <ele>405.60000610352</ele>
        <time>2024-11-15T18:12:29.000Z</time>
      </trkpt>
      <trkpt lat="45.85046" lon="3.55301">
        <ele>405.79998779297</ele>
        <time>2024-11-15T18:12:30.000Z</time>
      </trkpt>
      <trkpt lat="45.85048" lon="3.553">
        <ele>405.79998779297</ele>
        <time>2024-11-15T18:12:31.000Z</time>
      </trkpt>
      <trkpt lat="45.8505" lon="3.55299">
        <ele>405.79998779297</ele>
        <time>2024-11-15T18:12:32.000Z</time>
      </trkpt>
      <trkpt lat="45.85052" lon="3.55297">
        <ele>406</ele>
        <time>2024-11-15T18:12:33.000Z</time>
      </trkpt>
      <trkpt lat="45.85054" lon="3.55295">
        <ele>406</ele>
        <time>2024-11-15T18:12:34.000Z</time>
      </trkpt>
      <trkpt lat="45.85056" lon="3.55293">
        <ele>406</ele>
        <time>2024-11-15T18:12:35.000Z</time>
      </trkpt>
      <trkpt lat="45.85058" lon="3.55291">
        <ele>406</ele>
        <time>2024-11-15T18:12:36.000Z</time>
      </trkpt>
      <trkpt lat="45.8506" lon="3.55289">
        <ele>406</ele>
        <time>2024-11-15T18:12:37.000Z</time>
      </trkpt>
      <trkpt lat="45.85062" lon="3.55287">
        <ele>406</ele>
        <time>2024-11-15T18:12:38.000Z</time>
      </trkpt>
      <trkpt lat="45.85064" lon="3.55285">
        <ele>406.20001220703</ele>
        <time>2024-11-15T18:12:39.000Z</time>
      </trkpt>
      <trkpt lat="45.85066" lon="3.55283">
        <ele>406.20001220703</ele>
        <time>2024-11-15T18:12:40.000Z</time>
      </trkpt>
      <trkpt lat="45.85068" lon="3.55281">
        <ele>406.39999389648</ele>
        <time>2024-11-15T18:12:41.000Z</time>
      </trkpt>
      <trkpt lat="45.8507" lon="3.5528">
        <ele>406.39999389648</ele>
        <time>2024-11-15T18:12:42.000Z</time>
      </trkpt>
      <trkpt lat="45.85073" lon="3.55278">
        <ele>406.60000610352</ele>
        <time>2024-11-15T18:12:43.000Z</time>
      </trkpt>
      <trkpt lat="45.85075" lon="3.55277">
        <ele>406.79998779297</ele>
        <time>2024-11-15T18:12:44.000Z</time>
      </trkpt>
      <trkpt lat="45.85077" lon="3.55277">
        <ele>406.79998779297</ele>
        <time>2024-11-15T18:12:45.000Z</time>
      </trkpt>
      <trkpt lat="45.85079" lon="3.55276">
        <ele>407</ele>
        <time>2024-11-15T18:12:46.000Z</time>
      </trkpt>
      <trkpt lat="45.85082" lon="3.55276">
        <ele>407</ele>
        <time>2024-11-15T18:12:47.000Z</time>
      </trkpt>
      <trkpt lat="45.85084" lon="3.55276">
        <ele>407.20001220703</ele>
        <time>2024-11-15T18:12:48.000Z</time>
      </trkpt>
      <trkpt lat="45.85086" lon="3.55276">
        <ele>407.39999389648</ele>
        <time>2024-11-15T18:12:49.000Z</time>
      </trkpt>
      <trkpt lat="45.85087" lon="3.55276">
        <ele>407.60000610352</ele>
        <time>2024-11-15T18:12:50.000Z</time>
      </trkpt>
      <trkpt lat="45.85089" lon="3.55276">
        <ele>407.79998779297</ele>
        <time>2024-11-15T18:12:51.000Z</time>
      </trkpt>
      <trkpt lat="45.85091" lon="3.55276">
        <ele>408.39999389648</ele>
        <time>2024-11-15T18:12:52.000Z</time>
      </trkpt>
      <trkpt lat="45.85093" lon="3.55276">
        <ele>408.60000610352</ele>
        <time>2024-11-15T18:12:53.000Z</time>
      </trkpt>
      <trkpt lat="45.85095" lon="3.55276">
        <ele>409.20001220703</ele>
        <time>2024-11-15T18:12:54.000Z</time>
      </trkpt>
      <trkpt lat="45.85097" lon="3.55276">
        <ele>409.39999389648</ele>
        <time>2024-11-15T18:12:55.000Z</time>
      </trkpt>
      <trkpt lat="45.85099" lon="3.55276">
        <ele>409.79998779297</ele>
        <time>2024-11-15T18:12:56.000Z</time>
      </trkpt>
      <trkpt lat="45.851" lon="3.55276">
        <ele>410</ele>
        <time>2024-11-15T18:12:57.000Z</time>
      </trkpt>
      <trkpt lat="45.85102" lon="3.55277">
        <ele>410.20001220703</ele>
        <time>2024-11-15T18:12:58.000Z</time>
      </trkpt>
      <trkpt lat="45.85104" lon="3.55277">
        <ele>410.20001220703</ele>
        <time>2024-11-15T18:12:59.000Z</time>
      </trkpt>
      <trkpt lat="45.85107" lon="3.55277">
        <ele>410.39999389648</ele>
        <time>2024-11-15T18:13:00.000Z</time>
      </trkpt>
      <trkpt lat="45.85109" lon="3.55278">
        <ele>410.39999389648</ele>
        <time>2024-11-15T18:13:01.000Z</time>
      </trkpt>
      <trkpt lat="45.85111" lon="3.55279">
        <ele>410.79998779297</ele>
        <time>2024-11-15T18:13:02.000Z</time>
      </trkpt>
      <trkpt lat="45.85113" lon="3.55281">
        <ele>411.20001220703</ele>
        <time>2024-11-15T18:13:03.000Z</time>
      </trkpt>
      <trkpt lat="45.85115" lon="3.55282">
        <ele>411.39999389648</ele>
        <time>2024-11-15T18:13:04.000Z</time>
      </trkpt>
      <trkpt lat="45.85117" lon="3.55284">
        <ele>411.79998779297</ele>
        <time>2024-11-15T18:13:05.000Z</time>
      </trkpt>
      <trkpt lat="45.85119" lon="3.55285">
        <ele>412</ele>
        <time>2024-11-15T18:13:06.000Z</time>
      </trkpt>
      <trkpt lat="45.85121" lon="3.55287">
        <ele>412.39999389648</ele>
        <time>2024-11-15T18:13:07.000Z</time>
      </trkpt>
      <trkpt lat="45.85123" lon="3.55288">
        <ele>412.39999389648</ele>
        <time>2024-11-15T18:13:08.000Z</time>
      </trkpt>
      <trkpt lat="45.85125" lon="3.55289">
        <ele>412.39999389648</ele>
        <time>2024-11-15T18:13:09.000Z</time>
      </trkpt>
      <trkpt lat="45.85127" lon="3.5529">
        <ele>412.39999389648</ele>
        <time>2024-11-15T18:13:10.000Z</time>
      </trkpt>
      <trkpt lat="45.8513" lon="3.5529">
        <ele>412.60000610352</ele>
        <time>2024-11-15T18:13:11.000Z</time>
      </trkpt>
      <trkpt lat="45.85132" lon="3.55291">
        <ele>412.60000610352</ele>
        <time>2024-11-15T18:13:12.000Z</time>
      </trkpt>
      <trkpt lat="45.85134" lon="3.55292">
        <ele>412.60000610352</ele>
        <time>2024-11-15T18:13:13.000Z</time>
      </trkpt>
      <trkpt lat="45.85137" lon="3.55293">
        <ele>412.79998779297</ele>
        <time>2024-11-15T18:13:14.000Z</time>
      </trkpt>
      <trkpt lat="45.85139" lon="3.55293">
        <ele>413</ele>
        <time>2024-11-15T18:13:15.000Z</time>
      </trkpt>
      <trkpt lat="45.85141" lon="3.55294">
        <ele>413</ele>
        <time>2024-11-15T18:13:16.000Z</time>
      </trkpt>
      <trkpt lat="45.85144" lon="3.55295">
        <ele>413</ele>
        <time>2024-11-15T18:13:17.000Z</time>
      </trkpt>
      <trkpt lat="45.85146" lon="3.55296">
        <ele>413</ele>
        <time>2024-11-15T18:13:18.000Z</time>
      </trkpt>
      <trkpt lat="45.85148" lon="3.55297">
        <ele>413.20001220703</ele>
        <time>2024-11-15T18:13:19.000Z</time>
      </trkpt>
      <trkpt lat="45.8515" lon="3.55297">
        <ele>413.39999389648</ele>
        <time>2024-11-15T18:13:20.000Z</time>
      </trkpt>
      <trkpt lat="45.85153" lon="3.55298">
        <ele>413.39999389648</ele>
        <time>2024-11-15T18:13:21.000Z</time>
      </trkpt>
      <trkpt lat="45.85155" lon="3.55299">
        <ele>413.39999389648</ele>
        <time>2024-11-15T18:13:22.000Z</time>
      </trkpt>
      <trkpt lat="45.85158" lon="3.55299">
        <ele>413.60000610352</ele>
        <time>2024-11-15T18:13:23.000Z</time>
      </trkpt>
      <trkpt lat="45.8516" lon="3.553">
        <ele>414</ele>
        <time>2024-11-15T18:13:24.000Z</time>
      </trkpt>
      <trkpt lat="45.85162" lon="3.553">
        <ele>414</ele>
        <time>2024-11-15T18:13:25.000Z</time>
      </trkpt>
      <trkpt lat="45.85164" lon="3.55302">
        <ele>414</ele>
        <time>2024-11-15T18:13:26.000Z</time>
      </trkpt>
      <trkpt lat="45.85166" lon="3.55303">
        <ele>414.20001220703</ele>
        <time>2024-11-15T18:13:27.000Z</time>
      </trkpt>
      <trkpt lat="45.85169" lon="3.55305">
        <ele>414.39999389648</ele>
        <time>2024-11-15T18:13:28.000Z</time>
      </trkpt>
      <trkpt lat="45.85171" lon="3.55306">
        <ele>414.39999389648</ele>
        <time>2024-11-15T18:13:29.000Z</time>
      </trkpt>
      <trkpt lat="45.85174" lon="3.55307">
        <ele>414.39999389648</ele>
        <time>2024-11-15T18:13:30.000Z</time>
      </trkpt>
      <trkpt lat="45.85176" lon="3.55307">
        <ele>414.39999389648</ele>
        <time>2024-11-15T18:13:31.000Z</time>
      </trkpt>
      <trkpt lat="45.85179" lon="3.55308">
        <ele>414.39999389648</ele>
        <time>2024-11-15T18:13:32.000Z</time>
      </trkpt>
      <trkpt lat="45.85181" lon="3.55308">
        <ele>414.20001220703</ele>
        <time>2024-11-15T18:13:33.000Z</time>
      </trkpt>
      <trkpt lat="45.85184" lon="3.55308">
        <ele>414</ele>
        <time>2024-11-15T18:13:34.000Z</time>
      </trkpt>
      <trkpt lat="45.85187" lon="3.55308">
        <ele>414</ele>
        <time>2024-11-15T18:13:35.000Z</time>
      </trkpt>
      <trkpt lat="45.85189" lon="3.55308">
        <ele>414</ele>
        <time>2024-11-15T18:13:36.000Z</time>
      </trkpt>
      <trkpt lat="45.85192" lon="3.55308">
        <ele>413.79998779297</ele>
        <time>2024-11-15T18:13:37.000Z</time>
      </trkpt>
      <trkpt lat="45.85195" lon="3.55307">
        <ele>413.79998779297</ele>
        <time>2024-11-15T18:13:38.000Z</time>
      </trkpt>
      <trkpt lat="45.85197" lon="3.55306">
        <ele>413.79998779297</ele>
        <time>2024-11-15T18:13:39.000Z</time>
      </trkpt>
      <trkpt lat="45.85199" lon="3.55306">
        <ele>413.60000610352</ele>
        <time>2024-11-15T18:13:40.000Z</time>
      </trkpt>
      <trkpt lat="45.85201" lon="3.55306">
        <ele>413.60000610352</ele>
        <time>2024-11-15T18:13:41.000Z</time>
      </trkpt>
      <trkpt lat="45.85203" lon="3.55306">
        <ele>413.39999389648</ele>
        <time>2024-11-15T18:13:42.000Z</time>
      </trkpt>
      <trkpt lat="45.85205" lon="3.55307">
        <ele>413.39999389648</ele>
        <time>2024-11-15T18:13:43.000Z</time>
      </trkpt>
      <trkpt lat="45.85207" lon="3.55308">
        <ele>413.39999389648</ele>
        <time>2024-11-15T18:13:44.000Z</time>
      </trkpt>
      <trkpt lat="45.85209" lon="3.55309">
        <ele>413.39999389648</ele>
        <time>2024-11-15T18:13:45.000Z</time>
      </trkpt>
      <trkpt lat="45.85211" lon="3.5531">
        <ele>413.79998779297</ele>
        <time>2024-11-15T18:13:46.000Z</time>
      </trkpt>
      <trkpt lat="45.85213" lon="3.55311">
        <ele>414</ele>
        <time>2024-11-15T18:13:47.000Z</time>
      </trkpt>
      <trkpt lat="45.85215" lon="3.55312">
        <ele>414.39999389648</ele>
        <time>2024-11-15T18:13:48.000Z</time>
      </trkpt>
      <trkpt lat="45.85216" lon="3.55313">
        <ele>415</ele>
        <time>2024-11-15T18:13:49.000Z</time>
      </trkpt>
      <trkpt lat="45.85218" lon="3.55315">
        <ele>415</ele>
        <time>2024-11-15T18:13:50.000Z</time>
      </trkpt>
      <trkpt lat="45.8522" lon="3.55316">
        <ele>415.20001220703</ele>
        <time>2024-11-15T18:13:51.000Z</time>
      </trkpt>
      <trkpt lat="45.85222" lon="3.55317">
        <ele>415.39999389648</ele>
        <time>2024-11-15T18:13:52.000Z</time>
      </trkpt>
      <trkpt lat="45.85223" lon="3.55318">
        <ele>415.39999389648</ele>
        <time>2024-11-15T18:13:53.000Z</time>
      </trkpt>
      <trkpt lat="45.85225" lon="3.55319">
        <ele>415.79998779297</ele>
        <time>2024-11-15T18:13:54.000Z</time>
      </trkpt>
      <trkpt lat="45.85227" lon="3.55321">
        <ele>415.79998779297</ele>
        <time>2024-11-15T18:13:55.000Z</time>
      </trkpt>
      <trkpt lat="45.85229" lon="3.55322">
        <ele>416.20001220703</ele>
        <time>2024-11-15T18:13:56.000Z</time>
      </trkpt>
      <trkpt lat="45.85231" lon="3.55323">
        <ele>416.39999389648</ele>
        <time>2024-11-15T18:13:57.000Z</time>
      </trkpt>
      <trkpt lat="45.85233" lon="3.55324">
        <ele>416.60000610352</ele>
        <time>2024-11-15T18:13:58.000Z</time>
      </trkpt>
      <trkpt lat="45.85235" lon="3.55325">
        <ele>417.20001220703</ele>
        <time>2024-11-15T18:13:59.000Z</time>
      </trkpt>
      <trkpt lat="45.85237" lon="3.55326">
        <ele>417.39999389648</ele>
        <time>2024-11-15T18:14:00.000Z</time>
      </trkpt>
      <trkpt lat="45.85239" lon="3.55327">
        <ele>417.60000610352</ele>
        <time>2024-11-15T18:14:01.000Z</time>
      </trkpt>
      <trkpt lat="45.85242" lon="3.55328">
        <ele>417.60000610352</ele>
        <time>2024-11-15T18:14:02.000Z</time>
      </trkpt>
      <trkpt lat="45.85244" lon="3.55329">
        <ele>417.79998779297</ele>
        <time>2024-11-15T18:14:03.000Z</time>
      </trkpt>
      <trkpt lat="45.85246" lon="3.5533">
        <ele>418</ele>
        <time>2024-11-15T18:14:04.000Z</time>
      </trkpt>
      <trkpt lat="45.85248" lon="3.55331">
        <ele>418.20001220703</ele>
        <time>2024-11-15T18:14:05.000Z</time>
      </trkpt>
      <trkpt lat="45.8525" lon="3.55332">
        <ele>418.60000610352</ele>
        <time>2024-11-15T18:14:06.000Z</time>
      </trkpt>
      <trkpt lat="45.85252" lon="3.55332">
        <ele>418.79998779297</ele>
        <time>2024-11-15T18:14:07.000Z</time>
      </trkpt>
      <trkpt lat="45.85254" lon="3.55333">
        <ele>418.79998779297</ele>
        <time>2024-11-15T18:14:08.000Z</time>
      </trkpt>
      <trkpt lat="45.85256" lon="3.55333">
        <ele>419</ele>
        <time>2024-11-15T18:14:09.000Z</time>
      </trkpt>
      <trkpt lat="45.85258" lon="3.55334">
        <ele>419.20001220703</ele>
        <time>2024-11-15T18:14:10.000Z</time>
      </trkpt>
      <trkpt lat="45.8526" lon="3.55334">
        <ele>419.39999389648</ele>
        <time>2024-11-15T18:14:11.000Z</time>
      </trkpt>
      <trkpt lat="45.85262" lon="3.55334">
        <ele>419.39999389648</ele>
        <time>2024-11-15T18:14:12.000Z</time>
      </trkpt>
      <trkpt lat="45.85265" lon="3.55334">
        <ele>419.60000610352</ele>
        <time>2024-11-15T18:14:13.000Z</time>
      </trkpt>
      <trkpt lat="45.85268" lon="3.55334">
        <ele>419.60000610352</ele>
        <time>2024-11-15T18:14:14.000Z</time>
      </trkpt>
      <trkpt lat="45.8527" lon="3.55334">
        <ele>419.60000610352</ele>
        <time>2024-11-15T18:14:15.000Z</time>
      </trkpt>
      <trkpt lat="45.85273" lon="3.55333">
        <ele>419.39999389648</ele>
        <time>2024-11-15T18:14:16.000Z</time>
      </trkpt>
      <trkpt lat="45.85276" lon="3.55333">
        <ele>419.39999389648</ele>
        <time>2024-11-15T18:14:17.000Z</time>
      </trkpt>
      <trkpt lat="45.85278" lon="3.55332">
        <ele>419.20001220703</ele>
        <time>2024-11-15T18:14:18.000Z</time>
      </trkpt>
      <trkpt lat="45.85281" lon="3.55332">
        <ele>418.79998779297</ele>
        <time>2024-11-15T18:14:19.000Z</time>
      </trkpt>
      <trkpt lat="45.85284" lon="3.55331">
        <ele>418.39999389648</ele>
        <time>2024-11-15T18:14:20.000Z</time>
      </trkpt>
      <trkpt lat="45.85286" lon="3.55331">
        <ele>418</ele>
        <time>2024-11-15T18:14:21.000Z</time>
      </trkpt>
      <trkpt lat="45.85289" lon="3.55331">
        <ele>417.60000610352</ele>
        <time>2024-11-15T18:14:22.000Z</time>
      </trkpt>
      <trkpt lat="45.85291" lon="3.55331">
        <ele>417.39999389648</ele>
        <time>2024-11-15T18:14:23.000Z</time>
      </trkpt>
      <trkpt lat="45.85294" lon="3.55331">
        <ele>417.20001220703</ele>
        <time>2024-11-15T18:14:24.000Z</time>
      </trkpt>
      <trkpt lat="45.85297" lon="3.55331">
        <ele>417.20001220703</ele>
        <time>2024-11-15T18:14:25.000Z</time>
      </trkpt>
      <trkpt lat="45.85299" lon="3.55332">
        <ele>417</ele>
        <time>2024-11-15T18:14:26.000Z</time>
      </trkpt>
      <trkpt lat="45.85302" lon="3.55333">
        <ele>416.79998779297</ele>
        <time>2024-11-15T18:14:27.000Z</time>
      </trkpt>
      <trkpt lat="45.85304" lon="3.55334">
        <ele>416.60000610352</ele>
        <time>2024-11-15T18:14:28.000Z</time>
      </trkpt>
      <trkpt lat="45.85307" lon="3.55335">
        <ele>416.60000610352</ele>
        <time>2024-11-15T18:14:29.000Z</time>
      </trkpt>
      <trkpt lat="45.8531" lon="3.55336">
        <ele>416.39999389648</ele>
        <time>2024-11-15T18:14:30.000Z</time>
      </trkpt>
      <trkpt lat="45.85312" lon="3.55337">
        <ele>416.39999389648</ele>
        <time>2024-11-15T18:14:31.000Z</time>
      </trkpt>
      <trkpt lat="45.85315" lon="3.55337">
        <ele>416.20001220703</ele>
        <time>2024-11-15T18:14:32.000Z</time>
      </trkpt>
      <trkpt lat="45.85318" lon="3.55338">
        <ele>415.60000610352</ele>
        <time>2024-11-15T18:14:33.000Z</time>
      </trkpt>
      <trkpt lat="45.85321" lon="3.5534">
        <ele>415.39999389648</ele>
        <time>2024-11-15T18:14:34.000Z</time>
      </trkpt>
      <trkpt lat="45.85324" lon="3.55342">
        <ele>415.20001220703</ele>
        <time>2024-11-15T18:14:35.000Z</time>
      </trkpt>
      <trkpt lat="45.85326" lon="3.55344">
        <ele>414.79998779297</ele>
        <time>2024-11-15T18:14:36.000Z</time>
      </trkpt>
      <trkpt lat="45.85328" lon="3.55346">
        <ele>414.60000610352</ele>
        <time>2024-11-15T18:14:37.000Z</time>
      </trkpt>
      <trkpt lat="45.8533" lon="3.55349">
        <ele>414.39999389648</ele>
        <time>2024-11-15T18:14:38.000Z</time>
      </trkpt>
      <trkpt lat="45.85331" lon="3.55351">
        <ele>414.20001220703</ele>
        <time>2024-11-15T18:14:39.000Z</time>
      </trkpt>
      <trkpt lat="45.85332" lon="3.55353">
        <ele>414.20001220703</ele>
        <time>2024-11-15T18:14:40.000Z</time>
      </trkpt>
      <trkpt lat="45.85333" lon="3.55355">
        <ele>414.20001220703</ele>
        <time>2024-11-15T18:14:41.000Z</time>
      </trkpt>
      <trkpt lat="45.85334" lon="3.55356">
        <ele>414.39999389648</ele>
        <time>2024-11-15T18:14:42.000Z</time>
      </trkpt>
      <trkpt lat="45.85335" lon="3.55358">
        <ele>414.79998779297</ele>
        <time>2024-11-15T18:14:43.000Z</time>
      </trkpt>
      <trkpt lat="45.85336" lon="3.55359">
        <ele>415.20001220703</ele>
        <time>2024-11-15T18:14:44.000Z</time>
      </trkpt>
      <trkpt lat="45.85337" lon="3.55361">
        <ele>415.79998779297</ele>
        <time>2024-11-15T18:14:45.000Z</time>
      </trkpt>
      <trkpt lat="45.85337" lon="3.55362">
        <ele>416.20001220703</ele>
        <time>2024-11-15T18:14:46.000Z</time>
      </trkpt>
      <trkpt lat="45.85338" lon="3.55363">
        <ele>416.39999389648</ele>
        <time>2024-11-15T18:14:47.000Z</time>
      </trkpt>
      <trkpt lat="45.85338" lon="3.55364">
        <ele>416.39999389648</ele>
        <time>2024-11-15T18:14:48.000Z</time>
      </trkpt>
      <trkpt lat="45.85339" lon="3.55365">
        <ele>417</ele>
        <time>2024-11-15T18:14:49.000Z</time>
      </trkpt>
      <trkpt lat="45.8534" lon="3.55366">
        <ele>417.39999389648</ele>
        <time>2024-11-15T18:14:50.000Z</time>
      </trkpt>
      <trkpt lat="45.85341" lon="3.55366">
        <ele>417.60000610352</ele>
        <time>2024-11-15T18:14:51.000Z</time>
      </trkpt>
      <trkpt lat="45.85342" lon="3.55367">
        <ele>417.79998779297</ele>
        <time>2024-11-15T18:14:52.000Z</time>
      </trkpt>
      <trkpt lat="45.85343" lon="3.55367">
        <ele>418.20001220703</ele>
        <time>2024-11-15T18:14:53.000Z</time>
      </trkpt>
      <trkpt lat="45.85344" lon="3.55368">
        <ele>418.39999389648</ele>
        <time>2024-11-15T18:14:54.000Z</time>
      </trkpt>
      <trkpt lat="45.85345" lon="3.55368">
        <ele>418.60000610352</ele>
        <time>2024-11-15T18:14:55.000Z</time>
      </trkpt>
      <trkpt lat="45.85346" lon="3.55369">
        <ele>418.79998779297</ele>
        <time>2024-11-15T18:14:56.000Z</time>
      </trkpt>
      <trkpt lat="45.85348" lon="3.55369">
        <ele>419.20001220703</ele>
        <time>2024-11-15T18:14:57.000Z</time>
      </trkpt>
      <trkpt lat="45.85349" lon="3.5537">
        <ele>419.39999389648</ele>
        <time>2024-11-15T18:14:58.000Z</time>
      </trkpt>
      <trkpt lat="45.8535" lon="3.5537">
        <ele>419.79998779297</ele>
        <time>2024-11-15T18:14:59.000Z</time>
      </trkpt>
      <trkpt lat="45.85352" lon="3.5537">
        <ele>419.79998779297</ele>
        <time>2024-11-15T18:15:00.000Z</time>
      </trkpt>
      <trkpt lat="45.85353" lon="3.55371">
        <ele>420</ele>
        <time>2024-11-15T18:15:01.000Z</time>
      </trkpt>
      <trkpt lat="45.85354" lon="3.55371">
        <ele>420.20001220703</ele>
        <time>2024-11-15T18:15:02.000Z</time>
      </trkpt>
      <trkpt lat="45.85356" lon="3.55372">
        <ele>420.60000610352</ele>
        <time>2024-11-15T18:15:03.000Z</time>
      </trkpt>
      <trkpt lat="45.85357" lon="3.55372">
        <ele>420.79998779297</ele>
        <time>2024-11-15T18:15:04.000Z</time>
      </trkpt>
      <trkpt lat="45.85358" lon="3.55373">
        <ele>421.20001220703</ele>
        <time>2024-11-15T18:15:05.000Z</time>
      </trkpt>
      <trkpt lat="45.8536" lon="3.55373">
        <ele>421.39999389648</ele>
        <time>2024-11-15T18:15:06.000Z</time>
      </trkpt>
      <trkpt lat="45.85361" lon="3.55373">
        <ele>421.60000610352</ele>
        <time>2024-11-15T18:15:07.000Z</time>
      </trkpt>
      <trkpt lat="45.85362" lon="3.55373">
        <ele>422.20001220703</ele>
        <time>2024-11-15T18:15:08.000Z</time>
      </trkpt>
      <trkpt lat="45.85364" lon="3.55373">
        <ele>422.60000610352</ele>
        <time>2024-11-15T18:15:09.000Z</time>
      </trkpt>
      <trkpt lat="45.85365" lon="3.55373">
        <ele>422.79998779297</ele>
        <time>2024-11-15T18:15:10.000Z</time>
      </trkpt>
      <trkpt lat="45.85367" lon="3.55373">
        <ele>423</ele>
        <time>2024-11-15T18:15:11.000Z</time>
      </trkpt>
      <trkpt lat="45.85368" lon="3.55373">
        <ele>423.20001220703</ele>
        <time>2024-11-15T18:15:12.000Z</time>
      </trkpt>
      <trkpt lat="45.8537" lon="3.55372">
        <ele>423.39999389648</ele>
        <time>2024-11-15T18:15:13.000Z</time>
      </trkpt>
      <trkpt lat="45.85371" lon="3.55372">
        <ele>423.60000610352</ele>
        <time>2024-11-15T18:15:14.000Z</time>
      </trkpt>
      <trkpt lat="45.85372" lon="3.55372">
        <ele>423.79998779297</ele>
        <time>2024-11-15T18:15:15.000Z</time>
      </trkpt>
      <trkpt lat="45.85373" lon="3.55373">
        <ele>424</ele>
        <time>2024-11-15T18:15:16.000Z</time>
      </trkpt>
      <trkpt lat="45.85375" lon="3.55373">
        <ele>424</ele>
        <time>2024-11-15T18:15:17.000Z</time>
      </trkpt>
      <trkpt lat="45.85376" lon="3.55373">
        <ele>424.20001220703</ele>
        <time>2024-11-15T18:15:18.000Z</time>
      </trkpt>
      <trkpt lat="45.85378" lon="3.55372">
        <ele>424.60000610352</ele>
        <time>2024-11-15T18:15:19.000Z</time>
      </trkpt>
      <trkpt lat="45.85379" lon="3.55372">
        <ele>425</ele>
        <time>2024-11-15T18:15:20.000Z</time>
      </trkpt>
      <trkpt lat="45.8538" lon="3.55372">
        <ele>425.39999389648</ele>
        <time>2024-11-15T18:15:21.000Z</time>
      </trkpt>
      <trkpt lat="45.85382" lon="3.55371">
        <ele>425.39999389648</ele>
        <time>2024-11-15T18:15:22.000Z</time>
      </trkpt>
      <trkpt lat="45.85383" lon="3.55371">
        <ele>425.79998779297</ele>
        <time>2024-11-15T18:15:23.000Z</time>
      </trkpt>
      <trkpt lat="45.85384" lon="3.5537">
        <ele>426</ele>
        <time>2024-11-15T18:15:24.000Z</time>
      </trkpt>
      <trkpt lat="45.85385" lon="3.5537">
        <ele>426.20001220703</ele>
        <time>2024-11-15T18:15:25.000Z</time>
      </trkpt>
      <trkpt lat="45.85387" lon="3.5537">
        <ele>426.39999389648</ele>
        <time>2024-11-15T18:15:26.000Z</time>
      </trkpt>
      <trkpt lat="45.85389" lon="3.5537">
        <ele>426.60000610352</ele>
        <time>2024-11-15T18:15:27.000Z</time>
      </trkpt>
      <trkpt lat="45.8539" lon="3.5537">
        <ele>426.60000610352</ele>
        <time>2024-11-15T18:15:28.000Z</time>
      </trkpt>
      <trkpt lat="45.85392" lon="3.55371">
        <ele>426.79998779297</ele>
        <time>2024-11-15T18:15:29.000Z</time>
      </trkpt>
      <trkpt lat="45.85394" lon="3.55371">
        <ele>426.79998779297</ele>
        <time>2024-11-15T18:15:30.000Z</time>
      </trkpt>
      <trkpt lat="45.85395" lon="3.55371">
        <ele>427</ele>
        <time>2024-11-15T18:15:31.000Z</time>
      </trkpt>
      <trkpt lat="45.85397" lon="3.55372">
        <ele>427.20001220703</ele>
        <time>2024-11-15T18:15:32.000Z</time>
      </trkpt>
      <trkpt lat="45.85399" lon="3.55373">
        <ele>427.20001220703</ele>
        <time>2024-11-15T18:15:33.000Z</time>
      </trkpt>
      <trkpt lat="45.85401" lon="3.55374">
        <ele>427.39999389648</ele>
        <time>2024-11-15T18:15:34.000Z</time>
      </trkpt>
      <trkpt lat="45.85403" lon="3.55374">
        <ele>427.60000610352</ele>
        <time>2024-11-15T18:15:35.000Z</time>
      </trkpt>
      <trkpt lat="45.85405" lon="3.55375">
        <ele>427.79998779297</ele>
        <time>2024-11-15T18:15:36.000Z</time>
      </trkpt>
      <trkpt lat="45.85407" lon="3.55376">
        <ele>428</ele>
        <time>2024-11-15T18:15:37.000Z</time>
      </trkpt>
      <trkpt lat="45.85409" lon="3.55377">
        <ele>428.20001220703</ele>
        <time>2024-11-15T18:15:38.000Z</time>
      </trkpt>
      <trkpt lat="45.85411" lon="3.55378">
        <ele>428.39999389648</ele>
        <time>2024-11-15T18:15:39.000Z</time>
      </trkpt>
      <trkpt lat="45.85413" lon="3.55379">
        <ele>428.60000610352</ele>
        <time>2024-11-15T18:15:40.000Z</time>
      </trkpt>
      <trkpt lat="45.85415" lon="3.55381">
        <ele>428.60000610352</ele>
        <time>2024-11-15T18:15:41.000Z</time>
      </trkpt>
      <trkpt lat="45.85417" lon="3.55382">
        <ele>428.60000610352</ele>
        <time>2024-11-15T18:15:42.000Z</time>
      </trkpt>
      <trkpt lat="45.85419" lon="3.55383">
        <ele>429</ele>
        <time>2024-11-15T18:15:43.000Z</time>
      </trkpt>
      <trkpt lat="45.85421" lon="3.55385">
        <ele>429.20001220703</ele>
        <time>2024-11-15T18:15:44.000Z</time>
      </trkpt>
      <trkpt lat="45.85422" lon="3.55386">
        <ele>429.60000610352</ele>
        <time>2024-11-15T18:15:45.000Z</time>
      </trkpt>
      <trkpt lat="45.85424" lon="3.55387">
        <ele>429.79998779297</ele>
        <time>2024-11-15T18:15:46.000Z</time>
      </trkpt>
      <trkpt lat="45.85426" lon="3.55388">
        <ele>430</ele>
        <time>2024-11-15T18:15:47.000Z</time>
      </trkpt>
      <trkpt lat="45.85428" lon="3.55389">
        <ele>430.39999389648</ele>
        <time>2024-11-15T18:15:48.000Z</time>
      </trkpt>
      <trkpt lat="45.8543" lon="3.5539">
        <ele>430.60000610352</ele>
        <time>2024-11-15T18:15:49.000Z</time>
      </trkpt>
      <trkpt lat="45.85432" lon="3.55391">
        <ele>430.79998779297</ele>
        <time>2024-11-15T18:15:50.000Z</time>
      </trkpt>
      <trkpt lat="45.85434" lon="3.55391">
        <ele>430.79998779297</ele>
        <time>2024-11-15T18:15:51.000Z</time>
      </trkpt>
      <trkpt lat="45.85436" lon="3.55392">
        <ele>431</ele>
        <time>2024-11-15T18:15:52.000Z</time>
      </trkpt>
      <trkpt lat="45.85438" lon="3.55392">
        <ele>431</ele>
        <time>2024-11-15T18:15:53.000Z</time>
      </trkpt>
      <trkpt lat="45.8544" lon="3.55393">
        <ele>431.20001220703</ele>
        <time>2024-11-15T18:15:54.000Z</time>
      </trkpt>
      <trkpt lat="45.85442" lon="3.55394">
        <ele>431.20001220703</ele>
        <time>2024-11-15T18:15:55.000Z</time>
      </trkpt>
      <trkpt lat="45.85444" lon="3.55395">
        <ele>431.39999389648</ele>
        <time>2024-11-15T18:15:56.000Z</time>
      </trkpt>
      <trkpt lat="45.85446" lon="3.55397">
        <ele>431.39999389648</ele>
        <time>2024-11-15T18:15:57.000Z</time>
      </trkpt>
      <trkpt lat="45.85448" lon="3.55398">
        <ele>431.39999389648</ele>
        <time>2024-11-15T18:15:58.000Z</time>
      </trkpt>
      <trkpt lat="45.85449" lon="3.55399">
        <ele>431.60000610352</ele>
        <time>2024-11-15T18:15:59.000Z</time>
      </trkpt>
      <trkpt lat="45.8545" lon="3.55401">
        <ele>431.60000610352</ele>
        <time>2024-11-15T18:16:00.000Z</time>
      </trkpt>
      <trkpt lat="45.85452" lon="3.55403">
        <ele>431.79998779297</ele>
        <time>2024-11-15T18:16:01.000Z</time>
      </trkpt>
      <trkpt lat="45.85453" lon="3.55404">
        <ele>432</ele>
        <time>2024-11-15T18:16:02.000Z</time>
      </trkpt>
      <trkpt lat="45.85454" lon="3.55406">
        <ele>432.20001220703</ele>
        <time>2024-11-15T18:16:03.000Z</time>
      </trkpt>
      <trkpt lat="45.85456" lon="3.55407">
        <ele>432.39999389648</ele>
        <time>2024-11-15T18:16:04.000Z</time>
      </trkpt>
      <trkpt lat="45.85457" lon="3.55409">
        <ele>433</ele>
        <time>2024-11-15T18:16:05.000Z</time>
      </trkpt>
      <trkpt lat="45.85459" lon="3.5541">
        <ele>433</ele>
        <time>2024-11-15T18:16:06.000Z</time>
      </trkpt>
      <trkpt lat="45.8546" lon="3.55411">
        <ele>433.39999389648</ele>
        <time>2024-11-15T18:16:07.000Z</time>
      </trkpt>
      <trkpt lat="45.85462" lon="3.55413">
        <ele>433.60000610352</ele>
        <time>2024-11-15T18:16:08.000Z</time>
      </trkpt>
      <trkpt lat="45.85463" lon="3.55414">
        <ele>433.79998779297</ele>
        <time>2024-11-15T18:16:09.000Z</time>
      </trkpt>
      <trkpt lat="45.85465" lon="3.55415">
        <ele>433.79998779297</ele>
        <time>2024-11-15T18:16:10.000Z</time>
      </trkpt>
      <trkpt lat="45.85466" lon="3.55416">
        <ele>434</ele>
        <time>2024-11-15T18:16:11.000Z</time>
      </trkpt>
      <trkpt lat="45.85468" lon="3.55418">
        <ele>434</ele>
        <time>2024-11-15T18:16:12.000Z</time>
      </trkpt>
      <trkpt lat="45.85469" lon="3.55419">
        <ele>434.20001220703</ele>
        <time>2024-11-15T18:16:13.000Z</time>
      </trkpt>
      <trkpt lat="45.85471" lon="3.5542">
        <ele>434.20001220703</ele>
        <time>2024-11-15T18:16:14.000Z</time>
      </trkpt>
      <trkpt lat="45.85472" lon="3.55421">
        <ele>434.20001220703</ele>
        <time>2024-11-15T18:16:15.000Z</time>
      </trkpt>
      <trkpt lat="45.85474" lon="3.55422">
        <ele>434.39999389648</ele>
        <time>2024-11-15T18:16:16.000Z</time>
      </trkpt>
      <trkpt lat="45.85475" lon="3.55423">
        <ele>434.39999389648</ele>
        <time>2024-11-15T18:16:17.000Z</time>
      </trkpt>
      <trkpt lat="45.85477" lon="3.55425">
        <ele>434.60000610352</ele>
        <time>2024-11-15T18:16:18.000Z</time>
      </trkpt>
      <trkpt lat="45.85479" lon="3.55426">
        <ele>434.79998779297</ele>
        <time>2024-11-15T18:16:19.000Z</time>
      </trkpt>
      <trkpt lat="45.8548" lon="3.55427">
        <ele>434.79998779297</ele>
        <time>2024-11-15T18:16:20.000Z</time>
      </trkpt>
      <trkpt lat="45.85482" lon="3.55429">
        <ele>435</ele>
        <time>2024-11-15T18:16:21.000Z</time>
      </trkpt>
      <trkpt lat="45.85483" lon="3.5543">
        <ele>435</ele>
        <time>2024-11-15T18:16:22.000Z</time>
      </trkpt>
      <trkpt lat="45.85485" lon="3.55432">
        <ele>435.20001220703</ele>
        <time>2024-11-15T18:16:23.000Z</time>
      </trkpt>
      <trkpt lat="45.85486" lon="3.55433">
        <ele>435.20001220703</ele>
        <time>2024-11-15T18:16:24.000Z</time>
      </trkpt>
      <trkpt lat="45.85488" lon="3.55434">
        <ele>435.60000610352</ele>
        <time>2024-11-15T18:16:25.000Z</time>
      </trkpt>
      <trkpt lat="45.8549" lon="3.55435">
        <ele>435.60000610352</ele>
        <time>2024-11-15T18:16:26.000Z</time>
      </trkpt>
      <trkpt lat="45.85491" lon="3.55436">
        <ele>436</ele>
        <time>2024-11-15T18:16:27.000Z</time>
      </trkpt>
      <trkpt lat="45.85493" lon="3.55437">
        <ele>436.20001220703</ele>
        <time>2024-11-15T18:16:28.000Z</time>
      </trkpt>
      <trkpt lat="45.85495" lon="3.55439">
        <ele>436.20001220703</ele>
        <time>2024-11-15T18:16:29.000Z</time>
      </trkpt>
      <trkpt lat="45.85496" lon="3.5544">
        <ele>436.39999389648</ele>
        <time>2024-11-15T18:16:30.000Z</time>
      </trkpt>
      <trkpt lat="45.85498" lon="3.55442">
        <ele>436.39999389648</ele>
        <time>2024-11-15T18:16:31.000Z</time>
      </trkpt>
      <trkpt lat="45.85499" lon="3.55444">
        <ele>436.60000610352</ele>
        <time>2024-11-15T18:16:32.000Z</time>
      </trkpt>
      <trkpt lat="45.855" lon="3.55446">
        <ele>436.79998779297</ele>
        <time>2024-11-15T18:16:33.000Z</time>
      </trkpt>
      <trkpt lat="45.85501" lon="3.55448">
        <ele>436.79998779297</ele>
        <time>2024-11-15T18:16:34.000Z</time>
      </trkpt>
      <trkpt lat="45.85502" lon="3.5545">
        <ele>437</ele>
        <time>2024-11-15T18:16:35.000Z</time>
      </trkpt>
      <trkpt lat="45.85503" lon="3.55452">
        <ele>437.20001220703</ele>
        <time>2024-11-15T18:16:36.000Z</time>
      </trkpt>
      <trkpt lat="45.85504" lon="3.55454">
        <ele>437.60000610352</ele>
        <time>2024-11-15T18:16:37.000Z</time>
      </trkpt>
      <trkpt lat="45.85505" lon="3.55455">
        <ele>437.79998779297</ele>
        <time>2024-11-15T18:16:38.000Z</time>
      </trkpt>
      <trkpt lat="45.85506" lon="3.55457">
        <ele>438.20001220703</ele>
        <time>2024-11-15T18:16:39.000Z</time>
      </trkpt>
      <trkpt lat="45.85507" lon="3.55459">
        <ele>438.39999389648</ele>
        <time>2024-11-15T18:16:40.000Z</time>
      </trkpt>
      <trkpt lat="45.85508" lon="3.55461">
        <ele>438.39999389648</ele>
        <time>2024-11-15T18:16:41.000Z</time>
      </trkpt>
      <trkpt lat="45.85509" lon="3.55462">
        <ele>438.39999389648</ele>
        <time>2024-11-15T18:16:42.000Z</time>
      </trkpt>
      <trkpt lat="45.8551" lon="3.55464">
        <ele>438.60000610352</ele>
        <time>2024-11-15T18:16:43.000Z</time>
      </trkpt>
      <trkpt lat="45.85511" lon="3.55465">
        <ele>438.79998779297</ele>
        <time>2024-11-15T18:16:44.000Z</time>
      </trkpt>
      <trkpt lat="45.85511" lon="3.55467">
        <ele>439</ele>
        <time>2024-11-15T18:16:45.000Z</time>
      </trkpt>
      <trkpt lat="45.85512" lon="3.55468">
        <ele>439</ele>
        <time>2024-11-15T18:16:46.000Z</time>
      </trkpt>
      <trkpt lat="45.85512" lon="3.55469">
        <ele>439.60000610352</ele>
        <time>2024-11-15T18:16:47.000Z</time>
      </trkpt>
      <trkpt lat="45.85513" lon="3.5547">
        <ele>439.79998779297</ele>
        <time>2024-11-15T18:16:48.000Z</time>
      </trkpt>
      <trkpt lat="45.85512" lon="3.55471">
        <ele>440.39999389648</ele>
        <time>2024-11-15T18:16:49.000Z</time>
      </trkpt>
      <trkpt lat="45.85512" lon="3.55472">
        <ele>440.60000610352</ele>
        <time>2024-11-15T18:16:50.000Z</time>
      </trkpt>
      <trkpt lat="45.85511" lon="3.55473">
        <ele>441</ele>
        <time>2024-11-15T18:16:51.000Z</time>
      </trkpt>
      <trkpt lat="45.85511" lon="3.55473">
        <ele>441.39999389648</ele>
        <time>2024-11-15T18:16:52.000Z</time>
      </trkpt>
      <trkpt lat="45.85511" lon="3.55474">
        <ele>441.60000610352</ele>
        <time>2024-11-15T18:16:53.000Z</time>
      </trkpt>
      <trkpt lat="45.85511" lon="3.55474">
        <ele>441.79998779297</ele>
        <time>2024-11-15T18:16:54.000Z</time>
      </trkpt>
      <trkpt lat="45.8551" lon="3.55474">
        <ele>442</ele>
        <time>2024-11-15T18:16:55.000Z</time>
      </trkpt>
      <trkpt lat="45.8551" lon="3.55474">
        <ele>442.20001220703</ele>
        <time>2024-11-15T18:16:56.000Z</time>
      </trkpt>
      <trkpt lat="45.8551" lon="3.55474">
        <ele>442.20001220703</ele>
        <time>2024-11-15T18:16:57.000Z</time>
      </trkpt>
      <trkpt lat="45.85509" lon="3.55475">
        <ele>442.20001220703</ele>
        <time>2024-11-15T18:16:58.000Z</time>
      </trkpt>
      <trkpt lat="45.85509" lon="3.55475">
        <ele>442.39999389648</ele>
        <time>2024-11-15T18:16:59.000Z</time>
      </trkpt>
      <trkpt lat="45.85508" lon="3.55476">
        <ele>442.60000610352</ele>
        <time>2024-11-15T18:17:00.000Z</time>
      </trkpt>
      <trkpt lat="45.85507" lon="3.55476">
        <ele>442.79998779297</ele>
        <time>2024-11-15T18:17:01.000Z</time>
      </trkpt>
      <trkpt lat="45.85507" lon="3.55477">
        <ele>443</ele>
        <time>2024-11-15T18:17:02.000Z</time>
      </trkpt>
      <trkpt lat="45.85506" lon="3.55477">
        <ele>443.20001220703</ele>
        <time>2024-11-15T18:17:03.000Z</time>
      </trkpt>
      <trkpt lat="45.85506" lon="3.55478">
        <ele>443.79998779297</ele>
        <time>2024-11-15T18:17:04.000Z</time>
      </trkpt>
      <trkpt lat="45.85506" lon="3.55478">
        <ele>444</ele>
        <time>2024-11-15T18:17:05.000Z</time>
      </trkpt>
      <trkpt lat="45.85505" lon="3.55478">
        <ele>444.20001220703</ele>
        <time>2024-11-15T18:17:06.000Z</time>
      </trkpt>
      <trkpt lat="45.85505" lon="3.55479">
        <ele>444.60000610352</ele>
        <time>2024-11-15T18:17:07.000Z</time>
      </trkpt>
      <trkpt lat="45.85504" lon="3.5548">
        <ele>445.20001220703</ele>
        <time>2024-11-15T18:17:08.000Z</time>
      </trkpt>
      <trkpt lat="45.85504" lon="3.5548">
        <ele>445.39999389648</ele>
        <time>2024-11-15T18:17:09.000Z</time>
      </trkpt>
      <trkpt lat="45.85503" lon="3.55481">
        <ele>445.79998779297</ele>
        <time>2024-11-15T18:17:10.000Z</time>
      </trkpt>
      <trkpt lat="45.85503" lon="3.55481">
        <ele>446.20001220703</ele>
        <time>2024-11-15T18:17:11.000Z</time>
      </trkpt>
      <trkpt lat="45.85502" lon="3.55482">
        <ele>446.39999389648</ele>
        <time>2024-11-15T18:17:12.000Z</time>
      </trkpt>
      <trkpt lat="45.85502" lon="3.55482">
        <ele>446.60000610352</ele>
        <time>2024-11-15T18:17:13.000Z</time>
      </trkpt>
      <trkpt lat="45.85501" lon="3.55483">
        <ele>446.79998779297</ele>
        <time>2024-11-15T18:17:14.000Z</time>
      </trkpt>
      <trkpt lat="45.855" lon="3.55484">
        <ele>447</ele>
        <time>2024-11-15T18:17:15.000Z</time>
      </trkpt>
      <trkpt lat="45.855" lon="3.55484">
        <ele>447</ele>
        <time>2024-11-15T18:17:16.000Z</time>
      </trkpt>
      <trkpt lat="45.85499" lon="3.55485">
        <ele>447.20001220703</ele>
        <time>2024-11-15T18:17:17.000Z</time>
      </trkpt>
      <trkpt lat="45.85499" lon="3.55486">
        <ele>447.60000610352</ele>
        <time>2024-11-15T18:17:18.000Z</time>
      </trkpt>
      <trkpt lat="45.85498" lon="3.55487">
        <ele>447.79998779297</ele>
        <time>2024-11-15T18:17:19.000Z</time>
      </trkpt>
      <trkpt lat="45.85497" lon="3.55488">
        <ele>448</ele>
        <time>2024-11-15T18:17:20.000Z</time>
      </trkpt>
      <trkpt lat="45.85497" lon="3.55488">
        <ele>448.20001220703</ele>
        <time>2024-11-15T18:17:21.000Z</time>
      </trkpt>
      <trkpt lat="45.85496" lon="3.55489">
        <ele>448.60000610352</ele>
        <time>2024-11-15T18:17:22.000Z</time>
      </trkpt>
      <trkpt lat="45.85496" lon="3.5549">
        <ele>448.79998779297</ele>
        <time>2024-11-15T18:17:23.000Z</time>
      </trkpt>
      <trkpt lat="45.85495" lon="3.55491">
        <ele>449</ele>
        <time>2024-11-15T18:17:24.000Z</time>
      </trkpt>
      <trkpt lat="45.85495" lon="3.55492">
        <ele>449.20001220703</ele>
        <time>2024-11-15T18:17:25.000Z</time>
      </trkpt>
      <trkpt lat="45.85494" lon="3.55492">
        <ele>449.60000610352</ele>
        <time>2024-11-15T18:17:26.000Z</time>
      </trkpt>
      <trkpt lat="45.85494" lon="3.55493">
        <ele>449.79998779297</ele>
        <time>2024-11-15T18:17:27.000Z</time>
      </trkpt>
      <trkpt lat="45.85493" lon="3.55494">
        <ele>450</ele>
        <time>2024-11-15T18:17:28.000Z</time>
      </trkpt>
      <trkpt lat="45.85493" lon="3.55495">
        <ele>450.39999389648</ele>
        <time>2024-11-15T18:17:29.000Z</time>
      </trkpt>
      <trkpt lat="45.85492" lon="3.55496">
        <ele>450.60000610352</ele>
        <time>2024-11-15T18:17:30.000Z</time>
      </trkpt>
      <trkpt lat="45.85492" lon="3.55497">
        <ele>450.60000610352</ele>
        <time>2024-11-15T18:17:31.000Z</time>
      </trkpt>
      <trkpt lat="45.85491" lon="3.55498">
        <ele>451.20001220703</ele>
        <time>2024-11-15T18:17:32.000Z</time>
      </trkpt>
      <trkpt lat="45.85491" lon="3.55499">
        <ele>451.20001220703</ele>
        <time>2024-11-15T18:17:33.000Z</time>
      </trkpt>
      <trkpt lat="45.8549" lon="3.55501">
        <ele>451.60000610352</ele>
        <time>2024-11-15T18:17:34.000Z</time>
      </trkpt>
      <trkpt lat="45.85489" lon="3.55502">
        <ele>452</ele>
        <time>2024-11-15T18:17:35.000Z</time>
      </trkpt>
      <trkpt lat="45.85489" lon="3.55503">
        <ele>452.20001220703</ele>
        <time>2024-11-15T18:17:36.000Z</time>
      </trkpt>
      <trkpt lat="45.85488" lon="3.55504">
        <ele>452.39999389648</ele>
        <time>2024-11-15T18:17:37.000Z</time>
      </trkpt>
      <trkpt lat="45.85487" lon="3.55505">
        <ele>452.60000610352</ele>
        <time>2024-11-15T18:17:38.000Z</time>
      </trkpt>
      <trkpt lat="45.85487" lon="3.55507">
        <ele>453</ele>
        <time>2024-11-15T18:17:39.000Z</time>
      </trkpt>
      <trkpt lat="45.85486" lon="3.55508">
        <ele>453.39999389648</ele>
        <time>2024-11-15T18:17:40.000Z</time>
      </trkpt>
      <trkpt lat="45.85486" lon="3.5551">
        <ele>453.39999389648</ele>
        <time>2024-11-15T18:17:41.000Z</time>
      </trkpt>
      <trkpt lat="45.85485" lon="3.55511">
        <ele>453.60000610352</ele>
        <time>2024-11-15T18:17:42.000Z</time>
      </trkpt>
      <trkpt lat="45.85485" lon="3.55512">
        <ele>453.79998779297</ele>
        <time>2024-11-15T18:17:43.000Z</time>
      </trkpt>
      <trkpt lat="45.85484" lon="3.55513">
        <ele>453.79998779297</ele>
        <time>2024-11-15T18:17:44.000Z</time>
      </trkpt>
      <trkpt lat="45.85483" lon="3.55514">
        <ele>454</ele>
        <time>2024-11-15T18:17:45.000Z</time>
      </trkpt>
      <trkpt lat="45.85483" lon="3.55515">
        <ele>454</ele>
        <time>2024-11-15T18:17:46.000Z</time>
      </trkpt>
      <trkpt lat="45.85482" lon="3.55515">
        <ele>454.39999389648</ele>
        <time>2024-11-15T18:17:47.000Z</time>
      </trkpt>
      <trkpt lat="45.85481" lon="3.55515">
        <ele>454.60000610352</ele>
        <time>2024-11-15T18:17:48.000Z</time>
      </trkpt>
      <trkpt lat="45.8548" lon="3.55516">
        <ele>454.79998779297</ele>
        <time>2024-11-15T18:17:49.000Z</time>
      </trkpt>
      <trkpt lat="45.8548" lon="3.55517">
        <ele>455</ele>
        <time>2024-11-15T18:17:50.000Z</time>
      </trkpt>
      <trkpt lat="45.85479" lon="3.55518">
        <ele>455</ele>
        <time>2024-11-15T18:17:51.000Z</time>
      </trkpt>
      <trkpt lat="45.85479" lon="3.55519">
        <ele>455</ele>
        <time>2024-11-15T18:17:52.000Z</time>
      </trkpt>
      <trkpt lat="45.8548" lon="3.5552">
        <ele>455.20001220703</ele>
        <time>2024-11-15T18:17:53.000Z</time>
      </trkpt>
      <trkpt lat="45.8548" lon="3.55522">
        <ele>455.60000610352</ele>
        <time>2024-11-15T18:17:54.000Z</time>
      </trkpt>
      <trkpt lat="45.85481" lon="3.55523">
        <ele>455.79998779297</ele>
        <time>2024-11-15T18:17:55.000Z</time>
      </trkpt>
      <trkpt lat="45.85481" lon="3.55524">
        <ele>456.20001220703</ele>
        <time>2024-11-15T18:17:56.000Z</time>
      </trkpt>
      <trkpt lat="45.85482" lon="3.55525">
        <ele>456.60000610352</ele>
        <time>2024-11-15T18:17:57.000Z</time>
      </trkpt>
      <trkpt lat="45.85482" lon="3.55527">
        <ele>456.79998779297</ele>
        <time>2024-11-15T18:17:58.000Z</time>
      </trkpt>
      <trkpt lat="45.85483" lon="3.55529">
        <ele>457</ele>
        <time>2024-11-15T18:17:59.000Z</time>
      </trkpt>
      <trkpt lat="45.85483" lon="3.55531">
        <ele>457.20001220703</ele>
        <time>2024-11-15T18:18:00.000Z</time>
      </trkpt>
      <trkpt lat="45.85483" lon="3.55532">
        <ele>457.39999389648</ele>
        <time>2024-11-15T18:18:01.000Z</time>
      </trkpt>
      <trkpt lat="45.85483" lon="3.55534">
        <ele>457.60000610352</ele>
        <time>2024-11-15T18:18:02.000Z</time>
      </trkpt>
      <trkpt lat="45.85484" lon="3.55536">
        <ele>457.60000610352</ele>
        <time>2024-11-15T18:18:03.000Z</time>
      </trkpt>
      <trkpt lat="45.85483" lon="3.55538">
        <ele>458.20001220703</ele>
        <time>2024-11-15T18:18:04.000Z</time>
      </trkpt>
      <trkpt lat="45.85483" lon="3.55539">
        <ele>458.20001220703</ele>
        <time>2024-11-15T18:18:05.000Z</time>
      </trkpt>
      <trkpt lat="45.85483" lon="3.55541">
        <ele>458.39999389648</ele>
        <time>2024-11-15T18:18:06.000Z</time>
      </trkpt>
      <trkpt lat="45.85483" lon="3.55543">
        <ele>458.60000610352</ele>
        <time>2024-11-15T18:18:07.000Z</time>
      </trkpt>
      <trkpt lat="45.85482" lon="3.55545">
        <ele>458.79998779297</ele>
        <time>2024-11-15T18:18:08.000Z</time>
      </trkpt>
      <trkpt lat="45.85482" lon="3.55546">
        <ele>458.79998779297</ele>
        <time>2024-11-15T18:18:09.000Z</time>
      </trkpt>
      <trkpt lat="45.85482" lon="3.55548">
        <ele>459</ele>
        <time>2024-11-15T18:18:10.000Z</time>
      </trkpt>
      <trkpt lat="45.85481" lon="3.55549">
        <ele>459.20001220703</ele>
        <time>2024-11-15T18:18:11.000Z</time>
      </trkpt>
      <trkpt lat="45.8548" lon="3.55551">
        <ele>459.39999389648</ele>
        <time>2024-11-15T18:18:12.000Z</time>
      </trkpt>
      <trkpt lat="45.8548" lon="3.55552">
        <ele>459.39999389648</ele>
        <time>2024-11-15T18:18:13.000Z</time>
      </trkpt>
      <trkpt lat="45.85479" lon="3.55554">
        <ele>459.60000610352</ele>
        <time>2024-11-15T18:18:14.000Z</time>
      </trkpt>
      <trkpt lat="45.85478" lon="3.55555">
        <ele>459.60000610352</ele>
        <time>2024-11-15T18:18:15.000Z</time>
      </trkpt>
      <trkpt lat="45.85478" lon="3.55557">
        <ele>459.79998779297</ele>
        <time>2024-11-15T18:18:16.000Z</time>
      </trkpt>
      <trkpt lat="45.85477" lon="3.55559">
        <ele>460</ele>
        <time>2024-11-15T18:18:17.000Z</time>
      </trkpt>
      <trkpt lat="45.85476" lon="3.55561">
        <ele>460.20001220703</ele>
        <time>2024-11-15T18:18:18.000Z</time>
      </trkpt>
      <trkpt lat="45.85476" lon="3.55563">
        <ele>460.39999389648</ele>
        <time>2024-11-15T18:18:19.000Z</time>
      </trkpt>
      <trkpt lat="45.85475" lon="3.55565">
        <ele>460.60000610352</ele>
        <time>2024-11-15T18:18:20.000Z</time>
      </trkpt>
      <trkpt lat="45.85474" lon="3.55566">
        <ele>460.79998779297</ele>
        <time>2024-11-15T18:18:21.000Z</time>
      </trkpt>
      <trkpt lat="45.85473" lon="3.55568">
        <ele>461.20001220703</ele>
        <time>2024-11-15T18:18:22.000Z</time>
      </trkpt>
      <trkpt lat="45.85472" lon="3.5557">
        <ele>461.39999389648</ele>
        <time>2024-11-15T18:18:23.000Z</time>
      </trkpt>
      <trkpt lat="45.85471" lon="3.55571">
        <ele>461.60000610352</ele>
        <time>2024-11-15T18:18:24.000Z</time>
      </trkpt>
      <trkpt lat="45.8547" lon="3.55572">
        <ele>461.79998779297</ele>
        <time>2024-11-15T18:18:25.000Z</time>
      </trkpt>
      <trkpt lat="45.85469" lon="3.55574">
        <ele>461.79998779297</ele>
        <time>2024-11-15T18:18:26.000Z</time>
      </trkpt>
      <trkpt lat="45.85467" lon="3.55575">
        <ele>462</ele>
        <time>2024-11-15T18:18:27.000Z</time>
      </trkpt>
      <trkpt lat="45.85465" lon="3.55577">
        <ele>462.39999389648</ele>
        <time>2024-11-15T18:18:28.000Z</time>
      </trkpt>
      <trkpt lat="45.85463" lon="3.55579">
        <ele>462.39999389648</ele>
        <time>2024-11-15T18:18:29.000Z</time>
      </trkpt>
      <trkpt lat="45.85461" lon="3.5558">
        <ele>462.60000610352</ele>
        <time>2024-11-15T18:18:30.000Z</time>
      </trkpt>
      <trkpt lat="45.85459" lon="3.55582">
        <ele>463</ele>
        <time>2024-11-15T18:18:31.000Z</time>
      </trkpt>
      <trkpt lat="45.85457" lon="3.55583">
        <ele>463.20001220703</ele>
        <time>2024-11-15T18:18:32.000Z</time>
      </trkpt>
      <trkpt lat="45.85455" lon="3.55584">
        <ele>463.20001220703</ele>
        <time>2024-11-15T18:18:33.000Z</time>
      </trkpt>
      <trkpt lat="45.85453" lon="3.55585">
        <ele>463.39999389648</ele>
        <time>2024-11-15T18:18:34.000Z</time>
      </trkpt>
      <trkpt lat="45.85451" lon="3.55586">
        <ele>463.60000610352</ele>
        <time>2024-11-15T18:18:35.000Z</time>
      </trkpt>
      <trkpt lat="45.85449" lon="3.55587">
        <ele>463.79998779297</ele>
        <time>2024-11-15T18:18:36.000Z</time>
      </trkpt>
      <trkpt lat="45.85447" lon="3.55588">
        <ele>463.79998779297</ele>
        <time>2024-11-15T18:18:37.000Z</time>
      </trkpt>
      <trkpt lat="45.85445" lon="3.55589">
        <ele>464</ele>
        <time>2024-11-15T18:18:38.000Z</time>
      </trkpt>
      <trkpt lat="45.85443" lon="3.5559">
        <ele>464.20001220703</ele>
        <time>2024-11-15T18:18:39.000Z</time>
      </trkpt>
      <trkpt lat="45.85441" lon="3.55591">
        <ele>464.60000610352</ele>
        <time>2024-11-15T18:18:40.000Z</time>
      </trkpt>
      <trkpt lat="45.85438" lon="3.55592">
        <ele>465</ele>
        <time>2024-11-15T18:18:41.000Z</time>
      </trkpt>
      <trkpt lat="45.85436" lon="3.55593">
        <ele>465.39999389648</ele>
        <time>2024-11-15T18:18:42.000Z</time>
      </trkpt>
      <trkpt lat="45.85434" lon="3.55594">
        <ele>465.39999389648</ele>
        <time>2024-11-15T18:18:43.000Z</time>
      </trkpt>
      <trkpt lat="45.85432" lon="3.55595">
        <ele>465.60000610352</ele>
        <time>2024-11-15T18:18:44.000Z</time>
      </trkpt>
      <trkpt lat="45.85431" lon="3.55596">
        <ele>465.60000610352</ele>
        <time>2024-11-15T18:18:45.000Z</time>
      </trkpt>
      <trkpt lat="45.85429" lon="3.55598">
        <ele>465.79998779297</ele>
        <time>2024-11-15T18:18:46.000Z</time>
      </trkpt>
      <trkpt lat="45.85427" lon="3.55599">
        <ele>465.79998779297</ele>
        <time>2024-11-15T18:18:47.000Z</time>
      </trkpt>
      <trkpt lat="45.85425" lon="3.55601">
        <ele>466</ele>
        <time>2024-11-15T18:18:48.000Z</time>
      </trkpt>
      <trkpt lat="45.85423" lon="3.55602">
        <ele>466.20001220703</ele>
        <time>2024-11-15T18:18:49.000Z</time>
      </trkpt>
      <trkpt lat="45.85421" lon="3.55604">
        <ele>466.39999389648</ele>
        <time>2024-11-15T18:18:50.000Z</time>
      </trkpt>
      <trkpt lat="45.85419" lon="3.55606">
        <ele>466.60000610352</ele>
        <time>2024-11-15T18:18:51.000Z</time>
      </trkpt>
      <trkpt lat="45.85418" lon="3.55607">
        <ele>466.60000610352</ele>
        <time>2024-11-15T18:18:52.000Z</time>
      </trkpt>
      <trkpt lat="45.85416" lon="3.55609">
        <ele>466.79998779297</ele>
        <time>2024-11-15T18:18:53.000Z</time>
      </trkpt>
      <trkpt lat="45.85414" lon="3.5561">
        <ele>466.79998779297</ele>
        <time>2024-11-15T18:18:54.000Z</time>
      </trkpt>
      <trkpt lat="45.85412" lon="3.55612">
        <ele>467.20001220703</ele>
        <time>2024-11-15T18:18:55.000Z</time>
      </trkpt>
      <trkpt lat="45.85411" lon="3.55614">
        <ele>467.20001220703</ele>
        <time>2024-11-15T18:18:56.000Z</time>
      </trkpt>
      <trkpt lat="45.85409" lon="3.55615">
        <ele>467.39999389648</ele>
        <time>2024-11-15T18:18:57.000Z</time>
      </trkpt>
      <trkpt lat="45.85407" lon="3.55617">
        <ele>467.60000610352</ele>
        <time>2024-11-15T18:18:58.000Z</time>
      </trkpt>
      <trkpt lat="45.85406" lon="3.55618">
        <ele>467.60000610352</ele>
        <time>2024-11-15T18:18:59.000Z</time>
      </trkpt>
      <trkpt lat="45.85404" lon="3.5562">
        <ele>467.60000610352</ele>
        <time>2024-11-15T18:19:00.000Z</time>
      </trkpt>
      <trkpt lat="45.85402" lon="3.55622">
        <ele>467.79998779297</ele>
        <time>2024-11-15T18:19:01.000Z</time>
      </trkpt>
      <trkpt lat="45.85401" lon="3.55624">
        <ele>468.20001220703</ele>
        <time>2024-11-15T18:19:02.000Z</time>
      </trkpt>
      <trkpt lat="45.85399" lon="3.55625">
        <ele>468.39999389648</ele>
        <time>2024-11-15T18:19:03.000Z</time>
      </trkpt>
      <trkpt lat="45.85397" lon="3.55627">
        <ele>468.60000610352</ele>
        <time>2024-11-15T18:19:04.000Z</time>
      </trkpt>
      <trkpt lat="45.85395" lon="3.55629">
        <ele>468.79998779297</ele>
        <time>2024-11-15T18:19:05.000Z</time>
      </trkpt>
      <trkpt lat="45.85394" lon="3.55631">
        <ele>468.79998779297</ele>
        <time>2024-11-15T18:19:06.000Z</time>
      </trkpt>
      <trkpt lat="45.85392" lon="3.55633">
        <ele>469</ele>
        <time>2024-11-15T18:19:07.000Z</time>
      </trkpt>
      <trkpt lat="45.8539" lon="3.55635">
        <ele>469</ele>
        <time>2024-11-15T18:19:08.000Z</time>
      </trkpt>
      <trkpt lat="45.85389" lon="3.55636">
        <ele>469</ele>
        <time>2024-11-15T18:19:09.000Z</time>
      </trkpt>
      <trkpt lat="45.85387" lon="3.55638">
        <ele>469.20001220703</ele>
        <time>2024-11-15T18:19:10.000Z</time>
      </trkpt>
      <trkpt lat="45.85386" lon="3.55639">
        <ele>469.20001220703</ele>
        <time>2024-11-15T18:19:11.000Z</time>
      </trkpt>
      <trkpt lat="45.85384" lon="3.55641">
        <ele>469.20001220703</ele>
        <time>2024-11-15T18:19:12.000Z</time>
      </trkpt>
      <trkpt lat="45.85382" lon="3.55642">
        <ele>469.20001220703</ele>
        <time>2024-11-15T18:19:13.000Z</time>
      </trkpt>
      <trkpt lat="45.85381" lon="3.55644">
        <ele>469.20001220703</ele>
        <time>2024-11-15T18:19:14.000Z</time>
      </trkpt>
      <trkpt lat="45.85379" lon="3.55645">
        <ele>469.20001220703</ele>
        <time>2024-11-15T18:19:15.000Z</time>
      </trkpt>
      <trkpt lat="45.85377" lon="3.55646">
        <ele>469.20001220703</ele>
        <time>2024-11-15T18:19:16.000Z</time>
      </trkpt>
      <trkpt lat="45.85376" lon="3.55648">
        <ele>469.39999389648</ele>
        <time>2024-11-15T18:19:17.000Z</time>
      </trkpt>
      <trkpt lat="45.85374" lon="3.55649">
        <ele>469.39999389648</ele>
        <time>2024-11-15T18:19:18.000Z</time>
      </trkpt>
      <trkpt lat="45.85372" lon="3.55651">
        <ele>469.60000610352</ele>
        <time>2024-11-15T18:19:19.000Z</time>
      </trkpt>
      <trkpt lat="45.85371" lon="3.55652">
        <ele>469.60000610352</ele>
        <time>2024-11-15T18:19:20.000Z</time>
      </trkpt>
      <trkpt lat="45.85369" lon="3.55654">
        <ele>469.79998779297</ele>
        <time>2024-11-15T18:19:21.000Z</time>
      </trkpt>
      <trkpt lat="45.85367" lon="3.55655">
        <ele>469.79998779297</ele>
        <time>2024-11-15T18:19:22.000Z</time>
      </trkpt>
      <trkpt lat="45.85366" lon="3.55656">
        <ele>469.79998779297</ele>
        <time>2024-11-15T18:19:23.000Z</time>
      </trkpt>
      <trkpt lat="45.85364" lon="3.55658">
        <ele>470</ele>
        <time>2024-11-15T18:19:24.000Z</time>
      </trkpt>
      <trkpt lat="45.85363" lon="3.55659">
        <ele>470</ele>
        <time>2024-11-15T18:19:25.000Z</time>
      </trkpt>
      <trkpt lat="45.85361" lon="3.55661">
        <ele>470.20001220703</ele>
        <time>2024-11-15T18:19:26.000Z</time>
      </trkpt>
      <trkpt lat="45.8536" lon="3.55662">
        <ele>470.20001220703</ele>
        <time>2024-11-15T18:19:27.000Z</time>
      </trkpt>
      <trkpt lat="45.85358" lon="3.55664">
        <ele>470.39999389648</ele>
        <time>2024-11-15T18:19:28.000Z</time>
      </trkpt>
      <trkpt lat="45.85357" lon="3.55665">
        <ele>470.60000610352</ele>
        <time>2024-11-15T18:19:29.000Z</time>
      </trkpt>
      <trkpt lat="45.85355" lon="3.55667">
        <ele>470.60000610352</ele>
        <time>2024-11-15T18:19:30.000Z</time>
      </trkpt>
      <trkpt lat="45.85354" lon="3.55668">
        <ele>470.79998779297</ele>
        <time>2024-11-15T18:19:31.000Z</time>
      </trkpt>
      <trkpt lat="45.85352" lon="3.55669">
        <ele>471</ele>
        <time>2024-11-15T18:19:32.000Z</time>
      </trkpt>
      <trkpt lat="45.85351" lon="3.55671">
        <ele>471.20001220703</ele>
        <time>2024-11-15T18:19:33.000Z</time>
      </trkpt>
      <trkpt lat="45.85349" lon="3.55672">
        <ele>471.39999389648</ele>
        <time>2024-11-15T18:19:34.000Z</time>
      </trkpt>
      <trkpt lat="45.85348" lon="3.55673">
        <ele>471.60000610352</ele>
        <time>2024-11-15T18:19:35.000Z</time>
      </trkpt>
      <trkpt lat="45.85347" lon="3.55675">
        <ele>471.60000610352</ele>
        <time>2024-11-15T18:19:36.000Z</time>
      </trkpt>
      <trkpt lat="45.85345" lon="3.55676">
        <ele>471.79998779297</ele>
        <time>2024-11-15T18:19:37.000Z</time>
      </trkpt>
      <trkpt lat="45.85344" lon="3.55678">
        <ele>472</ele>
        <time>2024-11-15T18:19:38.000Z</time>
      </trkpt>
      <trkpt lat="45.85342" lon="3.55679">
        <ele>472.20001220703</ele>
        <time>2024-11-15T18:19:39.000Z</time>
      </trkpt>
      <trkpt lat="45.85341" lon="3.5568">
        <ele>472.20001220703</ele>
        <time>2024-11-15T18:19:40.000Z</time>
      </trkpt>
      <trkpt lat="45.8534" lon="3.55682">
        <ele>472.39999389648</ele>
        <time>2024-11-15T18:19:41.000Z</time>
      </trkpt>
      <trkpt lat="45.85338" lon="3.55683">
        <ele>472.60000610352</ele>
        <time>2024-11-15T18:19:42.000Z</time>
      </trkpt>
      <trkpt lat="45.85337" lon="3.55685">
        <ele>473</ele>
        <time>2024-11-15T18:19:43.000Z</time>
      </trkpt>
      <trkpt lat="45.85335" lon="3.55686">
        <ele>473.39999389648</ele>
        <time>2024-11-15T18:19:44.000Z</time>
      </trkpt>
      <trkpt lat="45.85334" lon="3.55687">
        <ele>473.60000610352</ele>
        <time>2024-11-15T18:19:45.000Z</time>
      </trkpt>
      <trkpt lat="45.85333" lon="3.55689">
        <ele>473.60000610352</ele>
        <time>2024-11-15T18:19:46.000Z</time>
      </trkpt>
      <trkpt lat="45.85332" lon="3.5569">
        <ele>473.79998779297</ele>
        <time>2024-11-15T18:19:47.000Z</time>
      </trkpt>
      <trkpt lat="45.8533" lon="3.55692">
        <ele>473.79998779297</ele>
        <time>2024-11-15T18:19:48.000Z</time>
      </trkpt>
      <trkpt lat="45.85329" lon="3.55693">
        <ele>474</ele>
        <time>2024-11-15T18:19:49.000Z</time>
      </trkpt>
      <trkpt lat="45.85328" lon="3.55695">
        <ele>474</ele>
        <time>2024-11-15T18:19:50.000Z</time>
      </trkpt>
      <trkpt lat="45.85327" lon="3.55696">
        <ele>474.20001220703</ele>
        <time>2024-11-15T18:19:51.000Z</time>
      </trkpt>
      <trkpt lat="45.85326" lon="3.55698">
        <ele>474.60000610352</ele>
        <time>2024-11-15T18:19:52.000Z</time>
      </trkpt>
      <trkpt lat="45.85324" lon="3.55699">
        <ele>475</ele>
        <time>2024-11-15T18:19:53.000Z</time>
      </trkpt>
      <trkpt lat="45.85323" lon="3.55701">
        <ele>475.20001220703</ele>
        <time>2024-11-15T18:19:54.000Z</time>
      </trkpt>
      <trkpt lat="45.85322" lon="3.55702">
        <ele>475.39999389648</ele>
        <time>2024-11-15T18:19:55.000Z</time>
      </trkpt>
      <trkpt lat="45.85321" lon="3.55704">
        <ele>475.60000610352</ele>
        <time>2024-11-15T18:19:56.000Z</time>
      </trkpt>
      <trkpt lat="45.8532" lon="3.55706">
        <ele>475.79998779297</ele>
        <time>2024-11-15T18:19:57.000Z</time>
      </trkpt>
      <trkpt lat="45.85319" lon="3.55707">
        <ele>476.20001220703</ele>
        <time>2024-11-15T18:19:58.000Z</time>
      </trkpt>
      <trkpt lat="45.85318" lon="3.55709">
        <ele>476.39999389648</ele>
        <time>2024-11-15T18:19:59.000Z</time>
      </trkpt>
      <trkpt lat="45.85317" lon="3.55711">
        <ele>476.60000610352</ele>
        <time>2024-11-15T18:20:00.000Z</time>
      </trkpt>
      <trkpt lat="45.85316" lon="3.55713">
        <ele>476.79998779297</ele>
        <time>2024-11-15T18:20:01.000Z</time>
      </trkpt>
      <trkpt lat="45.85316" lon="3.55714">
        <ele>477</ele>
        <time>2024-11-15T18:20:02.000Z</time>
      </trkpt>
      <trkpt lat="45.85316" lon="3.55716">
        <ele>477.39999389648</ele>
        <time>2024-11-15T18:20:03.000Z</time>
      </trkpt>
      <trkpt lat="45.85316" lon="3.55717">
        <ele>477.39999389648</ele>
        <time>2024-11-15T18:20:04.000Z</time>
      </trkpt>
      <trkpt lat="45.85316" lon="3.55718">
        <ele>477.60000610352</ele>
        <time>2024-11-15T18:20:05.000Z</time>
      </trkpt>
      <trkpt lat="45.85316" lon="3.5572">
        <ele>478.39999389648</ele>
        <time>2024-11-15T18:20:06.000Z</time>
      </trkpt>
      <trkpt lat="45.85316" lon="3.55721">
        <ele>478.79998779297</ele>
        <time>2024-11-15T18:20:07.000Z</time>
      </trkpt>
      <trkpt lat="45.85315" lon="3.55723">
        <ele>479</ele>
        <time>2024-11-15T18:20:08.000Z</time>
      </trkpt>
      <trkpt lat="45.85315" lon="3.55724">
        <ele>479.20001220703</ele>
        <time>2024-11-15T18:20:09.000Z</time>
      </trkpt>
      <trkpt lat="45.85315" lon="3.55725">
        <ele>479.39999389648</ele>
        <time>2024-11-15T18:20:10.000Z</time>
      </trkpt>
      <trkpt lat="45.85314" lon="3.55726">
        <ele>479.60000610352</ele>
        <time>2024-11-15T18:20:11.000Z</time>
      </trkpt>
      <trkpt lat="45.85314" lon="3.55727">
        <ele>479.79998779297</ele>
        <time>2024-11-15T18:20:12.000Z</time>
      </trkpt>
      <trkpt lat="45.85314" lon="3.55728">
        <ele>479.79998779297</ele>
        <time>2024-11-15T18:20:13.000Z</time>
      </trkpt>
      <trkpt lat="45.85313" lon="3.55728">
        <ele>480</ele>
        <time>2024-11-15T18:20:14.000Z</time>
      </trkpt>
      <trkpt lat="45.85312" lon="3.55729">
        <ele>480</ele>
        <time>2024-11-15T18:20:15.000Z</time>
      </trkpt>
      <trkpt lat="45.85311" lon="3.55729">
        <ele>480</ele>
        <time>2024-11-15T18:20:16.000Z</time>
      </trkpt>
      <trkpt lat="45.8531" lon="3.5573">
        <ele>480.20001220703</ele>
        <time>2024-11-15T18:20:17.000Z</time>
      </trkpt>
      <trkpt lat="45.8531" lon="3.5573">
        <ele>480.39999389648</ele>
        <time>2024-11-15T18:20:18.000Z</time>
      </trkpt>
      <trkpt lat="45.85309" lon="3.5573">
        <ele>480.60000610352</ele>
        <time>2024-11-15T18:20:19.000Z</time>
      </trkpt>
      <trkpt lat="45.85309" lon="3.5573">
        <ele>481.20001220703</ele>
        <time>2024-11-15T18:20:20.000Z</time>
      </trkpt>
      <trkpt lat="45.85309" lon="3.55731">
        <ele>481.39999389648</ele>
        <time>2024-11-15T18:20:21.000Z</time>
      </trkpt>
      <trkpt lat="45.85309" lon="3.55731">
        <ele>481.39999389648</ele>
        <time>2024-11-15T18:20:22.000Z</time>
      </trkpt>
      <trkpt lat="45.85309" lon="3.55731">
        <ele>481.39999389648</ele>
        <time>2024-11-15T18:20:23.000Z</time>
      </trkpt>
      <trkpt lat="45.85308" lon="3.55733">
        <ele>481.60000610352</ele>
        <time>2024-11-15T18:20:24.000Z</time>
      </trkpt>
      <trkpt lat="45.85308" lon="3.55734">
        <ele>481.60000610352</ele>
        <time>2024-11-15T18:20:25.000Z</time>
      </trkpt>
      <trkpt lat="45.85307" lon="3.55735">
        <ele>481.60000610352</ele>
        <time>2024-11-15T18:20:26.000Z</time>
      </trkpt>
      <trkpt lat="45.85307" lon="3.55736">
        <ele>481.60000610352</ele>
        <time>2024-11-15T18:20:27.000Z</time>
      </trkpt>
      <trkpt lat="45.85306" lon="3.55738">
        <ele>481.79998779297</ele>
        <time>2024-11-15T18:20:28.000Z</time>
      </trkpt>
      <trkpt lat="45.85306" lon="3.55739">
        <ele>482</ele>
        <time>2024-11-15T18:20:29.000Z</time>
      </trkpt>
      <trkpt lat="45.85305" lon="3.55741">
        <ele>482.20001220703</ele>
        <time>2024-11-15T18:20:30.000Z</time>
      </trkpt>
      <trkpt lat="45.85305" lon="3.55742">
        <ele>482.39999389648</ele>
        <time>2024-11-15T18:20:31.000Z</time>
      </trkpt>
      <trkpt lat="45.85304" lon="3.55743">
        <ele>482.39999389648</ele>
        <time>2024-11-15T18:20:32.000Z</time>
      </trkpt>
      <trkpt lat="45.85303" lon="3.55744">
        <ele>482.79998779297</ele>
        <time>2024-11-15T18:20:33.000Z</time>
      </trkpt>
      <trkpt lat="45.85303" lon="3.55745">
        <ele>483</ele>
        <time>2024-11-15T18:20:34.000Z</time>
      </trkpt>
      <trkpt lat="45.85302" lon="3.55746">
        <ele>483.39999389648</ele>
        <time>2024-11-15T18:20:35.000Z</time>
      </trkpt>
      <trkpt lat="45.85302" lon="3.55747">
        <ele>483.60000610352</ele>
        <time>2024-11-15T18:20:36.000Z</time>
      </trkpt>
      <trkpt lat="45.85301" lon="3.55748">
        <ele>483.79998779297</ele>
        <time>2024-11-15T18:20:37.000Z</time>
      </trkpt>
      <trkpt lat="45.853" lon="3.55749">
        <ele>484</ele>
        <time>2024-11-15T18:20:38.000Z</time>
      </trkpt>
      <trkpt lat="45.853" lon="3.5575">
        <ele>484.39999389648</ele>
        <time>2024-11-15T18:20:39.000Z</time>
      </trkpt>
      <trkpt lat="45.85299" lon="3.55751">
        <ele>484.60000610352</ele>
        <time>2024-11-15T18:20:40.000Z</time>
      </trkpt>
      <trkpt lat="45.85298" lon="3.55752">
        <ele>484.79998779297</ele>
        <time>2024-11-15T18:20:41.000Z</time>
      </trkpt>
      <trkpt lat="45.85298" lon="3.55753">
        <ele>485</ele>
        <time>2024-11-15T18:20:42.000Z</time>
      </trkpt>
      <trkpt lat="45.85297" lon="3.55755">
        <ele>485.20001220703</ele>
        <time>2024-11-15T18:20:43.000Z</time>
      </trkpt>
      <trkpt lat="45.85297" lon="3.55756">
        <ele>485.39999389648</ele>
        <time>2024-11-15T18:20:44.000Z</time>
      </trkpt>
      <trkpt lat="45.85296" lon="3.55757">
        <ele>485.60000610352</ele>
        <time>2024-11-15T18:20:45.000Z</time>
      </trkpt>
      <trkpt lat="45.85296" lon="3.55757">
        <ele>485.79998779297</ele>
        <time>2024-11-15T18:20:46.000Z</time>
      </trkpt>
      <trkpt lat="45.85295" lon="3.55758">
        <ele>486</ele>
        <time>2024-11-15T18:20:47.000Z</time>
      </trkpt>
      <trkpt lat="45.85295" lon="3.55759">
        <ele>486.20001220703</ele>
        <time>2024-11-15T18:20:48.000Z</time>
      </trkpt>
      <trkpt lat="45.85294" lon="3.55759">
        <ele>486.39999389648</ele>
        <time>2024-11-15T18:20:49.000Z</time>
      </trkpt>
      <trkpt lat="45.85294" lon="3.5576">
        <ele>486.79998779297</ele>
        <time>2024-11-15T18:20:50.000Z</time>
      </trkpt>
      <trkpt lat="45.85293" lon="3.55761">
        <ele>486.79998779297</ele>
        <time>2024-11-15T18:20:51.000Z</time>
      </trkpt>
      <trkpt lat="45.85293" lon="3.55761">
        <ele>487</ele>
        <time>2024-11-15T18:20:52.000Z</time>
      </trkpt>
      <trkpt lat="45.85292" lon="3.55762">
        <ele>487.20001220703</ele>
        <time>2024-11-15T18:20:53.000Z</time>
      </trkpt>
      <trkpt lat="45.85292" lon="3.55763">
        <ele>487.39999389648</ele>
        <time>2024-11-15T18:20:54.000Z</time>
      </trkpt>
      <trkpt lat="45.85292" lon="3.55764">
        <ele>487.60000610352</ele>
        <time>2024-11-15T18:20:55.000Z</time>
      </trkpt>
      <trkpt lat="45.85292" lon="3.55765">
        <ele>488</ele>
        <time>2024-11-15T18:20:56.000Z</time>
      </trkpt>
      <trkpt lat="45.85292" lon="3.55766">
        <ele>488.60000610352</ele>
        <time>2024-11-15T18:20:57.000Z</time>
      </trkpt>
      <trkpt lat="45.85292" lon="3.55767">
        <ele>489</ele>
        <time>2024-11-15T18:20:58.000Z</time>
      </trkpt>
      <trkpt lat="45.85291" lon="3.55768">
        <ele>489.20001220703</ele>
        <time>2024-11-15T18:20:59.000Z</time>
      </trkpt>
      <trkpt lat="45.85291" lon="3.55769">
        <ele>489.39999389648</ele>
        <time>2024-11-15T18:21:00.000Z</time>
      </trkpt>
      <trkpt lat="45.85291" lon="3.5577">
        <ele>489.60000610352</ele>
        <time>2024-11-15T18:21:01.000Z</time>
      </trkpt>
      <trkpt lat="45.8529" lon="3.5577">
        <ele>490</ele>
        <time>2024-11-15T18:21:02.000Z</time>
      </trkpt>
      <trkpt lat="45.8529" lon="3.55771">
        <ele>490.20001220703</ele>
        <time>2024-11-15T18:21:03.000Z</time>
      </trkpt>
      <trkpt lat="45.85289" lon="3.55772">
        <ele>490.39999389648</ele>
        <time>2024-11-15T18:21:04.000Z</time>
      </trkpt>
      <trkpt lat="45.85289" lon="3.55773">
        <ele>490.60000610352</ele>
        <time>2024-11-15T18:21:05.000Z</time>
      </trkpt>
      <trkpt lat="45.85288" lon="3.55774">
        <ele>490.79998779297</ele>
        <time>2024-11-15T18:21:06.000Z</time>
      </trkpt>
      <trkpt lat="45.85288" lon="3.55775">
        <ele>491</ele>
        <time>2024-11-15T18:21:07.000Z</time>
      </trkpt>
      <trkpt lat="45.85287" lon="3.55776">
        <ele>491.39999389648</ele>
        <time>2024-11-15T18:21:08.000Z</time>
      </trkpt>
      <trkpt lat="45.85287" lon="3.55777">
        <ele>491.60000610352</ele>
        <time>2024-11-15T18:21:09.000Z</time>
      </trkpt>
      <trkpt lat="45.85287" lon="3.55778">
        <ele>491.79998779297</ele>
        <time>2024-11-15T18:21:10.000Z</time>
      </trkpt>
      <trkpt lat="45.85286" lon="3.55778">
        <ele>492.20001220703</ele>
        <time>2024-11-15T18:21:11.000Z</time>
      </trkpt>
      <trkpt lat="45.85286" lon="3.55779">
        <ele>492.60000610352</ele>
        <time>2024-11-15T18:21:12.000Z</time>
      </trkpt>
      <trkpt lat="45.85285" lon="3.5578">
        <ele>492.79998779297</ele>
        <time>2024-11-15T18:21:13.000Z</time>
      </trkpt>
      <trkpt lat="45.85285" lon="3.55781">
        <ele>493.20001220703</ele>
        <time>2024-11-15T18:21:14.000Z</time>
      </trkpt>
      <trkpt lat="45.85285" lon="3.55782">
        <ele>493.39999389648</ele>
        <time>2024-11-15T18:21:15.000Z</time>
      </trkpt>
      <trkpt lat="45.85285" lon="3.55783">
        <ele>493.60000610352</ele>
        <time>2024-11-15T18:21:16.000Z</time>
      </trkpt>
      <trkpt lat="45.85284" lon="3.55784">
        <ele>494</ele>
        <time>2024-11-15T18:21:17.000Z</time>
      </trkpt>
      <trkpt lat="45.85284" lon="3.55785">
        <ele>494.39999389648</ele>
        <time>2024-11-15T18:21:18.000Z</time>
      </trkpt>
      <trkpt lat="45.85284" lon="3.55786">
        <ele>494.39999389648</ele>
        <time>2024-11-15T18:21:19.000Z</time>
      </trkpt>
      <trkpt lat="45.85284" lon="3.55787">
        <ele>494.79998779297</ele>
        <time>2024-11-15T18:21:20.000Z</time>
      </trkpt>
      <trkpt lat="45.85283" lon="3.55788">
        <ele>495</ele>
        <time>2024-11-15T18:21:21.000Z</time>
      </trkpt>
      <trkpt lat="45.85283" lon="3.55789">
        <ele>495.20001220703</ele>
        <time>2024-11-15T18:21:22.000Z</time>
      </trkpt>
      <trkpt lat="45.85283" lon="3.55789">
        <ele>495.39999389648</ele>
        <time>2024-11-15T18:21:23.000Z</time>
      </trkpt>
      <trkpt lat="45.85283" lon="3.5579">
        <ele>495.39999389648</ele>
        <time>2024-11-15T18:21:24.000Z</time>
      </trkpt>
      <trkpt lat="45.85282" lon="3.55791">
        <ele>495.60000610352</ele>
        <time>2024-11-15T18:21:25.000Z</time>
      </trkpt>
      <trkpt lat="45.85282" lon="3.55792">
        <ele>496</ele>
        <time>2024-11-15T18:21:26.000Z</time>
      </trkpt>
      <trkpt lat="45.85282" lon="3.55793">
        <ele>496.20001220703</ele>
        <time>2024-11-15T18:21:27.000Z</time>
      </trkpt>
      <trkpt lat="45.85282" lon="3.55793">
        <ele>496.39999389648</ele>
        <time>2024-11-15T18:21:28.000Z</time>
      </trkpt>
      <trkpt lat="45.85282" lon="3.55794">
        <ele>496.60000610352</ele>
        <time>2024-11-15T18:21:29.000Z</time>
      </trkpt>
      <trkpt lat="45.85282" lon="3.55794">
        <ele>496.79998779297</ele>
        <time>2024-11-15T18:21:30.000Z</time>
      </trkpt>
      <trkpt lat="45.85281" lon="3.55795">
        <ele>497</ele>
        <time>2024-11-15T18:21:31.000Z</time>
      </trkpt>
      <trkpt lat="45.85281" lon="3.55796">
        <ele>497.20001220703</ele>
        <time>2024-11-15T18:21:32.000Z</time>
      </trkpt>
      <trkpt lat="45.85281" lon="3.55797">
        <ele>497.39999389648</ele>
        <time>2024-11-15T18:21:33.000Z</time>
      </trkpt>
      <trkpt lat="45.8528" lon="3.55798">
        <ele>497.60000610352</ele>
        <time>2024-11-15T18:21:34.000Z</time>
      </trkpt>
      <trkpt lat="45.8528" lon="3.55799">
        <ele>498.20001220703</ele>
        <time>2024-11-15T18:21:35.000Z</time>
      </trkpt>
      <trkpt lat="45.8528" lon="3.558">
        <ele>498.39999389648</ele>
        <time>2024-11-15T18:21:36.000Z</time>
      </trkpt>
      <trkpt lat="45.8528" lon="3.55802">
        <ele>498.79998779297</ele>
        <time>2024-11-15T18:21:37.000Z</time>
      </trkpt>
      <trkpt lat="45.85279" lon="3.55803">
        <ele>499</ele>
        <time>2024-11-15T18:21:38.000Z</time>
      </trkpt>
      <trkpt lat="45.85279" lon="3.55804">
        <ele>499.20001220703</ele>
        <time>2024-11-15T18:21:39.000Z</time>
      </trkpt>
      <trkpt lat="45.85279" lon="3.55805">
        <ele>499.39999389648</ele>
        <time>2024-11-15T18:21:40.000Z</time>
      </trkpt>
      <trkpt lat="45.85278" lon="3.55806">
        <ele>499.60000610352</ele>
        <time>2024-11-15T18:21:41.000Z</time>
      </trkpt>
      <trkpt lat="45.85278" lon="3.55807">
        <ele>500</ele>
        <time>2024-11-15T18:21:42.000Z</time>
      </trkpt>
      <trkpt lat="45.85277" lon="3.55808">
        <ele>500.20001220703</ele>
        <time>2024-11-15T18:21:43.000Z</time>
      </trkpt>
      <trkpt lat="45.85277" lon="3.55808">
        <ele>500.20001220703</ele>
        <time>2024-11-15T18:21:44.000Z</time>
      </trkpt>
      <trkpt lat="45.85276" lon="3.55808">
        <ele>500.39999389648</ele>
        <time>2024-11-15T18:21:45.000Z</time>
      </trkpt>
      <trkpt lat="45.85276" lon="3.55807">
        <ele>501</ele>
        <time>2024-11-15T18:21:46.000Z</time>
      </trkpt>
      <trkpt lat="45.85276" lon="3.55807">
        <ele>501.60000610352</ele>
        <time>2024-11-15T18:21:47.000Z</time>
      </trkpt>
      <trkpt lat="45.85275" lon="3.55806">
        <ele>502</ele>
        <time>2024-11-15T18:21:48.000Z</time>
      </trkpt>
      <trkpt lat="45.85275" lon="3.55805">
        <ele>502</ele>
        <time>2024-11-15T18:21:49.000Z</time>
      </trkpt>
      <trkpt lat="45.85274" lon="3.55804">
        <ele>502.20001220703</ele>
        <time>2024-11-15T18:21:50.000Z</time>
      </trkpt>
      <trkpt lat="45.85274" lon="3.55802">
        <ele>502.20001220703</ele>
        <time>2024-11-15T18:21:51.000Z</time>
      </trkpt>
      <trkpt lat="45.85273" lon="3.55801">
        <ele>502.39999389648</ele>
        <time>2024-11-15T18:21:52.000Z</time>
      </trkpt>
      <trkpt lat="45.85273" lon="3.55799">
        <ele>502.79998779297</ele>
        <time>2024-11-15T18:21:53.000Z</time>
      </trkpt>
      <trkpt lat="45.85272" lon="3.55797">
        <ele>503</ele>
        <time>2024-11-15T18:21:54.000Z</time>
      </trkpt>
      <trkpt lat="45.85272" lon="3.55795">
        <ele>503.20001220703</ele>
        <time>2024-11-15T18:21:55.000Z</time>
      </trkpt>
      <trkpt lat="45.85271" lon="3.55793">
        <ele>503.39999389648</ele>
        <time>2024-11-15T18:21:56.000Z</time>
      </trkpt>
      <trkpt lat="45.85271" lon="3.55791">
        <ele>503.79998779297</ele>
        <time>2024-11-15T18:21:57.000Z</time>
      </trkpt>
      <trkpt lat="45.8527" lon="3.5579">
        <ele>504</ele>
        <time>2024-11-15T18:21:58.000Z</time>
      </trkpt>
      <trkpt lat="45.8527" lon="3.55788">
        <ele>504.20001220703</ele>
        <time>2024-11-15T18:21:59.000Z</time>
      </trkpt>
      <trkpt lat="45.8527" lon="3.55786">
        <ele>504.39999389648</ele>
        <time>2024-11-15T18:22:00.000Z</time>
      </trkpt>
      <trkpt lat="45.85269" lon="3.55785">
        <ele>504.79998779297</ele>
        <time>2024-11-15T18:22:01.000Z</time>
      </trkpt>
      <trkpt lat="45.85269" lon="3.55784">
        <ele>504.79998779297</ele>
        <time>2024-11-15T18:22:02.000Z</time>
      </trkpt>
      <trkpt lat="45.85269" lon="3.55782">
        <ele>505</ele>
        <time>2024-11-15T18:22:03.000Z</time>
      </trkpt>
      <trkpt lat="45.85268" lon="3.5578">
        <ele>505.20001220703</ele>
        <time>2024-11-15T18:22:04.000Z</time>
      </trkpt>
      <trkpt lat="45.85268" lon="3.55779">
        <ele>505.39999389648</ele>
        <time>2024-11-15T18:22:05.000Z</time>
      </trkpt>
      <trkpt lat="45.85268" lon="3.55777">
        <ele>505.60000610352</ele>
        <time>2024-11-15T18:22:06.000Z</time>
      </trkpt>
      <trkpt lat="45.85267" lon="3.55775">
        <ele>505.60000610352</ele>
        <time>2024-11-15T18:22:07.000Z</time>
      </trkpt>
      <trkpt lat="45.85267" lon="3.55773">
        <ele>506</ele>
        <time>2024-11-15T18:22:08.000Z</time>
      </trkpt>
      <trkpt lat="45.85267" lon="3.55771">
        <ele>506.20001220703</ele>
        <time>2024-11-15T18:22:09.000Z</time>
      </trkpt>
      <trkpt lat="45.85267" lon="3.55769">
        <ele>506.60000610352</ele>
        <time>2024-11-15T18:22:10.000Z</time>
      </trkpt>
      <trkpt lat="45.85266" lon="3.55767">
        <ele>506.79998779297</ele>
        <time>2024-11-15T18:22:11.000Z</time>
      </trkpt>
      <trkpt lat="45.85266" lon="3.55765">
        <ele>507</ele>
        <time>2024-11-15T18:22:12.000Z</time>
      </trkpt>
      <trkpt lat="45.85266" lon="3.55764">
        <ele>507.20001220703</ele>
        <time>2024-11-15T18:22:13.000Z</time>
      </trkpt>
      <trkpt lat="45.85266" lon="3.55762">
        <ele>507.39999389648</ele>
        <time>2024-11-15T18:22:14.000Z</time>
      </trkpt>
      <trkpt lat="45.85266" lon="3.5576">
        <ele>507.39999389648</ele>
        <time>2024-11-15T18:22:15.000Z</time>
      </trkpt>
      <trkpt lat="45.85266" lon="3.55758">
        <ele>507.60000610352</ele>
        <time>2024-11-15T18:22:16.000Z</time>
      </trkpt>
      <trkpt lat="45.85266" lon="3.55756">
        <ele>508</ele>
        <time>2024-11-15T18:22:17.000Z</time>
      </trkpt>
      <trkpt lat="45.85266" lon="3.55754">
        <ele>508.20001220703</ele>
        <time>2024-11-15T18:22:18.000Z</time>
      </trkpt>
      <trkpt lat="45.85265" lon="3.55751">
        <ele>508.39999389648</ele>
        <time>2024-11-15T18:22:19.000Z</time>
      </trkpt>
      <trkpt lat="45.85265" lon="3.55748">
        <ele>508.39999389648</ele>
        <time>2024-11-15T18:22:20.000Z</time>
      </trkpt>
      <trkpt lat="45.85265" lon="3.55745">
        <ele>508.60000610352</ele>
        <time>2024-11-15T18:22:21.000Z</time>
      </trkpt>
      <trkpt lat="45.85265" lon="3.55742">
        <ele>508.79998779297</ele>
        <time>2024-11-15T18:22:22.000Z</time>
      </trkpt>
      <trkpt lat="45.85264" lon="3.5574">
        <ele>509</ele>
        <time>2024-11-15T18:22:23.000Z</time>
      </trkpt>
      <trkpt lat="45.85264" lon="3.55737">
        <ele>509.39999389648</ele>
        <time>2024-11-15T18:22:24.000Z</time>
      </trkpt>
      <trkpt lat="45.85264" lon="3.55735">
        <ele>509.60000610352</ele>
        <time>2024-11-15T18:22:25.000Z</time>
      </trkpt>
      <trkpt lat="45.85264" lon="3.55732">
        <ele>510</ele>
        <time>2024-11-15T18:22:26.000Z</time>
      </trkpt>
      <trkpt lat="45.85263" lon="3.5573">
        <ele>510</ele>
        <time>2024-11-15T18:22:27.000Z</time>
      </trkpt>
      <trkpt lat="45.85263" lon="3.55727">
        <ele>510.20001220703</ele>
        <time>2024-11-15T18:22:28.000Z</time>
      </trkpt>
      <trkpt lat="45.85263" lon="3.55725">
        <ele>510.39999389648</ele>
        <time>2024-11-15T18:22:29.000Z</time>
      </trkpt>
      <trkpt lat="45.85262" lon="3.55723">
        <ele>510.39999389648</ele>
        <time>2024-11-15T18:22:30.000Z</time>
      </trkpt>
      <trkpt lat="45.8526" lon="3.55722">
        <ele>510.60000610352</ele>
        <time>2024-11-15T18:22:31.000Z</time>
      </trkpt>
      <trkpt lat="45.85259" lon="3.55721">
        <ele>511</ele>
        <time>2024-11-15T18:22:32.000Z</time>
      </trkpt>
      <trkpt lat="45.85257" lon="3.5572">
        <ele>511.20001220703</ele>
        <time>2024-11-15T18:22:33.000Z</time>
      </trkpt>
      <trkpt lat="45.85256" lon="3.5572">
        <ele>511.39999389648</ele>
        <time>2024-11-15T18:22:34.000Z</time>
      </trkpt>
      <trkpt lat="45.85254" lon="3.55721">
        <ele>512</ele>
        <time>2024-11-15T18:22:35.000Z</time>
      </trkpt>
      <trkpt lat="45.85253" lon="3.55721">
        <ele>512.20001220703</ele>
        <time>2024-11-15T18:22:36.000Z</time>
      </trkpt>
      <trkpt lat="45.85252" lon="3.55722">
        <ele>512.40002441406</ele>
        <time>2024-11-15T18:22:37.000Z</time>
      </trkpt>
      <trkpt lat="45.85252" lon="3.55724">
        <ele>512.79998779297</ele>
        <time>2024-11-15T18:22:38.000Z</time>
      </trkpt>
      <trkpt lat="45.85251" lon="3.55725">
        <ele>513</ele>
        <time>2024-11-15T18:22:39.000Z</time>
      </trkpt>
      <trkpt lat="45.8525" lon="3.55727">
        <ele>513.59997558594</ele>
        <time>2024-11-15T18:22:40.000Z</time>
      </trkpt>
      <trkpt lat="45.8525" lon="3.55729">
        <ele>513.79998779297</ele>
        <time>2024-11-15T18:22:41.000Z</time>
      </trkpt>
      <trkpt lat="45.8525" lon="3.5573">
        <ele>514</ele>
        <time>2024-11-15T18:22:42.000Z</time>
      </trkpt>
      <trkpt lat="45.8525" lon="3.55732">
        <ele>514</ele>
        <time>2024-11-15T18:22:43.000Z</time>
      </trkpt>
      <trkpt lat="45.8525" lon="3.55734">
        <ele>514.20001220703</ele>
        <time>2024-11-15T18:22:44.000Z</time>
      </trkpt>
      <trkpt lat="45.8525" lon="3.55735">
        <ele>514.59997558594</ele>
        <time>2024-11-15T18:22:45.000Z</time>
      </trkpt>
      <trkpt lat="45.8525" lon="3.55737">
        <ele>514.79998779297</ele>
        <time>2024-11-15T18:22:46.000Z</time>
      </trkpt>
      <trkpt lat="45.8525" lon="3.55739">
        <ele>515</ele>
        <time>2024-11-15T18:22:47.000Z</time>
      </trkpt>
      <trkpt lat="45.8525" lon="3.5574">
        <ele>515</ele>
        <time>2024-11-15T18:22:48.000Z</time>
      </trkpt>
      <trkpt lat="45.85251" lon="3.55742">
        <ele>515.59997558594</ele>
        <time>2024-11-15T18:22:49.000Z</time>
      </trkpt>
      <trkpt lat="45.85251" lon="3.55744">
        <ele>515.79998779297</ele>
        <time>2024-11-15T18:22:50.000Z</time>
      </trkpt>
      <trkpt lat="45.85251" lon="3.55745">
        <ele>515.79998779297</ele>
        <time>2024-11-15T18:22:51.000Z</time>
      </trkpt>
      <trkpt lat="45.85251" lon="3.55747">
        <ele>516</ele>
        <time>2024-11-15T18:22:52.000Z</time>
      </trkpt>
      <trkpt lat="45.85251" lon="3.55749">
        <ele>516.20001220703</ele>
        <time>2024-11-15T18:22:53.000Z</time>
      </trkpt>
      <trkpt lat="45.85251" lon="3.55752">
        <ele>516.20001220703</ele>
        <time>2024-11-15T18:22:54.000Z</time>
      </trkpt>
      <trkpt lat="45.85251" lon="3.55754">
        <ele>516.40002441406</ele>
        <time>2024-11-15T18:22:55.000Z</time>
      </trkpt>
      <trkpt lat="45.85251" lon="3.55757">
        <ele>516.40002441406</ele>
        <time>2024-11-15T18:22:56.000Z</time>
      </trkpt>
      <trkpt lat="45.85251" lon="3.55759">
        <ele>516.59997558594</ele>
        <time>2024-11-15T18:22:57.000Z</time>
      </trkpt>
      <trkpt lat="45.8525" lon="3.55762">
        <ele>516.59997558594</ele>
        <time>2024-11-15T18:22:58.000Z</time>
      </trkpt>
      <trkpt lat="45.8525" lon="3.55764">
        <ele>516.79998779297</ele>
        <time>2024-11-15T18:22:59.000Z</time>
      </trkpt>
      <trkpt lat="45.8525" lon="3.55767">
        <ele>517</ele>
        <time>2024-11-15T18:23:00.000Z</time>
      </trkpt>
      <trkpt lat="45.8525" lon="3.55769">
        <ele>517</ele>
        <time>2024-11-15T18:23:01.000Z</time>
      </trkpt>
      <trkpt lat="45.8525" lon="3.55772">
        <ele>517.20001220703</ele>
        <time>2024-11-15T18:23:02.000Z</time>
      </trkpt>
      <trkpt lat="45.8525" lon="3.55774">
        <ele>517.20001220703</ele>
        <time>2024-11-15T18:23:03.000Z</time>
      </trkpt>
      <trkpt lat="45.8525" lon="3.55777">
        <ele>517.20001220703</ele>
        <time>2024-11-15T18:23:04.000Z</time>
      </trkpt>
      <trkpt lat="45.8525" lon="3.5578">
        <ele>517.40002441406</ele>
        <time>2024-11-15T18:23:05.000Z</time>
      </trkpt>
      <trkpt lat="45.8525" lon="3.55782">
        <ele>517.79998779297</ele>
        <time>2024-11-15T18:23:06.000Z</time>
      </trkpt>
      <trkpt lat="45.85251" lon="3.55785">
        <ele>518</ele>
        <time>2024-11-15T18:23:07.000Z</time>
      </trkpt>
      <trkpt lat="45.85251" lon="3.55787">
        <ele>518.20001220703</ele>
        <time>2024-11-15T18:23:08.000Z</time>
      </trkpt>
      <trkpt lat="45.85251" lon="3.5579">
        <ele>518.40002441406</ele>
        <time>2024-11-15T18:23:09.000Z</time>
      </trkpt>
      <trkpt lat="45.85252" lon="3.55793">
        <ele>518.59997558594</ele>
        <time>2024-11-15T18:23:10.000Z</time>
      </trkpt>
      <trkpt lat="45.85253" lon="3.55795">
        <ele>519.20001220703</ele>
        <time>2024-11-15T18:23:11.000Z</time>
      </trkpt>
      <trkpt lat="45.85253" lon="3.55798">
        <ele>519.40002441406</ele>
        <time>2024-11-15T18:23:12.000Z</time>
      </trkpt>
      <trkpt lat="45.85254" lon="3.558">
        <ele>519.59997558594</ele>
        <time>2024-11-15T18:23:13.000Z</time>
      </trkpt>
      <trkpt lat="45.85254" lon="3.55803">
        <ele>519.79998779297</ele>
        <time>2024-11-15T18:23:14.000Z</time>
      </trkpt>
      <trkpt lat="45.85255" lon="3.55806">
        <ele>519.79998779297</ele>
        <time>2024-11-15T18:23:15.000Z</time>
      </trkpt>
      <trkpt lat="45.85256" lon="3.55808">
        <ele>520</ele>
        <time>2024-11-15T18:23:16.000Z</time>
      </trkpt>
      <trkpt lat="45.85256" lon="3.55811">
        <ele>520</ele>
        <time>2024-11-15T18:23:17.000Z</time>
      </trkpt>
      <trkpt lat="45.85257" lon="3.55814">
        <ele>520</ele>
        <time>2024-11-15T18:23:18.000Z</time>
      </trkpt>
      <trkpt lat="45.85257" lon="3.55816">
        <ele>520</ele>
        <time>2024-11-15T18:23:19.000Z</time>
      </trkpt>
      <trkpt lat="45.85258" lon="3.55819">
        <ele>520.20001220703</ele>
        <time>2024-11-15T18:23:20.000Z</time>
      </trkpt>
      <trkpt lat="45.85258" lon="3.55821">
        <ele>520.20001220703</ele>
        <time>2024-11-15T18:23:21.000Z</time>
      </trkpt>
      <trkpt lat="45.85258" lon="3.55824">
        <ele>520.40002441406</ele>
        <time>2024-11-15T18:23:22.000Z</time>
      </trkpt>
      <trkpt lat="45.85259" lon="3.55827">
        <ele>520.79998779297</ele>
        <time>2024-11-15T18:23:23.000Z</time>
      </trkpt>
      <trkpt lat="45.85259" lon="3.5583">
        <ele>521</ele>
        <time>2024-11-15T18:23:24.000Z</time>
      </trkpt>
      <trkpt lat="45.85259" lon="3.55832">
        <ele>521.20001220703</ele>
        <time>2024-11-15T18:23:25.000Z</time>
      </trkpt>
      <trkpt lat="45.85259" lon="3.55835">
        <ele>521.40002441406</ele>
        <time>2024-11-15T18:23:26.000Z</time>
      </trkpt>
      <trkpt lat="45.85259" lon="3.55838">
        <ele>521.40002441406</ele>
        <time>2024-11-15T18:23:27.000Z</time>
      </trkpt>
      <trkpt lat="45.85259" lon="3.5584">
        <ele>521.59997558594</ele>
        <time>2024-11-15T18:23:28.000Z</time>
      </trkpt>
      <trkpt lat="45.85259" lon="3.55843">
        <ele>521.59997558594</ele>
        <time>2024-11-15T18:23:29.000Z</time>
      </trkpt>
      <trkpt lat="45.85259" lon="3.55845">
        <ele>521.79998779297</ele>
        <time>2024-11-15T18:23:30.000Z</time>
      </trkpt>
      <trkpt lat="45.85259" lon="3.55848">
        <ele>522</ele>
        <time>2024-11-15T18:23:31.000Z</time>
      </trkpt>
      <trkpt lat="45.85259" lon="3.5585">
        <ele>522</ele>
        <time>2024-11-15T18:23:32.000Z</time>
      </trkpt>
      <trkpt lat="45.85259" lon="3.55852">
        <ele>522.20001220703</ele>
        <time>2024-11-15T18:23:33.000Z</time>
      </trkpt>
      <trkpt lat="45.85259" lon="3.55854">
        <ele>522.40002441406</ele>
        <time>2024-11-15T18:23:34.000Z</time>
      </trkpt>
      <trkpt lat="45.85259" lon="3.55856">
        <ele>522.40002441406</ele>
        <time>2024-11-15T18:23:35.000Z</time>
      </trkpt>
      <trkpt lat="45.85259" lon="3.55858">
        <ele>522.79998779297</ele>
        <time>2024-11-15T18:23:36.000Z</time>
      </trkpt>
      <trkpt lat="45.85259" lon="3.5586">
        <ele>523.20001220703</ele>
        <time>2024-11-15T18:23:37.000Z</time>
      </trkpt>
      <trkpt lat="45.85259" lon="3.55862">
        <ele>523.40002441406</ele>
        <time>2024-11-15T18:23:38.000Z</time>
      </trkpt>
      <trkpt lat="45.85259" lon="3.55864">
        <ele>523.79998779297</ele>
        <time>2024-11-15T18:23:39.000Z</time>
      </trkpt>
      <trkpt lat="45.85259" lon="3.55865">
        <ele>524.20001220703</ele>
        <time>2024-11-15T18:23:40.000Z</time>
      </trkpt>
      <trkpt lat="45.85258" lon="3.55867">
        <ele>524.20001220703</ele>
        <time>2024-11-15T18:23:41.000Z</time>
      </trkpt>
      <trkpt lat="45.85258" lon="3.55868">
        <ele>524.59997558594</ele>
        <time>2024-11-15T18:23:42.000Z</time>
      </trkpt>
      <trkpt lat="45.85258" lon="3.5587">
        <ele>524.79998779297</ele>
        <time>2024-11-15T18:23:43.000Z</time>
      </trkpt>
      <trkpt lat="45.85258" lon="3.55871">
        <ele>524.79998779297</ele>
        <time>2024-11-15T18:23:44.000Z</time>
      </trkpt>
      <trkpt lat="45.85258" lon="3.55873">
        <ele>525</ele>
        <time>2024-11-15T18:23:45.000Z</time>
      </trkpt>
      <trkpt lat="45.85257" lon="3.55874">
        <ele>525.20001220703</ele>
        <time>2024-11-15T18:23:46.000Z</time>
      </trkpt>
      <trkpt lat="45.85257" lon="3.55876">
        <ele>525.40002441406</ele>
        <time>2024-11-15T18:23:47.000Z</time>
      </trkpt>
      <trkpt lat="45.85257" lon="3.55877">
        <ele>525.59997558594</ele>
        <time>2024-11-15T18:23:48.000Z</time>
      </trkpt>
      <trkpt lat="45.85256" lon="3.55879">
        <ele>525.79998779297</ele>
        <time>2024-11-15T18:23:49.000Z</time>
      </trkpt>
      <trkpt lat="45.85256" lon="3.55881">
        <ele>526</ele>
        <time>2024-11-15T18:23:50.000Z</time>
      </trkpt>
      <trkpt lat="45.85256" lon="3.55883">
        <ele>526.20001220703</ele>
        <time>2024-11-15T18:23:51.000Z</time>
      </trkpt>
      <trkpt lat="45.85255" lon="3.55884">
        <ele>526.40002441406</ele>
        <time>2024-11-15T18:23:52.000Z</time>
      </trkpt>
      <trkpt lat="45.85255" lon="3.55886">
        <ele>526.59997558594</ele>
        <time>2024-11-15T18:23:53.000Z</time>
      </trkpt>
      <trkpt lat="45.85255" lon="3.55888">
        <ele>526.79998779297</ele>
        <time>2024-11-15T18:23:54.000Z</time>
      </trkpt>
      <trkpt lat="45.85255" lon="3.5589">
        <ele>526.79998779297</ele>
        <time>2024-11-15T18:23:55.000Z</time>
      </trkpt>
      <trkpt lat="45.85254" lon="3.55891">
        <ele>527</ele>
        <time>2024-11-15T18:23:56.000Z</time>
      </trkpt>
      <trkpt lat="45.85254" lon="3.55893">
        <ele>527.20001220703</ele>
        <time>2024-11-15T18:23:57.000Z</time>
      </trkpt>
      <trkpt lat="45.85254" lon="3.55894">
        <ele>527.40002441406</ele>
        <time>2024-11-15T18:23:58.000Z</time>
      </trkpt>
      <trkpt lat="45.85253" lon="3.55896">
        <ele>527.59997558594</ele>
        <time>2024-11-15T18:23:59.000Z</time>
      </trkpt>
      <trkpt lat="45.85253" lon="3.55898">
        <ele>527.79998779297</ele>
        <time>2024-11-15T18:24:00.000Z</time>
      </trkpt>
      <trkpt lat="45.85253" lon="3.55899">
        <ele>528</ele>
        <time>2024-11-15T18:24:01.000Z</time>
      </trkpt>
      <trkpt lat="45.85252" lon="3.55901">
        <ele>528.20001220703</ele>
        <time>2024-11-15T18:24:02.000Z</time>
      </trkpt>
      <trkpt lat="45.85252" lon="3.55903">
        <ele>528.40002441406</ele>
        <time>2024-11-15T18:24:03.000Z</time>
      </trkpt>
      <trkpt lat="45.85251" lon="3.55904">
        <ele>528.59997558594</ele>
        <time>2024-11-15T18:24:04.000Z</time>
      </trkpt>
      <trkpt lat="45.85251" lon="3.55906">
        <ele>528.79998779297</ele>
        <time>2024-11-15T18:24:05.000Z</time>
      </trkpt>
      <trkpt lat="45.85251" lon="3.55907">
        <ele>529</ele>
        <time>2024-11-15T18:24:06.000Z</time>
      </trkpt>
      <trkpt lat="45.85251" lon="3.55909">
        <ele>529.20001220703</ele>
        <time>2024-11-15T18:24:07.000Z</time>
      </trkpt>
      <trkpt lat="45.8525" lon="3.5591">
        <ele>529.40002441406</ele>
        <time>2024-11-15T18:24:08.000Z</time>
      </trkpt>
      <trkpt lat="45.8525" lon="3.55912">
        <ele>529.79998779297</ele>
        <time>2024-11-15T18:24:09.000Z</time>
      </trkpt>
      <trkpt lat="45.8525" lon="3.55914">
        <ele>529.79998779297</ele>
        <time>2024-11-15T18:24:10.000Z</time>
      </trkpt>
      <trkpt lat="45.85249" lon="3.55916">
        <ele>530.20001220703</ele>
        <time>2024-11-15T18:24:11.000Z</time>
      </trkpt>
      <trkpt lat="45.85249" lon="3.55918">
        <ele>530.40002441406</ele>
        <time>2024-11-15T18:24:12.000Z</time>
      </trkpt>
      <trkpt lat="45.85249" lon="3.5592">
        <ele>530.59997558594</ele>
        <time>2024-11-15T18:24:13.000Z</time>
      </trkpt>
      <trkpt lat="45.85248" lon="3.55922">
        <ele>530.59997558594</ele>
        <time>2024-11-15T18:24:14.000Z</time>
      </trkpt>
      <trkpt lat="45.85248" lon="3.55924">
        <ele>531</ele>
        <time>2024-11-15T18:24:15.000Z</time>
      </trkpt>
      <trkpt lat="45.85248" lon="3.55926">
        <ele>531.20001220703</ele>
        <time>2024-11-15T18:24:16.000Z</time>
      </trkpt>
      <trkpt lat="45.85248" lon="3.55929">
        <ele>531.20001220703</ele>
        <time>2024-11-15T18:24:17.000Z</time>
      </trkpt>
      <trkpt lat="45.85247" lon="3.55931">
        <ele>531.40002441406</ele>
        <time>2024-11-15T18:24:18.000Z</time>
      </trkpt>
      <trkpt lat="45.85247" lon="3.55934">
        <ele>531.59997558594</ele>
        <time>2024-11-15T18:24:19.000Z</time>
      </trkpt>
      <trkpt lat="45.85246" lon="3.55936">
        <ele>531.79998779297</ele>
        <time>2024-11-15T18:24:20.000Z</time>
      </trkpt>
      <trkpt lat="45.85246" lon="3.55938">
        <ele>531.79998779297</ele>
        <time>2024-11-15T18:24:21.000Z</time>
      </trkpt>
      <trkpt lat="45.85245" lon="3.55941">
        <ele>532.20001220703</ele>
        <time>2024-11-15T18:24:22.000Z</time>
      </trkpt>
      <trkpt lat="45.85245" lon="3.55943">
        <ele>532.59997558594</ele>
        <time>2024-11-15T18:24:23.000Z</time>
      </trkpt>
      <trkpt lat="45.85244" lon="3.55945">
        <ele>533</ele>
        <time>2024-11-15T18:24:24.000Z</time>
      </trkpt>
      <trkpt lat="45.85244" lon="3.55948">
        <ele>533.20001220703</ele>
        <time>2024-11-15T18:24:25.000Z</time>
      </trkpt>
      <trkpt lat="45.85243" lon="3.5595">
        <ele>533.40002441406</ele>
        <time>2024-11-15T18:24:26.000Z</time>
      </trkpt>
      <trkpt lat="45.85243" lon="3.55952">
        <ele>533.40002441406</ele>
        <time>2024-11-15T18:24:27.000Z</time>
      </trkpt>
      <trkpt lat="45.85242" lon="3.55954">
        <ele>533.40002441406</ele>
        <time>2024-11-15T18:24:28.000Z</time>
      </trkpt>
      <trkpt lat="45.85242" lon="3.55956">
        <ele>533.59997558594</ele>
        <time>2024-11-15T18:24:29.000Z</time>
      </trkpt>
      <trkpt lat="45.85241" lon="3.55958">
        <ele>533.59997558594</ele>
        <time>2024-11-15T18:24:30.000Z</time>
      </trkpt>
      <trkpt lat="45.85241" lon="3.55961">
        <ele>533.59997558594</ele>
        <time>2024-11-15T18:24:31.000Z</time>
      </trkpt>
      <trkpt lat="45.8524" lon="3.55963">
        <ele>533.79998779297</ele>
        <time>2024-11-15T18:24:32.000Z</time>
      </trkpt>
      <trkpt lat="45.8524" lon="3.55966">
        <ele>534.20001220703</ele>
        <time>2024-11-15T18:24:33.000Z</time>
      </trkpt>
      <trkpt lat="45.8524" lon="3.55968">
        <ele>534.79998779297</ele>
        <time>2024-11-15T18:24:34.000Z</time>
      </trkpt>
      <trkpt lat="45.85239" lon="3.55971">
        <ele>535</ele>
        <time>2024-11-15T18:24:35.000Z</time>
      </trkpt>
      <trkpt lat="45.85239" lon="3.55973">
        <ele>535.20001220703</ele>
        <time>2024-11-15T18:24:36.000Z</time>
      </trkpt>
      <trkpt lat="45.85238" lon="3.55975">
        <ele>535.40002441406</ele>
        <time>2024-11-15T18:24:37.000Z</time>
      </trkpt>
      <trkpt lat="45.85238" lon="3.55977">
        <ele>535.59997558594</ele>
        <time>2024-11-15T18:24:38.000Z</time>
      </trkpt>
      <trkpt lat="45.85237" lon="3.5598">
        <ele>536</ele>
        <time>2024-11-15T18:24:39.000Z</time>
      </trkpt>
      <trkpt lat="45.85237" lon="3.55982">
        <ele>536.20001220703</ele>
        <time>2024-11-15T18:24:40.000Z</time>
      </trkpt>
      <trkpt lat="45.85236" lon="3.55984">
        <ele>536.20001220703</ele>
        <time>2024-11-15T18:24:41.000Z</time>
      </trkpt>
      <trkpt lat="45.85236" lon="3.55986">
        <ele>536.40002441406</ele>
        <time>2024-11-15T18:24:42.000Z</time>
      </trkpt>
      <trkpt lat="45.85235" lon="3.55988">
        <ele>536.40002441406</ele>
        <time>2024-11-15T18:24:43.000Z</time>
      </trkpt>
      <trkpt lat="45.85235" lon="3.5599">
        <ele>536.59997558594</ele>
        <time>2024-11-15T18:24:44.000Z</time>
      </trkpt>
      <trkpt lat="45.85234" lon="3.55992">
        <ele>536.79998779297</ele>
        <time>2024-11-15T18:24:45.000Z</time>
      </trkpt>
      <trkpt lat="45.85234" lon="3.55994">
        <ele>537.20001220703</ele>
        <time>2024-11-15T18:24:46.000Z</time>
      </trkpt>
      <trkpt lat="45.85233" lon="3.55996">
        <ele>537.40002441406</ele>
        <time>2024-11-15T18:24:47.000Z</time>
      </trkpt>
      <trkpt lat="45.85233" lon="3.55997">
        <ele>538</ele>
        <time>2024-11-15T18:24:48.000Z</time>
      </trkpt>
      <trkpt lat="45.85232" lon="3.55999">
        <ele>538.40002441406</ele>
        <time>2024-11-15T18:24:49.000Z</time>
      </trkpt>
      <trkpt lat="45.85232" lon="3.56001">
        <ele>538.79998779297</ele>
        <time>2024-11-15T18:24:50.000Z</time>
      </trkpt>
      <trkpt lat="45.85231" lon="3.56003">
        <ele>539</ele>
        <time>2024-11-15T18:24:51.000Z</time>
      </trkpt>
      <trkpt lat="45.85231" lon="3.56005">
        <ele>539.20001220703</ele>
        <time>2024-11-15T18:24:52.000Z</time>
      </trkpt>
      <trkpt lat="45.85231" lon="3.56007">
        <ele>539.40002441406</ele>
        <time>2024-11-15T18:24:53.000Z</time>
      </trkpt>
      <trkpt lat="45.85231" lon="3.56009">
        <ele>539.40002441406</ele>
        <time>2024-11-15T18:24:54.000Z</time>
      </trkpt>
      <trkpt lat="45.8523" lon="3.5601">
        <ele>539.79998779297</ele>
        <time>2024-11-15T18:24:55.000Z</time>
      </trkpt>
      <trkpt lat="45.8523" lon="3.56012">
        <ele>539.79998779297</ele>
        <time>2024-11-15T18:24:56.000Z</time>
      </trkpt>
      <trkpt lat="45.85229" lon="3.56014">
        <ele>540</ele>
        <time>2024-11-15T18:24:57.000Z</time>
      </trkpt>
      <trkpt lat="45.85229" lon="3.56016">
        <ele>540</ele>
        <time>2024-11-15T18:24:58.000Z</time>
      </trkpt>
      <trkpt lat="45.85228" lon="3.56018">
        <ele>540.20001220703</ele>
        <time>2024-11-15T18:24:59.000Z</time>
      </trkpt>
      <trkpt lat="45.85227" lon="3.5602">
        <ele>540.40002441406</ele>
        <time>2024-11-15T18:25:00.000Z</time>
      </trkpt>
      <trkpt lat="45.85226" lon="3.56023">
        <ele>540.59997558594</ele>
        <time>2024-11-15T18:25:01.000Z</time>
      </trkpt>
      <trkpt lat="45.85226" lon="3.56025">
        <ele>540.79998779297</ele>
        <time>2024-11-15T18:25:02.000Z</time>
      </trkpt>
      <trkpt lat="45.85225" lon="3.56028">
        <ele>541</ele>
        <time>2024-11-15T18:25:03.000Z</time>
      </trkpt>
      <trkpt lat="45.85224" lon="3.5603">
        <ele>541</ele>
        <time>2024-11-15T18:25:04.000Z</time>
      </trkpt>
      <trkpt lat="45.85223" lon="3.56032">
        <ele>541.40002441406</ele>
        <time>2024-11-15T18:25:05.000Z</time>
      </trkpt>
      <trkpt lat="45.85222" lon="3.56035">
        <ele>541.79998779297</ele>
        <time>2024-11-15T18:25:06.000Z</time>
      </trkpt>
      <trkpt lat="45.85221" lon="3.56037">
        <ele>542.20001220703</ele>
        <time>2024-11-15T18:25:07.000Z</time>
      </trkpt>
      <trkpt lat="45.8522" lon="3.56039">
        <ele>542.20001220703</ele>
        <time>2024-11-15T18:25:08.000Z</time>
      </trkpt>
      <trkpt lat="45.85219" lon="3.56041">
        <ele>542.40002441406</ele>
        <time>2024-11-15T18:25:09.000Z</time>
      </trkpt>
      <trkpt lat="45.85218" lon="3.56044">
        <ele>542.59997558594</ele>
        <time>2024-11-15T18:25:10.000Z</time>
      </trkpt>
      <trkpt lat="45.85217" lon="3.56046">
        <ele>542.79998779297</ele>
        <time>2024-11-15T18:25:11.000Z</time>
      </trkpt>
      <trkpt lat="45.85216" lon="3.56048">
        <ele>543</ele>
        <time>2024-11-15T18:25:12.000Z</time>
      </trkpt>
      <trkpt lat="45.85215" lon="3.5605">
        <ele>543.40002441406</ele>
        <time>2024-11-15T18:25:13.000Z</time>
      </trkpt>
      <trkpt lat="45.85214" lon="3.56052">
        <ele>543.79998779297</ele>
        <time>2024-11-15T18:25:14.000Z</time>
      </trkpt>
      <trkpt lat="45.85213" lon="3.56054">
        <ele>544.20001220703</ele>
        <time>2024-11-15T18:25:15.000Z</time>
      </trkpt>
      <trkpt lat="45.85213" lon="3.56056">
        <ele>544.40002441406</ele>
        <time>2024-11-15T18:25:16.000Z</time>
      </trkpt>
      <trkpt lat="45.85212" lon="3.56058">
        <ele>545</ele>
        <time>2024-11-15T18:25:17.000Z</time>
      </trkpt>
      <trkpt lat="45.85212" lon="3.56061">
        <ele>545.20001220703</ele>
        <time>2024-11-15T18:25:18.000Z</time>
      </trkpt>
      <trkpt lat="45.85212" lon="3.56063">
        <ele>545.40002441406</ele>
        <time>2024-11-15T18:25:19.000Z</time>
      </trkpt>
      <trkpt lat="45.85211" lon="3.56065">
        <ele>545.59997558594</ele>
        <time>2024-11-15T18:25:20.000Z</time>
      </trkpt>
      <trkpt lat="45.85212" lon="3.56068">
        <ele>545.59997558594</ele>
        <time>2024-11-15T18:25:21.000Z</time>
      </trkpt>
      <trkpt lat="45.85212" lon="3.56071">
        <ele>545.59997558594</ele>
        <time>2024-11-15T18:25:22.000Z</time>
      </trkpt>
      <trkpt lat="45.85213" lon="3.56074">
        <ele>545.59997558594</ele>
        <time>2024-11-15T18:25:23.000Z</time>
      </trkpt>
      <trkpt lat="45.85214" lon="3.56076">
        <ele>545.40002441406</ele>
        <time>2024-11-15T18:25:24.000Z</time>
      </trkpt>
      <trkpt lat="45.85215" lon="3.56077">
        <ele>545.20001220703</ele>
        <time>2024-11-15T18:25:25.000Z</time>
      </trkpt>
      <trkpt lat="45.85217" lon="3.56078">
        <ele>545</ele>
        <time>2024-11-15T18:25:26.000Z</time>
      </trkpt>
      <trkpt lat="45.85218" lon="3.5608">
        <ele>544.79998779297</ele>
        <time>2024-11-15T18:25:27.000Z</time>
      </trkpt>
      <trkpt lat="45.85219" lon="3.56081">
        <ele>544.79998779297</ele>
        <time>2024-11-15T18:25:28.000Z</time>
      </trkpt>
      <trkpt lat="45.85221" lon="3.56081">
        <ele>545</ele>
        <time>2024-11-15T18:25:29.000Z</time>
      </trkpt>
      <trkpt lat="45.85221" lon="3.56082">
        <ele>545</ele>
        <time>2024-11-15T18:25:30.000Z</time>
      </trkpt>
      <trkpt lat="45.85222" lon="3.56082">
        <ele>545</ele>
        <time>2024-11-15T18:25:31.000Z</time>
      </trkpt>
      <trkpt lat="45.85223" lon="3.56082">
        <ele>545.20001220703</ele>
        <time>2024-11-15T18:25:32.000Z</time>
      </trkpt>
      <trkpt lat="45.85223" lon="3.56082">
        <ele>545.20001220703</ele>
        <time>2024-11-15T18:25:33.000Z</time>
      </trkpt>
      <trkpt lat="45.85224" lon="3.56083">
        <ele>545.40002441406</ele>
        <time>2024-11-15T18:25:34.000Z</time>
      </trkpt>
      <trkpt lat="45.85225" lon="3.56083">
        <ele>545.40002441406</ele>
        <time>2024-11-15T18:25:35.000Z</time>
      </trkpt>
      <trkpt lat="45.85226" lon="3.56083">
        <ele>545.59997558594</ele>
        <time>2024-11-15T18:25:36.000Z</time>
      </trkpt>
      <trkpt lat="45.85227" lon="3.56083">
        <ele>545.59997558594</ele>
        <time>2024-11-15T18:25:37.000Z</time>
      </trkpt>
      <trkpt lat="45.85228" lon="3.56083">
        <ele>545.79998779297</ele>
        <time>2024-11-15T18:25:38.000Z</time>
      </trkpt>
      <trkpt lat="45.85229" lon="3.56084">
        <ele>546</ele>
        <time>2024-11-15T18:25:39.000Z</time>
      </trkpt>
      <trkpt lat="45.8523" lon="3.56084">
        <ele>546.20001220703</ele>
        <time>2024-11-15T18:25:40.000Z</time>
      </trkpt>
      <trkpt lat="45.85231" lon="3.56084">
        <ele>546.20001220703</ele>
        <time>2024-11-15T18:25:41.000Z</time>
      </trkpt>
      <trkpt lat="45.85232" lon="3.56084">
        <ele>546.40002441406</ele>
        <time>2024-11-15T18:25:42.000Z</time>
      </trkpt>
      <trkpt lat="45.85233" lon="3.56084">
        <ele>546.40002441406</ele>
        <time>2024-11-15T18:25:43.000Z</time>
      </trkpt>
      <trkpt lat="45.85234" lon="3.56085">
        <ele>546.79998779297</ele>
        <time>2024-11-15T18:25:44.000Z</time>
      </trkpt>
      <trkpt lat="45.85235" lon="3.56085">
        <ele>547</ele>
        <time>2024-11-15T18:25:45.000Z</time>
      </trkpt>
      <trkpt lat="45.85236" lon="3.56085">
        <ele>547.20001220703</ele>
        <time>2024-11-15T18:25:46.000Z</time>
      </trkpt>
      <trkpt lat="45.85237" lon="3.56085">
        <ele>547.40002441406</ele>
        <time>2024-11-15T18:25:47.000Z</time>
      </trkpt>
      <trkpt lat="45.85238" lon="3.56086">
        <ele>547.40002441406</ele>
        <time>2024-11-15T18:25:48.000Z</time>
      </trkpt>
      <trkpt lat="45.85239" lon="3.56086">
        <ele>547.59997558594</ele>
        <time>2024-11-15T18:25:49.000Z</time>
      </trkpt>
      <trkpt lat="45.8524" lon="3.56086">
        <ele>548</ele>
        <time>2024-11-15T18:25:50.000Z</time>
      </trkpt>
      <trkpt lat="45.85241" lon="3.56086">
        <ele>548</ele>
        <time>2024-11-15T18:25:51.000Z</time>
      </trkpt>
      <trkpt lat="45.85242" lon="3.56087">
        <ele>548.20001220703</ele>
        <time>2024-11-15T18:25:52.000Z</time>
      </trkpt>
      <trkpt lat="45.85243" lon="3.56087">
        <ele>548.40002441406</ele>
        <time>2024-11-15T18:25:53.000Z</time>
      </trkpt>
      <trkpt lat="45.85245" lon="3.56088">
        <ele>548.40002441406</ele>
        <time>2024-11-15T18:25:54.000Z</time>
      </trkpt>
      <trkpt lat="45.85246" lon="3.56088">
        <ele>548.59997558594</ele>
        <time>2024-11-15T18:25:55.000Z</time>
      </trkpt>
      <trkpt lat="45.85247" lon="3.56089">
        <ele>548.59997558594</ele>
        <time>2024-11-15T18:25:56.000Z</time>
      </trkpt>
      <trkpt lat="45.85249" lon="3.56089">
        <ele>548.79998779297</ele>
        <time>2024-11-15T18:25:57.000Z</time>
      </trkpt>
      <trkpt lat="45.8525" lon="3.5609">
        <ele>549.20001220703</ele>
        <time>2024-11-15T18:25:58.000Z</time>
      </trkpt>
      <trkpt lat="45.85252" lon="3.5609">
        <ele>549.40002441406</ele>
        <time>2024-11-15T18:25:59.000Z</time>
      </trkpt>
      <trkpt lat="45.85253" lon="3.56091">
        <ele>549.59997558594</ele>
        <time>2024-11-15T18:26:00.000Z</time>
      </trkpt>
      <trkpt lat="45.85255" lon="3.56091">
        <ele>549.79998779297</ele>
        <time>2024-11-15T18:26:01.000Z</time>
      </trkpt>
      <trkpt lat="45.85256" lon="3.56092">
        <ele>549.79998779297</ele>
        <time>2024-11-15T18:26:02.000Z</time>
      </trkpt>
      <trkpt lat="45.85258" lon="3.56092">
        <ele>550</ele>
        <time>2024-11-15T18:26:03.000Z</time>
      </trkpt>
      <trkpt lat="45.85259" lon="3.56092">
        <ele>550.20001220703</ele>
        <time>2024-11-15T18:26:04.000Z</time>
      </trkpt>
      <trkpt lat="45.8526" lon="3.56091">
        <ele>550.40002441406</ele>
        <time>2024-11-15T18:26:05.000Z</time>
      </trkpt>
      <trkpt lat="45.85261" lon="3.5609">
        <ele>550.59997558594</ele>
        <time>2024-11-15T18:26:06.000Z</time>
      </trkpt>
      <trkpt lat="45.85262" lon="3.56089">
        <ele>550.79998779297</ele>
        <time>2024-11-15T18:26:07.000Z</time>
      </trkpt>
      <trkpt lat="45.85263" lon="3.56088">
        <ele>550.79998779297</ele>
        <time>2024-11-15T18:26:08.000Z</time>
      </trkpt>
      <trkpt lat="45.85264" lon="3.56086">
        <ele>551</ele>
        <time>2024-11-15T18:26:09.000Z</time>
      </trkpt>
      <trkpt lat="45.85265" lon="3.56085">
        <ele>551.20001220703</ele>
        <time>2024-11-15T18:26:10.000Z</time>
      </trkpt>
      <trkpt lat="45.85266" lon="3.56083">
        <ele>551.79998779297</ele>
        <time>2024-11-15T18:26:11.000Z</time>
      </trkpt>
      <trkpt lat="45.85266" lon="3.56081">
        <ele>552</ele>
        <time>2024-11-15T18:26:12.000Z</time>
      </trkpt>
      <trkpt lat="45.85267" lon="3.56079">
        <ele>552.40002441406</ele>
        <time>2024-11-15T18:26:13.000Z</time>
      </trkpt>
      <trkpt lat="45.85268" lon="3.56077">
        <ele>552.59997558594</ele>
        <time>2024-11-15T18:26:14.000Z</time>
      </trkpt>
      <trkpt lat="45.85269" lon="3.56075">
        <ele>552.59997558594</ele>
        <time>2024-11-15T18:26:15.000Z</time>
      </trkpt>
      <trkpt lat="45.85269" lon="3.56074">
        <ele>552.79998779297</ele>
        <time>2024-11-15T18:26:16.000Z</time>
      </trkpt>
      <trkpt lat="45.8527" lon="3.56072">
        <ele>553</ele>
        <time>2024-11-15T18:26:17.000Z</time>
      </trkpt>
      <trkpt lat="45.85271" lon="3.56071">
        <ele>553</ele>
        <time>2024-11-15T18:26:18.000Z</time>
      </trkpt>
      <trkpt lat="45.85271" lon="3.56069">
        <ele>553</ele>
        <time>2024-11-15T18:26:19.000Z</time>
      </trkpt>
      <trkpt lat="45.85272" lon="3.56068">
        <ele>553.20001220703</ele>
        <time>2024-11-15T18:26:20.000Z</time>
      </trkpt>
      <trkpt lat="45.85273" lon="3.56067">
        <ele>553.20001220703</ele>
        <time>2024-11-15T18:26:21.000Z</time>
      </trkpt>
      <trkpt lat="45.85273" lon="3.56066">
        <ele>553.79998779297</ele>
        <time>2024-11-15T18:26:22.000Z</time>
      </trkpt>
      <trkpt lat="45.85273" lon="3.56065">
        <ele>554</ele>
        <time>2024-11-15T18:26:23.000Z</time>
      </trkpt>
      <trkpt lat="45.85274" lon="3.56065">
        <ele>554</ele>
        <time>2024-11-15T18:26:24.000Z</time>
      </trkpt>
      <trkpt lat="45.85275" lon="3.56064">
        <ele>554.20001220703</ele>
        <time>2024-11-15T18:26:25.000Z</time>
      </trkpt>
      <trkpt lat="45.85276" lon="3.56062">
        <ele>554.20001220703</ele>
        <time>2024-11-15T18:26:26.000Z</time>
      </trkpt>
      <trkpt lat="45.85277" lon="3.56061">
        <ele>554.40002441406</ele>
        <time>2024-11-15T18:26:27.000Z</time>
      </trkpt>
      <trkpt lat="45.85278" lon="3.5606">
        <ele>554.59997558594</ele>
        <time>2024-11-15T18:26:28.000Z</time>
      </trkpt>
      <trkpt lat="45.85279" lon="3.56059">
        <ele>555</ele>
        <time>2024-11-15T18:26:29.000Z</time>
      </trkpt>
      <trkpt lat="45.8528" lon="3.56057">
        <ele>555.20001220703</ele>
        <time>2024-11-15T18:26:30.000Z</time>
      </trkpt>
      <trkpt lat="45.85281" lon="3.56056">
        <ele>555.40002441406</ele>
        <time>2024-11-15T18:26:31.000Z</time>
      </trkpt>
      <trkpt lat="45.85282" lon="3.56054">
        <ele>555.59997558594</ele>
        <time>2024-11-15T18:26:32.000Z</time>
      </trkpt>
      <trkpt lat="45.85283" lon="3.56053">
        <ele>555.79998779297</ele>
        <time>2024-11-15T18:26:33.000Z</time>
      </trkpt>
      <trkpt lat="45.85285" lon="3.56051">
        <ele>556</ele>
        <time>2024-11-15T18:26:34.000Z</time>
      </trkpt>
      <trkpt lat="45.85286" lon="3.5605">
        <ele>556.40002441406</ele>
        <time>2024-11-15T18:26:35.000Z</time>
      </trkpt>
      <trkpt lat="45.85287" lon="3.56048">
        <ele>556.59997558594</ele>
        <time>2024-11-15T18:26:36.000Z</time>
      </trkpt>
      <trkpt lat="45.85289" lon="3.56047">
        <ele>556.59997558594</ele>
        <time>2024-11-15T18:26:37.000Z</time>
      </trkpt>
      <trkpt lat="45.8529" lon="3.56046">
        <ele>556.79998779297</ele>
        <time>2024-11-15T18:26:38.000Z</time>
      </trkpt>
      <trkpt lat="45.85291" lon="3.56045">
        <ele>557</ele>
        <time>2024-11-15T18:26:39.000Z</time>
      </trkpt>
      <trkpt lat="45.85293" lon="3.56044">
        <ele>557.40002441406</ele>
        <time>2024-11-15T18:26:40.000Z</time>
      </trkpt>
      <trkpt lat="45.85294" lon="3.56043">
        <ele>557.59997558594</ele>
        <time>2024-11-15T18:26:41.000Z</time>
      </trkpt>
      <trkpt lat="45.85295" lon="3.56042">
        <ele>558</ele>
        <time>2024-11-15T18:26:42.000Z</time>
      </trkpt>
      <trkpt lat="45.85297" lon="3.56041">
        <ele>558.40002441406</ele>
        <time>2024-11-15T18:26:43.000Z</time>
      </trkpt>
      <trkpt lat="45.85298" lon="3.5604">
        <ele>558.79998779297</ele>
        <time>2024-11-15T18:26:44.000Z</time>
      </trkpt>
      <trkpt lat="45.85299" lon="3.56039">
        <ele>559.20001220703</ele>
        <time>2024-11-15T18:26:45.000Z</time>
      </trkpt>
      <trkpt lat="45.853" lon="3.56038">
        <ele>559.40002441406</ele>
        <time>2024-11-15T18:26:46.000Z</time>
      </trkpt>
      <trkpt lat="45.85301" lon="3.56037">
        <ele>559.79998779297</ele>
        <time>2024-11-15T18:26:47.000Z</time>
      </trkpt>
      <trkpt lat="45.85302" lon="3.56036">
        <ele>560</ele>
        <time>2024-11-15T18:26:48.000Z</time>
      </trkpt>
      <trkpt lat="45.85303" lon="3.56035">
        <ele>560.20001220703</ele>
        <time>2024-11-15T18:26:49.000Z</time>
      </trkpt>
      <trkpt lat="45.85304" lon="3.56035">
        <ele>560.20001220703</ele>
        <time>2024-11-15T18:26:50.000Z</time>
      </trkpt>
      <trkpt lat="45.85305" lon="3.56034">
        <ele>560.40002441406</ele>
        <time>2024-11-15T18:26:51.000Z</time>
      </trkpt>
      <trkpt lat="45.85306" lon="3.56034">
        <ele>560.40002441406</ele>
        <time>2024-11-15T18:26:52.000Z</time>
      </trkpt>
      <trkpt lat="45.85307" lon="3.56033">
        <ele>560.40002441406</ele>
        <time>2024-11-15T18:26:53.000Z</time>
      </trkpt>
      <trkpt lat="45.85308" lon="3.56033">
        <ele>560.59997558594</ele>
        <time>2024-11-15T18:26:54.000Z</time>
      </trkpt>
      <trkpt lat="45.85309" lon="3.56032">
        <ele>560.79998779297</ele>
        <time>2024-11-15T18:26:55.000Z</time>
      </trkpt>
      <trkpt lat="45.85309" lon="3.56032">
        <ele>561</ele>
        <time>2024-11-15T18:26:56.000Z</time>
      </trkpt>
      <trkpt lat="45.8531" lon="3.56031">
        <ele>561.20001220703</ele>
        <time>2024-11-15T18:26:57.000Z</time>
      </trkpt>
      <trkpt lat="45.85311" lon="3.56031">
        <ele>561.40002441406</ele>
        <time>2024-11-15T18:26:58.000Z</time>
      </trkpt>
      <trkpt lat="45.85311" lon="3.5603">
        <ele>561.79998779297</ele>
        <time>2024-11-15T18:26:59.000Z</time>
      </trkpt>
      <trkpt lat="45.85312" lon="3.56029">
        <ele>562</ele>
        <time>2024-11-15T18:27:00.000Z</time>
      </trkpt>
      <trkpt lat="45.85312" lon="3.56028">
        <ele>562</ele>
        <time>2024-11-15T18:27:01.000Z</time>
      </trkpt>
      <trkpt lat="45.85313" lon="3.56028">
        <ele>562.20001220703</ele>
        <time>2024-11-15T18:27:02.000Z</time>
      </trkpt>
      <trkpt lat="45.85314" lon="3.56027">
        <ele>562.40002441406</ele>
        <time>2024-11-15T18:27:03.000Z</time>
      </trkpt>
      <trkpt lat="45.85315" lon="3.56026">
        <ele>562.40002441406</ele>
        <time>2024-11-15T18:27:04.000Z</time>
      </trkpt>
      <trkpt lat="45.85315" lon="3.56026">
        <ele>562.59997558594</ele>
        <time>2024-11-15T18:27:05.000Z</time>
      </trkpt>
      <trkpt lat="45.85316" lon="3.56025">
        <ele>562.59997558594</ele>
        <time>2024-11-15T18:27:06.000Z</time>
      </trkpt>
      <trkpt lat="45.85317" lon="3.56024">
        <ele>563</ele>
        <time>2024-11-15T18:27:07.000Z</time>
      </trkpt>
      <trkpt lat="45.85318" lon="3.56023">
        <ele>563.20001220703</ele>
        <time>2024-11-15T18:27:08.000Z</time>
      </trkpt>
      <trkpt lat="45.85319" lon="3.56023">
        <ele>563.40002441406</ele>
        <time>2024-11-15T18:27:09.000Z</time>
      </trkpt>
      <trkpt lat="45.85319" lon="3.56022">
        <ele>563.59997558594</ele>
        <time>2024-11-15T18:27:10.000Z</time>
      </trkpt>
      <trkpt lat="45.8532" lon="3.56021">
        <ele>563.79998779297</ele>
        <time>2024-11-15T18:27:11.000Z</time>
      </trkpt>
      <trkpt lat="45.85321" lon="3.5602">
        <ele>564</ele>
        <time>2024-11-15T18:27:12.000Z</time>
      </trkpt>
      <trkpt lat="45.85321" lon="3.56019">
        <ele>564.40002441406</ele>
        <time>2024-11-15T18:27:13.000Z</time>
      </trkpt>
      <trkpt lat="45.85322" lon="3.56018">
        <ele>564.59997558594</ele>
        <time>2024-11-15T18:27:14.000Z</time>
      </trkpt>
      <trkpt lat="45.85323" lon="3.56017">
        <ele>564.59997558594</ele>
        <time>2024-11-15T18:27:15.000Z</time>
      </trkpt>
      <trkpt lat="45.85324" lon="3.56017">
        <ele>564.79998779297</ele>
        <time>2024-11-15T18:27:16.000Z</time>
      </trkpt>
      <trkpt lat="45.85325" lon="3.56016">
        <ele>565.20001220703</ele>
        <time>2024-11-15T18:27:17.000Z</time>
      </trkpt>
      <trkpt lat="45.85325" lon="3.56015">
        <ele>565.40002441406</ele>
        <time>2024-11-15T18:27:18.000Z</time>
      </trkpt>
      <trkpt lat="45.85326" lon="3.56014">
        <ele>565.40002441406</ele>
        <time>2024-11-15T18:27:19.000Z</time>
      </trkpt>
      <trkpt lat="45.85327" lon="3.56013">
        <ele>565.59997558594</ele>
        <time>2024-11-15T18:27:20.000Z</time>
      </trkpt>
      <trkpt lat="45.85328" lon="3.56013">
        <ele>566</ele>
        <time>2024-11-15T18:27:21.000Z</time>
      </trkpt>
      <trkpt lat="45.85329" lon="3.56012">
        <ele>566.20001220703</ele>
        <time>2024-11-15T18:27:22.000Z</time>
      </trkpt>
      <trkpt lat="45.85329" lon="3.56011">
        <ele>566.20001220703</ele>
        <time>2024-11-15T18:27:23.000Z</time>
      </trkpt>
      <trkpt lat="45.8533" lon="3.5601">
        <ele>566.59997558594</ele>
        <time>2024-11-15T18:27:24.000Z</time>
      </trkpt>
      <trkpt lat="45.85331" lon="3.56009">
        <ele>566.79998779297</ele>
        <time>2024-11-15T18:27:25.000Z</time>
      </trkpt>
      <trkpt lat="45.85331" lon="3.56009">
        <ele>567</ele>
        <time>2024-11-15T18:27:26.000Z</time>
      </trkpt>
      <trkpt lat="45.85332" lon="3.56008">
        <ele>567.20001220703</ele>
        <time>2024-11-15T18:27:27.000Z</time>
      </trkpt>
      <trkpt lat="45.85332" lon="3.56007">
        <ele>567.40002441406</ele>
        <time>2024-11-15T18:27:28.000Z</time>
      </trkpt>
      <trkpt lat="45.85333" lon="3.56006">
        <ele>567.40002441406</ele>
        <time>2024-11-15T18:27:29.000Z</time>
      </trkpt>
      <trkpt lat="45.85333" lon="3.56005">
        <ele>567.59997558594</ele>
        <time>2024-11-15T18:27:30.000Z</time>
      </trkpt>
      <trkpt lat="45.85334" lon="3.56003">
        <ele>567.59997558594</ele>
        <time>2024-11-15T18:27:31.000Z</time>
      </trkpt>
      <trkpt lat="45.85334" lon="3.56002">
        <ele>567.79998779297</ele>
        <time>2024-11-15T18:27:32.000Z</time>
      </trkpt>
      <trkpt lat="45.85335" lon="3.56001">
        <ele>567.79998779297</ele>
        <time>2024-11-15T18:27:33.000Z</time>
      </trkpt>
      <trkpt lat="45.85336" lon="3.56">
        <ele>568</ele>
        <time>2024-11-15T18:27:34.000Z</time>
      </trkpt>
      <trkpt lat="45.85337" lon="3.55998">
        <ele>568.40002441406</ele>
        <time>2024-11-15T18:27:35.000Z</time>
      </trkpt>
      <trkpt lat="45.85338" lon="3.55997">
        <ele>568.59997558594</ele>
        <time>2024-11-15T18:27:36.000Z</time>
      </trkpt>
      <trkpt lat="45.85339" lon="3.55996">
        <ele>568.59997558594</ele>
        <time>2024-11-15T18:27:37.000Z</time>
      </trkpt>
      <trkpt lat="45.8534" lon="3.55994">
        <ele>568.79998779297</ele>
        <time>2024-11-15T18:27:38.000Z</time>
      </trkpt>
      <trkpt lat="45.85341" lon="3.55993">
        <ele>569</ele>
        <time>2024-11-15T18:27:39.000Z</time>
      </trkpt>
      <trkpt lat="45.85342" lon="3.55992">
        <ele>569</ele>
        <time>2024-11-15T18:27:40.000Z</time>
      </trkpt>
      <trkpt lat="45.85343" lon="3.55991">
        <ele>569.20001220703</ele>
        <time>2024-11-15T18:27:41.000Z</time>
      </trkpt>
      <trkpt lat="45.85344" lon="3.55991">
        <ele>569.20001220703</ele>
        <time>2024-11-15T18:27:42.000Z</time>
      </trkpt>
      <trkpt lat="45.85345" lon="3.5599">
        <ele>569.59997558594</ele>
        <time>2024-11-15T18:27:43.000Z</time>
      </trkpt>
      <trkpt lat="45.85346" lon="3.5599">
        <ele>569.79998779297</ele>
        <time>2024-11-15T18:27:44.000Z</time>
      </trkpt>
      <trkpt lat="45.85348" lon="3.5599">
        <ele>570.20001220703</ele>
        <time>2024-11-15T18:27:45.000Z</time>
      </trkpt>
      <trkpt lat="45.85349" lon="3.5599">
        <ele>570.40002441406</ele>
        <time>2024-11-15T18:27:46.000Z</time>
      </trkpt>
      <trkpt lat="45.8535" lon="3.55991">
        <ele>570.40002441406</ele>
        <time>2024-11-15T18:27:47.000Z</time>
      </trkpt>
      <trkpt lat="45.85351" lon="3.55991">
        <ele>570.59997558594</ele>
        <time>2024-11-15T18:27:48.000Z</time>
      </trkpt>
      <trkpt lat="45.85351" lon="3.55992">
        <ele>571</ele>
        <time>2024-11-15T18:27:49.000Z</time>
      </trkpt>
      <trkpt lat="45.85352" lon="3.55993">
        <ele>571</ele>
        <time>2024-11-15T18:27:50.000Z</time>
      </trkpt>
      <trkpt lat="45.85352" lon="3.55994">
        <ele>571.40002441406</ele>
        <time>2024-11-15T18:27:51.000Z</time>
      </trkpt>
      <trkpt lat="45.85353" lon="3.55995">
        <ele>571.79998779297</ele>
        <time>2024-11-15T18:27:52.000Z</time>
      </trkpt>
      <trkpt lat="45.85353" lon="3.55996">
        <ele>572</ele>
        <time>2024-11-15T18:27:53.000Z</time>
      </trkpt>
      <trkpt lat="45.85354" lon="3.55997">
        <ele>572</ele>
        <time>2024-11-15T18:27:54.000Z</time>
      </trkpt>
      <trkpt lat="45.85354" lon="3.55998">
        <ele>572</ele>
        <time>2024-11-15T18:27:55.000Z</time>
      </trkpt>
      <trkpt lat="45.85354" lon="3.55999">
        <ele>572.20001220703</ele>
        <time>2024-11-15T18:27:56.000Z</time>
      </trkpt>
      <trkpt lat="45.85354" lon="3.56001">
        <ele>572.40002441406</ele>
        <time>2024-11-15T18:27:57.000Z</time>
      </trkpt>
      <trkpt lat="45.85353" lon="3.56002">
        <ele>572.59997558594</ele>
        <time>2024-11-15T18:27:58.000Z</time>
      </trkpt>
      <trkpt lat="45.85353" lon="3.56004">
        <ele>573</ele>
        <time>2024-11-15T18:27:59.000Z</time>
      </trkpt>
      <trkpt lat="45.85353" lon="3.56005">
        <ele>573.20001220703</ele>
        <time>2024-11-15T18:28:00.000Z</time>
      </trkpt>
      <trkpt lat="45.85353" lon="3.56006">
        <ele>573.20001220703</ele>
        <time>2024-11-15T18:28:01.000Z</time>
      </trkpt>
      <trkpt lat="45.85352" lon="3.56007">
        <ele>573.40002441406</ele>
        <time>2024-11-15T18:28:02.000Z</time>
      </trkpt>
      <trkpt lat="45.85352" lon="3.56009">
        <ele>573.40002441406</ele>
        <time>2024-11-15T18:28:03.000Z</time>
      </trkpt>
      <trkpt lat="45.85351" lon="3.56011">
        <ele>573.79998779297</ele>
        <time>2024-11-15T18:28:04.000Z</time>
      </trkpt>
      <trkpt lat="45.8535" lon="3.56012">
        <ele>574</ele>
        <time>2024-11-15T18:28:05.000Z</time>
      </trkpt>
      <trkpt lat="45.8535" lon="3.56013">
        <ele>574.40002441406</ele>
        <time>2024-11-15T18:28:06.000Z</time>
      </trkpt>
      <trkpt lat="45.85349" lon="3.56015">
        <ele>574.40002441406</ele>
        <time>2024-11-15T18:28:07.000Z</time>
      </trkpt>
      <trkpt lat="45.85348" lon="3.56017">
        <ele>574.59997558594</ele>
        <time>2024-11-15T18:28:08.000Z</time>
      </trkpt>
      <trkpt lat="45.85348" lon="3.56019">
        <ele>575</ele>
        <time>2024-11-15T18:28:09.000Z</time>
      </trkpt>
      <trkpt lat="45.85347" lon="3.56021">
        <ele>575</ele>
        <time>2024-11-15T18:28:10.000Z</time>
      </trkpt>
      <trkpt lat="45.85347" lon="3.56022">
        <ele>575</ele>
        <time>2024-11-15T18:28:11.000Z</time>
      </trkpt>
      <trkpt lat="45.85346" lon="3.56024">
        <ele>575.40002441406</ele>
        <time>2024-11-15T18:28:12.000Z</time>
      </trkpt>
      <trkpt lat="45.85346" lon="3.56026">
        <ele>576</ele>
        <time>2024-11-15T18:28:13.000Z</time>
      </trkpt>
      <trkpt lat="45.85346" lon="3.56028">
        <ele>576.20001220703</ele>
        <time>2024-11-15T18:28:14.000Z</time>
      </trkpt>
      <trkpt lat="45.85346" lon="3.56029">
        <ele>576.20001220703</ele>
        <time>2024-11-15T18:28:15.000Z</time>
      </trkpt>
      <trkpt lat="45.85346" lon="3.56031">
        <ele>576.40002441406</ele>
        <time>2024-11-15T18:28:16.000Z</time>
      </trkpt>
      <trkpt lat="45.85346" lon="3.56032">
        <ele>576.59997558594</ele>
        <time>2024-11-15T18:28:17.000Z</time>
      </trkpt>
      <trkpt lat="45.85346" lon="3.56033">
        <ele>576.59997558594</ele>
        <time>2024-11-15T18:28:18.000Z</time>
      </trkpt>
      <trkpt lat="45.85346" lon="3.56034">
        <ele>577</ele>
        <time>2024-11-15T18:28:19.000Z</time>
      </trkpt>
      <trkpt lat="45.85347" lon="3.56036">
        <ele>577</ele>
        <time>2024-11-15T18:28:20.000Z</time>
      </trkpt>
      <trkpt lat="45.85347" lon="3.56037">
        <ele>577.20001220703</ele>
        <time>2024-11-15T18:28:21.000Z</time>
      </trkpt>
      <trkpt lat="45.85347" lon="3.56038">
        <ele>577.40002441406</ele>
        <time>2024-11-15T18:28:22.000Z</time>
      </trkpt>
      <trkpt lat="45.85347" lon="3.5604">
        <ele>577.40002441406</ele>
        <time>2024-11-15T18:28:23.000Z</time>
      </trkpt>
      <trkpt lat="45.85347" lon="3.56041">
        <ele>577.79998779297</ele>
        <time>2024-11-15T18:28:24.000Z</time>
      </trkpt>
      <trkpt lat="45.85348" lon="3.56043">
        <ele>577.79998779297</ele>
        <time>2024-11-15T18:28:25.000Z</time>
      </trkpt>
      <trkpt lat="45.85348" lon="3.56044">
        <ele>578</ele>
        <time>2024-11-15T18:28:26.000Z</time>
      </trkpt>
      <trkpt lat="45.85348" lon="3.56045">
        <ele>578.20001220703</ele>
        <time>2024-11-15T18:28:27.000Z</time>
      </trkpt>
      <trkpt lat="45.85348" lon="3.56047">
        <ele>578.40002441406</ele>
        <time>2024-11-15T18:28:28.000Z</time>
      </trkpt>
      <trkpt lat="45.85348" lon="3.56048">
        <ele>578.40002441406</ele>
        <time>2024-11-15T18:28:29.000Z</time>
      </trkpt>
      <trkpt lat="45.85348" lon="3.5605">
        <ele>578.59997558594</ele>
        <time>2024-11-15T18:28:30.000Z</time>
      </trkpt>
      <trkpt lat="45.85348" lon="3.56052">
        <ele>578.79998779297</ele>
        <time>2024-11-15T18:28:31.000Z</time>
      </trkpt>
      <trkpt lat="45.85348" lon="3.56053">
        <ele>579</ele>
        <time>2024-11-15T18:28:32.000Z</time>
      </trkpt>
      <trkpt lat="45.85348" lon="3.56055">
        <ele>579.20001220703</ele>
        <time>2024-11-15T18:28:33.000Z</time>
      </trkpt>
      <trkpt lat="45.85348" lon="3.56057">
        <ele>579.40002441406</ele>
        <time>2024-11-15T18:28:34.000Z</time>
      </trkpt>
      <trkpt lat="45.85348" lon="3.56058">
        <ele>579.59997558594</ele>
        <time>2024-11-15T18:28:35.000Z</time>
      </trkpt>
      <trkpt lat="45.85348" lon="3.56059">
        <ele>579.79998779297</ele>
        <time>2024-11-15T18:28:36.000Z</time>
      </trkpt>
      <trkpt lat="45.85348" lon="3.56061">
        <ele>580</ele>
        <time>2024-11-15T18:28:37.000Z</time>
      </trkpt>
      <trkpt lat="45.85347" lon="3.56063">
        <ele>580</ele>
        <time>2024-11-15T18:28:38.000Z</time>
      </trkpt>
      <trkpt lat="45.85347" lon="3.56064">
        <ele>580.40002441406</ele>
        <time>2024-11-15T18:28:39.000Z</time>
      </trkpt>
      <trkpt lat="45.85347" lon="3.56065">
        <ele>580.59997558594</ele>
        <time>2024-11-15T18:28:40.000Z</time>
      </trkpt>
      <trkpt lat="45.85347" lon="3.56067">
        <ele>580.79998779297</ele>
        <time>2024-11-15T18:28:41.000Z</time>
      </trkpt>
      <trkpt lat="45.85347" lon="3.56068">
        <ele>581</ele>
        <time>2024-11-15T18:28:42.000Z</time>
      </trkpt>
      <trkpt lat="45.85347" lon="3.5607">
        <ele>581</ele>
        <time>2024-11-15T18:28:43.000Z</time>
      </trkpt>
      <trkpt lat="45.85347" lon="3.56071">
        <ele>581.20001220703</ele>
        <time>2024-11-15T18:28:44.000Z</time>
      </trkpt>
      <trkpt lat="45.85347" lon="3.56074">
        <ele>581.40002441406</ele>
        <time>2024-11-15T18:28:45.000Z</time>
      </trkpt>
      <trkpt lat="45.85348" lon="3.56076">
        <ele>581.79998779297</ele>
        <time>2024-11-15T18:28:46.000Z</time>
      </trkpt>
      <trkpt lat="45.85348" lon="3.56078">
        <ele>581.79998779297</ele>
        <time>2024-11-15T18:28:47.000Z</time>
      </trkpt>
      <trkpt lat="45.85348" lon="3.5608">
        <ele>582</ele>
        <time>2024-11-15T18:28:48.000Z</time>
      </trkpt>
      <trkpt lat="45.85348" lon="3.56082">
        <ele>582.20001220703</ele>
        <time>2024-11-15T18:28:49.000Z</time>
      </trkpt>
      <trkpt lat="45.85349" lon="3.56085">
        <ele>582.59997558594</ele>
        <time>2024-11-15T18:28:50.000Z</time>
      </trkpt>
      <trkpt lat="45.85349" lon="3.56087">
        <ele>582.79998779297</ele>
        <time>2024-11-15T18:28:51.000Z</time>
      </trkpt>
      <trkpt lat="45.85349" lon="3.56089">
        <ele>583.20001220703</ele>
        <time>2024-11-15T18:28:52.000Z</time>
      </trkpt>
      <trkpt lat="45.85349" lon="3.56091">
        <ele>583.40002441406</ele>
        <time>2024-11-15T18:28:53.000Z</time>
      </trkpt>
      <trkpt lat="45.8535" lon="3.56093">
        <ele>583.79998779297</ele>
        <time>2024-11-15T18:28:54.000Z</time>
      </trkpt>
      <trkpt lat="45.8535" lon="3.56095">
        <ele>584</ele>
        <time>2024-11-15T18:28:55.000Z</time>
      </trkpt>
      <trkpt lat="45.85351" lon="3.56096">
        <ele>584.20001220703</ele>
        <time>2024-11-15T18:28:56.000Z</time>
      </trkpt>
      <trkpt lat="45.85352" lon="3.56098">
        <ele>584.59997558594</ele>
        <time>2024-11-15T18:28:57.000Z</time>
      </trkpt>
      <trkpt lat="45.85353" lon="3.56099">
        <ele>585</ele>
        <time>2024-11-15T18:28:58.000Z</time>
      </trkpt>
      <trkpt lat="45.85353" lon="3.561">
        <ele>585.20001220703</ele>
        <time>2024-11-15T18:28:59.000Z</time>
      </trkpt>
      <trkpt lat="45.85354" lon="3.56101">
        <ele>585.59997558594</ele>
        <time>2024-11-15T18:29:00.000Z</time>
      </trkpt>
      <trkpt lat="45.85355" lon="3.56102">
        <ele>586</ele>
        <time>2024-11-15T18:29:01.000Z</time>
      </trkpt>
      <trkpt lat="45.85355" lon="3.56103">
        <ele>586.20001220703</ele>
        <time>2024-11-15T18:29:02.000Z</time>
      </trkpt>
      <trkpt lat="45.85356" lon="3.56104">
        <ele>586.20001220703</ele>
        <time>2024-11-15T18:29:03.000Z</time>
      </trkpt>
      <trkpt lat="45.85357" lon="3.56105">
        <ele>586.59997558594</ele>
        <time>2024-11-15T18:29:04.000Z</time>
      </trkpt>
      <trkpt lat="45.85357" lon="3.56106">
        <ele>586.59997558594</ele>
        <time>2024-11-15T18:29:05.000Z</time>
      </trkpt>
      <trkpt lat="45.85358" lon="3.56107">
        <ele>586.79998779297</ele>
        <time>2024-11-15T18:29:06.000Z</time>
      </trkpt>
      <trkpt lat="45.85358" lon="3.56108">
        <ele>587</ele>
        <time>2024-11-15T18:29:07.000Z</time>
      </trkpt>
      <trkpt lat="45.85359" lon="3.56109">
        <ele>587.20001220703</ele>
        <time>2024-11-15T18:29:08.000Z</time>
      </trkpt>
      <trkpt lat="45.8536" lon="3.5611">
        <ele>587.40002441406</ele>
        <time>2024-11-15T18:29:09.000Z</time>
      </trkpt>
      <trkpt lat="45.8536" lon="3.56111">
        <ele>587.40002441406</ele>
        <time>2024-11-15T18:29:10.000Z</time>
      </trkpt>
      <trkpt lat="45.85361" lon="3.56113">
        <ele>587.59997558594</ele>
        <time>2024-11-15T18:29:11.000Z</time>
      </trkpt>
      <trkpt lat="45.85362" lon="3.56114">
        <ele>587.79998779297</ele>
        <time>2024-11-15T18:29:12.000Z</time>
      </trkpt>
      <trkpt lat="45.85362" lon="3.56115">
        <ele>588</ele>
        <time>2024-11-15T18:29:13.000Z</time>
      </trkpt>
      <trkpt lat="45.85363" lon="3.56116">
        <ele>588.40002441406</ele>
        <time>2024-11-15T18:29:14.000Z</time>
      </trkpt>
      <trkpt lat="45.85364" lon="3.56117">
        <ele>588.79998779297</ele>
        <time>2024-11-15T18:29:15.000Z</time>
      </trkpt>
      <trkpt lat="45.85364" lon="3.56118">
        <ele>588.79998779297</ele>
        <time>2024-11-15T18:29:16.000Z</time>
      </trkpt>
      <trkpt lat="45.85365" lon="3.56119">
        <ele>589</ele>
        <time>2024-11-15T18:29:17.000Z</time>
      </trkpt>
      <trkpt lat="45.85365" lon="3.5612">
        <ele>589.20001220703</ele>
        <time>2024-11-15T18:29:18.000Z</time>
      </trkpt>
      <trkpt lat="45.85366" lon="3.5612">
        <ele>589.40002441406</ele>
        <time>2024-11-15T18:29:19.000Z</time>
      </trkpt>
      <trkpt lat="45.85366" lon="3.56121">
        <ele>589.59997558594</ele>
        <time>2024-11-15T18:29:20.000Z</time>
      </trkpt>
      <trkpt lat="45.85367" lon="3.56122">
        <ele>589.59997558594</ele>
        <time>2024-11-15T18:29:21.000Z</time>
      </trkpt>
      <trkpt lat="45.85368" lon="3.56122">
        <ele>589.79998779297</ele>
        <time>2024-11-15T18:29:22.000Z</time>
      </trkpt>
      <trkpt lat="45.85369" lon="3.56123">
        <ele>590</ele>
        <time>2024-11-15T18:29:23.000Z</time>
      </trkpt>
      <trkpt lat="45.85369" lon="3.56124">
        <ele>590</ele>
        <time>2024-11-15T18:29:24.000Z</time>
      </trkpt>
      <trkpt lat="45.8537" lon="3.56125">
        <ele>590.20001220703</ele>
        <time>2024-11-15T18:29:25.000Z</time>
      </trkpt>
      <trkpt lat="45.85371" lon="3.56126">
        <ele>590.59997558594</ele>
        <time>2024-11-15T18:29:26.000Z</time>
      </trkpt>
      <trkpt lat="45.85371" lon="3.56127">
        <ele>590.59997558594</ele>
        <time>2024-11-15T18:29:27.000Z</time>
      </trkpt>
      <trkpt lat="45.85372" lon="3.56127">
        <ele>591</ele>
        <time>2024-11-15T18:29:28.000Z</time>
      </trkpt>
      <trkpt lat="45.85373" lon="3.56128">
        <ele>591.20001220703</ele>
        <time>2024-11-15T18:29:29.000Z</time>
      </trkpt>
      <trkpt lat="45.85373" lon="3.56129">
        <ele>591.40002441406</ele>
        <time>2024-11-15T18:29:30.000Z</time>
      </trkpt>
      <trkpt lat="45.85374" lon="3.5613">
        <ele>591.59997558594</ele>
        <time>2024-11-15T18:29:31.000Z</time>
      </trkpt>
      <trkpt lat="45.85375" lon="3.56132">
        <ele>591.79998779297</ele>
        <time>2024-11-15T18:29:32.000Z</time>
      </trkpt>
      <trkpt lat="45.85375" lon="3.56133">
        <ele>592.20001220703</ele>
        <time>2024-11-15T18:29:33.000Z</time>
      </trkpt>
      <trkpt lat="45.85376" lon="3.56134">
        <ele>592.59997558594</ele>
        <time>2024-11-15T18:29:34.000Z</time>
      </trkpt>
      <trkpt lat="45.85376" lon="3.56136">
        <ele>592.79998779297</ele>
        <time>2024-11-15T18:29:35.000Z</time>
      </trkpt>
      <trkpt lat="45.85376" lon="3.56137">
        <ele>593</ele>
        <time>2024-11-15T18:29:36.000Z</time>
      </trkpt>
      <trkpt lat="45.85377" lon="3.56139">
        <ele>593.40002441406</ele>
        <time>2024-11-15T18:29:37.000Z</time>
      </trkpt>
      <trkpt lat="45.85377" lon="3.56141">
        <ele>593.40002441406</ele>
        <time>2024-11-15T18:29:38.000Z</time>
      </trkpt>
      <trkpt lat="45.85377" lon="3.56142">
        <ele>593.59997558594</ele>
        <time>2024-11-15T18:29:39.000Z</time>
      </trkpt>
      <trkpt lat="45.85377" lon="3.56144">
        <ele>593.79998779297</ele>
        <time>2024-11-15T18:29:40.000Z</time>
      </trkpt>
      <trkpt lat="45.85377" lon="3.56146">
        <ele>593.79998779297</ele>
        <time>2024-11-15T18:29:41.000Z</time>
      </trkpt>
      <trkpt lat="45.85377" lon="3.56147">
        <ele>593.79998779297</ele>
        <time>2024-11-15T18:29:42.000Z</time>
      </trkpt>
      <trkpt lat="45.85377" lon="3.56149">
        <ele>594</ele>
        <time>2024-11-15T18:29:43.000Z</time>
      </trkpt>
      <trkpt lat="45.85377" lon="3.56151">
        <ele>594</ele>
        <time>2024-11-15T18:29:44.000Z</time>
      </trkpt>
      <trkpt lat="45.85377" lon="3.56153">
        <ele>594</ele>
        <time>2024-11-15T18:29:45.000Z</time>
      </trkpt>
      <trkpt lat="45.85378" lon="3.56154">
        <ele>594</ele>
        <time>2024-11-15T18:29:46.000Z</time>
      </trkpt>
      <trkpt lat="45.85378" lon="3.56156">
        <ele>594</ele>
        <time>2024-11-15T18:29:47.000Z</time>
      </trkpt>
      <trkpt lat="45.85378" lon="3.56157">
        <ele>594.20001220703</ele>
        <time>2024-11-15T18:29:48.000Z</time>
      </trkpt>
      <trkpt lat="45.85378" lon="3.56159">
        <ele>594.59997558594</ele>
        <time>2024-11-15T18:29:49.000Z</time>
      </trkpt>
      <trkpt lat="45.85378" lon="3.5616">
        <ele>594.79998779297</ele>
        <time>2024-11-15T18:29:50.000Z</time>
      </trkpt>
      <trkpt lat="45.85378" lon="3.56162">
        <ele>595</ele>
        <time>2024-11-15T18:29:51.000Z</time>
      </trkpt>
      <trkpt lat="45.85378" lon="3.56163">
        <ele>595.20001220703</ele>
        <time>2024-11-15T18:29:52.000Z</time>
      </trkpt>
      <trkpt lat="45.85378" lon="3.56165">
        <ele>595.20001220703</ele>
        <time>2024-11-15T18:29:53.000Z</time>
      </trkpt>
      <trkpt lat="45.85378" lon="3.56166">
        <ele>595.59997558594</ele>
        <time>2024-11-15T18:29:54.000Z</time>
      </trkpt>
      <trkpt lat="45.85378" lon="3.56168">
        <ele>595.79998779297</ele>
        <time>2024-11-15T18:29:55.000Z</time>
      </trkpt>
      <trkpt lat="45.85378" lon="3.56169">
        <ele>596</ele>
        <time>2024-11-15T18:29:56.000Z</time>
      </trkpt>
      <trkpt lat="45.85378" lon="3.56171">
        <ele>596.40002441406</ele>
        <time>2024-11-15T18:29:57.000Z</time>
      </trkpt>
      <trkpt lat="45.85379" lon="3.56173">
        <ele>596.59997558594</ele>
        <time>2024-11-15T18:29:58.000Z</time>
      </trkpt>
      <trkpt lat="45.85379" lon="3.56174">
        <ele>596.79998779297</ele>
        <time>2024-11-15T18:29:59.000Z</time>
      </trkpt>
      <trkpt lat="45.85379" lon="3.56175">
        <ele>596.79998779297</ele>
        <time>2024-11-15T18:30:00.000Z</time>
      </trkpt>
      <trkpt lat="45.85379" lon="3.56177">
        <ele>597</ele>
        <time>2024-11-15T18:30:01.000Z</time>
      </trkpt>
      <trkpt lat="45.85379" lon="3.56178">
        <ele>597.20001220703</ele>
        <time>2024-11-15T18:30:02.000Z</time>
      </trkpt>
      <trkpt lat="45.85379" lon="3.56179">
        <ele>597.59997558594</ele>
        <time>2024-11-15T18:30:03.000Z</time>
      </trkpt>
      <trkpt lat="45.85379" lon="3.56181">
        <ele>597.79998779297</ele>
        <time>2024-11-15T18:30:04.000Z</time>
      </trkpt>
      <trkpt lat="45.85379" lon="3.56182">
        <ele>598</ele>
        <time>2024-11-15T18:30:05.000Z</time>
      </trkpt>
      <trkpt lat="45.8538" lon="3.56183">
        <ele>598.20001220703</ele>
        <time>2024-11-15T18:30:06.000Z</time>
      </trkpt>
      <trkpt lat="45.8538" lon="3.56185">
        <ele>598.40002441406</ele>
        <time>2024-11-15T18:30:07.000Z</time>
      </trkpt>
      <trkpt lat="45.8538" lon="3.56186">
        <ele>598.59997558594</ele>
        <time>2024-11-15T18:30:08.000Z</time>
      </trkpt>
      <trkpt lat="45.8538" lon="3.56187">
        <ele>598.79998779297</ele>
        <time>2024-11-15T18:30:09.000Z</time>
      </trkpt>
      <trkpt lat="45.8538" lon="3.56189">
        <ele>599</ele>
        <time>2024-11-15T18:30:10.000Z</time>
      </trkpt>
      <trkpt lat="45.8538" lon="3.5619">
        <ele>599.20001220703</ele>
        <time>2024-11-15T18:30:11.000Z</time>
      </trkpt>
      <trkpt lat="45.8538" lon="3.56191">
        <ele>599.40002441406</ele>
        <time>2024-11-15T18:30:12.000Z</time>
      </trkpt>
      <trkpt lat="45.8538" lon="3.56193">
        <ele>599.79998779297</ele>
        <time>2024-11-15T18:30:13.000Z</time>
      </trkpt>
      <trkpt lat="45.8538" lon="3.56194">
        <ele>599.79998779297</ele>
        <time>2024-11-15T18:30:14.000Z</time>
      </trkpt>
      <trkpt lat="45.8538" lon="3.56195">
        <ele>600</ele>
        <time>2024-11-15T18:30:15.000Z</time>
      </trkpt>
      <trkpt lat="45.8538" lon="3.56196">
        <ele>600.20001220703</ele>
        <time>2024-11-15T18:30:16.000Z</time>
      </trkpt>
      <trkpt lat="45.8538" lon="3.56198">
        <ele>600.40002441406</ele>
        <time>2024-11-15T18:30:17.000Z</time>
      </trkpt>
      <trkpt lat="45.8538" lon="3.56199">
        <ele>600.59997558594</ele>
        <time>2024-11-15T18:30:18.000Z</time>
      </trkpt>
      <trkpt lat="45.85381" lon="3.56199">
        <ele>600.59997558594</ele>
        <time>2024-11-15T18:30:19.000Z</time>
      </trkpt>
      <trkpt lat="45.85381" lon="3.562">
        <ele>601</ele>
        <time>2024-11-15T18:30:20.000Z</time>
      </trkpt>
      <trkpt lat="45.85381" lon="3.56201">
        <ele>601.20001220703</ele>
        <time>2024-11-15T18:30:21.000Z</time>
      </trkpt>
      <trkpt lat="45.85381" lon="3.56202">
        <ele>601.20001220703</ele>
        <time>2024-11-15T18:30:22.000Z</time>
      </trkpt>
      <trkpt lat="45.85381" lon="3.56204">
        <ele>601.40002441406</ele>
        <time>2024-11-15T18:30:23.000Z</time>
      </trkpt>
      <trkpt lat="45.85382" lon="3.56205">
        <ele>601.79998779297</ele>
        <time>2024-11-15T18:30:24.000Z</time>
      </trkpt>
      <trkpt lat="45.85382" lon="3.56207">
        <ele>602</ele>
        <time>2024-11-15T18:30:25.000Z</time>
      </trkpt>
      <trkpt lat="45.85382" lon="3.56208">
        <ele>602.40002441406</ele>
        <time>2024-11-15T18:30:26.000Z</time>
      </trkpt>
      <trkpt lat="45.85383" lon="3.56209">
        <ele>602.40002441406</ele>
        <time>2024-11-15T18:30:27.000Z</time>
      </trkpt>
      <trkpt lat="45.85383" lon="3.5621">
        <ele>602.59997558594</ele>
        <time>2024-11-15T18:30:28.000Z</time>
      </trkpt>
      <trkpt lat="45.85383" lon="3.56211">
        <ele>602.79998779297</ele>
        <time>2024-11-15T18:30:29.000Z</time>
      </trkpt>
      <trkpt lat="45.85384" lon="3.56212">
        <ele>603</ele>
        <time>2024-11-15T18:30:30.000Z</time>
      </trkpt>
      <trkpt lat="45.85384" lon="3.56213">
        <ele>603.40002441406</ele>
        <time>2024-11-15T18:30:31.000Z</time>
      </trkpt>
      <trkpt lat="45.85384" lon="3.56214">
        <ele>603.59997558594</ele>
        <time>2024-11-15T18:30:32.000Z</time>
      </trkpt>
      <trkpt lat="45.85385" lon="3.56215">
        <ele>603.79998779297</ele>
        <time>2024-11-15T18:30:33.000Z</time>
      </trkpt>
      <trkpt lat="45.85386" lon="3.56215">
        <ele>604</ele>
        <time>2024-11-15T18:30:34.000Z</time>
      </trkpt>
      <trkpt lat="45.85386" lon="3.56216">
        <ele>604.20001220703</ele>
        <time>2024-11-15T18:30:35.000Z</time>
      </trkpt>
      <trkpt lat="45.85387" lon="3.56216">
        <ele>604.40002441406</ele>
        <time>2024-11-15T18:30:36.000Z</time>
      </trkpt>
      <trkpt lat="45.85388" lon="3.56217">
        <ele>604.79998779297</ele>
        <time>2024-11-15T18:30:37.000Z</time>
      </trkpt>
      <trkpt lat="45.85389" lon="3.56217">
        <ele>605.20001220703</ele>
        <time>2024-11-15T18:30:38.000Z</time>
      </trkpt>
      <trkpt lat="45.8539" lon="3.56217">
        <ele>605.40002441406</ele>
        <time>2024-11-15T18:30:39.000Z</time>
      </trkpt>
      <trkpt lat="45.85391" lon="3.56218">
        <ele>605.40002441406</ele>
        <time>2024-11-15T18:30:40.000Z</time>
      </trkpt>
      <trkpt lat="45.85392" lon="3.56218">
        <ele>605.79998779297</ele>
        <time>2024-11-15T18:30:41.000Z</time>
      </trkpt>
      <trkpt lat="45.85393" lon="3.56218">
        <ele>606.20001220703</ele>
        <time>2024-11-15T18:30:42.000Z</time>
      </trkpt>
      <trkpt lat="45.85394" lon="3.56218">
        <ele>606.20001220703</ele>
        <time>2024-11-15T18:30:43.000Z</time>
      </trkpt>
      <trkpt lat="45.85395" lon="3.56218">
        <ele>606.59997558594</ele>
        <time>2024-11-15T18:30:44.000Z</time>
      </trkpt>
      <trkpt lat="45.85396" lon="3.56218">
        <ele>606.79998779297</ele>
        <time>2024-11-15T18:30:45.000Z</time>
      </trkpt>
      <trkpt lat="45.85397" lon="3.56218">
        <ele>607</ele>
        <time>2024-11-15T18:30:46.000Z</time>
      </trkpt>
      <trkpt lat="45.85398" lon="3.56219">
        <ele>607.20001220703</ele>
        <time>2024-11-15T18:30:47.000Z</time>
      </trkpt>
      <trkpt lat="45.85398" lon="3.56219">
        <ele>607.40002441406</ele>
        <time>2024-11-15T18:30:48.000Z</time>
      </trkpt>
      <trkpt lat="45.85399" lon="3.56219">
        <ele>607.79998779297</ele>
        <time>2024-11-15T18:30:49.000Z</time>
      </trkpt>
      <trkpt lat="45.854" lon="3.56219">
        <ele>608</ele>
        <time>2024-11-15T18:30:50.000Z</time>
      </trkpt>
      <trkpt lat="45.85401" lon="3.56219">
        <ele>608.20001220703</ele>
        <time>2024-11-15T18:30:51.000Z</time>
      </trkpt>
      <trkpt lat="45.85402" lon="3.56219">
        <ele>608.40002441406</ele>
        <time>2024-11-15T18:30:52.000Z</time>
      </trkpt>
      <trkpt lat="45.85403" lon="3.56219">
        <ele>608.59997558594</ele>
        <time>2024-11-15T18:30:53.000Z</time>
      </trkpt>
      <trkpt lat="45.85404" lon="3.5622">
        <ele>608.79998779297</ele>
        <time>2024-11-15T18:30:54.000Z</time>
      </trkpt>
      <trkpt lat="45.85404" lon="3.5622">
        <ele>609</ele>
        <time>2024-11-15T18:30:55.000Z</time>
      </trkpt>
      <trkpt lat="45.85405" lon="3.5622">
        <ele>609.40002441406</ele>
        <time>2024-11-15T18:30:56.000Z</time>
      </trkpt>
      <trkpt lat="45.85406" lon="3.5622">
        <ele>609.40002441406</ele>
        <time>2024-11-15T18:30:57.000Z</time>
      </trkpt>
      <trkpt lat="45.85407" lon="3.5622">
        <ele>609.40002441406</ele>
        <time>2024-11-15T18:30:58.000Z</time>
      </trkpt>
      <trkpt lat="45.85408" lon="3.5622">
        <ele>609.59997558594</ele>
        <time>2024-11-15T18:30:59.000Z</time>
      </trkpt>
      <trkpt lat="45.85409" lon="3.5622">
        <ele>609.79998779297</ele>
        <time>2024-11-15T18:31:00.000Z</time>
      </trkpt>
      <trkpt lat="45.8541" lon="3.5622">
        <ele>610.20001220703</ele>
        <time>2024-11-15T18:31:01.000Z</time>
      </trkpt>
      <trkpt lat="45.85411" lon="3.56221">
        <ele>610.59997558594</ele>
        <time>2024-11-15T18:31:02.000Z</time>
      </trkpt>
      <trkpt lat="45.85413" lon="3.56221">
        <ele>610.79998779297</ele>
        <time>2024-11-15T18:31:03.000Z</time>
      </trkpt>
      <trkpt lat="45.85414" lon="3.56221">
        <ele>611</ele>
        <time>2024-11-15T18:31:04.000Z</time>
      </trkpt>
      <trkpt lat="45.85415" lon="3.56221">
        <ele>611</ele>
        <time>2024-11-15T18:31:05.000Z</time>
      </trkpt>
      <trkpt lat="45.85416" lon="3.56221">
        <ele>611.20001220703</ele>
        <time>2024-11-15T18:31:06.000Z</time>
      </trkpt>
      <trkpt lat="45.85417" lon="3.56221">
        <ele>611.59997558594</ele>
        <time>2024-11-15T18:31:07.000Z</time>
      </trkpt>
      <trkpt lat="45.85418" lon="3.56221">
        <ele>612</ele>
        <time>2024-11-15T18:31:08.000Z</time>
      </trkpt>
      <trkpt lat="45.85419" lon="3.56222">
        <ele>612</ele>
        <time>2024-11-15T18:31:09.000Z</time>
      </trkpt>
      <trkpt lat="45.8542" lon="3.56222">
        <ele>612.20001220703</ele>
        <time>2024-11-15T18:31:10.000Z</time>
      </trkpt>
      <trkpt lat="45.85422" lon="3.56222">
        <ele>612.40002441406</ele>
        <time>2024-11-15T18:31:11.000Z</time>
      </trkpt>
      <trkpt lat="45.85423" lon="3.56222">
        <ele>612.59997558594</ele>
        <time>2024-11-15T18:31:12.000Z</time>
      </trkpt>
      <trkpt lat="45.85424" lon="3.56222">
        <ele>612.79998779297</ele>
        <time>2024-11-15T18:31:13.000Z</time>
      </trkpt>
      <trkpt lat="45.85425" lon="3.56223">
        <ele>613</ele>
        <time>2024-11-15T18:31:14.000Z</time>
      </trkpt>
      <trkpt lat="45.85426" lon="3.56223">
        <ele>613.20001220703</ele>
        <time>2024-11-15T18:31:15.000Z</time>
      </trkpt>
      <trkpt lat="45.85427" lon="3.56223">
        <ele>613.40002441406</ele>
        <time>2024-11-15T18:31:16.000Z</time>
      </trkpt>
      <trkpt lat="45.85428" lon="3.56224">
        <ele>613.59997558594</ele>
        <time>2024-11-15T18:31:17.000Z</time>
      </trkpt>
      <trkpt lat="45.85429" lon="3.56224">
        <ele>613.79998779297</ele>
        <time>2024-11-15T18:31:18.000Z</time>
      </trkpt>
      <trkpt lat="45.85431" lon="3.56225">
        <ele>614</ele>
        <time>2024-11-15T18:31:19.000Z</time>
      </trkpt>
      <trkpt lat="45.85432" lon="3.56225">
        <ele>614.20001220703</ele>
        <time>2024-11-15T18:31:20.000Z</time>
      </trkpt>
      <trkpt lat="45.85433" lon="3.56226">
        <ele>614.20001220703</ele>
        <time>2024-11-15T18:31:21.000Z</time>
      </trkpt>
      <trkpt lat="45.85434" lon="3.56226">
        <ele>614.59997558594</ele>
        <time>2024-11-15T18:31:22.000Z</time>
      </trkpt>
      <trkpt lat="45.85435" lon="3.56227">
        <ele>614.79998779297</ele>
        <time>2024-11-15T18:31:23.000Z</time>
      </trkpt>
      <trkpt lat="45.85436" lon="3.56227">
        <ele>614.79998779297</ele>
        <time>2024-11-15T18:31:24.000Z</time>
      </trkpt>
      <trkpt lat="45.85438" lon="3.56228">
        <ele>615</ele>
        <time>2024-11-15T18:31:25.000Z</time>
      </trkpt>
      <trkpt lat="45.85439" lon="3.56228">
        <ele>615.40002441406</ele>
        <time>2024-11-15T18:31:26.000Z</time>
      </trkpt>
      <trkpt lat="45.8544" lon="3.56229">
        <ele>615.59997558594</ele>
        <time>2024-11-15T18:31:27.000Z</time>
      </trkpt>
      <trkpt lat="45.85441" lon="3.5623">
        <ele>616</ele>
        <time>2024-11-15T18:31:28.000Z</time>
      </trkpt>
      <trkpt lat="45.85442" lon="3.5623">
        <ele>616</ele>
        <time>2024-11-15T18:31:29.000Z</time>
      </trkpt>
      <trkpt lat="45.85444" lon="3.56231">
        <ele>616.20001220703</ele>
        <time>2024-11-15T18:31:30.000Z</time>
      </trkpt>
      <trkpt lat="45.85445" lon="3.56232">
        <ele>616.20001220703</ele>
        <time>2024-11-15T18:31:31.000Z</time>
      </trkpt>
      <trkpt lat="45.85446" lon="3.56232">
        <ele>616.40002441406</ele>
        <time>2024-11-15T18:31:32.000Z</time>
      </trkpt>
      <trkpt lat="45.85447" lon="3.56233">
        <ele>616.59997558594</ele>
        <time>2024-11-15T18:31:33.000Z</time>
      </trkpt>
      <trkpt lat="45.85448" lon="3.56233">
        <ele>616.79998779297</ele>
        <time>2024-11-15T18:31:34.000Z</time>
      </trkpt>
      <trkpt lat="45.8545" lon="3.56234">
        <ele>617</ele>
        <time>2024-11-15T18:31:35.000Z</time>
      </trkpt>
      <trkpt lat="45.85451" lon="3.56235">
        <ele>617.20001220703</ele>
        <time>2024-11-15T18:31:36.000Z</time>
      </trkpt>
      <trkpt lat="45.85452" lon="3.56236">
        <ele>617.40002441406</ele>
        <time>2024-11-15T18:31:37.000Z</time>
      </trkpt>
      <trkpt lat="45.85453" lon="3.56236">
        <ele>617.59997558594</ele>
        <time>2024-11-15T18:31:38.000Z</time>
      </trkpt>
      <trkpt lat="45.85455" lon="3.56237">
        <ele>617.59997558594</ele>
        <time>2024-11-15T18:31:39.000Z</time>
      </trkpt>
      <trkpt lat="45.85456" lon="3.56238">
        <ele>617.79998779297</ele>
        <time>2024-11-15T18:31:40.000Z</time>
      </trkpt>
      <trkpt lat="45.85457" lon="3.56239">
        <ele>618</ele>
        <time>2024-11-15T18:31:41.000Z</time>
      </trkpt>
      <trkpt lat="45.85458" lon="3.5624">
        <ele>618</ele>
        <time>2024-11-15T18:31:42.000Z</time>
      </trkpt>
      <trkpt lat="45.85459" lon="3.56241">
        <ele>618.20001220703</ele>
        <time>2024-11-15T18:31:43.000Z</time>
      </trkpt>
      <trkpt lat="45.85461" lon="3.56242">
        <ele>618.20001220703</ele>
        <time>2024-11-15T18:31:44.000Z</time>
      </trkpt>
      <trkpt lat="45.85462" lon="3.56244">
        <ele>618.59997558594</ele>
        <time>2024-11-15T18:31:45.000Z</time>
      </trkpt>
      <trkpt lat="45.85463" lon="3.56245">
        <ele>618.79998779297</ele>
        <time>2024-11-15T18:31:46.000Z</time>
      </trkpt>
      <trkpt lat="45.85465" lon="3.56246">
        <ele>619</ele>
        <time>2024-11-15T18:31:47.000Z</time>
      </trkpt>
      <trkpt lat="45.85466" lon="3.56247">
        <ele>619.20001220703</ele>
        <time>2024-11-15T18:31:48.000Z</time>
      </trkpt>
      <trkpt lat="45.85467" lon="3.56248">
        <ele>619.20001220703</ele>
        <time>2024-11-15T18:31:49.000Z</time>
      </trkpt>
      <trkpt lat="45.85468" lon="3.56249">
        <ele>619.20001220703</ele>
        <time>2024-11-15T18:31:50.000Z</time>
      </trkpt>
      <trkpt lat="45.8547" lon="3.56251">
        <ele>619.40002441406</ele>
        <time>2024-11-15T18:31:51.000Z</time>
      </trkpt>
      <trkpt lat="45.85471" lon="3.56252">
        <ele>619.40002441406</ele>
        <time>2024-11-15T18:31:52.000Z</time>
      </trkpt>
      <trkpt lat="45.85472" lon="3.56253">
        <ele>619.59997558594</ele>
        <time>2024-11-15T18:31:53.000Z</time>
      </trkpt>
      <trkpt lat="45.85473" lon="3.56255">
        <ele>619.59997558594</ele>
        <time>2024-11-15T18:31:54.000Z</time>
      </trkpt>
      <trkpt lat="45.85474" lon="3.56256">
        <ele>619.79998779297</ele>
        <time>2024-11-15T18:31:55.000Z</time>
      </trkpt>
      <trkpt lat="45.85475" lon="3.56257">
        <ele>620</ele>
        <time>2024-11-15T18:31:56.000Z</time>
      </trkpt>
      <trkpt lat="45.85476" lon="3.56258">
        <ele>620</ele>
        <time>2024-11-15T18:31:57.000Z</time>
      </trkpt>
      <trkpt lat="45.85477" lon="3.5626">
        <ele>620.40002441406</ele>
        <time>2024-11-15T18:31:58.000Z</time>
      </trkpt>
      <trkpt lat="45.85478" lon="3.56261">
        <ele>620.59997558594</ele>
        <time>2024-11-15T18:31:59.000Z</time>
      </trkpt>
      <trkpt lat="45.85479" lon="3.56262">
        <ele>620.79998779297</ele>
        <time>2024-11-15T18:32:00.000Z</time>
      </trkpt>
      <trkpt lat="45.85479" lon="3.56264">
        <ele>621</ele>
        <time>2024-11-15T18:32:01.000Z</time>
      </trkpt>
      <trkpt lat="45.8548" lon="3.56265">
        <ele>621.20001220703</ele>
        <time>2024-11-15T18:32:02.000Z</time>
      </trkpt>
      <trkpt lat="45.85481" lon="3.56267">
        <ele>621.20001220703</ele>
        <time>2024-11-15T18:32:03.000Z</time>
      </trkpt>
      <trkpt lat="45.85482" lon="3.56268">
        <ele>621.40002441406</ele>
        <time>2024-11-15T18:32:04.000Z</time>
      </trkpt>
      <trkpt lat="45.85483" lon="3.5627">
        <ele>621.40002441406</ele>
        <time>2024-11-15T18:32:05.000Z</time>
      </trkpt>
      <trkpt lat="45.85484" lon="3.56272">
        <ele>621.59997558594</ele>
        <time>2024-11-15T18:32:06.000Z</time>
      </trkpt>
      <trkpt lat="45.85485" lon="3.56273">
        <ele>621.79998779297</ele>
        <time>2024-11-15T18:32:07.000Z</time>
      </trkpt>
      <trkpt lat="45.85486" lon="3.56275">
        <ele>622</ele>
        <time>2024-11-15T18:32:08.000Z</time>
      </trkpt>
      <trkpt lat="45.85487" lon="3.56276">
        <ele>622</ele>
        <time>2024-11-15T18:32:09.000Z</time>
      </trkpt>
      <trkpt lat="45.85488" lon="3.56278">
        <ele>622.40002441406</ele>
        <time>2024-11-15T18:32:10.000Z</time>
      </trkpt>
      <trkpt lat="45.85489" lon="3.56279">
        <ele>622.40002441406</ele>
        <time>2024-11-15T18:32:11.000Z</time>
      </trkpt>
      <trkpt lat="45.8549" lon="3.56281">
        <ele>622.59997558594</ele>
        <time>2024-11-15T18:32:12.000Z</time>
      </trkpt>
      <trkpt lat="45.85491" lon="3.56283">
        <ele>622.79998779297</ele>
        <time>2024-11-15T18:32:13.000Z</time>
      </trkpt>
      <trkpt lat="45.85492" lon="3.56284">
        <ele>623</ele>
        <time>2024-11-15T18:32:14.000Z</time>
      </trkpt>
      <trkpt lat="45.85492" lon="3.56286">
        <ele>623</ele>
        <time>2024-11-15T18:32:15.000Z</time>
      </trkpt>
      <trkpt lat="45.85493" lon="3.56287">
        <ele>623.20001220703</ele>
        <time>2024-11-15T18:32:16.000Z</time>
      </trkpt>
      <trkpt lat="45.85494" lon="3.56289">
        <ele>623.20001220703</ele>
        <time>2024-11-15T18:32:17.000Z</time>
      </trkpt>
      <trkpt lat="45.85495" lon="3.5629">
        <ele>623.59997558594</ele>
        <time>2024-11-15T18:32:18.000Z</time>
      </trkpt>
      <trkpt lat="45.85495" lon="3.56292">
        <ele>623.59997558594</ele>
        <time>2024-11-15T18:32:19.000Z</time>
      </trkpt>
      <trkpt lat="45.85496" lon="3.56293">
        <ele>623.79998779297</ele>
        <time>2024-11-15T18:32:20.000Z</time>
      </trkpt>
      <trkpt lat="45.85497" lon="3.56295">
        <ele>624</ele>
        <time>2024-11-15T18:32:21.000Z</time>
      </trkpt>
      <trkpt lat="45.85497" lon="3.56297">
        <ele>624.20001220703</ele>
        <time>2024-11-15T18:32:22.000Z</time>
      </trkpt>
      <trkpt lat="45.85498" lon="3.56299">
        <ele>624.20001220703</ele>
        <time>2024-11-15T18:32:23.000Z</time>
      </trkpt>
      <trkpt lat="45.85499" lon="3.563">
        <ele>624.40002441406</ele>
        <time>2024-11-15T18:32:24.000Z</time>
      </trkpt>
      <trkpt lat="45.85499" lon="3.56302">
        <ele>624.40002441406</ele>
        <time>2024-11-15T18:32:25.000Z</time>
      </trkpt>
      <trkpt lat="45.855" lon="3.56304">
        <ele>624.59997558594</ele>
        <time>2024-11-15T18:32:26.000Z</time>
      </trkpt>
      <trkpt lat="45.85501" lon="3.56306">
        <ele>625</ele>
        <time>2024-11-15T18:32:27.000Z</time>
      </trkpt>
      <trkpt lat="45.85502" lon="3.56307">
        <ele>625.20001220703</ele>
        <time>2024-11-15T18:32:28.000Z</time>
      </trkpt>
      <trkpt lat="45.85502" lon="3.56309">
        <ele>625.40002441406</ele>
        <time>2024-11-15T18:32:29.000Z</time>
      </trkpt>
      <trkpt lat="45.85503" lon="3.56311">
        <ele>625.59997558594</ele>
        <time>2024-11-15T18:32:30.000Z</time>
      </trkpt>
      <trkpt lat="45.85504" lon="3.56312">
        <ele>625.79998779297</ele>
        <time>2024-11-15T18:32:31.000Z</time>
      </trkpt>
      <trkpt lat="45.85505" lon="3.56314">
        <ele>626</ele>
        <time>2024-11-15T18:32:32.000Z</time>
      </trkpt>
      <trkpt lat="45.85506" lon="3.56315">
        <ele>626</ele>
        <time>2024-11-15T18:32:33.000Z</time>
      </trkpt>
      <trkpt lat="45.85506" lon="3.56317">
        <ele>626.20001220703</ele>
        <time>2024-11-15T18:32:34.000Z</time>
      </trkpt>
      <trkpt lat="45.85507" lon="3.56318">
        <ele>626.40002441406</ele>
        <time>2024-11-15T18:32:35.000Z</time>
      </trkpt>
      <trkpt lat="45.85508" lon="3.56319">
        <ele>626.59997558594</ele>
        <time>2024-11-15T18:32:36.000Z</time>
      </trkpt>
      <trkpt lat="45.85508" lon="3.56321">
        <ele>626.79998779297</ele>
        <time>2024-11-15T18:32:37.000Z</time>
      </trkpt>
      <trkpt lat="45.85509" lon="3.56322">
        <ele>627</ele>
        <time>2024-11-15T18:32:38.000Z</time>
      </trkpt>
      <trkpt lat="45.8551" lon="3.56323">
        <ele>627.20001220703</ele>
        <time>2024-11-15T18:32:39.000Z</time>
      </trkpt>
      <trkpt lat="45.8551" lon="3.56325">
        <ele>627.40002441406</ele>
        <time>2024-11-15T18:32:40.000Z</time>
      </trkpt>
      <trkpt lat="45.85511" lon="3.56326">
        <ele>627.79998779297</ele>
        <time>2024-11-15T18:32:41.000Z</time>
      </trkpt>
      <trkpt lat="45.85512" lon="3.56328">
        <ele>627.79998779297</ele>
        <time>2024-11-15T18:32:42.000Z</time>
      </trkpt>
      <trkpt lat="45.85513" lon="3.5633">
        <ele>628</ele>
        <time>2024-11-15T18:32:43.000Z</time>
      </trkpt>
      <trkpt lat="45.85514" lon="3.56331">
        <ele>628.20001220703</ele>
        <time>2024-11-15T18:32:44.000Z</time>
      </trkpt>
      <trkpt lat="45.85515" lon="3.56333">
        <ele>628.40002441406</ele>
        <time>2024-11-15T18:32:45.000Z</time>
      </trkpt>
      <trkpt lat="45.85515" lon="3.56334">
        <ele>628.79998779297</ele>
        <time>2024-11-15T18:32:46.000Z</time>
      </trkpt>
      <trkpt lat="45.85516" lon="3.56336">
        <ele>628.79998779297</ele>
        <time>2024-11-15T18:32:47.000Z</time>
      </trkpt>
      <trkpt lat="45.85517" lon="3.56337">
        <ele>629</ele>
        <time>2024-11-15T18:32:48.000Z</time>
      </trkpt>
      <trkpt lat="45.85517" lon="3.56339">
        <ele>629.20001220703</ele>
        <time>2024-11-15T18:32:49.000Z</time>
      </trkpt>
      <trkpt lat="45.85518" lon="3.5634">
        <ele>629.40002441406</ele>
        <time>2024-11-15T18:32:50.000Z</time>
      </trkpt>
      <trkpt lat="45.85519" lon="3.56342">
        <ele>629.40002441406</ele>
        <time>2024-11-15T18:32:51.000Z</time>
      </trkpt>
      <trkpt lat="45.8552" lon="3.56343">
        <ele>629.79998779297</ele>
        <time>2024-11-15T18:32:52.000Z</time>
      </trkpt>
      <trkpt lat="45.8552" lon="3.56344">
        <ele>630</ele>
        <time>2024-11-15T18:32:53.000Z</time>
      </trkpt>
      <trkpt lat="45.85521" lon="3.56345">
        <ele>630.20001220703</ele>
        <time>2024-11-15T18:32:54.000Z</time>
      </trkpt>
      <trkpt lat="45.85522" lon="3.56346">
        <ele>630.40002441406</ele>
        <time>2024-11-15T18:32:55.000Z</time>
      </trkpt>
      <trkpt lat="45.85523" lon="3.56348">
        <ele>630.59997558594</ele>
        <time>2024-11-15T18:32:56.000Z</time>
      </trkpt>
      <trkpt lat="45.85523" lon="3.56349">
        <ele>630.79998779297</ele>
        <time>2024-11-15T18:32:57.000Z</time>
      </trkpt>
      <trkpt lat="45.85524" lon="3.5635">
        <ele>631</ele>
        <time>2024-11-15T18:32:58.000Z</time>
      </trkpt>
      <trkpt lat="45.85524" lon="3.56351">
        <ele>631.20001220703</ele>
        <time>2024-11-15T18:32:59.000Z</time>
      </trkpt>
      <trkpt lat="45.85525" lon="3.56352">
        <ele>631.40002441406</ele>
        <time>2024-11-15T18:33:00.000Z</time>
      </trkpt>
      <trkpt lat="45.85526" lon="3.56354">
        <ele>631.59997558594</ele>
        <time>2024-11-15T18:33:01.000Z</time>
      </trkpt>
      <trkpt lat="45.85527" lon="3.56355">
        <ele>631.79998779297</ele>
        <time>2024-11-15T18:33:02.000Z</time>
      </trkpt>
      <trkpt lat="45.85528" lon="3.56356">
        <ele>632.20001220703</ele>
        <time>2024-11-15T18:33:03.000Z</time>
      </trkpt>
      <trkpt lat="45.85529" lon="3.56357">
        <ele>632.40002441406</ele>
        <time>2024-11-15T18:33:04.000Z</time>
      </trkpt>
      <trkpt lat="45.85529" lon="3.56359">
        <ele>632.59997558594</ele>
        <time>2024-11-15T18:33:05.000Z</time>
      </trkpt>
      <trkpt lat="45.8553" lon="3.5636">
        <ele>633</ele>
        <time>2024-11-15T18:33:06.000Z</time>
      </trkpt>
      <trkpt lat="45.85531" lon="3.56361">
        <ele>633.20001220703</ele>
        <time>2024-11-15T18:33:07.000Z</time>
      </trkpt>
      <trkpt lat="45.85532" lon="3.56362">
        <ele>633.40002441406</ele>
        <time>2024-11-15T18:33:08.000Z</time>
      </trkpt>
      <trkpt lat="45.85533" lon="3.56363">
        <ele>633.59997558594</ele>
        <time>2024-11-15T18:33:09.000Z</time>
      </trkpt>
      <trkpt lat="45.85533" lon="3.56364">
        <ele>633.59997558594</ele>
        <time>2024-11-15T18:33:10.000Z</time>
      </trkpt>
      <trkpt lat="45.85534" lon="3.56365">
        <ele>634</ele>
        <time>2024-11-15T18:33:11.000Z</time>
      </trkpt>
      <trkpt lat="45.85535" lon="3.56366">
        <ele>634</ele>
        <time>2024-11-15T18:33:12.000Z</time>
      </trkpt>
      <trkpt lat="45.85535" lon="3.56368">
        <ele>634.20001220703</ele>
        <time>2024-11-15T18:33:13.000Z</time>
      </trkpt>
      <trkpt lat="45.85536" lon="3.56369">
        <ele>634.59997558594</ele>
        <time>2024-11-15T18:33:14.000Z</time>
      </trkpt>
      <trkpt lat="45.85537" lon="3.5637">
        <ele>635</ele>
        <time>2024-11-15T18:33:15.000Z</time>
      </trkpt>
      <trkpt lat="45.85538" lon="3.56372">
        <ele>635.20001220703</ele>
        <time>2024-11-15T18:33:16.000Z</time>
      </trkpt>
      <trkpt lat="45.85538" lon="3.56373">
        <ele>635.40002441406</ele>
        <time>2024-11-15T18:33:17.000Z</time>
      </trkpt>
      <trkpt lat="45.85539" lon="3.56374">
        <ele>635.59997558594</ele>
        <time>2024-11-15T18:33:18.000Z</time>
      </trkpt>
      <trkpt lat="45.8554" lon="3.56375">
        <ele>636</ele>
        <time>2024-11-15T18:33:19.000Z</time>
      </trkpt>
      <trkpt lat="45.85541" lon="3.56376">
        <ele>636.20001220703</ele>
        <time>2024-11-15T18:33:20.000Z</time>
      </trkpt>
      <trkpt lat="45.85542" lon="3.56377">
        <ele>636.40002441406</ele>
        <time>2024-11-15T18:33:21.000Z</time>
      </trkpt>
      <trkpt lat="45.85542" lon="3.56378">
        <ele>636.59997558594</ele>
        <time>2024-11-15T18:33:22.000Z</time>
      </trkpt>
      <trkpt lat="45.85543" lon="3.56379">
        <ele>636.79998779297</ele>
        <time>2024-11-15T18:33:23.000Z</time>
      </trkpt>
      <trkpt lat="45.85544" lon="3.5638">
        <ele>637</ele>
        <time>2024-11-15T18:33:24.000Z</time>
      </trkpt>
      <trkpt lat="45.85544" lon="3.56381">
        <ele>637.20001220703</ele>
        <time>2024-11-15T18:33:25.000Z</time>
      </trkpt>
      <trkpt lat="45.85545" lon="3.56382">
        <ele>637.40002441406</ele>
        <time>2024-11-15T18:33:26.000Z</time>
      </trkpt>
      <trkpt lat="45.85545" lon="3.56383">
        <ele>637.79998779297</ele>
        <time>2024-11-15T18:33:27.000Z</time>
      </trkpt>
      <trkpt lat="45.85546" lon="3.56384">
        <ele>638</ele>
        <time>2024-11-15T18:33:28.000Z</time>
      </trkpt>
      <trkpt lat="45.85547" lon="3.56385">
        <ele>638.20001220703</ele>
        <time>2024-11-15T18:33:29.000Z</time>
      </trkpt>
      <trkpt lat="45.85548" lon="3.56386">
        <ele>638.40002441406</ele>
        <time>2024-11-15T18:33:30.000Z</time>
      </trkpt>
      <trkpt lat="45.85548" lon="3.56387">
        <ele>638.59997558594</ele>
        <time>2024-11-15T18:33:31.000Z</time>
      </trkpt>
      <trkpt lat="45.85549" lon="3.56388">
        <ele>639</ele>
        <time>2024-11-15T18:33:32.000Z</time>
      </trkpt>
      <trkpt lat="45.85549" lon="3.56389">
        <ele>639.20001220703</ele>
        <time>2024-11-15T18:33:33.000Z</time>
      </trkpt>
      <trkpt lat="45.8555" lon="3.5639">
        <ele>639.20001220703</ele>
        <time>2024-11-15T18:33:34.000Z</time>
      </trkpt>
      <trkpt lat="45.85551" lon="3.56391">
        <ele>639.40002441406</ele>
        <time>2024-11-15T18:33:35.000Z</time>
      </trkpt>
      <trkpt lat="45.85551" lon="3.56392">
        <ele>639.59997558594</ele>
        <time>2024-11-15T18:33:36.000Z</time>
      </trkpt>
      <trkpt lat="45.85552" lon="3.56394">
        <ele>639.79998779297</ele>
        <time>2024-11-15T18:33:37.000Z</time>
      </trkpt>
      <trkpt lat="45.85553" lon="3.56395">
        <ele>640</ele>
        <time>2024-11-15T18:33:38.000Z</time>
      </trkpt>
      <trkpt lat="45.85554" lon="3.56396">
        <ele>640.40002441406</ele>
        <time>2024-11-15T18:33:39.000Z</time>
      </trkpt>
      <trkpt lat="45.85554" lon="3.56397">
        <ele>640.59997558594</ele>
        <time>2024-11-15T18:33:40.000Z</time>
      </trkpt>
      <trkpt lat="45.85555" lon="3.56399">
        <ele>640.79998779297</ele>
        <time>2024-11-15T18:33:41.000Z</time>
      </trkpt>
      <trkpt lat="45.85556" lon="3.564">
        <ele>641.20001220703</ele>
        <time>2024-11-15T18:33:42.000Z</time>
      </trkpt>
      <trkpt lat="45.85556" lon="3.56401">
        <ele>641.59997558594</ele>
        <time>2024-11-15T18:33:43.000Z</time>
      </trkpt>
      <trkpt lat="45.85557" lon="3.56402">
        <ele>641.79998779297</ele>
        <time>2024-11-15T18:33:44.000Z</time>
      </trkpt>
      <trkpt lat="45.85558" lon="3.56403">
        <ele>642</ele>
        <time>2024-11-15T18:33:45.000Z</time>
      </trkpt>
      <trkpt lat="45.85558" lon="3.56404">
        <ele>642.20001220703</ele>
        <time>2024-11-15T18:33:46.000Z</time>
      </trkpt>
      <trkpt lat="45.85559" lon="3.56405">
        <ele>642.40002441406</ele>
        <time>2024-11-15T18:33:47.000Z</time>
      </trkpt>
      <trkpt lat="45.8556" lon="3.56406">
        <ele>642.79998779297</ele>
        <time>2024-11-15T18:33:48.000Z</time>
      </trkpt>
      <trkpt lat="45.8556" lon="3.56407">
        <ele>642.79998779297</ele>
        <time>2024-11-15T18:33:49.000Z</time>
      </trkpt>
      <trkpt lat="45.85561" lon="3.56408">
        <ele>643</ele>
        <time>2024-11-15T18:33:50.000Z</time>
      </trkpt>
      <trkpt lat="45.85561" lon="3.56409">
        <ele>643.20001220703</ele>
        <time>2024-11-15T18:33:51.000Z</time>
      </trkpt>
      <trkpt lat="45.85562" lon="3.5641">
        <ele>643.40002441406</ele>
        <time>2024-11-15T18:33:52.000Z</time>
      </trkpt>
      <trkpt lat="45.85563" lon="3.56412">
        <ele>643.79998779297</ele>
        <time>2024-11-15T18:33:53.000Z</time>
      </trkpt>
      <trkpt lat="45.85563" lon="3.56413">
        <ele>644</ele>
        <time>2024-11-15T18:33:54.000Z</time>
      </trkpt>
      <trkpt lat="45.85564" lon="3.56414">
        <ele>644.40002441406</ele>
        <time>2024-11-15T18:33:55.000Z</time>
      </trkpt>
      <trkpt lat="45.85565" lon="3.56416">
        <ele>644.59997558594</ele>
        <time>2024-11-15T18:33:56.000Z</time>
      </trkpt>
      <trkpt lat="45.85565" lon="3.56417">
        <ele>644.79998779297</ele>
        <time>2024-11-15T18:33:57.000Z</time>
      </trkpt>
      <trkpt lat="45.85566" lon="3.56418">
        <ele>645.20001220703</ele>
        <time>2024-11-15T18:33:58.000Z</time>
      </trkpt>
      <trkpt lat="45.85567" lon="3.5642">
        <ele>645.59997558594</ele>
        <time>2024-11-15T18:33:59.000Z</time>
      </trkpt>
      <trkpt lat="45.85567" lon="3.56422">
        <ele>646</ele>
        <time>2024-11-15T18:34:00.000Z</time>
      </trkpt>
      <trkpt lat="45.85568" lon="3.56423">
        <ele>646.20001220703</ele>
        <time>2024-11-15T18:34:01.000Z</time>
      </trkpt>
      <trkpt lat="45.85569" lon="3.56425">
        <ele>646.59997558594</ele>
        <time>2024-11-15T18:34:02.000Z</time>
      </trkpt>
      <trkpt lat="45.85569" lon="3.56426">
        <ele>646.59997558594</ele>
        <time>2024-11-15T18:34:03.000Z</time>
      </trkpt>
      <trkpt lat="45.8557" lon="3.56428">
        <ele>646.79998779297</ele>
        <time>2024-11-15T18:34:04.000Z</time>
      </trkpt>
      <trkpt lat="45.8557" lon="3.56429">
        <ele>647</ele>
        <time>2024-11-15T18:34:05.000Z</time>
      </trkpt>
      <trkpt lat="45.85571" lon="3.56431">
        <ele>647.20001220703</ele>
        <time>2024-11-15T18:34:06.000Z</time>
      </trkpt>
      <trkpt lat="45.85571" lon="3.56432">
        <ele>647.40002441406</ele>
        <time>2024-11-15T18:34:07.000Z</time>
      </trkpt>
      <trkpt lat="45.85571" lon="3.56434">
        <ele>647.59997558594</ele>
        <time>2024-11-15T18:34:08.000Z</time>
      </trkpt>
      <trkpt lat="45.85572" lon="3.56435">
        <ele>647.59997558594</ele>
        <time>2024-11-15T18:34:09.000Z</time>
      </trkpt>
      <trkpt lat="45.85572" lon="3.56437">
        <ele>647.79998779297</ele>
        <time>2024-11-15T18:34:10.000Z</time>
      </trkpt>
      <trkpt lat="45.85572" lon="3.56439">
        <ele>648</ele>
        <time>2024-11-15T18:34:11.000Z</time>
      </trkpt>
      <trkpt lat="45.85572" lon="3.5644">
        <ele>648.40002441406</ele>
        <time>2024-11-15T18:34:12.000Z</time>
      </trkpt>
      <trkpt lat="45.85573" lon="3.56442">
        <ele>648.59997558594</ele>
        <time>2024-11-15T18:34:13.000Z</time>
      </trkpt>
      <trkpt lat="45.85573" lon="3.56444">
        <ele>648.79998779297</ele>
        <time>2024-11-15T18:34:14.000Z</time>
      </trkpt>
      <trkpt lat="45.85573" lon="3.56446">
        <ele>649.20001220703</ele>
        <time>2024-11-15T18:34:15.000Z</time>
      </trkpt>
      <trkpt lat="45.85573" lon="3.56447">
        <ele>649.40002441406</ele>
        <time>2024-11-15T18:34:16.000Z</time>
      </trkpt>
      <trkpt lat="45.85573" lon="3.56449">
        <ele>649.59997558594</ele>
        <time>2024-11-15T18:34:17.000Z</time>
      </trkpt>
      <trkpt lat="45.85573" lon="3.5645">
        <ele>649.79998779297</ele>
        <time>2024-11-15T18:34:18.000Z</time>
      </trkpt>
      <trkpt lat="45.85573" lon="3.56452">
        <ele>650.20001220703</ele>
        <time>2024-11-15T18:34:19.000Z</time>
      </trkpt>
      <trkpt lat="45.85573" lon="3.56453">
        <ele>650.40002441406</ele>
        <time>2024-11-15T18:34:20.000Z</time>
      </trkpt>
      <trkpt lat="45.85573" lon="3.56454">
        <ele>650.79998779297</ele>
        <time>2024-11-15T18:34:21.000Z</time>
      </trkpt>
      <trkpt lat="45.85573" lon="3.56456">
        <ele>651</ele>
        <time>2024-11-15T18:34:22.000Z</time>
      </trkpt>
      <trkpt lat="45.85573" lon="3.56457">
        <ele>651.20001220703</ele>
        <time>2024-11-15T18:34:23.000Z</time>
      </trkpt>
      <trkpt lat="45.85573" lon="3.56458">
        <ele>651.40002441406</ele>
        <time>2024-11-15T18:34:24.000Z</time>
      </trkpt>
      <trkpt lat="45.85573" lon="3.5646">
        <ele>651.59997558594</ele>
        <time>2024-11-15T18:34:25.000Z</time>
      </trkpt>
      <trkpt lat="45.85573" lon="3.56461">
        <ele>651.79998779297</ele>
        <time>2024-11-15T18:34:26.000Z</time>
      </trkpt>
      <trkpt lat="45.85573" lon="3.56463">
        <ele>652</ele>
        <time>2024-11-15T18:34:27.000Z</time>
      </trkpt>
      <trkpt lat="45.85573" lon="3.56465">
        <ele>652.20001220703</ele>
        <time>2024-11-15T18:34:28.000Z</time>
      </trkpt>
      <trkpt lat="45.85573" lon="3.56466">
        <ele>652.40002441406</ele>
        <time>2024-11-15T18:34:29.000Z</time>
      </trkpt>
      <trkpt lat="45.85573" lon="3.56468">
        <ele>652.79998779297</ele>
        <time>2024-11-15T18:34:30.000Z</time>
      </trkpt>
      <trkpt lat="45.85573" lon="3.56469">
        <ele>652.79998779297</ele>
        <time>2024-11-15T18:34:31.000Z</time>
      </trkpt>
      <trkpt lat="45.85573" lon="3.56471">
        <ele>653.20001220703</ele>
        <time>2024-11-15T18:34:32.000Z</time>
      </trkpt>
      <trkpt lat="45.85573" lon="3.56472">
        <ele>653.40002441406</ele>
        <time>2024-11-15T18:34:33.000Z</time>
      </trkpt>
      <trkpt lat="45.85573" lon="3.56473">
        <ele>653.79998779297</ele>
        <time>2024-11-15T18:34:34.000Z</time>
      </trkpt>
      <trkpt lat="45.85573" lon="3.56474">
        <ele>654.20001220703</ele>
        <time>2024-11-15T18:34:35.000Z</time>
      </trkpt>
      <trkpt lat="45.85573" lon="3.56475">
        <ele>654.40002441406</ele>
        <time>2024-11-15T18:34:36.000Z</time>
      </trkpt>
      <trkpt lat="45.85573" lon="3.56477">
        <ele>654.40002441406</ele>
        <time>2024-11-15T18:34:37.000Z</time>
      </trkpt>
      <trkpt lat="45.85573" lon="3.56478">
        <ele>654.59997558594</ele>
        <time>2024-11-15T18:34:38.000Z</time>
      </trkpt>
      <trkpt lat="45.85573" lon="3.5648">
        <ele>654.79998779297</ele>
        <time>2024-11-15T18:34:39.000Z</time>
      </trkpt>
      <trkpt lat="45.85573" lon="3.56481">
        <ele>655.20001220703</ele>
        <time>2024-11-15T18:34:40.000Z</time>
      </trkpt>
      <trkpt lat="45.85573" lon="3.56483">
        <ele>655.40002441406</ele>
        <time>2024-11-15T18:34:41.000Z</time>
      </trkpt>
      <trkpt lat="45.85573" lon="3.56484">
        <ele>655.59997558594</ele>
        <time>2024-11-15T18:34:42.000Z</time>
      </trkpt>
      <trkpt lat="45.85573" lon="3.56486">
        <ele>655.79998779297</ele>
        <time>2024-11-15T18:34:43.000Z</time>
      </trkpt>
      <trkpt lat="45.85573" lon="3.56487">
        <ele>656</ele>
        <time>2024-11-15T18:34:44.000Z</time>
      </trkpt>
      <trkpt lat="45.85573" lon="3.56489">
        <ele>656.40002441406</ele>
        <time>2024-11-15T18:34:45.000Z</time>
      </trkpt>
      <trkpt lat="45.85573" lon="3.5649">
        <ele>656.59997558594</ele>
        <time>2024-11-15T18:34:46.000Z</time>
      </trkpt>
      <trkpt lat="45.85573" lon="3.56492">
        <ele>656.79998779297</ele>
        <time>2024-11-15T18:34:47.000Z</time>
      </trkpt>
      <trkpt lat="45.85573" lon="3.56494">
        <ele>657</ele>
        <time>2024-11-15T18:34:48.000Z</time>
      </trkpt>
      <trkpt lat="45.85573" lon="3.56495">
        <ele>657.20001220703</ele>
        <time>2024-11-15T18:34:49.000Z</time>
      </trkpt>
      <trkpt lat="45.85573" lon="3.56497">
        <ele>657.20001220703</ele>
        <time>2024-11-15T18:34:50.000Z</time>
      </trkpt>
      <trkpt lat="45.85573" lon="3.56499">
        <ele>657.40002441406</ele>
        <time>2024-11-15T18:34:51.000Z</time>
      </trkpt>
      <trkpt lat="45.85572" lon="3.565">
        <ele>657.59997558594</ele>
        <time>2024-11-15T18:34:52.000Z</time>
      </trkpt>
      <trkpt lat="45.85572" lon="3.56502">
        <ele>657.59997558594</ele>
        <time>2024-11-15T18:34:53.000Z</time>
      </trkpt>
      <trkpt lat="45.85572" lon="3.56504">
        <ele>657.79998779297</ele>
        <time>2024-11-15T18:34:54.000Z</time>
      </trkpt>
      <trkpt lat="45.85572" lon="3.56505">
        <ele>658.20001220703</ele>
        <time>2024-11-15T18:34:55.000Z</time>
      </trkpt>
      <trkpt lat="45.85572" lon="3.56507">
        <ele>658.40002441406</ele>
        <time>2024-11-15T18:34:56.000Z</time>
      </trkpt>
      <trkpt lat="45.85572" lon="3.56509">
        <ele>658.40002441406</ele>
        <time>2024-11-15T18:34:57.000Z</time>
      </trkpt>
      <trkpt lat="45.85572" lon="3.56511">
        <ele>659</ele>
        <time>2024-11-15T18:34:58.000Z</time>
      </trkpt>
      <trkpt lat="45.85571" lon="3.56512">
        <ele>659.20001220703</ele>
        <time>2024-11-15T18:34:59.000Z</time>
      </trkpt>
      <trkpt lat="45.85571" lon="3.56514">
        <ele>659.20001220703</ele>
        <time>2024-11-15T18:35:00.000Z</time>
      </trkpt>
      <trkpt lat="45.85571" lon="3.56516">
        <ele>659.40002441406</ele>
        <time>2024-11-15T18:35:01.000Z</time>
      </trkpt>
      <trkpt lat="45.85571" lon="3.56518">
        <ele>659.59997558594</ele>
        <time>2024-11-15T18:35:02.000Z</time>
      </trkpt>
      <trkpt lat="45.8557" lon="3.56519">
        <ele>659.59997558594</ele>
        <time>2024-11-15T18:35:03.000Z</time>
      </trkpt>
      <trkpt lat="45.8557" lon="3.56521">
        <ele>659.79998779297</ele>
        <time>2024-11-15T18:35:04.000Z</time>
      </trkpt>
      <trkpt lat="45.8557" lon="3.56523">
        <ele>659.79998779297</ele>
        <time>2024-11-15T18:35:05.000Z</time>
      </trkpt>
      <trkpt lat="45.8557" lon="3.56525">
        <ele>660</ele>
        <time>2024-11-15T18:35:06.000Z</time>
      </trkpt>
      <trkpt lat="45.8557" lon="3.56526">
        <ele>660.20001220703</ele>
        <time>2024-11-15T18:35:07.000Z</time>
      </trkpt>
      <trkpt lat="45.85569" lon="3.56528">
        <ele>660.40002441406</ele>
        <time>2024-11-15T18:35:08.000Z</time>
      </trkpt>
      <trkpt lat="45.85569" lon="3.5653">
        <ele>660.59997558594</ele>
        <time>2024-11-15T18:35:09.000Z</time>
      </trkpt>
      <trkpt lat="45.85569" lon="3.56532">
        <ele>660.79998779297</ele>
        <time>2024-11-15T18:35:10.000Z</time>
      </trkpt>
      <trkpt lat="45.85569" lon="3.56534">
        <ele>660.79998779297</ele>
        <time>2024-11-15T18:35:11.000Z</time>
      </trkpt>
      <trkpt lat="45.85569" lon="3.56536">
        <ele>661</ele>
        <time>2024-11-15T18:35:12.000Z</time>
      </trkpt>
      <trkpt lat="45.85569" lon="3.56538">
        <ele>661</ele>
        <time>2024-11-15T18:35:13.000Z</time>
      </trkpt>
      <trkpt lat="45.85569" lon="3.56541">
        <ele>661.20001220703</ele>
        <time>2024-11-15T18:35:14.000Z</time>
      </trkpt>
      <trkpt lat="45.85568" lon="3.56543">
        <ele>661.20001220703</ele>
        <time>2024-11-15T18:35:15.000Z</time>
      </trkpt>
      <trkpt lat="45.85568" lon="3.56546">
        <ele>661.20001220703</ele>
        <time>2024-11-15T18:35:16.000Z</time>
      </trkpt>
      <trkpt lat="45.85568" lon="3.56549">
        <ele>661.20001220703</ele>
        <time>2024-11-15T18:35:17.000Z</time>
      </trkpt>
      <trkpt lat="45.85568" lon="3.56552">
        <ele>661.20001220703</ele>
        <time>2024-11-15T18:35:18.000Z</time>
      </trkpt>
      <trkpt lat="45.85568" lon="3.56555">
        <ele>661.40002441406</ele>
        <time>2024-11-15T18:35:19.000Z</time>
      </trkpt>
      <trkpt lat="45.85568" lon="3.56558">
        <ele>661.59997558594</ele>
        <time>2024-11-15T18:35:20.000Z</time>
      </trkpt>
      <trkpt lat="45.85568" lon="3.56561">
        <ele>661.79998779297</ele>
        <time>2024-11-15T18:35:21.000Z</time>
      </trkpt>
      <trkpt lat="45.85568" lon="3.56565">
        <ele>661.79998779297</ele>
        <time>2024-11-15T18:35:22.000Z</time>
      </trkpt>
      <trkpt lat="45.85568" lon="3.56568">
        <ele>661.79998779297</ele>
        <time>2024-11-15T18:35:23.000Z</time>
      </trkpt>
      <trkpt lat="45.85568" lon="3.56572">
        <ele>661.79998779297</ele>
        <time>2024-11-15T18:35:24.000Z</time>
      </trkpt>
      <trkpt lat="45.85568" lon="3.56575">
        <ele>661.79998779297</ele>
        <time>2024-11-15T18:35:25.000Z</time>
      </trkpt>
      <trkpt lat="45.85568" lon="3.56578">
        <ele>661.59997558594</ele>
        <time>2024-11-15T18:35:26.000Z</time>
      </trkpt>
      <trkpt lat="45.85569" lon="3.56582">
        <ele>661.40002441406</ele>
        <time>2024-11-15T18:35:27.000Z</time>
      </trkpt>
      <trkpt lat="45.85569" lon="3.56585">
        <ele>661.40002441406</ele>
        <time>2024-11-15T18:35:28.000Z</time>
      </trkpt>
      <trkpt lat="45.85569" lon="3.56588">
        <ele>661.20001220703</ele>
        <time>2024-11-15T18:35:29.000Z</time>
      </trkpt>
      <trkpt lat="45.85569" lon="3.56592">
        <ele>661</ele>
        <time>2024-11-15T18:35:30.000Z</time>
      </trkpt>
      <trkpt lat="45.85569" lon="3.56595">
        <ele>661</ele>
        <time>2024-11-15T18:35:31.000Z</time>
      </trkpt>
      <trkpt lat="45.85569" lon="3.56599">
        <ele>661</ele>
        <time>2024-11-15T18:35:32.000Z</time>
      </trkpt>
      <trkpt lat="45.85569" lon="3.56602">
        <ele>660.79998779297</ele>
        <time>2024-11-15T18:35:33.000Z</time>
      </trkpt>
      <trkpt lat="45.85569" lon="3.56606">
        <ele>660.59997558594</ele>
        <time>2024-11-15T18:35:34.000Z</time>
      </trkpt>
      <trkpt lat="45.85569" lon="3.56609">
        <ele>660.20001220703</ele>
        <time>2024-11-15T18:35:35.000Z</time>
      </trkpt>
      <trkpt lat="45.85569" lon="3.56613">
        <ele>659.59997558594</ele>
        <time>2024-11-15T18:35:36.000Z</time>
      </trkpt>
      <trkpt lat="45.85568" lon="3.56617">
        <ele>659.20001220703</ele>
        <time>2024-11-15T18:35:37.000Z</time>
      </trkpt>
      <trkpt lat="45.85568" lon="3.56621">
        <ele>659</ele>
        <time>2024-11-15T18:35:38.000Z</time>
      </trkpt>
      <trkpt lat="45.85568" lon="3.56625">
        <ele>658.59997558594</ele>
        <time>2024-11-15T18:35:39.000Z</time>
      </trkpt>
      <trkpt lat="45.85567" lon="3.56629">
        <ele>658</ele>
        <time>2024-11-15T18:35:40.000Z</time>
      </trkpt>
      <trkpt lat="45.85567" lon="3.56633">
        <ele>657.79998779297</ele>
        <time>2024-11-15T18:35:41.000Z</time>
      </trkpt>
      <trkpt lat="45.85566" lon="3.56637">
        <ele>657.59997558594</ele>
        <time>2024-11-15T18:35:42.000Z</time>
      </trkpt>
      <trkpt lat="45.85565" lon="3.56641">
        <ele>657.20001220703</ele>
        <time>2024-11-15T18:35:43.000Z</time>
      </trkpt>
      <trkpt lat="45.85565" lon="3.56645">
        <ele>656.79998779297</ele>
        <time>2024-11-15T18:35:44.000Z</time>
      </trkpt>
      <trkpt lat="45.85564" lon="3.56649">
        <ele>656.20001220703</ele>
        <time>2024-11-15T18:35:45.000Z</time>
      </trkpt>
      <trkpt lat="45.85563" lon="3.56653">
        <ele>655.79998779297</ele>
        <time>2024-11-15T18:35:46.000Z</time>
      </trkpt>
      <trkpt lat="45.85562" lon="3.56657">
        <ele>655</ele>
        <time>2024-11-15T18:35:47.000Z</time>
      </trkpt>
      <trkpt lat="45.85562" lon="3.56661">
        <ele>654.20001220703</ele>
        <time>2024-11-15T18:35:48.000Z</time>
      </trkpt>
      <trkpt lat="45.85561" lon="3.56665">
        <ele>653.59997558594</ele>
        <time>2024-11-15T18:35:49.000Z</time>
      </trkpt>
      <trkpt lat="45.8556" lon="3.56668">
        <ele>653</ele>
        <time>2024-11-15T18:35:50.000Z</time>
      </trkpt>
      <trkpt lat="45.8556" lon="3.56672">
        <ele>652.79998779297</ele>
        <time>2024-11-15T18:35:51.000Z</time>
      </trkpt>
      <trkpt lat="45.85559" lon="3.56676">
        <ele>652.40002441406</ele>
        <time>2024-11-15T18:35:52.000Z</time>
      </trkpt>
      <trkpt lat="45.85559" lon="3.56681">
        <ele>652.20001220703</ele>
        <time>2024-11-15T18:35:53.000Z</time>
      </trkpt>
      <trkpt lat="45.85559" lon="3.56685">
        <ele>652</ele>
        <time>2024-11-15T18:35:54.000Z</time>
      </trkpt>
      <trkpt lat="45.85559" lon="3.56689">
        <ele>651.59997558594</ele>
        <time>2024-11-15T18:35:55.000Z</time>
      </trkpt>
      <trkpt lat="45.8556" lon="3.56693">
        <ele>651.20001220703</ele>
        <time>2024-11-15T18:35:56.000Z</time>
      </trkpt>
      <trkpt lat="45.85561" lon="3.56697">
        <ele>650.59997558594</ele>
        <time>2024-11-15T18:35:57.000Z</time>
      </trkpt>
      <trkpt lat="45.85562" lon="3.567">
        <ele>649.79998779297</ele>
        <time>2024-11-15T18:35:58.000Z</time>
      </trkpt>
      <trkpt lat="45.85564" lon="3.56702">
        <ele>649.20001220703</ele>
        <time>2024-11-15T18:35:59.000Z</time>
      </trkpt>
      <trkpt lat="45.85567" lon="3.56705">
        <ele>648.79998779297</ele>
        <time>2024-11-15T18:36:00.000Z</time>
      </trkpt>
      <trkpt lat="45.85569" lon="3.56707">
        <ele>648.40002441406</ele>
        <time>2024-11-15T18:36:01.000Z</time>
      </trkpt>
      <trkpt lat="45.85571" lon="3.5671">
        <ele>647.79998779297</ele>
        <time>2024-11-15T18:36:02.000Z</time>
      </trkpt>
      <trkpt lat="45.85574" lon="3.56712">
        <ele>647</ele>
        <time>2024-11-15T18:36:03.000Z</time>
      </trkpt>
      <trkpt lat="45.85576" lon="3.56715">
        <ele>646.20001220703</ele>
        <time>2024-11-15T18:36:04.000Z</time>
      </trkpt>
      <trkpt lat="45.85578" lon="3.56718">
        <ele>646</ele>
        <time>2024-11-15T18:36:05.000Z</time>
      </trkpt>
      <trkpt lat="45.8558" lon="3.56721">
        <ele>645.40002441406</ele>
        <time>2024-11-15T18:36:06.000Z</time>
      </trkpt>
      <trkpt lat="45.85583" lon="3.56724">
        <ele>645</ele>
        <time>2024-11-15T18:36:07.000Z</time>
      </trkpt>
      <trkpt lat="45.85585" lon="3.56727">
        <ele>644.79998779297</ele>
        <time>2024-11-15T18:36:08.000Z</time>
      </trkpt>
      <trkpt lat="45.85587" lon="3.5673">
        <ele>644.40002441406</ele>
        <time>2024-11-15T18:36:09.000Z</time>
      </trkpt>
      <trkpt lat="45.85589" lon="3.56733">
        <ele>644</ele>
        <time>2024-11-15T18:36:10.000Z</time>
      </trkpt>
      <trkpt lat="45.85591" lon="3.56736">
        <ele>643.20001220703</ele>
        <time>2024-11-15T18:36:11.000Z</time>
      </trkpt>
      <trkpt lat="45.85592" lon="3.5674">
        <ele>642.79998779297</ele>
        <time>2024-11-15T18:36:12.000Z</time>
      </trkpt>
      <trkpt lat="45.85594" lon="3.56744">
        <ele>642.59997558594</ele>
        <time>2024-11-15T18:36:13.000Z</time>
      </trkpt>
      <trkpt lat="45.85596" lon="3.56748">
        <ele>642.40002441406</ele>
        <time>2024-11-15T18:36:14.000Z</time>
      </trkpt>
      <trkpt lat="45.85597" lon="3.56752">
        <ele>642.20001220703</ele>
        <time>2024-11-15T18:36:15.000Z</time>
      </trkpt>
      <trkpt lat="45.85598" lon="3.56756">
        <ele>641.59997558594</ele>
        <time>2024-11-15T18:36:16.000Z</time>
      </trkpt>
      <trkpt lat="45.85599" lon="3.56761">
        <ele>640.59997558594</ele>
        <time>2024-11-15T18:36:17.000Z</time>
      </trkpt>
      <trkpt lat="45.85599" lon="3.56765">
        <ele>640.20001220703</ele>
        <time>2024-11-15T18:36:18.000Z</time>
      </trkpt>
      <trkpt lat="45.856" lon="3.5677">
        <ele>639.59997558594</ele>
        <time>2024-11-15T18:36:19.000Z</time>
      </trkpt>
      <trkpt lat="45.856" lon="3.56774">
        <ele>639.40002441406</ele>
        <time>2024-11-15T18:36:20.000Z</time>
      </trkpt>
      <trkpt lat="45.856" lon="3.56779">
        <ele>638.79998779297</ele>
        <time>2024-11-15T18:36:21.000Z</time>
      </trkpt>
      <trkpt lat="45.856" lon="3.56783">
        <ele>638.20001220703</ele>
        <time>2024-11-15T18:36:22.000Z</time>
      </trkpt>
      <trkpt lat="45.85599" lon="3.56788">
        <ele>637.79998779297</ele>
        <time>2024-11-15T18:36:23.000Z</time>
      </trkpt>
      <trkpt lat="45.85599" lon="3.56792">
        <ele>637</ele>
        <time>2024-11-15T18:36:24.000Z</time>
      </trkpt>
      <trkpt lat="45.85598" lon="3.56796">
        <ele>636</ele>
        <time>2024-11-15T18:36:25.000Z</time>
      </trkpt>
      <trkpt lat="45.85597" lon="3.568">
        <ele>635.79998779297</ele>
        <time>2024-11-15T18:36:26.000Z</time>
      </trkpt>
      <trkpt lat="45.85596" lon="3.56805">
        <ele>635.59997558594</ele>
        <time>2024-11-15T18:36:27.000Z</time>
      </trkpt>
      <trkpt lat="45.85596" lon="3.56809">
        <ele>635.40002441406</ele>
        <time>2024-11-15T18:36:28.000Z</time>
      </trkpt>
      <trkpt lat="45.85595" lon="3.56813">
        <ele>635</ele>
        <time>2024-11-15T18:36:29.000Z</time>
      </trkpt>
      <trkpt lat="45.85594" lon="3.56817">
        <ele>634.79998779297</ele>
        <time>2024-11-15T18:36:30.000Z</time>
      </trkpt>
      <trkpt lat="45.85593" lon="3.56821">
        <ele>634.40002441406</ele>
        <time>2024-11-15T18:36:31.000Z</time>
      </trkpt>
      <trkpt lat="45.85593" lon="3.56825">
        <ele>634</ele>
        <time>2024-11-15T18:36:32.000Z</time>
      </trkpt>
      <trkpt lat="45.85592" lon="3.56829">
        <ele>633.59997558594</ele>
        <time>2024-11-15T18:36:33.000Z</time>
      </trkpt>
      <trkpt lat="45.85591" lon="3.56833">
        <ele>633.20001220703</ele>
        <time>2024-11-15T18:36:34.000Z</time>
      </trkpt>
      <trkpt lat="45.8559" lon="3.56837">
        <ele>632.59997558594</ele>
        <time>2024-11-15T18:36:35.000Z</time>
      </trkpt>
      <trkpt lat="45.85589" lon="3.56841">
        <ele>632.40002441406</ele>
        <time>2024-11-15T18:36:36.000Z</time>
      </trkpt>
      <trkpt lat="45.85588" lon="3.56844">
        <ele>632.40002441406</ele>
        <time>2024-11-15T18:36:37.000Z</time>
      </trkpt>
      <trkpt lat="45.85586" lon="3.56847">
        <ele>631.79998779297</ele>
        <time>2024-11-15T18:36:38.000Z</time>
      </trkpt>
      <trkpt lat="45.85584" lon="3.56849">
        <ele>631.59997558594</ele>
        <time>2024-11-15T18:36:39.000Z</time>
      </trkpt>
      <trkpt lat="45.85582" lon="3.56852">
        <ele>631.40002441406</ele>
        <time>2024-11-15T18:36:40.000Z</time>
      </trkpt>
      <trkpt lat="45.8558" lon="3.56854">
        <ele>631.20001220703</ele>
        <time>2024-11-15T18:36:41.000Z</time>
      </trkpt>
      <trkpt lat="45.85577" lon="3.56856">
        <ele>630.20001220703</ele>
        <time>2024-11-15T18:36:42.000Z</time>
      </trkpt>
      <trkpt lat="45.85574" lon="3.56858">
        <ele>629.40002441406</ele>
        <time>2024-11-15T18:36:43.000Z</time>
      </trkpt>
      <trkpt lat="45.85571" lon="3.56859">
        <ele>628.79998779297</ele>
        <time>2024-11-15T18:36:44.000Z</time>
      </trkpt>
      <trkpt lat="45.85568" lon="3.5686">
        <ele>628.20001220703</ele>
        <time>2024-11-15T18:36:45.000Z</time>
      </trkpt>
      <trkpt lat="45.85564" lon="3.56861">
        <ele>628</ele>
        <time>2024-11-15T18:36:46.000Z</time>
      </trkpt>
      <trkpt lat="45.85561" lon="3.56862">
        <ele>627.59997558594</ele>
        <time>2024-11-15T18:36:47.000Z</time>
      </trkpt>
      <trkpt lat="45.85558" lon="3.56864">
        <ele>627</ele>
        <time>2024-11-15T18:36:48.000Z</time>
      </trkpt>
      <trkpt lat="45.85556" lon="3.56866">
        <ele>626.79998779297</ele>
        <time>2024-11-15T18:36:49.000Z</time>
      </trkpt>
      <trkpt lat="45.85554" lon="3.56868">
        <ele>626</ele>
        <time>2024-11-15T18:36:50.000Z</time>
      </trkpt>
      <trkpt lat="45.85553" lon="3.56872">
        <ele>625.59997558594</ele>
        <time>2024-11-15T18:36:51.000Z</time>
      </trkpt>
      <trkpt lat="45.85553" lon="3.56875">
        <ele>625</ele>
        <time>2024-11-15T18:36:52.000Z</time>
      </trkpt>
      <trkpt lat="45.85553" lon="3.56879">
        <ele>624.79998779297</ele>
        <time>2024-11-15T18:36:53.000Z</time>
      </trkpt>
      <trkpt lat="45.85553" lon="3.56882">
        <ele>624.20001220703</ele>
        <time>2024-11-15T18:36:54.000Z</time>
      </trkpt>
      <trkpt lat="45.85554" lon="3.56885">
        <ele>623.79998779297</ele>
        <time>2024-11-15T18:36:55.000Z</time>
      </trkpt>
      <trkpt lat="45.85555" lon="3.56888">
        <ele>622.79998779297</ele>
        <time>2024-11-15T18:36:56.000Z</time>
      </trkpt>
      <trkpt lat="45.85557" lon="3.56891">
        <ele>622.40002441406</ele>
        <time>2024-11-15T18:36:57.000Z</time>
      </trkpt>
      <trkpt lat="45.85558" lon="3.56893">
        <ele>621.79998779297</ele>
        <time>2024-11-15T18:36:58.000Z</time>
      </trkpt>
      <trkpt lat="45.85559" lon="3.56896">
        <ele>621.59997558594</ele>
        <time>2024-11-15T18:36:59.000Z</time>
      </trkpt>
      <trkpt lat="45.85561" lon="3.56898">
        <ele>621.20001220703</ele>
        <time>2024-11-15T18:37:00.000Z</time>
      </trkpt>
      <trkpt lat="45.85562" lon="3.56901">
        <ele>620.59997558594</ele>
        <time>2024-11-15T18:37:01.000Z</time>
      </trkpt>
      <trkpt lat="45.85563" lon="3.56905">
        <ele>620.40002441406</ele>
        <time>2024-11-15T18:37:02.000Z</time>
      </trkpt>
      <trkpt lat="45.85565" lon="3.56908">
        <ele>619.79998779297</ele>
        <time>2024-11-15T18:37:03.000Z</time>
      </trkpt>
      <trkpt lat="45.85566" lon="3.56912">
        <ele>619.20001220703</ele>
        <time>2024-11-15T18:37:04.000Z</time>
      </trkpt>
      <trkpt lat="45.85567" lon="3.56916">
        <ele>618.79998779297</ele>
        <time>2024-11-15T18:37:05.000Z</time>
      </trkpt>
      <trkpt lat="45.85568" lon="3.5692">
        <ele>618.79998779297</ele>
        <time>2024-11-15T18:37:06.000Z</time>
      </trkpt>
      <trkpt lat="45.85568" lon="3.56924">
        <ele>618.20001220703</ele>
        <time>2024-11-15T18:37:07.000Z</time>
      </trkpt>
      <trkpt lat="45.85568" lon="3.56928">
        <ele>617.79998779297</ele>
        <time>2024-11-15T18:37:08.000Z</time>
      </trkpt>
      <trkpt lat="45.85568" lon="3.56932">
        <ele>617.40002441406</ele>
        <time>2024-11-15T18:37:09.000Z</time>
      </trkpt>
      <trkpt lat="45.85567" lon="3.56936">
        <ele>617.20001220703</ele>
        <time>2024-11-15T18:37:10.000Z</time>
      </trkpt>
      <trkpt lat="45.85566" lon="3.5694">
        <ele>616.79998779297</ele>
        <time>2024-11-15T18:37:11.000Z</time>
      </trkpt>
      <trkpt lat="45.85564" lon="3.56944">
        <ele>616.40002441406</ele>
        <time>2024-11-15T18:37:12.000Z</time>
      </trkpt>
      <trkpt lat="45.85562" lon="3.56947">
        <ele>616.20001220703</ele>
        <time>2024-11-15T18:37:13.000Z</time>
      </trkpt>
      <trkpt lat="45.8556" lon="3.56951">
        <ele>616</ele>
        <time>2024-11-15T18:37:14.000Z</time>
      </trkpt>
      <trkpt lat="45.85559" lon="3.56954">
        <ele>615.59997558594</ele>
        <time>2024-11-15T18:37:15.000Z</time>
      </trkpt>
      <trkpt lat="45.85557" lon="3.56958">
        <ele>615</ele>
        <time>2024-11-15T18:37:16.000Z</time>
      </trkpt>
      <trkpt lat="45.85555" lon="3.56961">
        <ele>614.20001220703</ele>
        <time>2024-11-15T18:37:17.000Z</time>
      </trkpt>
      <trkpt lat="45.85553" lon="3.56964">
        <ele>614</ele>
        <time>2024-11-15T18:37:18.000Z</time>
      </trkpt>
      <trkpt lat="45.85551" lon="3.56968">
        <ele>613.40002441406</ele>
        <time>2024-11-15T18:37:19.000Z</time>
      </trkpt>
      <trkpt lat="45.8555" lon="3.56971">
        <ele>613.20001220703</ele>
        <time>2024-11-15T18:37:20.000Z</time>
      </trkpt>
      <trkpt lat="45.85548" lon="3.56975">
        <ele>612.79998779297</ele>
        <time>2024-11-15T18:37:21.000Z</time>
      </trkpt>
      <trkpt lat="45.85546" lon="3.56979">
        <ele>612.59997558594</ele>
        <time>2024-11-15T18:37:22.000Z</time>
      </trkpt>
      <trkpt lat="45.85545" lon="3.56982">
        <ele>612.20001220703</ele>
        <time>2024-11-15T18:37:23.000Z</time>
      </trkpt>
      <trkpt lat="45.85543" lon="3.56986">
        <ele>611.79998779297</ele>
        <time>2024-11-15T18:37:24.000Z</time>
      </trkpt>
      <trkpt lat="45.85541" lon="3.5699">
        <ele>611.40002441406</ele>
        <time>2024-11-15T18:37:25.000Z</time>
      </trkpt>
      <trkpt lat="45.8554" lon="3.56994">
        <ele>611</ele>
        <time>2024-11-15T18:37:26.000Z</time>
      </trkpt>
      <trkpt lat="45.85538" lon="3.56997">
        <ele>610.79998779297</ele>
        <time>2024-11-15T18:37:27.000Z</time>
      </trkpt>
      <trkpt lat="45.85537" lon="3.57001">
        <ele>610.40002441406</ele>
        <time>2024-11-15T18:37:28.000Z</time>
      </trkpt>
      <trkpt lat="45.85536" lon="3.57005">
        <ele>610</ele>
        <time>2024-11-15T18:37:29.000Z</time>
      </trkpt>
      <trkpt lat="45.85534" lon="3.57009">
        <ele>609.59997558594</ele>
        <time>2024-11-15T18:37:30.000Z</time>
      </trkpt>
      <trkpt lat="45.85533" lon="3.57013">
        <ele>609.40002441406</ele>
        <time>2024-11-15T18:37:31.000Z</time>
      </trkpt>
      <trkpt lat="45.85532" lon="3.57017">
        <ele>608.79998779297</ele>
        <time>2024-11-15T18:37:32.000Z</time>
      </trkpt>
      <trkpt lat="45.8553" lon="3.5702">
        <ele>608.20001220703</ele>
        <time>2024-11-15T18:37:33.000Z</time>
      </trkpt>
      <trkpt lat="45.85529" lon="3.57024">
        <ele>607.59997558594</ele>
        <time>2024-11-15T18:37:34.000Z</time>
      </trkpt>
      <trkpt lat="45.85528" lon="3.57028">
        <ele>607.20001220703</ele>
        <time>2024-11-15T18:37:35.000Z</time>
      </trkpt>
      <trkpt lat="45.85527" lon="3.57032">
        <ele>606.79998779297</ele>
        <time>2024-11-15T18:37:36.000Z</time>
      </trkpt>
      <trkpt lat="45.85525" lon="3.57036">
        <ele>606.20001220703</ele>
        <time>2024-11-15T18:37:37.000Z</time>
      </trkpt>
      <trkpt lat="45.85524" lon="3.5704">
        <ele>605.59997558594</ele>
        <time>2024-11-15T18:37:38.000Z</time>
      </trkpt>
      <trkpt lat="45.85524" lon="3.57044">
        <ele>605.20001220703</ele>
        <time>2024-11-15T18:37:39.000Z</time>
      </trkpt>
      <trkpt lat="45.85523" lon="3.57047">
        <ele>604.79998779297</ele>
        <time>2024-11-15T18:37:40.000Z</time>
      </trkpt>
      <trkpt lat="45.85522" lon="3.57051">
        <ele>604.40002441406</ele>
        <time>2024-11-15T18:37:41.000Z</time>
      </trkpt>
      <trkpt lat="45.85521" lon="3.57055">
        <ele>603.79998779297</ele>
        <time>2024-11-15T18:37:42.000Z</time>
      </trkpt>
      <trkpt lat="45.8552" lon="3.57058">
        <ele>603.40002441406</ele>
        <time>2024-11-15T18:37:43.000Z</time>
      </trkpt>
      <trkpt lat="45.8552" lon="3.57062">
        <ele>603</ele>
        <time>2024-11-15T18:37:44.000Z</time>
      </trkpt>
      <trkpt lat="45.85519" lon="3.57066">
        <ele>602.40002441406</ele>
        <time>2024-11-15T18:37:45.000Z</time>
      </trkpt>
      <trkpt lat="45.85519" lon="3.57071">
        <ele>602.20001220703</ele>
        <time>2024-11-15T18:37:46.000Z</time>
      </trkpt>
      <trkpt lat="45.85519" lon="3.57075">
        <ele>601.59997558594</ele>
        <time>2024-11-15T18:37:47.000Z</time>
      </trkpt>
      <trkpt lat="45.85518" lon="3.5708">
        <ele>601.40002441406</ele>
        <time>2024-11-15T18:37:48.000Z</time>
      </trkpt>
      <trkpt lat="45.85518" lon="3.57084">
        <ele>601</ele>
        <time>2024-11-15T18:37:49.000Z</time>
      </trkpt>
      <trkpt lat="45.85518" lon="3.57089">
        <ele>600.40002441406</ele>
        <time>2024-11-15T18:37:50.000Z</time>
      </trkpt>
      <trkpt lat="45.85517" lon="3.57094">
        <ele>599.79998779297</ele>
        <time>2024-11-15T18:37:51.000Z</time>
      </trkpt>
      <trkpt lat="45.85517" lon="3.57098">
        <ele>599.40002441406</ele>
        <time>2024-11-15T18:37:52.000Z</time>
      </trkpt>
      <trkpt lat="45.85516" lon="3.57103">
        <ele>599</ele>
        <time>2024-11-15T18:37:53.000Z</time>
      </trkpt>
      <trkpt lat="45.85516" lon="3.57107">
        <ele>598.40002441406</ele>
        <time>2024-11-15T18:37:54.000Z</time>
      </trkpt>
      <trkpt lat="45.85515" lon="3.57112">
        <ele>597.79998779297</ele>
        <time>2024-11-15T18:37:55.000Z</time>
      </trkpt>
      <trkpt lat="45.85515" lon="3.57116">
        <ele>597.59997558594</ele>
        <time>2024-11-15T18:37:56.000Z</time>
      </trkpt>
      <trkpt lat="45.85515" lon="3.5712">
        <ele>597.40002441406</ele>
        <time>2024-11-15T18:37:57.000Z</time>
      </trkpt>
      <trkpt lat="45.85515" lon="3.57125">
        <ele>597.20001220703</ele>
        <time>2024-11-15T18:37:58.000Z</time>
      </trkpt>
      <trkpt lat="45.85515" lon="3.57129">
        <ele>596.59997558594</ele>
        <time>2024-11-15T18:37:59.000Z</time>
      </trkpt>
      <trkpt lat="45.85516" lon="3.57134">
        <ele>596.20001220703</ele>
        <time>2024-11-15T18:38:00.000Z</time>
      </trkpt>
      <trkpt lat="45.85516" lon="3.57139">
        <ele>595.59997558594</ele>
        <time>2024-11-15T18:38:01.000Z</time>
      </trkpt>
      <trkpt lat="45.85517" lon="3.57143">
        <ele>595.20001220703</ele>
        <time>2024-11-15T18:38:02.000Z</time>
      </trkpt>
      <trkpt lat="45.85518" lon="3.57148">
        <ele>594.20001220703</ele>
        <time>2024-11-15T18:38:03.000Z</time>
      </trkpt>
      <trkpt lat="45.85518" lon="3.57152">
        <ele>593.59997558594</ele>
        <time>2024-11-15T18:38:04.000Z</time>
      </trkpt>
      <trkpt lat="45.85519" lon="3.57156">
        <ele>593.40002441406</ele>
        <time>2024-11-15T18:38:05.000Z</time>
      </trkpt>
      <trkpt lat="45.85519" lon="3.57161">
        <ele>593</ele>
        <time>2024-11-15T18:38:06.000Z</time>
      </trkpt>
      <trkpt lat="45.85519" lon="3.57165">
        <ele>592.59997558594</ele>
        <time>2024-11-15T18:38:07.000Z</time>
      </trkpt>
      <trkpt lat="45.8552" lon="3.57169">
        <ele>592</ele>
        <time>2024-11-15T18:38:08.000Z</time>
      </trkpt>
      <trkpt lat="45.8552" lon="3.57173">
        <ele>591.40002441406</ele>
        <time>2024-11-15T18:38:09.000Z</time>
      </trkpt>
      <trkpt lat="45.85521" lon="3.57177">
        <ele>590.40002441406</ele>
        <time>2024-11-15T18:38:10.000Z</time>
      </trkpt>
      <trkpt lat="45.85522" lon="3.5718">
        <ele>589.79998779297</ele>
        <time>2024-11-15T18:38:11.000Z</time>
      </trkpt>
      <trkpt lat="45.85523" lon="3.57184">
        <ele>589.40002441406</ele>
        <time>2024-11-15T18:38:12.000Z</time>
      </trkpt>
      <trkpt lat="45.85524" lon="3.57187">
        <ele>588.59997558594</ele>
        <time>2024-11-15T18:38:13.000Z</time>
      </trkpt>
      <trkpt lat="45.85526" lon="3.57191">
        <ele>588</ele>
        <time>2024-11-15T18:38:14.000Z</time>
      </trkpt>
      <trkpt lat="45.85527" lon="3.57194">
        <ele>587.59997558594</ele>
        <time>2024-11-15T18:38:15.000Z</time>
      </trkpt>
      <trkpt lat="45.85528" lon="3.57198">
        <ele>587.20001220703</ele>
        <time>2024-11-15T18:38:16.000Z</time>
      </trkpt>
      <trkpt lat="45.8553" lon="3.57201">
        <ele>586.79998779297</ele>
        <time>2024-11-15T18:38:17.000Z</time>
      </trkpt>
      <trkpt lat="45.85531" lon="3.57204">
        <ele>586.59997558594</ele>
        <time>2024-11-15T18:38:18.000Z</time>
      </trkpt>
      <trkpt lat="45.85533" lon="3.57208">
        <ele>585.79998779297</ele>
        <time>2024-11-15T18:38:19.000Z</time>
      </trkpt>
      <trkpt lat="45.85534" lon="3.57211">
        <ele>584.79998779297</ele>
        <time>2024-11-15T18:38:20.000Z</time>
      </trkpt>
      <trkpt lat="45.85536" lon="3.57214">
        <ele>584.20001220703</ele>
        <time>2024-11-15T18:38:21.000Z</time>
      </trkpt>
      <trkpt lat="45.85537" lon="3.57216">
        <ele>583.40002441406</ele>
        <time>2024-11-15T18:38:22.000Z</time>
      </trkpt>
      <trkpt lat="45.85539" lon="3.57218">
        <ele>583</ele>
        <time>2024-11-15T18:38:23.000Z</time>
      </trkpt>
      <trkpt lat="45.8554" lon="3.5722">
        <ele>582.59997558594</ele>
        <time>2024-11-15T18:38:24.000Z</time>
      </trkpt>
      <trkpt lat="45.85542" lon="3.57223">
        <ele>581.79998779297</ele>
        <time>2024-11-15T18:38:25.000Z</time>
      </trkpt>
      <trkpt lat="45.85544" lon="3.57226">
        <ele>581.40002441406</ele>
        <time>2024-11-15T18:38:26.000Z</time>
      </trkpt>
      <trkpt lat="45.85546" lon="3.57229">
        <ele>580.59997558594</ele>
        <time>2024-11-15T18:38:27.000Z</time>
      </trkpt>
      <trkpt lat="45.85548" lon="3.57232">
        <ele>580.20001220703</ele>
        <time>2024-11-15T18:38:28.000Z</time>
      </trkpt>
      <trkpt lat="45.8555" lon="3.57235">
        <ele>579.59997558594</ele>
        <time>2024-11-15T18:38:29.000Z</time>
      </trkpt>
      <trkpt lat="45.85553" lon="3.57238">
        <ele>579.40002441406</ele>
        <time>2024-11-15T18:38:30.000Z</time>
      </trkpt>
      <trkpt lat="45.85555" lon="3.5724">
        <ele>578.59997558594</ele>
        <time>2024-11-15T18:38:31.000Z</time>
      </trkpt>
      <trkpt lat="45.85556" lon="3.57243">
        <ele>578.20001220703</ele>
        <time>2024-11-15T18:38:32.000Z</time>
      </trkpt>
      <trkpt lat="45.85558" lon="3.57246">
        <ele>577.59997558594</ele>
        <time>2024-11-15T18:38:33.000Z</time>
      </trkpt>
      <trkpt lat="45.8556" lon="3.57248">
        <ele>577.20001220703</ele>
        <time>2024-11-15T18:38:34.000Z</time>
      </trkpt>
      <trkpt lat="45.85562" lon="3.5725">
        <ele>576.79998779297</ele>
        <time>2024-11-15T18:38:35.000Z</time>
      </trkpt>
      <trkpt lat="45.85563" lon="3.57253">
        <ele>575.79998779297</ele>
        <time>2024-11-15T18:38:36.000Z</time>
      </trkpt>
      <trkpt lat="45.85565" lon="3.57255">
        <ele>575.40002441406</ele>
        <time>2024-11-15T18:38:37.000Z</time>
      </trkpt>
      <trkpt lat="45.85567" lon="3.57258">
        <ele>575.20001220703</ele>
        <time>2024-11-15T18:38:38.000Z</time>
      </trkpt>
      <trkpt lat="45.85569" lon="3.5726">
        <ele>574.79998779297</ele>
        <time>2024-11-15T18:38:39.000Z</time>
      </trkpt>
      <trkpt lat="45.85571" lon="3.57263">
        <ele>574.20001220703</ele>
        <time>2024-11-15T18:38:40.000Z</time>
      </trkpt>
      <trkpt lat="45.85573" lon="3.57266">
        <ele>573.20001220703</ele>
        <time>2024-11-15T18:38:41.000Z</time>
      </trkpt>
      <trkpt lat="45.85575" lon="3.57269">
        <ele>572.79998779297</ele>
        <time>2024-11-15T18:38:42.000Z</time>
      </trkpt>
      <trkpt lat="45.85577" lon="3.57272">
        <ele>572.59997558594</ele>
        <time>2024-11-15T18:38:43.000Z</time>
      </trkpt>
      <trkpt lat="45.85578" lon="3.57276">
        <ele>572.20001220703</ele>
        <time>2024-11-15T18:38:44.000Z</time>
      </trkpt>
      <trkpt lat="45.8558" lon="3.57279">
        <ele>571.59997558594</ele>
        <time>2024-11-15T18:38:45.000Z</time>
      </trkpt>
      <trkpt lat="45.85582" lon="3.57283">
        <ele>571.59997558594</ele>
        <time>2024-11-15T18:38:46.000Z</time>
      </trkpt>
      <trkpt lat="45.85584" lon="3.57287">
        <ele>571</ele>
        <time>2024-11-15T18:38:47.000Z</time>
      </trkpt>
      <trkpt lat="45.85586" lon="3.57291">
        <ele>570.79998779297</ele>
        <time>2024-11-15T18:38:48.000Z</time>
      </trkpt>
      <trkpt lat="45.85587" lon="3.57295">
        <ele>570.40002441406</ele>
        <time>2024-11-15T18:38:49.000Z</time>
      </trkpt>
      <trkpt lat="45.85588" lon="3.573">
        <ele>570.20001220703</ele>
        <time>2024-11-15T18:38:50.000Z</time>
      </trkpt>
      <trkpt lat="45.85589" lon="3.57304">
        <ele>569.20001220703</ele>
        <time>2024-11-15T18:38:51.000Z</time>
      </trkpt>
      <trkpt lat="45.85589" lon="3.57309">
        <ele>569</ele>
        <time>2024-11-15T18:38:52.000Z</time>
      </trkpt>
      <trkpt lat="45.8559" lon="3.57313">
        <ele>568.59997558594</ele>
        <time>2024-11-15T18:38:53.000Z</time>
      </trkpt>
      <trkpt lat="45.85591" lon="3.57318">
        <ele>568.20001220703</ele>
        <time>2024-11-15T18:38:54.000Z</time>
      </trkpt>
      <trkpt lat="45.85591" lon="3.57322">
        <ele>568</ele>
        <time>2024-11-15T18:38:55.000Z</time>
      </trkpt>
      <trkpt lat="45.85592" lon="3.57326">
        <ele>567.79998779297</ele>
        <time>2024-11-15T18:38:56.000Z</time>
      </trkpt>
      <trkpt lat="45.85592" lon="3.5733">
        <ele>567.59997558594</ele>
        <time>2024-11-15T18:38:57.000Z</time>
      </trkpt>
      <trkpt lat="45.85593" lon="3.57333">
        <ele>567.59997558594</ele>
        <time>2024-11-15T18:38:58.000Z</time>
      </trkpt>
      <trkpt lat="45.85594" lon="3.57336">
        <ele>567.59997558594</ele>
        <time>2024-11-15T18:38:59.000Z</time>
      </trkpt>
      <trkpt lat="45.85595" lon="3.5734">
        <ele>567.59997558594</ele>
        <time>2024-11-15T18:39:00.000Z</time>
      </trkpt>
      <trkpt lat="45.85596" lon="3.57343">
        <ele>567.59997558594</ele>
        <time>2024-11-15T18:39:01.000Z</time>
      </trkpt>
      <trkpt lat="45.85598" lon="3.57346">
        <ele>567.59997558594</ele>
        <time>2024-11-15T18:39:02.000Z</time>
      </trkpt>
      <trkpt lat="45.85599" lon="3.5735">
        <ele>567.59997558594</ele>
        <time>2024-11-15T18:39:03.000Z</time>
      </trkpt>
      <trkpt lat="45.856" lon="3.57353">
        <ele>567.59997558594</ele>
        <time>2024-11-15T18:39:04.000Z</time>
      </trkpt>
      <trkpt lat="45.85601" lon="3.57355">
        <ele>567.59997558594</ele>
        <time>2024-11-15T18:39:05.000Z</time>
      </trkpt>
      <trkpt lat="45.85602" lon="3.57358">
        <ele>567.40002441406</ele>
        <time>2024-11-15T18:39:06.000Z</time>
      </trkpt>
      <trkpt lat="45.85604" lon="3.57361">
        <ele>567.40002441406</ele>
        <time>2024-11-15T18:39:07.000Z</time>
      </trkpt>
      <trkpt lat="45.85605" lon="3.57363">
        <ele>567.20001220703</ele>
        <time>2024-11-15T18:39:08.000Z</time>
      </trkpt>
      <trkpt lat="45.85606" lon="3.57366">
        <ele>567.40002441406</ele>
        <time>2024-11-15T18:39:09.000Z</time>
      </trkpt>
      <trkpt lat="45.85607" lon="3.57369">
        <ele>567.40002441406</ele>
        <time>2024-11-15T18:39:10.000Z</time>
      </trkpt>
      <trkpt lat="45.85609" lon="3.57371">
        <ele>567.40002441406</ele>
        <time>2024-11-15T18:39:11.000Z</time>
      </trkpt>
      <trkpt lat="45.8561" lon="3.57374">
        <ele>567.59997558594</ele>
        <time>2024-11-15T18:39:12.000Z</time>
      </trkpt>
      <trkpt lat="45.85611" lon="3.57377">
        <ele>567.79998779297</ele>
        <time>2024-11-15T18:39:13.000Z</time>
      </trkpt>
      <trkpt lat="45.85613" lon="3.57379">
        <ele>567.79998779297</ele>
        <time>2024-11-15T18:39:14.000Z</time>
      </trkpt>
      <trkpt lat="45.85614" lon="3.57382">
        <ele>567.79998779297</ele>
        <time>2024-11-15T18:39:15.000Z</time>
      </trkpt>
      <trkpt lat="45.85615" lon="3.57384">
        <ele>568</ele>
        <time>2024-11-15T18:39:16.000Z</time>
      </trkpt>
      <trkpt lat="45.85617" lon="3.57386">
        <ele>568.20001220703</ele>
        <time>2024-11-15T18:39:17.000Z</time>
      </trkpt>
      <trkpt lat="45.85618" lon="3.57388">
        <ele>568.40002441406</ele>
        <time>2024-11-15T18:39:18.000Z</time>
      </trkpt>
      <trkpt lat="45.85619" lon="3.57391">
        <ele>568.59997558594</ele>
        <time>2024-11-15T18:39:19.000Z</time>
      </trkpt>
      <trkpt lat="45.8562" lon="3.57393">
        <ele>568.79998779297</ele>
        <time>2024-11-15T18:39:20.000Z</time>
      </trkpt>
      <trkpt lat="45.85622" lon="3.57395">
        <ele>569</ele>
        <time>2024-11-15T18:39:21.000Z</time>
      </trkpt>
      <trkpt lat="45.85623" lon="3.57397">
        <ele>569.40002441406</ele>
        <time>2024-11-15T18:39:22.000Z</time>
      </trkpt>
      <trkpt lat="45.85624" lon="3.57399">
        <ele>569.59997558594</ele>
        <time>2024-11-15T18:39:23.000Z</time>
      </trkpt>
      <trkpt lat="45.85625" lon="3.57401">
        <ele>569.79998779297</ele>
        <time>2024-11-15T18:39:24.000Z</time>
      </trkpt>
      <trkpt lat="45.85626" lon="3.57403">
        <ele>570</ele>
        <time>2024-11-15T18:39:25.000Z</time>
      </trkpt>
      <trkpt lat="45.85628" lon="3.57405">
        <ele>570</ele>
        <time>2024-11-15T18:39:26.000Z</time>
      </trkpt>
      <trkpt lat="45.85629" lon="3.57407">
        <ele>570.20001220703</ele>
        <time>2024-11-15T18:39:27.000Z</time>
      </trkpt>
      <trkpt lat="45.8563" lon="3.57409">
        <ele>570.40002441406</ele>
        <time>2024-11-15T18:39:28.000Z</time>
      </trkpt>
      <trkpt lat="45.85631" lon="3.57411">
        <ele>570.79998779297</ele>
        <time>2024-11-15T18:39:29.000Z</time>
      </trkpt>
      <trkpt lat="45.85632" lon="3.57413">
        <ele>571.20001220703</ele>
        <time>2024-11-15T18:39:30.000Z</time>
      </trkpt>
      <trkpt lat="45.85633" lon="3.57415">
        <ele>571.59997558594</ele>
        <time>2024-11-15T18:39:31.000Z</time>
      </trkpt>
      <trkpt lat="45.85634" lon="3.57416">
        <ele>571.79998779297</ele>
        <time>2024-11-15T18:39:32.000Z</time>
      </trkpt>
      <trkpt lat="45.85635" lon="3.57418">
        <ele>572.20001220703</ele>
        <time>2024-11-15T18:39:33.000Z</time>
      </trkpt>
      <trkpt lat="45.85636" lon="3.5742">
        <ele>572.40002441406</ele>
        <time>2024-11-15T18:39:34.000Z</time>
      </trkpt>
      <trkpt lat="45.85637" lon="3.57422">
        <ele>573</ele>
        <time>2024-11-15T18:39:35.000Z</time>
      </trkpt>
      <trkpt lat="45.85638" lon="3.57424">
        <ele>573.20001220703</ele>
        <time>2024-11-15T18:39:36.000Z</time>
      </trkpt>
      <trkpt lat="45.85639" lon="3.57426">
        <ele>573.20001220703</ele>
        <time>2024-11-15T18:39:37.000Z</time>
      </trkpt>
      <trkpt lat="45.8564" lon="3.57428">
        <ele>573.40002441406</ele>
        <time>2024-11-15T18:39:38.000Z</time>
      </trkpt>
      <trkpt lat="45.85641" lon="3.5743">
        <ele>573.59997558594</ele>
        <time>2024-11-15T18:39:39.000Z</time>
      </trkpt>
      <trkpt lat="45.85642" lon="3.57432">
        <ele>573.59997558594</ele>
        <time>2024-11-15T18:39:40.000Z</time>
      </trkpt>
      <trkpt lat="45.85643" lon="3.57433">
        <ele>573.79998779297</ele>
        <time>2024-11-15T18:39:41.000Z</time>
      </trkpt>
      <trkpt lat="45.85644" lon="3.57435">
        <ele>574.20001220703</ele>
        <time>2024-11-15T18:39:42.000Z</time>
      </trkpt>
      <trkpt lat="45.85645" lon="3.57437">
        <ele>574.59997558594</ele>
        <time>2024-11-15T18:39:43.000Z</time>
      </trkpt>
      <trkpt lat="45.85646" lon="3.57438">
        <ele>574.79998779297</ele>
        <time>2024-11-15T18:39:44.000Z</time>
      </trkpt>
      <trkpt lat="45.85647" lon="3.5744">
        <ele>575</ele>
        <time>2024-11-15T18:39:45.000Z</time>
      </trkpt>
      <trkpt lat="45.85648" lon="3.57442">
        <ele>575.20001220703</ele>
        <time>2024-11-15T18:39:46.000Z</time>
      </trkpt>
      <trkpt lat="45.85649" lon="3.57443">
        <ele>575.40002441406</ele>
        <time>2024-11-15T18:39:47.000Z</time>
      </trkpt>
      <trkpt lat="45.8565" lon="3.57445">
        <ele>575.79998779297</ele>
        <time>2024-11-15T18:39:48.000Z</time>
      </trkpt>
      <trkpt lat="45.85651" lon="3.57447">
        <ele>576</ele>
        <time>2024-11-15T18:39:49.000Z</time>
      </trkpt>
      <trkpt lat="45.85652" lon="3.57449">
        <ele>576.20001220703</ele>
        <time>2024-11-15T18:39:50.000Z</time>
      </trkpt>
      <trkpt lat="45.85653" lon="3.5745">
        <ele>576.40002441406</ele>
        <time>2024-11-15T18:39:51.000Z</time>
      </trkpt>
      <trkpt lat="45.85654" lon="3.57452">
        <ele>576.40002441406</ele>
        <time>2024-11-15T18:39:52.000Z</time>
      </trkpt>
      <trkpt lat="45.85655" lon="3.57453">
        <ele>577</ele>
        <time>2024-11-15T18:39:53.000Z</time>
      </trkpt>
      <trkpt lat="45.85656" lon="3.57454">
        <ele>577.20001220703</ele>
        <time>2024-11-15T18:39:54.000Z</time>
      </trkpt>
      <trkpt lat="45.85657" lon="3.57455">
        <ele>577.79998779297</ele>
        <time>2024-11-15T18:39:55.000Z</time>
      </trkpt>
      <trkpt lat="45.85657" lon="3.57456">
        <ele>578</ele>
        <time>2024-11-15T18:39:56.000Z</time>
      </trkpt>
      <trkpt lat="45.85658" lon="3.57457">
        <ele>578.20001220703</ele>
        <time>2024-11-15T18:39:57.000Z</time>
      </trkpt>
      <trkpt lat="45.85659" lon="3.57458">
        <ele>578.20001220703</ele>
        <time>2024-11-15T18:39:58.000Z</time>
      </trkpt>
      <trkpt lat="45.8566" lon="3.57459">
        <ele>578.79998779297</ele>
        <time>2024-11-15T18:39:59.000Z</time>
      </trkpt>
      <trkpt lat="45.85661" lon="3.5746">
        <ele>578.79998779297</ele>
        <time>2024-11-15T18:40:00.000Z</time>
      </trkpt>
      <trkpt lat="45.85662" lon="3.57461">
        <ele>578.79998779297</ele>
        <time>2024-11-15T18:40:01.000Z</time>
      </trkpt>
      <trkpt lat="45.85662" lon="3.57462">
        <ele>579</ele>
        <time>2024-11-15T18:40:02.000Z</time>
      </trkpt>
      <trkpt lat="45.85664" lon="3.57463">
        <ele>579.20001220703</ele>
        <time>2024-11-15T18:40:03.000Z</time>
      </trkpt>
      <trkpt lat="45.85665" lon="3.57464">
        <ele>579.59997558594</ele>
        <time>2024-11-15T18:40:04.000Z</time>
      </trkpt>
      <trkpt lat="45.85666" lon="3.57465">
        <ele>579.59997558594</ele>
        <time>2024-11-15T18:40:05.000Z</time>
      </trkpt>
      <trkpt lat="45.85667" lon="3.57466">
        <ele>579.79998779297</ele>
        <time>2024-11-15T18:40:06.000Z</time>
      </trkpt>
      <trkpt lat="45.85668" lon="3.57468">
        <ele>580</ele>
        <time>2024-11-15T18:40:07.000Z</time>
      </trkpt>
      <trkpt lat="45.85669" lon="3.57469">
        <ele>580.20001220703</ele>
        <time>2024-11-15T18:40:08.000Z</time>
      </trkpt>
      <trkpt lat="45.8567" lon="3.57471">
        <ele>580.40002441406</ele>
        <time>2024-11-15T18:40:09.000Z</time>
      </trkpt>
      <trkpt lat="45.85671" lon="3.57472">
        <ele>580.59997558594</ele>
        <time>2024-11-15T18:40:10.000Z</time>
      </trkpt>
      <trkpt lat="45.85672" lon="3.57473">
        <ele>580.79998779297</ele>
        <time>2024-11-15T18:40:11.000Z</time>
      </trkpt>
      <trkpt lat="45.85673" lon="3.57474">
        <ele>580.79998779297</ele>
        <time>2024-11-15T18:40:12.000Z</time>
      </trkpt>
      <trkpt lat="45.85674" lon="3.57475">
        <ele>581</ele>
        <time>2024-11-15T18:40:13.000Z</time>
      </trkpt>
      <trkpt lat="45.85675" lon="3.57477">
        <ele>581</ele>
        <time>2024-11-15T18:40:14.000Z</time>
      </trkpt>
      <trkpt lat="45.85676" lon="3.57478">
        <ele>581</ele>
        <time>2024-11-15T18:40:15.000Z</time>
      </trkpt>
      <trkpt lat="45.85677" lon="3.57479">
        <ele>581.40002441406</ele>
        <time>2024-11-15T18:40:16.000Z</time>
      </trkpt>
      <trkpt lat="45.85679" lon="3.5748">
        <ele>581.40002441406</ele>
        <time>2024-11-15T18:40:17.000Z</time>
      </trkpt>
      <trkpt lat="45.8568" lon="3.57481">
        <ele>581.59997558594</ele>
        <time>2024-11-15T18:40:18.000Z</time>
      </trkpt>
      <trkpt lat="45.85681" lon="3.57482">
        <ele>581.79998779297</ele>
        <time>2024-11-15T18:40:19.000Z</time>
      </trkpt>
      <trkpt lat="45.85683" lon="3.57483">
        <ele>581.79998779297</ele>
        <time>2024-11-15T18:40:20.000Z</time>
      </trkpt>
      <trkpt lat="45.85684" lon="3.57484">
        <ele>582</ele>
        <time>2024-11-15T18:40:21.000Z</time>
      </trkpt>
      <trkpt lat="45.85685" lon="3.57486">
        <ele>582.20001220703</ele>
        <time>2024-11-15T18:40:22.000Z</time>
      </trkpt>
      <trkpt lat="45.85687" lon="3.57487">
        <ele>582.20001220703</ele>
        <time>2024-11-15T18:40:23.000Z</time>
      </trkpt>
      <trkpt lat="45.85689" lon="3.57489">
        <ele>582.20001220703</ele>
        <time>2024-11-15T18:40:24.000Z</time>
      </trkpt>
      <trkpt lat="45.8569" lon="3.57491">
        <ele>582.20001220703</ele>
        <time>2024-11-15T18:40:25.000Z</time>
      </trkpt>
      <trkpt lat="45.85692" lon="3.57492">
        <ele>582.20001220703</ele>
        <time>2024-11-15T18:40:26.000Z</time>
      </trkpt>
      <trkpt lat="45.85694" lon="3.57494">
        <ele>582.40002441406</ele>
        <time>2024-11-15T18:40:27.000Z</time>
      </trkpt>
      <trkpt lat="45.85696" lon="3.57496">
        <ele>582.40002441406</ele>
        <time>2024-11-15T18:40:28.000Z</time>
      </trkpt>
      <trkpt lat="45.85698" lon="3.57498">
        <ele>582.40002441406</ele>
        <time>2024-11-15T18:40:29.000Z</time>
      </trkpt>
      <trkpt lat="45.857" lon="3.575">
        <ele>582.79998779297</ele>
        <time>2024-11-15T18:40:30.000Z</time>
      </trkpt>
      <trkpt lat="45.85702" lon="3.57502">
        <ele>583.20001220703</ele>
        <time>2024-11-15T18:40:31.000Z</time>
      </trkpt>
      <trkpt lat="45.85703" lon="3.57504">
        <ele>583.20001220703</ele>
        <time>2024-11-15T18:40:32.000Z</time>
      </trkpt>
      <trkpt lat="45.85705" lon="3.57506">
        <ele>583.40002441406</ele>
        <time>2024-11-15T18:40:33.000Z</time>
      </trkpt>
      <trkpt lat="45.85707" lon="3.57508">
        <ele>583.40002441406</ele>
        <time>2024-11-15T18:40:34.000Z</time>
      </trkpt>
      <trkpt lat="45.85709" lon="3.5751">
        <ele>583.40002441406</ele>
        <time>2024-11-15T18:40:35.000Z</time>
      </trkpt>
      <trkpt lat="45.8571" lon="3.57513">
        <ele>583.40002441406</ele>
        <time>2024-11-15T18:40:36.000Z</time>
      </trkpt>
      <trkpt lat="45.85712" lon="3.57515">
        <ele>583.40002441406</ele>
        <time>2024-11-15T18:40:37.000Z</time>
      </trkpt>
      <trkpt lat="45.85714" lon="3.57517">
        <ele>583.40002441406</ele>
        <time>2024-11-15T18:40:38.000Z</time>
      </trkpt>
      <trkpt lat="45.85715" lon="3.57519">
        <ele>583.40002441406</ele>
        <time>2024-11-15T18:40:39.000Z</time>
      </trkpt>
      <trkpt lat="45.85717" lon="3.57521">
        <ele>583.59997558594</ele>
        <time>2024-11-15T18:40:40.000Z</time>
      </trkpt>
      <trkpt lat="45.85718" lon="3.57523">
        <ele>583.59997558594</ele>
        <time>2024-11-15T18:40:41.000Z</time>
      </trkpt>
      <trkpt lat="45.8572" lon="3.57525">
        <ele>584</ele>
        <time>2024-11-15T18:40:42.000Z</time>
      </trkpt>
      <trkpt lat="45.85722" lon="3.57527">
        <ele>584.20001220703</ele>
        <time>2024-11-15T18:40:43.000Z</time>
      </trkpt>
      <trkpt lat="45.85723" lon="3.57529">
        <ele>584.20001220703</ele>
        <time>2024-11-15T18:40:44.000Z</time>
      </trkpt>
      <trkpt lat="45.85724" lon="3.57532">
        <ele>584.20001220703</ele>
        <time>2024-11-15T18:40:45.000Z</time>
      </trkpt>
      <trkpt lat="45.85726" lon="3.57534">
        <ele>584.20001220703</ele>
        <time>2024-11-15T18:40:46.000Z</time>
      </trkpt>
      <trkpt lat="45.85728" lon="3.57537">
        <ele>584.20001220703</ele>
        <time>2024-11-15T18:40:47.000Z</time>
      </trkpt>
      <trkpt lat="45.8573" lon="3.5754">
        <ele>584.20001220703</ele>
        <time>2024-11-15T18:40:48.000Z</time>
      </trkpt>
      <trkpt lat="45.85732" lon="3.57543">
        <ele>584.20001220703</ele>
        <time>2024-11-15T18:40:49.000Z</time>
      </trkpt>
      <trkpt lat="45.85733" lon="3.57545">
        <ele>584</ele>
        <time>2024-11-15T18:40:50.000Z</time>
      </trkpt>
      <trkpt lat="45.85735" lon="3.57548">
        <ele>584</ele>
        <time>2024-11-15T18:40:51.000Z</time>
      </trkpt>
      <trkpt lat="45.85737" lon="3.57551">
        <ele>584.20001220703</ele>
        <time>2024-11-15T18:40:52.000Z</time>
      </trkpt>
      <trkpt lat="45.85738" lon="3.57554">
        <ele>584.20001220703</ele>
        <time>2024-11-15T18:40:53.000Z</time>
      </trkpt>
      <trkpt lat="45.8574" lon="3.57557">
        <ele>584.20001220703</ele>
        <time>2024-11-15T18:40:54.000Z</time>
      </trkpt>
      <trkpt lat="45.85742" lon="3.5756">
        <ele>584</ele>
        <time>2024-11-15T18:40:55.000Z</time>
      </trkpt>
      <trkpt lat="45.85743" lon="3.57562">
        <ele>584</ele>
        <time>2024-11-15T18:40:56.000Z</time>
      </trkpt>
      <trkpt lat="45.85745" lon="3.57565">
        <ele>583.79998779297</ele>
        <time>2024-11-15T18:40:57.000Z</time>
      </trkpt>
      <trkpt lat="45.85747" lon="3.57568">
        <ele>583.79998779297</ele>
        <time>2024-11-15T18:40:58.000Z</time>
      </trkpt>
      <trkpt lat="45.85748" lon="3.57571">
        <ele>583.59997558594</ele>
        <time>2024-11-15T18:40:59.000Z</time>
      </trkpt>
      <trkpt lat="45.8575" lon="3.57574">
        <ele>583.40002441406</ele>
        <time>2024-11-15T18:41:00.000Z</time>
      </trkpt>
      <trkpt lat="45.85751" lon="3.57577">
        <ele>583.20001220703</ele>
        <time>2024-11-15T18:41:01.000Z</time>
      </trkpt>
      <trkpt lat="45.85753" lon="3.5758">
        <ele>583.20001220703</ele>
        <time>2024-11-15T18:41:02.000Z</time>
      </trkpt>
      <trkpt lat="45.85754" lon="3.57583">
        <ele>583</ele>
        <time>2024-11-15T18:41:03.000Z</time>
      </trkpt>
      <trkpt lat="45.85756" lon="3.57586">
        <ele>583</ele>
        <time>2024-11-15T18:41:04.000Z</time>
      </trkpt>
      <trkpt lat="45.85757" lon="3.57589">
        <ele>583</ele>
        <time>2024-11-15T18:41:05.000Z</time>
      </trkpt>
      <trkpt lat="45.85758" lon="3.57592">
        <ele>583</ele>
        <time>2024-11-15T18:41:06.000Z</time>
      </trkpt>
      <trkpt lat="45.85759" lon="3.57595">
        <ele>583</ele>
        <time>2024-11-15T18:41:07.000Z</time>
      </trkpt>
      <trkpt lat="45.8576" lon="3.57598">
        <ele>582.79998779297</ele>
        <time>2024-11-15T18:41:08.000Z</time>
      </trkpt>
      <trkpt lat="45.85762" lon="3.576">
        <ele>582.79998779297</ele>
        <time>2024-11-15T18:41:09.000Z</time>
      </trkpt>
      <trkpt lat="45.85763" lon="3.57603">
        <ele>583</ele>
        <time>2024-11-15T18:41:10.000Z</time>
      </trkpt>
      <trkpt lat="45.85764" lon="3.57607">
        <ele>583</ele>
        <time>2024-11-15T18:41:11.000Z</time>
      </trkpt>
      <trkpt lat="45.85765" lon="3.5761">
        <ele>583</ele>
        <time>2024-11-15T18:41:12.000Z</time>
      </trkpt>
      <trkpt lat="45.85766" lon="3.57613">
        <ele>583</ele>
        <time>2024-11-15T18:41:13.000Z</time>
      </trkpt>
      <trkpt lat="45.85767" lon="3.57615">
        <ele>583.20001220703</ele>
        <time>2024-11-15T18:41:14.000Z</time>
      </trkpt>
      <trkpt lat="45.85768" lon="3.57619">
        <ele>583.20001220703</ele>
        <time>2024-11-15T18:41:15.000Z</time>
      </trkpt>
      <trkpt lat="45.8577" lon="3.57622">
        <ele>583.20001220703</ele>
        <time>2024-11-15T18:41:16.000Z</time>
      </trkpt>
      <trkpt lat="45.85771" lon="3.57625">
        <ele>583.20001220703</ele>
        <time>2024-11-15T18:41:17.000Z</time>
      </trkpt>
      <trkpt lat="45.85772" lon="3.57628">
        <ele>583.20001220703</ele>
        <time>2024-11-15T18:41:18.000Z</time>
      </trkpt>
      <trkpt lat="45.85773" lon="3.57631">
        <ele>583.20001220703</ele>
        <time>2024-11-15T18:41:19.000Z</time>
      </trkpt>
      <trkpt lat="45.85775" lon="3.57634">
        <ele>583.40002441406</ele>
        <time>2024-11-15T18:41:20.000Z</time>
      </trkpt>
      <trkpt lat="45.85776" lon="3.57636">
        <ele>583.40002441406</ele>
        <time>2024-11-15T18:41:21.000Z</time>
      </trkpt>
      <trkpt lat="45.85778" lon="3.57639">
        <ele>583.40002441406</ele>
        <time>2024-11-15T18:41:22.000Z</time>
      </trkpt>
      <trkpt lat="45.8578" lon="3.57642">
        <ele>583.59997558594</ele>
        <time>2024-11-15T18:41:23.000Z</time>
      </trkpt>
      <trkpt lat="45.85781" lon="3.57645">
        <ele>583.59997558594</ele>
        <time>2024-11-15T18:41:24.000Z</time>
      </trkpt>
      <trkpt lat="45.85783" lon="3.57648">
        <ele>583.59997558594</ele>
        <time>2024-11-15T18:41:25.000Z</time>
      </trkpt>
      <trkpt lat="45.85785" lon="3.5765">
        <ele>583.40002441406</ele>
        <time>2024-11-15T18:41:26.000Z</time>
      </trkpt>
      <trkpt lat="45.85787" lon="3.57653">
        <ele>583.40002441406</ele>
        <time>2024-11-15T18:41:27.000Z</time>
      </trkpt>
      <trkpt lat="45.85789" lon="3.57656">
        <ele>583</ele>
        <time>2024-11-15T18:41:28.000Z</time>
      </trkpt>
      <trkpt lat="45.85791" lon="3.57659">
        <ele>582.79998779297</ele>
        <time>2024-11-15T18:41:29.000Z</time>
      </trkpt>
      <trkpt lat="45.85792" lon="3.57662">
        <ele>582.59997558594</ele>
        <time>2024-11-15T18:41:30.000Z</time>
      </trkpt>
      <trkpt lat="45.85794" lon="3.57665">
        <ele>582.40002441406</ele>
        <time>2024-11-15T18:41:31.000Z</time>
      </trkpt>
      <trkpt lat="45.85795" lon="3.57668">
        <ele>582.20001220703</ele>
        <time>2024-11-15T18:41:32.000Z</time>
      </trkpt>
      <trkpt lat="45.85796" lon="3.57671">
        <ele>582.20001220703</ele>
        <time>2024-11-15T18:41:33.000Z</time>
      </trkpt>
      <trkpt lat="45.85796" lon="3.57675">
        <ele>582.20001220703</ele>
        <time>2024-11-15T18:41:34.000Z</time>
      </trkpt>
      <trkpt lat="45.85796" lon="3.57678">
        <ele>582.20001220703</ele>
        <time>2024-11-15T18:41:35.000Z</time>
      </trkpt>
      <trkpt lat="45.85797" lon="3.57681">
        <ele>582.20001220703</ele>
        <time>2024-11-15T18:41:36.000Z</time>
      </trkpt>
      <trkpt lat="45.85797" lon="3.57684">
        <ele>582.20001220703</ele>
        <time>2024-11-15T18:41:37.000Z</time>
      </trkpt>
      <trkpt lat="45.85797" lon="3.57686">
        <ele>582.40002441406</ele>
        <time>2024-11-15T18:41:38.000Z</time>
      </trkpt>
      <trkpt lat="45.85796" lon="3.57689">
        <ele>582.59997558594</ele>
        <time>2024-11-15T18:41:39.000Z</time>
      </trkpt>
      <trkpt lat="45.85796" lon="3.57691">
        <ele>582.79998779297</ele>
        <time>2024-11-15T18:41:40.000Z</time>
      </trkpt>
      <trkpt lat="45.85796" lon="3.57693">
        <ele>583.20001220703</ele>
        <time>2024-11-15T18:41:41.000Z</time>
      </trkpt>
      <trkpt lat="45.85797" lon="3.57696">
        <ele>583.59997558594</ele>
        <time>2024-11-15T18:41:42.000Z</time>
      </trkpt>
      <trkpt lat="45.85797" lon="3.57698">
        <ele>583.79998779297</ele>
        <time>2024-11-15T18:41:43.000Z</time>
      </trkpt>
      <trkpt lat="45.85797" lon="3.577">
        <ele>584.40002441406</ele>
        <time>2024-11-15T18:41:44.000Z</time>
      </trkpt>
      <trkpt lat="45.85798" lon="3.57702">
        <ele>584.59997558594</ele>
        <time>2024-11-15T18:41:45.000Z</time>
      </trkpt>
      <trkpt lat="45.85799" lon="3.57704">
        <ele>584.79998779297</ele>
        <time>2024-11-15T18:41:46.000Z</time>
      </trkpt>
      <trkpt lat="45.85799" lon="3.57706">
        <ele>585</ele>
        <time>2024-11-15T18:41:47.000Z</time>
      </trkpt>
      <trkpt lat="45.858" lon="3.57708">
        <ele>585.20001220703</ele>
        <time>2024-11-15T18:41:48.000Z</time>
      </trkpt>
      <trkpt lat="45.85801" lon="3.5771">
        <ele>585.59997558594</ele>
        <time>2024-11-15T18:41:49.000Z</time>
      </trkpt>
      <trkpt lat="45.85802" lon="3.57712">
        <ele>586.20001220703</ele>
        <time>2024-11-15T18:41:50.000Z</time>
      </trkpt>
      <trkpt lat="45.85803" lon="3.57715">
        <ele>586.40002441406</ele>
        <time>2024-11-15T18:41:51.000Z</time>
      </trkpt>
      <trkpt lat="45.85805" lon="3.57717">
        <ele>586.59997558594</ele>
        <time>2024-11-15T18:41:52.000Z</time>
      </trkpt>
      <trkpt lat="45.85806" lon="3.5772">
        <ele>586.59997558594</ele>
        <time>2024-11-15T18:41:53.000Z</time>
      </trkpt>
      <trkpt lat="45.85807" lon="3.57723">
        <ele>586.59997558594</ele>
        <time>2024-11-15T18:41:54.000Z</time>
      </trkpt>
      <trkpt lat="45.85808" lon="3.57727">
        <ele>586.59997558594</ele>
        <time>2024-11-15T18:41:55.000Z</time>
      </trkpt>
      <trkpt lat="45.8581" lon="3.5773">
        <ele>586.59997558594</ele>
        <time>2024-11-15T18:41:56.000Z</time>
      </trkpt>
      <trkpt lat="45.85811" lon="3.57732">
        <ele>586.59997558594</ele>
        <time>2024-11-15T18:41:57.000Z</time>
      </trkpt>
      <trkpt lat="45.85812" lon="3.57735">
        <ele>586.59997558594</ele>
        <time>2024-11-15T18:41:58.000Z</time>
      </trkpt>
      <trkpt lat="45.85813" lon="3.57738">
        <ele>586.59997558594</ele>
        <time>2024-11-15T18:41:59.000Z</time>
      </trkpt>
      <trkpt lat="45.85815" lon="3.57742">
        <ele>586.59997558594</ele>
        <time>2024-11-15T18:42:00.000Z</time>
      </trkpt>
      <trkpt lat="45.85816" lon="3.57745">
        <ele>586.40002441406</ele>
        <time>2024-11-15T18:42:01.000Z</time>
      </trkpt>
      <trkpt lat="45.85818" lon="3.57748">
        <ele>586.40002441406</ele>
        <time>2024-11-15T18:42:02.000Z</time>
      </trkpt>
      <trkpt lat="45.8582" lon="3.57751">
        <ele>586.40002441406</ele>
        <time>2024-11-15T18:42:03.000Z</time>
      </trkpt>
      <trkpt lat="45.85821" lon="3.57754">
        <ele>586.40002441406</ele>
        <time>2024-11-15T18:42:04.000Z</time>
      </trkpt>
      <trkpt lat="45.85823" lon="3.57757">
        <ele>586.40002441406</ele>
        <time>2024-11-15T18:42:05.000Z</time>
      </trkpt>
      <trkpt lat="45.85824" lon="3.5776">
        <ele>586.20001220703</ele>
        <time>2024-11-15T18:42:06.000Z</time>
      </trkpt>
      <trkpt lat="45.85825" lon="3.57763">
        <ele>586.20001220703</ele>
        <time>2024-11-15T18:42:07.000Z</time>
      </trkpt>
      <trkpt lat="45.85827" lon="3.57766">
        <ele>586</ele>
        <time>2024-11-15T18:42:08.000Z</time>
      </trkpt>
      <trkpt lat="45.85828" lon="3.57769">
        <ele>586</ele>
        <time>2024-11-15T18:42:09.000Z</time>
      </trkpt>
      <trkpt lat="45.85829" lon="3.57772">
        <ele>585.79998779297</ele>
        <time>2024-11-15T18:42:10.000Z</time>
      </trkpt>
      <trkpt lat="45.85831" lon="3.57776">
        <ele>585.79998779297</ele>
        <time>2024-11-15T18:42:11.000Z</time>
      </trkpt>
      <trkpt lat="45.85832" lon="3.57779">
        <ele>585.59997558594</ele>
        <time>2024-11-15T18:42:12.000Z</time>
      </trkpt>
      <trkpt lat="45.85833" lon="3.57782">
        <ele>585.59997558594</ele>
        <time>2024-11-15T18:42:13.000Z</time>
      </trkpt>
      <trkpt lat="45.85834" lon="3.57785">
        <ele>585.59997558594</ele>
        <time>2024-11-15T18:42:14.000Z</time>
      </trkpt>
      <trkpt lat="45.85835" lon="3.57788">
        <ele>585.40002441406</ele>
        <time>2024-11-15T18:42:15.000Z</time>
      </trkpt>
      <trkpt lat="45.85837" lon="3.57791">
        <ele>585.40002441406</ele>
        <time>2024-11-15T18:42:16.000Z</time>
      </trkpt>
      <trkpt lat="45.85838" lon="3.57794">
        <ele>585.40002441406</ele>
        <time>2024-11-15T18:42:17.000Z</time>
      </trkpt>
      <trkpt lat="45.85839" lon="3.57797">
        <ele>585.40002441406</ele>
        <time>2024-11-15T18:42:18.000Z</time>
      </trkpt>
      <trkpt lat="45.8584" lon="3.57801">
        <ele>585.20001220703</ele>
        <time>2024-11-15T18:42:19.000Z</time>
      </trkpt>
      <trkpt lat="45.85842" lon="3.57804">
        <ele>585</ele>
        <time>2024-11-15T18:42:20.000Z</time>
      </trkpt>
      <trkpt lat="45.85843" lon="3.57807">
        <ele>584.79998779297</ele>
        <time>2024-11-15T18:42:21.000Z</time>
      </trkpt>
      <trkpt lat="45.85844" lon="3.5781">
        <ele>584.59997558594</ele>
        <time>2024-11-15T18:42:22.000Z</time>
      </trkpt>
      <trkpt lat="45.85845" lon="3.57813">
        <ele>584.40002441406</ele>
        <time>2024-11-15T18:42:23.000Z</time>
      </trkpt>
      <trkpt lat="45.85846" lon="3.57817">
        <ele>584.20001220703</ele>
        <time>2024-11-15T18:42:24.000Z</time>
      </trkpt>
      <trkpt lat="45.85848" lon="3.5782">
        <ele>584.20001220703</ele>
        <time>2024-11-15T18:42:25.000Z</time>
      </trkpt>
      <trkpt lat="45.85849" lon="3.57824">
        <ele>584</ele>
        <time>2024-11-15T18:42:26.000Z</time>
      </trkpt>
      <trkpt lat="45.8585" lon="3.57827">
        <ele>584</ele>
        <time>2024-11-15T18:42:27.000Z</time>
      </trkpt>
      <trkpt lat="45.85851" lon="3.57831">
        <ele>583.79998779297</ele>
        <time>2024-11-15T18:42:28.000Z</time>
      </trkpt>
      <trkpt lat="45.85852" lon="3.57834">
        <ele>583.79998779297</ele>
        <time>2024-11-15T18:42:29.000Z</time>
      </trkpt>
      <trkpt lat="45.85853" lon="3.57838">
        <ele>583.59997558594</ele>
        <time>2024-11-15T18:42:30.000Z</time>
      </trkpt>
      <trkpt lat="45.85854" lon="3.57841">
        <ele>583.40002441406</ele>
        <time>2024-11-15T18:42:31.000Z</time>
      </trkpt>
      <trkpt lat="45.85855" lon="3.57844">
        <ele>583.20001220703</ele>
        <time>2024-11-15T18:42:32.000Z</time>
      </trkpt>
      <trkpt lat="45.85856" lon="3.57848">
        <ele>583</ele>
        <time>2024-11-15T18:42:33.000Z</time>
      </trkpt>
      <trkpt lat="45.85857" lon="3.57851">
        <ele>582.59997558594</ele>
        <time>2024-11-15T18:42:34.000Z</time>
      </trkpt>
      <trkpt lat="45.85858" lon="3.57854">
        <ele>582.20001220703</ele>
        <time>2024-11-15T18:42:35.000Z</time>
      </trkpt>
      <trkpt lat="45.85858" lon="3.57858">
        <ele>581.79998779297</ele>
        <time>2024-11-15T18:42:36.000Z</time>
      </trkpt>
      <trkpt lat="45.85859" lon="3.57862">
        <ele>581.59997558594</ele>
        <time>2024-11-15T18:42:37.000Z</time>
      </trkpt>
      <trkpt lat="45.85859" lon="3.57866">
        <ele>581.59997558594</ele>
        <time>2024-11-15T18:42:38.000Z</time>
      </trkpt>
      <trkpt lat="45.8586" lon="3.5787">
        <ele>581.40002441406</ele>
        <time>2024-11-15T18:42:39.000Z</time>
      </trkpt>
      <trkpt lat="45.8586" lon="3.57874">
        <ele>581</ele>
        <time>2024-11-15T18:42:40.000Z</time>
      </trkpt>
      <trkpt lat="45.85861" lon="3.57878">
        <ele>580.79998779297</ele>
        <time>2024-11-15T18:42:41.000Z</time>
      </trkpt>
      <trkpt lat="45.85861" lon="3.57882">
        <ele>580.40002441406</ele>
        <time>2024-11-15T18:42:42.000Z</time>
      </trkpt>
      <trkpt lat="45.85862" lon="3.57886">
        <ele>580</ele>
        <time>2024-11-15T18:42:43.000Z</time>
      </trkpt>
      <trkpt lat="45.85862" lon="3.5789">
        <ele>579.59997558594</ele>
        <time>2024-11-15T18:42:44.000Z</time>
      </trkpt>
      <trkpt lat="45.85863" lon="3.57894">
        <ele>579.20001220703</ele>
        <time>2024-11-15T18:42:45.000Z</time>
      </trkpt>
      <trkpt lat="45.85864" lon="3.57897">
        <ele>578.79998779297</ele>
        <time>2024-11-15T18:42:46.000Z</time>
      </trkpt>
      <trkpt lat="45.85865" lon="3.57901">
        <ele>578.40002441406</ele>
        <time>2024-11-15T18:42:47.000Z</time>
      </trkpt>
      <trkpt lat="45.85865" lon="3.57905">
        <ele>578.20001220703</ele>
        <time>2024-11-15T18:42:48.000Z</time>
      </trkpt>
      <trkpt lat="45.85866" lon="3.57908">
        <ele>577.79998779297</ele>
        <time>2024-11-15T18:42:49.000Z</time>
      </trkpt>
      <trkpt lat="45.85868" lon="3.57911">
        <ele>577.59997558594</ele>
        <time>2024-11-15T18:42:50.000Z</time>
      </trkpt>
      <trkpt lat="45.85869" lon="3.57914">
        <ele>577.59997558594</ele>
        <time>2024-11-15T18:42:51.000Z</time>
      </trkpt>
      <trkpt lat="45.85871" lon="3.57917">
        <ele>577.40002441406</ele>
        <time>2024-11-15T18:42:52.000Z</time>
      </trkpt>
      <trkpt lat="45.85872" lon="3.57921">
        <ele>577</ele>
        <time>2024-11-15T18:42:53.000Z</time>
      </trkpt>
      <trkpt lat="45.85874" lon="3.57924">
        <ele>576.59997558594</ele>
        <time>2024-11-15T18:42:54.000Z</time>
      </trkpt>
      <trkpt lat="45.85876" lon="3.57927">
        <ele>576.20001220703</ele>
        <time>2024-11-15T18:42:55.000Z</time>
      </trkpt>
      <trkpt lat="45.85877" lon="3.5793">
        <ele>575.79998779297</ele>
        <time>2024-11-15T18:42:56.000Z</time>
      </trkpt>
      <trkpt lat="45.85879" lon="3.57933">
        <ele>575.79998779297</ele>
        <time>2024-11-15T18:42:57.000Z</time>
      </trkpt>
      <trkpt lat="45.85881" lon="3.57936">
        <ele>575.59997558594</ele>
        <time>2024-11-15T18:42:58.000Z</time>
      </trkpt>
      <trkpt lat="45.85883" lon="3.57939">
        <ele>575.40002441406</ele>
        <time>2024-11-15T18:42:59.000Z</time>
      </trkpt>
      <trkpt lat="45.85884" lon="3.57942">
        <ele>575.20001220703</ele>
        <time>2024-11-15T18:43:00.000Z</time>
      </trkpt>
      <trkpt lat="45.85886" lon="3.57945">
        <ele>574.79998779297</ele>
        <time>2024-11-15T18:43:01.000Z</time>
      </trkpt>
      <trkpt lat="45.85888" lon="3.57949">
        <ele>574.59997558594</ele>
        <time>2024-11-15T18:43:02.000Z</time>
      </trkpt>
      <trkpt lat="45.8589" lon="3.57952">
        <ele>574</ele>
        <time>2024-11-15T18:43:03.000Z</time>
      </trkpt>
      <trkpt lat="45.85891" lon="3.57956">
        <ele>573.79998779297</ele>
        <time>2024-11-15T18:43:04.000Z</time>
      </trkpt>
      <trkpt lat="45.85893" lon="3.5796">
        <ele>573.40002441406</ele>
        <time>2024-11-15T18:43:05.000Z</time>
      </trkpt>
      <trkpt lat="45.85895" lon="3.57963">
        <ele>573</ele>
        <time>2024-11-15T18:43:06.000Z</time>
      </trkpt>
      <trkpt lat="45.85896" lon="3.57967">
        <ele>572.40002441406</ele>
        <time>2024-11-15T18:43:07.000Z</time>
      </trkpt>
      <trkpt lat="45.85897" lon="3.5797">
        <ele>572.20001220703</ele>
        <time>2024-11-15T18:43:08.000Z</time>
      </trkpt>
      <trkpt lat="45.85898" lon="3.57974">
        <ele>571.59997558594</ele>
        <time>2024-11-15T18:43:09.000Z</time>
      </trkpt>
      <trkpt lat="45.859" lon="3.57977">
        <ele>571.20001220703</ele>
        <time>2024-11-15T18:43:10.000Z</time>
      </trkpt>
      <trkpt lat="45.85901" lon="3.57981">
        <ele>571</ele>
        <time>2024-11-15T18:43:11.000Z</time>
      </trkpt>
      <trkpt lat="45.85902" lon="3.57984">
        <ele>570</ele>
        <time>2024-11-15T18:43:12.000Z</time>
      </trkpt>
      <trkpt lat="45.85903" lon="3.57988">
        <ele>569.79998779297</ele>
        <time>2024-11-15T18:43:13.000Z</time>
      </trkpt>
      <trkpt lat="45.85904" lon="3.57991">
        <ele>569.40002441406</ele>
        <time>2024-11-15T18:43:14.000Z</time>
      </trkpt>
      <trkpt lat="45.85905" lon="3.57995">
        <ele>569.20001220703</ele>
        <time>2024-11-15T18:43:15.000Z</time>
      </trkpt>
      <trkpt lat="45.85906" lon="3.57998">
        <ele>569</ele>
        <time>2024-11-15T18:43:16.000Z</time>
      </trkpt>
      <trkpt lat="45.85906" lon="3.58002">
        <ele>568.59997558594</ele>
        <time>2024-11-15T18:43:17.000Z</time>
      </trkpt>
      <trkpt lat="45.85907" lon="3.58005">
        <ele>568.20001220703</ele>
        <time>2024-11-15T18:43:18.000Z</time>
      </trkpt>
      <trkpt lat="45.85908" lon="3.5801">
        <ele>567.59997558594</ele>
        <time>2024-11-15T18:43:19.000Z</time>
      </trkpt>
      <trkpt lat="45.85909" lon="3.58014">
        <ele>567.40002441406</ele>
        <time>2024-11-15T18:43:20.000Z</time>
      </trkpt>
      <trkpt lat="45.85909" lon="3.58019">
        <ele>567</ele>
        <time>2024-11-15T18:43:21.000Z</time>
      </trkpt>
      <trkpt lat="45.8591" lon="3.58023">
        <ele>566.79998779297</ele>
        <time>2024-11-15T18:43:22.000Z</time>
      </trkpt>
      <trkpt lat="45.8591" lon="3.58028">
        <ele>566.59997558594</ele>
        <time>2024-11-15T18:43:23.000Z</time>
      </trkpt>
      <trkpt lat="45.8591" lon="3.58032">
        <ele>566</ele>
        <time>2024-11-15T18:43:24.000Z</time>
      </trkpt>
      <trkpt lat="45.8591" lon="3.58037">
        <ele>565.40002441406</ele>
        <time>2024-11-15T18:43:25.000Z</time>
      </trkpt>
      <trkpt lat="45.8591" lon="3.58042">
        <ele>565</ele>
        <time>2024-11-15T18:43:26.000Z</time>
      </trkpt>
      <trkpt lat="45.8591" lon="3.58047">
        <ele>564.79998779297</ele>
        <time>2024-11-15T18:43:27.000Z</time>
      </trkpt>
      <trkpt lat="45.8591" lon="3.58051">
        <ele>564.59997558594</ele>
        <time>2024-11-15T18:43:28.000Z</time>
      </trkpt>
      <trkpt lat="45.8591" lon="3.58056">
        <ele>564.40002441406</ele>
        <time>2024-11-15T18:43:29.000Z</time>
      </trkpt>
      <trkpt lat="45.8591" lon="3.58061">
        <ele>564.20001220703</ele>
        <time>2024-11-15T18:43:30.000Z</time>
      </trkpt>
      <trkpt lat="45.8591" lon="3.58066">
        <ele>563.40002441406</ele>
        <time>2024-11-15T18:43:31.000Z</time>
      </trkpt>
      <trkpt lat="45.8591" lon="3.58071">
        <ele>563</ele>
        <time>2024-11-15T18:43:32.000Z</time>
      </trkpt>
      <trkpt lat="45.8591" lon="3.58076">
        <ele>562.40002441406</ele>
        <time>2024-11-15T18:43:33.000Z</time>
      </trkpt>
      <trkpt lat="45.8591" lon="3.58081">
        <ele>561.79998779297</ele>
        <time>2024-11-15T18:43:34.000Z</time>
      </trkpt>
      <trkpt lat="45.8591" lon="3.58085">
        <ele>561.59997558594</ele>
        <time>2024-11-15T18:43:35.000Z</time>
      </trkpt>
      <trkpt lat="45.85909" lon="3.5809">
        <ele>561.40002441406</ele>
        <time>2024-11-15T18:43:36.000Z</time>
      </trkpt>
      <trkpt lat="45.85909" lon="3.58094">
        <ele>561</ele>
        <time>2024-11-15T18:43:37.000Z</time>
      </trkpt>
      <trkpt lat="45.85908" lon="3.58099">
        <ele>560.79998779297</ele>
        <time>2024-11-15T18:43:38.000Z</time>
      </trkpt>
      <trkpt lat="45.85908" lon="3.58104">
        <ele>560.40002441406</ele>
        <time>2024-11-15T18:43:39.000Z</time>
      </trkpt>
      <trkpt lat="45.85907" lon="3.58109">
        <ele>560</ele>
        <time>2024-11-15T18:43:40.000Z</time>
      </trkpt>
      <trkpt lat="45.85907" lon="3.58113">
        <ele>559.79998779297</ele>
        <time>2024-11-15T18:43:41.000Z</time>
      </trkpt>
      <trkpt lat="45.85907" lon="3.58118">
        <ele>559.20001220703</ele>
        <time>2024-11-15T18:43:42.000Z</time>
      </trkpt>
      <trkpt lat="45.85906" lon="3.58123">
        <ele>559</ele>
        <time>2024-11-15T18:43:43.000Z</time>
      </trkpt>
      <trkpt lat="45.85906" lon="3.58126">
        <ele>558.79998779297</ele>
        <time>2024-11-15T18:43:44.000Z</time>
      </trkpt>
      <trkpt lat="45.85906" lon="3.58131">
        <ele>558.79998779297</ele>
        <time>2024-11-15T18:43:45.000Z</time>
      </trkpt>
      <trkpt lat="45.85905" lon="3.58135">
        <ele>558.59997558594</ele>
        <time>2024-11-15T18:43:46.000Z</time>
      </trkpt>
      <trkpt lat="45.85905" lon="3.58139">
        <ele>558.59997558594</ele>
        <time>2024-11-15T18:43:47.000Z</time>
      </trkpt>
      <trkpt lat="45.85905" lon="3.58143">
        <ele>558.59997558594</ele>
        <time>2024-11-15T18:43:48.000Z</time>
      </trkpt>
      <trkpt lat="45.85905" lon="3.58147">
        <ele>558.79998779297</ele>
        <time>2024-11-15T18:43:49.000Z</time>
      </trkpt>
      <trkpt lat="45.85905" lon="3.58151">
        <ele>558.79998779297</ele>
        <time>2024-11-15T18:43:50.000Z</time>
      </trkpt>
      <trkpt lat="45.85905" lon="3.58156">
        <ele>558.79998779297</ele>
        <time>2024-11-15T18:43:51.000Z</time>
      </trkpt>
      <trkpt lat="45.85905" lon="3.5816">
        <ele>558.79998779297</ele>
        <time>2024-11-15T18:43:52.000Z</time>
      </trkpt>
      <trkpt lat="45.85905" lon="3.58164">
        <ele>559</ele>
        <time>2024-11-15T18:43:53.000Z</time>
      </trkpt>
      <trkpt lat="45.85906" lon="3.58168">
        <ele>559.20001220703</ele>
        <time>2024-11-15T18:43:54.000Z</time>
      </trkpt>
      <trkpt lat="45.85906" lon="3.58171">
        <ele>559</ele>
        <time>2024-11-15T18:43:55.000Z</time>
      </trkpt>
      <trkpt lat="45.85906" lon="3.58176">
        <ele>558.79998779297</ele>
        <time>2024-11-15T18:43:56.000Z</time>
      </trkpt>
      <trkpt lat="45.85906" lon="3.58181">
        <ele>559</ele>
        <time>2024-11-15T18:43:57.000Z</time>
      </trkpt>
      <trkpt lat="45.85906" lon="3.58185">
        <ele>559.20001220703</ele>
        <time>2024-11-15T18:43:58.000Z</time>
      </trkpt>
      <trkpt lat="45.85906" lon="3.5819">
        <ele>559</ele>
        <time>2024-11-15T18:43:59.000Z</time>
      </trkpt>
      <trkpt lat="45.85905" lon="3.58194">
        <ele>558.59997558594</ele>
        <time>2024-11-15T18:44:00.000Z</time>
      </trkpt>
      <trkpt lat="45.85905" lon="3.58198">
        <ele>558.59997558594</ele>
        <time>2024-11-15T18:44:01.000Z</time>
      </trkpt>
      <trkpt lat="45.85905" lon="3.58203">
        <ele>558.59997558594</ele>
        <time>2024-11-15T18:44:02.000Z</time>
      </trkpt>
      <trkpt lat="45.85904" lon="3.58207">
        <ele>558.40002441406</ele>
        <time>2024-11-15T18:44:03.000Z</time>
      </trkpt>
      <trkpt lat="45.85903" lon="3.58212">
        <ele>558</ele>
        <time>2024-11-15T18:44:04.000Z</time>
      </trkpt>
      <trkpt lat="45.85903" lon="3.58216">
        <ele>558</ele>
        <time>2024-11-15T18:44:05.000Z</time>
      </trkpt>
      <trkpt lat="45.85902" lon="3.58221">
        <ele>557.79998779297</ele>
        <time>2024-11-15T18:44:06.000Z</time>
      </trkpt>
      <trkpt lat="45.85901" lon="3.58225">
        <ele>557.59997558594</ele>
        <time>2024-11-15T18:44:07.000Z</time>
      </trkpt>
      <trkpt lat="45.859" lon="3.5823">
        <ele>557</ele>
        <time>2024-11-15T18:44:08.000Z</time>
      </trkpt>
      <trkpt lat="45.85899" lon="3.58234">
        <ele>557</ele>
        <time>2024-11-15T18:44:09.000Z</time>
      </trkpt>
      <trkpt lat="45.85897" lon="3.58239">
        <ele>556.59997558594</ele>
        <time>2024-11-15T18:44:10.000Z</time>
      </trkpt>
      <trkpt lat="45.85895" lon="3.58243">
        <ele>556.40002441406</ele>
        <time>2024-11-15T18:44:11.000Z</time>
      </trkpt>
      <trkpt lat="45.85893" lon="3.58246">
        <ele>555.79998779297</ele>
        <time>2024-11-15T18:44:12.000Z</time>
      </trkpt>
      <trkpt lat="45.8589" lon="3.5825">
        <ele>555.79998779297</ele>
        <time>2024-11-15T18:44:13.000Z</time>
      </trkpt>
      <trkpt lat="45.85888" lon="3.58253">
        <ele>555.20001220703</ele>
        <time>2024-11-15T18:44:14.000Z</time>
      </trkpt>
      <trkpt lat="45.85885" lon="3.58256">
        <ele>554.79998779297</ele>
        <time>2024-11-15T18:44:15.000Z</time>
      </trkpt>
      <trkpt lat="45.85882" lon="3.58258">
        <ele>554.59997558594</ele>
        <time>2024-11-15T18:44:16.000Z</time>
      </trkpt>
      <trkpt lat="45.8588" lon="3.5826">
        <ele>554.20001220703</ele>
        <time>2024-11-15T18:44:17.000Z</time>
      </trkpt>
      <trkpt lat="45.85877" lon="3.58262">
        <ele>553.40002441406</ele>
        <time>2024-11-15T18:44:18.000Z</time>
      </trkpt>
      <trkpt lat="45.85874" lon="3.58264">
        <ele>553</ele>
        <time>2024-11-15T18:44:19.000Z</time>
      </trkpt>
      <trkpt lat="45.85871" lon="3.58266">
        <ele>552.59997558594</ele>
        <time>2024-11-15T18:44:20.000Z</time>
      </trkpt>
      <trkpt lat="45.85867" lon="3.58268">
        <ele>552</ele>
        <time>2024-11-15T18:44:21.000Z</time>
      </trkpt>
      <trkpt lat="45.85864" lon="3.5827">
        <ele>551.59997558594</ele>
        <time>2024-11-15T18:44:22.000Z</time>
      </trkpt>
      <trkpt lat="45.85861" lon="3.58272">
        <ele>551.40002441406</ele>
        <time>2024-11-15T18:44:23.000Z</time>
      </trkpt>
      <trkpt lat="45.85858" lon="3.58274">
        <ele>551</ele>
        <time>2024-11-15T18:44:24.000Z</time>
      </trkpt>
      <trkpt lat="45.85855" lon="3.58276">
        <ele>550.40002441406</ele>
        <time>2024-11-15T18:44:25.000Z</time>
      </trkpt>
      <trkpt lat="45.85852" lon="3.58278">
        <ele>550</ele>
        <time>2024-11-15T18:44:26.000Z</time>
      </trkpt>
      <trkpt lat="45.8585" lon="3.5828">
        <ele>549.79998779297</ele>
        <time>2024-11-15T18:44:27.000Z</time>
      </trkpt>
      <trkpt lat="45.85847" lon="3.58283">
        <ele>549.59997558594</ele>
        <time>2024-11-15T18:44:28.000Z</time>
      </trkpt>
      <trkpt lat="45.85844" lon="3.58285">
        <ele>549.40002441406</ele>
        <time>2024-11-15T18:44:29.000Z</time>
      </trkpt>
      <trkpt lat="45.85842" lon="3.58288">
        <ele>549.20001220703</ele>
        <time>2024-11-15T18:44:30.000Z</time>
      </trkpt>
      <trkpt lat="45.8584" lon="3.58291">
        <ele>549</ele>
        <time>2024-11-15T18:44:31.000Z</time>
      </trkpt>
      <trkpt lat="45.85838" lon="3.58294">
        <ele>548.79998779297</ele>
        <time>2024-11-15T18:44:32.000Z</time>
      </trkpt>
      <trkpt lat="45.85837" lon="3.58298">
        <ele>548.59997558594</ele>
        <time>2024-11-15T18:44:33.000Z</time>
      </trkpt>
      <trkpt lat="45.85836" lon="3.58302">
        <ele>548.40002441406</ele>
        <time>2024-11-15T18:44:34.000Z</time>
      </trkpt>
      <trkpt lat="45.85834" lon="3.58305">
        <ele>548.40002441406</ele>
        <time>2024-11-15T18:44:35.000Z</time>
      </trkpt>
      <trkpt lat="45.85833" lon="3.58309">
        <ele>548.20001220703</ele>
        <time>2024-11-15T18:44:36.000Z</time>
      </trkpt>
      <trkpt lat="45.85832" lon="3.58313">
        <ele>548</ele>
        <time>2024-11-15T18:44:37.000Z</time>
      </trkpt>
      <trkpt lat="45.85831" lon="3.58318">
        <ele>548</ele>
        <time>2024-11-15T18:44:38.000Z</time>
      </trkpt>
      <trkpt lat="45.8583" lon="3.58321">
        <ele>548</ele>
        <time>2024-11-15T18:44:39.000Z</time>
      </trkpt>
      <trkpt lat="45.85829" lon="3.58326">
        <ele>547.79998779297</ele>
        <time>2024-11-15T18:44:40.000Z</time>
      </trkpt>
      <trkpt lat="45.85828" lon="3.5833">
        <ele>547.79998779297</ele>
        <time>2024-11-15T18:44:41.000Z</time>
      </trkpt>
      <trkpt lat="45.85827" lon="3.58334">
        <ele>547.79998779297</ele>
        <time>2024-11-15T18:44:42.000Z</time>
      </trkpt>
      <trkpt lat="45.85826" lon="3.58338">
        <ele>547.59997558594</ele>
        <time>2024-11-15T18:44:43.000Z</time>
      </trkpt>
      <trkpt lat="45.85825" lon="3.58343">
        <ele>547.59997558594</ele>
        <time>2024-11-15T18:44:44.000Z</time>
      </trkpt>
      <trkpt lat="45.85824" lon="3.58347">
        <ele>547.40002441406</ele>
        <time>2024-11-15T18:44:45.000Z</time>
      </trkpt>
      <trkpt lat="45.85823" lon="3.58351">
        <ele>547.20001220703</ele>
        <time>2024-11-15T18:44:46.000Z</time>
      </trkpt>
      <trkpt lat="45.85821" lon="3.58356">
        <ele>547</ele>
        <time>2024-11-15T18:44:47.000Z</time>
      </trkpt>
      <trkpt lat="45.8582" lon="3.58361">
        <ele>546.59997558594</ele>
        <time>2024-11-15T18:44:48.000Z</time>
      </trkpt>
      <trkpt lat="45.85818" lon="3.58365">
        <ele>545.59997558594</ele>
        <time>2024-11-15T18:44:49.000Z</time>
      </trkpt>
      <trkpt lat="45.85817" lon="3.5837">
        <ele>545.20001220703</ele>
        <time>2024-11-15T18:44:50.000Z</time>
      </trkpt>
      <trkpt lat="45.85816" lon="3.58375">
        <ele>544.79998779297</ele>
        <time>2024-11-15T18:44:51.000Z</time>
      </trkpt>
      <trkpt lat="45.85815" lon="3.5838">
        <ele>544.40002441406</ele>
        <time>2024-11-15T18:44:52.000Z</time>
      </trkpt>
      <trkpt lat="45.85814" lon="3.58384">
        <ele>544</ele>
        <time>2024-11-15T18:44:53.000Z</time>
      </trkpt>
      <trkpt lat="45.85813" lon="3.58389">
        <ele>543.40002441406</ele>
        <time>2024-11-15T18:44:54.000Z</time>
      </trkpt>
      <trkpt lat="45.85812" lon="3.58393">
        <ele>543.20001220703</ele>
        <time>2024-11-15T18:44:55.000Z</time>
      </trkpt>
      <trkpt lat="45.85811" lon="3.58398">
        <ele>542.79998779297</ele>
        <time>2024-11-15T18:44:56.000Z</time>
      </trkpt>
      <trkpt lat="45.85811" lon="3.58403">
        <ele>542.59997558594</ele>
        <time>2024-11-15T18:44:57.000Z</time>
      </trkpt>
      <trkpt lat="45.8581" lon="3.58408">
        <ele>542.20001220703</ele>
        <time>2024-11-15T18:44:58.000Z</time>
      </trkpt>
      <trkpt lat="45.85809" lon="3.58413">
        <ele>541.79998779297</ele>
        <time>2024-11-15T18:44:59.000Z</time>
      </trkpt>
      <trkpt lat="45.85809" lon="3.58418">
        <ele>541.59997558594</ele>
        <time>2024-11-15T18:45:00.000Z</time>
      </trkpt>
      <trkpt lat="45.85809" lon="3.58423">
        <ele>541.40002441406</ele>
        <time>2024-11-15T18:45:01.000Z</time>
      </trkpt>
      <trkpt lat="45.85808" lon="3.58427">
        <ele>541.20001220703</ele>
        <time>2024-11-15T18:45:02.000Z</time>
      </trkpt>
      <trkpt lat="45.85808" lon="3.58432">
        <ele>540.79998779297</ele>
        <time>2024-11-15T18:45:03.000Z</time>
      </trkpt>
      <trkpt lat="45.85808" lon="3.58437">
        <ele>540.40002441406</ele>
        <time>2024-11-15T18:45:04.000Z</time>
      </trkpt>
      <trkpt lat="45.85807" lon="3.58442">
        <ele>540.40002441406</ele>
        <time>2024-11-15T18:45:05.000Z</time>
      </trkpt>
      <trkpt lat="45.85807" lon="3.58447">
        <ele>540.20001220703</ele>
        <time>2024-11-15T18:45:06.000Z</time>
      </trkpt>
      <trkpt lat="45.85807" lon="3.58451">
        <ele>540</ele>
        <time>2024-11-15T18:45:07.000Z</time>
      </trkpt>
      <trkpt lat="45.85807" lon="3.58455">
        <ele>539.79998779297</ele>
        <time>2024-11-15T18:45:08.000Z</time>
      </trkpt>
      <trkpt lat="45.85807" lon="3.5846">
        <ele>539.59997558594</ele>
        <time>2024-11-15T18:45:09.000Z</time>
      </trkpt>
      <trkpt lat="45.85807" lon="3.58464">
        <ele>539.40002441406</ele>
        <time>2024-11-15T18:45:10.000Z</time>
      </trkpt>
      <trkpt lat="45.85807" lon="3.58469">
        <ele>539.40002441406</ele>
        <time>2024-11-15T18:45:11.000Z</time>
      </trkpt>
      <trkpt lat="45.85807" lon="3.58473">
        <ele>539.40002441406</ele>
        <time>2024-11-15T18:45:12.000Z</time>
      </trkpt>
      <trkpt lat="45.85806" lon="3.58478">
        <ele>539.40002441406</ele>
        <time>2024-11-15T18:45:13.000Z</time>
      </trkpt>
      <trkpt lat="45.85806" lon="3.58482">
        <ele>539.20001220703</ele>
        <time>2024-11-15T18:45:14.000Z</time>
      </trkpt>
      <trkpt lat="45.85806" lon="3.58486">
        <ele>539.20001220703</ele>
        <time>2024-11-15T18:45:15.000Z</time>
      </trkpt>
      <trkpt lat="45.85806" lon="3.5849">
        <ele>539.20001220703</ele>
        <time>2024-11-15T18:45:16.000Z</time>
      </trkpt>
      <trkpt lat="45.85806" lon="3.58494">
        <ele>539.40002441406</ele>
        <time>2024-11-15T18:45:17.000Z</time>
      </trkpt>
      <trkpt lat="45.85805" lon="3.58498">
        <ele>539.40002441406</ele>
        <time>2024-11-15T18:45:18.000Z</time>
      </trkpt>
      <trkpt lat="45.85805" lon="3.58501">
        <ele>539.20001220703</ele>
        <time>2024-11-15T18:45:19.000Z</time>
      </trkpt>
      <trkpt lat="45.85805" lon="3.58505">
        <ele>539.20001220703</ele>
        <time>2024-11-15T18:45:20.000Z</time>
      </trkpt>
      <trkpt lat="45.85804" lon="3.58509">
        <ele>539.40002441406</ele>
        <time>2024-11-15T18:45:21.000Z</time>
      </trkpt>
      <trkpt lat="45.85804" lon="3.58513">
        <ele>539.59997558594</ele>
        <time>2024-11-15T18:45:22.000Z</time>
      </trkpt>
      <trkpt lat="45.85804" lon="3.58516">
        <ele>539.59997558594</ele>
        <time>2024-11-15T18:45:23.000Z</time>
      </trkpt>
      <trkpt lat="45.85804" lon="3.58519">
        <ele>539.79998779297</ele>
        <time>2024-11-15T18:45:24.000Z</time>
      </trkpt>
      <trkpt lat="45.85805" lon="3.58522">
        <ele>539.79998779297</ele>
        <time>2024-11-15T18:45:25.000Z</time>
      </trkpt>
      <trkpt lat="45.85805" lon="3.58525">
        <ele>539.79998779297</ele>
        <time>2024-11-15T18:45:26.000Z</time>
      </trkpt>
      <trkpt lat="45.85806" lon="3.58527">
        <ele>539.79998779297</ele>
        <time>2024-11-15T18:45:27.000Z</time>
      </trkpt>
      <trkpt lat="45.85807" lon="3.5853">
        <ele>540.20001220703</ele>
        <time>2024-11-15T18:45:28.000Z</time>
      </trkpt>
      <trkpt lat="45.85808" lon="3.58532">
        <ele>540.59997558594</ele>
        <time>2024-11-15T18:45:29.000Z</time>
      </trkpt>
      <trkpt lat="45.85809" lon="3.58534">
        <ele>541</ele>
        <time>2024-11-15T18:45:30.000Z</time>
      </trkpt>
      <trkpt lat="45.85811" lon="3.58536">
        <ele>541.20001220703</ele>
        <time>2024-11-15T18:45:31.000Z</time>
      </trkpt>
      <trkpt lat="45.85812" lon="3.58537">
        <ele>541.59997558594</ele>
        <time>2024-11-15T18:45:32.000Z</time>
      </trkpt>
      <trkpt lat="45.85813" lon="3.58539">
        <ele>541.59997558594</ele>
        <time>2024-11-15T18:45:33.000Z</time>
      </trkpt>
      <trkpt lat="45.85815" lon="3.58541">
        <ele>541.79998779297</ele>
        <time>2024-11-15T18:45:34.000Z</time>
      </trkpt>
      <trkpt lat="45.85816" lon="3.58543">
        <ele>542</ele>
        <time>2024-11-15T18:45:35.000Z</time>
      </trkpt>
      <trkpt lat="45.85818" lon="3.58545">
        <ele>542</ele>
        <time>2024-11-15T18:45:36.000Z</time>
      </trkpt>
      <trkpt lat="45.85819" lon="3.58546">
        <ele>542</ele>
        <time>2024-11-15T18:45:37.000Z</time>
      </trkpt>
      <trkpt lat="45.85821" lon="3.58548">
        <ele>542.40002441406</ele>
        <time>2024-11-15T18:45:38.000Z</time>
      </trkpt>
      <trkpt lat="45.85822" lon="3.58549">
        <ele>542.59997558594</ele>
        <time>2024-11-15T18:45:39.000Z</time>
      </trkpt>
      <trkpt lat="45.85824" lon="3.58551">
        <ele>543</ele>
        <time>2024-11-15T18:45:40.000Z</time>
      </trkpt>
      <trkpt lat="45.85825" lon="3.58552">
        <ele>543.20001220703</ele>
        <time>2024-11-15T18:45:41.000Z</time>
      </trkpt>
      <trkpt lat="45.85827" lon="3.58554">
        <ele>543.40002441406</ele>
        <time>2024-11-15T18:45:42.000Z</time>
      </trkpt>
      <trkpt lat="45.85829" lon="3.58555">
        <ele>543.59997558594</ele>
        <time>2024-11-15T18:45:43.000Z</time>
      </trkpt>
      <trkpt lat="45.8583" lon="3.58557">
        <ele>543.79998779297</ele>
        <time>2024-11-15T18:45:44.000Z</time>
      </trkpt>
      <trkpt lat="45.85832" lon="3.58558">
        <ele>544.20001220703</ele>
        <time>2024-11-15T18:45:45.000Z</time>
      </trkpt>
      <trkpt lat="45.85833" lon="3.5856">
        <ele>544.59997558594</ele>
        <time>2024-11-15T18:45:46.000Z</time>
      </trkpt>
      <trkpt lat="45.85835" lon="3.58561">
        <ele>545</ele>
        <time>2024-11-15T18:45:47.000Z</time>
      </trkpt>
      <trkpt lat="45.85836" lon="3.58563">
        <ele>545.20001220703</ele>
        <time>2024-11-15T18:45:48.000Z</time>
      </trkpt>
      <trkpt lat="45.85838" lon="3.58564">
        <ele>545.59997558594</ele>
        <time>2024-11-15T18:45:49.000Z</time>
      </trkpt>
      <trkpt lat="45.85839" lon="3.58565">
        <ele>545.79998779297</ele>
        <time>2024-11-15T18:45:50.000Z</time>
      </trkpt>
      <trkpt lat="45.8584" lon="3.58567">
        <ele>545.79998779297</ele>
        <time>2024-11-15T18:45:51.000Z</time>
      </trkpt>
      <trkpt lat="45.85842" lon="3.58568">
        <ele>546</ele>
        <time>2024-11-15T18:45:52.000Z</time>
      </trkpt>
      <trkpt lat="45.85843" lon="3.58569">
        <ele>546.20001220703</ele>
        <time>2024-11-15T18:45:53.000Z</time>
      </trkpt>
      <trkpt lat="45.85844" lon="3.58571">
        <ele>546.40002441406</ele>
        <time>2024-11-15T18:45:54.000Z</time>
      </trkpt>
      <trkpt lat="45.85846" lon="3.58572">
        <ele>546.59997558594</ele>
        <time>2024-11-15T18:45:55.000Z</time>
      </trkpt>
      <trkpt lat="45.85847" lon="3.58573">
        <ele>546.79998779297</ele>
        <time>2024-11-15T18:45:56.000Z</time>
      </trkpt>
      <trkpt lat="45.85848" lon="3.58575">
        <ele>547.20001220703</ele>
        <time>2024-11-15T18:45:57.000Z</time>
      </trkpt>
      <trkpt lat="45.85849" lon="3.58576">
        <ele>547.40002441406</ele>
        <time>2024-11-15T18:45:58.000Z</time>
      </trkpt>
      <trkpt lat="45.8585" lon="3.58577">
        <ele>547.79998779297</ele>
        <time>2024-11-15T18:45:59.000Z</time>
      </trkpt>
      <trkpt lat="45.85852" lon="3.58579">
        <ele>548</ele>
        <time>2024-11-15T18:46:00.000Z</time>
      </trkpt>
      <trkpt lat="45.85852" lon="3.5858">
        <ele>548.20001220703</ele>
        <time>2024-11-15T18:46:01.000Z</time>
      </trkpt>
      <trkpt lat="45.85853" lon="3.58581">
        <ele>548.59997558594</ele>
        <time>2024-11-15T18:46:02.000Z</time>
      </trkpt>
      <trkpt lat="45.85855" lon="3.58582">
        <ele>548.79998779297</ele>
        <time>2024-11-15T18:46:03.000Z</time>
      </trkpt>
      <trkpt lat="45.85856" lon="3.58583">
        <ele>549</ele>
        <time>2024-11-15T18:46:04.000Z</time>
      </trkpt>
      <trkpt lat="45.85857" lon="3.58585">
        <ele>549</ele>
        <time>2024-11-15T18:46:05.000Z</time>
      </trkpt>
      <trkpt lat="45.85858" lon="3.58586">
        <ele>549.40002441406</ele>
        <time>2024-11-15T18:46:06.000Z</time>
      </trkpt>
      <trkpt lat="45.85859" lon="3.58587">
        <ele>549.59997558594</ele>
        <time>2024-11-15T18:46:07.000Z</time>
      </trkpt>
      <trkpt lat="45.8586" lon="3.58588">
        <ele>549.79998779297</ele>
        <time>2024-11-15T18:46:08.000Z</time>
      </trkpt>
      <trkpt lat="45.85861" lon="3.58589">
        <ele>550</ele>
        <time>2024-11-15T18:46:09.000Z</time>
      </trkpt>
      <trkpt lat="45.85862" lon="3.58589">
        <ele>550.20001220703</ele>
        <time>2024-11-15T18:46:10.000Z</time>
      </trkpt>
      <trkpt lat="45.85864" lon="3.5859">
        <ele>550.40002441406</ele>
        <time>2024-11-15T18:46:11.000Z</time>
      </trkpt>
      <trkpt lat="45.85865" lon="3.58591">
        <ele>550.40002441406</ele>
        <time>2024-11-15T18:46:12.000Z</time>
      </trkpt>
      <trkpt lat="45.85866" lon="3.58592">
        <ele>550.59997558594</ele>
        <time>2024-11-15T18:46:13.000Z</time>
      </trkpt>
      <trkpt lat="45.85867" lon="3.58593">
        <ele>550.59997558594</ele>
        <time>2024-11-15T18:46:14.000Z</time>
      </trkpt>
      <trkpt lat="45.85868" lon="3.58594">
        <ele>551</ele>
        <time>2024-11-15T18:46:15.000Z</time>
      </trkpt>
      <trkpt lat="45.8587" lon="3.58595">
        <ele>551</ele>
        <time>2024-11-15T18:46:16.000Z</time>
      </trkpt>
      <trkpt lat="45.85871" lon="3.58596">
        <ele>551.20001220703</ele>
        <time>2024-11-15T18:46:17.000Z</time>
      </trkpt>
      <trkpt lat="45.85872" lon="3.58597">
        <ele>551.40002441406</ele>
        <time>2024-11-15T18:46:18.000Z</time>
      </trkpt>
      <trkpt lat="45.85874" lon="3.58598">
        <ele>551.40002441406</ele>
        <time>2024-11-15T18:46:19.000Z</time>
      </trkpt>
      <trkpt lat="45.85875" lon="3.58599">
        <ele>551.59997558594</ele>
        <time>2024-11-15T18:46:20.000Z</time>
      </trkpt>
      <trkpt lat="45.85876" lon="3.586">
        <ele>551.59997558594</ele>
        <time>2024-11-15T18:46:21.000Z</time>
      </trkpt>
      <trkpt lat="45.85877" lon="3.58601">
        <ele>551.59997558594</ele>
        <time>2024-11-15T18:46:22.000Z</time>
      </trkpt>
      <trkpt lat="45.85878" lon="3.58602">
        <ele>551.59997558594</ele>
        <time>2024-11-15T18:46:23.000Z</time>
      </trkpt>
      <trkpt lat="45.85879" lon="3.58603">
        <ele>551.79998779297</ele>
        <time>2024-11-15T18:46:24.000Z</time>
      </trkpt>
      <trkpt lat="45.8588" lon="3.58604">
        <ele>552.20001220703</ele>
        <time>2024-11-15T18:46:25.000Z</time>
      </trkpt>
      <trkpt lat="45.85881" lon="3.58604">
        <ele>552.59997558594</ele>
        <time>2024-11-15T18:46:26.000Z</time>
      </trkpt>
      <trkpt lat="45.85882" lon="3.58605">
        <ele>552.59997558594</ele>
        <time>2024-11-15T18:46:27.000Z</time>
      </trkpt>
      <trkpt lat="45.85883" lon="3.58606">
        <ele>552.79998779297</ele>
        <time>2024-11-15T18:46:28.000Z</time>
      </trkpt>
      <trkpt lat="45.85884" lon="3.58607">
        <ele>553</ele>
        <time>2024-11-15T18:46:29.000Z</time>
      </trkpt>
      <trkpt lat="45.85886" lon="3.58608">
        <ele>553.20001220703</ele>
        <time>2024-11-15T18:46:30.000Z</time>
      </trkpt>
      <trkpt lat="45.85887" lon="3.58609">
        <ele>553.20001220703</ele>
        <time>2024-11-15T18:46:31.000Z</time>
      </trkpt>
      <trkpt lat="45.85889" lon="3.5861">
        <ele>553.40002441406</ele>
        <time>2024-11-15T18:46:32.000Z</time>
      </trkpt>
      <trkpt lat="45.8589" lon="3.58612">
        <ele>553.40002441406</ele>
        <time>2024-11-15T18:46:33.000Z</time>
      </trkpt>
      <trkpt lat="45.85892" lon="3.58613">
        <ele>553.59997558594</ele>
        <time>2024-11-15T18:46:34.000Z</time>
      </trkpt>
      <trkpt lat="45.85893" lon="3.58614">
        <ele>553.79998779297</ele>
        <time>2024-11-15T18:46:35.000Z</time>
      </trkpt>
      <trkpt lat="45.85894" lon="3.58615">
        <ele>554</ele>
        <time>2024-11-15T18:46:36.000Z</time>
      </trkpt>
      <trkpt lat="45.85895" lon="3.58616">
        <ele>554.20001220703</ele>
        <time>2024-11-15T18:46:37.000Z</time>
      </trkpt>
      <trkpt lat="45.85896" lon="3.58618">
        <ele>554.20001220703</ele>
        <time>2024-11-15T18:46:38.000Z</time>
      </trkpt>
      <trkpt lat="45.85897" lon="3.58619">
        <ele>554.40002441406</ele>
        <time>2024-11-15T18:46:39.000Z</time>
      </trkpt>
      <trkpt lat="45.85898" lon="3.58621">
        <ele>554.59997558594</ele>
        <time>2024-11-15T18:46:40.000Z</time>
      </trkpt>
      <trkpt lat="45.85899" lon="3.58622">
        <ele>554.79998779297</ele>
        <time>2024-11-15T18:46:41.000Z</time>
      </trkpt>
      <trkpt lat="45.859" lon="3.58624">
        <ele>554.79998779297</ele>
        <time>2024-11-15T18:46:42.000Z</time>
      </trkpt>
      <trkpt lat="45.859" lon="3.58626">
        <ele>555</ele>
        <time>2024-11-15T18:46:43.000Z</time>
      </trkpt>
      <trkpt lat="45.85901" lon="3.58627">
        <ele>555.20001220703</ele>
        <time>2024-11-15T18:46:44.000Z</time>
      </trkpt>
      <trkpt lat="45.85902" lon="3.58629">
        <ele>555.20001220703</ele>
        <time>2024-11-15T18:46:45.000Z</time>
      </trkpt>
      <trkpt lat="45.85903" lon="3.58631">
        <ele>555.59997558594</ele>
        <time>2024-11-15T18:46:46.000Z</time>
      </trkpt>
      <trkpt lat="45.85903" lon="3.58633">
        <ele>556</ele>
        <time>2024-11-15T18:46:47.000Z</time>
      </trkpt>
      <trkpt lat="45.85904" lon="3.58635">
        <ele>556.20001220703</ele>
        <time>2024-11-15T18:46:48.000Z</time>
      </trkpt>
      <trkpt lat="45.85905" lon="3.58637">
        <ele>556.20001220703</ele>
        <time>2024-11-15T18:46:49.000Z</time>
      </trkpt>
      <trkpt lat="45.85906" lon="3.58639">
        <ele>556.20001220703</ele>
        <time>2024-11-15T18:46:50.000Z</time>
      </trkpt>
      <trkpt lat="45.85906" lon="3.58641">
        <ele>556.40002441406</ele>
        <time>2024-11-15T18:46:51.000Z</time>
      </trkpt>
      <trkpt lat="45.85907" lon="3.58643">
        <ele>556.59997558594</ele>
        <time>2024-11-15T18:46:52.000Z</time>
      </trkpt>
      <trkpt lat="45.85908" lon="3.58644">
        <ele>556.59997558594</ele>
        <time>2024-11-15T18:46:53.000Z</time>
      </trkpt>
      <trkpt lat="45.85908" lon="3.58646">
        <ele>556.79998779297</ele>
        <time>2024-11-15T18:46:54.000Z</time>
      </trkpt>
      <trkpt lat="45.85909" lon="3.58648">
        <ele>557.20001220703</ele>
        <time>2024-11-15T18:46:55.000Z</time>
      </trkpt>
      <trkpt lat="45.8591" lon="3.5865">
        <ele>557.20001220703</ele>
        <time>2024-11-15T18:46:56.000Z</time>
      </trkpt>
      <trkpt lat="45.8591" lon="3.58652">
        <ele>557.40002441406</ele>
        <time>2024-11-15T18:46:57.000Z</time>
      </trkpt>
      <trkpt lat="45.85911" lon="3.58654">
        <ele>557.59997558594</ele>
        <time>2024-11-15T18:46:58.000Z</time>
      </trkpt>
      <trkpt lat="45.85912" lon="3.58655">
        <ele>557.79998779297</ele>
        <time>2024-11-15T18:46:59.000Z</time>
      </trkpt>
      <trkpt lat="45.85913" lon="3.58657">
        <ele>558</ele>
        <time>2024-11-15T18:47:00.000Z</time>
      </trkpt>
      <trkpt lat="45.85914" lon="3.58659">
        <ele>558.40002441406</ele>
        <time>2024-11-15T18:47:01.000Z</time>
      </trkpt>
      <trkpt lat="45.85915" lon="3.58661">
        <ele>558.40002441406</ele>
        <time>2024-11-15T18:47:02.000Z</time>
      </trkpt>
      <trkpt lat="45.85916" lon="3.58662">
        <ele>558.59997558594</ele>
        <time>2024-11-15T18:47:03.000Z</time>
      </trkpt>
      <trkpt lat="45.85918" lon="3.58664">
        <ele>558.79998779297</ele>
        <time>2024-11-15T18:47:04.000Z</time>
      </trkpt>
      <trkpt lat="45.85919" lon="3.58665">
        <ele>558.79998779297</ele>
        <time>2024-11-15T18:47:05.000Z</time>
      </trkpt>
      <trkpt lat="45.8592" lon="3.58667">
        <ele>559</ele>
        <time>2024-11-15T18:47:06.000Z</time>
      </trkpt>
      <trkpt lat="45.85921" lon="3.58668">
        <ele>559</ele>
        <time>2024-11-15T18:47:07.000Z</time>
      </trkpt>
      <trkpt lat="45.85922" lon="3.5867">
        <ele>559.20001220703</ele>
        <time>2024-11-15T18:47:08.000Z</time>
      </trkpt>
      <trkpt lat="45.85923" lon="3.58671">
        <ele>559.40002441406</ele>
        <time>2024-11-15T18:47:09.000Z</time>
      </trkpt>
      <trkpt lat="45.85924" lon="3.58672">
        <ele>559.40002441406</ele>
        <time>2024-11-15T18:47:10.000Z</time>
      </trkpt>
      <trkpt lat="45.85926" lon="3.58673">
        <ele>559.40002441406</ele>
        <time>2024-11-15T18:47:11.000Z</time>
      </trkpt>
      <trkpt lat="45.85927" lon="3.58674">
        <ele>559.79998779297</ele>
        <time>2024-11-15T18:47:12.000Z</time>
      </trkpt>
      <trkpt lat="45.85928" lon="3.58675">
        <ele>559.79998779297</ele>
        <time>2024-11-15T18:47:13.000Z</time>
      </trkpt>
      <trkpt lat="45.8593" lon="3.58675">
        <ele>560</ele>
        <time>2024-11-15T18:47:14.000Z</time>
      </trkpt>
      <trkpt lat="45.85931" lon="3.58676">
        <ele>560.20001220703</ele>
        <time>2024-11-15T18:47:15.000Z</time>
      </trkpt>
      <trkpt lat="45.85932" lon="3.58677">
        <ele>560.40002441406</ele>
        <time>2024-11-15T18:47:16.000Z</time>
      </trkpt>
      <trkpt lat="45.85934" lon="3.58677">
        <ele>560.59997558594</ele>
        <time>2024-11-15T18:47:17.000Z</time>
      </trkpt>
      <trkpt lat="45.85935" lon="3.58678">
        <ele>560.59997558594</ele>
        <time>2024-11-15T18:47:18.000Z</time>
      </trkpt>
      <trkpt lat="45.85937" lon="3.58678">
        <ele>561</ele>
        <time>2024-11-15T18:47:19.000Z</time>
      </trkpt>
      <trkpt lat="45.85938" lon="3.58678">
        <ele>561.20001220703</ele>
        <time>2024-11-15T18:47:20.000Z</time>
      </trkpt>
      <trkpt lat="45.8594" lon="3.58679">
        <ele>561.20001220703</ele>
        <time>2024-11-15T18:47:21.000Z</time>
      </trkpt>
      <trkpt lat="45.85942" lon="3.58679">
        <ele>561.40002441406</ele>
        <time>2024-11-15T18:47:22.000Z</time>
      </trkpt>
      <trkpt lat="45.85944" lon="3.58679">
        <ele>561.59997558594</ele>
        <time>2024-11-15T18:47:23.000Z</time>
      </trkpt>
      <trkpt lat="45.85946" lon="3.5868">
        <ele>561.79998779297</ele>
        <time>2024-11-15T18:47:24.000Z</time>
      </trkpt>
      <trkpt lat="45.85949" lon="3.5868">
        <ele>562</ele>
        <time>2024-11-15T18:47:25.000Z</time>
      </trkpt>
      <trkpt lat="45.85951" lon="3.5868">
        <ele>562</ele>
        <time>2024-11-15T18:47:26.000Z</time>
      </trkpt>
      <trkpt lat="45.85954" lon="3.58681">
        <ele>562.40002441406</ele>
        <time>2024-11-15T18:47:27.000Z</time>
      </trkpt>
      <trkpt lat="45.85956" lon="3.58681">
        <ele>562.79998779297</ele>
        <time>2024-11-15T18:47:28.000Z</time>
      </trkpt>
      <trkpt lat="45.85959" lon="3.58682">
        <ele>562.79998779297</ele>
        <time>2024-11-15T18:47:29.000Z</time>
      </trkpt>
      <trkpt lat="45.85961" lon="3.58682">
        <ele>563</ele>
        <time>2024-11-15T18:47:30.000Z</time>
      </trkpt>
      <trkpt lat="45.85964" lon="3.58683">
        <ele>563</ele>
        <time>2024-11-15T18:47:31.000Z</time>
      </trkpt>
      <trkpt lat="45.85966" lon="3.58684">
        <ele>563.59997558594</ele>
        <time>2024-11-15T18:47:32.000Z</time>
      </trkpt>
      <trkpt lat="45.85968" lon="3.58685">
        <ele>564</ele>
        <time>2024-11-15T18:47:33.000Z</time>
      </trkpt>
      <trkpt lat="45.85971" lon="3.58686">
        <ele>564</ele>
        <time>2024-11-15T18:47:34.000Z</time>
      </trkpt>
      <trkpt lat="45.85973" lon="3.58687">
        <ele>564.20001220703</ele>
        <time>2024-11-15T18:47:35.000Z</time>
      </trkpt>
      <trkpt lat="45.85975" lon="3.58688">
        <ele>564.40002441406</ele>
        <time>2024-11-15T18:47:36.000Z</time>
      </trkpt>
      <trkpt lat="45.85978" lon="3.58688">
        <ele>564.40002441406</ele>
        <time>2024-11-15T18:47:37.000Z</time>
      </trkpt>
      <trkpt lat="45.8598" lon="3.58689">
        <ele>564.20001220703</ele>
        <time>2024-11-15T18:47:38.000Z</time>
      </trkpt>
      <trkpt lat="45.85983" lon="3.58689">
        <ele>564.20001220703</ele>
        <time>2024-11-15T18:47:39.000Z</time>
      </trkpt>
      <trkpt lat="45.85986" lon="3.5869">
        <ele>564</ele>
        <time>2024-11-15T18:47:40.000Z</time>
      </trkpt>
      <trkpt lat="45.85989" lon="3.5869">
        <ele>564</ele>
        <time>2024-11-15T18:47:41.000Z</time>
      </trkpt>
      <trkpt lat="45.85991" lon="3.58689">
        <ele>563.59997558594</ele>
        <time>2024-11-15T18:47:42.000Z</time>
      </trkpt>
      <trkpt lat="45.85994" lon="3.58688">
        <ele>563.59997558594</ele>
        <time>2024-11-15T18:47:43.000Z</time>
      </trkpt>
      <trkpt lat="45.85996" lon="3.58687">
        <ele>563.20001220703</ele>
        <time>2024-11-15T18:47:44.000Z</time>
      </trkpt>
      <trkpt lat="45.85999" lon="3.58685">
        <ele>563.20001220703</ele>
        <time>2024-11-15T18:47:45.000Z</time>
      </trkpt>
      <trkpt lat="45.86001" lon="3.58683">
        <ele>563</ele>
        <time>2024-11-15T18:47:46.000Z</time>
      </trkpt>
      <trkpt lat="45.86003" lon="3.58681">
        <ele>562.79998779297</ele>
        <time>2024-11-15T18:47:47.000Z</time>
      </trkpt>
      <trkpt lat="45.86005" lon="3.58678">
        <ele>562.79998779297</ele>
        <time>2024-11-15T18:47:48.000Z</time>
      </trkpt>
      <trkpt lat="45.86007" lon="3.58676">
        <ele>562.79998779297</ele>
        <time>2024-11-15T18:47:49.000Z</time>
      </trkpt>
      <trkpt lat="45.86009" lon="3.58673">
        <ele>562.59997558594</ele>
        <time>2024-11-15T18:47:50.000Z</time>
      </trkpt>
      <trkpt lat="45.86011" lon="3.58671">
        <ele>562.40002441406</ele>
        <time>2024-11-15T18:47:51.000Z</time>
      </trkpt>
      <trkpt lat="45.86014" lon="3.58668">
        <ele>562.20001220703</ele>
        <time>2024-11-15T18:47:52.000Z</time>
      </trkpt>
      <trkpt lat="45.86016" lon="3.58666">
        <ele>562.20001220703</ele>
        <time>2024-11-15T18:47:53.000Z</time>
      </trkpt>
      <trkpt lat="45.86018" lon="3.58663">
        <ele>562</ele>
        <time>2024-11-15T18:47:54.000Z</time>
      </trkpt>
      <trkpt lat="45.8602" lon="3.58661">
        <ele>562</ele>
        <time>2024-11-15T18:47:55.000Z</time>
      </trkpt>
      <trkpt lat="45.86022" lon="3.58658">
        <ele>561.79998779297</ele>
        <time>2024-11-15T18:47:56.000Z</time>
      </trkpt>
      <trkpt lat="45.86024" lon="3.58656">
        <ele>561.79998779297</ele>
        <time>2024-11-15T18:47:57.000Z</time>
      </trkpt>
      <trkpt lat="45.86027" lon="3.58654">
        <ele>561.79998779297</ele>
        <time>2024-11-15T18:47:58.000Z</time>
      </trkpt>
      <trkpt lat="45.86029" lon="3.58651">
        <ele>561.79998779297</ele>
        <time>2024-11-15T18:47:59.000Z</time>
      </trkpt>
      <trkpt lat="45.86031" lon="3.58649">
        <ele>561.79998779297</ele>
        <time>2024-11-15T18:48:00.000Z</time>
      </trkpt>
      <trkpt lat="45.86033" lon="3.58647">
        <ele>561.59997558594</ele>
        <time>2024-11-15T18:48:01.000Z</time>
      </trkpt>
      <trkpt lat="45.86035" lon="3.58644">
        <ele>561.59997558594</ele>
        <time>2024-11-15T18:48:02.000Z</time>
      </trkpt>
      <trkpt lat="45.86037" lon="3.58642">
        <ele>561.59997558594</ele>
        <time>2024-11-15T18:48:03.000Z</time>
      </trkpt>
      <trkpt lat="45.8604" lon="3.5864">
        <ele>561.40002441406</ele>
        <time>2024-11-15T18:48:04.000Z</time>
      </trkpt>
      <trkpt lat="45.86042" lon="3.58637">
        <ele>561.40002441406</ele>
        <time>2024-11-15T18:48:05.000Z</time>
      </trkpt>
      <trkpt lat="45.86044" lon="3.58635">
        <ele>561.40002441406</ele>
        <time>2024-11-15T18:48:06.000Z</time>
      </trkpt>
      <trkpt lat="45.86046" lon="3.58633">
        <ele>561.59997558594</ele>
        <time>2024-11-15T18:48:07.000Z</time>
      </trkpt>
      <trkpt lat="45.86048" lon="3.58631">
        <ele>561.59997558594</ele>
        <time>2024-11-15T18:48:08.000Z</time>
      </trkpt>
      <trkpt lat="45.8605" lon="3.58629">
        <ele>561.79998779297</ele>
        <time>2024-11-15T18:48:09.000Z</time>
      </trkpt>
      <trkpt lat="45.86052" lon="3.58627">
        <ele>561.79998779297</ele>
        <time>2024-11-15T18:48:10.000Z</time>
      </trkpt>
      <trkpt lat="45.86054" lon="3.58625">
        <ele>562</ele>
        <time>2024-11-15T18:48:11.000Z</time>
      </trkpt>
      <trkpt lat="45.86057" lon="3.58623">
        <ele>562</ele>
        <time>2024-11-15T18:48:12.000Z</time>
      </trkpt>
      <trkpt lat="45.86059" lon="3.58622">
        <ele>562</ele>
        <time>2024-11-15T18:48:13.000Z</time>
      </trkpt>
      <trkpt lat="45.86061" lon="3.5862">
        <ele>562.20001220703</ele>
        <time>2024-11-15T18:48:14.000Z</time>
      </trkpt>
      <trkpt lat="45.86063" lon="3.58619">
        <ele>562.20001220703</ele>
        <time>2024-11-15T18:48:15.000Z</time>
      </trkpt>
      <trkpt lat="45.86066" lon="3.58617">
        <ele>562.40002441406</ele>
        <time>2024-11-15T18:48:16.000Z</time>
      </trkpt>
      <trkpt lat="45.86068" lon="3.58616">
        <ele>562.40002441406</ele>
        <time>2024-11-15T18:48:17.000Z</time>
      </trkpt>
      <trkpt lat="45.86071" lon="3.58615">
        <ele>562.40002441406</ele>
        <time>2024-11-15T18:48:18.000Z</time>
      </trkpt>
      <trkpt lat="45.86074" lon="3.58614">
        <ele>562.59997558594</ele>
        <time>2024-11-15T18:48:19.000Z</time>
      </trkpt>
      <trkpt lat="45.86076" lon="3.58613">
        <ele>562.79998779297</ele>
        <time>2024-11-15T18:48:20.000Z</time>
      </trkpt>
      <trkpt lat="45.86079" lon="3.58612">
        <ele>563</ele>
        <time>2024-11-15T18:48:21.000Z</time>
      </trkpt>
      <trkpt lat="45.86082" lon="3.58611">
        <ele>563</ele>
        <time>2024-11-15T18:48:22.000Z</time>
      </trkpt>
      <trkpt lat="45.86084" lon="3.58609">
        <ele>563</ele>
        <time>2024-11-15T18:48:23.000Z</time>
      </trkpt>
      <trkpt lat="45.86086" lon="3.58608">
        <ele>563</ele>
        <time>2024-11-15T18:48:24.000Z</time>
      </trkpt>
      <trkpt lat="45.86089" lon="3.58606">
        <ele>563.20001220703</ele>
        <time>2024-11-15T18:48:25.000Z</time>
      </trkpt>
      <trkpt lat="45.86091" lon="3.58604">
        <ele>563.20001220703</ele>
        <time>2024-11-15T18:48:26.000Z</time>
      </trkpt>
      <trkpt lat="45.86094" lon="3.58602">
        <ele>563.20001220703</ele>
        <time>2024-11-15T18:48:27.000Z</time>
      </trkpt>
      <trkpt lat="45.86096" lon="3.586">
        <ele>563.20001220703</ele>
        <time>2024-11-15T18:48:28.000Z</time>
      </trkpt>
      <trkpt lat="45.86099" lon="3.58599">
        <ele>563.40002441406</ele>
        <time>2024-11-15T18:48:29.000Z</time>
      </trkpt>
      <trkpt lat="45.86101" lon="3.58597">
        <ele>563.40002441406</ele>
        <time>2024-11-15T18:48:30.000Z</time>
      </trkpt>
      <trkpt lat="45.86103" lon="3.58594">
        <ele>563.40002441406</ele>
        <time>2024-11-15T18:48:31.000Z</time>
      </trkpt>
      <trkpt lat="45.86106" lon="3.58592">
        <ele>563.40002441406</ele>
        <time>2024-11-15T18:48:32.000Z</time>
      </trkpt>
      <trkpt lat="45.86108" lon="3.5859">
        <ele>563.40002441406</ele>
        <time>2024-11-15T18:48:33.000Z</time>
      </trkpt>
      <trkpt lat="45.8611" lon="3.58587">
        <ele>563.40002441406</ele>
        <time>2024-11-15T18:48:34.000Z</time>
      </trkpt>
      <trkpt lat="45.86113" lon="3.58585">
        <ele>563.40002441406</ele>
        <time>2024-11-15T18:48:35.000Z</time>
      </trkpt>
      <trkpt lat="45.86115" lon="3.58583">
        <ele>563.20001220703</ele>
        <time>2024-11-15T18:48:36.000Z</time>
      </trkpt>
      <trkpt lat="45.86118" lon="3.58581">
        <ele>563</ele>
        <time>2024-11-15T18:48:37.000Z</time>
      </trkpt>
      <trkpt lat="45.8612" lon="3.58579">
        <ele>563</ele>
        <time>2024-11-15T18:48:38.000Z</time>
      </trkpt>
      <trkpt lat="45.86123" lon="3.58578">
        <ele>562.79998779297</ele>
        <time>2024-11-15T18:48:39.000Z</time>
      </trkpt>
      <trkpt lat="45.86126" lon="3.58576">
        <ele>562.79998779297</ele>
        <time>2024-11-15T18:48:40.000Z</time>
      </trkpt>
      <trkpt lat="45.86128" lon="3.58575">
        <ele>562.59997558594</ele>
        <time>2024-11-15T18:48:41.000Z</time>
      </trkpt>
      <trkpt lat="45.86131" lon="3.58573">
        <ele>562.59997558594</ele>
        <time>2024-11-15T18:48:42.000Z</time>
      </trkpt>
      <trkpt lat="45.86133" lon="3.58572">
        <ele>562.59997558594</ele>
        <time>2024-11-15T18:48:43.000Z</time>
      </trkpt>
      <trkpt lat="45.86136" lon="3.5857">
        <ele>562.40002441406</ele>
        <time>2024-11-15T18:48:44.000Z</time>
      </trkpt>
      <trkpt lat="45.86139" lon="3.58569">
        <ele>562.40002441406</ele>
        <time>2024-11-15T18:48:45.000Z</time>
      </trkpt>
      <trkpt lat="45.86141" lon="3.58568">
        <ele>562.40002441406</ele>
        <time>2024-11-15T18:48:46.000Z</time>
      </trkpt>
      <trkpt lat="45.86144" lon="3.58567">
        <ele>562.40002441406</ele>
        <time>2024-11-15T18:48:47.000Z</time>
      </trkpt>
      <trkpt lat="45.86147" lon="3.58566">
        <ele>562.40002441406</ele>
        <time>2024-11-15T18:48:48.000Z</time>
      </trkpt>
      <trkpt lat="45.8615" lon="3.58566">
        <ele>562.40002441406</ele>
        <time>2024-11-15T18:48:49.000Z</time>
      </trkpt>
      <trkpt lat="45.86153" lon="3.58565">
        <ele>562.20001220703</ele>
        <time>2024-11-15T18:48:50.000Z</time>
      </trkpt>
      <trkpt lat="45.86156" lon="3.58564">
        <ele>562.20001220703</ele>
        <time>2024-11-15T18:48:51.000Z</time>
      </trkpt>
      <trkpt lat="45.86158" lon="3.58563">
        <ele>562.20001220703</ele>
        <time>2024-11-15T18:48:52.000Z</time>
      </trkpt>
      <trkpt lat="45.86161" lon="3.58562">
        <ele>562.20001220703</ele>
        <time>2024-11-15T18:48:53.000Z</time>
      </trkpt>
      <trkpt lat="45.86164" lon="3.58561">
        <ele>562.20001220703</ele>
        <time>2024-11-15T18:48:54.000Z</time>
      </trkpt>
      <trkpt lat="45.86166" lon="3.5856">
        <ele>562.20001220703</ele>
        <time>2024-11-15T18:48:55.000Z</time>
      </trkpt>
      <trkpt lat="45.86168" lon="3.58558">
        <ele>562</ele>
        <time>2024-11-15T18:48:56.000Z</time>
      </trkpt>
      <trkpt lat="45.86171" lon="3.58556">
        <ele>561.79998779297</ele>
        <time>2024-11-15T18:48:57.000Z</time>
      </trkpt>
      <trkpt lat="45.86173" lon="3.58555">
        <ele>561.59997558594</ele>
        <time>2024-11-15T18:48:58.000Z</time>
      </trkpt>
      <trkpt lat="45.86176" lon="3.58553">
        <ele>561.59997558594</ele>
        <time>2024-11-15T18:48:59.000Z</time>
      </trkpt>
      <trkpt lat="45.86178" lon="3.58551">
        <ele>561.59997558594</ele>
        <time>2024-11-15T18:49:00.000Z</time>
      </trkpt>
      <trkpt lat="45.86181" lon="3.58549">
        <ele>561.40002441406</ele>
        <time>2024-11-15T18:49:01.000Z</time>
      </trkpt>
      <trkpt lat="45.86183" lon="3.58547">
        <ele>561.40002441406</ele>
        <time>2024-11-15T18:49:02.000Z</time>
      </trkpt>
      <trkpt lat="45.86185" lon="3.58545">
        <ele>561.20001220703</ele>
        <time>2024-11-15T18:49:03.000Z</time>
      </trkpt>
      <trkpt lat="45.86188" lon="3.58543">
        <ele>561.20001220703</ele>
        <time>2024-11-15T18:49:04.000Z</time>
      </trkpt>
      <trkpt lat="45.8619" lon="3.5854">
        <ele>561.40002441406</ele>
        <time>2024-11-15T18:49:05.000Z</time>
      </trkpt>
      <trkpt lat="45.86193" lon="3.58538">
        <ele>561.40002441406</ele>
        <time>2024-11-15T18:49:06.000Z</time>
      </trkpt>
      <trkpt lat="45.86195" lon="3.58536">
        <ele>561.40002441406</ele>
        <time>2024-11-15T18:49:07.000Z</time>
      </trkpt>
      <trkpt lat="45.86198" lon="3.58534">
        <ele>561.40002441406</ele>
        <time>2024-11-15T18:49:08.000Z</time>
      </trkpt>
      <trkpt lat="45.86201" lon="3.58532">
        <ele>561.59997558594</ele>
        <time>2024-11-15T18:49:09.000Z</time>
      </trkpt>
      <trkpt lat="45.86203" lon="3.5853">
        <ele>561.59997558594</ele>
        <time>2024-11-15T18:49:10.000Z</time>
      </trkpt>
      <trkpt lat="45.86206" lon="3.58528">
        <ele>561.59997558594</ele>
        <time>2024-11-15T18:49:11.000Z</time>
      </trkpt>
      <trkpt lat="45.86208" lon="3.58527">
        <ele>561.59997558594</ele>
        <time>2024-11-15T18:49:12.000Z</time>
      </trkpt>
      <trkpt lat="45.86211" lon="3.58525">
        <ele>561.79998779297</ele>
        <time>2024-11-15T18:49:13.000Z</time>
      </trkpt>
      <trkpt lat="45.86213" lon="3.58523">
        <ele>561.79998779297</ele>
        <time>2024-11-15T18:49:14.000Z</time>
      </trkpt>
      <trkpt lat="45.86216" lon="3.58521">
        <ele>561.59997558594</ele>
        <time>2024-11-15T18:49:15.000Z</time>
      </trkpt>
      <trkpt lat="45.86218" lon="3.58519">
        <ele>561.59997558594</ele>
        <time>2024-11-15T18:49:16.000Z</time>
      </trkpt>
      <trkpt lat="45.8622" lon="3.58517">
        <ele>561.79998779297</ele>
        <time>2024-11-15T18:49:17.000Z</time>
      </trkpt>
      <trkpt lat="45.86223" lon="3.58515">
        <ele>561.79998779297</ele>
        <time>2024-11-15T18:49:18.000Z</time>
      </trkpt>
      <trkpt lat="45.86225" lon="3.58513">
        <ele>561.79998779297</ele>
        <time>2024-11-15T18:49:19.000Z</time>
      </trkpt>
      <trkpt lat="45.86227" lon="3.5851">
        <ele>562</ele>
        <time>2024-11-15T18:49:20.000Z</time>
      </trkpt>
      <trkpt lat="45.86229" lon="3.58508">
        <ele>562</ele>
        <time>2024-11-15T18:49:21.000Z</time>
      </trkpt>
      <trkpt lat="45.86231" lon="3.58505">
        <ele>562</ele>
        <time>2024-11-15T18:49:22.000Z</time>
      </trkpt>
      <trkpt lat="45.86233" lon="3.58503">
        <ele>562</ele>
        <time>2024-11-15T18:49:23.000Z</time>
      </trkpt>
      <trkpt lat="45.86235" lon="3.58501">
        <ele>562</ele>
        <time>2024-11-15T18:49:24.000Z</time>
      </trkpt>
      <trkpt lat="45.86237" lon="3.58499">
        <ele>562</ele>
        <time>2024-11-15T18:49:25.000Z</time>
      </trkpt>
      <trkpt lat="45.86239" lon="3.58498">
        <ele>562</ele>
        <time>2024-11-15T18:49:26.000Z</time>
      </trkpt>
      <trkpt lat="45.86242" lon="3.58497">
        <ele>561.79998779297</ele>
        <time>2024-11-15T18:49:27.000Z</time>
      </trkpt>
      <trkpt lat="45.86244" lon="3.58496">
        <ele>561.59997558594</ele>
        <time>2024-11-15T18:49:28.000Z</time>
      </trkpt>
      <trkpt lat="45.86246" lon="3.58495">
        <ele>561.59997558594</ele>
        <time>2024-11-15T18:49:29.000Z</time>
      </trkpt>
      <trkpt lat="45.86248" lon="3.58494">
        <ele>561.40002441406</ele>
        <time>2024-11-15T18:49:30.000Z</time>
      </trkpt>
      <trkpt lat="45.8625" lon="3.58493">
        <ele>560.79998779297</ele>
        <time>2024-11-15T18:49:31.000Z</time>
      </trkpt>
      <trkpt lat="45.86252" lon="3.58491">
        <ele>560.40002441406</ele>
        <time>2024-11-15T18:49:32.000Z</time>
      </trkpt>
      <trkpt lat="45.86254" lon="3.5849">
        <ele>559.79998779297</ele>
        <time>2024-11-15T18:49:33.000Z</time>
      </trkpt>
      <trkpt lat="45.86256" lon="3.58488">
        <ele>559.40002441406</ele>
        <time>2024-11-15T18:49:34.000Z</time>
      </trkpt>
      <trkpt lat="45.86257" lon="3.58485">
        <ele>558</ele>
        <time>2024-11-15T18:49:35.000Z</time>
      </trkpt>
      <trkpt lat="45.86258" lon="3.58483">
        <ele>557.40002441406</ele>
        <time>2024-11-15T18:49:36.000Z</time>
      </trkpt>
      <trkpt lat="45.8626" lon="3.5848">
        <ele>557.20001220703</ele>
        <time>2024-11-15T18:49:37.000Z</time>
      </trkpt>
      <trkpt lat="45.86261" lon="3.58477">
        <ele>556.20001220703</ele>
        <time>2024-11-15T18:49:38.000Z</time>
      </trkpt>
      <trkpt lat="45.86262" lon="3.58474">
        <ele>555.79998779297</ele>
        <time>2024-11-15T18:49:39.000Z</time>
      </trkpt>
      <trkpt lat="45.86263" lon="3.5847">
        <ele>554.79998779297</ele>
        <time>2024-11-15T18:49:40.000Z</time>
      </trkpt>
      <trkpt lat="45.86264" lon="3.58467">
        <ele>554.40002441406</ele>
        <time>2024-11-15T18:49:41.000Z</time>
      </trkpt>
      <trkpt lat="45.86265" lon="3.58463">
        <ele>553.79998779297</ele>
        <time>2024-11-15T18:49:42.000Z</time>
      </trkpt>
      <trkpt lat="45.86266" lon="3.58459">
        <ele>553.40002441406</ele>
        <time>2024-11-15T18:49:43.000Z</time>
      </trkpt>
      <trkpt lat="45.86267" lon="3.58456">
        <ele>552.79998779297</ele>
        <time>2024-11-15T18:49:44.000Z</time>
      </trkpt>
      <trkpt lat="45.86268" lon="3.58453">
        <ele>552.40002441406</ele>
        <time>2024-11-15T18:49:45.000Z</time>
      </trkpt>
      <trkpt lat="45.8627" lon="3.58449">
        <ele>551.59997558594</ele>
        <time>2024-11-15T18:49:46.000Z</time>
      </trkpt>
      <trkpt lat="45.86271" lon="3.58446">
        <ele>551.40002441406</ele>
        <time>2024-11-15T18:49:47.000Z</time>
      </trkpt>
      <trkpt lat="45.86272" lon="3.58442">
        <ele>550.79998779297</ele>
        <time>2024-11-15T18:49:48.000Z</time>
      </trkpt>
      <trkpt lat="45.86274" lon="3.58439">
        <ele>550.20001220703</ele>
        <time>2024-11-15T18:49:49.000Z</time>
      </trkpt>
      <trkpt lat="45.86275" lon="3.58435">
        <ele>549.59997558594</ele>
        <time>2024-11-15T18:49:50.000Z</time>
      </trkpt>
      <trkpt lat="45.86276" lon="3.58432">
        <ele>549.40002441406</ele>
        <time>2024-11-15T18:49:51.000Z</time>
      </trkpt>
      <trkpt lat="45.86278" lon="3.58428">
        <ele>548.79998779297</ele>
        <time>2024-11-15T18:49:52.000Z</time>
      </trkpt>
      <trkpt lat="45.86279" lon="3.58424">
        <ele>548.59997558594</ele>
        <time>2024-11-15T18:49:53.000Z</time>
      </trkpt>
      <trkpt lat="45.8628" lon="3.58421">
        <ele>548.40002441406</ele>
        <time>2024-11-15T18:49:54.000Z</time>
      </trkpt>
      <trkpt lat="45.86282" lon="3.58417">
        <ele>548</ele>
        <time>2024-11-15T18:49:55.000Z</time>
      </trkpt>
      <trkpt lat="45.86283" lon="3.58413">
        <ele>547.79998779297</ele>
        <time>2024-11-15T18:49:56.000Z</time>
      </trkpt>
      <trkpt lat="45.86285" lon="3.5841">
        <ele>547.59997558594</ele>
        <time>2024-11-15T18:49:57.000Z</time>
      </trkpt>
      <trkpt lat="45.86287" lon="3.58406">
        <ele>547.40002441406</ele>
        <time>2024-11-15T18:49:58.000Z</time>
      </trkpt>
      <trkpt lat="45.86289" lon="3.58403">
        <ele>547.40002441406</ele>
        <time>2024-11-15T18:49:59.000Z</time>
      </trkpt>
      <trkpt lat="45.8629" lon="3.58399">
        <ele>547.20001220703</ele>
        <time>2024-11-15T18:50:00.000Z</time>
      </trkpt>
      <trkpt lat="45.86292" lon="3.58396">
        <ele>546.79998779297</ele>
        <time>2024-11-15T18:50:01.000Z</time>
      </trkpt>
      <trkpt lat="45.86294" lon="3.58393">
        <ele>546.59997558594</ele>
        <time>2024-11-15T18:50:02.000Z</time>
      </trkpt>
      <trkpt lat="45.86295" lon="3.5839">
        <ele>546.59997558594</ele>
        <time>2024-11-15T18:50:03.000Z</time>
      </trkpt>
      <trkpt lat="45.86297" lon="3.58386">
        <ele>546.40002441406</ele>
        <time>2024-11-15T18:50:04.000Z</time>
      </trkpt>
      <trkpt lat="45.86299" lon="3.58383">
        <ele>546.20001220703</ele>
        <time>2024-11-15T18:50:05.000Z</time>
      </trkpt>
      <trkpt lat="45.86301" lon="3.5838">
        <ele>545.79998779297</ele>
        <time>2024-11-15T18:50:06.000Z</time>
      </trkpt>
      <trkpt lat="45.86302" lon="3.58376">
        <ele>544.79998779297</ele>
        <time>2024-11-15T18:50:07.000Z</time>
      </trkpt>
      <trkpt lat="45.86304" lon="3.58373">
        <ele>544.20001220703</ele>
        <time>2024-11-15T18:50:08.000Z</time>
      </trkpt>
      <trkpt lat="45.86305" lon="3.5837">
        <ele>543.40002441406</ele>
        <time>2024-11-15T18:50:09.000Z</time>
      </trkpt>
      <trkpt lat="45.86307" lon="3.58367">
        <ele>542.79998779297</ele>
        <time>2024-11-15T18:50:10.000Z</time>
      </trkpt>
      <trkpt lat="45.86308" lon="3.58364">
        <ele>542.20001220703</ele>
        <time>2024-11-15T18:50:11.000Z</time>
      </trkpt>
      <trkpt lat="45.86309" lon="3.58362">
        <ele>542</ele>
        <time>2024-11-15T18:50:12.000Z</time>
      </trkpt>
      <trkpt lat="45.8631" lon="3.5836">
        <ele>541.59997558594</ele>
        <time>2024-11-15T18:50:13.000Z</time>
      </trkpt>
      <trkpt lat="45.86312" lon="3.58358">
        <ele>541.20001220703</ele>
        <time>2024-11-15T18:50:14.000Z</time>
      </trkpt>
      <trkpt lat="45.86313" lon="3.58356">
        <ele>540.79998779297</ele>
        <time>2024-11-15T18:50:15.000Z</time>
      </trkpt>
      <trkpt lat="45.86315" lon="3.58354">
        <ele>540.20001220703</ele>
        <time>2024-11-15T18:50:16.000Z</time>
      </trkpt>
      <trkpt lat="45.86316" lon="3.58352">
        <ele>539.20001220703</ele>
        <time>2024-11-15T18:50:17.000Z</time>
      </trkpt>
      <trkpt lat="45.86317" lon="3.58349">
        <ele>539</ele>
        <time>2024-11-15T18:50:18.000Z</time>
      </trkpt>
      <trkpt lat="45.86318" lon="3.58347">
        <ele>538.79998779297</ele>
        <time>2024-11-15T18:50:19.000Z</time>
      </trkpt>
      <trkpt lat="45.86319" lon="3.58344">
        <ele>538.40002441406</ele>
        <time>2024-11-15T18:50:20.000Z</time>
      </trkpt>
      <trkpt lat="45.8632" lon="3.5834">
        <ele>537.59997558594</ele>
        <time>2024-11-15T18:50:21.000Z</time>
      </trkpt>
      <trkpt lat="45.86321" lon="3.58337">
        <ele>537.20001220703</ele>
        <time>2024-11-15T18:50:22.000Z</time>
      </trkpt>
      <trkpt lat="45.86322" lon="3.58333">
        <ele>536.79998779297</ele>
        <time>2024-11-15T18:50:23.000Z</time>
      </trkpt>
      <trkpt lat="45.86324" lon="3.5833">
        <ele>536.40002441406</ele>
        <time>2024-11-15T18:50:24.000Z</time>
      </trkpt>
      <trkpt lat="45.86325" lon="3.58326">
        <ele>535.40002441406</ele>
        <time>2024-11-15T18:50:25.000Z</time>
      </trkpt>
      <trkpt lat="45.86326" lon="3.58323">
        <ele>534.79998779297</ele>
        <time>2024-11-15T18:50:26.000Z</time>
      </trkpt>
      <trkpt lat="45.86327" lon="3.5832">
        <ele>534.40002441406</ele>
        <time>2024-11-15T18:50:27.000Z</time>
      </trkpt>
      <trkpt lat="45.86328" lon="3.58317">
        <ele>534</ele>
        <time>2024-11-15T18:50:28.000Z</time>
      </trkpt>
      <trkpt lat="45.86329" lon="3.58313">
        <ele>533.59997558594</ele>
        <time>2024-11-15T18:50:29.000Z</time>
      </trkpt>
      <trkpt lat="45.8633" lon="3.5831">
        <ele>533.40002441406</ele>
        <time>2024-11-15T18:50:30.000Z</time>
      </trkpt>
      <trkpt lat="45.86332" lon="3.58307">
        <ele>533</ele>
        <time>2024-11-15T18:50:31.000Z</time>
      </trkpt>
      <trkpt lat="45.86333" lon="3.58304">
        <ele>532.40002441406</ele>
        <time>2024-11-15T18:50:32.000Z</time>
      </trkpt>
      <trkpt lat="45.86333" lon="3.58301">
        <ele>531.59997558594</ele>
        <time>2024-11-15T18:50:33.000Z</time>
      </trkpt>
      <trkpt lat="45.86334" lon="3.58299">
        <ele>531.40002441406</ele>
        <time>2024-11-15T18:50:34.000Z</time>
      </trkpt>
      <trkpt lat="45.86334" lon="3.58296">
        <ele>531</ele>
        <time>2024-11-15T18:50:35.000Z</time>
      </trkpt>
      <trkpt lat="45.86335" lon="3.58293">
        <ele>530.79998779297</ele>
        <time>2024-11-15T18:50:36.000Z</time>
      </trkpt>
      <trkpt lat="45.86335" lon="3.5829">
        <ele>530.59997558594</ele>
        <time>2024-11-15T18:50:37.000Z</time>
      </trkpt>
      <trkpt lat="45.86334" lon="3.58287">
        <ele>530.40002441406</ele>
        <time>2024-11-15T18:50:38.000Z</time>
      </trkpt>
      <trkpt lat="45.86334" lon="3.58284">
        <ele>530.20001220703</ele>
        <time>2024-11-15T18:50:39.000Z</time>
      </trkpt>
      <trkpt lat="45.86333" lon="3.58282">
        <ele>530</ele>
        <time>2024-11-15T18:50:40.000Z</time>
      </trkpt>
      <trkpt lat="45.86332" lon="3.5828">
        <ele>530</ele>
        <time>2024-11-15T18:50:41.000Z</time>
      </trkpt>
      <trkpt lat="45.86332" lon="3.58278">
        <ele>529.40002441406</ele>
        <time>2024-11-15T18:50:42.000Z</time>
      </trkpt>
      <trkpt lat="45.86331" lon="3.58277">
        <ele>529</ele>
        <time>2024-11-15T18:50:43.000Z</time>
      </trkpt>
      <trkpt lat="45.8633" lon="3.58275">
        <ele>528.79998779297</ele>
        <time>2024-11-15T18:50:44.000Z</time>
      </trkpt>
      <trkpt lat="45.86329" lon="3.58273">
        <ele>528.59997558594</ele>
        <time>2024-11-15T18:50:45.000Z</time>
      </trkpt>
      <trkpt lat="45.86328" lon="3.58272">
        <ele>528.20001220703</ele>
        <time>2024-11-15T18:50:46.000Z</time>
      </trkpt>
      <trkpt lat="45.86327" lon="3.58269">
        <ele>527.79998779297</ele>
        <time>2024-11-15T18:50:47.000Z</time>
      </trkpt>
      <trkpt lat="45.86326" lon="3.58266">
        <ele>527</ele>
        <time>2024-11-15T18:50:48.000Z</time>
      </trkpt>
      <trkpt lat="45.86325" lon="3.58263">
        <ele>526.40002441406</ele>
        <time>2024-11-15T18:50:49.000Z</time>
      </trkpt>
      <trkpt lat="45.86324" lon="3.5826">
        <ele>525.59997558594</ele>
        <time>2024-11-15T18:50:50.000Z</time>
      </trkpt>
      <trkpt lat="45.86324" lon="3.58257">
        <ele>524.79998779297</ele>
        <time>2024-11-15T18:50:51.000Z</time>
      </trkpt>
      <trkpt lat="45.86325" lon="3.58254">
        <ele>524.59997558594</ele>
        <time>2024-11-15T18:50:52.000Z</time>
      </trkpt>
      <trkpt lat="45.86326" lon="3.58251">
        <ele>523.20001220703</ele>
        <time>2024-11-15T18:50:53.000Z</time>
      </trkpt>
      <trkpt lat="45.86328" lon="3.58249">
        <ele>523</ele>
        <time>2024-11-15T18:50:54.000Z</time>
      </trkpt>
      <trkpt lat="45.8633" lon="3.58247">
        <ele>521.79998779297</ele>
        <time>2024-11-15T18:50:55.000Z</time>
      </trkpt>
      <trkpt lat="45.86332" lon="3.58245">
        <ele>521.40002441406</ele>
        <time>2024-11-15T18:50:56.000Z</time>
      </trkpt>
      <trkpt lat="45.86335" lon="3.58244">
        <ele>520.79998779297</ele>
        <time>2024-11-15T18:50:57.000Z</time>
      </trkpt>
      <trkpt lat="45.86337" lon="3.58243">
        <ele>519.40002441406</ele>
        <time>2024-11-15T18:50:58.000Z</time>
      </trkpt>
      <trkpt lat="45.86339" lon="3.58242">
        <ele>518.40002441406</ele>
        <time>2024-11-15T18:50:59.000Z</time>
      </trkpt>
      <trkpt lat="45.86341" lon="3.58241">
        <ele>517.79998779297</ele>
        <time>2024-11-15T18:51:00.000Z</time>
      </trkpt>
      <trkpt lat="45.86343" lon="3.5824">
        <ele>517.59997558594</ele>
        <time>2024-11-15T18:51:01.000Z</time>
      </trkpt>
      <trkpt lat="45.86345" lon="3.5824">
        <ele>517.20001220703</ele>
        <time>2024-11-15T18:51:02.000Z</time>
      </trkpt>
      <trkpt lat="45.86346" lon="3.5824">
        <ele>516.79998779297</ele>
        <time>2024-11-15T18:51:03.000Z</time>
      </trkpt>
      <trkpt lat="45.86347" lon="3.58239">
        <ele>516.40002441406</ele>
        <time>2024-11-15T18:51:04.000Z</time>
      </trkpt>
      <trkpt lat="45.86348" lon="3.58239">
        <ele>515.79998779297</ele>
        <time>2024-11-15T18:51:05.000Z</time>
      </trkpt>
      <trkpt lat="45.8635" lon="3.58237">
        <ele>515</ele>
        <time>2024-11-15T18:51:06.000Z</time>
      </trkpt>
      <trkpt lat="45.86351" lon="3.58236">
        <ele>514.40002441406</ele>
        <time>2024-11-15T18:51:07.000Z</time>
      </trkpt>
      <trkpt lat="45.86353" lon="3.58235">
        <ele>514.20001220703</ele>
        <time>2024-11-15T18:51:08.000Z</time>
      </trkpt>
      <trkpt lat="45.86355" lon="3.58234">
        <ele>513.79998779297</ele>
        <time>2024-11-15T18:51:09.000Z</time>
      </trkpt>
      <trkpt lat="45.86356" lon="3.58233">
        <ele>513.20001220703</ele>
        <time>2024-11-15T18:51:10.000Z</time>
      </trkpt>
      <trkpt lat="45.86357" lon="3.58232">
        <ele>512.59997558594</ele>
        <time>2024-11-15T18:51:11.000Z</time>
      </trkpt>
      <trkpt lat="45.86357" lon="3.58231">
        <ele>511.60000610352</ele>
        <time>2024-11-15T18:51:12.000Z</time>
      </trkpt>
      <trkpt lat="45.86357" lon="3.5823">
        <ele>510.79998779297</ele>
        <time>2024-11-15T18:51:13.000Z</time>
      </trkpt>
      <trkpt lat="45.86358" lon="3.58228">
        <ele>510.60000610352</ele>
        <time>2024-11-15T18:51:14.000Z</time>
      </trkpt>
      <trkpt lat="45.8636" lon="3.58226">
        <ele>510.20001220703</ele>
        <time>2024-11-15T18:51:15.000Z</time>
      </trkpt>
      <trkpt lat="45.86362" lon="3.58225">
        <ele>509.60000610352</ele>
        <time>2024-11-15T18:51:16.000Z</time>
      </trkpt>
      <trkpt lat="45.86364" lon="3.58223">
        <ele>509</ele>
        <time>2024-11-15T18:51:17.000Z</time>
      </trkpt>
      <trkpt lat="45.86365" lon="3.58221">
        <ele>508.39999389648</ele>
        <time>2024-11-15T18:51:18.000Z</time>
      </trkpt>
      <trkpt lat="45.86365" lon="3.58218">
        <ele>507.79998779297</ele>
        <time>2024-11-15T18:51:19.000Z</time>
      </trkpt>
      <trkpt lat="45.86366" lon="3.58215">
        <ele>506.79998779297</ele>
        <time>2024-11-15T18:51:20.000Z</time>
      </trkpt>
      <trkpt lat="45.86365" lon="3.58213">
        <ele>505.79998779297</ele>
        <time>2024-11-15T18:51:21.000Z</time>
      </trkpt>
      <trkpt lat="45.86365" lon="3.5821">
        <ele>505.39999389648</ele>
        <time>2024-11-15T18:51:22.000Z</time>
      </trkpt>
      <trkpt lat="45.86364" lon="3.58207">
        <ele>504.79998779297</ele>
        <time>2024-11-15T18:51:23.000Z</time>
      </trkpt>
      <trkpt lat="45.86364" lon="3.58203">
        <ele>504.60000610352</ele>
        <time>2024-11-15T18:51:24.000Z</time>
      </trkpt>
      <trkpt lat="45.86364" lon="3.582">
        <ele>504.20001220703</ele>
        <time>2024-11-15T18:51:25.000Z</time>
      </trkpt>
      <trkpt lat="45.86363" lon="3.58197">
        <ele>503.60000610352</ele>
        <time>2024-11-15T18:51:26.000Z</time>
      </trkpt>
      <trkpt lat="45.86363" lon="3.58194">
        <ele>502.79998779297</ele>
        <time>2024-11-15T18:51:27.000Z</time>
      </trkpt>
      <trkpt lat="45.86363" lon="3.58192">
        <ele>502.60000610352</ele>
        <time>2024-11-15T18:51:28.000Z</time>
      </trkpt>
      <trkpt lat="45.86363" lon="3.58189">
        <ele>502</ele>
        <time>2024-11-15T18:51:29.000Z</time>
      </trkpt>
      <trkpt lat="45.86363" lon="3.58188">
        <ele>501.60000610352</ele>
        <time>2024-11-15T18:51:30.000Z</time>
      </trkpt>
      <trkpt lat="45.86362" lon="3.58187">
        <ele>501.20001220703</ele>
        <time>2024-11-15T18:51:31.000Z</time>
      </trkpt>
      <trkpt lat="45.86361" lon="3.58187">
        <ele>500.79998779297</ele>
        <time>2024-11-15T18:51:32.000Z</time>
      </trkpt>
      <trkpt lat="45.86359" lon="3.58188">
        <ele>499.79998779297</ele>
        <time>2024-11-15T18:51:33.000Z</time>
      </trkpt>
      <trkpt lat="45.86357" lon="3.58189">
        <ele>499.20001220703</ele>
        <time>2024-11-15T18:51:34.000Z</time>
      </trkpt>
      <trkpt lat="45.86356" lon="3.58189">
        <ele>498.79998779297</ele>
        <time>2024-11-15T18:51:35.000Z</time>
      </trkpt>
      <trkpt lat="45.86354" lon="3.58189">
        <ele>498.39999389648</ele>
        <time>2024-11-15T18:51:36.000Z</time>
      </trkpt>
      <trkpt lat="45.86353" lon="3.58189">
        <ele>498</ele>
        <time>2024-11-15T18:51:37.000Z</time>
      </trkpt>
      <trkpt lat="45.86351" lon="3.5819">
        <ele>497.20001220703</ele>
        <time>2024-11-15T18:51:38.000Z</time>
      </trkpt>
      <trkpt lat="45.8635" lon="3.58191">
        <ele>497</ele>
        <time>2024-11-15T18:51:39.000Z</time>
      </trkpt>
      <trkpt lat="45.86349" lon="3.58192">
        <ele>496.39999389648</ele>
        <time>2024-11-15T18:51:40.000Z</time>
      </trkpt>
      <trkpt lat="45.86348" lon="3.58194">
        <ele>495.60000610352</ele>
        <time>2024-11-15T18:51:41.000Z</time>
      </trkpt>
      <trkpt lat="45.86346" lon="3.58196">
        <ele>495.20001220703</ele>
        <time>2024-11-15T18:51:42.000Z</time>
      </trkpt>
      <trkpt lat="45.86345" lon="3.58197">
        <ele>494.79998779297</ele>
        <time>2024-11-15T18:51:43.000Z</time>
      </trkpt>
      <trkpt lat="45.86343" lon="3.58197">
        <ele>494.20001220703</ele>
        <time>2024-11-15T18:51:44.000Z</time>
      </trkpt>
      <trkpt lat="45.86341" lon="3.58197">
        <ele>493.79998779297</ele>
        <time>2024-11-15T18:51:45.000Z</time>
      </trkpt>
      <trkpt lat="45.86339" lon="3.58197">
        <ele>493.39999389648</ele>
        <time>2024-11-15T18:51:46.000Z</time>
      </trkpt>
      <trkpt lat="45.86336" lon="3.58196">
        <ele>492.79998779297</ele>
        <time>2024-11-15T18:51:47.000Z</time>
      </trkpt>
      <trkpt lat="45.86334" lon="3.58195">
        <ele>491.79998779297</ele>
        <time>2024-11-15T18:51:48.000Z</time>
      </trkpt>
      <trkpt lat="45.86331" lon="3.58195">
        <ele>491.39999389648</ele>
        <time>2024-11-15T18:51:49.000Z</time>
      </trkpt>
      <trkpt lat="45.86329" lon="3.58193">
        <ele>490.79998779297</ele>
        <time>2024-11-15T18:51:50.000Z</time>
      </trkpt>
      <trkpt lat="45.86327" lon="3.58192">
        <ele>490.20001220703</ele>
        <time>2024-11-15T18:51:51.000Z</time>
      </trkpt>
      <trkpt lat="45.86325" lon="3.58191">
        <ele>489.60000610352</ele>
        <time>2024-11-15T18:51:52.000Z</time>
      </trkpt>
      <trkpt lat="45.86324" lon="3.58189">
        <ele>488.79998779297</ele>
        <time>2024-11-15T18:51:53.000Z</time>
      </trkpt>
      <trkpt lat="45.86322" lon="3.58188">
        <ele>488.20001220703</ele>
        <time>2024-11-15T18:51:54.000Z</time>
      </trkpt>
      <trkpt lat="45.86321" lon="3.58186">
        <ele>488</ele>
        <time>2024-11-15T18:51:55.000Z</time>
      </trkpt>
      <trkpt lat="45.86321" lon="3.58185">
        <ele>487</ele>
        <time>2024-11-15T18:51:56.000Z</time>
      </trkpt>
      <trkpt lat="45.86321" lon="3.58184">
        <ele>486.60000610352</ele>
        <time>2024-11-15T18:51:57.000Z</time>
      </trkpt>
      <trkpt lat="45.86322" lon="3.58183">
        <ele>486.60000610352</ele>
        <time>2024-11-15T18:51:58.000Z</time>
      </trkpt>
      <trkpt lat="45.86323" lon="3.58182">
        <ele>486.39999389648</ele>
        <time>2024-11-15T18:51:59.000Z</time>
      </trkpt>
      <trkpt lat="45.86324" lon="3.58181">
        <ele>486.39999389648</ele>
        <time>2024-11-15T18:52:00.000Z</time>
      </trkpt>
      <trkpt lat="45.86324" lon="3.5818">
        <ele>486</ele>
        <time>2024-11-15T18:52:01.000Z</time>
      </trkpt>
      <trkpt lat="45.86323" lon="3.58179">
        <ele>485.79998779297</ele>
        <time>2024-11-15T18:52:02.000Z</time>
      </trkpt>
      <trkpt lat="45.86322" lon="3.58178">
        <ele>485.60000610352</ele>
        <time>2024-11-15T18:52:03.000Z</time>
      </trkpt>
      <trkpt lat="45.86321" lon="3.58177">
        <ele>485.20001220703</ele>
        <time>2024-11-15T18:52:04.000Z</time>
      </trkpt>
      <trkpt lat="45.8632" lon="3.58176">
        <ele>484.79998779297</ele>
        <time>2024-11-15T18:52:05.000Z</time>
      </trkpt>
      <trkpt lat="45.86319" lon="3.58175">
        <ele>484.60000610352</ele>
        <time>2024-11-15T18:52:06.000Z</time>
      </trkpt>
      <trkpt lat="45.86318" lon="3.58174">
        <ele>484.60000610352</ele>
        <time>2024-11-15T18:52:07.000Z</time>
      </trkpt>
      <trkpt lat="45.86316" lon="3.58173">
        <ele>484.60000610352</ele>
        <time>2024-11-15T18:52:08.000Z</time>
      </trkpt>
      <trkpt lat="45.86314" lon="3.58171">
        <ele>484.39999389648</ele>
        <time>2024-11-15T18:52:09.000Z</time>
      </trkpt>
      <trkpt lat="45.86312" lon="3.5817">
        <ele>484.39999389648</ele>
        <time>2024-11-15T18:52:10.000Z</time>
      </trkpt>
      <trkpt lat="45.8631" lon="3.58169">
        <ele>484.20001220703</ele>
        <time>2024-11-15T18:52:11.000Z</time>
      </trkpt>
      <trkpt lat="45.86308" lon="3.58167">
        <ele>484.20001220703</ele>
        <time>2024-11-15T18:52:12.000Z</time>
      </trkpt>
      <trkpt lat="45.86307" lon="3.58165">
        <ele>483.79998779297</ele>
        <time>2024-11-15T18:52:13.000Z</time>
      </trkpt>
      <trkpt lat="45.86306" lon="3.58162">
        <ele>483.39999389648</ele>
        <time>2024-11-15T18:52:14.000Z</time>
      </trkpt>
      <trkpt lat="45.86306" lon="3.58159">
        <ele>483.39999389648</ele>
        <time>2024-11-15T18:52:15.000Z</time>
      </trkpt>
      <trkpt lat="45.86306" lon="3.58157">
        <ele>483.39999389648</ele>
        <time>2024-11-15T18:52:16.000Z</time>
      </trkpt>
      <trkpt lat="45.86306" lon="3.58154">
        <ele>483.39999389648</ele>
        <time>2024-11-15T18:52:17.000Z</time>
      </trkpt>
      <trkpt lat="45.86307" lon="3.58151">
        <ele>483.39999389648</ele>
        <time>2024-11-15T18:52:18.000Z</time>
      </trkpt>
      <trkpt lat="45.86306" lon="3.58148">
        <ele>483.79998779297</ele>
        <time>2024-11-15T18:52:19.000Z</time>
      </trkpt>
      <trkpt lat="45.86305" lon="3.58147">
        <ele>483.79998779297</ele>
        <time>2024-11-15T18:52:20.000Z</time>
      </trkpt>
      <trkpt lat="45.86303" lon="3.58145">
        <ele>483.79998779297</ele>
        <time>2024-11-15T18:52:21.000Z</time>
      </trkpt>
      <trkpt lat="45.863" lon="3.58145">
        <ele>484</ele>
        <time>2024-11-15T18:52:22.000Z</time>
      </trkpt>
      <trkpt lat="45.86298" lon="3.58144">
        <ele>484</ele>
        <time>2024-11-15T18:52:23.000Z</time>
      </trkpt>
      <trkpt lat="45.86295" lon="3.58144">
        <ele>484</ele>
        <time>2024-11-15T18:52:24.000Z</time>
      </trkpt>
      <trkpt lat="45.86292" lon="3.58143">
        <ele>484</ele>
        <time>2024-11-15T18:52:25.000Z</time>
      </trkpt>
      <trkpt lat="45.86289" lon="3.58143">
        <ele>483.60000610352</ele>
        <time>2024-11-15T18:52:26.000Z</time>
      </trkpt>
      <trkpt lat="45.86286" lon="3.58143">
        <ele>483.60000610352</ele>
        <time>2024-11-15T18:52:27.000Z</time>
      </trkpt>
      <trkpt lat="45.86284" lon="3.58142">
        <ele>483.60000610352</ele>
        <time>2024-11-15T18:52:28.000Z</time>
      </trkpt>
      <trkpt lat="45.86281" lon="3.58142">
        <ele>483.39999389648</ele>
        <time>2024-11-15T18:52:29.000Z</time>
      </trkpt>
      <trkpt lat="45.86278" lon="3.58141">
        <ele>483</ele>
        <time>2024-11-15T18:52:30.000Z</time>
      </trkpt>
      <trkpt lat="45.86275" lon="3.5814">
        <ele>482.79998779297</ele>
        <time>2024-11-15T18:52:31.000Z</time>
      </trkpt>
      <trkpt lat="45.86272" lon="3.58139">
        <ele>482.60000610352</ele>
        <time>2024-11-15T18:52:32.000Z</time>
      </trkpt>
      <trkpt lat="45.86269" lon="3.58138">
        <ele>482</ele>
        <time>2024-11-15T18:52:33.000Z</time>
      </trkpt>
      <trkpt lat="45.86266" lon="3.58136">
        <ele>481.60000610352</ele>
        <time>2024-11-15T18:52:34.000Z</time>
      </trkpt>
      <trkpt lat="45.86264" lon="3.58135">
        <ele>481.20001220703</ele>
        <time>2024-11-15T18:52:35.000Z</time>
      </trkpt>
      <trkpt lat="45.86261" lon="3.58133">
        <ele>481.20001220703</ele>
        <time>2024-11-15T18:52:36.000Z</time>
      </trkpt>
      <trkpt lat="45.86259" lon="3.58132">
        <ele>481</ele>
        <time>2024-11-15T18:52:37.000Z</time>
      </trkpt>
      <trkpt lat="45.86256" lon="3.5813">
        <ele>481</ele>
        <time>2024-11-15T18:52:38.000Z</time>
      </trkpt>
      <trkpt lat="45.86254" lon="3.58128">
        <ele>480.79998779297</ele>
        <time>2024-11-15T18:52:39.000Z</time>
      </trkpt>
      <trkpt lat="45.86251" lon="3.58127">
        <ele>480.79998779297</ele>
        <time>2024-11-15T18:52:40.000Z</time>
      </trkpt>
      <trkpt lat="45.86249" lon="3.58125">
        <ele>481</ele>
        <time>2024-11-15T18:52:41.000Z</time>
      </trkpt>
      <trkpt lat="45.86247" lon="3.58124">
        <ele>481</ele>
        <time>2024-11-15T18:52:42.000Z</time>
      </trkpt>
      <trkpt lat="45.86245" lon="3.58122">
        <ele>481.20001220703</ele>
        <time>2024-11-15T18:52:43.000Z</time>
      </trkpt>
      <trkpt lat="45.86243" lon="3.5812">
        <ele>481.20001220703</ele>
        <time>2024-11-15T18:52:44.000Z</time>
      </trkpt>
      <trkpt lat="45.8624" lon="3.58117">
        <ele>481.20001220703</ele>
        <time>2024-11-15T18:52:45.000Z</time>
      </trkpt>
      <trkpt lat="45.86238" lon="3.58115">
        <ele>481</ele>
        <time>2024-11-15T18:52:46.000Z</time>
      </trkpt>
      <trkpt lat="45.86236" lon="3.58113">
        <ele>481.20001220703</ele>
        <time>2024-11-15T18:52:47.000Z</time>
      </trkpt>
      <trkpt lat="45.86234" lon="3.5811">
        <ele>481.39999389648</ele>
        <time>2024-11-15T18:52:48.000Z</time>
      </trkpt>
      <trkpt lat="45.86232" lon="3.58108">
        <ele>481.39999389648</ele>
        <time>2024-11-15T18:52:49.000Z</time>
      </trkpt>
      <trkpt lat="45.8623" lon="3.58105">
        <ele>481.60000610352</ele>
        <time>2024-11-15T18:52:50.000Z</time>
      </trkpt>
      <trkpt lat="45.86229" lon="3.58102">
        <ele>481.79998779297</ele>
        <time>2024-11-15T18:52:51.000Z</time>
      </trkpt>
      <trkpt lat="45.86227" lon="3.58099">
        <ele>481.79998779297</ele>
        <time>2024-11-15T18:52:52.000Z</time>
      </trkpt>
      <trkpt lat="45.86226" lon="3.58097">
        <ele>481.79998779297</ele>
        <time>2024-11-15T18:52:53.000Z</time>
      </trkpt>
      <trkpt lat="45.86225" lon="3.58095">
        <ele>481.79998779297</ele>
        <time>2024-11-15T18:52:54.000Z</time>
      </trkpt>
      <trkpt lat="45.86223" lon="3.58092">
        <ele>482</ele>
        <time>2024-11-15T18:52:55.000Z</time>
      </trkpt>
      <trkpt lat="45.86222" lon="3.5809">
        <ele>482</ele>
        <time>2024-11-15T18:52:56.000Z</time>
      </trkpt>
      <trkpt lat="45.86221" lon="3.58089">
        <ele>482</ele>
        <time>2024-11-15T18:52:57.000Z</time>
      </trkpt>
      <trkpt lat="45.86219" lon="3.58087">
        <ele>482.39999389648</ele>
        <time>2024-11-15T18:52:58.000Z</time>
      </trkpt>
      <trkpt lat="45.86218" lon="3.58086">
        <ele>482.79998779297</ele>
        <time>2024-11-15T18:52:59.000Z</time>
      </trkpt>
      <trkpt lat="45.86216" lon="3.58085">
        <ele>483</ele>
        <time>2024-11-15T18:53:00.000Z</time>
      </trkpt>
      <trkpt lat="45.86215" lon="3.58084">
        <ele>483.39999389648</ele>
        <time>2024-11-15T18:53:01.000Z</time>
      </trkpt>
      <trkpt lat="45.86214" lon="3.58083">
        <ele>483.39999389648</ele>
        <time>2024-11-15T18:53:02.000Z</time>
      </trkpt>
      <trkpt lat="45.86212" lon="3.58082">
        <ele>483.79998779297</ele>
        <time>2024-11-15T18:53:03.000Z</time>
      </trkpt>
      <trkpt lat="45.86211" lon="3.58081">
        <ele>484.60000610352</ele>
        <time>2024-11-15T18:53:04.000Z</time>
      </trkpt>
      <trkpt lat="45.8621" lon="3.5808">
        <ele>484.79998779297</ele>
        <time>2024-11-15T18:53:05.000Z</time>
      </trkpt>
      <trkpt lat="45.86208" lon="3.58079">
        <ele>485.20001220703</ele>
        <time>2024-11-15T18:53:06.000Z</time>
      </trkpt>
      <trkpt lat="45.86207" lon="3.58077">
        <ele>485.60000610352</ele>
        <time>2024-11-15T18:53:07.000Z</time>
      </trkpt>
      <trkpt lat="45.86206" lon="3.58076">
        <ele>485.79998779297</ele>
        <time>2024-11-15T18:53:08.000Z</time>
      </trkpt>
      <trkpt lat="45.86205" lon="3.58075">
        <ele>486.39999389648</ele>
        <time>2024-11-15T18:53:09.000Z</time>
      </trkpt>
      <trkpt lat="45.86204" lon="3.58074">
        <ele>486.79998779297</ele>
        <time>2024-11-15T18:53:10.000Z</time>
      </trkpt>
      <trkpt lat="45.86203" lon="3.58073">
        <ele>487.20001220703</ele>
        <time>2024-11-15T18:53:11.000Z</time>
      </trkpt>
      <trkpt lat="45.86202" lon="3.58072">
        <ele>487.79998779297</ele>
        <time>2024-11-15T18:53:12.000Z</time>
      </trkpt>
      <trkpt lat="45.86201" lon="3.58071">
        <ele>488</ele>
        <time>2024-11-15T18:53:13.000Z</time>
      </trkpt>
      <trkpt lat="45.862" lon="3.58069">
        <ele>488.39999389648</ele>
        <time>2024-11-15T18:53:14.000Z</time>
      </trkpt>
      <trkpt lat="45.86199" lon="3.58068">
        <ele>488.39999389648</ele>
        <time>2024-11-15T18:53:15.000Z</time>
      </trkpt>
      <trkpt lat="45.86199" lon="3.58067">
        <ele>488.60000610352</ele>
        <time>2024-11-15T18:53:16.000Z</time>
      </trkpt>
      <trkpt lat="45.86199" lon="3.58065">
        <ele>488.79998779297</ele>
        <time>2024-11-15T18:53:17.000Z</time>
      </trkpt>
      <trkpt lat="45.86199" lon="3.58064">
        <ele>489.20001220703</ele>
        <time>2024-11-15T18:53:18.000Z</time>
      </trkpt>
      <trkpt lat="45.86199" lon="3.58063">
        <ele>489.60000610352</ele>
        <time>2024-11-15T18:53:19.000Z</time>
      </trkpt>
      <trkpt lat="45.86199" lon="3.58062">
        <ele>489.79998779297</ele>
        <time>2024-11-15T18:53:20.000Z</time>
      </trkpt>
      <trkpt lat="45.86198" lon="3.5806">
        <ele>489.79998779297</ele>
        <time>2024-11-15T18:53:21.000Z</time>
      </trkpt>
      <trkpt lat="45.86198" lon="3.58059">
        <ele>489.79998779297</ele>
        <time>2024-11-15T18:53:22.000Z</time>
      </trkpt>
      <trkpt lat="45.86198" lon="3.58057">
        <ele>490.20001220703</ele>
        <time>2024-11-15T18:53:23.000Z</time>
      </trkpt>
      <trkpt lat="45.86198" lon="3.58056">
        <ele>490.39999389648</ele>
        <time>2024-11-15T18:53:24.000Z</time>
      </trkpt>
      <trkpt lat="45.86199" lon="3.58054">
        <ele>490.79998779297</ele>
        <time>2024-11-15T18:53:25.000Z</time>
      </trkpt>
      <trkpt lat="45.86199" lon="3.58053">
        <ele>491</ele>
        <time>2024-11-15T18:53:26.000Z</time>
      </trkpt>
      <trkpt lat="45.86199" lon="3.58052">
        <ele>491.39999389648</ele>
        <time>2024-11-15T18:53:27.000Z</time>
      </trkpt>
      <trkpt lat="45.86199" lon="3.5805">
        <ele>491.39999389648</ele>
        <time>2024-11-15T18:53:28.000Z</time>
      </trkpt>
      <trkpt lat="45.86199" lon="3.58049">
        <ele>491.60000610352</ele>
        <time>2024-11-15T18:53:29.000Z</time>
      </trkpt>
      <trkpt lat="45.86199" lon="3.58047">
        <ele>491.79998779297</ele>
        <time>2024-11-15T18:53:30.000Z</time>
      </trkpt>
      <trkpt lat="45.86199" lon="3.58046">
        <ele>492</ele>
        <time>2024-11-15T18:53:31.000Z</time>
      </trkpt>
      <trkpt lat="45.86199" lon="3.58044">
        <ele>492.20001220703</ele>
        <time>2024-11-15T18:53:32.000Z</time>
      </trkpt>
      <trkpt lat="45.86199" lon="3.58043">
        <ele>492.60000610352</ele>
        <time>2024-11-15T18:53:33.000Z</time>
      </trkpt>
      <trkpt lat="45.86199" lon="3.58041">
        <ele>492.79998779297</ele>
        <time>2024-11-15T18:53:34.000Z</time>
      </trkpt>
      <trkpt lat="45.86199" lon="3.58039">
        <ele>493</ele>
        <time>2024-11-15T18:53:35.000Z</time>
      </trkpt>
      <trkpt lat="45.86199" lon="3.58038">
        <ele>493.20001220703</ele>
        <time>2024-11-15T18:53:36.000Z</time>
      </trkpt>
      <trkpt lat="45.86199" lon="3.58037">
        <ele>493.39999389648</ele>
        <time>2024-11-15T18:53:37.000Z</time>
      </trkpt>
      <trkpt lat="45.86199" lon="3.58035">
        <ele>493.39999389648</ele>
        <time>2024-11-15T18:53:38.000Z</time>
      </trkpt>
      <trkpt lat="45.86199" lon="3.58034">
        <ele>493.60000610352</ele>
        <time>2024-11-15T18:53:39.000Z</time>
      </trkpt>
      <trkpt lat="45.86199" lon="3.58032">
        <ele>494</ele>
        <time>2024-11-15T18:53:40.000Z</time>
      </trkpt>
      <trkpt lat="45.86199" lon="3.58031">
        <ele>494.20001220703</ele>
        <time>2024-11-15T18:53:41.000Z</time>
      </trkpt>
      <trkpt lat="45.86199" lon="3.58029">
        <ele>494.39999389648</ele>
        <time>2024-11-15T18:53:42.000Z</time>
      </trkpt>
      <trkpt lat="45.86199" lon="3.58028">
        <ele>494.79998779297</ele>
        <time>2024-11-15T18:53:43.000Z</time>
      </trkpt>
      <trkpt lat="45.86199" lon="3.58027">
        <ele>495</ele>
        <time>2024-11-15T18:53:44.000Z</time>
      </trkpt>
      <trkpt lat="45.86199" lon="3.58025">
        <ele>495.20001220703</ele>
        <time>2024-11-15T18:53:45.000Z</time>
      </trkpt>
      <trkpt lat="45.86199" lon="3.58024">
        <ele>495.60000610352</ele>
        <time>2024-11-15T18:53:46.000Z</time>
      </trkpt>
      <trkpt lat="45.86199" lon="3.58023">
        <ele>495.79998779297</ele>
        <time>2024-11-15T18:53:47.000Z</time>
      </trkpt>
      <trkpt lat="45.86199" lon="3.58022">
        <ele>496</ele>
        <time>2024-11-15T18:53:48.000Z</time>
      </trkpt>
      <trkpt lat="45.86199" lon="3.58021">
        <ele>496</ele>
        <time>2024-11-15T18:53:49.000Z</time>
      </trkpt>
      <trkpt lat="45.86199" lon="3.58019">
        <ele>496.20001220703</ele>
        <time>2024-11-15T18:53:50.000Z</time>
      </trkpt>
      <trkpt lat="45.862" lon="3.58018">
        <ele>496.39999389648</ele>
        <time>2024-11-15T18:53:51.000Z</time>
      </trkpt>
      <trkpt lat="45.86201" lon="3.58017">
        <ele>496.39999389648</ele>
        <time>2024-11-15T18:53:52.000Z</time>
      </trkpt>
      <trkpt lat="45.86202" lon="3.58016">
        <ele>496.79998779297</ele>
        <time>2024-11-15T18:53:53.000Z</time>
      </trkpt>
      <trkpt lat="45.86203" lon="3.58015">
        <ele>497.20001220703</ele>
        <time>2024-11-15T18:53:54.000Z</time>
      </trkpt>
      <trkpt lat="45.86204" lon="3.58014">
        <ele>497.39999389648</ele>
        <time>2024-11-15T18:53:55.000Z</time>
      </trkpt>
      <trkpt lat="45.86205" lon="3.58014">
        <ele>497.39999389648</ele>
        <time>2024-11-15T18:53:56.000Z</time>
      </trkpt>
      <trkpt lat="45.86206" lon="3.58013">
        <ele>497.60000610352</ele>
        <time>2024-11-15T18:53:57.000Z</time>
      </trkpt>
      <trkpt lat="45.86207" lon="3.58013">
        <ele>497.79998779297</ele>
        <time>2024-11-15T18:53:58.000Z</time>
      </trkpt>
      <trkpt lat="45.86208" lon="3.58012">
        <ele>498</ele>
        <time>2024-11-15T18:53:59.000Z</time>
      </trkpt>
      <trkpt lat="45.8621" lon="3.58012">
        <ele>498.20001220703</ele>
        <time>2024-11-15T18:54:00.000Z</time>
      </trkpt>
      <trkpt lat="45.86211" lon="3.58012">
        <ele>498.39999389648</ele>
        <time>2024-11-15T18:54:01.000Z</time>
      </trkpt>
      <trkpt lat="45.86212" lon="3.58012">
        <ele>498.60000610352</ele>
        <time>2024-11-15T18:54:02.000Z</time>
      </trkpt>
      <trkpt lat="45.86213" lon="3.58012">
        <ele>498.79998779297</ele>
        <time>2024-11-15T18:54:03.000Z</time>
      </trkpt>
      <trkpt lat="45.86214" lon="3.58013">
        <ele>499.20001220703</ele>
        <time>2024-11-15T18:54:04.000Z</time>
      </trkpt>
      <trkpt lat="45.86215" lon="3.58013">
        <ele>499.39999389648</ele>
        <time>2024-11-15T18:54:05.000Z</time>
      </trkpt>
      <trkpt lat="45.86216" lon="3.58014">
        <ele>499.60000610352</ele>
        <time>2024-11-15T18:54:06.000Z</time>
      </trkpt>
      <trkpt lat="45.86217" lon="3.58015">
        <ele>500</ele>
        <time>2024-11-15T18:54:07.000Z</time>
      </trkpt>
      <trkpt lat="45.86218" lon="3.58015">
        <ele>500.39999389648</ele>
        <time>2024-11-15T18:54:08.000Z</time>
      </trkpt>
      <trkpt lat="45.86219" lon="3.58017">
        <ele>500.60000610352</ele>
        <time>2024-11-15T18:54:09.000Z</time>
      </trkpt>
      <trkpt lat="45.86219" lon="3.58018">
        <ele>500.79998779297</ele>
        <time>2024-11-15T18:54:10.000Z</time>
      </trkpt>
      <trkpt lat="45.8622" lon="3.58019">
        <ele>500.79998779297</ele>
        <time>2024-11-15T18:54:11.000Z</time>
      </trkpt>
      <trkpt lat="45.86221" lon="3.58021">
        <ele>501.20001220703</ele>
        <time>2024-11-15T18:54:12.000Z</time>
      </trkpt>
      <trkpt lat="45.86221" lon="3.58022">
        <ele>501.20001220703</ele>
        <time>2024-11-15T18:54:13.000Z</time>
      </trkpt>
      <trkpt lat="45.86222" lon="3.58023">
        <ele>501.39999389648</ele>
        <time>2024-11-15T18:54:14.000Z</time>
      </trkpt>
      <trkpt lat="45.86223" lon="3.58024">
        <ele>501.60000610352</ele>
        <time>2024-11-15T18:54:15.000Z</time>
      </trkpt>
      <trkpt lat="45.86224" lon="3.58025">
        <ele>501.60000610352</ele>
        <time>2024-11-15T18:54:16.000Z</time>
      </trkpt>
      <trkpt lat="45.86225" lon="3.58026">
        <ele>502</ele>
        <time>2024-11-15T18:54:17.000Z</time>
      </trkpt>
      <trkpt lat="45.86226" lon="3.58027">
        <ele>502.20001220703</ele>
        <time>2024-11-15T18:54:18.000Z</time>
      </trkpt>
      <trkpt lat="45.86227" lon="3.58028">
        <ele>502.39999389648</ele>
        <time>2024-11-15T18:54:19.000Z</time>
      </trkpt>
      <trkpt lat="45.86228" lon="3.58029">
        <ele>502.60000610352</ele>
        <time>2024-11-15T18:54:20.000Z</time>
      </trkpt>
      <trkpt lat="45.86228" lon="3.5803">
        <ele>502.79998779297</ele>
        <time>2024-11-15T18:54:21.000Z</time>
      </trkpt>
      <trkpt lat="45.86229" lon="3.58031">
        <ele>502.79998779297</ele>
        <time>2024-11-15T18:54:22.000Z</time>
      </trkpt>
      <trkpt lat="45.8623" lon="3.58032">
        <ele>503.20001220703</ele>
        <time>2024-11-15T18:54:23.000Z</time>
      </trkpt>
      <trkpt lat="45.86231" lon="3.58033">
        <ele>503.39999389648</ele>
        <time>2024-11-15T18:54:24.000Z</time>
      </trkpt>
      <trkpt lat="45.86232" lon="3.58034">
        <ele>503.60000610352</ele>
        <time>2024-11-15T18:54:25.000Z</time>
      </trkpt>
      <trkpt lat="45.86233" lon="3.58035">
        <ele>503.79998779297</ele>
        <time>2024-11-15T18:54:26.000Z</time>
      </trkpt>
      <trkpt lat="45.86235" lon="3.58036">
        <ele>504</ele>
        <time>2024-11-15T18:54:27.000Z</time>
      </trkpt>
      <trkpt lat="45.86236" lon="3.58037">
        <ele>504.20001220703</ele>
        <time>2024-11-15T18:54:28.000Z</time>
      </trkpt>
      <trkpt lat="45.86237" lon="3.58038">
        <ele>504.60000610352</ele>
        <time>2024-11-15T18:54:29.000Z</time>
      </trkpt>
      <trkpt lat="45.86238" lon="3.58039">
        <ele>504.79998779297</ele>
        <time>2024-11-15T18:54:30.000Z</time>
      </trkpt>
      <trkpt lat="45.86239" lon="3.5804">
        <ele>505.20001220703</ele>
        <time>2024-11-15T18:54:31.000Z</time>
      </trkpt>
      <trkpt lat="45.8624" lon="3.5804">
        <ele>505.39999389648</ele>
        <time>2024-11-15T18:54:32.000Z</time>
      </trkpt>
      <trkpt lat="45.86241" lon="3.58041">
        <ele>505.39999389648</ele>
        <time>2024-11-15T18:54:33.000Z</time>
      </trkpt>
      <trkpt lat="45.86242" lon="3.58042">
        <ele>505.79998779297</ele>
        <time>2024-11-15T18:54:34.000Z</time>
      </trkpt>
      <trkpt lat="45.86243" lon="3.58044">
        <ele>506</ele>
        <time>2024-11-15T18:54:35.000Z</time>
      </trkpt>
      <trkpt lat="45.86244" lon="3.58044">
        <ele>506.39999389648</ele>
        <time>2024-11-15T18:54:36.000Z</time>
      </trkpt>
      <trkpt lat="45.86245" lon="3.58045">
        <ele>506.60000610352</ele>
        <time>2024-11-15T18:54:37.000Z</time>
      </trkpt>
      <trkpt lat="45.86246" lon="3.58046">
        <ele>506.79998779297</ele>
        <time>2024-11-15T18:54:38.000Z</time>
      </trkpt>
      <trkpt lat="45.86247" lon="3.58047">
        <ele>507</ele>
        <time>2024-11-15T18:54:39.000Z</time>
      </trkpt>
      <trkpt lat="45.86248" lon="3.58048">
        <ele>507.20001220703</ele>
        <time>2024-11-15T18:54:40.000Z</time>
      </trkpt>
      <trkpt lat="45.86249" lon="3.58049">
        <ele>507.20001220703</ele>
        <time>2024-11-15T18:54:41.000Z</time>
      </trkpt>
      <trkpt lat="45.8625" lon="3.5805">
        <ele>507.60000610352</ele>
        <time>2024-11-15T18:54:42.000Z</time>
      </trkpt>
      <trkpt lat="45.86251" lon="3.58051">
        <ele>507.60000610352</ele>
        <time>2024-11-15T18:54:43.000Z</time>
      </trkpt>
      <trkpt lat="45.86253" lon="3.58053">
        <ele>507.79998779297</ele>
        <time>2024-11-15T18:54:44.000Z</time>
      </trkpt>
      <trkpt lat="45.86254" lon="3.58054">
        <ele>508</ele>
        <time>2024-11-15T18:54:45.000Z</time>
      </trkpt>
      <trkpt lat="45.86256" lon="3.58056">
        <ele>508</ele>
        <time>2024-11-15T18:54:46.000Z</time>
      </trkpt>
      <trkpt lat="45.86257" lon="3.58057">
        <ele>508.20001220703</ele>
        <time>2024-11-15T18:54:47.000Z</time>
      </trkpt>
      <trkpt lat="45.86259" lon="3.58059">
        <ele>508.20001220703</ele>
        <time>2024-11-15T18:54:48.000Z</time>
      </trkpt>
      <trkpt lat="45.86261" lon="3.5806">
        <ele>508.79998779297</ele>
        <time>2024-11-15T18:54:49.000Z</time>
      </trkpt>
      <trkpt lat="45.86263" lon="3.58061">
        <ele>509</ele>
        <time>2024-11-15T18:54:50.000Z</time>
      </trkpt>
      <trkpt lat="45.86265" lon="3.58062">
        <ele>509.39999389648</ele>
        <time>2024-11-15T18:54:51.000Z</time>
      </trkpt>
      <trkpt lat="45.86266" lon="3.58062">
        <ele>509.79998779297</ele>
        <time>2024-11-15T18:54:52.000Z</time>
      </trkpt>
      <trkpt lat="45.86268" lon="3.58062">
        <ele>509.79998779297</ele>
        <time>2024-11-15T18:54:53.000Z</time>
      </trkpt>
      <trkpt lat="45.86269" lon="3.58062">
        <ele>509.79998779297</ele>
        <time>2024-11-15T18:54:54.000Z</time>
      </trkpt>
      <trkpt lat="45.8627" lon="3.58061">
        <ele>510</ele>
        <time>2024-11-15T18:54:55.000Z</time>
      </trkpt>
      <trkpt lat="45.86272" lon="3.58061">
        <ele>510.20001220703</ele>
        <time>2024-11-15T18:54:56.000Z</time>
      </trkpt>
      <trkpt lat="45.86274" lon="3.58061">
        <ele>510.20001220703</ele>
        <time>2024-11-15T18:54:57.000Z</time>
      </trkpt>
      <trkpt lat="45.86276" lon="3.5806">
        <ele>510.39999389648</ele>
        <time>2024-11-15T18:54:58.000Z</time>
      </trkpt>
      <trkpt lat="45.86277" lon="3.58061">
        <ele>510.79998779297</ele>
        <time>2024-11-15T18:54:59.000Z</time>
      </trkpt>
      <trkpt lat="45.86279" lon="3.58061">
        <ele>511</ele>
        <time>2024-11-15T18:55:00.000Z</time>
      </trkpt>
      <trkpt lat="45.86281" lon="3.58061">
        <ele>511.20001220703</ele>
        <time>2024-11-15T18:55:01.000Z</time>
      </trkpt>
      <trkpt lat="45.86283" lon="3.58061">
        <ele>511.20001220703</ele>
        <time>2024-11-15T18:55:02.000Z</time>
      </trkpt>
      <trkpt lat="45.86285" lon="3.58061">
        <ele>511.79998779297</ele>
        <time>2024-11-15T18:55:03.000Z</time>
      </trkpt>
      <trkpt lat="45.86286" lon="3.58061">
        <ele>512.79998779297</ele>
        <time>2024-11-15T18:55:04.000Z</time>
      </trkpt>
      <trkpt lat="45.86288" lon="3.58061">
        <ele>513.20001220703</ele>
        <time>2024-11-15T18:55:05.000Z</time>
      </trkpt>
      <trkpt lat="45.8629" lon="3.5806">
        <ele>513.79998779297</ele>
        <time>2024-11-15T18:55:06.000Z</time>
      </trkpt>
      <trkpt lat="45.86291" lon="3.58059">
        <ele>514.40002441406</ele>
        <time>2024-11-15T18:55:07.000Z</time>
      </trkpt>
      <trkpt lat="45.86292" lon="3.58057">
        <ele>514.79998779297</ele>
        <time>2024-11-15T18:55:08.000Z</time>
      </trkpt>
      <trkpt lat="45.86293" lon="3.58054">
        <ele>515</ele>
        <time>2024-11-15T18:55:09.000Z</time>
      </trkpt>
      <trkpt lat="45.86293" lon="3.58051">
        <ele>515.59997558594</ele>
        <time>2024-11-15T18:55:10.000Z</time>
      </trkpt>
      <trkpt lat="45.86293" lon="3.58047">
        <ele>515.59997558594</ele>
        <time>2024-11-15T18:55:11.000Z</time>
      </trkpt>
      <trkpt lat="45.86294" lon="3.58043">
        <ele>515.59997558594</ele>
        <time>2024-11-15T18:55:12.000Z</time>
      </trkpt>
      <trkpt lat="45.86294" lon="3.58039">
        <ele>515.59997558594</ele>
        <time>2024-11-15T18:55:13.000Z</time>
      </trkpt>
      <trkpt lat="45.86296" lon="3.58036">
        <ele>515</ele>
        <time>2024-11-15T18:55:14.000Z</time>
      </trkpt>
      <trkpt lat="45.86297" lon="3.58033">
        <ele>514.40002441406</ele>
        <time>2024-11-15T18:55:15.000Z</time>
      </trkpt>
      <trkpt lat="45.86299" lon="3.5803">
        <ele>514</ele>
        <time>2024-11-15T18:55:16.000Z</time>
      </trkpt>
      <trkpt lat="45.86301" lon="3.58027">
        <ele>513.20001220703</ele>
        <time>2024-11-15T18:55:17.000Z</time>
      </trkpt>
      <trkpt lat="45.86303" lon="3.58026">
        <ele>512.20001220703</ele>
        <time>2024-11-15T18:55:18.000Z</time>
      </trkpt>
      <trkpt lat="45.86304" lon="3.58024">
        <ele>511.20001220703</ele>
        <time>2024-11-15T18:55:19.000Z</time>
      </trkpt>
      <trkpt lat="45.86306" lon="3.58022">
        <ele>510.60000610352</ele>
        <time>2024-11-15T18:55:20.000Z</time>
      </trkpt>
      <trkpt lat="45.86308" lon="3.58021">
        <ele>510</ele>
        <time>2024-11-15T18:55:21.000Z</time>
      </trkpt>
      <trkpt lat="45.8631" lon="3.58019">
        <ele>509.60000610352</ele>
        <time>2024-11-15T18:55:22.000Z</time>
      </trkpt>
      <trkpt lat="45.86311" lon="3.58017">
        <ele>509.39999389648</ele>
        <time>2024-11-15T18:55:23.000Z</time>
      </trkpt>
      <trkpt lat="45.86313" lon="3.58015">
        <ele>509</ele>
        <time>2024-11-15T18:55:24.000Z</time>
      </trkpt>
      <trkpt lat="45.86315" lon="3.58014">
        <ele>508.60000610352</ele>
        <time>2024-11-15T18:55:25.000Z</time>
      </trkpt>
      <trkpt lat="45.86317" lon="3.58012">
        <ele>507.60000610352</ele>
        <time>2024-11-15T18:55:26.000Z</time>
      </trkpt>
      <trkpt lat="45.86319" lon="3.5801">
        <ele>507</ele>
        <time>2024-11-15T18:55:27.000Z</time>
      </trkpt>
      <trkpt lat="45.86321" lon="3.58008">
        <ele>506.39999389648</ele>
        <time>2024-11-15T18:55:28.000Z</time>
      </trkpt>
      <trkpt lat="45.86323" lon="3.58007">
        <ele>506</ele>
        <time>2024-11-15T18:55:29.000Z</time>
      </trkpt>
      <trkpt lat="45.86325" lon="3.58005">
        <ele>505.39999389648</ele>
        <time>2024-11-15T18:55:30.000Z</time>
      </trkpt>
      <trkpt lat="45.86327" lon="3.58003">
        <ele>505.20001220703</ele>
        <time>2024-11-15T18:55:31.000Z</time>
      </trkpt>
      <trkpt lat="45.86329" lon="3.58001">
        <ele>505</ele>
        <time>2024-11-15T18:55:32.000Z</time>
      </trkpt>
      <trkpt lat="45.8633" lon="3.57999">
        <ele>504.39999389648</ele>
        <time>2024-11-15T18:55:33.000Z</time>
      </trkpt>
      <trkpt lat="45.86332" lon="3.57997">
        <ele>504</ele>
        <time>2024-11-15T18:55:34.000Z</time>
      </trkpt>
      <trkpt lat="45.86333" lon="3.57995">
        <ele>503.79998779297</ele>
        <time>2024-11-15T18:55:35.000Z</time>
      </trkpt>
      <trkpt lat="45.86335" lon="3.57992">
        <ele>503.20001220703</ele>
        <time>2024-11-15T18:55:36.000Z</time>
      </trkpt>
      <trkpt lat="45.86336" lon="3.5799">
        <ele>502.79998779297</ele>
        <time>2024-11-15T18:55:37.000Z</time>
      </trkpt>
      <trkpt lat="45.86338" lon="3.57987">
        <ele>502.39999389648</ele>
        <time>2024-11-15T18:55:38.000Z</time>
      </trkpt>
      <trkpt lat="45.86339" lon="3.57985">
        <ele>501.79998779297</ele>
        <time>2024-11-15T18:55:39.000Z</time>
      </trkpt>
      <trkpt lat="45.8634" lon="3.57983">
        <ele>501</ele>
        <time>2024-11-15T18:55:40.000Z</time>
      </trkpt>
      <trkpt lat="45.86341" lon="3.57981">
        <ele>501</ele>
        <time>2024-11-15T18:55:41.000Z</time>
      </trkpt>
      <trkpt lat="45.86342" lon="3.57979">
        <ele>500.39999389648</ele>
        <time>2024-11-15T18:55:42.000Z</time>
      </trkpt>
      <trkpt lat="45.86343" lon="3.57976">
        <ele>499.79998779297</ele>
        <time>2024-11-15T18:55:43.000Z</time>
      </trkpt>
      <trkpt lat="45.86344" lon="3.57973">
        <ele>499.20001220703</ele>
        <time>2024-11-15T18:55:44.000Z</time>
      </trkpt>
      <trkpt lat="45.86345" lon="3.5797">
        <ele>499</ele>
        <time>2024-11-15T18:55:45.000Z</time>
      </trkpt>
      <trkpt lat="45.86345" lon="3.57967">
        <ele>498.60000610352</ele>
        <time>2024-11-15T18:55:46.000Z</time>
      </trkpt>
      <trkpt lat="45.86346" lon="3.57964">
        <ele>498</ele>
        <time>2024-11-15T18:55:47.000Z</time>
      </trkpt>
      <trkpt lat="45.86346" lon="3.57962">
        <ele>497.20001220703</ele>
        <time>2024-11-15T18:55:48.000Z</time>
      </trkpt>
      <trkpt lat="45.86347" lon="3.57959">
        <ele>496.79998779297</ele>
        <time>2024-11-15T18:55:49.000Z</time>
      </trkpt>
      <trkpt lat="45.86348" lon="3.57956">
        <ele>496.39999389648</ele>
        <time>2024-11-15T18:55:50.000Z</time>
      </trkpt>
      <trkpt lat="45.86348" lon="3.57953">
        <ele>495.79998779297</ele>
        <time>2024-11-15T18:55:51.000Z</time>
      </trkpt>
      <trkpt lat="45.86349" lon="3.5795">
        <ele>495</ele>
        <time>2024-11-15T18:55:52.000Z</time>
      </trkpt>
      <trkpt lat="45.8635" lon="3.57947">
        <ele>494.79998779297</ele>
        <time>2024-11-15T18:55:53.000Z</time>
      </trkpt>
      <trkpt lat="45.86351" lon="3.57944">
        <ele>494.39999389648</ele>
        <time>2024-11-15T18:55:54.000Z</time>
      </trkpt>
      <trkpt lat="45.86351" lon="3.57941">
        <ele>494</ele>
        <time>2024-11-15T18:55:55.000Z</time>
      </trkpt>
      <trkpt lat="45.86352" lon="3.57939">
        <ele>493.60000610352</ele>
        <time>2024-11-15T18:55:56.000Z</time>
      </trkpt>
      <trkpt lat="45.86352" lon="3.57936">
        <ele>493.20001220703</ele>
        <time>2024-11-15T18:55:57.000Z</time>
      </trkpt>
      <trkpt lat="45.86353" lon="3.57933">
        <ele>492.39999389648</ele>
        <time>2024-11-15T18:55:58.000Z</time>
      </trkpt>
      <trkpt lat="45.86353" lon="3.5793">
        <ele>491.79998779297</ele>
        <time>2024-11-15T18:55:59.000Z</time>
      </trkpt>
      <trkpt lat="45.86354" lon="3.57927">
        <ele>491.39999389648</ele>
        <time>2024-11-15T18:56:00.000Z</time>
      </trkpt>
      <trkpt lat="45.86355" lon="3.57924">
        <ele>491</ele>
        <time>2024-11-15T18:56:01.000Z</time>
      </trkpt>
      <trkpt lat="45.86355" lon="3.5792">
        <ele>490.79998779297</ele>
        <time>2024-11-15T18:56:02.000Z</time>
      </trkpt>
      <trkpt lat="45.86356" lon="3.57917">
        <ele>490.39999389648</ele>
        <time>2024-11-15T18:56:03.000Z</time>
      </trkpt>
      <trkpt lat="45.86356" lon="3.57914">
        <ele>489.79998779297</ele>
        <time>2024-11-15T18:56:04.000Z</time>
      </trkpt>
      <trkpt lat="45.86356" lon="3.5791">
        <ele>489.39999389648</ele>
        <time>2024-11-15T18:56:05.000Z</time>
      </trkpt>
      <trkpt lat="45.86357" lon="3.57907">
        <ele>488.79998779297</ele>
        <time>2024-11-15T18:56:06.000Z</time>
      </trkpt>
      <trkpt lat="45.86357" lon="3.57904">
        <ele>488.39999389648</ele>
        <time>2024-11-15T18:56:07.000Z</time>
      </trkpt>
      <trkpt lat="45.86357" lon="3.579">
        <ele>488</ele>
        <time>2024-11-15T18:56:08.000Z</time>
      </trkpt>
      <trkpt lat="45.86357" lon="3.57897">
        <ele>487.39999389648</ele>
        <time>2024-11-15T18:56:09.000Z</time>
      </trkpt>
      <trkpt lat="45.86357" lon="3.57894">
        <ele>487</ele>
        <time>2024-11-15T18:56:10.000Z</time>
      </trkpt>
      <trkpt lat="45.86357" lon="3.5789">
        <ele>485.79998779297</ele>
        <time>2024-11-15T18:56:11.000Z</time>
      </trkpt>
      <trkpt lat="45.86357" lon="3.57887">
        <ele>485.20001220703</ele>
        <time>2024-11-15T18:56:12.000Z</time>
      </trkpt>
      <trkpt lat="45.86356" lon="3.57883">
        <ele>484.79998779297</ele>
        <time>2024-11-15T18:56:13.000Z</time>
      </trkpt>
      <trkpt lat="45.86356" lon="3.5788">
        <ele>484.60000610352</ele>
        <time>2024-11-15T18:56:14.000Z</time>
      </trkpt>
      <trkpt lat="45.86355" lon="3.57877">
        <ele>484.20001220703</ele>
        <time>2024-11-15T18:56:15.000Z</time>
      </trkpt>
      <trkpt lat="45.86354" lon="3.57874">
        <ele>484</ele>
        <time>2024-11-15T18:56:16.000Z</time>
      </trkpt>
      <trkpt lat="45.86354" lon="3.5787">
        <ele>483.60000610352</ele>
        <time>2024-11-15T18:56:17.000Z</time>
      </trkpt>
      <trkpt lat="45.86353" lon="3.57867">
        <ele>483.20001220703</ele>
        <time>2024-11-15T18:56:18.000Z</time>
      </trkpt>
      <trkpt lat="45.86352" lon="3.57864">
        <ele>482.60000610352</ele>
        <time>2024-11-15T18:56:19.000Z</time>
      </trkpt>
      <trkpt lat="45.86351" lon="3.5786">
        <ele>482</ele>
        <time>2024-11-15T18:56:20.000Z</time>
      </trkpt>
      <trkpt lat="45.8635" lon="3.57857">
        <ele>481.20001220703</ele>
        <time>2024-11-15T18:56:21.000Z</time>
      </trkpt>
      <trkpt lat="45.86349" lon="3.57855">
        <ele>480.20001220703</ele>
        <time>2024-11-15T18:56:22.000Z</time>
      </trkpt>
      <trkpt lat="45.86349" lon="3.57852">
        <ele>479.60000610352</ele>
        <time>2024-11-15T18:56:23.000Z</time>
      </trkpt>
      <trkpt lat="45.86348" lon="3.57849">
        <ele>478.79998779297</ele>
        <time>2024-11-15T18:56:24.000Z</time>
      </trkpt>
      <trkpt lat="45.86347" lon="3.57847">
        <ele>478.60000610352</ele>
        <time>2024-11-15T18:56:25.000Z</time>
      </trkpt>
      <trkpt lat="45.86346" lon="3.57844">
        <ele>478.20001220703</ele>
        <time>2024-11-15T18:56:26.000Z</time>
      </trkpt>
      <trkpt lat="45.86345" lon="3.57841">
        <ele>477.79998779297</ele>
        <time>2024-11-15T18:56:27.000Z</time>
      </trkpt>
      <trkpt lat="45.86344" lon="3.57839">
        <ele>477.60000610352</ele>
        <time>2024-11-15T18:56:28.000Z</time>
      </trkpt>
      <trkpt lat="45.86344" lon="3.57836">
        <ele>477.39999389648</ele>
        <time>2024-11-15T18:56:29.000Z</time>
      </trkpt>
      <trkpt lat="45.86343" lon="3.57833">
        <ele>477</ele>
        <time>2024-11-15T18:56:30.000Z</time>
      </trkpt>
      <trkpt lat="45.86342" lon="3.5783">
        <ele>476.79998779297</ele>
        <time>2024-11-15T18:56:31.000Z</time>
      </trkpt>
      <trkpt lat="45.86341" lon="3.57828">
        <ele>476</ele>
        <time>2024-11-15T18:56:32.000Z</time>
      </trkpt>
      <trkpt lat="45.8634" lon="3.57825">
        <ele>475.60000610352</ele>
        <time>2024-11-15T18:56:33.000Z</time>
      </trkpt>
      <trkpt lat="45.8634" lon="3.57822">
        <ele>475</ele>
        <time>2024-11-15T18:56:34.000Z</time>
      </trkpt>
      <trkpt lat="45.86339" lon="3.57819">
        <ele>474.39999389648</ele>
        <time>2024-11-15T18:56:35.000Z</time>
      </trkpt>
      <trkpt lat="45.86338" lon="3.57816">
        <ele>474</ele>
        <time>2024-11-15T18:56:36.000Z</time>
      </trkpt>
      <trkpt lat="45.86337" lon="3.57813">
        <ele>473.39999389648</ele>
        <time>2024-11-15T18:56:37.000Z</time>
      </trkpt>
      <trkpt lat="45.86336" lon="3.5781">
        <ele>473</ele>
        <time>2024-11-15T18:56:38.000Z</time>
      </trkpt>
      <trkpt lat="45.86336" lon="3.57808">
        <ele>472.60000610352</ele>
        <time>2024-11-15T18:56:39.000Z</time>
      </trkpt>
      <trkpt lat="45.86335" lon="3.57805">
        <ele>472.39999389648</ele>
        <time>2024-11-15T18:56:40.000Z</time>
      </trkpt>
      <trkpt lat="45.86334" lon="3.57801">
        <ele>472.20001220703</ele>
        <time>2024-11-15T18:56:41.000Z</time>
      </trkpt>
      <trkpt lat="45.86334" lon="3.57798">
        <ele>471.60000610352</ele>
        <time>2024-11-15T18:56:42.000Z</time>
      </trkpt>
      <trkpt lat="45.86333" lon="3.57795">
        <ele>470.60000610352</ele>
        <time>2024-11-15T18:56:43.000Z</time>
      </trkpt>
      <trkpt lat="45.86332" lon="3.57792">
        <ele>470</ele>
        <time>2024-11-15T18:56:44.000Z</time>
      </trkpt>
      <trkpt lat="45.86331" lon="3.57789">
        <ele>469.39999389648</ele>
        <time>2024-11-15T18:56:45.000Z</time>
      </trkpt>
      <trkpt lat="45.86331" lon="3.57785">
        <ele>469</ele>
        <time>2024-11-15T18:56:46.000Z</time>
      </trkpt>
      <trkpt lat="45.8633" lon="3.57782">
        <ele>468.60000610352</ele>
        <time>2024-11-15T18:56:47.000Z</time>
      </trkpt>
      <trkpt lat="45.8633" lon="3.57778">
        <ele>468.20001220703</ele>
        <time>2024-11-15T18:56:48.000Z</time>
      </trkpt>
      <trkpt lat="45.86329" lon="3.57774">
        <ele>467.79998779297</ele>
        <time>2024-11-15T18:56:49.000Z</time>
      </trkpt>
      <trkpt lat="45.86329" lon="3.57771">
        <ele>467.20001220703</ele>
        <time>2024-11-15T18:56:50.000Z</time>
      </trkpt>
      <trkpt lat="45.8633" lon="3.57767">
        <ele>467</ele>
        <time>2024-11-15T18:56:51.000Z</time>
      </trkpt>
      <trkpt lat="45.8633" lon="3.57763">
        <ele>466.20001220703</ele>
        <time>2024-11-15T18:56:52.000Z</time>
      </trkpt>
      <trkpt lat="45.8633" lon="3.5776">
        <ele>466</ele>
        <time>2024-11-15T18:56:53.000Z</time>
      </trkpt>
      <trkpt lat="45.86331" lon="3.57757">
        <ele>465.39999389648</ele>
        <time>2024-11-15T18:56:54.000Z</time>
      </trkpt>
      <trkpt lat="45.86331" lon="3.57754">
        <ele>465.20001220703</ele>
        <time>2024-11-15T18:56:55.000Z</time>
      </trkpt>
      <trkpt lat="45.86332" lon="3.57751">
        <ele>464.20001220703</ele>
        <time>2024-11-15T18:56:56.000Z</time>
      </trkpt>
      <trkpt lat="45.86333" lon="3.57748">
        <ele>463.60000610352</ele>
        <time>2024-11-15T18:56:57.000Z</time>
      </trkpt>
      <trkpt lat="45.86333" lon="3.57745">
        <ele>462.79998779297</ele>
        <time>2024-11-15T18:56:58.000Z</time>
      </trkpt>
      <trkpt lat="45.86333" lon="3.57743">
        <ele>462.60000610352</ele>
        <time>2024-11-15T18:56:59.000Z</time>
      </trkpt>
      <trkpt lat="45.86334" lon="3.5774">
        <ele>461.79998779297</ele>
        <time>2024-11-15T18:57:00.000Z</time>
      </trkpt>
      <trkpt lat="45.86334" lon="3.57737">
        <ele>461.20001220703</ele>
        <time>2024-11-15T18:57:01.000Z</time>
      </trkpt>
      <trkpt lat="45.86334" lon="3.57734">
        <ele>460.79998779297</ele>
        <time>2024-11-15T18:57:02.000Z</time>
      </trkpt>
      <trkpt lat="45.86334" lon="3.57731">
        <ele>460.39999389648</ele>
        <time>2024-11-15T18:57:03.000Z</time>
      </trkpt>
      <trkpt lat="45.86334" lon="3.57728">
        <ele>460.20001220703</ele>
        <time>2024-11-15T18:57:04.000Z</time>
      </trkpt>
      <trkpt lat="45.86334" lon="3.57724">
        <ele>459.60000610352</ele>
        <time>2024-11-15T18:57:05.000Z</time>
      </trkpt>
      <trkpt lat="45.86334" lon="3.57721">
        <ele>459.20001220703</ele>
        <time>2024-11-15T18:57:06.000Z</time>
      </trkpt>
      <trkpt lat="45.86334" lon="3.57717">
        <ele>458.79998779297</ele>
        <time>2024-11-15T18:57:07.000Z</time>
      </trkpt>
      <trkpt lat="45.86334" lon="3.57714">
        <ele>458.20001220703</ele>
        <time>2024-11-15T18:57:08.000Z</time>
      </trkpt>
      <trkpt lat="45.86334" lon="3.5771">
        <ele>457.79998779297</ele>
        <time>2024-11-15T18:57:09.000Z</time>
      </trkpt>
      <trkpt lat="45.86333" lon="3.57707">
        <ele>457.20001220703</ele>
        <time>2024-11-15T18:57:10.000Z</time>
      </trkpt>
      <trkpt lat="45.86333" lon="3.57703">
        <ele>456.79998779297</ele>
        <time>2024-11-15T18:57:11.000Z</time>
      </trkpt>
      <trkpt lat="45.86332" lon="3.577">
        <ele>456.39999389648</ele>
        <time>2024-11-15T18:57:12.000Z</time>
      </trkpt>
      <trkpt lat="45.86331" lon="3.57696">
        <ele>455.79998779297</ele>
        <time>2024-11-15T18:57:13.000Z</time>
      </trkpt>
      <trkpt lat="45.86331" lon="3.57693">
        <ele>455.20001220703</ele>
        <time>2024-11-15T18:57:14.000Z</time>
      </trkpt>
      <trkpt lat="45.8633" lon="3.57689">
        <ele>454.79998779297</ele>
        <time>2024-11-15T18:57:15.000Z</time>
      </trkpt>
      <trkpt lat="45.8633" lon="3.57685">
        <ele>454.39999389648</ele>
        <time>2024-11-15T18:57:16.000Z</time>
      </trkpt>
      <trkpt lat="45.8633" lon="3.57681">
        <ele>454</ele>
        <time>2024-11-15T18:57:17.000Z</time>
      </trkpt>
      <trkpt lat="45.8633" lon="3.57678">
        <ele>453.79998779297</ele>
        <time>2024-11-15T18:57:18.000Z</time>
      </trkpt>
      <trkpt lat="45.86331" lon="3.57674">
        <ele>453.20001220703</ele>
        <time>2024-11-15T18:57:19.000Z</time>
      </trkpt>
      <trkpt lat="45.86331" lon="3.57671">
        <ele>453.20001220703</ele>
        <time>2024-11-15T18:57:20.000Z</time>
      </trkpt>
      <trkpt lat="45.86332" lon="3.57668">
        <ele>453</ele>
        <time>2024-11-15T18:57:21.000Z</time>
      </trkpt>
      <trkpt lat="45.86332" lon="3.57664">
        <ele>453</ele>
        <time>2024-11-15T18:57:22.000Z</time>
      </trkpt>
      <trkpt lat="45.86333" lon="3.57661">
        <ele>452.79998779297</ele>
        <time>2024-11-15T18:57:23.000Z</time>
      </trkpt>
      <trkpt lat="45.86333" lon="3.57658">
        <ele>452.79998779297</ele>
        <time>2024-11-15T18:57:24.000Z</time>
      </trkpt>
      <trkpt lat="45.86333" lon="3.57655">
        <ele>452.79998779297</ele>
        <time>2024-11-15T18:57:25.000Z</time>
      </trkpt>
      <trkpt lat="45.86333" lon="3.57652">
        <ele>452.79998779297</ele>
        <time>2024-11-15T18:57:26.000Z</time>
      </trkpt>
      <trkpt lat="45.86332" lon="3.57649">
        <ele>453.20001220703</ele>
        <time>2024-11-15T18:57:27.000Z</time>
      </trkpt>
      <trkpt lat="45.86332" lon="3.57646">
        <ele>453.39999389648</ele>
        <time>2024-11-15T18:57:28.000Z</time>
      </trkpt>
      <trkpt lat="45.86332" lon="3.57643">
        <ele>453.39999389648</ele>
        <time>2024-11-15T18:57:29.000Z</time>
      </trkpt>
      <trkpt lat="45.86332" lon="3.5764">
        <ele>453.60000610352</ele>
        <time>2024-11-15T18:57:30.000Z</time>
      </trkpt>
      <trkpt lat="45.86332" lon="3.57638">
        <ele>453.60000610352</ele>
        <time>2024-11-15T18:57:31.000Z</time>
      </trkpt>
      <trkpt lat="45.86331" lon="3.57636">
        <ele>453.60000610352</ele>
        <time>2024-11-15T18:57:32.000Z</time>
      </trkpt>
      <trkpt lat="45.86331" lon="3.57634">
        <ele>453.60000610352</ele>
        <time>2024-11-15T18:57:33.000Z</time>
      </trkpt>
      <trkpt lat="45.86331" lon="3.57633">
        <ele>453.60000610352</ele>
        <time>2024-11-15T18:57:34.000Z</time>
      </trkpt>
      <trkpt lat="45.86331" lon="3.57631">
        <ele>453.60000610352</ele>
        <time>2024-11-15T18:57:35.000Z</time>
      </trkpt>
      <trkpt lat="45.86331" lon="3.5763">
        <ele>453.60000610352</ele>
        <time>2024-11-15T18:57:36.000Z</time>
      </trkpt>
      <trkpt lat="45.8633" lon="3.57629">
        <ele>454</ele>
        <time>2024-11-15T18:57:37.000Z</time>
      </trkpt>
      <trkpt lat="45.8633" lon="3.57628">
        <ele>454.20001220703</ele>
        <time>2024-11-15T18:57:38.000Z</time>
      </trkpt>
      <trkpt lat="45.8633" lon="3.57627">
        <ele>454.79998779297</ele>
        <time>2024-11-15T18:57:39.000Z</time>
      </trkpt>
      <trkpt lat="45.8633" lon="3.57626">
        <ele>455</ele>
        <time>2024-11-15T18:57:40.000Z</time>
      </trkpt>
      <trkpt lat="45.8633" lon="3.57624">
        <ele>455.60000610352</ele>
        <time>2024-11-15T18:57:41.000Z</time>
      </trkpt>
      <trkpt lat="45.8633" lon="3.57623">
        <ele>456</ele>
        <time>2024-11-15T18:57:42.000Z</time>
      </trkpt>
      <trkpt lat="45.86329" lon="3.57621">
        <ele>456.39999389648</ele>
        <time>2024-11-15T18:57:43.000Z</time>
      </trkpt>
      <trkpt lat="45.86329" lon="3.57618">
        <ele>457</ele>
        <time>2024-11-15T18:57:44.000Z</time>
      </trkpt>
      <trkpt lat="45.86329" lon="3.57616">
        <ele>457.60000610352</ele>
        <time>2024-11-15T18:57:45.000Z</time>
      </trkpt>
      <trkpt lat="45.86329" lon="3.57613">
        <ele>458</ele>
        <time>2024-11-15T18:57:46.000Z</time>
      </trkpt>
      <trkpt lat="45.86329" lon="3.5761">
        <ele>458.20001220703</ele>
        <time>2024-11-15T18:57:47.000Z</time>
      </trkpt>
      <trkpt lat="45.86329" lon="3.57607">
        <ele>458.39999389648</ele>
        <time>2024-11-15T18:57:48.000Z</time>
      </trkpt>
      <trkpt lat="45.86329" lon="3.57604">
        <ele>458.60000610352</ele>
        <time>2024-11-15T18:57:49.000Z</time>
      </trkpt>
      <trkpt lat="45.86329" lon="3.57601">
        <ele>458.79998779297</ele>
        <time>2024-11-15T18:57:50.000Z</time>
      </trkpt>
      <trkpt lat="45.86329" lon="3.57598">
        <ele>458.79998779297</ele>
        <time>2024-11-15T18:57:51.000Z</time>
      </trkpt>
      <trkpt lat="45.86329" lon="3.57595">
        <ele>458.60000610352</ele>
        <time>2024-11-15T18:57:52.000Z</time>
      </trkpt>
      <trkpt lat="45.86329" lon="3.57593">
        <ele>458.60000610352</ele>
        <time>2024-11-15T18:57:53.000Z</time>
      </trkpt>
      <trkpt lat="45.86329" lon="3.5759">
        <ele>458.60000610352</ele>
        <time>2024-11-15T18:57:54.000Z</time>
      </trkpt>
      <trkpt lat="45.86329" lon="3.57587">
        <ele>458.60000610352</ele>
        <time>2024-11-15T18:57:55.000Z</time>
      </trkpt>
      <trkpt lat="45.86329" lon="3.57584">
        <ele>458.39999389648</ele>
        <time>2024-11-15T18:57:56.000Z</time>
      </trkpt>
      <trkpt lat="45.8633" lon="3.57581">
        <ele>458.39999389648</ele>
        <time>2024-11-15T18:57:57.000Z</time>
      </trkpt>
      <trkpt lat="45.8633" lon="3.57578">
        <ele>458.39999389648</ele>
        <time>2024-11-15T18:57:58.000Z</time>
      </trkpt>
      <trkpt lat="45.86331" lon="3.57575">
        <ele>458.20001220703</ele>
        <time>2024-11-15T18:57:59.000Z</time>
      </trkpt>
      <trkpt lat="45.86331" lon="3.57572">
        <ele>458</ele>
        <time>2024-11-15T18:58:00.000Z</time>
      </trkpt>
      <trkpt lat="45.86332" lon="3.57568">
        <ele>457.79998779297</ele>
        <time>2024-11-15T18:58:01.000Z</time>
      </trkpt>
      <trkpt lat="45.86333" lon="3.57565">
        <ele>457.39999389648</ele>
        <time>2024-11-15T18:58:02.000Z</time>
      </trkpt>
      <trkpt lat="45.86333" lon="3.57562">
        <ele>457.20001220703</ele>
        <time>2024-11-15T18:58:03.000Z</time>
      </trkpt>
      <trkpt lat="45.86334" lon="3.5756">
        <ele>457.20001220703</ele>
        <time>2024-11-15T18:58:04.000Z</time>
      </trkpt>
      <trkpt lat="45.86335" lon="3.57557">
        <ele>457.20001220703</ele>
        <time>2024-11-15T18:58:05.000Z</time>
      </trkpt>
      <trkpt lat="45.86335" lon="3.57555">
        <ele>457.39999389648</ele>
        <time>2024-11-15T18:58:06.000Z</time>
      </trkpt>
      <trkpt lat="45.86336" lon="3.57553">
        <ele>457.60000610352</ele>
        <time>2024-11-15T18:58:07.000Z</time>
      </trkpt>
      <trkpt lat="45.86337" lon="3.5755">
        <ele>457.79998779297</ele>
        <time>2024-11-15T18:58:08.000Z</time>
      </trkpt>
      <trkpt lat="45.86337" lon="3.57548">
        <ele>458.20001220703</ele>
        <time>2024-11-15T18:58:09.000Z</time>
      </trkpt>
      <trkpt lat="45.86338" lon="3.57547">
        <ele>458.60000610352</ele>
        <time>2024-11-15T18:58:10.000Z</time>
      </trkpt>
      <trkpt lat="45.86339" lon="3.57545">
        <ele>459</ele>
        <time>2024-11-15T18:58:11.000Z</time>
      </trkpt>
      <trkpt lat="45.86339" lon="3.57543">
        <ele>459.60000610352</ele>
        <time>2024-11-15T18:58:12.000Z</time>
      </trkpt>
      <trkpt lat="45.8634" lon="3.57542">
        <ele>460.39999389648</ele>
        <time>2024-11-15T18:58:13.000Z</time>
      </trkpt>
      <trkpt lat="45.8634" lon="3.5754">
        <ele>460.79998779297</ele>
        <time>2024-11-15T18:58:14.000Z</time>
      </trkpt>
      <trkpt lat="45.8634" lon="3.57539">
        <ele>461.20001220703</ele>
        <time>2024-11-15T18:58:15.000Z</time>
      </trkpt>
      <trkpt lat="45.8634" lon="3.57538">
        <ele>461.60000610352</ele>
        <time>2024-11-15T18:58:16.000Z</time>
      </trkpt>
      <trkpt lat="45.8634" lon="3.57536">
        <ele>461.79998779297</ele>
        <time>2024-11-15T18:58:17.000Z</time>
      </trkpt>
      <trkpt lat="45.8634" lon="3.57535">
        <ele>462</ele>
        <time>2024-11-15T18:58:18.000Z</time>
      </trkpt>
      <trkpt lat="45.8634" lon="3.57533">
        <ele>462.20001220703</ele>
        <time>2024-11-15T18:58:19.000Z</time>
      </trkpt>
      <trkpt lat="45.86339" lon="3.57532">
        <ele>462.39999389648</ele>
        <time>2024-11-15T18:58:20.000Z</time>
      </trkpt>
      <trkpt lat="45.86339" lon="3.57531">
        <ele>462.39999389648</ele>
        <time>2024-11-15T18:58:21.000Z</time>
      </trkpt>
      <trkpt lat="45.86339" lon="3.5753">
        <ele>462.39999389648</ele>
        <time>2024-11-15T18:58:22.000Z</time>
      </trkpt>
      <trkpt lat="45.86339" lon="3.57529">
        <ele>462.60000610352</ele>
        <time>2024-11-15T18:58:23.000Z</time>
      </trkpt>
      <trkpt lat="45.86339" lon="3.57528">
        <ele>462.79998779297</ele>
        <time>2024-11-15T18:58:24.000Z</time>
      </trkpt>
      <trkpt lat="45.86339" lon="3.57527">
        <ele>463</ele>
        <time>2024-11-15T18:58:25.000Z</time>
      </trkpt>
      <trkpt lat="45.86339" lon="3.57526">
        <ele>463.20001220703</ele>
        <time>2024-11-15T18:58:26.000Z</time>
      </trkpt>
      <trkpt lat="45.86338" lon="3.57525">
        <ele>463.60000610352</ele>
        <time>2024-11-15T18:58:27.000Z</time>
      </trkpt>
      <trkpt lat="45.86338" lon="3.57524">
        <ele>464</ele>
        <time>2024-11-15T18:58:28.000Z</time>
      </trkpt>
      <trkpt lat="45.86337" lon="3.57523">
        <ele>464.39999389648</ele>
        <time>2024-11-15T18:58:29.000Z</time>
      </trkpt>
      <trkpt lat="45.86336" lon="3.57521">
        <ele>464.60000610352</ele>
        <time>2024-11-15T18:58:30.000Z</time>
      </trkpt>
      <trkpt lat="45.86336" lon="3.57518">
        <ele>464.60000610352</ele>
        <time>2024-11-15T18:58:31.000Z</time>
      </trkpt>
      <trkpt lat="45.86335" lon="3.57516">
        <ele>464.60000610352</ele>
        <time>2024-11-15T18:58:32.000Z</time>
      </trkpt>
      <trkpt lat="45.86335" lon="3.57513">
        <ele>464.60000610352</ele>
        <time>2024-11-15T18:58:33.000Z</time>
      </trkpt>
      <trkpt lat="45.86335" lon="3.57511">
        <ele>464.20001220703</ele>
        <time>2024-11-15T18:58:34.000Z</time>
      </trkpt>
      <trkpt lat="45.86334" lon="3.57509">
        <ele>463.79998779297</ele>
        <time>2024-11-15T18:58:35.000Z</time>
      </trkpt>
      <trkpt lat="45.86334" lon="3.57507">
        <ele>463.60000610352</ele>
        <time>2024-11-15T18:58:36.000Z</time>
      </trkpt>
      <trkpt lat="45.86334" lon="3.57507">
        <ele>463.60000610352</ele>
        <time>2024-11-15T18:58:37.000Z</time>
      </trkpt>
      <trkpt lat="45.86334" lon="3.57505">
        <ele>463.39999389648</ele>
        <time>2024-11-15T18:58:38.000Z</time>
      </trkpt>
      <trkpt lat="45.86334" lon="3.57503">
        <ele>463.39999389648</ele>
        <time>2024-11-15T18:58:39.000Z</time>
      </trkpt>
      <trkpt lat="45.86334" lon="3.57501">
        <ele>463.39999389648</ele>
        <time>2024-11-15T18:58:40.000Z</time>
      </trkpt>
      <trkpt lat="45.86334" lon="3.57499">
        <ele>463.39999389648</ele>
        <time>2024-11-15T18:58:41.000Z</time>
      </trkpt>
      <trkpt lat="45.86335" lon="3.57496">
        <ele>463</ele>
        <time>2024-11-15T18:58:42.000Z</time>
      </trkpt>
      <trkpt lat="45.86335" lon="3.57494">
        <ele>462.39999389648</ele>
        <time>2024-11-15T18:58:43.000Z</time>
      </trkpt>
      <trkpt lat="45.86336" lon="3.57491">
        <ele>462.20001220703</ele>
        <time>2024-11-15T18:58:44.000Z</time>
      </trkpt>
      <trkpt lat="45.86336" lon="3.57489">
        <ele>461.79998779297</ele>
        <time>2024-11-15T18:58:45.000Z</time>
      </trkpt>
      <trkpt lat="45.86337" lon="3.57488">
        <ele>461.39999389648</ele>
        <time>2024-11-15T18:58:46.000Z</time>
      </trkpt>
      <trkpt lat="45.86338" lon="3.57486">
        <ele>461.20001220703</ele>
        <time>2024-11-15T18:58:47.000Z</time>
      </trkpt>
      <trkpt lat="45.86338" lon="3.57485">
        <ele>460.79998779297</ele>
        <time>2024-11-15T18:58:48.000Z</time>
      </trkpt>
      <trkpt lat="45.86338" lon="3.57484">
        <ele>460.60000610352</ele>
        <time>2024-11-15T18:58:49.000Z</time>
      </trkpt>
      <trkpt lat="45.86338" lon="3.57483">
        <ele>460.39999389648</ele>
        <time>2024-11-15T18:58:50.000Z</time>
      </trkpt>
      <trkpt lat="45.86338" lon="3.57482">
        <ele>460.20001220703</ele>
        <time>2024-11-15T18:58:51.000Z</time>
      </trkpt>
      <trkpt lat="45.86338" lon="3.5748">
        <ele>460</ele>
        <time>2024-11-15T18:58:52.000Z</time>
      </trkpt>
      <trkpt lat="45.86338" lon="3.57478">
        <ele>459.60000610352</ele>
        <time>2024-11-15T18:58:53.000Z</time>
      </trkpt>
      <trkpt lat="45.86337" lon="3.57476">
        <ele>459.39999389648</ele>
        <time>2024-11-15T18:58:54.000Z</time>
      </trkpt>
      <trkpt lat="45.86337" lon="3.57474">
        <ele>459</ele>
        <time>2024-11-15T18:58:55.000Z</time>
      </trkpt>
      <trkpt lat="45.86336" lon="3.57472">
        <ele>458.39999389648</ele>
        <time>2024-11-15T18:58:56.000Z</time>
      </trkpt>
      <trkpt lat="45.86335" lon="3.5747">
        <ele>457.79998779297</ele>
        <time>2024-11-15T18:58:57.000Z</time>
      </trkpt>
      <trkpt lat="45.86335" lon="3.57468">
        <ele>457.39999389648</ele>
        <time>2024-11-15T18:58:58.000Z</time>
      </trkpt>
      <trkpt lat="45.86334" lon="3.57466">
        <ele>457</ele>
        <time>2024-11-15T18:58:59.000Z</time>
      </trkpt>
      <trkpt lat="45.86333" lon="3.57465">
        <ele>456.60000610352</ele>
        <time>2024-11-15T18:59:00.000Z</time>
      </trkpt>
      <trkpt lat="45.86332" lon="3.57464">
        <ele>456</ele>
        <time>2024-11-15T18:59:01.000Z</time>
      </trkpt>
      <trkpt lat="45.86331" lon="3.57462">
        <ele>455.60000610352</ele>
        <time>2024-11-15T18:59:02.000Z</time>
      </trkpt>
      <trkpt lat="45.8633" lon="3.57461">
        <ele>454.60000610352</ele>
        <time>2024-11-15T18:59:03.000Z</time>
      </trkpt>
      <trkpt lat="45.86329" lon="3.5746">
        <ele>454.39999389648</ele>
        <time>2024-11-15T18:59:04.000Z</time>
      </trkpt>
      <trkpt lat="45.86328" lon="3.57459">
        <ele>454.20001220703</ele>
        <time>2024-11-15T18:59:05.000Z</time>
      </trkpt>
      <trkpt lat="45.86327" lon="3.57458">
        <ele>454</ele>
        <time>2024-11-15T18:59:06.000Z</time>
      </trkpt>
      <trkpt lat="45.86326" lon="3.57457">
        <ele>453.60000610352</ele>
        <time>2024-11-15T18:59:07.000Z</time>
      </trkpt>
      <trkpt lat="45.86325" lon="3.57457">
        <ele>453.20001220703</ele>
        <time>2024-11-15T18:59:08.000Z</time>
      </trkpt>
      <trkpt lat="45.86324" lon="3.57456">
        <ele>452.60000610352</ele>
        <time>2024-11-15T18:59:09.000Z</time>
      </trkpt>
      <trkpt lat="45.86323" lon="3.57456">
        <ele>452.39999389648</ele>
        <time>2024-11-15T18:59:10.000Z</time>
      </trkpt>
      <trkpt lat="45.86322" lon="3.57457">
        <ele>451.79998779297</ele>
        <time>2024-11-15T18:59:11.000Z</time>
      </trkpt>
      <trkpt lat="45.86321" lon="3.57457">
        <ele>451.60000610352</ele>
        <time>2024-11-15T18:59:12.000Z</time>
      </trkpt>
      <trkpt lat="45.8632" lon="3.57457">
        <ele>451.39999389648</ele>
        <time>2024-11-15T18:59:13.000Z</time>
      </trkpt>
      <trkpt lat="45.86318" lon="3.57457">
        <ele>451.39999389648</ele>
        <time>2024-11-15T18:59:14.000Z</time>
      </trkpt>
      <trkpt lat="45.86317" lon="3.57457">
        <ele>450.79998779297</ele>
        <time>2024-11-15T18:59:15.000Z</time>
      </trkpt>
      <trkpt lat="45.86316" lon="3.57457">
        <ele>450.20001220703</ele>
        <time>2024-11-15T18:59:16.000Z</time>
      </trkpt>
      <trkpt lat="45.86314" lon="3.57457">
        <ele>449.39999389648</ele>
        <time>2024-11-15T18:59:17.000Z</time>
      </trkpt>
      <trkpt lat="45.86312" lon="3.57457">
        <ele>448.79998779297</ele>
        <time>2024-11-15T18:59:18.000Z</time>
      </trkpt>
      <trkpt lat="45.86311" lon="3.57457">
        <ele>448.39999389648</ele>
        <time>2024-11-15T18:59:19.000Z</time>
      </trkpt>
      <trkpt lat="45.86309" lon="3.57458">
        <ele>447.60000610352</ele>
        <time>2024-11-15T18:59:20.000Z</time>
      </trkpt>
      <trkpt lat="45.86307" lon="3.57459">
        <ele>447</ele>
        <time>2024-11-15T18:59:21.000Z</time>
      </trkpt>
      <trkpt lat="45.86305" lon="3.57461">
        <ele>446.60000610352</ele>
        <time>2024-11-15T18:59:22.000Z</time>
      </trkpt>
      <trkpt lat="45.86303" lon="3.57462">
        <ele>446.20001220703</ele>
        <time>2024-11-15T18:59:23.000Z</time>
      </trkpt>
      <trkpt lat="45.86301" lon="3.57464">
        <ele>446</ele>
        <time>2024-11-15T18:59:24.000Z</time>
      </trkpt>
      <trkpt lat="45.86298" lon="3.57465">
        <ele>445.60000610352</ele>
        <time>2024-11-15T18:59:25.000Z</time>
      </trkpt>
      <trkpt lat="45.86296" lon="3.57467">
        <ele>445.20001220703</ele>
        <time>2024-11-15T18:59:26.000Z</time>
      </trkpt>
      <trkpt lat="45.86294" lon="3.57468">
        <ele>445</ele>
        <time>2024-11-15T18:59:27.000Z</time>
      </trkpt>
      <trkpt lat="45.86292" lon="3.5747">
        <ele>444.79998779297</ele>
        <time>2024-11-15T18:59:28.000Z</time>
      </trkpt>
      <trkpt lat="45.86289" lon="3.57471">
        <ele>444.60000610352</ele>
        <time>2024-11-15T18:59:29.000Z</time>
      </trkpt>
      <trkpt lat="45.86287" lon="3.57471">
        <ele>444.39999389648</ele>
        <time>2024-11-15T18:59:30.000Z</time>
      </trkpt>
      <trkpt lat="45.86284" lon="3.57471">
        <ele>444.20001220703</ele>
        <time>2024-11-15T18:59:31.000Z</time>
      </trkpt>
      <trkpt lat="45.86281" lon="3.5747">
        <ele>444.20001220703</ele>
        <time>2024-11-15T18:59:32.000Z</time>
      </trkpt>
      <trkpt lat="45.86279" lon="3.57469">
        <ele>443.79998779297</ele>
        <time>2024-11-15T18:59:33.000Z</time>
      </trkpt>
      <trkpt lat="45.86277" lon="3.57467">
        <ele>443.60000610352</ele>
        <time>2024-11-15T18:59:34.000Z</time>
      </trkpt>
      <trkpt lat="45.86275" lon="3.57465">
        <ele>443.39999389648</ele>
        <time>2024-11-15T18:59:35.000Z</time>
      </trkpt>
      <trkpt lat="45.86274" lon="3.57463">
        <ele>443</ele>
        <time>2024-11-15T18:59:36.000Z</time>
      </trkpt>
      <trkpt lat="45.86273" lon="3.57461">
        <ele>442.79998779297</ele>
        <time>2024-11-15T18:59:37.000Z</time>
      </trkpt>
      <trkpt lat="45.86272" lon="3.57459">
        <ele>442.39999389648</ele>
        <time>2024-11-15T18:59:38.000Z</time>
      </trkpt>
      <trkpt lat="45.86272" lon="3.57457">
        <ele>442</ele>
        <time>2024-11-15T18:59:39.000Z</time>
      </trkpt>
      <trkpt lat="45.86271" lon="3.57455">
        <ele>441.79998779297</ele>
        <time>2024-11-15T18:59:40.000Z</time>
      </trkpt>
      <trkpt lat="45.8627" lon="3.57453">
        <ele>441.60000610352</ele>
        <time>2024-11-15T18:59:41.000Z</time>
      </trkpt>
      <trkpt lat="45.86269" lon="3.57451">
        <ele>441.60000610352</ele>
        <time>2024-11-15T18:59:42.000Z</time>
      </trkpt>
      <trkpt lat="45.86267" lon="3.57449">
        <ele>441.39999389648</ele>
        <time>2024-11-15T18:59:43.000Z</time>
      </trkpt>
      <trkpt lat="45.86265" lon="3.57447">
        <ele>441.39999389648</ele>
        <time>2024-11-15T18:59:44.000Z</time>
      </trkpt>
      <trkpt lat="45.86263" lon="3.57445">
        <ele>441.39999389648</ele>
        <time>2024-11-15T18:59:45.000Z</time>
      </trkpt>
      <trkpt lat="45.8626" lon="3.57443">
        <ele>440.79998779297</ele>
        <time>2024-11-15T18:59:46.000Z</time>
      </trkpt>
      <trkpt lat="45.86258" lon="3.57441">
        <ele>440.39999389648</ele>
        <time>2024-11-15T18:59:47.000Z</time>
      </trkpt>
      <trkpt lat="45.86256" lon="3.57439">
        <ele>440.20001220703</ele>
        <time>2024-11-15T18:59:48.000Z</time>
      </trkpt>
      <trkpt lat="45.86254" lon="3.57438">
        <ele>440</ele>
        <time>2024-11-15T18:59:49.000Z</time>
      </trkpt>
      <trkpt lat="45.86251" lon="3.57437">
        <ele>439.79998779297</ele>
        <time>2024-11-15T18:59:50.000Z</time>
      </trkpt>
      <trkpt lat="45.86249" lon="3.57435">
        <ele>439.79998779297</ele>
        <time>2024-11-15T18:59:51.000Z</time>
      </trkpt>
      <trkpt lat="45.86247" lon="3.57433">
        <ele>439.39999389648</ele>
        <time>2024-11-15T18:59:52.000Z</time>
      </trkpt>
      <trkpt lat="45.86245" lon="3.5743">
        <ele>439.39999389648</ele>
        <time>2024-11-15T18:59:53.000Z</time>
      </trkpt>
      <trkpt lat="45.86242" lon="3.57428">
        <ele>439.39999389648</ele>
        <time>2024-11-15T18:59:54.000Z</time>
      </trkpt>
      <trkpt lat="45.8624" lon="3.57426">
        <ele>439.39999389648</ele>
        <time>2024-11-15T18:59:55.000Z</time>
      </trkpt>
      <trkpt lat="45.86238" lon="3.57424">
        <ele>439.39999389648</ele>
        <time>2024-11-15T18:59:56.000Z</time>
      </trkpt>
      <trkpt lat="45.86236" lon="3.57422">
        <ele>439.20001220703</ele>
        <time>2024-11-15T18:59:57.000Z</time>
      </trkpt>
      <trkpt lat="45.86234" lon="3.57421">
        <ele>438.79998779297</ele>
        <time>2024-11-15T18:59:58.000Z</time>
      </trkpt>
      <trkpt lat="45.86232" lon="3.5742">
        <ele>438.79998779297</ele>
        <time>2024-11-15T18:59:59.000Z</time>
      </trkpt>
      <trkpt lat="45.86229" lon="3.57419">
        <ele>438.60000610352</ele>
        <time>2024-11-15T19:00:00.000Z</time>
      </trkpt>
      <trkpt lat="45.86227" lon="3.57419">
        <ele>438.60000610352</ele>
        <time>2024-11-15T19:00:01.000Z</time>
      </trkpt>
      <trkpt lat="45.86225" lon="3.57418">
        <ele>438.60000610352</ele>
        <time>2024-11-15T19:00:02.000Z</time>
      </trkpt>
      <trkpt lat="45.86222" lon="3.57418">
        <ele>438.60000610352</ele>
        <time>2024-11-15T19:00:03.000Z</time>
      </trkpt>
      <trkpt lat="45.8622" lon="3.57417">
        <ele>438.79998779297</ele>
        <time>2024-11-15T19:00:04.000Z</time>
      </trkpt>
      <trkpt lat="45.86219" lon="3.57416">
        <ele>439.20001220703</ele>
        <time>2024-11-15T19:00:05.000Z</time>
      </trkpt>
      <trkpt lat="45.86218" lon="3.57414">
        <ele>439.60000610352</ele>
        <time>2024-11-15T19:00:06.000Z</time>
      </trkpt>
      <trkpt lat="45.86217" lon="3.57413">
        <ele>440.20001220703</ele>
        <time>2024-11-15T19:00:07.000Z</time>
      </trkpt>
      <trkpt lat="45.86217" lon="3.57411">
        <ele>440.39999389648</ele>
        <time>2024-11-15T19:00:08.000Z</time>
      </trkpt>
      <trkpt lat="45.86216" lon="3.57409">
        <ele>440.60000610352</ele>
        <time>2024-11-15T19:00:09.000Z</time>
      </trkpt>
      <trkpt lat="45.86216" lon="3.57407">
        <ele>440.60000610352</ele>
        <time>2024-11-15T19:00:10.000Z</time>
      </trkpt>
      <trkpt lat="45.86216" lon="3.57405">
        <ele>440.60000610352</ele>
        <time>2024-11-15T19:00:11.000Z</time>
      </trkpt>
      <trkpt lat="45.86217" lon="3.57403">
        <ele>440.60000610352</ele>
        <time>2024-11-15T19:00:12.000Z</time>
      </trkpt>
      <trkpt lat="45.86217" lon="3.574">
        <ele>440.39999389648</ele>
        <time>2024-11-15T19:00:13.000Z</time>
      </trkpt>
      <trkpt lat="45.86218" lon="3.57398">
        <ele>440.20001220703</ele>
        <time>2024-11-15T19:00:14.000Z</time>
      </trkpt>
      <trkpt lat="45.86219" lon="3.57395">
        <ele>440.20001220703</ele>
        <time>2024-11-15T19:00:15.000Z</time>
      </trkpt>
      <trkpt lat="45.8622" lon="3.57393">
        <ele>439.79998779297</ele>
        <time>2024-11-15T19:00:16.000Z</time>
      </trkpt>
      <trkpt lat="45.8622" lon="3.57391">
        <ele>439.39999389648</ele>
        <time>2024-11-15T19:00:17.000Z</time>
      </trkpt>
      <trkpt lat="45.86221" lon="3.57389">
        <ele>439</ele>
        <time>2024-11-15T19:00:18.000Z</time>
      </trkpt>
      <trkpt lat="45.86222" lon="3.57387">
        <ele>438.79998779297</ele>
        <time>2024-11-15T19:00:19.000Z</time>
      </trkpt>
      <trkpt lat="45.86222" lon="3.57385">
        <ele>438.79998779297</ele>
        <time>2024-11-15T19:00:20.000Z</time>
      </trkpt>
      <trkpt lat="45.86223" lon="3.57383">
        <ele>438.79998779297</ele>
        <time>2024-11-15T19:00:21.000Z</time>
      </trkpt>
      <trkpt lat="45.86223" lon="3.5738">
        <ele>438.60000610352</ele>
        <time>2024-11-15T19:00:22.000Z</time>
      </trkpt>
      <trkpt lat="45.86224" lon="3.57377">
        <ele>438.60000610352</ele>
        <time>2024-11-15T19:00:23.000Z</time>
      </trkpt>
      <trkpt lat="45.86223" lon="3.57374">
        <ele>438.60000610352</ele>
        <time>2024-11-15T19:00:24.000Z</time>
      </trkpt>
      <trkpt lat="45.86223" lon="3.57372">
        <ele>438.60000610352</ele>
        <time>2024-11-15T19:00:25.000Z</time>
      </trkpt>
      <trkpt lat="45.86223" lon="3.57369">
        <ele>438.39999389648</ele>
        <time>2024-11-15T19:00:26.000Z</time>
      </trkpt>
      <trkpt lat="45.86222" lon="3.57366">
        <ele>438</ele>
        <time>2024-11-15T19:00:27.000Z</time>
      </trkpt>
      <trkpt lat="45.86222" lon="3.57363">
        <ele>438</ele>
        <time>2024-11-15T19:00:28.000Z</time>
      </trkpt>
      <trkpt lat="45.86222" lon="3.57361">
        <ele>437.79998779297</ele>
        <time>2024-11-15T19:00:29.000Z</time>
      </trkpt>
      <trkpt lat="45.86222" lon="3.57359">
        <ele>437.60000610352</ele>
        <time>2024-11-15T19:00:30.000Z</time>
      </trkpt>
      <trkpt lat="45.86221" lon="3.57357">
        <ele>437.39999389648</ele>
        <time>2024-11-15T19:00:31.000Z</time>
      </trkpt>
      <trkpt lat="45.86221" lon="3.57354">
        <ele>437.39999389648</ele>
        <time>2024-11-15T19:00:32.000Z</time>
      </trkpt>
      <trkpt lat="45.86221" lon="3.57351">
        <ele>437.20001220703</ele>
        <time>2024-11-15T19:00:33.000Z</time>
      </trkpt>
      <trkpt lat="45.86221" lon="3.57348">
        <ele>437</ele>
        <time>2024-11-15T19:00:34.000Z</time>
      </trkpt>
      <trkpt lat="45.86221" lon="3.57344">
        <ele>437</ele>
        <time>2024-11-15T19:00:35.000Z</time>
      </trkpt>
      <trkpt lat="45.86221" lon="3.57341">
        <ele>436</ele>
        <time>2024-11-15T19:00:36.000Z</time>
      </trkpt>
      <trkpt lat="45.86222" lon="3.57338">
        <ele>435.60000610352</ele>
        <time>2024-11-15T19:00:37.000Z</time>
      </trkpt>
      <trkpt lat="45.86222" lon="3.57335">
        <ele>435.39999389648</ele>
        <time>2024-11-15T19:00:38.000Z</time>
      </trkpt>
      <trkpt lat="45.86222" lon="3.57332">
        <ele>435.39999389648</ele>
        <time>2024-11-15T19:00:39.000Z</time>
      </trkpt>
      <trkpt lat="45.86222" lon="3.5733">
        <ele>435.20001220703</ele>
        <time>2024-11-15T19:00:40.000Z</time>
      </trkpt>
      <trkpt lat="45.86223" lon="3.57327">
        <ele>435.39999389648</ele>
        <time>2024-11-15T19:00:41.000Z</time>
      </trkpt>
      <trkpt lat="45.86223" lon="3.57325">
        <ele>435.39999389648</ele>
        <time>2024-11-15T19:00:42.000Z</time>
      </trkpt>
      <trkpt lat="45.86222" lon="3.57322">
        <ele>435.60000610352</ele>
        <time>2024-11-15T19:00:43.000Z</time>
      </trkpt>
      <trkpt lat="45.86222" lon="3.5732">
        <ele>435.79998779297</ele>
        <time>2024-11-15T19:00:44.000Z</time>
      </trkpt>
      <trkpt lat="45.86222" lon="3.57318">
        <ele>436</ele>
        <time>2024-11-15T19:00:45.000Z</time>
      </trkpt>
      <trkpt lat="45.86223" lon="3.57316">
        <ele>436.79998779297</ele>
        <time>2024-11-15T19:00:46.000Z</time>
      </trkpt>
      <trkpt lat="45.86223" lon="3.57314">
        <ele>437.39999389648</ele>
        <time>2024-11-15T19:00:47.000Z</time>
      </trkpt>
      <trkpt lat="45.86224" lon="3.57312">
        <ele>437.79998779297</ele>
        <time>2024-11-15T19:00:48.000Z</time>
      </trkpt>
      <trkpt lat="45.86225" lon="3.57309">
        <ele>438.20001220703</ele>
        <time>2024-11-15T19:00:49.000Z</time>
      </trkpt>
      <trkpt lat="45.86226" lon="3.57307">
        <ele>438.20001220703</ele>
        <time>2024-11-15T19:00:50.000Z</time>
      </trkpt>
      <trkpt lat="45.86227" lon="3.57305">
        <ele>438.20001220703</ele>
        <time>2024-11-15T19:00:51.000Z</time>
      </trkpt>
      <trkpt lat="45.86227" lon="3.57303">
        <ele>438.20001220703</ele>
        <time>2024-11-15T19:00:52.000Z</time>
      </trkpt>
      <trkpt lat="45.86228" lon="3.57301">
        <ele>438.20001220703</ele>
        <time>2024-11-15T19:00:53.000Z</time>
      </trkpt>
      <trkpt lat="45.86229" lon="3.57298">
        <ele>438.20001220703</ele>
        <time>2024-11-15T19:00:54.000Z</time>
      </trkpt>
      <trkpt lat="45.8623" lon="3.57296">
        <ele>438.20001220703</ele>
        <time>2024-11-15T19:00:55.000Z</time>
      </trkpt>
      <trkpt lat="45.8623" lon="3.57295">
        <ele>438.20001220703</ele>
        <time>2024-11-15T19:00:56.000Z</time>
      </trkpt>
      <trkpt lat="45.8623" lon="3.57294">
        <ele>438.39999389648</ele>
        <time>2024-11-15T19:00:57.000Z</time>
      </trkpt>
      <trkpt lat="45.8623" lon="3.57294">
        <ele>438.39999389648</ele>
        <time>2024-11-15T19:00:58.000Z</time>
      </trkpt>
      <trkpt lat="45.86231" lon="3.57293">
        <ele>438.39999389648</ele>
        <time>2024-11-15T19:00:59.000Z</time>
      </trkpt>
      <trkpt lat="45.8623" lon="3.57293">
        <ele>438.39999389648</ele>
        <time>2024-11-15T19:01:00.000Z</time>
      </trkpt>
      <trkpt lat="45.8623" lon="3.57292">
        <ele>438.39999389648</ele>
        <time>2024-11-15T19:01:01.000Z</time>
      </trkpt>
      <trkpt lat="45.8623" lon="3.57291">
        <ele>438.39999389648</ele>
        <time>2024-11-15T19:01:02.000Z</time>
      </trkpt>
      <trkpt lat="45.8623" lon="3.5729">
        <ele>438.39999389648</ele>
        <time>2024-11-15T19:01:03.000Z</time>
      </trkpt>
      <trkpt lat="45.8623" lon="3.5729">
        <ele>438.39999389648</ele>
        <time>2024-11-15T19:01:04.000Z</time>
      </trkpt>
      <trkpt lat="45.8623" lon="3.57289">
        <ele>438.20001220703</ele>
        <time>2024-11-15T19:01:05.000Z</time>
      </trkpt>
      <trkpt lat="45.86231" lon="3.57288">
        <ele>438.20001220703</ele>
        <time>2024-11-15T19:01:06.000Z</time>
      </trkpt>
      <trkpt lat="45.86231" lon="3.57288">
        <ele>438</ele>
        <time>2024-11-15T19:01:07.000Z</time>
      </trkpt>
      <trkpt lat="45.86232" lon="3.57287">
        <ele>438</ele>
        <time>2024-11-15T19:01:08.000Z</time>
      </trkpt>
      <trkpt lat="45.86232" lon="3.57286">
        <ele>437.79998779297</ele>
        <time>2024-11-15T19:01:09.000Z</time>
      </trkpt>
      <trkpt lat="45.86233" lon="3.57286">
        <ele>437.60000610352</ele>
        <time>2024-11-15T19:01:10.000Z</time>
      </trkpt>
      <trkpt lat="45.86234" lon="3.57285">
        <ele>437.39999389648</ele>
        <time>2024-11-15T19:01:11.000Z</time>
      </trkpt>
      <trkpt lat="45.86235" lon="3.57283">
        <ele>436.79998779297</ele>
        <time>2024-11-15T19:01:12.000Z</time>
      </trkpt>
      <trkpt lat="45.86236" lon="3.57282">
        <ele>436.20001220703</ele>
        <time>2024-11-15T19:01:13.000Z</time>
      </trkpt>
      <trkpt lat="45.86237" lon="3.5728">
        <ele>435.79998779297</ele>
        <time>2024-11-15T19:01:14.000Z</time>
      </trkpt>
      <trkpt lat="45.86238" lon="3.57278">
        <ele>435.60000610352</ele>
        <time>2024-11-15T19:01:15.000Z</time>
      </trkpt>
      <trkpt lat="45.8624" lon="3.57277">
        <ele>434.79998779297</ele>
        <time>2024-11-15T19:01:16.000Z</time>
      </trkpt>
      <trkpt lat="45.86242" lon="3.57275">
        <ele>434.39999389648</ele>
        <time>2024-11-15T19:01:17.000Z</time>
      </trkpt>
      <trkpt lat="45.86244" lon="3.57275">
        <ele>433.60000610352</ele>
        <time>2024-11-15T19:01:18.000Z</time>
      </trkpt>
      <trkpt lat="45.86246" lon="3.57274">
        <ele>433.39999389648</ele>
        <time>2024-11-15T19:01:19.000Z</time>
      </trkpt>
      <trkpt lat="45.86249" lon="3.57273">
        <ele>433.20001220703</ele>
        <time>2024-11-15T19:01:20.000Z</time>
      </trkpt>
      <trkpt lat="45.86251" lon="3.57272">
        <ele>433.20001220703</ele>
        <time>2024-11-15T19:01:21.000Z</time>
      </trkpt>
      <trkpt lat="45.86254" lon="3.57271">
        <ele>433</ele>
        <time>2024-11-15T19:01:22.000Z</time>
      </trkpt>
      <trkpt lat="45.86257" lon="3.5727">
        <ele>432.79998779297</ele>
        <time>2024-11-15T19:01:23.000Z</time>
      </trkpt>
      <trkpt lat="45.86259" lon="3.57269">
        <ele>432.79998779297</ele>
        <time>2024-11-15T19:01:24.000Z</time>
      </trkpt>
      <trkpt lat="45.86262" lon="3.57269">
        <ele>432.79998779297</ele>
        <time>2024-11-15T19:01:25.000Z</time>
      </trkpt>
      <trkpt lat="45.86264" lon="3.57268">
        <ele>432.79998779297</ele>
        <time>2024-11-15T19:01:26.000Z</time>
      </trkpt>
      <trkpt lat="45.86266" lon="3.57268">
        <ele>432.60000610352</ele>
        <time>2024-11-15T19:01:27.000Z</time>
      </trkpt>
      <trkpt lat="45.86268" lon="3.57268">
        <ele>432.60000610352</ele>
        <time>2024-11-15T19:01:28.000Z</time>
      </trkpt>
      <trkpt lat="45.8627" lon="3.57268">
        <ele>432.60000610352</ele>
        <time>2024-11-15T19:01:29.000Z</time>
      </trkpt>
      <trkpt lat="45.86272" lon="3.57267">
        <ele>432.79998779297</ele>
        <time>2024-11-15T19:01:30.000Z</time>
      </trkpt>
      <trkpt lat="45.86274" lon="3.57265">
        <ele>432.79998779297</ele>
        <time>2024-11-15T19:01:31.000Z</time>
      </trkpt>
      <trkpt lat="45.86276" lon="3.57264">
        <ele>433.20001220703</ele>
        <time>2024-11-15T19:01:32.000Z</time>
      </trkpt>
      <trkpt lat="45.86278" lon="3.57262">
        <ele>433.39999389648</ele>
        <time>2024-11-15T19:01:33.000Z</time>
      </trkpt>
      <trkpt lat="45.8628" lon="3.5726">
        <ele>433.79998779297</ele>
        <time>2024-11-15T19:01:34.000Z</time>
      </trkpt>
      <trkpt lat="45.86282" lon="3.57258">
        <ele>434</ele>
        <time>2024-11-15T19:01:35.000Z</time>
      </trkpt>
      <trkpt lat="45.86284" lon="3.57256">
        <ele>434.60000610352</ele>
        <time>2024-11-15T19:01:36.000Z</time>
      </trkpt>
      <trkpt lat="45.86285" lon="3.57254">
        <ele>434.79998779297</ele>
        <time>2024-11-15T19:01:37.000Z</time>
      </trkpt>
      <trkpt lat="45.86286" lon="3.57251">
        <ele>435</ele>
        <time>2024-11-15T19:01:38.000Z</time>
      </trkpt>
      <trkpt lat="45.86288" lon="3.57248">
        <ele>435</ele>
        <time>2024-11-15T19:01:39.000Z</time>
      </trkpt>
      <trkpt lat="45.86289" lon="3.57246">
        <ele>434.79998779297</ele>
        <time>2024-11-15T19:01:40.000Z</time>
      </trkpt>
      <trkpt lat="45.8629" lon="3.57243">
        <ele>434.79998779297</ele>
        <time>2024-11-15T19:01:41.000Z</time>
      </trkpt>
      <trkpt lat="45.86292" lon="3.57241">
        <ele>434.79998779297</ele>
        <time>2024-11-15T19:01:42.000Z</time>
      </trkpt>
      <trkpt lat="45.86293" lon="3.57238">
        <ele>434.79998779297</ele>
        <time>2024-11-15T19:01:43.000Z</time>
      </trkpt>
      <trkpt lat="45.86295" lon="3.57236">
        <ele>435</ele>
        <time>2024-11-15T19:01:44.000Z</time>
      </trkpt>
      <trkpt lat="45.86297" lon="3.57233">
        <ele>435</ele>
        <time>2024-11-15T19:01:45.000Z</time>
      </trkpt>
      <trkpt lat="45.86298" lon="3.57231">
        <ele>435.60000610352</ele>
        <time>2024-11-15T19:01:46.000Z</time>
      </trkpt>
      <trkpt lat="45.86299" lon="3.57228">
        <ele>435.79998779297</ele>
        <time>2024-11-15T19:01:47.000Z</time>
      </trkpt>
      <trkpt lat="45.863" lon="3.57225">
        <ele>436</ele>
        <time>2024-11-15T19:01:48.000Z</time>
      </trkpt>
      <trkpt lat="45.86301" lon="3.57222">
        <ele>436</ele>
        <time>2024-11-15T19:01:49.000Z</time>
      </trkpt>
      <trkpt lat="45.86302" lon="3.5722">
        <ele>436</ele>
        <time>2024-11-15T19:01:50.000Z</time>
      </trkpt>
      <trkpt lat="45.86303" lon="3.57217">
        <ele>436</ele>
        <time>2024-11-15T19:01:51.000Z</time>
      </trkpt>
      <trkpt lat="45.86304" lon="3.57214">
        <ele>436.20001220703</ele>
        <time>2024-11-15T19:01:52.000Z</time>
      </trkpt>
      <trkpt lat="45.86305" lon="3.57211">
        <ele>436.20001220703</ele>
        <time>2024-11-15T19:01:53.000Z</time>
      </trkpt>
      <trkpt lat="45.86306" lon="3.57208">
        <ele>436.20001220703</ele>
        <time>2024-11-15T19:01:54.000Z</time>
      </trkpt>
      <trkpt lat="45.86306" lon="3.57205">
        <ele>436.20001220703</ele>
        <time>2024-11-15T19:01:55.000Z</time>
      </trkpt>
      <trkpt lat="45.86307" lon="3.57202">
        <ele>436</ele>
        <time>2024-11-15T19:01:56.000Z</time>
      </trkpt>
      <trkpt lat="45.86308" lon="3.57199">
        <ele>436</ele>
        <time>2024-11-15T19:01:57.000Z</time>
      </trkpt>
      <trkpt lat="45.86308" lon="3.57196">
        <ele>435.60000610352</ele>
        <time>2024-11-15T19:01:58.000Z</time>
      </trkpt>
      <trkpt lat="45.86309" lon="3.57193">
        <ele>435.39999389648</ele>
        <time>2024-11-15T19:01:59.000Z</time>
      </trkpt>
      <trkpt lat="45.86309" lon="3.57189">
        <ele>435.39999389648</ele>
        <time>2024-11-15T19:02:00.000Z</time>
      </trkpt>
      <trkpt lat="45.86309" lon="3.57186">
        <ele>435.39999389648</ele>
        <time>2024-11-15T19:02:01.000Z</time>
      </trkpt>
      <trkpt lat="45.86309" lon="3.57182">
        <ele>435.39999389648</ele>
        <time>2024-11-15T19:02:02.000Z</time>
      </trkpt>
      <trkpt lat="45.86309" lon="3.57179">
        <ele>435.39999389648</ele>
        <time>2024-11-15T19:02:03.000Z</time>
      </trkpt>
      <trkpt lat="45.86309" lon="3.57176">
        <ele>435.39999389648</ele>
        <time>2024-11-15T19:02:04.000Z</time>
      </trkpt>
      <trkpt lat="45.86308" lon="3.57172">
        <ele>435.39999389648</ele>
        <time>2024-11-15T19:02:05.000Z</time>
      </trkpt>
      <trkpt lat="45.86309" lon="3.57169">
        <ele>435.60000610352</ele>
        <time>2024-11-15T19:02:06.000Z</time>
      </trkpt>
      <trkpt lat="45.86309" lon="3.57166">
        <ele>435.60000610352</ele>
        <time>2024-11-15T19:02:07.000Z</time>
      </trkpt>
      <trkpt lat="45.86309" lon="3.57163">
        <ele>435.60000610352</ele>
        <time>2024-11-15T19:02:08.000Z</time>
      </trkpt>
      <trkpt lat="45.8631" lon="3.57159">
        <ele>435.79998779297</ele>
        <time>2024-11-15T19:02:09.000Z</time>
      </trkpt>
      <trkpt lat="45.86311" lon="3.57156">
        <ele>436</ele>
        <time>2024-11-15T19:02:10.000Z</time>
      </trkpt>
      <trkpt lat="45.86311" lon="3.57153">
        <ele>436.39999389648</ele>
        <time>2024-11-15T19:02:11.000Z</time>
      </trkpt>
      <trkpt lat="45.86312" lon="3.5715">
        <ele>436.39999389648</ele>
        <time>2024-11-15T19:02:12.000Z</time>
      </trkpt>
      <trkpt lat="45.86312" lon="3.57147">
        <ele>436.60000610352</ele>
        <time>2024-11-15T19:02:13.000Z</time>
      </trkpt>
      <trkpt lat="45.86313" lon="3.57145">
        <ele>436.60000610352</ele>
        <time>2024-11-15T19:02:14.000Z</time>
      </trkpt>
      <trkpt lat="45.86314" lon="3.57142">
        <ele>436.79998779297</ele>
        <time>2024-11-15T19:02:15.000Z</time>
      </trkpt>
      <trkpt lat="45.86314" lon="3.57139">
        <ele>436.79998779297</ele>
        <time>2024-11-15T19:02:16.000Z</time>
      </trkpt>
      <trkpt lat="45.86315" lon="3.57136">
        <ele>437</ele>
        <time>2024-11-15T19:02:17.000Z</time>
      </trkpt>
      <trkpt lat="45.86315" lon="3.57134">
        <ele>437.20001220703</ele>
        <time>2024-11-15T19:02:18.000Z</time>
      </trkpt>
      <trkpt lat="45.86316" lon="3.57131">
        <ele>437.20001220703</ele>
        <time>2024-11-15T19:02:19.000Z</time>
      </trkpt>
      <trkpt lat="45.86316" lon="3.57129">
        <ele>437.39999389648</ele>
        <time>2024-11-15T19:02:20.000Z</time>
      </trkpt>
      <trkpt lat="45.86317" lon="3.57126">
        <ele>437.39999389648</ele>
        <time>2024-11-15T19:02:21.000Z</time>
      </trkpt>
      <trkpt lat="45.86317" lon="3.57124">
        <ele>437.60000610352</ele>
        <time>2024-11-15T19:02:22.000Z</time>
      </trkpt>
      <trkpt lat="45.86318" lon="3.57122">
        <ele>437.79998779297</ele>
        <time>2024-11-15T19:02:23.000Z</time>
      </trkpt>
      <trkpt lat="45.86318" lon="3.57119">
        <ele>437.79998779297</ele>
        <time>2024-11-15T19:02:24.000Z</time>
      </trkpt>
      <trkpt lat="45.86319" lon="3.57116">
        <ele>438</ele>
        <time>2024-11-15T19:02:25.000Z</time>
      </trkpt>
      <trkpt lat="45.86319" lon="3.57114">
        <ele>438</ele>
        <time>2024-11-15T19:02:26.000Z</time>
      </trkpt>
      <trkpt lat="45.8632" lon="3.57111">
        <ele>438.20001220703</ele>
        <time>2024-11-15T19:02:27.000Z</time>
      </trkpt>
      <trkpt lat="45.8632" lon="3.57109">
        <ele>438.39999389648</ele>
        <time>2024-11-15T19:02:28.000Z</time>
      </trkpt>
      <trkpt lat="45.86321" lon="3.57107">
        <ele>438.39999389648</ele>
        <time>2024-11-15T19:02:29.000Z</time>
      </trkpt>
      <trkpt lat="45.86322" lon="3.57105">
        <ele>438.60000610352</ele>
        <time>2024-11-15T19:02:30.000Z</time>
      </trkpt>
      <trkpt lat="45.86322" lon="3.57102">
        <ele>438.60000610352</ele>
        <time>2024-11-15T19:02:31.000Z</time>
      </trkpt>
      <trkpt lat="45.86323" lon="3.571">
        <ele>438.79998779297</ele>
        <time>2024-11-15T19:02:32.000Z</time>
      </trkpt>
      <trkpt lat="45.86324" lon="3.57098">
        <ele>439.20001220703</ele>
        <time>2024-11-15T19:02:33.000Z</time>
      </trkpt>
      <trkpt lat="45.86324" lon="3.57097">
        <ele>439.20001220703</ele>
        <time>2024-11-15T19:02:34.000Z</time>
      </trkpt>
      <trkpt lat="45.86325" lon="3.57096">
        <ele>439.39999389648</ele>
        <time>2024-11-15T19:02:35.000Z</time>
      </trkpt>
      <trkpt lat="45.86326" lon="3.57094">
        <ele>439.60000610352</ele>
        <time>2024-11-15T19:02:36.000Z</time>
      </trkpt>
      <trkpt lat="45.86327" lon="3.57093">
        <ele>439.79998779297</ele>
        <time>2024-11-15T19:02:37.000Z</time>
      </trkpt>
      <trkpt lat="45.86327" lon="3.57091">
        <ele>440</ele>
        <time>2024-11-15T19:02:38.000Z</time>
      </trkpt>
      <trkpt lat="45.86328" lon="3.5709">
        <ele>440.20001220703</ele>
        <time>2024-11-15T19:02:39.000Z</time>
      </trkpt>
      <trkpt lat="45.86329" lon="3.57088">
        <ele>440.20001220703</ele>
        <time>2024-11-15T19:02:40.000Z</time>
      </trkpt>
      <trkpt lat="45.86329" lon="3.57086">
        <ele>440.39999389648</ele>
        <time>2024-11-15T19:02:41.000Z</time>
      </trkpt>
      <trkpt lat="45.8633" lon="3.57085">
        <ele>440.39999389648</ele>
        <time>2024-11-15T19:02:42.000Z</time>
      </trkpt>
      <trkpt lat="45.86331" lon="3.57083">
        <ele>440.60000610352</ele>
        <time>2024-11-15T19:02:43.000Z</time>
      </trkpt>
      <trkpt lat="45.86331" lon="3.57082">
        <ele>440.79998779297</ele>
        <time>2024-11-15T19:02:44.000Z</time>
      </trkpt>
      <trkpt lat="45.86332" lon="3.5708">
        <ele>441</ele>
        <time>2024-11-15T19:02:45.000Z</time>
      </trkpt>
      <trkpt lat="45.86332" lon="3.57079">
        <ele>441</ele>
        <time>2024-11-15T19:02:46.000Z</time>
      </trkpt>
      <trkpt lat="45.86332" lon="3.57078">
        <ele>441.20001220703</ele>
        <time>2024-11-15T19:02:47.000Z</time>
      </trkpt>
      <trkpt lat="45.86333" lon="3.57076">
        <ele>441.20001220703</ele>
        <time>2024-11-15T19:02:48.000Z</time>
      </trkpt>
      <trkpt lat="45.86333" lon="3.57075">
        <ele>441.20001220703</ele>
        <time>2024-11-15T19:02:49.000Z</time>
      </trkpt>
      <trkpt lat="45.86334" lon="3.57073">
        <ele>441.39999389648</ele>
        <time>2024-11-15T19:02:50.000Z</time>
      </trkpt>
      <trkpt lat="45.86334" lon="3.57071">
        <ele>441.60000610352</ele>
        <time>2024-11-15T19:02:51.000Z</time>
      </trkpt>
      <trkpt lat="45.86334" lon="3.57069">
        <ele>441.79998779297</ele>
        <time>2024-11-15T19:02:52.000Z</time>
      </trkpt>
      <trkpt lat="45.86335" lon="3.57067">
        <ele>442</ele>
        <time>2024-11-15T19:02:53.000Z</time>
      </trkpt>
      <trkpt lat="45.86335" lon="3.57066">
        <ele>442.20001220703</ele>
        <time>2024-11-15T19:02:54.000Z</time>
      </trkpt>
      <trkpt lat="45.86335" lon="3.57064">
        <ele>442.39999389648</ele>
        <time>2024-11-15T19:02:55.000Z</time>
      </trkpt>
      <trkpt lat="45.86336" lon="3.57062">
        <ele>442.39999389648</ele>
        <time>2024-11-15T19:02:56.000Z</time>
      </trkpt>
      <trkpt lat="45.86336" lon="3.5706">
        <ele>442.60000610352</ele>
        <time>2024-11-15T19:02:57.000Z</time>
      </trkpt>
      <trkpt lat="45.86336" lon="3.57058">
        <ele>442.60000610352</ele>
        <time>2024-11-15T19:02:58.000Z</time>
      </trkpt>
      <trkpt lat="45.86336" lon="3.57056">
        <ele>442.60000610352</ele>
        <time>2024-11-15T19:02:59.000Z</time>
      </trkpt>
      <trkpt lat="45.86337" lon="3.57054">
        <ele>442.79998779297</ele>
        <time>2024-11-15T19:03:00.000Z</time>
      </trkpt>
      <trkpt lat="45.86337" lon="3.57052">
        <ele>443</ele>
        <time>2024-11-15T19:03:01.000Z</time>
      </trkpt>
      <trkpt lat="45.86338" lon="3.57051">
        <ele>443</ele>
        <time>2024-11-15T19:03:02.000Z</time>
      </trkpt>
      <trkpt lat="45.86338" lon="3.57049">
        <ele>443.20001220703</ele>
        <time>2024-11-15T19:03:03.000Z</time>
      </trkpt>
      <trkpt lat="45.86339" lon="3.57048">
        <ele>443.60000610352</ele>
        <time>2024-11-15T19:03:04.000Z</time>
      </trkpt>
      <trkpt lat="45.86339" lon="3.57046">
        <ele>443.60000610352</ele>
        <time>2024-11-15T19:03:05.000Z</time>
      </trkpt>
      <trkpt lat="45.8634" lon="3.57045">
        <ele>443.60000610352</ele>
        <time>2024-11-15T19:03:06.000Z</time>
      </trkpt>
      <trkpt lat="45.86341" lon="3.57043">
        <ele>443.79998779297</ele>
        <time>2024-11-15T19:03:07.000Z</time>
      </trkpt>
      <trkpt lat="45.86342" lon="3.57042">
        <ele>443.79998779297</ele>
        <time>2024-11-15T19:03:08.000Z</time>
      </trkpt>
      <trkpt lat="45.86343" lon="3.57041">
        <ele>443.79998779297</ele>
        <time>2024-11-15T19:03:09.000Z</time>
      </trkpt>
      <trkpt lat="45.86344" lon="3.5704">
        <ele>444</ele>
        <time>2024-11-15T19:03:10.000Z</time>
      </trkpt>
      <trkpt lat="45.86346" lon="3.57039">
        <ele>444.39999389648</ele>
        <time>2024-11-15T19:03:11.000Z</time>
      </trkpt>
      <trkpt lat="45.86347" lon="3.57038">
        <ele>444.39999389648</ele>
        <time>2024-11-15T19:03:12.000Z</time>
      </trkpt>
      <trkpt lat="45.86348" lon="3.57037">
        <ele>444.60000610352</ele>
        <time>2024-11-15T19:03:13.000Z</time>
      </trkpt>
      <trkpt lat="45.86349" lon="3.57036">
        <ele>444.79998779297</ele>
        <time>2024-11-15T19:03:14.000Z</time>
      </trkpt>
      <trkpt lat="45.8635" lon="3.57035">
        <ele>445.20001220703</ele>
        <time>2024-11-15T19:03:15.000Z</time>
      </trkpt>
      <trkpt lat="45.86351" lon="3.57035">
        <ele>445.39999389648</ele>
        <time>2024-11-15T19:03:16.000Z</time>
      </trkpt>
      <trkpt lat="45.86352" lon="3.57035">
        <ele>445.79998779297</ele>
        <time>2024-11-15T19:03:17.000Z</time>
      </trkpt>
      <trkpt lat="45.86353" lon="3.57034">
        <ele>445.79998779297</ele>
        <time>2024-11-15T19:03:18.000Z</time>
      </trkpt>
      <trkpt lat="45.86354" lon="3.57034">
        <ele>445.79998779297</ele>
        <time>2024-11-15T19:03:19.000Z</time>
      </trkpt>
      <trkpt lat="45.86356" lon="3.57034">
        <ele>446</ele>
        <time>2024-11-15T19:03:20.000Z</time>
      </trkpt>
      <trkpt lat="45.86357" lon="3.57033">
        <ele>446.20001220703</ele>
        <time>2024-11-15T19:03:21.000Z</time>
      </trkpt>
      <trkpt lat="45.86358" lon="3.57033">
        <ele>446.20001220703</ele>
        <time>2024-11-15T19:03:22.000Z</time>
      </trkpt>
      <trkpt lat="45.86359" lon="3.57032">
        <ele>446.20001220703</ele>
        <time>2024-11-15T19:03:23.000Z</time>
      </trkpt>
      <trkpt lat="45.8636" lon="3.57032">
        <ele>446.39999389648</ele>
        <time>2024-11-15T19:03:24.000Z</time>
      </trkpt>
      <trkpt lat="45.86361" lon="3.57031">
        <ele>446.60000610352</ele>
        <time>2024-11-15T19:03:25.000Z</time>
      </trkpt>
      <trkpt lat="45.86362" lon="3.5703">
        <ele>446.60000610352</ele>
        <time>2024-11-15T19:03:26.000Z</time>
      </trkpt>
      <trkpt lat="45.86363" lon="3.5703">
        <ele>446.79998779297</ele>
        <time>2024-11-15T19:03:27.000Z</time>
      </trkpt>
      <trkpt lat="45.86364" lon="3.57029">
        <ele>447</ele>
        <time>2024-11-15T19:03:28.000Z</time>
      </trkpt>
      <trkpt lat="45.86364" lon="3.57027">
        <ele>447</ele>
        <time>2024-11-15T19:03:29.000Z</time>
      </trkpt>
      <trkpt lat="45.86365" lon="3.57026">
        <ele>447.20001220703</ele>
        <time>2024-11-15T19:03:30.000Z</time>
      </trkpt>
      <trkpt lat="45.86366" lon="3.57024">
        <ele>447.20001220703</ele>
        <time>2024-11-15T19:03:31.000Z</time>
      </trkpt>
      <trkpt lat="45.86367" lon="3.57023">
        <ele>447.39999389648</ele>
        <time>2024-11-15T19:03:32.000Z</time>
      </trkpt>
      <trkpt lat="45.86367" lon="3.57021">
        <ele>447.60000610352</ele>
        <time>2024-11-15T19:03:33.000Z</time>
      </trkpt>
      <trkpt lat="45.86368" lon="3.57019">
        <ele>447.79998779297</ele>
        <time>2024-11-15T19:03:34.000Z</time>
      </trkpt>
      <trkpt lat="45.86369" lon="3.57017">
        <ele>448</ele>
        <time>2024-11-15T19:03:35.000Z</time>
      </trkpt>
      <trkpt lat="45.86369" lon="3.57015">
        <ele>448.20001220703</ele>
        <time>2024-11-15T19:03:36.000Z</time>
      </trkpt>
      <trkpt lat="45.8637" lon="3.57014">
        <ele>448.20001220703</ele>
        <time>2024-11-15T19:03:37.000Z</time>
      </trkpt>
      <trkpt lat="45.8637" lon="3.57012">
        <ele>448.39999389648</ele>
        <time>2024-11-15T19:03:38.000Z</time>
      </trkpt>
      <trkpt lat="45.86371" lon="3.57011">
        <ele>448.60000610352</ele>
        <time>2024-11-15T19:03:39.000Z</time>
      </trkpt>
      <trkpt lat="45.86371" lon="3.5701">
        <ele>448.79998779297</ele>
        <time>2024-11-15T19:03:40.000Z</time>
      </trkpt>
      <trkpt lat="45.86371" lon="3.57008">
        <ele>448.79998779297</ele>
        <time>2024-11-15T19:03:41.000Z</time>
      </trkpt>
      <trkpt lat="45.86372" lon="3.57007">
        <ele>448.79998779297</ele>
        <time>2024-11-15T19:03:42.000Z</time>
      </trkpt>
      <trkpt lat="45.86372" lon="3.57006">
        <ele>449</ele>
        <time>2024-11-15T19:03:43.000Z</time>
      </trkpt>
      <trkpt lat="45.86373" lon="3.57004">
        <ele>449.20001220703</ele>
        <time>2024-11-15T19:03:44.000Z</time>
      </trkpt>
      <trkpt lat="45.86374" lon="3.57003">
        <ele>449.20001220703</ele>
        <time>2024-11-15T19:03:45.000Z</time>
      </trkpt>
      <trkpt lat="45.86374" lon="3.57002">
        <ele>449.39999389648</ele>
        <time>2024-11-15T19:03:46.000Z</time>
      </trkpt>
      <trkpt lat="45.86375" lon="3.57">
        <ele>449.60000610352</ele>
        <time>2024-11-15T19:03:47.000Z</time>
      </trkpt>
      <trkpt lat="45.86375" lon="3.56999">
        <ele>449.79998779297</ele>
        <time>2024-11-15T19:03:48.000Z</time>
      </trkpt>
      <trkpt lat="45.86376" lon="3.56998">
        <ele>449.79998779297</ele>
        <time>2024-11-15T19:03:49.000Z</time>
      </trkpt>
      <trkpt lat="45.86376" lon="3.56997">
        <ele>450</ele>
        <time>2024-11-15T19:03:50.000Z</time>
      </trkpt>
      <trkpt lat="45.86377" lon="3.56995">
        <ele>450.20001220703</ele>
        <time>2024-11-15T19:03:51.000Z</time>
      </trkpt>
      <trkpt lat="45.86377" lon="3.56994">
        <ele>450.20001220703</ele>
        <time>2024-11-15T19:03:52.000Z</time>
      </trkpt>
      <trkpt lat="45.86378" lon="3.56993">
        <ele>450.39999389648</ele>
        <time>2024-11-15T19:03:53.000Z</time>
      </trkpt>
      <trkpt lat="45.86379" lon="3.56992">
        <ele>450.60000610352</ele>
        <time>2024-11-15T19:03:54.000Z</time>
      </trkpt>
      <trkpt lat="45.86379" lon="3.5699">
        <ele>450.79998779297</ele>
        <time>2024-11-15T19:03:55.000Z</time>
      </trkpt>
      <trkpt lat="45.8638" lon="3.56989">
        <ele>451.20001220703</ele>
        <time>2024-11-15T19:03:56.000Z</time>
      </trkpt>
      <trkpt lat="45.86381" lon="3.56987">
        <ele>451.39999389648</ele>
        <time>2024-11-15T19:03:57.000Z</time>
      </trkpt>
      <trkpt lat="45.86381" lon="3.56985">
        <ele>451.60000610352</ele>
        <time>2024-11-15T19:03:58.000Z</time>
      </trkpt>
      <trkpt lat="45.86382" lon="3.56984">
        <ele>451.60000610352</ele>
        <time>2024-11-15T19:03:59.000Z</time>
      </trkpt>
      <trkpt lat="45.86382" lon="3.56983">
        <ele>451.79998779297</ele>
        <time>2024-11-15T19:04:00.000Z</time>
      </trkpt>
      <trkpt lat="45.86383" lon="3.56981">
        <ele>452</ele>
        <time>2024-11-15T19:04:01.000Z</time>
      </trkpt>
      <trkpt lat="45.86383" lon="3.5698">
        <ele>452.39999389648</ele>
        <time>2024-11-15T19:04:02.000Z</time>
      </trkpt>
      <trkpt lat="45.86383" lon="3.56979">
        <ele>452.60000610352</ele>
        <time>2024-11-15T19:04:03.000Z</time>
      </trkpt>
      <trkpt lat="45.86384" lon="3.56978">
        <ele>452.79998779297</ele>
        <time>2024-11-15T19:04:04.000Z</time>
      </trkpt>
      <trkpt lat="45.86384" lon="3.56977">
        <ele>453.20001220703</ele>
        <time>2024-11-15T19:04:05.000Z</time>
      </trkpt>
      <trkpt lat="45.86385" lon="3.56976">
        <ele>453.20001220703</ele>
        <time>2024-11-15T19:04:06.000Z</time>
      </trkpt>
      <trkpt lat="45.86386" lon="3.56975">
        <ele>453.39999389648</ele>
        <time>2024-11-15T19:04:07.000Z</time>
      </trkpt>
      <trkpt lat="45.86386" lon="3.56974">
        <ele>453.60000610352</ele>
        <time>2024-11-15T19:04:08.000Z</time>
      </trkpt>
      <trkpt lat="45.86387" lon="3.56972">
        <ele>453.79998779297</ele>
        <time>2024-11-15T19:04:09.000Z</time>
      </trkpt>
      <trkpt lat="45.86387" lon="3.56971">
        <ele>453.79998779297</ele>
        <time>2024-11-15T19:04:10.000Z</time>
      </trkpt>
      <trkpt lat="45.86388" lon="3.5697">
        <ele>454</ele>
        <time>2024-11-15T19:04:11.000Z</time>
      </trkpt>
      <trkpt lat="45.86388" lon="3.56969">
        <ele>454.20001220703</ele>
        <time>2024-11-15T19:04:12.000Z</time>
      </trkpt>
      <trkpt lat="45.86389" lon="3.56968">
        <ele>454.60000610352</ele>
        <time>2024-11-15T19:04:13.000Z</time>
      </trkpt>
      <trkpt lat="45.86389" lon="3.56967">
        <ele>454.79998779297</ele>
        <time>2024-11-15T19:04:14.000Z</time>
      </trkpt>
      <trkpt lat="45.8639" lon="3.56966">
        <ele>455</ele>
        <time>2024-11-15T19:04:15.000Z</time>
      </trkpt>
      <trkpt lat="45.8639" lon="3.56965">
        <ele>455.20001220703</ele>
        <time>2024-11-15T19:04:16.000Z</time>
      </trkpt>
      <trkpt lat="45.86391" lon="3.56964">
        <ele>455.20001220703</ele>
        <time>2024-11-15T19:04:17.000Z</time>
      </trkpt>
      <trkpt lat="45.86391" lon="3.56963">
        <ele>455.60000610352</ele>
        <time>2024-11-15T19:04:18.000Z</time>
      </trkpt>
      <trkpt lat="45.86391" lon="3.56962">
        <ele>455.60000610352</ele>
        <time>2024-11-15T19:04:19.000Z</time>
      </trkpt>
      <trkpt lat="45.86392" lon="3.56961">
        <ele>455.79998779297</ele>
        <time>2024-11-15T19:04:20.000Z</time>
      </trkpt>
      <trkpt lat="45.86392" lon="3.5696">
        <ele>456</ele>
        <time>2024-11-15T19:04:21.000Z</time>
      </trkpt>
      <trkpt lat="45.86392" lon="3.56959">
        <ele>456.20001220703</ele>
        <time>2024-11-15T19:04:22.000Z</time>
      </trkpt>
      <trkpt lat="45.86393" lon="3.56958">
        <ele>456.39999389648</ele>
        <time>2024-11-15T19:04:23.000Z</time>
      </trkpt>
      <trkpt lat="45.86393" lon="3.56957">
        <ele>456.79998779297</ele>
        <time>2024-11-15T19:04:24.000Z</time>
      </trkpt>
      <trkpt lat="45.86394" lon="3.56956">
        <ele>456.79998779297</ele>
        <time>2024-11-15T19:04:25.000Z</time>
      </trkpt>
      <trkpt lat="45.86394" lon="3.56954">
        <ele>457</ele>
        <time>2024-11-15T19:04:26.000Z</time>
      </trkpt>
      <trkpt lat="45.86394" lon="3.56953">
        <ele>457.20001220703</ele>
        <time>2024-11-15T19:04:27.000Z</time>
      </trkpt>
      <trkpt lat="45.86395" lon="3.56951">
        <ele>457.39999389648</ele>
        <time>2024-11-15T19:04:28.000Z</time>
      </trkpt>
      <trkpt lat="45.86395" lon="3.5695">
        <ele>457.39999389648</ele>
        <time>2024-11-15T19:04:29.000Z</time>
      </trkpt>
      <trkpt lat="45.86396" lon="3.56948">
        <ele>458</ele>
        <time>2024-11-15T19:04:30.000Z</time>
      </trkpt>
      <trkpt lat="45.86396" lon="3.56947">
        <ele>458.20001220703</ele>
        <time>2024-11-15T19:04:31.000Z</time>
      </trkpt>
      <trkpt lat="45.86397" lon="3.56946">
        <ele>458.20001220703</ele>
        <time>2024-11-15T19:04:32.000Z</time>
      </trkpt>
      <trkpt lat="45.86397" lon="3.56944">
        <ele>458.39999389648</ele>
        <time>2024-11-15T19:04:33.000Z</time>
      </trkpt>
      <trkpt lat="45.86398" lon="3.56943">
        <ele>458.60000610352</ele>
        <time>2024-11-15T19:04:34.000Z</time>
      </trkpt>
      <trkpt lat="45.86398" lon="3.56942">
        <ele>459</ele>
        <time>2024-11-15T19:04:35.000Z</time>
      </trkpt>
      <trkpt lat="45.86399" lon="3.56941">
        <ele>459</ele>
        <time>2024-11-15T19:04:36.000Z</time>
      </trkpt>
      <trkpt lat="45.86399" lon="3.56939">
        <ele>459.39999389648</ele>
        <time>2024-11-15T19:04:37.000Z</time>
      </trkpt>
      <trkpt lat="45.864" lon="3.56938">
        <ele>459.60000610352</ele>
        <time>2024-11-15T19:04:38.000Z</time>
      </trkpt>
      <trkpt lat="45.86401" lon="3.56936">
        <ele>459.79998779297</ele>
        <time>2024-11-15T19:04:39.000Z</time>
      </trkpt>
      <trkpt lat="45.86401" lon="3.56935">
        <ele>460</ele>
        <time>2024-11-15T19:04:40.000Z</time>
      </trkpt>
      <trkpt lat="45.86402" lon="3.56933">
        <ele>460.20001220703</ele>
        <time>2024-11-15T19:04:41.000Z</time>
      </trkpt>
      <trkpt lat="45.86402" lon="3.56932">
        <ele>460.39999389648</ele>
        <time>2024-11-15T19:04:42.000Z</time>
      </trkpt>
      <trkpt lat="45.86402" lon="3.5693">
        <ele>460.60000610352</ele>
        <time>2024-11-15T19:04:43.000Z</time>
      </trkpt>
      <trkpt lat="45.86403" lon="3.56929">
        <ele>460.79998779297</ele>
        <time>2024-11-15T19:04:44.000Z</time>
      </trkpt>
      <trkpt lat="45.86403" lon="3.56928">
        <ele>461</ele>
        <time>2024-11-15T19:04:45.000Z</time>
      </trkpt>
      <trkpt lat="45.86403" lon="3.56926">
        <ele>461.20001220703</ele>
        <time>2024-11-15T19:04:46.000Z</time>
      </trkpt>
      <trkpt lat="45.86404" lon="3.56925">
        <ele>461.39999389648</ele>
        <time>2024-11-15T19:04:47.000Z</time>
      </trkpt>
      <trkpt lat="45.86404" lon="3.56924">
        <ele>461.60000610352</ele>
        <time>2024-11-15T19:04:48.000Z</time>
      </trkpt>
      <trkpt lat="45.86404" lon="3.56922">
        <ele>461.79998779297</ele>
        <time>2024-11-15T19:04:49.000Z</time>
      </trkpt>
      <trkpt lat="45.86403" lon="3.5692">
        <ele>461.79998779297</ele>
        <time>2024-11-15T19:04:50.000Z</time>
      </trkpt>
      <trkpt lat="45.86403" lon="3.56918">
        <ele>462.20001220703</ele>
        <time>2024-11-15T19:04:51.000Z</time>
      </trkpt>
      <trkpt lat="45.86403" lon="3.56916">
        <ele>462.39999389648</ele>
        <time>2024-11-15T19:04:52.000Z</time>
      </trkpt>
      <trkpt lat="45.86403" lon="3.56914">
        <ele>462.39999389648</ele>
        <time>2024-11-15T19:04:53.000Z</time>
      </trkpt>
      <trkpt lat="45.86402" lon="3.56911">
        <ele>462.39999389648</ele>
        <time>2024-11-15T19:04:54.000Z</time>
      </trkpt>
      <trkpt lat="45.86402" lon="3.56909">
        <ele>462.39999389648</ele>
        <time>2024-11-15T19:04:55.000Z</time>
      </trkpt>
      <trkpt lat="45.86401" lon="3.56907">
        <ele>462.39999389648</ele>
        <time>2024-11-15T19:04:56.000Z</time>
      </trkpt>
      <trkpt lat="45.86401" lon="3.56904">
        <ele>462</ele>
        <time>2024-11-15T19:04:57.000Z</time>
      </trkpt>
      <trkpt lat="45.86401" lon="3.56901">
        <ele>461.79998779297</ele>
        <time>2024-11-15T19:04:58.000Z</time>
      </trkpt>
      <trkpt lat="45.864" lon="3.56898">
        <ele>461.39999389648</ele>
        <time>2024-11-15T19:04:59.000Z</time>
      </trkpt>
      <trkpt lat="45.864" lon="3.56895">
        <ele>461</ele>
        <time>2024-11-15T19:05:00.000Z</time>
      </trkpt>
      <trkpt lat="45.86399" lon="3.56893">
        <ele>460.79998779297</ele>
        <time>2024-11-15T19:05:01.000Z</time>
      </trkpt>
      <trkpt lat="45.86399" lon="3.5689">
        <ele>460</ele>
        <time>2024-11-15T19:05:02.000Z</time>
      </trkpt>
      <trkpt lat="45.86398" lon="3.56887">
        <ele>459.39999389648</ele>
        <time>2024-11-15T19:05:03.000Z</time>
      </trkpt>
      <trkpt lat="45.86397" lon="3.56884">
        <ele>459.20001220703</ele>
        <time>2024-11-15T19:05:04.000Z</time>
      </trkpt>
      <trkpt lat="45.86397" lon="3.56881">
        <ele>458.79998779297</ele>
        <time>2024-11-15T19:05:05.000Z</time>
      </trkpt>
      <trkpt lat="45.86396" lon="3.56878">
        <ele>458.39999389648</ele>
        <time>2024-11-15T19:05:06.000Z</time>
      </trkpt>
      <trkpt lat="45.86395" lon="3.56875">
        <ele>458</ele>
        <time>2024-11-15T19:05:07.000Z</time>
      </trkpt>
      <trkpt lat="45.86394" lon="3.56873">
        <ele>457.60000610352</ele>
        <time>2024-11-15T19:05:08.000Z</time>
      </trkpt>
      <trkpt lat="45.86393" lon="3.5687">
        <ele>457</ele>
        <time>2024-11-15T19:05:09.000Z</time>
      </trkpt>
      <trkpt lat="45.86392" lon="3.56868">
        <ele>456.20001220703</ele>
        <time>2024-11-15T19:05:10.000Z</time>
      </trkpt>
      <trkpt lat="45.86391" lon="3.56865">
        <ele>455.60000610352</ele>
        <time>2024-11-15T19:05:11.000Z</time>
      </trkpt>
      <trkpt lat="45.8639" lon="3.56863">
        <ele>455.20001220703</ele>
        <time>2024-11-15T19:05:12.000Z</time>
      </trkpt>
      <trkpt lat="45.86389" lon="3.5686">
        <ele>454.79998779297</ele>
        <time>2024-11-15T19:05:13.000Z</time>
      </trkpt>
      <trkpt lat="45.86387" lon="3.56858">
        <ele>454.39999389648</ele>
        <time>2024-11-15T19:05:14.000Z</time>
      </trkpt>
      <trkpt lat="45.86386" lon="3.56856">
        <ele>453.79998779297</ele>
        <time>2024-11-15T19:05:15.000Z</time>
      </trkpt>
      <trkpt lat="45.86384" lon="3.56854">
        <ele>453.20001220703</ele>
        <time>2024-11-15T19:05:16.000Z</time>
      </trkpt>
      <trkpt lat="45.86382" lon="3.56851">
        <ele>452.60000610352</ele>
        <time>2024-11-15T19:05:17.000Z</time>
      </trkpt>
      <trkpt lat="45.8638" lon="3.56849">
        <ele>452.60000610352</ele>
        <time>2024-11-15T19:05:18.000Z</time>
      </trkpt>
      <trkpt lat="45.86378" lon="3.56847">
        <ele>452</ele>
        <time>2024-11-15T19:05:19.000Z</time>
      </trkpt>
      <trkpt lat="45.86376" lon="3.56845">
        <ele>451.60000610352</ele>
        <time>2024-11-15T19:05:20.000Z</time>
      </trkpt>
      <trkpt lat="45.86374" lon="3.56843">
        <ele>451</ele>
        <time>2024-11-15T19:05:21.000Z</time>
      </trkpt>
      <trkpt lat="45.86372" lon="3.56841">
        <ele>450.20001220703</ele>
        <time>2024-11-15T19:05:22.000Z</time>
      </trkpt>
      <trkpt lat="45.8637" lon="3.56839">
        <ele>449.79998779297</ele>
        <time>2024-11-15T19:05:23.000Z</time>
      </trkpt>
      <trkpt lat="45.86368" lon="3.56838">
        <ele>449.20001220703</ele>
        <time>2024-11-15T19:05:24.000Z</time>
      </trkpt>
      <trkpt lat="45.86366" lon="3.56836">
        <ele>449</ele>
        <time>2024-11-15T19:05:25.000Z</time>
      </trkpt>
      <trkpt lat="45.86364" lon="3.56835">
        <ele>448.60000610352</ele>
        <time>2024-11-15T19:05:26.000Z</time>
      </trkpt>
      <trkpt lat="45.86362" lon="3.56833">
        <ele>448.20001220703</ele>
        <time>2024-11-15T19:05:27.000Z</time>
      </trkpt>
      <trkpt lat="45.8636" lon="3.56832">
        <ele>447.60000610352</ele>
        <time>2024-11-15T19:05:28.000Z</time>
      </trkpt>
      <trkpt lat="45.86358" lon="3.5683">
        <ele>447.20001220703</ele>
        <time>2024-11-15T19:05:29.000Z</time>
      </trkpt>
      <trkpt lat="45.86356" lon="3.56828">
        <ele>446.60000610352</ele>
        <time>2024-11-15T19:05:30.000Z</time>
      </trkpt>
      <trkpt lat="45.86354" lon="3.56827">
        <ele>446.20001220703</ele>
        <time>2024-11-15T19:05:31.000Z</time>
      </trkpt>
      <trkpt lat="45.86352" lon="3.56825">
        <ele>445.79998779297</ele>
        <time>2024-11-15T19:05:32.000Z</time>
      </trkpt>
      <trkpt lat="45.8635" lon="3.56823">
        <ele>445.20001220703</ele>
        <time>2024-11-15T19:05:33.000Z</time>
      </trkpt>
      <trkpt lat="45.86348" lon="3.56822">
        <ele>445</ele>
        <time>2024-11-15T19:05:34.000Z</time>
      </trkpt>
      <trkpt lat="45.86346" lon="3.5682">
        <ele>444.20001220703</ele>
        <time>2024-11-15T19:05:35.000Z</time>
      </trkpt>
      <trkpt lat="45.86344" lon="3.56817">
        <ele>443.79998779297</ele>
        <time>2024-11-15T19:05:36.000Z</time>
      </trkpt>
      <trkpt lat="45.86342" lon="3.56815">
        <ele>443.20001220703</ele>
        <time>2024-11-15T19:05:37.000Z</time>
      </trkpt>
      <trkpt lat="45.8634" lon="3.56813">
        <ele>442.79998779297</ele>
        <time>2024-11-15T19:05:38.000Z</time>
      </trkpt>
      <trkpt lat="45.86338" lon="3.56812">
        <ele>442.39999389648</ele>
        <time>2024-11-15T19:05:39.000Z</time>
      </trkpt>
      <trkpt lat="45.86336" lon="3.5681">
        <ele>442</ele>
        <time>2024-11-15T19:05:40.000Z</time>
      </trkpt>
      <trkpt lat="45.86334" lon="3.56809">
        <ele>441.60000610352</ele>
        <time>2024-11-15T19:05:41.000Z</time>
      </trkpt>
      <trkpt lat="45.86332" lon="3.56807">
        <ele>441.39999389648</ele>
        <time>2024-11-15T19:05:42.000Z</time>
      </trkpt>
      <trkpt lat="45.8633" lon="3.56805">
        <ele>440.60000610352</ele>
        <time>2024-11-15T19:05:43.000Z</time>
      </trkpt>
      <trkpt lat="45.86329" lon="3.56804">
        <ele>440</ele>
        <time>2024-11-15T19:05:44.000Z</time>
      </trkpt>
      <trkpt lat="45.86327" lon="3.56802">
        <ele>439.60000610352</ele>
        <time>2024-11-15T19:05:45.000Z</time>
      </trkpt>
      <trkpt lat="45.86325" lon="3.56801">
        <ele>438.79998779297</ele>
        <time>2024-11-15T19:05:46.000Z</time>
      </trkpt>
      <trkpt lat="45.86323" lon="3.568">
        <ele>438.60000610352</ele>
        <time>2024-11-15T19:05:47.000Z</time>
      </trkpt>
      <trkpt lat="45.86321" lon="3.56799">
        <ele>438.20001220703</ele>
        <time>2024-11-15T19:05:48.000Z</time>
      </trkpt>
      <trkpt lat="45.86319" lon="3.56798">
        <ele>437.79998779297</ele>
        <time>2024-11-15T19:05:49.000Z</time>
      </trkpt>
      <trkpt lat="45.86318" lon="3.56796">
        <ele>437.39999389648</ele>
        <time>2024-11-15T19:05:50.000Z</time>
      </trkpt>
      <trkpt lat="45.86316" lon="3.56795">
        <ele>436.79998779297</ele>
        <time>2024-11-15T19:05:51.000Z</time>
      </trkpt>
      <trkpt lat="45.86314" lon="3.56793">
        <ele>436.39999389648</ele>
        <time>2024-11-15T19:05:52.000Z</time>
      </trkpt>
      <trkpt lat="45.86312" lon="3.56791">
        <ele>435.79998779297</ele>
        <time>2024-11-15T19:05:53.000Z</time>
      </trkpt>
      <trkpt lat="45.86311" lon="3.56789">
        <ele>435</ele>
        <time>2024-11-15T19:05:54.000Z</time>
      </trkpt>
      <trkpt lat="45.8631" lon="3.56787">
        <ele>434.79998779297</ele>
        <time>2024-11-15T19:05:55.000Z</time>
      </trkpt>
      <trkpt lat="45.86309" lon="3.56784">
        <ele>434.39999389648</ele>
        <time>2024-11-15T19:05:56.000Z</time>
      </trkpt>
      <trkpt lat="45.86308" lon="3.56782">
        <ele>434</ele>
        <time>2024-11-15T19:05:57.000Z</time>
      </trkpt>
      <trkpt lat="45.86307" lon="3.5678">
        <ele>433.79998779297</ele>
        <time>2024-11-15T19:05:58.000Z</time>
      </trkpt>
      <trkpt lat="45.86306" lon="3.56779">
        <ele>433.39999389648</ele>
        <time>2024-11-15T19:05:59.000Z</time>
      </trkpt>
      <trkpt lat="45.86304" lon="3.56777">
        <ele>432.79998779297</ele>
        <time>2024-11-15T19:06:00.000Z</time>
      </trkpt>
      <trkpt lat="45.86303" lon="3.56776">
        <ele>432.20001220703</ele>
        <time>2024-11-15T19:06:01.000Z</time>
      </trkpt>
      <trkpt lat="45.86302" lon="3.56774">
        <ele>431.60000610352</ele>
        <time>2024-11-15T19:06:02.000Z</time>
      </trkpt>
      <trkpt lat="45.86301" lon="3.56772">
        <ele>431.20001220703</ele>
        <time>2024-11-15T19:06:03.000Z</time>
      </trkpt>
      <trkpt lat="45.863" lon="3.56771">
        <ele>430.60000610352</ele>
        <time>2024-11-15T19:06:04.000Z</time>
      </trkpt>
      <trkpt lat="45.86298" lon="3.56769">
        <ele>430.20001220703</ele>
        <time>2024-11-15T19:06:05.000Z</time>
      </trkpt>
      <trkpt lat="45.86297" lon="3.56767">
        <ele>429.79998779297</ele>
        <time>2024-11-15T19:06:06.000Z</time>
      </trkpt>
      <trkpt lat="45.86296" lon="3.56766">
        <ele>429.60000610352</ele>
        <time>2024-11-15T19:06:07.000Z</time>
      </trkpt>
      <trkpt lat="45.86295" lon="3.56765">
        <ele>429.20001220703</ele>
        <time>2024-11-15T19:06:08.000Z</time>
      </trkpt>
      <trkpt lat="45.86294" lon="3.56763">
        <ele>428.79998779297</ele>
        <time>2024-11-15T19:06:09.000Z</time>
      </trkpt>
      <trkpt lat="45.86293" lon="3.56761">
        <ele>428.20001220703</ele>
        <time>2024-11-15T19:06:10.000Z</time>
      </trkpt>
      <trkpt lat="45.86292" lon="3.56759">
        <ele>428</ele>
        <time>2024-11-15T19:06:11.000Z</time>
      </trkpt>
      <trkpt lat="45.86291" lon="3.56757">
        <ele>427.60000610352</ele>
        <time>2024-11-15T19:06:12.000Z</time>
      </trkpt>
      <trkpt lat="45.86289" lon="3.56756">
        <ele>427.39999389648</ele>
        <time>2024-11-15T19:06:13.000Z</time>
      </trkpt>
      <trkpt lat="45.86288" lon="3.56754">
        <ele>427</ele>
        <time>2024-11-15T19:06:14.000Z</time>
      </trkpt>
      <trkpt lat="45.86287" lon="3.56752">
        <ele>426.60000610352</ele>
        <time>2024-11-15T19:06:15.000Z</time>
      </trkpt>
      <trkpt lat="45.86285" lon="3.5675">
        <ele>425.79998779297</ele>
        <time>2024-11-15T19:06:16.000Z</time>
      </trkpt>
      <trkpt lat="45.86284" lon="3.56747">
        <ele>425</ele>
        <time>2024-11-15T19:06:17.000Z</time>
      </trkpt>
      <trkpt lat="45.86282" lon="3.56745">
        <ele>424.60000610352</ele>
        <time>2024-11-15T19:06:18.000Z</time>
      </trkpt>
      <trkpt lat="45.86281" lon="3.56742">
        <ele>424.20001220703</ele>
        <time>2024-11-15T19:06:19.000Z</time>
      </trkpt>
      <trkpt lat="45.8628" lon="3.56739">
        <ele>423.79998779297</ele>
        <time>2024-11-15T19:06:20.000Z</time>
      </trkpt>
      <trkpt lat="45.8628" lon="3.56737">
        <ele>423.60000610352</ele>
        <time>2024-11-15T19:06:21.000Z</time>
      </trkpt>
      <trkpt lat="45.86279" lon="3.56734">
        <ele>423</ele>
        <time>2024-11-15T19:06:22.000Z</time>
      </trkpt>
      <trkpt lat="45.86278" lon="3.56731">
        <ele>422.39999389648</ele>
        <time>2024-11-15T19:06:23.000Z</time>
      </trkpt>
      <trkpt lat="45.86277" lon="3.56728">
        <ele>422</ele>
        <time>2024-11-15T19:06:24.000Z</time>
      </trkpt>
      <trkpt lat="45.86277" lon="3.56726">
        <ele>421.60000610352</ele>
        <time>2024-11-15T19:06:25.000Z</time>
      </trkpt>
      <trkpt lat="45.86277" lon="3.56723">
        <ele>421.20001220703</ele>
        <time>2024-11-15T19:06:26.000Z</time>
      </trkpt>
      <trkpt lat="45.86277" lon="3.5672">
        <ele>420.79998779297</ele>
        <time>2024-11-15T19:06:27.000Z</time>
      </trkpt>
      <trkpt lat="45.86278" lon="3.56718">
        <ele>420.39999389648</ele>
        <time>2024-11-15T19:06:28.000Z</time>
      </trkpt>
      <trkpt lat="45.86279" lon="3.56716">
        <ele>420.20001220703</ele>
        <time>2024-11-15T19:06:29.000Z</time>
      </trkpt>
      <trkpt lat="45.86279" lon="3.56716">
        <ele>420</ele>
        <time>2024-11-15T19:06:30.000Z</time>
      </trkpt>
      <trkpt lat="45.86278" lon="3.56715">
        <ele>419.60000610352</ele>
        <time>2024-11-15T19:06:31.000Z</time>
      </trkpt>
      <trkpt lat="45.86279" lon="3.56714">
        <ele>419.39999389648</ele>
        <time>2024-11-15T19:06:32.000Z</time>
      </trkpt>
      <trkpt lat="45.86279" lon="3.56712">
        <ele>419.20001220703</ele>
        <time>2024-11-15T19:06:33.000Z</time>
      </trkpt>
      <trkpt lat="45.8628" lon="3.5671">
        <ele>419</ele>
        <time>2024-11-15T19:06:34.000Z</time>
      </trkpt>
      <trkpt lat="45.86281" lon="3.56709">
        <ele>419</ele>
        <time>2024-11-15T19:06:35.000Z</time>
      </trkpt>
      <trkpt lat="45.86282" lon="3.56707">
        <ele>418.79998779297</ele>
        <time>2024-11-15T19:06:36.000Z</time>
      </trkpt>
      <trkpt lat="45.86284" lon="3.56706">
        <ele>418.60000610352</ele>
        <time>2024-11-15T19:06:37.000Z</time>
      </trkpt>
      <trkpt lat="45.86285" lon="3.56705">
        <ele>418.20001220703</ele>
        <time>2024-11-15T19:06:38.000Z</time>
      </trkpt>
      <trkpt lat="45.86287" lon="3.56704">
        <ele>417.60000610352</ele>
        <time>2024-11-15T19:06:39.000Z</time>
      </trkpt>
      <trkpt lat="45.86288" lon="3.56703">
        <ele>417.20001220703</ele>
        <time>2024-11-15T19:06:40.000Z</time>
      </trkpt>
      <trkpt lat="45.8629" lon="3.56703">
        <ele>416.79998779297</ele>
        <time>2024-11-15T19:06:41.000Z</time>
      </trkpt>
      <trkpt lat="45.86291" lon="3.56702">
        <ele>416.20001220703</ele>
        <time>2024-11-15T19:06:42.000Z</time>
      </trkpt>
      <trkpt lat="45.86292" lon="3.56701">
        <ele>415.79998779297</ele>
        <time>2024-11-15T19:06:43.000Z</time>
      </trkpt>
      <trkpt lat="45.86292" lon="3.567">
        <ele>415.39999389648</ele>
        <time>2024-11-15T19:06:44.000Z</time>
      </trkpt>
      <trkpt lat="45.86292" lon="3.56698">
        <ele>414.79998779297</ele>
        <time>2024-11-15T19:06:45.000Z</time>
      </trkpt>
      <trkpt lat="45.86291" lon="3.56697">
        <ele>414.60000610352</ele>
        <time>2024-11-15T19:06:46.000Z</time>
      </trkpt>
      <trkpt lat="45.86289" lon="3.56696">
        <ele>414.20001220703</ele>
        <time>2024-11-15T19:06:47.000Z</time>
      </trkpt>
      <trkpt lat="45.86288" lon="3.56695">
        <ele>413.60000610352</ele>
        <time>2024-11-15T19:06:48.000Z</time>
      </trkpt>
      <trkpt lat="45.86287" lon="3.56693">
        <ele>412.60000610352</ele>
        <time>2024-11-15T19:06:49.000Z</time>
      </trkpt>
      <trkpt lat="45.86286" lon="3.56691">
        <ele>412.39999389648</ele>
        <time>2024-11-15T19:06:50.000Z</time>
      </trkpt>
      <trkpt lat="45.86285" lon="3.56688">
        <ele>411.39999389648</ele>
        <time>2024-11-15T19:06:51.000Z</time>
      </trkpt>
      <trkpt lat="45.86285" lon="3.56685">
        <ele>411</ele>
        <time>2024-11-15T19:06:52.000Z</time>
      </trkpt>
      <trkpt lat="45.86284" lon="3.56682">
        <ele>410.39999389648</ele>
        <time>2024-11-15T19:06:53.000Z</time>
      </trkpt>
      <trkpt lat="45.86284" lon="3.56679">
        <ele>409.79998779297</ele>
        <time>2024-11-15T19:06:54.000Z</time>
      </trkpt>
      <trkpt lat="45.86284" lon="3.56675">
        <ele>409.39999389648</ele>
        <time>2024-11-15T19:06:55.000Z</time>
      </trkpt>
      <trkpt lat="45.86283" lon="3.56672">
        <ele>408.39999389648</ele>
        <time>2024-11-15T19:06:56.000Z</time>
      </trkpt>
      <trkpt lat="45.86283" lon="3.56668">
        <ele>408</ele>
        <time>2024-11-15T19:06:57.000Z</time>
      </trkpt>
      <trkpt lat="45.86283" lon="3.56665">
        <ele>407.39999389648</ele>
        <time>2024-11-15T19:06:58.000Z</time>
      </trkpt>
      <trkpt lat="45.86282" lon="3.56661">
        <ele>407</ele>
        <time>2024-11-15T19:06:59.000Z</time>
      </trkpt>
      <trkpt lat="45.86282" lon="3.56658">
        <ele>406.79998779297</ele>
        <time>2024-11-15T19:07:00.000Z</time>
      </trkpt>
      <trkpt lat="45.86281" lon="3.56654">
        <ele>406.39999389648</ele>
        <time>2024-11-15T19:07:01.000Z</time>
      </trkpt>
      <trkpt lat="45.86281" lon="3.56651">
        <ele>406</ele>
        <time>2024-11-15T19:07:02.000Z</time>
      </trkpt>
      <trkpt lat="45.86282" lon="3.56647">
        <ele>405.79998779297</ele>
        <time>2024-11-15T19:07:03.000Z</time>
      </trkpt>
      <trkpt lat="45.86282" lon="3.56644">
        <ele>405.60000610352</ele>
        <time>2024-11-15T19:07:04.000Z</time>
      </trkpt>
      <trkpt lat="45.86284" lon="3.56642">
        <ele>405.60000610352</ele>
        <time>2024-11-15T19:07:05.000Z</time>
      </trkpt>
      <trkpt lat="45.86285" lon="3.5664">
        <ele>405.39999389648</ele>
        <time>2024-11-15T19:07:06.000Z</time>
      </trkpt>
      <trkpt lat="45.86287" lon="3.56638">
        <ele>405.60000610352</ele>
        <time>2024-11-15T19:07:07.000Z</time>
      </trkpt>
      <trkpt lat="45.86289" lon="3.56637">
        <ele>405.79998779297</ele>
        <time>2024-11-15T19:07:08.000Z</time>
      </trkpt>
      <trkpt lat="45.86291" lon="3.56636">
        <ele>405.79998779297</ele>
        <time>2024-11-15T19:07:09.000Z</time>
      </trkpt>
      <trkpt lat="45.86293" lon="3.56635">
        <ele>406.39999389648</ele>
        <time>2024-11-15T19:07:10.000Z</time>
      </trkpt>
      <trkpt lat="45.86295" lon="3.56635">
        <ele>407</ele>
        <time>2024-11-15T19:07:11.000Z</time>
      </trkpt>
      <trkpt lat="45.86297" lon="3.56635">
        <ele>407.20001220703</ele>
        <time>2024-11-15T19:07:12.000Z</time>
      </trkpt>
      <trkpt lat="45.86299" lon="3.56635">
        <ele>407.20001220703</ele>
        <time>2024-11-15T19:07:13.000Z</time>
      </trkpt>
      <trkpt lat="45.86301" lon="3.56636">
        <ele>407.20001220703</ele>
        <time>2024-11-15T19:07:14.000Z</time>
      </trkpt>
      <trkpt lat="45.86302" lon="3.56635">
        <ele>407.20001220703</ele>
        <time>2024-11-15T19:07:15.000Z</time>
      </trkpt>
      <trkpt lat="45.86304" lon="3.56636">
        <ele>407.39999389648</ele>
        <time>2024-11-15T19:07:16.000Z</time>
      </trkpt>
      <trkpt lat="45.86305" lon="3.56636">
        <ele>407.39999389648</ele>
        <time>2024-11-15T19:07:17.000Z</time>
      </trkpt>
      <trkpt lat="45.86306" lon="3.56636">
        <ele>407.39999389648</ele>
        <time>2024-11-15T19:07:18.000Z</time>
      </trkpt>
      <trkpt lat="45.86307" lon="3.56636">
        <ele>407.79998779297</ele>
        <time>2024-11-15T19:07:19.000Z</time>
      </trkpt>
      <trkpt lat="45.86307" lon="3.56636">
        <ele>408.20001220703</ele>
        <time>2024-11-15T19:07:20.000Z</time>
      </trkpt>
      <trkpt lat="45.86308" lon="3.56636">
        <ele>408.60000610352</ele>
        <time>2024-11-15T19:07:21.000Z</time>
      </trkpt>
      <trkpt lat="45.86308" lon="3.56636">
        <ele>409.20001220703</ele>
        <time>2024-11-15T19:07:22.000Z</time>
      </trkpt>
      <trkpt lat="45.86308" lon="3.56635">
        <ele>409.60000610352</ele>
        <time>2024-11-15T19:07:23.000Z</time>
      </trkpt>
      <trkpt lat="45.86308" lon="3.56635">
        <ele>409.79998779297</ele>
        <time>2024-11-15T19:07:24.000Z</time>
      </trkpt>
      <trkpt lat="45.86308" lon="3.56634">
        <ele>410</ele>
        <time>2024-11-15T19:07:25.000Z</time>
      </trkpt>
      <trkpt lat="45.86309" lon="3.56633">
        <ele>410.60000610352</ele>
        <time>2024-11-15T19:07:26.000Z</time>
      </trkpt>
      <trkpt lat="45.86309" lon="3.56633">
        <ele>411</ele>
        <time>2024-11-15T19:07:27.000Z</time>
      </trkpt>
      <trkpt lat="45.8631" lon="3.56632">
        <ele>411.39999389648</ele>
        <time>2024-11-15T19:07:28.000Z</time>
      </trkpt>
      <trkpt lat="45.8631" lon="3.56632">
        <ele>411.60000610352</ele>
        <time>2024-11-15T19:07:29.000Z</time>
      </trkpt>
      <trkpt lat="45.8631" lon="3.56633">
        <ele>411.79998779297</ele>
        <time>2024-11-15T19:07:30.000Z</time>
      </trkpt>
      <trkpt lat="45.86311" lon="3.56632">
        <ele>412.20001220703</ele>
        <time>2024-11-15T19:07:31.000Z</time>
      </trkpt>
      <trkpt lat="45.86311" lon="3.56632">
        <ele>412.79998779297</ele>
        <time>2024-11-15T19:07:32.000Z</time>
      </trkpt>
      <trkpt lat="45.86311" lon="3.56632">
        <ele>413.20001220703</ele>
        <time>2024-11-15T19:07:33.000Z</time>
      </trkpt>
      <trkpt lat="45.86312" lon="3.56632">
        <ele>413.60000610352</ele>
        <time>2024-11-15T19:07:34.000Z</time>
      </trkpt>
      <trkpt lat="45.86312" lon="3.56631">
        <ele>414</ele>
        <time>2024-11-15T19:07:35.000Z</time>
      </trkpt>
      <trkpt lat="45.86312" lon="3.5663">
        <ele>414.39999389648</ele>
        <time>2024-11-15T19:07:36.000Z</time>
      </trkpt>
      <trkpt lat="45.86312" lon="3.5663">
        <ele>414.79998779297</ele>
        <time>2024-11-15T19:07:37.000Z</time>
      </trkpt>
      <trkpt lat="45.86312" lon="3.56629">
        <ele>415</ele>
        <time>2024-11-15T19:07:38.000Z</time>
      </trkpt>
      <trkpt lat="45.86312" lon="3.56628">
        <ele>415.20001220703</ele>
        <time>2024-11-15T19:07:39.000Z</time>
      </trkpt>
      <trkpt lat="45.86312" lon="3.56628">
        <ele>415.39999389648</ele>
        <time>2024-11-15T19:07:40.000Z</time>
      </trkpt>
      <trkpt lat="45.86313" lon="3.56627">
        <ele>415.60000610352</ele>
        <time>2024-11-15T19:07:41.000Z</time>
      </trkpt>
      <trkpt lat="45.86313" lon="3.56627">
        <ele>416</ele>
        <time>2024-11-15T19:07:42.000Z</time>
      </trkpt>
      <trkpt lat="45.86313" lon="3.56626">
        <ele>416.20001220703</ele>
        <time>2024-11-15T19:07:43.000Z</time>
      </trkpt>
      <trkpt lat="45.86313" lon="3.56626">
        <ele>416.39999389648</ele>
        <time>2024-11-15T19:07:44.000Z</time>
      </trkpt>
      <trkpt lat="45.86313" lon="3.56625">
        <ele>416.60000610352</ele>
        <time>2024-11-15T19:07:45.000Z</time>
      </trkpt>
      <trkpt lat="45.86313" lon="3.56625">
        <ele>416.79998779297</ele>
        <time>2024-11-15T19:07:46.000Z</time>
      </trkpt>
      <trkpt lat="45.86313" lon="3.56625">
        <ele>417</ele>
        <time>2024-11-15T19:07:47.000Z</time>
      </trkpt>
      <trkpt lat="45.86313" lon="3.56625">
        <ele>417</ele>
        <time>2024-11-15T19:07:48.000Z</time>
      </trkpt>
      <trkpt lat="45.86313" lon="3.56625">
        <ele>417.39999389648</ele>
        <time>2024-11-15T19:07:49.000Z</time>
      </trkpt>
      <trkpt lat="45.86313" lon="3.56624">
        <ele>417.60000610352</ele>
        <time>2024-11-15T19:07:50.000Z</time>
      </trkpt>
      <trkpt lat="45.86313" lon="3.56624">
        <ele>418.20001220703</ele>
        <time>2024-11-15T19:07:51.000Z</time>
      </trkpt>
      <trkpt lat="45.86313" lon="3.56624">
        <ele>418.20001220703</ele>
        <time>2024-11-15T19:07:52.000Z</time>
      </trkpt>
      <trkpt lat="45.86313" lon="3.56624">
        <ele>418.20001220703</ele>
        <time>2024-11-15T19:07:53.000Z</time>
      </trkpt>
      <trkpt lat="45.86313" lon="3.56624">
        <ele>418.20001220703</ele>
        <time>2024-11-15T19:07:54.000Z</time>
      </trkpt>
      <trkpt lat="45.86313" lon="3.56624">
        <ele>418.60000610352</ele>
        <time>2024-11-15T19:07:55.000Z</time>
      </trkpt>
      <trkpt lat="45.86312" lon="3.56624">
        <ele>418.79998779297</ele>
        <time>2024-11-15T19:07:56.000Z</time>
      </trkpt>
      <trkpt lat="45.86312" lon="3.56623">
        <ele>419</ele>
        <time>2024-11-15T19:07:57.000Z</time>
      </trkpt>
      <trkpt lat="45.86312" lon="3.56623">
        <ele>419</ele>
        <time>2024-11-15T19:07:58.000Z</time>
      </trkpt>
      <trkpt lat="45.86312" lon="3.56622">
        <ele>419.39999389648</ele>
        <time>2024-11-15T19:07:59.000Z</time>
      </trkpt>
      <trkpt lat="45.86311" lon="3.56622">
        <ele>419.60000610352</ele>
        <time>2024-11-15T19:08:00.000Z</time>
      </trkpt>
      <trkpt lat="45.86311" lon="3.56622">
        <ele>419.79998779297</ele>
        <time>2024-11-15T19:08:01.000Z</time>
      </trkpt>
      <trkpt lat="45.86311" lon="3.56622">
        <ele>419.79998779297</ele>
        <time>2024-11-15T19:08:02.000Z</time>
      </trkpt>
      <trkpt lat="45.86311" lon="3.56622">
        <ele>420</ele>
        <time>2024-11-15T19:08:03.000Z</time>
      </trkpt>
      <trkpt lat="45.86311" lon="3.56621">
        <ele>420.20001220703</ele>
        <time>2024-11-15T19:08:04.000Z</time>
      </trkpt>
      <trkpt lat="45.8631" lon="3.56621">
        <ele>420.20001220703</ele>
        <time>2024-11-15T19:08:05.000Z</time>
      </trkpt>
      <trkpt lat="45.8631" lon="3.5662">
        <ele>420.20001220703</ele>
        <time>2024-11-15T19:08:06.000Z</time>
      </trkpt>
      <trkpt lat="45.8631" lon="3.56619">
        <ele>420.20001220703</ele>
        <time>2024-11-15T19:08:07.000Z</time>
      </trkpt>
      <trkpt lat="45.86309" lon="3.56619">
        <ele>420.60000610352</ele>
        <time>2024-11-15T19:08:08.000Z</time>
      </trkpt>
      <trkpt lat="45.86309" lon="3.56619">
        <ele>421</ele>
        <time>2024-11-15T19:08:09.000Z</time>
      </trkpt>
      <trkpt lat="45.86308" lon="3.56619">
        <ele>421.20001220703</ele>
        <time>2024-11-15T19:08:10.000Z</time>
      </trkpt>
      <trkpt lat="45.86308" lon="3.5662">
        <ele>421.20001220703</ele>
        <time>2024-11-15T19:08:11.000Z</time>
      </trkpt>
      <trkpt lat="45.86307" lon="3.5662">
        <ele>421.20001220703</ele>
        <time>2024-11-15T19:08:12.000Z</time>
      </trkpt>
      <trkpt lat="45.86306" lon="3.5662">
        <ele>421.39999389648</ele>
        <time>2024-11-15T19:08:13.000Z</time>
      </trkpt>
      <trkpt lat="45.86306" lon="3.5662">
        <ele>421.79998779297</ele>
        <time>2024-11-15T19:08:14.000Z</time>
      </trkpt>
      <trkpt lat="45.86305" lon="3.5662">
        <ele>421.79998779297</ele>
        <time>2024-11-15T19:08:15.000Z</time>
      </trkpt>
      <trkpt lat="45.86304" lon="3.5662">
        <ele>422.20001220703</ele>
        <time>2024-11-15T19:08:16.000Z</time>
      </trkpt>
      <trkpt lat="45.86303" lon="3.5662">
        <ele>422.39999389648</ele>
        <time>2024-11-15T19:08:17.000Z</time>
      </trkpt>
      <trkpt lat="45.86302" lon="3.56619">
        <ele>422.20001220703</ele>
        <time>2024-11-15T19:08:18.000Z</time>
      </trkpt>
      <trkpt lat="45.86301" lon="3.56619">
        <ele>422.20001220703</ele>
        <time>2024-11-15T19:08:19.000Z</time>
      </trkpt>
      <trkpt lat="45.863" lon="3.56618">
        <ele>422.20001220703</ele>
        <time>2024-11-15T19:08:20.000Z</time>
      </trkpt>
      <trkpt lat="45.863" lon="3.56617">
        <ele>422.20001220703</ele>
        <time>2024-11-15T19:08:21.000Z</time>
      </trkpt>
      <trkpt lat="45.86299" lon="3.56617">
        <ele>422.20001220703</ele>
        <time>2024-11-15T19:08:22.000Z</time>
      </trkpt>
      <trkpt lat="45.86298" lon="3.56616">
        <ele>422.20001220703</ele>
        <time>2024-11-15T19:08:23.000Z</time>
      </trkpt>
      <trkpt lat="45.86297" lon="3.56616">
        <ele>422.39999389648</ele>
        <time>2024-11-15T19:08:24.000Z</time>
      </trkpt>
      <trkpt lat="45.86296" lon="3.56616">
        <ele>422.39999389648</ele>
        <time>2024-11-15T19:08:25.000Z</time>
      </trkpt>
      <trkpt lat="45.86295" lon="3.56615">
        <ele>422.39999389648</ele>
        <time>2024-11-15T19:08:26.000Z</time>
      </trkpt>
      <trkpt lat="45.86294" lon="3.56615">
        <ele>422.39999389648</ele>
        <time>2024-11-15T19:08:27.000Z</time>
      </trkpt>
      <trkpt lat="45.86294" lon="3.56615">
        <ele>422.60000610352</ele>
        <time>2024-11-15T19:08:28.000Z</time>
      </trkpt>
      <trkpt lat="45.86293" lon="3.56615">
        <ele>422.60000610352</ele>
        <time>2024-11-15T19:08:29.000Z</time>
      </trkpt>
      <trkpt lat="45.86293" lon="3.56615">
        <ele>422.60000610352</ele>
        <time>2024-11-15T19:08:30.000Z</time>
      </trkpt>
      <trkpt lat="45.86292" lon="3.56616">
        <ele>422.60000610352</ele>
        <time>2024-11-15T19:08:31.000Z</time>
      </trkpt>
      <trkpt lat="45.86291" lon="3.56616">
        <ele>422.79998779297</ele>
        <time>2024-11-15T19:08:32.000Z</time>
      </trkpt>
      <trkpt lat="45.86291" lon="3.56616">
        <ele>423.20001220703</ele>
        <time>2024-11-15T19:08:33.000Z</time>
      </trkpt>
      <trkpt lat="45.8629" lon="3.56616">
        <ele>423.39999389648</ele>
        <time>2024-11-15T19:08:34.000Z</time>
      </trkpt>
      <trkpt lat="45.8629" lon="3.56616">
        <ele>423.60000610352</ele>
        <time>2024-11-15T19:08:35.000Z</time>
      </trkpt>
      <trkpt lat="45.86289" lon="3.56616">
        <ele>423.60000610352</ele>
        <time>2024-11-15T19:08:36.000Z</time>
      </trkpt>
      <trkpt lat="45.86288" lon="3.56616">
        <ele>423.79998779297</ele>
        <time>2024-11-15T19:08:37.000Z</time>
      </trkpt>
      <trkpt lat="45.86287" lon="3.56615">
        <ele>424</ele>
        <time>2024-11-15T19:08:38.000Z</time>
      </trkpt>
      <trkpt lat="45.86286" lon="3.56615">
        <ele>424.20001220703</ele>
        <time>2024-11-15T19:08:39.000Z</time>
      </trkpt>
      <trkpt lat="45.86286" lon="3.56615">
        <ele>424.60000610352</ele>
        <time>2024-11-15T19:08:40.000Z</time>
      </trkpt>
      <trkpt lat="45.86285" lon="3.56615">
        <ele>424.79998779297</ele>
        <time>2024-11-15T19:08:41.000Z</time>
      </trkpt>
      <trkpt lat="45.86284" lon="3.56614">
        <ele>425.20001220703</ele>
        <time>2024-11-15T19:08:42.000Z</time>
      </trkpt>
      <trkpt lat="45.86283" lon="3.56614">
        <ele>425.60000610352</ele>
        <time>2024-11-15T19:08:43.000Z</time>
      </trkpt>
      <trkpt lat="45.86282" lon="3.56614">
        <ele>425.79998779297</ele>
        <time>2024-11-15T19:08:44.000Z</time>
      </trkpt>
      <trkpt lat="45.86282" lon="3.56614">
        <ele>426</ele>
        <time>2024-11-15T19:08:45.000Z</time>
      </trkpt>
      <trkpt lat="45.86281" lon="3.56614">
        <ele>426</ele>
        <time>2024-11-15T19:08:46.000Z</time>
      </trkpt>
      <trkpt lat="45.8628" lon="3.56614">
        <ele>426</ele>
        <time>2024-11-15T19:08:47.000Z</time>
      </trkpt>
      <trkpt lat="45.86279" lon="3.56614">
        <ele>426.20001220703</ele>
        <time>2024-11-15T19:08:48.000Z</time>
      </trkpt>
      <trkpt lat="45.86279" lon="3.56614">
        <ele>426.39999389648</ele>
        <time>2024-11-15T19:08:49.000Z</time>
      </trkpt>
      <trkpt lat="45.86278" lon="3.56614">
        <ele>426.39999389648</ele>
        <time>2024-11-15T19:08:50.000Z</time>
      </trkpt>
      <trkpt lat="45.86277" lon="3.56614">
        <ele>426.79998779297</ele>
        <time>2024-11-15T19:08:51.000Z</time>
      </trkpt>
      <trkpt lat="45.86276" lon="3.56615">
        <ele>426.79998779297</ele>
        <time>2024-11-15T19:08:52.000Z</time>
      </trkpt>
      <trkpt lat="45.86275" lon="3.56615">
        <ele>427</ele>
        <time>2024-11-15T19:08:53.000Z</time>
      </trkpt>
      <trkpt lat="45.86274" lon="3.56616">
        <ele>427</ele>
        <time>2024-11-15T19:08:54.000Z</time>
      </trkpt>
      <trkpt lat="45.86274" lon="3.56615">
        <ele>427</ele>
        <time>2024-11-15T19:08:55.000Z</time>
      </trkpt>
      <trkpt lat="45.86273" lon="3.56615">
        <ele>427</ele>
        <time>2024-11-15T19:08:56.000Z</time>
      </trkpt>
      <trkpt lat="45.86272" lon="3.56615">
        <ele>427</ele>
        <time>2024-11-15T19:08:57.000Z</time>
      </trkpt>
      <trkpt lat="45.86271" lon="3.56614">
        <ele>427</ele>
        <time>2024-11-15T19:08:58.000Z</time>
      </trkpt>
      <trkpt lat="45.8627" lon="3.56613">
        <ele>427</ele>
        <time>2024-11-15T19:08:59.000Z</time>
      </trkpt>
      <trkpt lat="45.86269" lon="3.56613">
        <ele>426.79998779297</ele>
        <time>2024-11-15T19:09:00.000Z</time>
      </trkpt>
      <trkpt lat="45.86268" lon="3.56612">
        <ele>426.79998779297</ele>
        <time>2024-11-15T19:09:01.000Z</time>
      </trkpt>
      <trkpt lat="45.86268" lon="3.56611">
        <ele>426.60000610352</ele>
        <time>2024-11-15T19:09:02.000Z</time>
      </trkpt>
      <trkpt lat="45.86267" lon="3.5661">
        <ele>426.60000610352</ele>
        <time>2024-11-15T19:09:03.000Z</time>
      </trkpt>
      <trkpt lat="45.86266" lon="3.56609">
        <ele>426.79998779297</ele>
        <time>2024-11-15T19:09:04.000Z</time>
      </trkpt>
      <trkpt lat="45.86266" lon="3.56609">
        <ele>426.79998779297</ele>
        <time>2024-11-15T19:09:05.000Z</time>
      </trkpt>
      <trkpt lat="45.86265" lon="3.56608">
        <ele>426.79998779297</ele>
        <time>2024-11-15T19:09:06.000Z</time>
      </trkpt>
      <trkpt lat="45.86265" lon="3.56607">
        <ele>427</ele>
        <time>2024-11-15T19:09:07.000Z</time>
      </trkpt>
      <trkpt lat="45.86265" lon="3.56606">
        <ele>427.20001220703</ele>
        <time>2024-11-15T19:09:08.000Z</time>
      </trkpt>
      <trkpt lat="45.86265" lon="3.56605">
        <ele>427.60000610352</ele>
        <time>2024-11-15T19:09:09.000Z</time>
      </trkpt>
      <trkpt lat="45.86265" lon="3.56603">
        <ele>427.79998779297</ele>
        <time>2024-11-15T19:09:10.000Z</time>
      </trkpt>
      <trkpt lat="45.86265" lon="3.56602">
        <ele>428</ele>
        <time>2024-11-15T19:09:11.000Z</time>
      </trkpt>
      <trkpt lat="45.86264" lon="3.56601">
        <ele>428.39999389648</ele>
        <time>2024-11-15T19:09:12.000Z</time>
      </trkpt>
      <trkpt lat="45.86264" lon="3.56599">
        <ele>428.60000610352</ele>
        <time>2024-11-15T19:09:13.000Z</time>
      </trkpt>
      <trkpt lat="45.86264" lon="3.56598">
        <ele>429</ele>
        <time>2024-11-15T19:09:14.000Z</time>
      </trkpt>
      <trkpt lat="45.86264" lon="3.56597">
        <ele>429.20001220703</ele>
        <time>2024-11-15T19:09:15.000Z</time>
      </trkpt>
      <trkpt lat="45.86264" lon="3.56595">
        <ele>429.39999389648</ele>
        <time>2024-11-15T19:09:16.000Z</time>
      </trkpt>
      <trkpt lat="45.86264" lon="3.56594">
        <ele>429.60000610352</ele>
        <time>2024-11-15T19:09:17.000Z</time>
      </trkpt>
      <trkpt lat="45.86264" lon="3.56594">
        <ele>429.79998779297</ele>
        <time>2024-11-15T19:09:18.000Z</time>
      </trkpt>
      <trkpt lat="45.86264" lon="3.56593">
        <ele>430</ele>
        <time>2024-11-15T19:09:19.000Z</time>
      </trkpt>
      <trkpt lat="45.86263" lon="3.56593">
        <ele>430.20001220703</ele>
        <time>2024-11-15T19:09:20.000Z</time>
      </trkpt>
      <trkpt lat="45.86263" lon="3.56592">
        <ele>430.39999389648</ele>
        <time>2024-11-15T19:09:21.000Z</time>
      </trkpt>
      <trkpt lat="45.86262" lon="3.56592">
        <ele>430.60000610352</ele>
        <time>2024-11-15T19:09:22.000Z</time>
      </trkpt>
      <trkpt lat="45.86262" lon="3.56592">
        <ele>430.60000610352</ele>
        <time>2024-11-15T19:09:23.000Z</time>
      </trkpt>
      <trkpt lat="45.86262" lon="3.56592">
        <ele>430.79998779297</ele>
        <time>2024-11-15T19:09:24.000Z</time>
      </trkpt>
      <trkpt lat="45.86262" lon="3.56592">
        <ele>431.20001220703</ele>
        <time>2024-11-15T19:09:25.000Z</time>
      </trkpt>
      <trkpt lat="45.86261" lon="3.56592">
        <ele>431.39999389648</ele>
        <time>2024-11-15T19:09:26.000Z</time>
      </trkpt>
      <trkpt lat="45.86261" lon="3.56593">
        <ele>432</ele>
        <time>2024-11-15T19:09:27.000Z</time>
      </trkpt>
      <trkpt lat="45.8626" lon="3.56593">
        <ele>432.20001220703</ele>
        <time>2024-11-15T19:09:28.000Z</time>
      </trkpt>
      <trkpt lat="45.8626" lon="3.56594">
        <ele>432.20001220703</ele>
        <time>2024-11-15T19:09:29.000Z</time>
      </trkpt>
      <trkpt lat="45.8626" lon="3.56594">
        <ele>432.39999389648</ele>
        <time>2024-11-15T19:09:30.000Z</time>
      </trkpt>
      <trkpt lat="45.86259" lon="3.56594">
        <ele>432.60000610352</ele>
        <time>2024-11-15T19:09:31.000Z</time>
      </trkpt>
      <trkpt lat="45.86258" lon="3.56595">
        <ele>432.79998779297</ele>
        <time>2024-11-15T19:09:32.000Z</time>
      </trkpt>
      <trkpt lat="45.86258" lon="3.56595">
        <ele>433</ele>
        <time>2024-11-15T19:09:33.000Z</time>
      </trkpt>
      <trkpt lat="45.86257" lon="3.56594">
        <ele>433.20001220703</ele>
        <time>2024-11-15T19:09:34.000Z</time>
      </trkpt>
      <trkpt lat="45.86257" lon="3.56594">
        <ele>433.60000610352</ele>
        <time>2024-11-15T19:09:35.000Z</time>
      </trkpt>
      <trkpt lat="45.86256" lon="3.56594">
        <ele>433.79998779297</ele>
        <time>2024-11-15T19:09:36.000Z</time>
      </trkpt>
      <trkpt lat="45.86256" lon="3.56594">
        <ele>434.39999389648</ele>
        <time>2024-11-15T19:09:37.000Z</time>
      </trkpt>
      <trkpt lat="45.86255" lon="3.56594">
        <ele>434.60000610352</ele>
        <time>2024-11-15T19:09:38.000Z</time>
      </trkpt>
      <trkpt lat="45.86255" lon="3.56593">
        <ele>434.79998779297</ele>
        <time>2024-11-15T19:09:39.000Z</time>
      </trkpt>
      <trkpt lat="45.86255" lon="3.56594">
        <ele>435</ele>
        <time>2024-11-15T19:09:40.000Z</time>
      </trkpt>
      <trkpt lat="45.86255" lon="3.56594">
        <ele>435.20001220703</ele>
        <time>2024-11-15T19:09:41.000Z</time>
      </trkpt>
      <trkpt lat="45.86255" lon="3.56594">
        <ele>435.20001220703</ele>
        <time>2024-11-15T19:09:42.000Z</time>
      </trkpt>
      <trkpt lat="45.86255" lon="3.56594">
        <ele>435.39999389648</ele>
        <time>2024-11-15T19:09:43.000Z</time>
      </trkpt>
      <trkpt lat="45.86254" lon="3.56594">
        <ele>435.60000610352</ele>
        <time>2024-11-15T19:09:44.000Z</time>
      </trkpt>
      <trkpt lat="45.86254" lon="3.56594">
        <ele>435.60000610352</ele>
        <time>2024-11-15T19:09:45.000Z</time>
      </trkpt>
      <trkpt lat="45.86254" lon="3.56594">
        <ele>435.60000610352</ele>
        <time>2024-11-15T19:09:46.000Z</time>
      </trkpt>
      <trkpt lat="45.86254" lon="3.56594">
        <ele>435.79998779297</ele>
        <time>2024-11-15T19:09:47.000Z</time>
      </trkpt>
      <trkpt lat="45.86254" lon="3.56594">
        <ele>435.79998779297</ele>
        <time>2024-11-15T19:09:48.000Z</time>
      </trkpt>
      <trkpt lat="45.86254" lon="3.56594">
        <ele>435.79998779297</ele>
        <time>2024-11-15T19:09:49.000Z</time>
      </trkpt>
      <trkpt lat="45.86253" lon="3.56594">
        <ele>435.79998779297</ele>
        <time>2024-11-15T19:09:50.000Z</time>
      </trkpt>
      <trkpt lat="45.86252" lon="3.56594">
        <ele>435.79998779297</ele>
        <time>2024-11-15T19:09:51.000Z</time>
      </trkpt>
      <trkpt lat="45.86251" lon="3.56594">
        <ele>435.79998779297</ele>
        <time>2024-11-15T19:09:52.000Z</time>
      </trkpt>
      <trkpt lat="45.86251" lon="3.56595">
        <ele>436</ele>
        <time>2024-11-15T19:09:53.000Z</time>
      </trkpt>
      <trkpt lat="45.8625" lon="3.56595">
        <ele>436.20001220703</ele>
        <time>2024-11-15T19:09:54.000Z</time>
      </trkpt>
      <trkpt lat="45.8625" lon="3.56595">
        <ele>436.39999389648</ele>
        <time>2024-11-15T19:09:55.000Z</time>
      </trkpt>
      <trkpt lat="45.86249" lon="3.56595">
        <ele>437</ele>
        <time>2024-11-15T19:09:56.000Z</time>
      </trkpt>
      <trkpt lat="45.86249" lon="3.56595">
        <ele>437.39999389648</ele>
        <time>2024-11-15T19:09:57.000Z</time>
      </trkpt>
      <trkpt lat="45.86249" lon="3.56595">
        <ele>437.60000610352</ele>
        <time>2024-11-15T19:09:58.000Z</time>
      </trkpt>
      <trkpt lat="45.86249" lon="3.56596">
        <ele>437.79998779297</ele>
        <time>2024-11-15T19:09:59.000Z</time>
      </trkpt>
      <trkpt lat="45.86248" lon="3.56596">
        <ele>437.79998779297</ele>
        <time>2024-11-15T19:10:00.000Z</time>
      </trkpt>
      <trkpt lat="45.86248" lon="3.56596">
        <ele>437.79998779297</ele>
        <time>2024-11-15T19:10:01.000Z</time>
      </trkpt>
      <trkpt lat="45.86247" lon="3.56596">
        <ele>438</ele>
        <time>2024-11-15T19:10:02.000Z</time>
      </trkpt>
      <trkpt lat="45.86247" lon="3.56596">
        <ele>438</ele>
        <time>2024-11-15T19:10:03.000Z</time>
      </trkpt>
      <trkpt lat="45.86246" lon="3.56597">
        <ele>438.20001220703</ele>
        <time>2024-11-15T19:10:04.000Z</time>
      </trkpt>
      <trkpt lat="45.86245" lon="3.56597">
        <ele>438.20001220703</ele>
        <time>2024-11-15T19:10:05.000Z</time>
      </trkpt>
      <trkpt lat="45.86245" lon="3.56597">
        <ele>438.39999389648</ele>
        <time>2024-11-15T19:10:06.000Z</time>
      </trkpt>
      <trkpt lat="45.86245" lon="3.56597">
        <ele>438.60000610352</ele>
        <time>2024-11-15T19:10:07.000Z</time>
      </trkpt>
      <trkpt lat="45.86244" lon="3.56597">
        <ele>438.79998779297</ele>
        <time>2024-11-15T19:10:08.000Z</time>
      </trkpt>
      <trkpt lat="45.86244" lon="3.56596">
        <ele>439</ele>
        <time>2024-11-15T19:10:09.000Z</time>
      </trkpt>
      <trkpt lat="45.86243" lon="3.56596">
        <ele>439.20001220703</ele>
        <time>2024-11-15T19:10:10.000Z</time>
      </trkpt>
      <trkpt lat="45.86243" lon="3.56596">
        <ele>439.39999389648</ele>
        <time>2024-11-15T19:10:11.000Z</time>
      </trkpt>
      <trkpt lat="45.86242" lon="3.56595">
        <ele>439.39999389648</ele>
        <time>2024-11-15T19:10:12.000Z</time>
      </trkpt>
      <trkpt lat="45.86242" lon="3.56595">
        <ele>439.60000610352</ele>
        <time>2024-11-15T19:10:13.000Z</time>
      </trkpt>
      <trkpt lat="45.86242" lon="3.56595">
        <ele>439.79998779297</ele>
        <time>2024-11-15T19:10:14.000Z</time>
      </trkpt>
      <trkpt lat="45.86241" lon="3.56594">
        <ele>440</ele>
        <time>2024-11-15T19:10:15.000Z</time>
      </trkpt>
      <trkpt lat="45.86241" lon="3.56594">
        <ele>440</ele>
        <time>2024-11-15T19:10:16.000Z</time>
      </trkpt>
      <trkpt lat="45.8624" lon="3.56594">
        <ele>440.20001220703</ele>
        <time>2024-11-15T19:10:17.000Z</time>
      </trkpt>
      <trkpt lat="45.86239" lon="3.56593">
        <ele>440.20001220703</ele>
        <time>2024-11-15T19:10:18.000Z</time>
      </trkpt>
      <trkpt lat="45.86239" lon="3.56593">
        <ele>440.60000610352</ele>
        <time>2024-11-15T19:10:19.000Z</time>
      </trkpt>
      <trkpt lat="45.86239" lon="3.56593">
        <ele>440.79998779297</ele>
        <time>2024-11-15T19:10:20.000Z</time>
      </trkpt>
      <trkpt lat="45.86238" lon="3.56593">
        <ele>441</ele>
        <time>2024-11-15T19:10:21.000Z</time>
      </trkpt>
      <trkpt lat="45.86238" lon="3.56594">
        <ele>441</ele>
        <time>2024-11-15T19:10:22.000Z</time>
      </trkpt>
      <trkpt lat="45.86237" lon="3.56594">
        <ele>441.39999389648</ele>
        <time>2024-11-15T19:10:23.000Z</time>
      </trkpt>
      <trkpt lat="45.86237" lon="3.56595">
        <ele>441.79998779297</ele>
        <time>2024-11-15T19:10:24.000Z</time>
      </trkpt>
      <trkpt lat="45.86237" lon="3.56595">
        <ele>441.79998779297</ele>
        <time>2024-11-15T19:10:25.000Z</time>
      </trkpt>
      <trkpt lat="45.86237" lon="3.56595">
        <ele>442</ele>
        <time>2024-11-15T19:10:26.000Z</time>
      </trkpt>
      <trkpt lat="45.86236" lon="3.56596">
        <ele>442.20001220703</ele>
        <time>2024-11-15T19:10:27.000Z</time>
      </trkpt>
      <trkpt lat="45.86236" lon="3.56596">
        <ele>442.39999389648</ele>
        <time>2024-11-15T19:10:28.000Z</time>
      </trkpt>
      <trkpt lat="45.86236" lon="3.56597">
        <ele>442.60000610352</ele>
        <time>2024-11-15T19:10:29.000Z</time>
      </trkpt>
      <trkpt lat="45.86236" lon="3.56597">
        <ele>442.79998779297</ele>
        <time>2024-11-15T19:10:30.000Z</time>
      </trkpt>
      <trkpt lat="45.86236" lon="3.56598">
        <ele>443</ele>
        <time>2024-11-15T19:10:31.000Z</time>
      </trkpt>
      <trkpt lat="45.86235" lon="3.56598">
        <ele>443.20001220703</ele>
        <time>2024-11-15T19:10:32.000Z</time>
      </trkpt>
      <trkpt lat="45.86235" lon="3.56599">
        <ele>443.20001220703</ele>
        <time>2024-11-15T19:10:33.000Z</time>
      </trkpt>
      <trkpt lat="45.86235" lon="3.56599">
        <ele>443.39999389648</ele>
        <time>2024-11-15T19:10:34.000Z</time>
      </trkpt>
      <trkpt lat="45.86234" lon="3.566">
        <ele>443.60000610352</ele>
        <time>2024-11-15T19:10:35.000Z</time>
      </trkpt>
      <trkpt lat="45.86234" lon="3.566">
        <ele>443.79998779297</ele>
        <time>2024-11-15T19:10:36.000Z</time>
      </trkpt>
      <trkpt lat="45.86234" lon="3.56601">
        <ele>444</ele>
        <time>2024-11-15T19:10:37.000Z</time>
      </trkpt>
      <trkpt lat="45.86234" lon="3.56601">
        <ele>444.20001220703</ele>
        <time>2024-11-15T19:10:38.000Z</time>
      </trkpt>
      <trkpt lat="45.86234" lon="3.56602">
        <ele>444.39999389648</ele>
        <time>2024-11-15T19:10:39.000Z</time>
      </trkpt>
      <trkpt lat="45.86234" lon="3.56603">
        <ele>444.60000610352</ele>
        <time>2024-11-15T19:10:40.000Z</time>
      </trkpt>
      <trkpt lat="45.86234" lon="3.56603">
        <ele>444.60000610352</ele>
        <time>2024-11-15T19:10:41.000Z</time>
      </trkpt>
      <trkpt lat="45.86233" lon="3.56604">
        <ele>444.79998779297</ele>
        <time>2024-11-15T19:10:42.000Z</time>
      </trkpt>
      <trkpt lat="45.86233" lon="3.56605">
        <ele>445</ele>
        <time>2024-11-15T19:10:43.000Z</time>
      </trkpt>
      <trkpt lat="45.86233" lon="3.56606">
        <ele>445.20001220703</ele>
        <time>2024-11-15T19:10:44.000Z</time>
      </trkpt>
      <trkpt lat="45.86232" lon="3.56607">
        <ele>445.20001220703</ele>
        <time>2024-11-15T19:10:45.000Z</time>
      </trkpt>
      <trkpt lat="45.86232" lon="3.56607">
        <ele>445.60000610352</ele>
        <time>2024-11-15T19:10:46.000Z</time>
      </trkpt>
      <trkpt lat="45.86231" lon="3.56608">
        <ele>445.79998779297</ele>
        <time>2024-11-15T19:10:47.000Z</time>
      </trkpt>
      <trkpt lat="45.86231" lon="3.56609">
        <ele>446</ele>
        <time>2024-11-15T19:10:48.000Z</time>
      </trkpt>
      <trkpt lat="45.86231" lon="3.56609">
        <ele>446.20001220703</ele>
        <time>2024-11-15T19:10:49.000Z</time>
      </trkpt>
      <trkpt lat="45.8623" lon="3.5661">
        <ele>446.39999389648</ele>
        <time>2024-11-15T19:10:50.000Z</time>
      </trkpt>
      <trkpt lat="45.8623" lon="3.56611">
        <ele>446.60000610352</ele>
        <time>2024-11-15T19:10:51.000Z</time>
      </trkpt>
      <trkpt lat="45.86229" lon="3.56612">
        <ele>446.79998779297</ele>
        <time>2024-11-15T19:10:52.000Z</time>
      </trkpt>
      <trkpt lat="45.86229" lon="3.56612">
        <ele>447.20001220703</ele>
        <time>2024-11-15T19:10:53.000Z</time>
      </trkpt>
      <trkpt lat="45.86228" lon="3.56612">
        <ele>447.20001220703</ele>
        <time>2024-11-15T19:10:54.000Z</time>
      </trkpt>
      <trkpt lat="45.86228" lon="3.56612">
        <ele>447.60000610352</ele>
        <time>2024-11-15T19:10:55.000Z</time>
      </trkpt>
      <trkpt lat="45.86228" lon="3.56613">
        <ele>447.79998779297</ele>
        <time>2024-11-15T19:10:56.000Z</time>
      </trkpt>
      <trkpt lat="45.86228" lon="3.56613">
        <ele>448</ele>
        <time>2024-11-15T19:10:57.000Z</time>
      </trkpt>
      <trkpt lat="45.86228" lon="3.56614">
        <ele>448.20001220703</ele>
        <time>2024-11-15T19:10:58.000Z</time>
      </trkpt>
      <trkpt lat="45.86228" lon="3.56614">
        <ele>448.39999389648</ele>
        <time>2024-11-15T19:10:59.000Z</time>
      </trkpt>
      <trkpt lat="45.86228" lon="3.56615">
        <ele>448.60000610352</ele>
        <time>2024-11-15T19:11:00.000Z</time>
      </trkpt>
      <trkpt lat="45.86228" lon="3.56616">
        <ele>448.79998779297</ele>
        <time>2024-11-15T19:11:01.000Z</time>
      </trkpt>
      <trkpt lat="45.86227" lon="3.56617">
        <ele>449.20001220703</ele>
        <time>2024-11-15T19:11:02.000Z</time>
      </trkpt>
      <trkpt lat="45.86227" lon="3.56618">
        <ele>449.20001220703</ele>
        <time>2024-11-15T19:11:03.000Z</time>
      </trkpt>
      <trkpt lat="45.86227" lon="3.56619">
        <ele>449.39999389648</ele>
        <time>2024-11-15T19:11:04.000Z</time>
      </trkpt>
      <trkpt lat="45.86227" lon="3.5662">
        <ele>449.60000610352</ele>
        <time>2024-11-15T19:11:05.000Z</time>
      </trkpt>
      <trkpt lat="45.86227" lon="3.56621">
        <ele>449.79998779297</ele>
        <time>2024-11-15T19:11:06.000Z</time>
      </trkpt>
      <trkpt lat="45.86226" lon="3.56621">
        <ele>450</ele>
        <time>2024-11-15T19:11:07.000Z</time>
      </trkpt>
      <trkpt lat="45.86226" lon="3.56622">
        <ele>450.39999389648</ele>
        <time>2024-11-15T19:11:08.000Z</time>
      </trkpt>
      <trkpt lat="45.86226" lon="3.56622">
        <ele>450.79998779297</ele>
        <time>2024-11-15T19:11:09.000Z</time>
      </trkpt>
      <trkpt lat="45.86225" lon="3.56622">
        <ele>451.20001220703</ele>
        <time>2024-11-15T19:11:10.000Z</time>
      </trkpt>
      <trkpt lat="45.86225" lon="3.56622">
        <ele>451.20001220703</ele>
        <time>2024-11-15T19:11:11.000Z</time>
      </trkpt>
      <trkpt lat="45.86225" lon="3.56622">
        <ele>451.39999389648</ele>
        <time>2024-11-15T19:11:12.000Z</time>
      </trkpt>
      <trkpt lat="45.86225" lon="3.56621">
        <ele>451.39999389648</ele>
        <time>2024-11-15T19:11:13.000Z</time>
      </trkpt>
      <trkpt lat="45.86225" lon="3.5662">
        <ele>451.39999389648</ele>
        <time>2024-11-15T19:11:14.000Z</time>
      </trkpt>
      <trkpt lat="45.86224" lon="3.56619">
        <ele>451.39999389648</ele>
        <time>2024-11-15T19:11:15.000Z</time>
      </trkpt>
      <trkpt lat="45.86224" lon="3.56618">
        <ele>451.39999389648</ele>
        <time>2024-11-15T19:11:16.000Z</time>
      </trkpt>
      <trkpt lat="45.86224" lon="3.56618">
        <ele>451.60000610352</ele>
        <time>2024-11-15T19:11:17.000Z</time>
      </trkpt>
      <trkpt lat="45.86223" lon="3.56617">
        <ele>451.79998779297</ele>
        <time>2024-11-15T19:11:18.000Z</time>
      </trkpt>
      <trkpt lat="45.86223" lon="3.56616">
        <ele>451.79998779297</ele>
        <time>2024-11-15T19:11:19.000Z</time>
      </trkpt>
      <trkpt lat="45.86223" lon="3.56616">
        <ele>452</ele>
        <time>2024-11-15T19:11:20.000Z</time>
      </trkpt>
      <trkpt lat="45.86222" lon="3.56615">
        <ele>452.20001220703</ele>
        <time>2024-11-15T19:11:21.000Z</time>
      </trkpt>
      <trkpt lat="45.86222" lon="3.56614">
        <ele>452.20001220703</ele>
        <time>2024-11-15T19:11:22.000Z</time>
      </trkpt>
      <trkpt lat="45.86222" lon="3.56614">
        <ele>452.60000610352</ele>
        <time>2024-11-15T19:11:23.000Z</time>
      </trkpt>
      <trkpt lat="45.86222" lon="3.56614">
        <ele>452.79998779297</ele>
        <time>2024-11-15T19:11:24.000Z</time>
      </trkpt>
      <trkpt lat="45.86221" lon="3.56613">
        <ele>453</ele>
        <time>2024-11-15T19:11:25.000Z</time>
      </trkpt>
      <trkpt lat="45.86221" lon="3.56612">
        <ele>453</ele>
        <time>2024-11-15T19:11:26.000Z</time>
      </trkpt>
      <trkpt lat="45.86221" lon="3.56611">
        <ele>453</ele>
        <time>2024-11-15T19:11:27.000Z</time>
      </trkpt>
      <trkpt lat="45.8622" lon="3.56609">
        <ele>453.60000610352</ele>
        <time>2024-11-15T19:11:28.000Z</time>
      </trkpt>
      <trkpt lat="45.8622" lon="3.56608">
        <ele>453.79998779297</ele>
        <time>2024-11-15T19:11:29.000Z</time>
      </trkpt>
      <trkpt lat="45.8622" lon="3.56607">
        <ele>454</ele>
        <time>2024-11-15T19:11:30.000Z</time>
      </trkpt>
      <trkpt lat="45.8622" lon="3.56605">
        <ele>454.20001220703</ele>
        <time>2024-11-15T19:11:31.000Z</time>
      </trkpt>
      <trkpt lat="45.8622" lon="3.56604">
        <ele>454.39999389648</ele>
        <time>2024-11-15T19:11:32.000Z</time>
      </trkpt>
      <trkpt lat="45.8622" lon="3.56603">
        <ele>454.60000610352</ele>
        <time>2024-11-15T19:11:33.000Z</time>
      </trkpt>
      <trkpt lat="45.8622" lon="3.56602">
        <ele>454.60000610352</ele>
        <time>2024-11-15T19:11:34.000Z</time>
      </trkpt>
      <trkpt lat="45.8622" lon="3.56601">
        <ele>454.79998779297</ele>
        <time>2024-11-15T19:11:35.000Z</time>
      </trkpt>
      <trkpt lat="45.8622" lon="3.566">
        <ele>454.79998779297</ele>
        <time>2024-11-15T19:11:36.000Z</time>
      </trkpt>
      <trkpt lat="45.8622" lon="3.56598">
        <ele>454.79998779297</ele>
        <time>2024-11-15T19:11:37.000Z</time>
      </trkpt>
      <trkpt lat="45.8622" lon="3.56597">
        <ele>454.79998779297</ele>
        <time>2024-11-15T19:11:38.000Z</time>
      </trkpt>
      <trkpt lat="45.8622" lon="3.56596">
        <ele>454.79998779297</ele>
        <time>2024-11-15T19:11:39.000Z</time>
      </trkpt>
      <trkpt lat="45.8622" lon="3.56594">
        <ele>454.79998779297</ele>
        <time>2024-11-15T19:11:40.000Z</time>
      </trkpt>
      <trkpt lat="45.8622" lon="3.56593">
        <ele>454.79998779297</ele>
        <time>2024-11-15T19:11:41.000Z</time>
      </trkpt>
      <trkpt lat="45.86219" lon="3.56592">
        <ele>455</ele>
        <time>2024-11-15T19:11:42.000Z</time>
      </trkpt>
      <trkpt lat="45.86219" lon="3.56591">
        <ele>455.20001220703</ele>
        <time>2024-11-15T19:11:43.000Z</time>
      </trkpt>
      <trkpt lat="45.86219" lon="3.5659">
        <ele>455.20001220703</ele>
        <time>2024-11-15T19:11:44.000Z</time>
      </trkpt>
      <trkpt lat="45.86219" lon="3.56588">
        <ele>455.20001220703</ele>
        <time>2024-11-15T19:11:45.000Z</time>
      </trkpt>
      <trkpt lat="45.86219" lon="3.56587">
        <ele>455.39999389648</ele>
        <time>2024-11-15T19:11:46.000Z</time>
      </trkpt>
      <trkpt lat="45.86219" lon="3.56586">
        <ele>455.39999389648</ele>
        <time>2024-11-15T19:11:47.000Z</time>
      </trkpt>
      <trkpt lat="45.86219" lon="3.56584">
        <ele>455.39999389648</ele>
        <time>2024-11-15T19:11:48.000Z</time>
      </trkpt>
      <trkpt lat="45.86218" lon="3.56583">
        <ele>455.79998779297</ele>
        <time>2024-11-15T19:11:49.000Z</time>
      </trkpt>
      <trkpt lat="45.86218" lon="3.56581">
        <ele>455.79998779297</ele>
        <time>2024-11-15T19:11:50.000Z</time>
      </trkpt>
      <trkpt lat="45.86217" lon="3.5658">
        <ele>456</ele>
        <time>2024-11-15T19:11:51.000Z</time>
      </trkpt>
      <trkpt lat="45.86217" lon="3.5658">
        <ele>456.39999389648</ele>
        <time>2024-11-15T19:11:52.000Z</time>
      </trkpt>
      <trkpt lat="45.86217" lon="3.56579">
        <ele>456.60000610352</ele>
        <time>2024-11-15T19:11:53.000Z</time>
      </trkpt>
      <trkpt lat="45.86216" lon="3.56578">
        <ele>456.60000610352</ele>
        <time>2024-11-15T19:11:54.000Z</time>
      </trkpt>
      <trkpt lat="45.86215" lon="3.56577">
        <ele>456.79998779297</ele>
        <time>2024-11-15T19:11:55.000Z</time>
      </trkpt>
      <trkpt lat="45.86215" lon="3.56575">
        <ele>457</ele>
        <time>2024-11-15T19:11:56.000Z</time>
      </trkpt>
      <trkpt lat="45.86215" lon="3.56574">
        <ele>457.20001220703</ele>
        <time>2024-11-15T19:11:57.000Z</time>
      </trkpt>
      <trkpt lat="45.86214" lon="3.56573">
        <ele>457.39999389648</ele>
        <time>2024-11-15T19:11:58.000Z</time>
      </trkpt>
      <trkpt lat="45.86214" lon="3.56572">
        <ele>457.79998779297</ele>
        <time>2024-11-15T19:11:59.000Z</time>
      </trkpt>
      <trkpt lat="45.86214" lon="3.56571">
        <ele>458</ele>
        <time>2024-11-15T19:12:00.000Z</time>
      </trkpt>
      <trkpt lat="45.86214" lon="3.56569">
        <ele>458</ele>
        <time>2024-11-15T19:12:01.000Z</time>
      </trkpt>
      <trkpt lat="45.86213" lon="3.56568">
        <ele>458.20001220703</ele>
        <time>2024-11-15T19:12:02.000Z</time>
      </trkpt>
      <trkpt lat="45.86213" lon="3.56567">
        <ele>458.20001220703</ele>
        <time>2024-11-15T19:12:03.000Z</time>
      </trkpt>
      <trkpt lat="45.86213" lon="3.56566">
        <ele>458.39999389648</ele>
        <time>2024-11-15T19:12:04.000Z</time>
      </trkpt>
      <trkpt lat="45.86212" lon="3.56565">
        <ele>458.60000610352</ele>
        <time>2024-11-15T19:12:05.000Z</time>
      </trkpt>
      <trkpt lat="45.86212" lon="3.56564">
        <ele>458.79998779297</ele>
        <time>2024-11-15T19:12:06.000Z</time>
      </trkpt>
      <trkpt lat="45.86211" lon="3.56564">
        <ele>458.79998779297</ele>
        <time>2024-11-15T19:12:07.000Z</time>
      </trkpt>
      <trkpt lat="45.86211" lon="3.56563">
        <ele>459</ele>
        <time>2024-11-15T19:12:08.000Z</time>
      </trkpt>
      <trkpt lat="45.8621" lon="3.56562">
        <ele>459.20001220703</ele>
        <time>2024-11-15T19:12:09.000Z</time>
      </trkpt>
      <trkpt lat="45.8621" lon="3.56562">
        <ele>459.60000610352</ele>
        <time>2024-11-15T19:12:10.000Z</time>
      </trkpt>
      <trkpt lat="45.8621" lon="3.56561">
        <ele>459.79998779297</ele>
        <time>2024-11-15T19:12:11.000Z</time>
      </trkpt>
      <trkpt lat="45.86209" lon="3.5656">
        <ele>460</ele>
        <time>2024-11-15T19:12:12.000Z</time>
      </trkpt>
      <trkpt lat="45.86209" lon="3.56559">
        <ele>460.20001220703</ele>
        <time>2024-11-15T19:12:13.000Z</time>
      </trkpt>
      <trkpt lat="45.86209" lon="3.56557">
        <ele>460.39999389648</ele>
        <time>2024-11-15T19:12:14.000Z</time>
      </trkpt>
      <trkpt lat="45.86209" lon="3.56556">
        <ele>460.79998779297</ele>
        <time>2024-11-15T19:12:15.000Z</time>
      </trkpt>
      <trkpt lat="45.86209" lon="3.56555">
        <ele>461</ele>
        <time>2024-11-15T19:12:16.000Z</time>
      </trkpt>
      <trkpt lat="45.86209" lon="3.56554">
        <ele>461.20001220703</ele>
        <time>2024-11-15T19:12:17.000Z</time>
      </trkpt>
      <trkpt lat="45.86208" lon="3.56553">
        <ele>461.20001220703</ele>
        <time>2024-11-15T19:12:18.000Z</time>
      </trkpt>
      <trkpt lat="45.86208" lon="3.56552">
        <ele>461.39999389648</ele>
        <time>2024-11-15T19:12:19.000Z</time>
      </trkpt>
      <trkpt lat="45.86207" lon="3.56552">
        <ele>461.39999389648</ele>
        <time>2024-11-15T19:12:20.000Z</time>
      </trkpt>
      <trkpt lat="45.86207" lon="3.56551">
        <ele>461.39999389648</ele>
        <time>2024-11-15T19:12:21.000Z</time>
      </trkpt>
      <trkpt lat="45.86207" lon="3.5655">
        <ele>461.79998779297</ele>
        <time>2024-11-15T19:12:22.000Z</time>
      </trkpt>
      <trkpt lat="45.86206" lon="3.56549">
        <ele>461.79998779297</ele>
        <time>2024-11-15T19:12:23.000Z</time>
      </trkpt>
      <trkpt lat="45.86206" lon="3.56549">
        <ele>462</ele>
        <time>2024-11-15T19:12:24.000Z</time>
      </trkpt>
      <trkpt lat="45.86206" lon="3.56548">
        <ele>462.39999389648</ele>
        <time>2024-11-15T19:12:25.000Z</time>
      </trkpt>
      <trkpt lat="45.86206" lon="3.56547">
        <ele>462.39999389648</ele>
        <time>2024-11-15T19:12:26.000Z</time>
      </trkpt>
      <trkpt lat="45.86205" lon="3.56546">
        <ele>462.60000610352</ele>
        <time>2024-11-15T19:12:27.000Z</time>
      </trkpt>
      <trkpt lat="45.86205" lon="3.56546">
        <ele>462.79998779297</ele>
        <time>2024-11-15T19:12:28.000Z</time>
      </trkpt>
      <trkpt lat="45.86204" lon="3.56545">
        <ele>463</ele>
        <time>2024-11-15T19:12:29.000Z</time>
      </trkpt>
      <trkpt lat="45.86204" lon="3.56544">
        <ele>463.20001220703</ele>
        <time>2024-11-15T19:12:30.000Z</time>
      </trkpt>
      <trkpt lat="45.86204" lon="3.56543">
        <ele>463.60000610352</ele>
        <time>2024-11-15T19:12:31.000Z</time>
      </trkpt>
      <trkpt lat="45.86204" lon="3.56543">
        <ele>464</ele>
        <time>2024-11-15T19:12:32.000Z</time>
      </trkpt>
      <trkpt lat="45.86203" lon="3.56542">
        <ele>464.20001220703</ele>
        <time>2024-11-15T19:12:33.000Z</time>
      </trkpt>
      <trkpt lat="45.86203" lon="3.56541">
        <ele>464.39999389648</ele>
        <time>2024-11-15T19:12:34.000Z</time>
      </trkpt>
      <trkpt lat="45.86203" lon="3.5654">
        <ele>464.39999389648</ele>
        <time>2024-11-15T19:12:35.000Z</time>
      </trkpt>
      <trkpt lat="45.86203" lon="3.5654">
        <ele>464.60000610352</ele>
        <time>2024-11-15T19:12:36.000Z</time>
      </trkpt>
      <trkpt lat="45.86202" lon="3.56539">
        <ele>465</ele>
        <time>2024-11-15T19:12:37.000Z</time>
      </trkpt>
      <trkpt lat="45.86202" lon="3.56538">
        <ele>465.20001220703</ele>
        <time>2024-11-15T19:12:38.000Z</time>
      </trkpt>
      <trkpt lat="45.86202" lon="3.56537">
        <ele>465.39999389648</ele>
        <time>2024-11-15T19:12:39.000Z</time>
      </trkpt>
      <trkpt lat="45.86201" lon="3.56537">
        <ele>465.39999389648</ele>
        <time>2024-11-15T19:12:40.000Z</time>
      </trkpt>
      <trkpt lat="45.86201" lon="3.56536">
        <ele>465.60000610352</ele>
        <time>2024-11-15T19:12:41.000Z</time>
      </trkpt>
      <trkpt lat="45.862" lon="3.56535">
        <ele>465.79998779297</ele>
        <time>2024-11-15T19:12:42.000Z</time>
      </trkpt>
      <trkpt lat="45.86199" lon="3.56534">
        <ele>466</ele>
        <time>2024-11-15T19:12:43.000Z</time>
      </trkpt>
      <trkpt lat="45.86199" lon="3.56533">
        <ele>466</ele>
        <time>2024-11-15T19:12:44.000Z</time>
      </trkpt>
      <trkpt lat="45.86199" lon="3.56532">
        <ele>466.39999389648</ele>
        <time>2024-11-15T19:12:45.000Z</time>
      </trkpt>
      <trkpt lat="45.86198" lon="3.56531">
        <ele>466.60000610352</ele>
        <time>2024-11-15T19:12:46.000Z</time>
      </trkpt>
      <trkpt lat="45.86198" lon="3.56531">
        <ele>466.79998779297</ele>
        <time>2024-11-15T19:12:47.000Z</time>
      </trkpt>
      <trkpt lat="45.86198" lon="3.5653">
        <ele>467</ele>
        <time>2024-11-15T19:12:48.000Z</time>
      </trkpt>
      <trkpt lat="45.86197" lon="3.56529">
        <ele>467</ele>
        <time>2024-11-15T19:12:49.000Z</time>
      </trkpt>
      <trkpt lat="45.86197" lon="3.56528">
        <ele>467.20001220703</ele>
        <time>2024-11-15T19:12:50.000Z</time>
      </trkpt>
      <trkpt lat="45.86196" lon="3.56527">
        <ele>467.39999389648</ele>
        <time>2024-11-15T19:12:51.000Z</time>
      </trkpt>
      <trkpt lat="45.86196" lon="3.56526">
        <ele>467.60000610352</ele>
        <time>2024-11-15T19:12:52.000Z</time>
      </trkpt>
      <trkpt lat="45.86196" lon="3.56525">
        <ele>467.60000610352</ele>
        <time>2024-11-15T19:12:53.000Z</time>
      </trkpt>
      <trkpt lat="45.86195" lon="3.56525">
        <ele>467.60000610352</ele>
        <time>2024-11-15T19:12:54.000Z</time>
      </trkpt>
      <trkpt lat="45.86195" lon="3.56524">
        <ele>467.79998779297</ele>
        <time>2024-11-15T19:12:55.000Z</time>
      </trkpt>
      <trkpt lat="45.86195" lon="3.56523">
        <ele>468</ele>
        <time>2024-11-15T19:12:56.000Z</time>
      </trkpt>
      <trkpt lat="45.86194" lon="3.56522">
        <ele>468.20001220703</ele>
        <time>2024-11-15T19:12:57.000Z</time>
      </trkpt>
      <trkpt lat="45.86194" lon="3.56522">
        <ele>468.39999389648</ele>
        <time>2024-11-15T19:12:58.000Z</time>
      </trkpt>
      <trkpt lat="45.86194" lon="3.56521">
        <ele>468.60000610352</ele>
        <time>2024-11-15T19:12:59.000Z</time>
      </trkpt>
      <trkpt lat="45.86193" lon="3.5652">
        <ele>468.79998779297</ele>
        <time>2024-11-15T19:13:00.000Z</time>
      </trkpt>
      <trkpt lat="45.86193" lon="3.56519">
        <ele>468.79998779297</ele>
        <time>2024-11-15T19:13:01.000Z</time>
      </trkpt>
      <trkpt lat="45.86192" lon="3.56519">
        <ele>469.20001220703</ele>
        <time>2024-11-15T19:13:02.000Z</time>
      </trkpt>
      <trkpt lat="45.86192" lon="3.56518">
        <ele>469.60000610352</ele>
        <time>2024-11-15T19:13:03.000Z</time>
      </trkpt>
      <trkpt lat="45.86191" lon="3.56517">
        <ele>469.79998779297</ele>
        <time>2024-11-15T19:13:04.000Z</time>
      </trkpt>
      <trkpt lat="45.86191" lon="3.56516">
        <ele>470</ele>
        <time>2024-11-15T19:13:05.000Z</time>
      </trkpt>
      <trkpt lat="45.86191" lon="3.56515">
        <ele>470</ele>
        <time>2024-11-15T19:13:06.000Z</time>
      </trkpt>
      <trkpt lat="45.86191" lon="3.56514">
        <ele>470.20001220703</ele>
        <time>2024-11-15T19:13:07.000Z</time>
      </trkpt>
      <trkpt lat="45.8619" lon="3.56514">
        <ele>470.39999389648</ele>
        <time>2024-11-15T19:13:08.000Z</time>
      </trkpt>
      <trkpt lat="45.86189" lon="3.56513">
        <ele>470.60000610352</ele>
        <time>2024-11-15T19:13:09.000Z</time>
      </trkpt>
      <trkpt lat="45.86189" lon="3.56512">
        <ele>471</ele>
        <time>2024-11-15T19:13:10.000Z</time>
      </trkpt>
      <trkpt lat="45.86188" lon="3.56511">
        <ele>471</ele>
        <time>2024-11-15T19:13:11.000Z</time>
      </trkpt>
      <trkpt lat="45.86188" lon="3.56511">
        <ele>471.39999389648</ele>
        <time>2024-11-15T19:13:12.000Z</time>
      </trkpt>
      <trkpt lat="45.86187" lon="3.5651">
        <ele>471.60000610352</ele>
        <time>2024-11-15T19:13:13.000Z</time>
      </trkpt>
      <trkpt lat="45.86187" lon="3.56509">
        <ele>471.79998779297</ele>
        <time>2024-11-15T19:13:14.000Z</time>
      </trkpt>
      <trkpt lat="45.86187" lon="3.56508">
        <ele>472</ele>
        <time>2024-11-15T19:13:15.000Z</time>
      </trkpt>
      <trkpt lat="45.86186" lon="3.56507">
        <ele>472.20001220703</ele>
        <time>2024-11-15T19:13:16.000Z</time>
      </trkpt>
      <trkpt lat="45.86186" lon="3.56506">
        <ele>472.39999389648</ele>
        <time>2024-11-15T19:13:17.000Z</time>
      </trkpt>
      <trkpt lat="45.86186" lon="3.56506">
        <ele>472.60000610352</ele>
        <time>2024-11-15T19:13:18.000Z</time>
      </trkpt>
      <trkpt lat="45.86186" lon="3.56504">
        <ele>472.79998779297</ele>
        <time>2024-11-15T19:13:19.000Z</time>
      </trkpt>
      <trkpt lat="45.86186" lon="3.56503">
        <ele>472.79998779297</ele>
        <time>2024-11-15T19:13:20.000Z</time>
      </trkpt>
      <trkpt lat="45.86186" lon="3.56502">
        <ele>473</ele>
        <time>2024-11-15T19:13:21.000Z</time>
      </trkpt>
      <trkpt lat="45.86186" lon="3.56501">
        <ele>473.20001220703</ele>
        <time>2024-11-15T19:13:22.000Z</time>
      </trkpt>
      <trkpt lat="45.86186" lon="3.56501">
        <ele>473.39999389648</ele>
        <time>2024-11-15T19:13:23.000Z</time>
      </trkpt>
      <trkpt lat="45.86185" lon="3.565">
        <ele>473.39999389648</ele>
        <time>2024-11-15T19:13:24.000Z</time>
      </trkpt>
      <trkpt lat="45.86185" lon="3.56499">
        <ele>473.39999389648</ele>
        <time>2024-11-15T19:13:25.000Z</time>
      </trkpt>
      <trkpt lat="45.86184" lon="3.56498">
        <ele>473.60000610352</ele>
        <time>2024-11-15T19:13:26.000Z</time>
      </trkpt>
      <trkpt lat="45.86184" lon="3.56497">
        <ele>473.60000610352</ele>
        <time>2024-11-15T19:13:27.000Z</time>
      </trkpt>
      <trkpt lat="45.86184" lon="3.56496">
        <ele>473.60000610352</ele>
        <time>2024-11-15T19:13:28.000Z</time>
      </trkpt>
      <trkpt lat="45.86184" lon="3.56495">
        <ele>473.60000610352</ele>
        <time>2024-11-15T19:13:29.000Z</time>
      </trkpt>
      <trkpt lat="45.86183" lon="3.56494">
        <ele>473.79998779297</ele>
        <time>2024-11-15T19:13:30.000Z</time>
      </trkpt>
      <trkpt lat="45.86183" lon="3.56493">
        <ele>474</ele>
        <time>2024-11-15T19:13:31.000Z</time>
      </trkpt>
      <trkpt lat="45.86183" lon="3.56491">
        <ele>474.20001220703</ele>
        <time>2024-11-15T19:13:32.000Z</time>
      </trkpt>
      <trkpt lat="45.86182" lon="3.5649">
        <ele>474.39999389648</ele>
        <time>2024-11-15T19:13:33.000Z</time>
      </trkpt>
      <trkpt lat="45.86182" lon="3.56489">
        <ele>474.79998779297</ele>
        <time>2024-11-15T19:13:34.000Z</time>
      </trkpt>
      <trkpt lat="45.86182" lon="3.56487">
        <ele>475</ele>
        <time>2024-11-15T19:13:35.000Z</time>
      </trkpt>
      <trkpt lat="45.86181" lon="3.56485">
        <ele>475.39999389648</ele>
        <time>2024-11-15T19:13:36.000Z</time>
      </trkpt>
      <trkpt lat="45.86181" lon="3.56484">
        <ele>475.60000610352</ele>
        <time>2024-11-15T19:13:37.000Z</time>
      </trkpt>
      <trkpt lat="45.86181" lon="3.56483">
        <ele>476</ele>
        <time>2024-11-15T19:13:38.000Z</time>
      </trkpt>
      <trkpt lat="45.86181" lon="3.56482">
        <ele>476</ele>
        <time>2024-11-15T19:13:39.000Z</time>
      </trkpt>
      <trkpt lat="45.86181" lon="3.56481">
        <ele>476.39999389648</ele>
        <time>2024-11-15T19:13:40.000Z</time>
      </trkpt>
      <trkpt lat="45.86181" lon="3.5648">
        <ele>476.60000610352</ele>
        <time>2024-11-15T19:13:41.000Z</time>
      </trkpt>
      <trkpt lat="45.86181" lon="3.56478">
        <ele>476.79998779297</ele>
        <time>2024-11-15T19:13:42.000Z</time>
      </trkpt>
      <trkpt lat="45.8618" lon="3.56477">
        <ele>477</ele>
        <time>2024-11-15T19:13:43.000Z</time>
      </trkpt>
      <trkpt lat="45.8618" lon="3.56476">
        <ele>477.39999389648</ele>
        <time>2024-11-15T19:13:44.000Z</time>
      </trkpt>
      <trkpt lat="45.8618" lon="3.56474">
        <ele>477.60000610352</ele>
        <time>2024-11-15T19:13:45.000Z</time>
      </trkpt>
      <trkpt lat="45.8618" lon="3.56473">
        <ele>477.79998779297</ele>
        <time>2024-11-15T19:13:46.000Z</time>
      </trkpt>
      <trkpt lat="45.8618" lon="3.56471">
        <ele>478</ele>
        <time>2024-11-15T19:13:47.000Z</time>
      </trkpt>
      <trkpt lat="45.8618" lon="3.5647">
        <ele>478.20001220703</ele>
        <time>2024-11-15T19:13:48.000Z</time>
      </trkpt>
      <trkpt lat="45.8618" lon="3.56469">
        <ele>478.39999389648</ele>
        <time>2024-11-15T19:13:49.000Z</time>
      </trkpt>
      <trkpt lat="45.8618" lon="3.56468">
        <ele>478.60000610352</ele>
        <time>2024-11-15T19:13:50.000Z</time>
      </trkpt>
      <trkpt lat="45.8618" lon="3.56467">
        <ele>479</ele>
        <time>2024-11-15T19:13:51.000Z</time>
      </trkpt>
      <trkpt lat="45.8618" lon="3.56466">
        <ele>479</ele>
        <time>2024-11-15T19:13:52.000Z</time>
      </trkpt>
      <trkpt lat="45.8618" lon="3.56464">
        <ele>479.20001220703</ele>
        <time>2024-11-15T19:13:53.000Z</time>
      </trkpt>
      <trkpt lat="45.86181" lon="3.56462">
        <ele>479.20001220703</ele>
        <time>2024-11-15T19:13:54.000Z</time>
      </trkpt>
      <trkpt lat="45.86181" lon="3.5646">
        <ele>479.20001220703</ele>
        <time>2024-11-15T19:13:55.000Z</time>
      </trkpt>
      <trkpt lat="45.86182" lon="3.56458">
        <ele>479.20001220703</ele>
        <time>2024-11-15T19:13:56.000Z</time>
      </trkpt>
      <trkpt lat="45.86182" lon="3.56456">
        <ele>479.20001220703</ele>
        <time>2024-11-15T19:13:57.000Z</time>
      </trkpt>
      <trkpt lat="45.86182" lon="3.56453">
        <ele>478.79998779297</ele>
        <time>2024-11-15T19:13:58.000Z</time>
      </trkpt>
      <trkpt lat="45.86183" lon="3.56451">
        <ele>478.79998779297</ele>
        <time>2024-11-15T19:13:59.000Z</time>
      </trkpt>
      <trkpt lat="45.86184" lon="3.56449">
        <ele>478.79998779297</ele>
        <time>2024-11-15T19:14:00.000Z</time>
      </trkpt>
      <trkpt lat="45.86185" lon="3.56447">
        <ele>478.79998779297</ele>
        <time>2024-11-15T19:14:01.000Z</time>
      </trkpt>
      <trkpt lat="45.86185" lon="3.56445">
        <ele>479.20001220703</ele>
        <time>2024-11-15T19:14:02.000Z</time>
      </trkpt>
      <trkpt lat="45.86186" lon="3.56444">
        <ele>479.60000610352</ele>
        <time>2024-11-15T19:14:03.000Z</time>
      </trkpt>
      <trkpt lat="45.86187" lon="3.56442">
        <ele>479.79998779297</ele>
        <time>2024-11-15T19:14:04.000Z</time>
      </trkpt>
      <trkpt lat="45.86188" lon="3.56441">
        <ele>479.79998779297</ele>
        <time>2024-11-15T19:14:05.000Z</time>
      </trkpt>
      <trkpt lat="45.86189" lon="3.5644">
        <ele>480</ele>
        <time>2024-11-15T19:14:06.000Z</time>
      </trkpt>
      <trkpt lat="45.86189" lon="3.56439">
        <ele>480</ele>
        <time>2024-11-15T19:14:07.000Z</time>
      </trkpt>
      <trkpt lat="45.8619" lon="3.56438">
        <ele>480</ele>
        <time>2024-11-15T19:14:08.000Z</time>
      </trkpt>
      <trkpt lat="45.86191" lon="3.56437">
        <ele>480</ele>
        <time>2024-11-15T19:14:09.000Z</time>
      </trkpt>
      <trkpt lat="45.86191" lon="3.56436">
        <ele>480</ele>
        <time>2024-11-15T19:14:10.000Z</time>
      </trkpt>
      <trkpt lat="45.86192" lon="3.56435">
        <ele>480</ele>
        <time>2024-11-15T19:14:11.000Z</time>
      </trkpt>
      <trkpt lat="45.86193" lon="3.56434">
        <ele>480</ele>
        <time>2024-11-15T19:14:12.000Z</time>
      </trkpt>
      <trkpt lat="45.86193" lon="3.56433">
        <ele>480</ele>
        <time>2024-11-15T19:14:13.000Z</time>
      </trkpt>
      <trkpt lat="45.86194" lon="3.56432">
        <ele>480</ele>
        <time>2024-11-15T19:14:14.000Z</time>
      </trkpt>
      <trkpt lat="45.86194" lon="3.56431">
        <ele>480</ele>
        <time>2024-11-15T19:14:15.000Z</time>
      </trkpt>
      <trkpt lat="45.86195" lon="3.56429">
        <ele>480</ele>
        <time>2024-11-15T19:14:16.000Z</time>
      </trkpt>
      <trkpt lat="45.86196" lon="3.56428">
        <ele>480.20001220703</ele>
        <time>2024-11-15T19:14:17.000Z</time>
      </trkpt>
      <trkpt lat="45.86197" lon="3.56426">
        <ele>480.39999389648</ele>
        <time>2024-11-15T19:14:18.000Z</time>
      </trkpt>
      <trkpt lat="45.86198" lon="3.56425">
        <ele>480.39999389648</ele>
        <time>2024-11-15T19:14:19.000Z</time>
      </trkpt>
      <trkpt lat="45.86199" lon="3.56424">
        <ele>480.79998779297</ele>
        <time>2024-11-15T19:14:20.000Z</time>
      </trkpt>
      <trkpt lat="45.86199" lon="3.56422">
        <ele>480.79998779297</ele>
        <time>2024-11-15T19:14:21.000Z</time>
      </trkpt>
      <trkpt lat="45.862" lon="3.56421">
        <ele>481</ele>
        <time>2024-11-15T19:14:22.000Z</time>
      </trkpt>
      <trkpt lat="45.86201" lon="3.56419">
        <ele>481</ele>
        <time>2024-11-15T19:14:23.000Z</time>
      </trkpt>
      <trkpt lat="45.86202" lon="3.56417">
        <ele>481</ele>
        <time>2024-11-15T19:14:24.000Z</time>
      </trkpt>
      <trkpt lat="45.86203" lon="3.56416">
        <ele>481</ele>
        <time>2024-11-15T19:14:25.000Z</time>
      </trkpt>
      <trkpt lat="45.86203" lon="3.56414">
        <ele>481.20001220703</ele>
        <time>2024-11-15T19:14:26.000Z</time>
      </trkpt>
      <trkpt lat="45.86204" lon="3.56413">
        <ele>481.39999389648</ele>
        <time>2024-11-15T19:14:27.000Z</time>
      </trkpt>
      <trkpt lat="45.86205" lon="3.5641">
        <ele>481.79998779297</ele>
        <time>2024-11-15T19:14:28.000Z</time>
      </trkpt>
      <trkpt lat="45.86206" lon="3.56408">
        <ele>482</ele>
        <time>2024-11-15T19:14:29.000Z</time>
      </trkpt>
      <trkpt lat="45.86206" lon="3.56406">
        <ele>482.39999389648</ele>
        <time>2024-11-15T19:14:30.000Z</time>
      </trkpt>
      <trkpt lat="45.86207" lon="3.56405">
        <ele>482.79998779297</ele>
        <time>2024-11-15T19:14:31.000Z</time>
      </trkpt>
      <trkpt lat="45.86207" lon="3.56403">
        <ele>483.20001220703</ele>
        <time>2024-11-15T19:14:32.000Z</time>
      </trkpt>
      <trkpt lat="45.86208" lon="3.56401">
        <ele>483.39999389648</ele>
        <time>2024-11-15T19:14:33.000Z</time>
      </trkpt>
      <trkpt lat="45.86208" lon="3.564">
        <ele>483.60000610352</ele>
        <time>2024-11-15T19:14:34.000Z</time>
      </trkpt>
      <trkpt lat="45.86208" lon="3.56398">
        <ele>483.79998779297</ele>
        <time>2024-11-15T19:14:35.000Z</time>
      </trkpt>
      <trkpt lat="45.86209" lon="3.56397">
        <ele>483.79998779297</ele>
        <time>2024-11-15T19:14:36.000Z</time>
      </trkpt>
      <trkpt lat="45.86209" lon="3.56396">
        <ele>484.39999389648</ele>
        <time>2024-11-15T19:14:37.000Z</time>
      </trkpt>
      <trkpt lat="45.86209" lon="3.56394">
        <ele>484.39999389648</ele>
        <time>2024-11-15T19:14:38.000Z</time>
      </trkpt>
      <trkpt lat="45.86209" lon="3.56393">
        <ele>484.60000610352</ele>
        <time>2024-11-15T19:14:39.000Z</time>
      </trkpt>
      <trkpt lat="45.8621" lon="3.56391">
        <ele>484.79998779297</ele>
        <time>2024-11-15T19:14:40.000Z</time>
      </trkpt>
      <trkpt lat="45.8621" lon="3.5639">
        <ele>484.79998779297</ele>
        <time>2024-11-15T19:14:41.000Z</time>
      </trkpt>
      <trkpt lat="45.8621" lon="3.56389">
        <ele>485.39999389648</ele>
        <time>2024-11-15T19:14:42.000Z</time>
      </trkpt>
      <trkpt lat="45.8621" lon="3.56388">
        <ele>485.60000610352</ele>
        <time>2024-11-15T19:14:43.000Z</time>
      </trkpt>
      <trkpt lat="45.86211" lon="3.56387">
        <ele>486</ele>
        <time>2024-11-15T19:14:44.000Z</time>
      </trkpt>
      <trkpt lat="45.86211" lon="3.56386">
        <ele>486.20001220703</ele>
        <time>2024-11-15T19:14:45.000Z</time>
      </trkpt>
      <trkpt lat="45.86211" lon="3.56385">
        <ele>486.39999389648</ele>
        <time>2024-11-15T19:14:46.000Z</time>
      </trkpt>
      <trkpt lat="45.86212" lon="3.56384">
        <ele>486.39999389648</ele>
        <time>2024-11-15T19:14:47.000Z</time>
      </trkpt>
      <trkpt lat="45.86211" lon="3.56383">
        <ele>486.79998779297</ele>
        <time>2024-11-15T19:14:48.000Z</time>
      </trkpt>
      <trkpt lat="45.86211" lon="3.56382">
        <ele>487</ele>
        <time>2024-11-15T19:14:49.000Z</time>
      </trkpt>
      <trkpt lat="45.86211" lon="3.56381">
        <ele>487</ele>
        <time>2024-11-15T19:14:50.000Z</time>
      </trkpt>
      <trkpt lat="45.8621" lon="3.56379">
        <ele>487.39999389648</ele>
        <time>2024-11-15T19:14:51.000Z</time>
      </trkpt>
      <trkpt lat="45.8621" lon="3.56378">
        <ele>487.60000610352</ele>
        <time>2024-11-15T19:14:52.000Z</time>
      </trkpt>
      <trkpt lat="45.8621" lon="3.56377">
        <ele>488</ele>
        <time>2024-11-15T19:14:53.000Z</time>
      </trkpt>
      <trkpt lat="45.8621" lon="3.56375">
        <ele>488.20001220703</ele>
        <time>2024-11-15T19:14:54.000Z</time>
      </trkpt>
      <trkpt lat="45.86209" lon="3.56374">
        <ele>488.20001220703</ele>
        <time>2024-11-15T19:14:55.000Z</time>
      </trkpt>
      <trkpt lat="45.86209" lon="3.56372">
        <ele>488.20001220703</ele>
        <time>2024-11-15T19:14:56.000Z</time>
      </trkpt>
      <trkpt lat="45.86208" lon="3.5637">
        <ele>488.20001220703</ele>
        <time>2024-11-15T19:14:57.000Z</time>
      </trkpt>
      <trkpt lat="45.86208" lon="3.56369">
        <ele>488.20001220703</ele>
        <time>2024-11-15T19:14:58.000Z</time>
      </trkpt>
      <trkpt lat="45.86207" lon="3.56368">
        <ele>488</ele>
        <time>2024-11-15T19:14:59.000Z</time>
      </trkpt>
      <trkpt lat="45.86207" lon="3.56366">
        <ele>487.60000610352</ele>
        <time>2024-11-15T19:15:00.000Z</time>
      </trkpt>
      <trkpt lat="45.86206" lon="3.56365">
        <ele>487.39999389648</ele>
        <time>2024-11-15T19:15:01.000Z</time>
      </trkpt>
      <trkpt lat="45.86206" lon="3.56364">
        <ele>487</ele>
        <time>2024-11-15T19:15:02.000Z</time>
      </trkpt>
      <trkpt lat="45.86205" lon="3.56362">
        <ele>486.60000610352</ele>
        <time>2024-11-15T19:15:03.000Z</time>
      </trkpt>
      <trkpt lat="45.86205" lon="3.56361">
        <ele>486.20001220703</ele>
        <time>2024-11-15T19:15:04.000Z</time>
      </trkpt>
      <trkpt lat="45.86204" lon="3.5636">
        <ele>486.20001220703</ele>
        <time>2024-11-15T19:15:05.000Z</time>
      </trkpt>
      <trkpt lat="45.86204" lon="3.56359">
        <ele>485.39999389648</ele>
        <time>2024-11-15T19:15:06.000Z</time>
      </trkpt>
      <trkpt lat="45.86203" lon="3.56358">
        <ele>485</ele>
        <time>2024-11-15T19:15:07.000Z</time>
      </trkpt>
      <trkpt lat="45.86203" lon="3.56357">
        <ele>484.20001220703</ele>
        <time>2024-11-15T19:15:08.000Z</time>
      </trkpt>
      <trkpt lat="45.86202" lon="3.56356">
        <ele>483.60000610352</ele>
        <time>2024-11-15T19:15:09.000Z</time>
      </trkpt>
      <trkpt lat="45.86202" lon="3.56355">
        <ele>483.20001220703</ele>
        <time>2024-11-15T19:15:10.000Z</time>
      </trkpt>
      <trkpt lat="45.86202" lon="3.56354">
        <ele>482.60000610352</ele>
        <time>2024-11-15T19:15:11.000Z</time>
      </trkpt>
      <trkpt lat="45.86202" lon="3.56352">
        <ele>482.60000610352</ele>
        <time>2024-11-15T19:15:12.000Z</time>
      </trkpt>
      <trkpt lat="45.86202" lon="3.56351">
        <ele>482.39999389648</ele>
        <time>2024-11-15T19:15:13.000Z</time>
      </trkpt>
      <trkpt lat="45.86202" lon="3.5635">
        <ele>481.79998779297</ele>
        <time>2024-11-15T19:15:14.000Z</time>
      </trkpt>
      <trkpt lat="45.86202" lon="3.56349">
        <ele>481.39999389648</ele>
        <time>2024-11-15T19:15:15.000Z</time>
      </trkpt>
      <trkpt lat="45.86202" lon="3.56348">
        <ele>480.79998779297</ele>
        <time>2024-11-15T19:15:16.000Z</time>
      </trkpt>
      <trkpt lat="45.86201" lon="3.56347">
        <ele>480.20001220703</ele>
        <time>2024-11-15T19:15:17.000Z</time>
      </trkpt>
      <trkpt lat="45.86201" lon="3.56346">
        <ele>479.79998779297</ele>
        <time>2024-11-15T19:15:18.000Z</time>
      </trkpt>
      <trkpt lat="45.86201" lon="3.56345">
        <ele>479.39999389648</ele>
        <time>2024-11-15T19:15:19.000Z</time>
      </trkpt>
      <trkpt lat="45.86201" lon="3.56344">
        <ele>479.20001220703</ele>
        <time>2024-11-15T19:15:20.000Z</time>
      </trkpt>
      <trkpt lat="45.86201" lon="3.56342">
        <ele>479</ele>
        <time>2024-11-15T19:15:21.000Z</time>
      </trkpt>
      <trkpt lat="45.862" lon="3.56341">
        <ele>478.79998779297</ele>
        <time>2024-11-15T19:15:22.000Z</time>
      </trkpt>
      <trkpt lat="45.86199" lon="3.5634">
        <ele>478</ele>
        <time>2024-11-15T19:15:23.000Z</time>
      </trkpt>
      <trkpt lat="45.86199" lon="3.56339">
        <ele>477.20001220703</ele>
        <time>2024-11-15T19:15:24.000Z</time>
      </trkpt>
      <trkpt lat="45.86198" lon="3.56338">
        <ele>476.39999389648</ele>
        <time>2024-11-15T19:15:25.000Z</time>
      </trkpt>
      <trkpt lat="45.86197" lon="3.56337">
        <ele>476.20001220703</ele>
        <time>2024-11-15T19:15:26.000Z</time>
      </trkpt>
      <trkpt lat="45.86197" lon="3.56336">
        <ele>476</ele>
        <time>2024-11-15T19:15:27.000Z</time>
      </trkpt>
      <trkpt lat="45.86196" lon="3.56334">
        <ele>475.20001220703</ele>
        <time>2024-11-15T19:15:28.000Z</time>
      </trkpt>
      <trkpt lat="45.86196" lon="3.56333">
        <ele>474.39999389648</ele>
        <time>2024-11-15T19:15:29.000Z</time>
      </trkpt>
      <trkpt lat="45.86195" lon="3.56332">
        <ele>474</ele>
        <time>2024-11-15T19:15:30.000Z</time>
      </trkpt>
      <trkpt lat="45.86194" lon="3.5633">
        <ele>474</ele>
        <time>2024-11-15T19:15:31.000Z</time>
      </trkpt>
      <trkpt lat="45.86194" lon="3.56329">
        <ele>473.60000610352</ele>
        <time>2024-11-15T19:15:32.000Z</time>
      </trkpt>
      <trkpt lat="45.86193" lon="3.56329">
        <ele>473</ele>
        <time>2024-11-15T19:15:33.000Z</time>
      </trkpt>
      <trkpt lat="45.86192" lon="3.56328">
        <ele>472.20001220703</ele>
        <time>2024-11-15T19:15:34.000Z</time>
      </trkpt>
      <trkpt lat="45.86191" lon="3.56327">
        <ele>471.60000610352</ele>
        <time>2024-11-15T19:15:35.000Z</time>
      </trkpt>
      <trkpt lat="45.8619" lon="3.56326">
        <ele>471.20001220703</ele>
        <time>2024-11-15T19:15:36.000Z</time>
      </trkpt>
      <trkpt lat="45.86189" lon="3.56325">
        <ele>470.79998779297</ele>
        <time>2024-11-15T19:15:37.000Z</time>
      </trkpt>
      <trkpt lat="45.86188" lon="3.56324">
        <ele>470.39999389648</ele>
        <time>2024-11-15T19:15:38.000Z</time>
      </trkpt>
      <trkpt lat="45.86187" lon="3.56323">
        <ele>469.79998779297</ele>
        <time>2024-11-15T19:15:39.000Z</time>
      </trkpt>
      <trkpt lat="45.86187" lon="3.56322">
        <ele>469.39999389648</ele>
        <time>2024-11-15T19:15:40.000Z</time>
      </trkpt>
      <trkpt lat="45.86186" lon="3.56321">
        <ele>469.20001220703</ele>
        <time>2024-11-15T19:15:41.000Z</time>
      </trkpt>
      <trkpt lat="45.86185" lon="3.56319">
        <ele>468.39999389648</ele>
        <time>2024-11-15T19:15:42.000Z</time>
      </trkpt>
      <trkpt lat="45.86184" lon="3.56318">
        <ele>467.79998779297</ele>
        <time>2024-11-15T19:15:43.000Z</time>
      </trkpt>
      <trkpt lat="45.86183" lon="3.56316">
        <ele>467.60000610352</ele>
        <time>2024-11-15T19:15:44.000Z</time>
      </trkpt>
      <trkpt lat="45.86182" lon="3.56315">
        <ele>467.39999389648</ele>
        <time>2024-11-15T19:15:45.000Z</time>
      </trkpt>
      <trkpt lat="45.8618" lon="3.56313">
        <ele>466.79998779297</ele>
        <time>2024-11-15T19:15:46.000Z</time>
      </trkpt>
      <trkpt lat="45.86178" lon="3.56312">
        <ele>466.20001220703</ele>
        <time>2024-11-15T19:15:47.000Z</time>
      </trkpt>
      <trkpt lat="45.86176" lon="3.5631">
        <ele>466</ele>
        <time>2024-11-15T19:15:48.000Z</time>
      </trkpt>
      <trkpt lat="45.86174" lon="3.56309">
        <ele>465.79998779297</ele>
        <time>2024-11-15T19:15:49.000Z</time>
      </trkpt>
      <trkpt lat="45.86172" lon="3.56307">
        <ele>465.60000610352</ele>
        <time>2024-11-15T19:15:50.000Z</time>
      </trkpt>
      <trkpt lat="45.8617" lon="3.56305">
        <ele>465.39999389648</ele>
        <time>2024-11-15T19:15:51.000Z</time>
      </trkpt>
      <trkpt lat="45.86169" lon="3.56304">
        <ele>465.20001220703</ele>
        <time>2024-11-15T19:15:52.000Z</time>
      </trkpt>
      <trkpt lat="45.86167" lon="3.56302">
        <ele>465</ele>
        <time>2024-11-15T19:15:53.000Z</time>
      </trkpt>
      <trkpt lat="45.86165" lon="3.56301">
        <ele>464.79998779297</ele>
        <time>2024-11-15T19:15:54.000Z</time>
      </trkpt>
      <trkpt lat="45.86163" lon="3.56299">
        <ele>464.79998779297</ele>
        <time>2024-11-15T19:15:55.000Z</time>
      </trkpt>
      <trkpt lat="45.86162" lon="3.56297">
        <ele>464.60000610352</ele>
        <time>2024-11-15T19:15:56.000Z</time>
      </trkpt>
      <trkpt lat="45.8616" lon="3.56296">
        <ele>464.39999389648</ele>
        <time>2024-11-15T19:15:57.000Z</time>
      </trkpt>
      <trkpt lat="45.86159" lon="3.56295">
        <ele>464.20001220703</ele>
        <time>2024-11-15T19:15:58.000Z</time>
      </trkpt>
      <trkpt lat="45.86157" lon="3.56294">
        <ele>464.20001220703</ele>
        <time>2024-11-15T19:15:59.000Z</time>
      </trkpt>
      <trkpt lat="45.86155" lon="3.56293">
        <ele>464</ele>
        <time>2024-11-15T19:16:00.000Z</time>
      </trkpt>
      <trkpt lat="45.86154" lon="3.56293">
        <ele>464</ele>
        <time>2024-11-15T19:16:01.000Z</time>
      </trkpt>
      <trkpt lat="45.86152" lon="3.56292">
        <ele>463.79998779297</ele>
        <time>2024-11-15T19:16:02.000Z</time>
      </trkpt>
      <trkpt lat="45.8615" lon="3.56292">
        <ele>463.79998779297</ele>
        <time>2024-11-15T19:16:03.000Z</time>
      </trkpt>
      <trkpt lat="45.86148" lon="3.56291">
        <ele>463.60000610352</ele>
        <time>2024-11-15T19:16:04.000Z</time>
      </trkpt>
      <trkpt lat="45.86146" lon="3.56291">
        <ele>463.39999389648</ele>
        <time>2024-11-15T19:16:05.000Z</time>
      </trkpt>
      <trkpt lat="45.86144" lon="3.5629">
        <ele>463</ele>
        <time>2024-11-15T19:16:06.000Z</time>
      </trkpt>
      <trkpt lat="45.86142" lon="3.5629">
        <ele>463</ele>
        <time>2024-11-15T19:16:07.000Z</time>
      </trkpt>
      <trkpt lat="45.8614" lon="3.5629">
        <ele>463</ele>
        <time>2024-11-15T19:16:08.000Z</time>
      </trkpt>
      <trkpt lat="45.86138" lon="3.5629">
        <ele>463</ele>
        <time>2024-11-15T19:16:09.000Z</time>
      </trkpt>
      <trkpt lat="45.86137" lon="3.5629">
        <ele>463.20001220703</ele>
        <time>2024-11-15T19:16:10.000Z</time>
      </trkpt>
      <trkpt lat="45.86136" lon="3.5629">
        <ele>463.60000610352</ele>
        <time>2024-11-15T19:16:11.000Z</time>
      </trkpt>
      <trkpt lat="45.86135" lon="3.56291">
        <ele>464.39999389648</ele>
        <time>2024-11-15T19:16:12.000Z</time>
      </trkpt>
      <trkpt lat="45.86133" lon="3.56291">
        <ele>464.39999389648</ele>
        <time>2024-11-15T19:16:13.000Z</time>
      </trkpt>
      <trkpt lat="45.86132" lon="3.56292">
        <ele>464.79998779297</ele>
        <time>2024-11-15T19:16:14.000Z</time>
      </trkpt>
      <trkpt lat="45.86131" lon="3.56292">
        <ele>464.79998779297</ele>
        <time>2024-11-15T19:16:15.000Z</time>
      </trkpt>
      <trkpt lat="45.8613" lon="3.56292">
        <ele>464.79998779297</ele>
        <time>2024-11-15T19:16:16.000Z</time>
      </trkpt>
      <trkpt lat="45.86128" lon="3.56292">
        <ele>464.79998779297</ele>
        <time>2024-11-15T19:16:17.000Z</time>
      </trkpt>
      <trkpt lat="45.86128" lon="3.56292">
        <ele>464.79998779297</ele>
        <time>2024-11-15T19:16:18.000Z</time>
      </trkpt>
      <trkpt lat="45.86127" lon="3.56292">
        <ele>464.79998779297</ele>
        <time>2024-11-15T19:16:19.000Z</time>
      </trkpt>
      <trkpt lat="45.86126" lon="3.56292">
        <ele>464.79998779297</ele>
        <time>2024-11-15T19:16:20.000Z</time>
      </trkpt>
      <trkpt lat="45.86125" lon="3.56292">
        <ele>464.79998779297</ele>
        <time>2024-11-15T19:16:21.000Z</time>
      </trkpt>
      <trkpt lat="45.86124" lon="3.56293">
        <ele>464.79998779297</ele>
        <time>2024-11-15T19:16:22.000Z</time>
      </trkpt>
      <trkpt lat="45.86123" lon="3.56293">
        <ele>464.79998779297</ele>
        <time>2024-11-15T19:16:23.000Z</time>
      </trkpt>
      <trkpt lat="45.86121" lon="3.56293">
        <ele>464.60000610352</ele>
        <time>2024-11-15T19:16:24.000Z</time>
      </trkpt>
      <trkpt lat="45.8612" lon="3.56293">
        <ele>464</ele>
        <time>2024-11-15T19:16:25.000Z</time>
      </trkpt>
      <trkpt lat="45.86118" lon="3.56294">
        <ele>463.60000610352</ele>
        <time>2024-11-15T19:16:26.000Z</time>
      </trkpt>
      <trkpt lat="45.86116" lon="3.56293">
        <ele>463.39999389648</ele>
        <time>2024-11-15T19:16:27.000Z</time>
      </trkpt>
      <trkpt lat="45.86115" lon="3.56293">
        <ele>463</ele>
        <time>2024-11-15T19:16:28.000Z</time>
      </trkpt>
      <trkpt lat="45.86113" lon="3.56292">
        <ele>462.79998779297</ele>
        <time>2024-11-15T19:16:29.000Z</time>
      </trkpt>
      <trkpt lat="45.86112" lon="3.56291">
        <ele>462.20001220703</ele>
        <time>2024-11-15T19:16:30.000Z</time>
      </trkpt>
      <trkpt lat="45.8611" lon="3.5629">
        <ele>461.79998779297</ele>
        <time>2024-11-15T19:16:31.000Z</time>
      </trkpt>
      <trkpt lat="45.86108" lon="3.56289">
        <ele>461.20001220703</ele>
        <time>2024-11-15T19:16:32.000Z</time>
      </trkpt>
      <trkpt lat="45.86106" lon="3.56287">
        <ele>460.79998779297</ele>
        <time>2024-11-15T19:16:33.000Z</time>
      </trkpt>
      <trkpt lat="45.86105" lon="3.56286">
        <ele>460.60000610352</ele>
        <time>2024-11-15T19:16:34.000Z</time>
      </trkpt>
      <trkpt lat="45.86103" lon="3.56284">
        <ele>460.60000610352</ele>
        <time>2024-11-15T19:16:35.000Z</time>
      </trkpt>
      <trkpt lat="45.86102" lon="3.56283">
        <ele>460.60000610352</ele>
        <time>2024-11-15T19:16:36.000Z</time>
      </trkpt>
      <trkpt lat="45.861" lon="3.56281">
        <ele>460.60000610352</ele>
        <time>2024-11-15T19:16:37.000Z</time>
      </trkpt>
      <trkpt lat="45.86099" lon="3.56279">
        <ele>461</ele>
        <time>2024-11-15T19:16:38.000Z</time>
      </trkpt>
      <trkpt lat="45.86098" lon="3.56277">
        <ele>461.39999389648</ele>
        <time>2024-11-15T19:16:39.000Z</time>
      </trkpt>
      <trkpt lat="45.86098" lon="3.56275">
        <ele>461.79998779297</ele>
        <time>2024-11-15T19:16:40.000Z</time>
      </trkpt>
      <trkpt lat="45.86097" lon="3.56272">
        <ele>462</ele>
        <time>2024-11-15T19:16:41.000Z</time>
      </trkpt>
      <trkpt lat="45.86097" lon="3.5627">
        <ele>462.20001220703</ele>
        <time>2024-11-15T19:16:42.000Z</time>
      </trkpt>
      <trkpt lat="45.86096" lon="3.56268">
        <ele>462.60000610352</ele>
        <time>2024-11-15T19:16:43.000Z</time>
      </trkpt>
      <trkpt lat="45.86095" lon="3.56266">
        <ele>462.79998779297</ele>
        <time>2024-11-15T19:16:44.000Z</time>
      </trkpt>
      <trkpt lat="45.86094" lon="3.56264">
        <ele>462.79998779297</ele>
        <time>2024-11-15T19:16:45.000Z</time>
      </trkpt>
      <trkpt lat="45.86093" lon="3.56262">
        <ele>463.20001220703</ele>
        <time>2024-11-15T19:16:46.000Z</time>
      </trkpt>
      <trkpt lat="45.86092" lon="3.56261">
        <ele>463.39999389648</ele>
        <time>2024-11-15T19:16:47.000Z</time>
      </trkpt>
      <trkpt lat="45.86091" lon="3.5626">
        <ele>463.39999389648</ele>
        <time>2024-11-15T19:16:48.000Z</time>
      </trkpt>
      <trkpt lat="45.8609" lon="3.56258">
        <ele>463.39999389648</ele>
        <time>2024-11-15T19:16:49.000Z</time>
      </trkpt>
      <trkpt lat="45.86089" lon="3.56257">
        <ele>463.20001220703</ele>
        <time>2024-11-15T19:16:50.000Z</time>
      </trkpt>
      <trkpt lat="45.86088" lon="3.56256">
        <ele>462.79998779297</ele>
        <time>2024-11-15T19:16:51.000Z</time>
      </trkpt>
      <trkpt lat="45.86087" lon="3.56254">
        <ele>462.39999389648</ele>
        <time>2024-11-15T19:16:52.000Z</time>
      </trkpt>
      <trkpt lat="45.86086" lon="3.56252">
        <ele>462.20001220703</ele>
        <time>2024-11-15T19:16:53.000Z</time>
      </trkpt>
      <trkpt lat="45.86085" lon="3.56249">
        <ele>461.79998779297</ele>
        <time>2024-11-15T19:16:54.000Z</time>
      </trkpt>
      <trkpt lat="45.86085" lon="3.56247">
        <ele>461.79998779297</ele>
        <time>2024-11-15T19:16:55.000Z</time>
      </trkpt>
      <trkpt lat="45.86084" lon="3.56244">
        <ele>461.79998779297</ele>
        <time>2024-11-15T19:16:56.000Z</time>
      </trkpt>
      <trkpt lat="45.86084" lon="3.56242">
        <ele>461.60000610352</ele>
        <time>2024-11-15T19:16:57.000Z</time>
      </trkpt>
      <trkpt lat="45.86084" lon="3.56239">
        <ele>461.60000610352</ele>
        <time>2024-11-15T19:16:58.000Z</time>
      </trkpt>
      <trkpt lat="45.86083" lon="3.56236">
        <ele>461.79998779297</ele>
        <time>2024-11-15T19:16:59.000Z</time>
      </trkpt>
      <trkpt lat="45.86083" lon="3.56234">
        <ele>461.79998779297</ele>
        <time>2024-11-15T19:17:00.000Z</time>
      </trkpt>
      <trkpt lat="45.86083" lon="3.56233">
        <ele>461.79998779297</ele>
        <time>2024-11-15T19:17:01.000Z</time>
      </trkpt>
      <trkpt lat="45.86083" lon="3.56231">
        <ele>462</ele>
        <time>2024-11-15T19:17:02.000Z</time>
      </trkpt>
      <trkpt lat="45.86083" lon="3.56229">
        <ele>462.20001220703</ele>
        <time>2024-11-15T19:17:03.000Z</time>
      </trkpt>
      <trkpt lat="45.86083" lon="3.56228">
        <ele>462.60000610352</ele>
        <time>2024-11-15T19:17:04.000Z</time>
      </trkpt>
      <trkpt lat="45.86083" lon="3.56227">
        <ele>462.79998779297</ele>
        <time>2024-11-15T19:17:05.000Z</time>
      </trkpt>
      <trkpt lat="45.86082" lon="3.56226">
        <ele>463.20001220703</ele>
        <time>2024-11-15T19:17:06.000Z</time>
      </trkpt>
      <trkpt lat="45.86082" lon="3.56225">
        <ele>463.39999389648</ele>
        <time>2024-11-15T19:17:07.000Z</time>
      </trkpt>
      <trkpt lat="45.86081" lon="3.56224">
        <ele>463.60000610352</ele>
        <time>2024-11-15T19:17:08.000Z</time>
      </trkpt>
      <trkpt lat="45.86081" lon="3.56223">
        <ele>464</ele>
        <time>2024-11-15T19:17:09.000Z</time>
      </trkpt>
      <trkpt lat="45.8608" lon="3.56222">
        <ele>464.39999389648</ele>
        <time>2024-11-15T19:17:10.000Z</time>
      </trkpt>
      <trkpt lat="45.8608" lon="3.56221">
        <ele>464.79998779297</ele>
        <time>2024-11-15T19:17:11.000Z</time>
      </trkpt>
      <trkpt lat="45.86079" lon="3.5622">
        <ele>465.39999389648</ele>
        <time>2024-11-15T19:17:12.000Z</time>
      </trkpt>
      <trkpt lat="45.86078" lon="3.56218">
        <ele>465.79998779297</ele>
        <time>2024-11-15T19:17:13.000Z</time>
      </trkpt>
      <trkpt lat="45.86078" lon="3.56217">
        <ele>466</ele>
        <time>2024-11-15T19:17:14.000Z</time>
      </trkpt>
      <trkpt lat="45.86077" lon="3.56215">
        <ele>466.39999389648</ele>
        <time>2024-11-15T19:17:15.000Z</time>
      </trkpt>
      <trkpt lat="45.86076" lon="3.56213">
        <ele>466.60000610352</ele>
        <time>2024-11-15T19:17:16.000Z</time>
      </trkpt>
      <trkpt lat="45.86076" lon="3.56211">
        <ele>466.60000610352</ele>
        <time>2024-11-15T19:17:17.000Z</time>
      </trkpt>
      <trkpt lat="45.86075" lon="3.56209">
        <ele>466.60000610352</ele>
        <time>2024-11-15T19:17:18.000Z</time>
      </trkpt>
      <trkpt lat="45.86074" lon="3.56207">
        <ele>466.39999389648</ele>
        <time>2024-11-15T19:17:19.000Z</time>
      </trkpt>
      <trkpt lat="45.86073" lon="3.56205">
        <ele>466.20001220703</ele>
        <time>2024-11-15T19:17:20.000Z</time>
      </trkpt>
      <trkpt lat="45.86072" lon="3.56203">
        <ele>465.60000610352</ele>
        <time>2024-11-15T19:17:21.000Z</time>
      </trkpt>
      <trkpt lat="45.86071" lon="3.56201">
        <ele>465.39999389648</ele>
        <time>2024-11-15T19:17:22.000Z</time>
      </trkpt>
      <trkpt lat="45.8607" lon="3.56198">
        <ele>465</ele>
        <time>2024-11-15T19:17:23.000Z</time>
      </trkpt>
      <trkpt lat="45.86069" lon="3.56196">
        <ele>465</ele>
        <time>2024-11-15T19:17:24.000Z</time>
      </trkpt>
      <trkpt lat="45.86068" lon="3.56193">
        <ele>464.60000610352</ele>
        <time>2024-11-15T19:17:25.000Z</time>
      </trkpt>
      <trkpt lat="45.86067" lon="3.56191">
        <ele>464.60000610352</ele>
        <time>2024-11-15T19:17:26.000Z</time>
      </trkpt>
      <trkpt lat="45.86067" lon="3.56189">
        <ele>464.60000610352</ele>
        <time>2024-11-15T19:17:27.000Z</time>
      </trkpt>
      <trkpt lat="45.86066" lon="3.56187">
        <ele>464.60000610352</ele>
        <time>2024-11-15T19:17:28.000Z</time>
      </trkpt>
      <trkpt lat="45.86065" lon="3.56185">
        <ele>464.79998779297</ele>
        <time>2024-11-15T19:17:29.000Z</time>
      </trkpt>
      <trkpt lat="45.86065" lon="3.56184">
        <ele>465</ele>
        <time>2024-11-15T19:17:30.000Z</time>
      </trkpt>
      <trkpt lat="45.86064" lon="3.56183">
        <ele>465</ele>
        <time>2024-11-15T19:17:31.000Z</time>
      </trkpt>
      <trkpt lat="45.86063" lon="3.56181">
        <ele>465.20001220703</ele>
        <time>2024-11-15T19:17:32.000Z</time>
      </trkpt>
      <trkpt lat="45.86063" lon="3.5618">
        <ele>465.20001220703</ele>
        <time>2024-11-15T19:17:33.000Z</time>
      </trkpt>
      <trkpt lat="45.86062" lon="3.56179">
        <ele>465.39999389648</ele>
        <time>2024-11-15T19:17:34.000Z</time>
      </trkpt>
      <trkpt lat="45.86062" lon="3.56177">
        <ele>465.60000610352</ele>
        <time>2024-11-15T19:17:35.000Z</time>
      </trkpt>
      <trkpt lat="45.86061" lon="3.56174">
        <ele>466</ele>
        <time>2024-11-15T19:17:36.000Z</time>
      </trkpt>
      <trkpt lat="45.86061" lon="3.56172">
        <ele>466.39999389648</ele>
        <time>2024-11-15T19:17:37.000Z</time>
      </trkpt>
      <trkpt lat="45.86061" lon="3.5617">
        <ele>466.79998779297</ele>
        <time>2024-11-15T19:17:38.000Z</time>
      </trkpt>
      <trkpt lat="45.86061" lon="3.56167">
        <ele>467.20001220703</ele>
        <time>2024-11-15T19:17:39.000Z</time>
      </trkpt>
      <trkpt lat="45.8606" lon="3.56165">
        <ele>467.39999389648</ele>
        <time>2024-11-15T19:17:40.000Z</time>
      </trkpt>
      <trkpt lat="45.8606" lon="3.56163">
        <ele>467.60000610352</ele>
        <time>2024-11-15T19:17:41.000Z</time>
      </trkpt>
      <trkpt lat="45.86059" lon="3.56161">
        <ele>467.79998779297</ele>
        <time>2024-11-15T19:17:42.000Z</time>
      </trkpt>
      <trkpt lat="45.86059" lon="3.56159">
        <ele>468.79998779297</ele>
        <time>2024-11-15T19:17:43.000Z</time>
      </trkpt>
      <trkpt lat="45.86059" lon="3.56158">
        <ele>469.60000610352</ele>
        <time>2024-11-15T19:17:44.000Z</time>
      </trkpt>
      <trkpt lat="45.86059" lon="3.56157">
        <ele>469.60000610352</ele>
        <time>2024-11-15T19:17:45.000Z</time>
      </trkpt>
      <trkpt lat="45.86059" lon="3.56156">
        <ele>469.60000610352</ele>
        <time>2024-11-15T19:17:46.000Z</time>
      </trkpt>
      <trkpt lat="45.86059" lon="3.56155">
        <ele>470</ele>
        <time>2024-11-15T19:17:47.000Z</time>
      </trkpt>
      <trkpt lat="45.86059" lon="3.56155">
        <ele>470.20001220703</ele>
        <time>2024-11-15T19:17:48.000Z</time>
      </trkpt>
      <trkpt lat="45.86059" lon="3.56155">
        <ele>470.60000610352</ele>
        <time>2024-11-15T19:17:49.000Z</time>
      </trkpt>
      <trkpt lat="45.86059" lon="3.56154">
        <ele>470.79998779297</ele>
        <time>2024-11-15T19:17:50.000Z</time>
      </trkpt>
      <trkpt lat="45.86059" lon="3.56154">
        <ele>471.20001220703</ele>
        <time>2024-11-15T19:17:51.000Z</time>
      </trkpt>
      <trkpt lat="45.86058" lon="3.56153">
        <ele>471.39999389648</ele>
        <time>2024-11-15T19:17:52.000Z</time>
      </trkpt>
      <trkpt lat="45.86058" lon="3.56152">
        <ele>471.60000610352</ele>
        <time>2024-11-15T19:17:53.000Z</time>
      </trkpt>
      <trkpt lat="45.86058" lon="3.56151">
        <ele>472</ele>
        <time>2024-11-15T19:17:54.000Z</time>
      </trkpt>
      <trkpt lat="45.86058" lon="3.56151">
        <ele>472</ele>
        <time>2024-11-15T19:17:55.000Z</time>
      </trkpt>
      <trkpt lat="45.86058" lon="3.5615">
        <ele>472.39999389648</ele>
        <time>2024-11-15T19:17:56.000Z</time>
      </trkpt>
      <trkpt lat="45.86058" lon="3.56149">
        <ele>472.60000610352</ele>
        <time>2024-11-15T19:17:57.000Z</time>
      </trkpt>
      <trkpt lat="45.86058" lon="3.56148">
        <ele>473</ele>
        <time>2024-11-15T19:17:58.000Z</time>
      </trkpt>
      <trkpt lat="45.86058" lon="3.56147">
        <ele>473.39999389648</ele>
        <time>2024-11-15T19:17:59.000Z</time>
      </trkpt>
      <trkpt lat="45.86058" lon="3.56146">
        <ele>473.39999389648</ele>
        <time>2024-11-15T19:18:00.000Z</time>
      </trkpt>
      <trkpt lat="45.86058" lon="3.56144">
        <ele>473.79998779297</ele>
        <time>2024-11-15T19:18:01.000Z</time>
      </trkpt>
      <trkpt lat="45.86058" lon="3.56143">
        <ele>474.20001220703</ele>
        <time>2024-11-15T19:18:02.000Z</time>
      </trkpt>
      <trkpt lat="45.86057" lon="3.56142">
        <ele>474.39999389648</ele>
        <time>2024-11-15T19:18:03.000Z</time>
      </trkpt>
      <trkpt lat="45.86057" lon="3.56141">
        <ele>474.79998779297</ele>
        <time>2024-11-15T19:18:04.000Z</time>
      </trkpt>
      <trkpt lat="45.86057" lon="3.5614">
        <ele>475.20001220703</ele>
        <time>2024-11-15T19:18:05.000Z</time>
      </trkpt>
      <trkpt lat="45.86058" lon="3.56139">
        <ele>475.39999389648</ele>
        <time>2024-11-15T19:18:06.000Z</time>
      </trkpt>
      <trkpt lat="45.86058" lon="3.56138">
        <ele>475.39999389648</ele>
        <time>2024-11-15T19:18:07.000Z</time>
      </trkpt>
      <trkpt lat="45.86058" lon="3.56136">
        <ele>475.60000610352</ele>
        <time>2024-11-15T19:18:08.000Z</time>
      </trkpt>
      <trkpt lat="45.86059" lon="3.56135">
        <ele>476</ele>
        <time>2024-11-15T19:18:09.000Z</time>
      </trkpt>
      <trkpt lat="45.8606" lon="3.56134">
        <ele>476.39999389648</ele>
        <time>2024-11-15T19:18:10.000Z</time>
      </trkpt>
      <trkpt lat="45.86061" lon="3.56133">
        <ele>476.79998779297</ele>
        <time>2024-11-15T19:18:11.000Z</time>
      </trkpt>
      <trkpt lat="45.86062" lon="3.56132">
        <ele>476.79998779297</ele>
        <time>2024-11-15T19:18:12.000Z</time>
      </trkpt>
      <trkpt lat="45.86062" lon="3.5613">
        <ele>476.79998779297</ele>
        <time>2024-11-15T19:18:13.000Z</time>
      </trkpt>
      <trkpt lat="45.86062" lon="3.56128">
        <ele>476.79998779297</ele>
        <time>2024-11-15T19:18:14.000Z</time>
      </trkpt>
      <trkpt lat="45.86062" lon="3.56126">
        <ele>476.60000610352</ele>
        <time>2024-11-15T19:18:15.000Z</time>
      </trkpt>
      <trkpt lat="45.86062" lon="3.56124">
        <ele>476.20001220703</ele>
        <time>2024-11-15T19:18:16.000Z</time>
      </trkpt>
      <trkpt lat="45.86061" lon="3.56122">
        <ele>476</ele>
        <time>2024-11-15T19:18:17.000Z</time>
      </trkpt>
      <trkpt lat="45.86061" lon="3.56119">
        <ele>475.79998779297</ele>
        <time>2024-11-15T19:18:18.000Z</time>
      </trkpt>
      <trkpt lat="45.8606" lon="3.56117">
        <ele>475.79998779297</ele>
        <time>2024-11-15T19:18:19.000Z</time>
      </trkpt>
      <trkpt lat="45.86059" lon="3.56115">
        <ele>475.60000610352</ele>
        <time>2024-11-15T19:18:20.000Z</time>
      </trkpt>
      <trkpt lat="45.86058" lon="3.56113">
        <ele>475.39999389648</ele>
        <time>2024-11-15T19:18:21.000Z</time>
      </trkpt>
      <trkpt lat="45.86057" lon="3.56111">
        <ele>475.39999389648</ele>
        <time>2024-11-15T19:18:22.000Z</time>
      </trkpt>
      <trkpt lat="45.86056" lon="3.56109">
        <ele>475.39999389648</ele>
        <time>2024-11-15T19:18:23.000Z</time>
      </trkpt>
      <trkpt lat="45.86055" lon="3.56107">
        <ele>475.39999389648</ele>
        <time>2024-11-15T19:18:24.000Z</time>
      </trkpt>
      <trkpt lat="45.86054" lon="3.56106">
        <ele>475.20001220703</ele>
        <time>2024-11-15T19:18:25.000Z</time>
      </trkpt>
      <trkpt lat="45.86053" lon="3.56104">
        <ele>475.20001220703</ele>
        <time>2024-11-15T19:18:26.000Z</time>
      </trkpt>
      <trkpt lat="45.86052" lon="3.56102">
        <ele>475.20001220703</ele>
        <time>2024-11-15T19:18:27.000Z</time>
      </trkpt>
      <trkpt lat="45.86051" lon="3.56101">
        <ele>475</ele>
        <time>2024-11-15T19:18:28.000Z</time>
      </trkpt>
      <trkpt lat="45.8605" lon="3.56099">
        <ele>475</ele>
        <time>2024-11-15T19:18:29.000Z</time>
      </trkpt>
      <trkpt lat="45.86049" lon="3.56098">
        <ele>474.79998779297</ele>
        <time>2024-11-15T19:18:30.000Z</time>
      </trkpt>
      <trkpt lat="45.86047" lon="3.56097">
        <ele>474.60000610352</ele>
        <time>2024-11-15T19:18:31.000Z</time>
      </trkpt>
      <trkpt lat="45.86046" lon="3.56096">
        <ele>474.60000610352</ele>
        <time>2024-11-15T19:18:32.000Z</time>
      </trkpt>
      <trkpt lat="45.86044" lon="3.56094">
        <ele>474.60000610352</ele>
        <time>2024-11-15T19:18:33.000Z</time>
      </trkpt>
      <trkpt lat="45.86043" lon="3.56093">
        <ele>474.60000610352</ele>
        <time>2024-11-15T19:18:34.000Z</time>
      </trkpt>
      <trkpt lat="45.86041" lon="3.56091">
        <ele>474.20001220703</ele>
        <time>2024-11-15T19:18:35.000Z</time>
      </trkpt>
      <trkpt lat="45.86039" lon="3.56089">
        <ele>474</ele>
        <time>2024-11-15T19:18:36.000Z</time>
      </trkpt>
      <trkpt lat="45.86038" lon="3.56086">
        <ele>473.79998779297</ele>
        <time>2024-11-15T19:18:37.000Z</time>
      </trkpt>
      <trkpt lat="45.86037" lon="3.56084">
        <ele>473.20001220703</ele>
        <time>2024-11-15T19:18:38.000Z</time>
      </trkpt>
      <trkpt lat="45.86036" lon="3.56081">
        <ele>473</ele>
        <time>2024-11-15T19:18:39.000Z</time>
      </trkpt>
      <trkpt lat="45.86035" lon="3.56077">
        <ele>472.79998779297</ele>
        <time>2024-11-15T19:18:40.000Z</time>
      </trkpt>
      <trkpt lat="45.86035" lon="3.56074">
        <ele>472.79998779297</ele>
        <time>2024-11-15T19:18:41.000Z</time>
      </trkpt>
      <trkpt lat="45.86035" lon="3.56071">
        <ele>472.60000610352</ele>
        <time>2024-11-15T19:18:42.000Z</time>
      </trkpt>
      <trkpt lat="45.86034" lon="3.56069">
        <ele>472.39999389648</ele>
        <time>2024-11-15T19:18:43.000Z</time>
      </trkpt>
      <trkpt lat="45.86034" lon="3.56068">
        <ele>472</ele>
        <time>2024-11-15T19:18:44.000Z</time>
      </trkpt>
      <trkpt lat="45.86034" lon="3.56067">
        <ele>471.79998779297</ele>
        <time>2024-11-15T19:18:45.000Z</time>
      </trkpt>
      <trkpt lat="45.86034" lon="3.56066">
        <ele>471.79998779297</ele>
        <time>2024-11-15T19:18:46.000Z</time>
      </trkpt>
      <trkpt lat="45.86034" lon="3.56066">
        <ele>471.79998779297</ele>
        <time>2024-11-15T19:18:47.000Z</time>
      </trkpt>
      <trkpt lat="45.86034" lon="3.56065">
        <ele>471.79998779297</ele>
        <time>2024-11-15T19:18:48.000Z</time>
      </trkpt>
      <trkpt lat="45.86033" lon="3.56065">
        <ele>472</ele>
        <time>2024-11-15T19:18:49.000Z</time>
      </trkpt>
      <trkpt lat="45.86033" lon="3.56064">
        <ele>472</ele>
        <time>2024-11-15T19:18:50.000Z</time>
      </trkpt>
      <trkpt lat="45.86033" lon="3.56062">
        <ele>472</ele>
        <time>2024-11-15T19:18:51.000Z</time>
      </trkpt>
      <trkpt lat="45.86033" lon="3.56059">
        <ele>472.20001220703</ele>
        <time>2024-11-15T19:18:52.000Z</time>
      </trkpt>
      <trkpt lat="45.86033" lon="3.56056">
        <ele>472.20001220703</ele>
        <time>2024-11-15T19:18:53.000Z</time>
      </trkpt>
      <trkpt lat="45.86033" lon="3.56053">
        <ele>472.39999389648</ele>
        <time>2024-11-15T19:18:54.000Z</time>
      </trkpt>
      <trkpt lat="45.86033" lon="3.5605">
        <ele>472.79998779297</ele>
        <time>2024-11-15T19:18:55.000Z</time>
      </trkpt>
      <trkpt lat="45.86034" lon="3.56046">
        <ele>472.79998779297</ele>
        <time>2024-11-15T19:18:56.000Z</time>
      </trkpt>
      <trkpt lat="45.86034" lon="3.56043">
        <ele>472.79998779297</ele>
        <time>2024-11-15T19:18:57.000Z</time>
      </trkpt>
      <trkpt lat="45.86035" lon="3.56041">
        <ele>473</ele>
        <time>2024-11-15T19:18:58.000Z</time>
      </trkpt>
      <trkpt lat="45.86035" lon="3.56039">
        <ele>473</ele>
        <time>2024-11-15T19:18:59.000Z</time>
      </trkpt>
      <trkpt lat="45.86036" lon="3.56037">
        <ele>472.79998779297</ele>
        <time>2024-11-15T19:19:00.000Z</time>
      </trkpt>
      <trkpt lat="45.86037" lon="3.56035">
        <ele>472.79998779297</ele>
        <time>2024-11-15T19:19:01.000Z</time>
      </trkpt>
      <trkpt lat="45.86038" lon="3.56032">
        <ele>472.79998779297</ele>
        <time>2024-11-15T19:19:02.000Z</time>
      </trkpt>
      <trkpt lat="45.86038" lon="3.56029">
        <ele>472.60000610352</ele>
        <time>2024-11-15T19:19:03.000Z</time>
      </trkpt>
      <trkpt lat="45.86038" lon="3.56026">
        <ele>472.39999389648</ele>
        <time>2024-11-15T19:19:04.000Z</time>
      </trkpt>
      <trkpt lat="45.86038" lon="3.56024">
        <ele>472.39999389648</ele>
        <time>2024-11-15T19:19:05.000Z</time>
      </trkpt>
      <trkpt lat="45.86038" lon="3.56022">
        <ele>472.39999389648</ele>
        <time>2024-11-15T19:19:06.000Z</time>
      </trkpt>
      <trkpt lat="45.86037" lon="3.56019">
        <ele>472.39999389648</ele>
        <time>2024-11-15T19:19:07.000Z</time>
      </trkpt>
      <trkpt lat="45.86037" lon="3.56017">
        <ele>472.60000610352</ele>
        <time>2024-11-15T19:19:08.000Z</time>
      </trkpt>
      <trkpt lat="45.86037" lon="3.56015">
        <ele>473.20001220703</ele>
        <time>2024-11-15T19:19:09.000Z</time>
      </trkpt>
      <trkpt lat="45.86036" lon="3.56013">
        <ele>473.20001220703</ele>
        <time>2024-11-15T19:19:10.000Z</time>
      </trkpt>
      <trkpt lat="45.86035" lon="3.56011">
        <ele>473.20001220703</ele>
        <time>2024-11-15T19:19:11.000Z</time>
      </trkpt>
      <trkpt lat="45.86034" lon="3.56009">
        <ele>473.39999389648</ele>
        <time>2024-11-15T19:19:12.000Z</time>
      </trkpt>
      <trkpt lat="45.86032" lon="3.56007">
        <ele>473.20001220703</ele>
        <time>2024-11-15T19:19:13.000Z</time>
      </trkpt>
      <trkpt lat="45.86031" lon="3.56005">
        <ele>473.39999389648</ele>
        <time>2024-11-15T19:19:14.000Z</time>
      </trkpt>
      <trkpt lat="45.8603" lon="3.56003">
        <ele>473.39999389648</ele>
        <time>2024-11-15T19:19:15.000Z</time>
      </trkpt>
      <trkpt lat="45.86029" lon="3.56002">
        <ele>473.39999389648</ele>
        <time>2024-11-15T19:19:16.000Z</time>
      </trkpt>
      <trkpt lat="45.86028" lon="3.56">
        <ele>473.39999389648</ele>
        <time>2024-11-15T19:19:17.000Z</time>
      </trkpt>
      <trkpt lat="45.86027" lon="3.55998">
        <ele>473.39999389648</ele>
        <time>2024-11-15T19:19:18.000Z</time>
      </trkpt>
      <trkpt lat="45.86026" lon="3.55996">
        <ele>473.39999389648</ele>
        <time>2024-11-15T19:19:19.000Z</time>
      </trkpt>
      <trkpt lat="45.86026" lon="3.55993">
        <ele>473.39999389648</ele>
        <time>2024-11-15T19:19:20.000Z</time>
      </trkpt>
      <trkpt lat="45.86025" lon="3.55991">
        <ele>473.39999389648</ele>
        <time>2024-11-15T19:19:21.000Z</time>
      </trkpt>
      <trkpt lat="45.86024" lon="3.55989">
        <ele>473.20001220703</ele>
        <time>2024-11-15T19:19:22.000Z</time>
      </trkpt>
      <trkpt lat="45.86024" lon="3.55986">
        <ele>473</ele>
        <time>2024-11-15T19:19:23.000Z</time>
      </trkpt>
      <trkpt lat="45.86023" lon="3.55984">
        <ele>473</ele>
        <time>2024-11-15T19:19:24.000Z</time>
      </trkpt>
      <trkpt lat="45.86023" lon="3.55981">
        <ele>473</ele>
        <time>2024-11-15T19:19:25.000Z</time>
      </trkpt>
      <trkpt lat="45.86022" lon="3.55979">
        <ele>473</ele>
        <time>2024-11-15T19:19:26.000Z</time>
      </trkpt>
      <trkpt lat="45.86022" lon="3.55976">
        <ele>473.20001220703</ele>
        <time>2024-11-15T19:19:27.000Z</time>
      </trkpt>
      <trkpt lat="45.86021" lon="3.55974">
        <ele>473.39999389648</ele>
        <time>2024-11-15T19:19:28.000Z</time>
      </trkpt>
      <trkpt lat="45.86021" lon="3.55971">
        <ele>473.60000610352</ele>
        <time>2024-11-15T19:19:29.000Z</time>
      </trkpt>
      <trkpt lat="45.86021" lon="3.55969">
        <ele>473.60000610352</ele>
        <time>2024-11-15T19:19:30.000Z</time>
      </trkpt>
      <trkpt lat="45.8602" lon="3.55967">
        <ele>473.79998779297</ele>
        <time>2024-11-15T19:19:31.000Z</time>
      </trkpt>
      <trkpt lat="45.8602" lon="3.55965">
        <ele>473.79998779297</ele>
        <time>2024-11-15T19:19:32.000Z</time>
      </trkpt>
      <trkpt lat="45.8602" lon="3.55963">
        <ele>473.79998779297</ele>
        <time>2024-11-15T19:19:33.000Z</time>
      </trkpt>
      <trkpt lat="45.86019" lon="3.55961">
        <ele>474</ele>
        <time>2024-11-15T19:19:34.000Z</time>
      </trkpt>
      <trkpt lat="45.86019" lon="3.55958">
        <ele>474.39999389648</ele>
        <time>2024-11-15T19:19:35.000Z</time>
      </trkpt>
      <trkpt lat="45.86019" lon="3.55956">
        <ele>474.79998779297</ele>
        <time>2024-11-15T19:19:36.000Z</time>
      </trkpt>
      <trkpt lat="45.86018" lon="3.55954">
        <ele>474.79998779297</ele>
        <time>2024-11-15T19:19:37.000Z</time>
      </trkpt>
      <trkpt lat="45.86018" lon="3.55951">
        <ele>475.20001220703</ele>
        <time>2024-11-15T19:19:38.000Z</time>
      </trkpt>
      <trkpt lat="45.86017" lon="3.55949">
        <ele>475.60000610352</ele>
        <time>2024-11-15T19:19:39.000Z</time>
      </trkpt>
      <trkpt lat="45.86017" lon="3.55947">
        <ele>476</ele>
        <time>2024-11-15T19:19:40.000Z</time>
      </trkpt>
      <trkpt lat="45.86016" lon="3.55944">
        <ele>476</ele>
        <time>2024-11-15T19:19:41.000Z</time>
      </trkpt>
      <trkpt lat="45.86016" lon="3.55942">
        <ele>476.39999389648</ele>
        <time>2024-11-15T19:19:42.000Z</time>
      </trkpt>
      <trkpt lat="45.86015" lon="3.5594">
        <ele>476.39999389648</ele>
        <time>2024-11-15T19:19:43.000Z</time>
      </trkpt>
      <trkpt lat="45.86015" lon="3.55938">
        <ele>476.60000610352</ele>
        <time>2024-11-15T19:19:44.000Z</time>
      </trkpt>
      <trkpt lat="45.86014" lon="3.55937">
        <ele>476.79998779297</ele>
        <time>2024-11-15T19:19:45.000Z</time>
      </trkpt>
      <trkpt lat="45.86014" lon="3.55936">
        <ele>477</ele>
        <time>2024-11-15T19:19:46.000Z</time>
      </trkpt>
      <trkpt lat="45.86013" lon="3.55935">
        <ele>477.20001220703</ele>
        <time>2024-11-15T19:19:47.000Z</time>
      </trkpt>
      <trkpt lat="45.86013" lon="3.55935">
        <ele>477.20001220703</ele>
        <time>2024-11-15T19:19:48.000Z</time>
      </trkpt>
      <trkpt lat="45.86012" lon="3.55933">
        <ele>477.20001220703</ele>
        <time>2024-11-15T19:19:49.000Z</time>
      </trkpt>
      <trkpt lat="45.86012" lon="3.55932">
        <ele>477</ele>
        <time>2024-11-15T19:19:50.000Z</time>
      </trkpt>
      <trkpt lat="45.86011" lon="3.5593">
        <ele>477</ele>
        <time>2024-11-15T19:19:51.000Z</time>
      </trkpt>
      <trkpt lat="45.86011" lon="3.55929">
        <ele>476.20001220703</ele>
        <time>2024-11-15T19:19:52.000Z</time>
      </trkpt>
      <trkpt lat="45.8601" lon="3.55927">
        <ele>475.20001220703</ele>
        <time>2024-11-15T19:19:53.000Z</time>
      </trkpt>
      <trkpt lat="45.8601" lon="3.55926">
        <ele>474.79998779297</ele>
        <time>2024-11-15T19:19:54.000Z</time>
      </trkpt>
      <trkpt lat="45.86009" lon="3.55925">
        <ele>474.39999389648</ele>
        <time>2024-11-15T19:19:55.000Z</time>
      </trkpt>
      <trkpt lat="45.86009" lon="3.55923">
        <ele>474</ele>
        <time>2024-11-15T19:19:56.000Z</time>
      </trkpt>
      <trkpt lat="45.86008" lon="3.55922">
        <ele>473.79998779297</ele>
        <time>2024-11-15T19:19:57.000Z</time>
      </trkpt>
      <trkpt lat="45.86008" lon="3.55921">
        <ele>473.60000610352</ele>
        <time>2024-11-15T19:19:58.000Z</time>
      </trkpt>
      <trkpt lat="45.86007" lon="3.5592">
        <ele>473</ele>
        <time>2024-11-15T19:19:59.000Z</time>
      </trkpt>
      <trkpt lat="45.86006" lon="3.55919">
        <ele>472.79998779297</ele>
        <time>2024-11-15T19:20:00.000Z</time>
      </trkpt>
      <trkpt lat="45.86005" lon="3.55919">
        <ele>472.39999389648</ele>
        <time>2024-11-15T19:20:01.000Z</time>
      </trkpt>
      <trkpt lat="45.86004" lon="3.55919">
        <ele>471.79998779297</ele>
        <time>2024-11-15T19:20:02.000Z</time>
      </trkpt>
      <trkpt lat="45.86003" lon="3.55919">
        <ele>471.39999389648</ele>
        <time>2024-11-15T19:20:03.000Z</time>
      </trkpt>
      <trkpt lat="45.86002" lon="3.55919">
        <ele>470.79998779297</ele>
        <time>2024-11-15T19:20:04.000Z</time>
      </trkpt>
      <trkpt lat="45.86001" lon="3.55918">
        <ele>470.60000610352</ele>
        <time>2024-11-15T19:20:05.000Z</time>
      </trkpt>
      <trkpt lat="45.86" lon="3.55917">
        <ele>470.39999389648</ele>
        <time>2024-11-15T19:20:06.000Z</time>
      </trkpt>
      <trkpt lat="45.85999" lon="3.55917">
        <ele>470</ele>
        <time>2024-11-15T19:20:07.000Z</time>
      </trkpt>
      <trkpt lat="45.85998" lon="3.55917">
        <ele>469.79998779297</ele>
        <time>2024-11-15T19:20:08.000Z</time>
      </trkpt>
      <trkpt lat="45.85998" lon="3.55916">
        <ele>469.39999389648</ele>
        <time>2024-11-15T19:20:09.000Z</time>
      </trkpt>
      <trkpt lat="45.85997" lon="3.55916">
        <ele>468.60000610352</ele>
        <time>2024-11-15T19:20:10.000Z</time>
      </trkpt>
      <trkpt lat="45.85997" lon="3.55915">
        <ele>467.79998779297</ele>
        <time>2024-11-15T19:20:11.000Z</time>
      </trkpt>
      <trkpt lat="45.85996" lon="3.55914">
        <ele>467.60000610352</ele>
        <time>2024-11-15T19:20:12.000Z</time>
      </trkpt>
      <trkpt lat="45.85995" lon="3.55913">
        <ele>467.39999389648</ele>
        <time>2024-11-15T19:20:13.000Z</time>
      </trkpt>
      <trkpt lat="45.85994" lon="3.55913">
        <ele>467.20001220703</ele>
        <time>2024-11-15T19:20:14.000Z</time>
      </trkpt>
      <trkpt lat="45.85993" lon="3.55912">
        <ele>466.79998779297</ele>
        <time>2024-11-15T19:20:15.000Z</time>
      </trkpt>
      <trkpt lat="45.85992" lon="3.55911">
        <ele>466.39999389648</ele>
        <time>2024-11-15T19:20:16.000Z</time>
      </trkpt>
      <trkpt lat="45.85991" lon="3.55911">
        <ele>465.79998779297</ele>
        <time>2024-11-15T19:20:17.000Z</time>
      </trkpt>
      <trkpt lat="45.85989" lon="3.55911">
        <ele>465.20001220703</ele>
        <time>2024-11-15T19:20:18.000Z</time>
      </trkpt>
      <trkpt lat="45.85987" lon="3.5591">
        <ele>464.79998779297</ele>
        <time>2024-11-15T19:20:19.000Z</time>
      </trkpt>
      <trkpt lat="45.85986" lon="3.5591">
        <ele>464</ele>
        <time>2024-11-15T19:20:20.000Z</time>
      </trkpt>
      <trkpt lat="45.85984" lon="3.5591">
        <ele>463.79998779297</ele>
        <time>2024-11-15T19:20:21.000Z</time>
      </trkpt>
      <trkpt lat="45.85982" lon="3.55911">
        <ele>463.39999389648</ele>
        <time>2024-11-15T19:20:22.000Z</time>
      </trkpt>
      <trkpt lat="45.85981" lon="3.55911">
        <ele>463.20001220703</ele>
        <time>2024-11-15T19:20:23.000Z</time>
      </trkpt>
      <trkpt lat="45.8598" lon="3.55912">
        <ele>463</ele>
        <time>2024-11-15T19:20:24.000Z</time>
      </trkpt>
      <trkpt lat="45.85979" lon="3.55912">
        <ele>462.60000610352</ele>
        <time>2024-11-15T19:20:25.000Z</time>
      </trkpt>
      <trkpt lat="45.85978" lon="3.55913">
        <ele>462.20001220703</ele>
        <time>2024-11-15T19:20:26.000Z</time>
      </trkpt>
      <trkpt lat="45.85977" lon="3.55913">
        <ele>462</ele>
        <time>2024-11-15T19:20:27.000Z</time>
      </trkpt>
      <trkpt lat="45.85976" lon="3.55914">
        <ele>461.60000610352</ele>
        <time>2024-11-15T19:20:28.000Z</time>
      </trkpt>
      <trkpt lat="45.85975" lon="3.55914">
        <ele>461</ele>
        <time>2024-11-15T19:20:29.000Z</time>
      </trkpt>
      <trkpt lat="45.85973" lon="3.55915">
        <ele>460.60000610352</ele>
        <time>2024-11-15T19:20:30.000Z</time>
      </trkpt>
      <trkpt lat="45.85972" lon="3.55916">
        <ele>459.79998779297</ele>
        <time>2024-11-15T19:20:31.000Z</time>
      </trkpt>
      <trkpt lat="45.85971" lon="3.55917">
        <ele>459.39999389648</ele>
        <time>2024-11-15T19:20:32.000Z</time>
      </trkpt>
      <trkpt lat="45.85971" lon="3.55918">
        <ele>459</ele>
        <time>2024-11-15T19:20:33.000Z</time>
      </trkpt>
      <trkpt lat="45.8597" lon="3.55919">
        <ele>458.60000610352</ele>
        <time>2024-11-15T19:20:34.000Z</time>
      </trkpt>
      <trkpt lat="45.85969" lon="3.55919">
        <ele>458.20001220703</ele>
        <time>2024-11-15T19:20:35.000Z</time>
      </trkpt>
      <trkpt lat="45.85968" lon="3.55919">
        <ele>457.79998779297</ele>
        <time>2024-11-15T19:20:36.000Z</time>
      </trkpt>
      <trkpt lat="45.85967" lon="3.5592">
        <ele>457.60000610352</ele>
        <time>2024-11-15T19:20:37.000Z</time>
      </trkpt>
      <trkpt lat="45.85967" lon="3.5592">
        <ele>457.39999389648</ele>
        <time>2024-11-15T19:20:38.000Z</time>
      </trkpt>
      <trkpt lat="45.85966" lon="3.5592">
        <ele>456.79998779297</ele>
        <time>2024-11-15T19:20:39.000Z</time>
      </trkpt>
      <trkpt lat="45.85966" lon="3.55921">
        <ele>456.20001220703</ele>
        <time>2024-11-15T19:20:40.000Z</time>
      </trkpt>
      <trkpt lat="45.85965" lon="3.55921">
        <ele>455.79998779297</ele>
        <time>2024-11-15T19:20:41.000Z</time>
      </trkpt>
      <trkpt lat="45.85964" lon="3.55922">
        <ele>455.39999389648</ele>
        <time>2024-11-15T19:20:42.000Z</time>
      </trkpt>
      <trkpt lat="45.85963" lon="3.55922">
        <ele>455</ele>
        <time>2024-11-15T19:20:43.000Z</time>
      </trkpt>
      <trkpt lat="45.85962" lon="3.55923">
        <ele>454.60000610352</ele>
        <time>2024-11-15T19:20:44.000Z</time>
      </trkpt>
      <trkpt lat="45.85961" lon="3.55923">
        <ele>454.39999389648</ele>
        <time>2024-11-15T19:20:45.000Z</time>
      </trkpt>
      <trkpt lat="45.85959" lon="3.55924">
        <ele>454.20001220703</ele>
        <time>2024-11-15T19:20:46.000Z</time>
      </trkpt>
      <trkpt lat="45.85958" lon="3.55925">
        <ele>454</ele>
        <time>2024-11-15T19:20:47.000Z</time>
      </trkpt>
      <trkpt lat="45.85956" lon="3.55926">
        <ele>453.79998779297</ele>
        <time>2024-11-15T19:20:48.000Z</time>
      </trkpt>
      <trkpt lat="45.85955" lon="3.55926">
        <ele>452.79998779297</ele>
        <time>2024-11-15T19:20:49.000Z</time>
      </trkpt>
      <trkpt lat="45.85954" lon="3.55927">
        <ele>452.20001220703</ele>
        <time>2024-11-15T19:20:50.000Z</time>
      </trkpt>
      <trkpt lat="45.85952" lon="3.55928">
        <ele>451.79998779297</ele>
        <time>2024-11-15T19:20:51.000Z</time>
      </trkpt>
      <trkpt lat="45.85951" lon="3.55928">
        <ele>451.20001220703</ele>
        <time>2024-11-15T19:20:52.000Z</time>
      </trkpt>
      <trkpt lat="45.8595" lon="3.55929">
        <ele>451.20001220703</ele>
        <time>2024-11-15T19:20:53.000Z</time>
      </trkpt>
      <trkpt lat="45.85948" lon="3.5593">
        <ele>450.79998779297</ele>
        <time>2024-11-15T19:20:54.000Z</time>
      </trkpt>
      <trkpt lat="45.85947" lon="3.55931">
        <ele>450.60000610352</ele>
        <time>2024-11-15T19:20:55.000Z</time>
      </trkpt>
      <trkpt lat="45.85946" lon="3.55932">
        <ele>449.79998779297</ele>
        <time>2024-11-15T19:20:56.000Z</time>
      </trkpt>
      <trkpt lat="45.85945" lon="3.55934">
        <ele>449.39999389648</ele>
        <time>2024-11-15T19:20:57.000Z</time>
      </trkpt>
      <trkpt lat="45.85944" lon="3.55935">
        <ele>449.39999389648</ele>
        <time>2024-11-15T19:20:58.000Z</time>
      </trkpt>
      <trkpt lat="45.85943" lon="3.55937">
        <ele>449.39999389648</ele>
        <time>2024-11-15T19:20:59.000Z</time>
      </trkpt>
      <trkpt lat="45.85942" lon="3.55939">
        <ele>449.39999389648</ele>
        <time>2024-11-15T19:21:00.000Z</time>
      </trkpt>
      <trkpt lat="45.85941" lon="3.5594">
        <ele>449.20001220703</ele>
        <time>2024-11-15T19:21:01.000Z</time>
      </trkpt>
      <trkpt lat="45.8594" lon="3.55941">
        <ele>449.20001220703</ele>
        <time>2024-11-15T19:21:02.000Z</time>
      </trkpt>
      <trkpt lat="45.85939" lon="3.55943">
        <ele>449.20001220703</ele>
        <time>2024-11-15T19:21:03.000Z</time>
      </trkpt>
      <trkpt lat="45.85937" lon="3.55945">
        <ele>448.79998779297</ele>
        <time>2024-11-15T19:21:04.000Z</time>
      </trkpt>
      <trkpt lat="45.85936" lon="3.55946">
        <ele>448.79998779297</ele>
        <time>2024-11-15T19:21:05.000Z</time>
      </trkpt>
      <trkpt lat="45.85934" lon="3.55948">
        <ele>448.60000610352</ele>
        <time>2024-11-15T19:21:06.000Z</time>
      </trkpt>
      <trkpt lat="45.85933" lon="3.55949">
        <ele>448.39999389648</ele>
        <time>2024-11-15T19:21:07.000Z</time>
      </trkpt>
      <trkpt lat="45.85931" lon="3.55949">
        <ele>448.20001220703</ele>
        <time>2024-11-15T19:21:08.000Z</time>
      </trkpt>
      <trkpt lat="45.8593" lon="3.5595">
        <ele>448.20001220703</ele>
        <time>2024-11-15T19:21:09.000Z</time>
      </trkpt>
      <trkpt lat="45.85928" lon="3.55951">
        <ele>447.79998779297</ele>
        <time>2024-11-15T19:21:10.000Z</time>
      </trkpt>
      <trkpt lat="45.85926" lon="3.55951">
        <ele>447.79998779297</ele>
        <time>2024-11-15T19:21:11.000Z</time>
      </trkpt>
      <trkpt lat="45.85925" lon="3.55951">
        <ele>447.60000610352</ele>
        <time>2024-11-15T19:21:12.000Z</time>
      </trkpt>
      <trkpt lat="45.85923" lon="3.5595">
        <ele>447.39999389648</ele>
        <time>2024-11-15T19:21:13.000Z</time>
      </trkpt>
      <trkpt lat="45.85921" lon="3.55948">
        <ele>447.39999389648</ele>
        <time>2024-11-15T19:21:14.000Z</time>
      </trkpt>
      <trkpt lat="45.85919" lon="3.55947">
        <ele>447</ele>
        <time>2024-11-15T19:21:15.000Z</time>
      </trkpt>
      <trkpt lat="45.85918" lon="3.55945">
        <ele>447</ele>
        <time>2024-11-15T19:21:16.000Z</time>
      </trkpt>
      <trkpt lat="45.85916" lon="3.55942">
        <ele>446.79998779297</ele>
        <time>2024-11-15T19:21:17.000Z</time>
      </trkpt>
      <trkpt lat="45.85915" lon="3.5594">
        <ele>446.39999389648</ele>
        <time>2024-11-15T19:21:18.000Z</time>
      </trkpt>
      <trkpt lat="45.85913" lon="3.55938">
        <ele>446</ele>
        <time>2024-11-15T19:21:19.000Z</time>
      </trkpt>
      <trkpt lat="45.85912" lon="3.55935">
        <ele>445.79998779297</ele>
        <time>2024-11-15T19:21:20.000Z</time>
      </trkpt>
      <trkpt lat="45.85911" lon="3.55933">
        <ele>445.60000610352</ele>
        <time>2024-11-15T19:21:21.000Z</time>
      </trkpt>
      <trkpt lat="45.8591" lon="3.5593">
        <ele>445.20001220703</ele>
        <time>2024-11-15T19:21:22.000Z</time>
      </trkpt>
      <trkpt lat="45.85909" lon="3.55928">
        <ele>445</ele>
        <time>2024-11-15T19:21:23.000Z</time>
      </trkpt>
      <trkpt lat="45.85907" lon="3.55925">
        <ele>444.60000610352</ele>
        <time>2024-11-15T19:21:24.000Z</time>
      </trkpt>
      <trkpt lat="45.85906" lon="3.55923">
        <ele>444.60000610352</ele>
        <time>2024-11-15T19:21:25.000Z</time>
      </trkpt>
      <trkpt lat="45.85905" lon="3.55921">
        <ele>444.39999389648</ele>
        <time>2024-11-15T19:21:26.000Z</time>
      </trkpt>
      <trkpt lat="45.85904" lon="3.55919">
        <ele>444.39999389648</ele>
        <time>2024-11-15T19:21:27.000Z</time>
      </trkpt>
      <trkpt lat="45.85903" lon="3.55918">
        <ele>444.39999389648</ele>
        <time>2024-11-15T19:21:28.000Z</time>
      </trkpt>
      <trkpt lat="45.85902" lon="3.55916">
        <ele>444.60000610352</ele>
        <time>2024-11-15T19:21:29.000Z</time>
      </trkpt>
      <trkpt lat="45.859" lon="3.55915">
        <ele>444.79998779297</ele>
        <time>2024-11-15T19:21:30.000Z</time>
      </trkpt>
      <trkpt lat="45.85899" lon="3.55914">
        <ele>444.79998779297</ele>
        <time>2024-11-15T19:21:31.000Z</time>
      </trkpt>
      <trkpt lat="45.85897" lon="3.55913">
        <ele>445</ele>
        <time>2024-11-15T19:21:32.000Z</time>
      </trkpt>
      <trkpt lat="45.85896" lon="3.55911">
        <ele>445</ele>
        <time>2024-11-15T19:21:33.000Z</time>
      </trkpt>
      <trkpt lat="45.85894" lon="3.5591">
        <ele>445.20001220703</ele>
        <time>2024-11-15T19:21:34.000Z</time>
      </trkpt>
      <trkpt lat="45.85892" lon="3.55909">
        <ele>445.20001220703</ele>
        <time>2024-11-15T19:21:35.000Z</time>
      </trkpt>
      <trkpt lat="45.8589" lon="3.55908">
        <ele>445.39999389648</ele>
        <time>2024-11-15T19:21:36.000Z</time>
      </trkpt>
      <trkpt lat="45.85888" lon="3.55907">
        <ele>445.60000610352</ele>
        <time>2024-11-15T19:21:37.000Z</time>
      </trkpt>
      <trkpt lat="45.85886" lon="3.55907">
        <ele>445.79998779297</ele>
        <time>2024-11-15T19:21:38.000Z</time>
      </trkpt>
      <trkpt lat="45.85884" lon="3.55906">
        <ele>445.79998779297</ele>
        <time>2024-11-15T19:21:39.000Z</time>
      </trkpt>
      <trkpt lat="45.85882" lon="3.55906">
        <ele>446</ele>
        <time>2024-11-15T19:21:40.000Z</time>
      </trkpt>
      <trkpt lat="45.8588" lon="3.55906">
        <ele>446.20001220703</ele>
        <time>2024-11-15T19:21:41.000Z</time>
      </trkpt>
      <trkpt lat="45.85878" lon="3.55906">
        <ele>446.60000610352</ele>
        <time>2024-11-15T19:21:42.000Z</time>
      </trkpt>
      <trkpt lat="45.85876" lon="3.55905">
        <ele>447.20001220703</ele>
        <time>2024-11-15T19:21:43.000Z</time>
      </trkpt>
      <trkpt lat="45.85875" lon="3.55905">
        <ele>447.39999389648</ele>
        <time>2024-11-15T19:21:44.000Z</time>
      </trkpt>
      <trkpt lat="45.85873" lon="3.55904">
        <ele>447.60000610352</ele>
        <time>2024-11-15T19:21:45.000Z</time>
      </trkpt>
      <trkpt lat="45.85871" lon="3.55904">
        <ele>447.79998779297</ele>
        <time>2024-11-15T19:21:46.000Z</time>
      </trkpt>
      <trkpt lat="45.8587" lon="3.55904">
        <ele>448.20001220703</ele>
        <time>2024-11-15T19:21:47.000Z</time>
      </trkpt>
      <trkpt lat="45.85869" lon="3.55903">
        <ele>448.20001220703</ele>
        <time>2024-11-15T19:21:48.000Z</time>
      </trkpt>
      <trkpt lat="45.85867" lon="3.55902">
        <ele>448.79998779297</ele>
        <time>2024-11-15T19:21:49.000Z</time>
      </trkpt>
      <trkpt lat="45.85866" lon="3.55901">
        <ele>449</ele>
        <time>2024-11-15T19:21:50.000Z</time>
      </trkpt>
      <trkpt lat="45.85865" lon="3.559">
        <ele>449</ele>
        <time>2024-11-15T19:21:51.000Z</time>
      </trkpt>
      <trkpt lat="45.85864" lon="3.55899">
        <ele>449.20001220703</ele>
        <time>2024-11-15T19:21:52.000Z</time>
      </trkpt>
      <trkpt lat="45.85862" lon="3.55898">
        <ele>449</ele>
        <time>2024-11-15T19:21:53.000Z</time>
      </trkpt>
      <trkpt lat="45.85861" lon="3.55896">
        <ele>449</ele>
        <time>2024-11-15T19:21:54.000Z</time>
      </trkpt>
      <trkpt lat="45.8586" lon="3.55895">
        <ele>449</ele>
        <time>2024-11-15T19:21:55.000Z</time>
      </trkpt>
      <trkpt lat="45.85858" lon="3.55894">
        <ele>449</ele>
        <time>2024-11-15T19:21:56.000Z</time>
      </trkpt>
      <trkpt lat="45.85856" lon="3.55893">
        <ele>449</ele>
        <time>2024-11-15T19:21:57.000Z</time>
      </trkpt>
      <trkpt lat="45.85854" lon="3.55892">
        <ele>449</ele>
        <time>2024-11-15T19:21:58.000Z</time>
      </trkpt>
      <trkpt lat="45.85853" lon="3.5589">
        <ele>449</ele>
        <time>2024-11-15T19:21:59.000Z</time>
      </trkpt>
      <trkpt lat="45.85851" lon="3.55889">
        <ele>448.79998779297</ele>
        <time>2024-11-15T19:22:00.000Z</time>
      </trkpt>
      <trkpt lat="45.8585" lon="3.55888">
        <ele>448.79998779297</ele>
        <time>2024-11-15T19:22:01.000Z</time>
      </trkpt>
      <trkpt lat="45.85849" lon="3.55886">
        <ele>448.79998779297</ele>
        <time>2024-11-15T19:22:02.000Z</time>
      </trkpt>
      <trkpt lat="45.85848" lon="3.55885">
        <ele>448.79998779297</ele>
        <time>2024-11-15T19:22:03.000Z</time>
      </trkpt>
      <trkpt lat="45.85847" lon="3.55884">
        <ele>449.20001220703</ele>
        <time>2024-11-15T19:22:04.000Z</time>
      </trkpt>
      <trkpt lat="45.85846" lon="3.55882">
        <ele>449.39999389648</ele>
        <time>2024-11-15T19:22:05.000Z</time>
      </trkpt>
      <trkpt lat="45.85845" lon="3.55882">
        <ele>449.39999389648</ele>
        <time>2024-11-15T19:22:06.000Z</time>
      </trkpt>
      <trkpt lat="45.85844" lon="3.55881">
        <ele>450</ele>
        <time>2024-11-15T19:22:07.000Z</time>
      </trkpt>
      <trkpt lat="45.85843" lon="3.5588">
        <ele>450.20001220703</ele>
        <time>2024-11-15T19:22:08.000Z</time>
      </trkpt>
      <trkpt lat="45.85842" lon="3.5588">
        <ele>450.39999389648</ele>
        <time>2024-11-15T19:22:09.000Z</time>
      </trkpt>
      <trkpt lat="45.85841" lon="3.5588">
        <ele>450.39999389648</ele>
        <time>2024-11-15T19:22:10.000Z</time>
      </trkpt>
      <trkpt lat="45.85841" lon="3.5588">
        <ele>450.60000610352</ele>
        <time>2024-11-15T19:22:11.000Z</time>
      </trkpt>
      <trkpt lat="45.8584" lon="3.5588">
        <ele>451</ele>
        <time>2024-11-15T19:22:12.000Z</time>
      </trkpt>
      <trkpt lat="45.85839" lon="3.55879">
        <ele>451</ele>
        <time>2024-11-15T19:22:13.000Z</time>
      </trkpt>
      <trkpt lat="45.85838" lon="3.55878">
        <ele>451.20001220703</ele>
        <time>2024-11-15T19:22:14.000Z</time>
      </trkpt>
      <trkpt lat="45.85837" lon="3.55877">
        <ele>451.79998779297</ele>
        <time>2024-11-15T19:22:15.000Z</time>
      </trkpt>
      <trkpt lat="45.85835" lon="3.55876">
        <ele>452.20001220703</ele>
        <time>2024-11-15T19:22:16.000Z</time>
      </trkpt>
      <trkpt lat="45.85834" lon="3.55875">
        <ele>452.39999389648</ele>
        <time>2024-11-15T19:22:17.000Z</time>
      </trkpt>
      <trkpt lat="45.85832" lon="3.55875">
        <ele>452.39999389648</ele>
        <time>2024-11-15T19:22:18.000Z</time>
      </trkpt>
      <trkpt lat="45.85831" lon="3.55874">
        <ele>452.39999389648</ele>
        <time>2024-11-15T19:22:19.000Z</time>
      </trkpt>
      <trkpt lat="45.85829" lon="3.55874">
        <ele>452.39999389648</ele>
        <time>2024-11-15T19:22:20.000Z</time>
      </trkpt>
      <trkpt lat="45.85828" lon="3.55873">
        <ele>452.60000610352</ele>
        <time>2024-11-15T19:22:21.000Z</time>
      </trkpt>
      <trkpt lat="45.85826" lon="3.55873">
        <ele>452.60000610352</ele>
        <time>2024-11-15T19:22:22.000Z</time>
      </trkpt>
      <trkpt lat="45.85825" lon="3.55872">
        <ele>453</ele>
        <time>2024-11-15T19:22:23.000Z</time>
      </trkpt>
      <trkpt lat="45.85824" lon="3.55871">
        <ele>453.20001220703</ele>
        <time>2024-11-15T19:22:24.000Z</time>
      </trkpt>
      <trkpt lat="45.85823" lon="3.55871">
        <ele>453.60000610352</ele>
        <time>2024-11-15T19:22:25.000Z</time>
      </trkpt>
      <trkpt lat="45.85821" lon="3.55871">
        <ele>453.60000610352</ele>
        <time>2024-11-15T19:22:26.000Z</time>
      </trkpt>
      <trkpt lat="45.8582" lon="3.55871">
        <ele>453.60000610352</ele>
        <time>2024-11-15T19:22:27.000Z</time>
      </trkpt>
      <trkpt lat="45.85819" lon="3.5587">
        <ele>453.79998779297</ele>
        <time>2024-11-15T19:22:28.000Z</time>
      </trkpt>
      <trkpt lat="45.85818" lon="3.55869">
        <ele>453.79998779297</ele>
        <time>2024-11-15T19:22:29.000Z</time>
      </trkpt>
      <trkpt lat="45.85817" lon="3.55868">
        <ele>454</ele>
        <time>2024-11-15T19:22:30.000Z</time>
      </trkpt>
      <trkpt lat="45.85817" lon="3.55868">
        <ele>454.39999389648</ele>
        <time>2024-11-15T19:22:31.000Z</time>
      </trkpt>
      <trkpt lat="45.85816" lon="3.55867">
        <ele>454.39999389648</ele>
        <time>2024-11-15T19:22:32.000Z</time>
      </trkpt>
      <trkpt lat="45.85815" lon="3.55866">
        <ele>454.60000610352</ele>
        <time>2024-11-15T19:22:33.000Z</time>
      </trkpt>
      <trkpt lat="45.85813" lon="3.55865">
        <ele>455</ele>
        <time>2024-11-15T19:22:34.000Z</time>
      </trkpt>
      <trkpt lat="45.85812" lon="3.55864">
        <ele>455</ele>
        <time>2024-11-15T19:22:35.000Z</time>
      </trkpt>
      <trkpt lat="45.85811" lon="3.55862">
        <ele>455</ele>
        <time>2024-11-15T19:22:36.000Z</time>
      </trkpt>
      <trkpt lat="45.85809" lon="3.55861">
        <ele>455.20001220703</ele>
        <time>2024-11-15T19:22:37.000Z</time>
      </trkpt>
      <trkpt lat="45.85808" lon="3.5586">
        <ele>455.20001220703</ele>
        <time>2024-11-15T19:22:38.000Z</time>
      </trkpt>
      <trkpt lat="45.85806" lon="3.55859">
        <ele>455.20001220703</ele>
        <time>2024-11-15T19:22:39.000Z</time>
      </trkpt>
      <trkpt lat="45.85805" lon="3.55858">
        <ele>455.20001220703</ele>
        <time>2024-11-15T19:22:40.000Z</time>
      </trkpt>
      <trkpt lat="45.85803" lon="3.55857">
        <ele>455.39999389648</ele>
        <time>2024-11-15T19:22:41.000Z</time>
      </trkpt>
      <trkpt lat="45.85802" lon="3.55856">
        <ele>455.60000610352</ele>
        <time>2024-11-15T19:22:42.000Z</time>
      </trkpt>
      <trkpt lat="45.85801" lon="3.55855">
        <ele>455.79998779297</ele>
        <time>2024-11-15T19:22:43.000Z</time>
      </trkpt>
      <trkpt lat="45.85799" lon="3.55855">
        <ele>455.79998779297</ele>
        <time>2024-11-15T19:22:44.000Z</time>
      </trkpt>
      <trkpt lat="45.85798" lon="3.55856">
        <ele>455.79998779297</ele>
        <time>2024-11-15T19:22:45.000Z</time>
      </trkpt>
      <trkpt lat="45.85797" lon="3.55857">
        <ele>455.79998779297</ele>
        <time>2024-11-15T19:22:46.000Z</time>
      </trkpt>
      <trkpt lat="45.85796" lon="3.55858">
        <ele>455.39999389648</ele>
        <time>2024-11-15T19:22:47.000Z</time>
      </trkpt>
      <trkpt lat="45.85795" lon="3.55859">
        <ele>455.39999389648</ele>
        <time>2024-11-15T19:22:48.000Z</time>
      </trkpt>
      <trkpt lat="45.85794" lon="3.5586">
        <ele>455.39999389648</ele>
        <time>2024-11-15T19:22:49.000Z</time>
      </trkpt>
      <trkpt lat="45.85794" lon="3.55861">
        <ele>455.39999389648</ele>
        <time>2024-11-15T19:22:50.000Z</time>
      </trkpt>
      <trkpt lat="45.85793" lon="3.55863">
        <ele>455.39999389648</ele>
        <time>2024-11-15T19:22:51.000Z</time>
      </trkpt>
      <trkpt lat="45.85792" lon="3.55864">
        <ele>455.39999389648</ele>
        <time>2024-11-15T19:22:52.000Z</time>
      </trkpt>
      <trkpt lat="45.85791" lon="3.55865">
        <ele>455.39999389648</ele>
        <time>2024-11-15T19:22:53.000Z</time>
      </trkpt>
      <trkpt lat="45.8579" lon="3.55866">
        <ele>455.60000610352</ele>
        <time>2024-11-15T19:22:54.000Z</time>
      </trkpt>
      <trkpt lat="45.8579" lon="3.55868">
        <ele>455.60000610352</ele>
        <time>2024-11-15T19:22:55.000Z</time>
      </trkpt>
      <trkpt lat="45.85789" lon="3.55869">
        <ele>455.79998779297</ele>
        <time>2024-11-15T19:22:56.000Z</time>
      </trkpt>
      <trkpt lat="45.85789" lon="3.5587">
        <ele>455.79998779297</ele>
        <time>2024-11-15T19:22:57.000Z</time>
      </trkpt>
      <trkpt lat="45.85788" lon="3.55872">
        <ele>456</ele>
        <time>2024-11-15T19:22:58.000Z</time>
      </trkpt>
      <trkpt lat="45.85788" lon="3.55873">
        <ele>456.20001220703</ele>
        <time>2024-11-15T19:22:59.000Z</time>
      </trkpt>
      <trkpt lat="45.85788" lon="3.55875">
        <ele>456.20001220703</ele>
        <time>2024-11-15T19:23:00.000Z</time>
      </trkpt>
      <trkpt lat="45.85788" lon="3.55877">
        <ele>456.39999389648</ele>
        <time>2024-11-15T19:23:01.000Z</time>
      </trkpt>
      <trkpt lat="45.85787" lon="3.55879">
        <ele>456.60000610352</ele>
        <time>2024-11-15T19:23:02.000Z</time>
      </trkpt>
      <trkpt lat="45.85786" lon="3.5588">
        <ele>456.60000610352</ele>
        <time>2024-11-15T19:23:03.000Z</time>
      </trkpt>
      <trkpt lat="45.85786" lon="3.55882">
        <ele>456.79998779297</ele>
        <time>2024-11-15T19:23:04.000Z</time>
      </trkpt>
      <trkpt lat="45.85785" lon="3.55884">
        <ele>456.79998779297</ele>
        <time>2024-11-15T19:23:05.000Z</time>
      </trkpt>
      <trkpt lat="45.85784" lon="3.55886">
        <ele>456.79998779297</ele>
        <time>2024-11-15T19:23:06.000Z</time>
      </trkpt>
      <trkpt lat="45.85784" lon="3.55888">
        <ele>456.79998779297</ele>
        <time>2024-11-15T19:23:07.000Z</time>
      </trkpt>
      <trkpt lat="45.85783" lon="3.5589">
        <ele>457</ele>
        <time>2024-11-15T19:23:08.000Z</time>
      </trkpt>
      <trkpt lat="45.85782" lon="3.55892">
        <ele>457.20001220703</ele>
        <time>2024-11-15T19:23:09.000Z</time>
      </trkpt>
      <trkpt lat="45.85781" lon="3.55894">
        <ele>457.39999389648</ele>
        <time>2024-11-15T19:23:10.000Z</time>
      </trkpt>
      <trkpt lat="45.85781" lon="3.55896">
        <ele>457.39999389648</ele>
        <time>2024-11-15T19:23:11.000Z</time>
      </trkpt>
      <trkpt lat="45.8578" lon="3.55898">
        <ele>457.60000610352</ele>
        <time>2024-11-15T19:23:12.000Z</time>
      </trkpt>
      <trkpt lat="45.85779" lon="3.55899">
        <ele>457.79998779297</ele>
        <time>2024-11-15T19:23:13.000Z</time>
      </trkpt>
      <trkpt lat="45.85779" lon="3.55901">
        <ele>458</ele>
        <time>2024-11-15T19:23:14.000Z</time>
      </trkpt>
      <trkpt lat="45.85778" lon="3.55902">
        <ele>458.20001220703</ele>
        <time>2024-11-15T19:23:15.000Z</time>
      </trkpt>
      <trkpt lat="45.85777" lon="3.55904">
        <ele>458.20001220703</ele>
        <time>2024-11-15T19:23:16.000Z</time>
      </trkpt>
      <trkpt lat="45.85777" lon="3.55905">
        <ele>458.39999389648</ele>
        <time>2024-11-15T19:23:17.000Z</time>
      </trkpt>
      <trkpt lat="45.85776" lon="3.55906">
        <ele>458.60000610352</ele>
        <time>2024-11-15T19:23:18.000Z</time>
      </trkpt>
      <trkpt lat="45.85776" lon="3.55907">
        <ele>458.60000610352</ele>
        <time>2024-11-15T19:23:19.000Z</time>
      </trkpt>
      <trkpt lat="45.85776" lon="3.55909">
        <ele>458.79998779297</ele>
        <time>2024-11-15T19:23:20.000Z</time>
      </trkpt>
      <trkpt lat="45.85775" lon="3.5591">
        <ele>459.20001220703</ele>
        <time>2024-11-15T19:23:21.000Z</time>
      </trkpt>
      <trkpt lat="45.85775" lon="3.55911">
        <ele>459.20001220703</ele>
        <time>2024-11-15T19:23:22.000Z</time>
      </trkpt>
      <trkpt lat="45.85774" lon="3.55913">
        <ele>459.60000610352</ele>
        <time>2024-11-15T19:23:23.000Z</time>
      </trkpt>
      <trkpt lat="45.85773" lon="3.55914">
        <ele>460</ele>
        <time>2024-11-15T19:23:24.000Z</time>
      </trkpt>
      <trkpt lat="45.85773" lon="3.55915">
        <ele>460.20001220703</ele>
        <time>2024-11-15T19:23:25.000Z</time>
      </trkpt>
      <trkpt lat="45.85772" lon="3.55916">
        <ele>460.60000610352</ele>
        <time>2024-11-15T19:23:26.000Z</time>
      </trkpt>
      <trkpt lat="45.85771" lon="3.55916">
        <ele>460.60000610352</ele>
        <time>2024-11-15T19:23:27.000Z</time>
      </trkpt>
      <trkpt lat="45.8577" lon="3.55917">
        <ele>460.60000610352</ele>
        <time>2024-11-15T19:23:28.000Z</time>
      </trkpt>
      <trkpt lat="45.85769" lon="3.55917">
        <ele>460.60000610352</ele>
        <time>2024-11-15T19:23:29.000Z</time>
      </trkpt>
      <trkpt lat="45.85767" lon="3.55918">
        <ele>460.60000610352</ele>
        <time>2024-11-15T19:23:30.000Z</time>
      </trkpt>
      <trkpt lat="45.85766" lon="3.55919">
        <ele>460.39999389648</ele>
        <time>2024-11-15T19:23:31.000Z</time>
      </trkpt>
      <trkpt lat="45.85764" lon="3.5592">
        <ele>460.39999389648</ele>
        <time>2024-11-15T19:23:32.000Z</time>
      </trkpt>
      <trkpt lat="45.85763" lon="3.55921">
        <ele>460</ele>
        <time>2024-11-15T19:23:33.000Z</time>
      </trkpt>
      <trkpt lat="45.85761" lon="3.55922">
        <ele>459.20001220703</ele>
        <time>2024-11-15T19:23:34.000Z</time>
      </trkpt>
      <trkpt lat="45.8576" lon="3.55924">
        <ele>458.39999389648</ele>
        <time>2024-11-15T19:23:35.000Z</time>
      </trkpt>
      <trkpt lat="45.85758" lon="3.55925">
        <ele>458.39999389648</ele>
        <time>2024-11-15T19:23:36.000Z</time>
      </trkpt>
      <trkpt lat="45.85756" lon="3.55926">
        <ele>458.20001220703</ele>
        <time>2024-11-15T19:23:37.000Z</time>
      </trkpt>
      <trkpt lat="45.85754" lon="3.55927">
        <ele>457.79998779297</ele>
        <time>2024-11-15T19:23:38.000Z</time>
      </trkpt>
      <trkpt lat="45.85752" lon="3.55927">
        <ele>457.60000610352</ele>
        <time>2024-11-15T19:23:39.000Z</time>
      </trkpt>
      <trkpt lat="45.85751" lon="3.55927">
        <ele>457.39999389648</ele>
        <time>2024-11-15T19:23:40.000Z</time>
      </trkpt>
      <trkpt lat="45.85749" lon="3.55927">
        <ele>457.20001220703</ele>
        <time>2024-11-15T19:23:41.000Z</time>
      </trkpt>
      <trkpt lat="45.85748" lon="3.55925">
        <ele>457.20001220703</ele>
        <time>2024-11-15T19:23:42.000Z</time>
      </trkpt>
      <trkpt lat="45.85747" lon="3.55924">
        <ele>457</ele>
        <time>2024-11-15T19:23:43.000Z</time>
      </trkpt>
      <trkpt lat="45.85745" lon="3.55922">
        <ele>457</ele>
        <time>2024-11-15T19:23:44.000Z</time>
      </trkpt>
      <trkpt lat="45.85744" lon="3.5592">
        <ele>457</ele>
        <time>2024-11-15T19:23:45.000Z</time>
      </trkpt>
      <trkpt lat="45.85743" lon="3.55918">
        <ele>456.79998779297</ele>
        <time>2024-11-15T19:23:46.000Z</time>
      </trkpt>
      <trkpt lat="45.85743" lon="3.55916">
        <ele>456.60000610352</ele>
        <time>2024-11-15T19:23:47.000Z</time>
      </trkpt>
      <trkpt lat="45.85742" lon="3.55913">
        <ele>456.60000610352</ele>
        <time>2024-11-15T19:23:48.000Z</time>
      </trkpt>
      <trkpt lat="45.8574" lon="3.55911">
        <ele>456.39999389648</ele>
        <time>2024-11-15T19:23:49.000Z</time>
      </trkpt>
      <trkpt lat="45.85739" lon="3.55909">
        <ele>456.20001220703</ele>
        <time>2024-11-15T19:23:50.000Z</time>
      </trkpt>
      <trkpt lat="45.85738" lon="3.55906">
        <ele>455.79998779297</ele>
        <time>2024-11-15T19:23:51.000Z</time>
      </trkpt>
      <trkpt lat="45.85737" lon="3.55904">
        <ele>455.79998779297</ele>
        <time>2024-11-15T19:23:52.000Z</time>
      </trkpt>
      <trkpt lat="45.85735" lon="3.55902">
        <ele>455.60000610352</ele>
        <time>2024-11-15T19:23:53.000Z</time>
      </trkpt>
      <trkpt lat="45.85734" lon="3.559">
        <ele>455.60000610352</ele>
        <time>2024-11-15T19:23:54.000Z</time>
      </trkpt>
      <trkpt lat="45.85733" lon="3.55898">
        <ele>455.60000610352</ele>
        <time>2024-11-15T19:23:55.000Z</time>
      </trkpt>
      <trkpt lat="45.85731" lon="3.55896">
        <ele>455.60000610352</ele>
        <time>2024-11-15T19:23:56.000Z</time>
      </trkpt>
      <trkpt lat="45.8573" lon="3.55894">
        <ele>455.79998779297</ele>
        <time>2024-11-15T19:23:57.000Z</time>
      </trkpt>
      <trkpt lat="45.85728" lon="3.55892">
        <ele>455.79998779297</ele>
        <time>2024-11-15T19:23:58.000Z</time>
      </trkpt>
      <trkpt lat="45.85727" lon="3.5589">
        <ele>455.79998779297</ele>
        <time>2024-11-15T19:23:59.000Z</time>
      </trkpt>
      <trkpt lat="45.85725" lon="3.55889">
        <ele>456</ele>
        <time>2024-11-15T19:24:00.000Z</time>
      </trkpt>
      <trkpt lat="45.85723" lon="3.55888">
        <ele>456.20001220703</ele>
        <time>2024-11-15T19:24:01.000Z</time>
      </trkpt>
      <trkpt lat="45.85722" lon="3.55887">
        <ele>456.60000610352</ele>
        <time>2024-11-15T19:24:02.000Z</time>
      </trkpt>
      <trkpt lat="45.8572" lon="3.55887">
        <ele>456.79998779297</ele>
        <time>2024-11-15T19:24:03.000Z</time>
      </trkpt>
      <trkpt lat="45.85718" lon="3.55886">
        <ele>456.79998779297</ele>
        <time>2024-11-15T19:24:04.000Z</time>
      </trkpt>
      <trkpt lat="45.85717" lon="3.55885">
        <ele>457.20001220703</ele>
        <time>2024-11-15T19:24:05.000Z</time>
      </trkpt>
      <trkpt lat="45.85716" lon="3.55884">
        <ele>457.39999389648</ele>
        <time>2024-11-15T19:24:06.000Z</time>
      </trkpt>
      <trkpt lat="45.85715" lon="3.55883">
        <ele>457.60000610352</ele>
        <time>2024-11-15T19:24:07.000Z</time>
      </trkpt>
      <trkpt lat="45.85713" lon="3.55881">
        <ele>457.79998779297</ele>
        <time>2024-11-15T19:24:08.000Z</time>
      </trkpt>
      <trkpt lat="45.85712" lon="3.5588">
        <ele>458</ele>
        <time>2024-11-15T19:24:09.000Z</time>
      </trkpt>
      <trkpt lat="45.85711" lon="3.55878">
        <ele>458</ele>
        <time>2024-11-15T19:24:10.000Z</time>
      </trkpt>
      <trkpt lat="45.8571" lon="3.55876">
        <ele>457.79998779297</ele>
        <time>2024-11-15T19:24:11.000Z</time>
      </trkpt>
      <trkpt lat="45.85709" lon="3.55874">
        <ele>457.79998779297</ele>
        <time>2024-11-15T19:24:12.000Z</time>
      </trkpt>
      <trkpt lat="45.85708" lon="3.55873">
        <ele>457.79998779297</ele>
        <time>2024-11-15T19:24:13.000Z</time>
      </trkpt>
      <trkpt lat="45.85707" lon="3.55871">
        <ele>457.79998779297</ele>
        <time>2024-11-15T19:24:14.000Z</time>
      </trkpt>
      <trkpt lat="45.85706" lon="3.55869">
        <ele>458</ele>
        <time>2024-11-15T19:24:15.000Z</time>
      </trkpt>
      <trkpt lat="45.85706" lon="3.55868">
        <ele>458</ele>
        <time>2024-11-15T19:24:16.000Z</time>
      </trkpt>
      <trkpt lat="45.85705" lon="3.55866">
        <ele>458.20001220703</ele>
        <time>2024-11-15T19:24:17.000Z</time>
      </trkpt>
      <trkpt lat="45.85704" lon="3.55865">
        <ele>458.20001220703</ele>
        <time>2024-11-15T19:24:18.000Z</time>
      </trkpt>
      <trkpt lat="45.85704" lon="3.55863">
        <ele>458.39999389648</ele>
        <time>2024-11-15T19:24:19.000Z</time>
      </trkpt>
      <trkpt lat="45.85703" lon="3.55861">
        <ele>458.39999389648</ele>
        <time>2024-11-15T19:24:20.000Z</time>
      </trkpt>
      <trkpt lat="45.85702" lon="3.5586">
        <ele>458.39999389648</ele>
        <time>2024-11-15T19:24:21.000Z</time>
      </trkpt>
      <trkpt lat="45.85702" lon="3.55858">
        <ele>458.39999389648</ele>
        <time>2024-11-15T19:24:22.000Z</time>
      </trkpt>
      <trkpt lat="45.85701" lon="3.55857">
        <ele>458.79998779297</ele>
        <time>2024-11-15T19:24:23.000Z</time>
      </trkpt>
      <trkpt lat="45.85701" lon="3.55855">
        <ele>459.20001220703</ele>
        <time>2024-11-15T19:24:24.000Z</time>
      </trkpt>
      <trkpt lat="45.857" lon="3.55854">
        <ele>459.60000610352</ele>
        <time>2024-11-15T19:24:25.000Z</time>
      </trkpt>
      <trkpt lat="45.857" lon="3.55852">
        <ele>459.79998779297</ele>
        <time>2024-11-15T19:24:26.000Z</time>
      </trkpt>
      <trkpt lat="45.85699" lon="3.5585">
        <ele>460</ele>
        <time>2024-11-15T19:24:27.000Z</time>
      </trkpt>
      <trkpt lat="45.85699" lon="3.55849">
        <ele>460.39999389648</ele>
        <time>2024-11-15T19:24:28.000Z</time>
      </trkpt>
      <trkpt lat="45.85698" lon="3.55848">
        <ele>460.79998779297</ele>
        <time>2024-11-15T19:24:29.000Z</time>
      </trkpt>
      <trkpt lat="45.85698" lon="3.55847">
        <ele>460.79998779297</ele>
        <time>2024-11-15T19:24:30.000Z</time>
      </trkpt>
      <trkpt lat="45.85697" lon="3.55845">
        <ele>461</ele>
        <time>2024-11-15T19:24:31.000Z</time>
      </trkpt>
      <trkpt lat="45.85696" lon="3.55844">
        <ele>461.20001220703</ele>
        <time>2024-11-15T19:24:32.000Z</time>
      </trkpt>
      <trkpt lat="45.85696" lon="3.55843">
        <ele>461.39999389648</ele>
        <time>2024-11-15T19:24:33.000Z</time>
      </trkpt>
      <trkpt lat="45.85695" lon="3.55843">
        <ele>461.39999389648</ele>
        <time>2024-11-15T19:24:34.000Z</time>
      </trkpt>
      <trkpt lat="45.85694" lon="3.55842">
        <ele>461.79998779297</ele>
        <time>2024-11-15T19:24:35.000Z</time>
      </trkpt>
      <trkpt lat="45.85694" lon="3.5584">
        <ele>462.20001220703</ele>
        <time>2024-11-15T19:24:36.000Z</time>
      </trkpt>
      <trkpt lat="45.85693" lon="3.55839">
        <ele>462.39999389648</ele>
        <time>2024-11-15T19:24:37.000Z</time>
      </trkpt>
      <trkpt lat="45.85692" lon="3.55838">
        <ele>462.60000610352</ele>
        <time>2024-11-15T19:24:38.000Z</time>
      </trkpt>
      <trkpt lat="45.85692" lon="3.55837">
        <ele>462.79998779297</ele>
        <time>2024-11-15T19:24:39.000Z</time>
      </trkpt>
      <trkpt lat="45.85691" lon="3.55835">
        <ele>463.60000610352</ele>
        <time>2024-11-15T19:24:40.000Z</time>
      </trkpt>
      <trkpt lat="45.8569" lon="3.55833">
        <ele>463.79998779297</ele>
        <time>2024-11-15T19:24:41.000Z</time>
      </trkpt>
      <trkpt lat="45.8569" lon="3.55832">
        <ele>464</ele>
        <time>2024-11-15T19:24:42.000Z</time>
      </trkpt>
      <trkpt lat="45.85689" lon="3.5583">
        <ele>464.20001220703</ele>
        <time>2024-11-15T19:24:43.000Z</time>
      </trkpt>
      <trkpt lat="45.85688" lon="3.55828">
        <ele>464.60000610352</ele>
        <time>2024-11-15T19:24:44.000Z</time>
      </trkpt>
      <trkpt lat="45.85688" lon="3.55826">
        <ele>465.20001220703</ele>
        <time>2024-11-15T19:24:45.000Z</time>
      </trkpt>
      <trkpt lat="45.85687" lon="3.55824">
        <ele>465.20001220703</ele>
        <time>2024-11-15T19:24:46.000Z</time>
      </trkpt>
      <trkpt lat="45.85687" lon="3.55822">
        <ele>465.20001220703</ele>
        <time>2024-11-15T19:24:47.000Z</time>
      </trkpt>
      <trkpt lat="45.85686" lon="3.5582">
        <ele>465.39999389648</ele>
        <time>2024-11-15T19:24:48.000Z</time>
      </trkpt>
      <trkpt lat="45.85686" lon="3.55817">
        <ele>465.39999389648</ele>
        <time>2024-11-15T19:24:49.000Z</time>
      </trkpt>
      <trkpt lat="45.85685" lon="3.55815">
        <ele>465.39999389648</ele>
        <time>2024-11-15T19:24:50.000Z</time>
      </trkpt>
      <trkpt lat="45.85684" lon="3.55812">
        <ele>465.39999389648</ele>
        <time>2024-11-15T19:24:51.000Z</time>
      </trkpt>
      <trkpt lat="45.85683" lon="3.5581">
        <ele>465.39999389648</ele>
        <time>2024-11-15T19:24:52.000Z</time>
      </trkpt>
      <trkpt lat="45.85682" lon="3.55807">
        <ele>465.20001220703</ele>
        <time>2024-11-15T19:24:53.000Z</time>
      </trkpt>
      <trkpt lat="45.85682" lon="3.55804">
        <ele>465</ele>
        <time>2024-11-15T19:24:54.000Z</time>
      </trkpt>
      <trkpt lat="45.85682" lon="3.55801">
        <ele>464.79998779297</ele>
        <time>2024-11-15T19:24:55.000Z</time>
      </trkpt>
      <trkpt lat="45.85682" lon="3.55798">
        <ele>464.60000610352</ele>
        <time>2024-11-15T19:24:56.000Z</time>
      </trkpt>
      <trkpt lat="45.85682" lon="3.55794">
        <ele>464.60000610352</ele>
        <time>2024-11-15T19:24:57.000Z</time>
      </trkpt>
      <trkpt lat="45.85682" lon="3.55792">
        <ele>464.60000610352</ele>
        <time>2024-11-15T19:24:58.000Z</time>
      </trkpt>
      <trkpt lat="45.85682" lon="3.55789">
        <ele>464.39999389648</ele>
        <time>2024-11-15T19:24:59.000Z</time>
      </trkpt>
      <trkpt lat="45.85683" lon="3.55786">
        <ele>464.39999389648</ele>
        <time>2024-11-15T19:25:00.000Z</time>
      </trkpt>
      <trkpt lat="45.85683" lon="3.55783">
        <ele>464.39999389648</ele>
        <time>2024-11-15T19:25:01.000Z</time>
      </trkpt>
      <trkpt lat="45.85683" lon="3.5578">
        <ele>464.60000610352</ele>
        <time>2024-11-15T19:25:02.000Z</time>
      </trkpt>
      <trkpt lat="45.85683" lon="3.55778">
        <ele>464.60000610352</ele>
        <time>2024-11-15T19:25:03.000Z</time>
      </trkpt>
      <trkpt lat="45.85683" lon="3.55775">
        <ele>464.79998779297</ele>
        <time>2024-11-15T19:25:04.000Z</time>
      </trkpt>
      <trkpt lat="45.85683" lon="3.55773">
        <ele>464.79998779297</ele>
        <time>2024-11-15T19:25:05.000Z</time>
      </trkpt>
      <trkpt lat="45.85683" lon="3.55771">
        <ele>465</ele>
        <time>2024-11-15T19:25:06.000Z</time>
      </trkpt>
      <trkpt lat="45.85683" lon="3.55769">
        <ele>465.20001220703</ele>
        <time>2024-11-15T19:25:07.000Z</time>
      </trkpt>
      <trkpt lat="45.85683" lon="3.55766">
        <ele>465.39999389648</ele>
        <time>2024-11-15T19:25:08.000Z</time>
      </trkpt>
      <trkpt lat="45.85683" lon="3.55764">
        <ele>466</ele>
        <time>2024-11-15T19:25:09.000Z</time>
      </trkpt>
      <trkpt lat="45.85683" lon="3.55761">
        <ele>466.20001220703</ele>
        <time>2024-11-15T19:25:10.000Z</time>
      </trkpt>
      <trkpt lat="45.85683" lon="3.55759">
        <ele>466.20001220703</ele>
        <time>2024-11-15T19:25:11.000Z</time>
      </trkpt>
      <trkpt lat="45.85682" lon="3.55756">
        <ele>466.39999389648</ele>
        <time>2024-11-15T19:25:12.000Z</time>
      </trkpt>
      <trkpt lat="45.85682" lon="3.55754">
        <ele>466.39999389648</ele>
        <time>2024-11-15T19:25:13.000Z</time>
      </trkpt>
      <trkpt lat="45.85681" lon="3.55752">
        <ele>466.39999389648</ele>
        <time>2024-11-15T19:25:14.000Z</time>
      </trkpt>
      <trkpt lat="45.8568" lon="3.5575">
        <ele>466.39999389648</ele>
        <time>2024-11-15T19:25:15.000Z</time>
      </trkpt>
      <trkpt lat="45.85678" lon="3.55748">
        <ele>466.60000610352</ele>
        <time>2024-11-15T19:25:16.000Z</time>
      </trkpt>
      <trkpt lat="45.85677" lon="3.55747">
        <ele>466.79998779297</ele>
        <time>2024-11-15T19:25:17.000Z</time>
      </trkpt>
      <trkpt lat="45.85676" lon="3.55745">
        <ele>467</ele>
        <time>2024-11-15T19:25:18.000Z</time>
      </trkpt>
      <trkpt lat="45.85675" lon="3.55744">
        <ele>467.20001220703</ele>
        <time>2024-11-15T19:25:19.000Z</time>
      </trkpt>
      <trkpt lat="45.85674" lon="3.55743">
        <ele>467.39999389648</ele>
        <time>2024-11-15T19:25:20.000Z</time>
      </trkpt>
      <trkpt lat="45.85673" lon="3.55741">
        <ele>467.60000610352</ele>
        <time>2024-11-15T19:25:21.000Z</time>
      </trkpt>
      <trkpt lat="45.85672" lon="3.5574">
        <ele>467.79998779297</ele>
        <time>2024-11-15T19:25:22.000Z</time>
      </trkpt>
      <trkpt lat="45.85671" lon="3.55738">
        <ele>468.20001220703</ele>
        <time>2024-11-15T19:25:23.000Z</time>
      </trkpt>
      <trkpt lat="45.8567" lon="3.55737">
        <ele>468.20001220703</ele>
        <time>2024-11-15T19:25:24.000Z</time>
      </trkpt>
      <trkpt lat="45.85669" lon="3.55735">
        <ele>468.20001220703</ele>
        <time>2024-11-15T19:25:25.000Z</time>
      </trkpt>
      <trkpt lat="45.85668" lon="3.55733">
        <ele>468.20001220703</ele>
        <time>2024-11-15T19:25:26.000Z</time>
      </trkpt>
      <trkpt lat="45.85667" lon="3.55731">
        <ele>468.20001220703</ele>
        <time>2024-11-15T19:25:27.000Z</time>
      </trkpt>
      <trkpt lat="45.85666" lon="3.55729">
        <ele>468.20001220703</ele>
        <time>2024-11-15T19:25:28.000Z</time>
      </trkpt>
      <trkpt lat="45.85665" lon="3.55727">
        <ele>468</ele>
        <time>2024-11-15T19:25:29.000Z</time>
      </trkpt>
      <trkpt lat="45.85664" lon="3.55726">
        <ele>467.60000610352</ele>
        <time>2024-11-15T19:25:30.000Z</time>
      </trkpt>
      <trkpt lat="45.85663" lon="3.55724">
        <ele>467.39999389648</ele>
        <time>2024-11-15T19:25:31.000Z</time>
      </trkpt>
      <trkpt lat="45.85662" lon="3.55723">
        <ele>467</ele>
        <time>2024-11-15T19:25:32.000Z</time>
      </trkpt>
      <trkpt lat="45.85661" lon="3.55721">
        <ele>466.79998779297</ele>
        <time>2024-11-15T19:25:33.000Z</time>
      </trkpt>
      <trkpt lat="45.8566" lon="3.5572">
        <ele>466.39999389648</ele>
        <time>2024-11-15T19:25:34.000Z</time>
      </trkpt>
      <trkpt lat="45.85658" lon="3.55718">
        <ele>466.20001220703</ele>
        <time>2024-11-15T19:25:35.000Z</time>
      </trkpt>
      <trkpt lat="45.85657" lon="3.55716">
        <ele>466</ele>
        <time>2024-11-15T19:25:36.000Z</time>
      </trkpt>
      <trkpt lat="45.85655" lon="3.55715">
        <ele>465.79998779297</ele>
        <time>2024-11-15T19:25:37.000Z</time>
      </trkpt>
      <trkpt lat="45.85654" lon="3.55713">
        <ele>465.60000610352</ele>
        <time>2024-11-15T19:25:38.000Z</time>
      </trkpt>
      <trkpt lat="45.85653" lon="3.55711">
        <ele>465.20001220703</ele>
        <time>2024-11-15T19:25:39.000Z</time>
      </trkpt>
      <trkpt lat="45.85651" lon="3.55709">
        <ele>465</ele>
        <time>2024-11-15T19:25:40.000Z</time>
      </trkpt>
      <trkpt lat="45.8565" lon="3.55708">
        <ele>465</ele>
        <time>2024-11-15T19:25:41.000Z</time>
      </trkpt>
      <trkpt lat="45.85649" lon="3.55706">
        <ele>465</ele>
        <time>2024-11-15T19:25:42.000Z</time>
      </trkpt>
      <trkpt lat="45.85648" lon="3.55704">
        <ele>465.20001220703</ele>
        <time>2024-11-15T19:25:43.000Z</time>
      </trkpt>
      <trkpt lat="45.85648" lon="3.55702">
        <ele>465.39999389648</ele>
        <time>2024-11-15T19:25:44.000Z</time>
      </trkpt>
      <trkpt lat="45.85648" lon="3.557">
        <ele>465.79998779297</ele>
        <time>2024-11-15T19:25:45.000Z</time>
      </trkpt>
      <trkpt lat="45.85648" lon="3.55697">
        <ele>466</ele>
        <time>2024-11-15T19:25:46.000Z</time>
      </trkpt>
      <trkpt lat="45.85648" lon="3.55695">
        <ele>466</ele>
        <time>2024-11-15T19:25:47.000Z</time>
      </trkpt>
      <trkpt lat="45.85648" lon="3.55693">
        <ele>466.39999389648</ele>
        <time>2024-11-15T19:25:48.000Z</time>
      </trkpt>
      <trkpt lat="45.85648" lon="3.55692">
        <ele>467.39999389648</ele>
        <time>2024-11-15T19:25:49.000Z</time>
      </trkpt>
      <trkpt lat="45.85649" lon="3.5569">
        <ele>467.60000610352</ele>
        <time>2024-11-15T19:25:50.000Z</time>
      </trkpt>
      <trkpt lat="45.85649" lon="3.55688">
        <ele>467.60000610352</ele>
        <time>2024-11-15T19:25:51.000Z</time>
      </trkpt>
      <trkpt lat="45.85649" lon="3.55686">
        <ele>467.79998779297</ele>
        <time>2024-11-15T19:25:52.000Z</time>
      </trkpt>
      <trkpt lat="45.85649" lon="3.55684">
        <ele>468.20001220703</ele>
        <time>2024-11-15T19:25:53.000Z</time>
      </trkpt>
      <trkpt lat="45.85649" lon="3.55682">
        <ele>468.20001220703</ele>
        <time>2024-11-15T19:25:54.000Z</time>
      </trkpt>
      <trkpt lat="45.8565" lon="3.5568">
        <ele>468.20001220703</ele>
        <time>2024-11-15T19:25:55.000Z</time>
      </trkpt>
      <trkpt lat="45.8565" lon="3.55678">
        <ele>468.20001220703</ele>
        <time>2024-11-15T19:25:56.000Z</time>
      </trkpt>
      <trkpt lat="45.8565" lon="3.55675">
        <ele>468.20001220703</ele>
        <time>2024-11-15T19:25:57.000Z</time>
      </trkpt>
      <trkpt lat="45.8565" lon="3.55673">
        <ele>468</ele>
        <time>2024-11-15T19:25:58.000Z</time>
      </trkpt>
      <trkpt lat="45.8565" lon="3.5567">
        <ele>468</ele>
        <time>2024-11-15T19:25:59.000Z</time>
      </trkpt>
      <trkpt lat="45.8565" lon="3.55668">
        <ele>467.79998779297</ele>
        <time>2024-11-15T19:26:00.000Z</time>
      </trkpt>
      <trkpt lat="45.85649" lon="3.55666">
        <ele>467.79998779297</ele>
        <time>2024-11-15T19:26:01.000Z</time>
      </trkpt>
      <trkpt lat="45.85648" lon="3.55664">
        <ele>467.79998779297</ele>
        <time>2024-11-15T19:26:02.000Z</time>
      </trkpt>
      <trkpt lat="45.85647" lon="3.55663">
        <ele>467.79998779297</ele>
        <time>2024-11-15T19:26:03.000Z</time>
      </trkpt>
      <trkpt lat="45.85646" lon="3.5566">
        <ele>467.79998779297</ele>
        <time>2024-11-15T19:26:04.000Z</time>
      </trkpt>
      <trkpt lat="45.85644" lon="3.55658">
        <ele>467.79998779297</ele>
        <time>2024-11-15T19:26:05.000Z</time>
      </trkpt>
      <trkpt lat="45.85643" lon="3.55656">
        <ele>467.60000610352</ele>
        <time>2024-11-15T19:26:06.000Z</time>
      </trkpt>
      <trkpt lat="45.85642" lon="3.55653">
        <ele>467.39999389648</ele>
        <time>2024-11-15T19:26:07.000Z</time>
      </trkpt>
      <trkpt lat="45.8564" lon="3.55651">
        <ele>467.20001220703</ele>
        <time>2024-11-15T19:26:08.000Z</time>
      </trkpt>
      <trkpt lat="45.85639" lon="3.55649">
        <ele>467</ele>
        <time>2024-11-15T19:26:09.000Z</time>
      </trkpt>
      <trkpt lat="45.85637" lon="3.55646">
        <ele>466.60000610352</ele>
        <time>2024-11-15T19:26:10.000Z</time>
      </trkpt>
      <trkpt lat="45.85635" lon="3.55644">
        <ele>466.39999389648</ele>
        <time>2024-11-15T19:26:11.000Z</time>
      </trkpt>
      <trkpt lat="45.85633" lon="3.55642">
        <ele>466.20001220703</ele>
        <time>2024-11-15T19:26:12.000Z</time>
      </trkpt>
      <trkpt lat="45.85632" lon="3.5564">
        <ele>465.79998779297</ele>
        <time>2024-11-15T19:26:13.000Z</time>
      </trkpt>
      <trkpt lat="45.8563" lon="3.55637">
        <ele>465.39999389648</ele>
        <time>2024-11-15T19:26:14.000Z</time>
      </trkpt>
      <trkpt lat="45.85629" lon="3.55634">
        <ele>465</ele>
        <time>2024-11-15T19:26:15.000Z</time>
      </trkpt>
      <trkpt lat="45.85628" lon="3.55631">
        <ele>464.79998779297</ele>
        <time>2024-11-15T19:26:16.000Z</time>
      </trkpt>
      <trkpt lat="45.85627" lon="3.55628">
        <ele>464.39999389648</ele>
        <time>2024-11-15T19:26:17.000Z</time>
      </trkpt>
      <trkpt lat="45.85626" lon="3.55625">
        <ele>464</ele>
        <time>2024-11-15T19:26:18.000Z</time>
      </trkpt>
      <trkpt lat="45.85625" lon="3.55622">
        <ele>463.60000610352</ele>
        <time>2024-11-15T19:26:19.000Z</time>
      </trkpt>
      <trkpt lat="45.85623" lon="3.55618">
        <ele>463.39999389648</ele>
        <time>2024-11-15T19:26:20.000Z</time>
      </trkpt>
      <trkpt lat="45.85622" lon="3.55615">
        <ele>463</ele>
        <time>2024-11-15T19:26:21.000Z</time>
      </trkpt>
      <trkpt lat="45.85621" lon="3.55612">
        <ele>462.60000610352</ele>
        <time>2024-11-15T19:26:22.000Z</time>
      </trkpt>
      <trkpt lat="45.85619" lon="3.5561">
        <ele>462.20001220703</ele>
        <time>2024-11-15T19:26:23.000Z</time>
      </trkpt>
      <trkpt lat="45.85618" lon="3.55607">
        <ele>461.79998779297</ele>
        <time>2024-11-15T19:26:24.000Z</time>
      </trkpt>
      <trkpt lat="45.85616" lon="3.55605">
        <ele>461.20001220703</ele>
        <time>2024-11-15T19:26:25.000Z</time>
      </trkpt>
      <trkpt lat="45.85614" lon="3.55604">
        <ele>460.60000610352</ele>
        <time>2024-11-15T19:26:26.000Z</time>
      </trkpt>
      <trkpt lat="45.85612" lon="3.55602">
        <ele>460.60000610352</ele>
        <time>2024-11-15T19:26:27.000Z</time>
      </trkpt>
      <trkpt lat="45.8561" lon="3.556">
        <ele>460.39999389648</ele>
        <time>2024-11-15T19:26:28.000Z</time>
      </trkpt>
      <trkpt lat="45.85608" lon="3.55597">
        <ele>460.20001220703</ele>
        <time>2024-11-15T19:26:29.000Z</time>
      </trkpt>
      <trkpt lat="45.85606" lon="3.55594">
        <ele>460</ele>
        <time>2024-11-15T19:26:30.000Z</time>
      </trkpt>
      <trkpt lat="45.85605" lon="3.5559">
        <ele>459.79998779297</ele>
        <time>2024-11-15T19:26:31.000Z</time>
      </trkpt>
      <trkpt lat="45.85604" lon="3.55586">
        <ele>459.39999389648</ele>
        <time>2024-11-15T19:26:32.000Z</time>
      </trkpt>
      <trkpt lat="45.85603" lon="3.55582">
        <ele>459</ele>
        <time>2024-11-15T19:26:33.000Z</time>
      </trkpt>
      <trkpt lat="45.85602" lon="3.55578">
        <ele>459</ele>
        <time>2024-11-15T19:26:34.000Z</time>
      </trkpt>
      <trkpt lat="45.85602" lon="3.55574">
        <ele>458.39999389648</ele>
        <time>2024-11-15T19:26:35.000Z</time>
      </trkpt>
      <trkpt lat="45.85601" lon="3.55571">
        <ele>457.79998779297</ele>
        <time>2024-11-15T19:26:36.000Z</time>
      </trkpt>
      <trkpt lat="45.85601" lon="3.55568">
        <ele>457.39999389648</ele>
        <time>2024-11-15T19:26:37.000Z</time>
      </trkpt>
      <trkpt lat="45.856" lon="3.55566">
        <ele>456.60000610352</ele>
        <time>2024-11-15T19:26:38.000Z</time>
      </trkpt>
      <trkpt lat="45.85601" lon="3.55564">
        <ele>455.39999389648</ele>
        <time>2024-11-15T19:26:39.000Z</time>
      </trkpt>
      <trkpt lat="45.85602" lon="3.55563">
        <ele>455</ele>
        <time>2024-11-15T19:26:40.000Z</time>
      </trkpt>
      <trkpt lat="45.85603" lon="3.55561">
        <ele>454.39999389648</ele>
        <time>2024-11-15T19:26:41.000Z</time>
      </trkpt>
      <trkpt lat="45.85604" lon="3.55561">
        <ele>454</ele>
        <time>2024-11-15T19:26:42.000Z</time>
      </trkpt>
      <trkpt lat="45.85606" lon="3.5556">
        <ele>453.79998779297</ele>
        <time>2024-11-15T19:26:43.000Z</time>
      </trkpt>
      <trkpt lat="45.85608" lon="3.55561">
        <ele>453.39999389648</ele>
        <time>2024-11-15T19:26:44.000Z</time>
      </trkpt>
      <trkpt lat="45.85611" lon="3.55561">
        <ele>452.79998779297</ele>
        <time>2024-11-15T19:26:45.000Z</time>
      </trkpt>
      <trkpt lat="45.85614" lon="3.55561">
        <ele>452.60000610352</ele>
        <time>2024-11-15T19:26:46.000Z</time>
      </trkpt>
      <trkpt lat="45.85616" lon="3.55561">
        <ele>452.39999389648</ele>
        <time>2024-11-15T19:26:47.000Z</time>
      </trkpt>
      <trkpt lat="45.85619" lon="3.55561">
        <ele>451.60000610352</ele>
        <time>2024-11-15T19:26:48.000Z</time>
      </trkpt>
      <trkpt lat="45.85621" lon="3.5556">
        <ele>450.79998779297</ele>
        <time>2024-11-15T19:26:49.000Z</time>
      </trkpt>
      <trkpt lat="45.85623" lon="3.55559">
        <ele>450.20001220703</ele>
        <time>2024-11-15T19:26:50.000Z</time>
      </trkpt>
      <trkpt lat="45.85625" lon="3.55557">
        <ele>449.60000610352</ele>
        <time>2024-11-15T19:26:51.000Z</time>
      </trkpt>
      <trkpt lat="45.85626" lon="3.55555">
        <ele>448.20001220703</ele>
        <time>2024-11-15T19:26:52.000Z</time>
      </trkpt>
      <trkpt lat="45.85627" lon="3.55553">
        <ele>447.79998779297</ele>
        <time>2024-11-15T19:26:53.000Z</time>
      </trkpt>
      <trkpt lat="45.85628" lon="3.5555">
        <ele>447.60000610352</ele>
        <time>2024-11-15T19:26:54.000Z</time>
      </trkpt>
      <trkpt lat="45.85629" lon="3.55548">
        <ele>447.20001220703</ele>
        <time>2024-11-15T19:26:55.000Z</time>
      </trkpt>
      <trkpt lat="45.8563" lon="3.55545">
        <ele>446.39999389648</ele>
        <time>2024-11-15T19:26:56.000Z</time>
      </trkpt>
      <trkpt lat="45.85631" lon="3.55543">
        <ele>446.39999389648</ele>
        <time>2024-11-15T19:26:57.000Z</time>
      </trkpt>
      <trkpt lat="45.85632" lon="3.55541">
        <ele>446</ele>
        <time>2024-11-15T19:26:58.000Z</time>
      </trkpt>
      <trkpt lat="45.85633" lon="3.55539">
        <ele>445.60000610352</ele>
        <time>2024-11-15T19:26:59.000Z</time>
      </trkpt>
      <trkpt lat="45.85634" lon="3.55536">
        <ele>444.20001220703</ele>
        <time>2024-11-15T19:27:00.000Z</time>
      </trkpt>
      <trkpt lat="45.85635" lon="3.55534">
        <ele>444</ele>
        <time>2024-11-15T19:27:01.000Z</time>
      </trkpt>
      <trkpt lat="45.85636" lon="3.55531">
        <ele>443.39999389648</ele>
        <time>2024-11-15T19:27:02.000Z</time>
      </trkpt>
      <trkpt lat="45.85638" lon="3.55528">
        <ele>442.79998779297</ele>
        <time>2024-11-15T19:27:03.000Z</time>
      </trkpt>
      <trkpt lat="45.85639" lon="3.55525">
        <ele>442</ele>
        <time>2024-11-15T19:27:04.000Z</time>
      </trkpt>
      <trkpt lat="45.8564" lon="3.55522">
        <ele>441.60000610352</ele>
        <time>2024-11-15T19:27:05.000Z</time>
      </trkpt>
      <trkpt lat="45.85642" lon="3.55519">
        <ele>441</ele>
        <time>2024-11-15T19:27:06.000Z</time>
      </trkpt>
      <trkpt lat="45.85643" lon="3.55516">
        <ele>440.39999389648</ele>
        <time>2024-11-15T19:27:07.000Z</time>
      </trkpt>
      <trkpt lat="45.85645" lon="3.55513">
        <ele>439.60000610352</ele>
        <time>2024-11-15T19:27:08.000Z</time>
      </trkpt>
      <trkpt lat="45.85646" lon="3.5551">
        <ele>439</ele>
        <time>2024-11-15T19:27:09.000Z</time>
      </trkpt>
      <trkpt lat="45.85647" lon="3.55507">
        <ele>438.39999389648</ele>
        <time>2024-11-15T19:27:10.000Z</time>
      </trkpt>
      <trkpt lat="45.85648" lon="3.55504">
        <ele>437.60000610352</ele>
        <time>2024-11-15T19:27:11.000Z</time>
      </trkpt>
      <trkpt lat="45.85649" lon="3.55501">
        <ele>436.79998779297</ele>
        <time>2024-11-15T19:27:12.000Z</time>
      </trkpt>
      <trkpt lat="45.85649" lon="3.55499">
        <ele>436.39999389648</ele>
        <time>2024-11-15T19:27:13.000Z</time>
      </trkpt>
      <trkpt lat="45.85648" lon="3.55495">
        <ele>435.79998779297</ele>
        <time>2024-11-15T19:27:14.000Z</time>
      </trkpt>
      <trkpt lat="45.85648" lon="3.55492">
        <ele>435.39999389648</ele>
        <time>2024-11-15T19:27:15.000Z</time>
      </trkpt>
      <trkpt lat="45.85647" lon="3.55489">
        <ele>435</ele>
        <time>2024-11-15T19:27:16.000Z</time>
      </trkpt>
      <trkpt lat="45.85647" lon="3.55485">
        <ele>434.79998779297</ele>
        <time>2024-11-15T19:27:17.000Z</time>
      </trkpt>
      <trkpt lat="45.85646" lon="3.55481">
        <ele>434.60000610352</ele>
        <time>2024-11-15T19:27:18.000Z</time>
      </trkpt>
      <trkpt lat="45.85646" lon="3.55477">
        <ele>433.60000610352</ele>
        <time>2024-11-15T19:27:19.000Z</time>
      </trkpt>
      <trkpt lat="45.85646" lon="3.55473">
        <ele>433</ele>
        <time>2024-11-15T19:27:20.000Z</time>
      </trkpt>
      <trkpt lat="45.85645" lon="3.55469">
        <ele>432.60000610352</ele>
        <time>2024-11-15T19:27:21.000Z</time>
      </trkpt>
      <trkpt lat="45.85645" lon="3.55465">
        <ele>432.20001220703</ele>
        <time>2024-11-15T19:27:22.000Z</time>
      </trkpt>
      <trkpt lat="45.85644" lon="3.55462">
        <ele>431.79998779297</ele>
        <time>2024-11-15T19:27:23.000Z</time>
      </trkpt>
      <trkpt lat="45.85644" lon="3.55459">
        <ele>430.79998779297</ele>
        <time>2024-11-15T19:27:24.000Z</time>
      </trkpt>
      <trkpt lat="45.85643" lon="3.55456">
        <ele>430.39999389648</ele>
        <time>2024-11-15T19:27:25.000Z</time>
      </trkpt>
      <trkpt lat="45.85642" lon="3.55453">
        <ele>429.79998779297</ele>
        <time>2024-11-15T19:27:26.000Z</time>
      </trkpt>
      <trkpt lat="45.8564" lon="3.55451">
        <ele>429.39999389648</ele>
        <time>2024-11-15T19:27:27.000Z</time>
      </trkpt>
      <trkpt lat="45.85639" lon="3.55448">
        <ele>429.20001220703</ele>
        <time>2024-11-15T19:27:28.000Z</time>
      </trkpt>
      <trkpt lat="45.85638" lon="3.55446">
        <ele>428.20001220703</ele>
        <time>2024-11-15T19:27:29.000Z</time>
      </trkpt>
      <trkpt lat="45.85637" lon="3.55444">
        <ele>427.20001220703</ele>
        <time>2024-11-15T19:27:30.000Z</time>
      </trkpt>
      <trkpt lat="45.85636" lon="3.55442">
        <ele>426.39999389648</ele>
        <time>2024-11-15T19:27:31.000Z</time>
      </trkpt>
      <trkpt lat="45.85635" lon="3.5544">
        <ele>426</ele>
        <time>2024-11-15T19:27:32.000Z</time>
      </trkpt>
      <trkpt lat="45.85634" lon="3.55438">
        <ele>425.79998779297</ele>
        <time>2024-11-15T19:27:33.000Z</time>
      </trkpt>
      <trkpt lat="45.85633" lon="3.55435">
        <ele>425.20001220703</ele>
        <time>2024-11-15T19:27:34.000Z</time>
      </trkpt>
      <trkpt lat="45.85632" lon="3.55433">
        <ele>424.39999389648</ele>
        <time>2024-11-15T19:27:35.000Z</time>
      </trkpt>
      <trkpt lat="45.85632" lon="3.5543">
        <ele>423.79998779297</ele>
        <time>2024-11-15T19:27:36.000Z</time>
      </trkpt>
      <trkpt lat="45.85631" lon="3.55427">
        <ele>423.20001220703</ele>
        <time>2024-11-15T19:27:37.000Z</time>
      </trkpt>
      <trkpt lat="45.8563" lon="3.55424">
        <ele>422.79998779297</ele>
        <time>2024-11-15T19:27:38.000Z</time>
      </trkpt>
      <trkpt lat="45.85628" lon="3.55421">
        <ele>422.39999389648</ele>
        <time>2024-11-15T19:27:39.000Z</time>
      </trkpt>
      <trkpt lat="45.85627" lon="3.55418">
        <ele>421.60000610352</ele>
        <time>2024-11-15T19:27:40.000Z</time>
      </trkpt>
      <trkpt lat="45.85626" lon="3.55415">
        <ele>421.20001220703</ele>
        <time>2024-11-15T19:27:41.000Z</time>
      </trkpt>
      <trkpt lat="45.85625" lon="3.55412">
        <ele>420.39999389648</ele>
        <time>2024-11-15T19:27:42.000Z</time>
      </trkpt>
      <trkpt lat="45.85624" lon="3.55409">
        <ele>420.20001220703</ele>
        <time>2024-11-15T19:27:43.000Z</time>
      </trkpt>
      <trkpt lat="45.85624" lon="3.55406">
        <ele>419.39999389648</ele>
        <time>2024-11-15T19:27:44.000Z</time>
      </trkpt>
      <trkpt lat="45.85623" lon="3.55403">
        <ele>418.79998779297</ele>
        <time>2024-11-15T19:27:45.000Z</time>
      </trkpt>
      <trkpt lat="45.85622" lon="3.55401">
        <ele>417.79998779297</ele>
        <time>2024-11-15T19:27:46.000Z</time>
      </trkpt>
      <trkpt lat="45.85621" lon="3.55399">
        <ele>417</ele>
        <time>2024-11-15T19:27:47.000Z</time>
      </trkpt>
      <trkpt lat="45.8562" lon="3.55397">
        <ele>416.60000610352</ele>
        <time>2024-11-15T19:27:48.000Z</time>
      </trkpt>
      <trkpt lat="45.85619" lon="3.55395">
        <ele>416</ele>
        <time>2024-11-15T19:27:49.000Z</time>
      </trkpt>
      <trkpt lat="45.85617" lon="3.55392">
        <ele>415.60000610352</ele>
        <time>2024-11-15T19:27:50.000Z</time>
      </trkpt>
      <trkpt lat="45.85616" lon="3.5539">
        <ele>414.79998779297</ele>
        <time>2024-11-15T19:27:51.000Z</time>
      </trkpt>
      <trkpt lat="45.85615" lon="3.55387">
        <ele>414.20001220703</ele>
        <time>2024-11-15T19:27:52.000Z</time>
      </trkpt>
      <trkpt lat="45.85614" lon="3.55385">
        <ele>413.79998779297</ele>
        <time>2024-11-15T19:27:53.000Z</time>
      </trkpt>
      <trkpt lat="45.85613" lon="3.55382">
        <ele>413.20001220703</ele>
        <time>2024-11-15T19:27:54.000Z</time>
      </trkpt>
      <trkpt lat="45.85613" lon="3.5538">
        <ele>412.79998779297</ele>
        <time>2024-11-15T19:27:55.000Z</time>
      </trkpt>
      <trkpt lat="45.85613" lon="3.55377">
        <ele>412.39999389648</ele>
        <time>2024-11-15T19:27:56.000Z</time>
      </trkpt>
      <trkpt lat="45.85613" lon="3.55374">
        <ele>412</ele>
        <time>2024-11-15T19:27:57.000Z</time>
      </trkpt>
      <trkpt lat="45.85613" lon="3.55371">
        <ele>411.60000610352</ele>
        <time>2024-11-15T19:27:58.000Z</time>
      </trkpt>
      <trkpt lat="45.85613" lon="3.55368">
        <ele>410.60000610352</ele>
        <time>2024-11-15T19:27:59.000Z</time>
      </trkpt>
      <trkpt lat="45.85613" lon="3.55365">
        <ele>410</ele>
        <time>2024-11-15T19:28:00.000Z</time>
      </trkpt>
      <trkpt lat="45.85613" lon="3.55363">
        <ele>409.60000610352</ele>
        <time>2024-11-15T19:28:01.000Z</time>
      </trkpt>
      <trkpt lat="45.85614" lon="3.55361">
        <ele>408.60000610352</ele>
        <time>2024-11-15T19:28:02.000Z</time>
      </trkpt>
      <trkpt lat="45.85614" lon="3.55359">
        <ele>408</ele>
        <time>2024-11-15T19:28:03.000Z</time>
      </trkpt>
      <trkpt lat="45.85614" lon="3.55357">
        <ele>407.60000610352</ele>
        <time>2024-11-15T19:28:04.000Z</time>
      </trkpt>
      <trkpt lat="45.85614" lon="3.55355">
        <ele>406.79998779297</ele>
        <time>2024-11-15T19:28:05.000Z</time>
      </trkpt>
      <trkpt lat="45.85614" lon="3.55353">
        <ele>406.20001220703</ele>
        <time>2024-11-15T19:28:06.000Z</time>
      </trkpt>
      <trkpt lat="45.85614" lon="3.55351">
        <ele>405.20001220703</ele>
        <time>2024-11-15T19:28:07.000Z</time>
      </trkpt>
      <trkpt lat="45.85615" lon="3.55349">
        <ele>404.39999389648</ele>
        <time>2024-11-15T19:28:08.000Z</time>
      </trkpt>
      <trkpt lat="45.85615" lon="3.55347">
        <ele>404.20001220703</ele>
        <time>2024-11-15T19:28:09.000Z</time>
      </trkpt>
      <trkpt lat="45.85615" lon="3.55346">
        <ele>404</ele>
        <time>2024-11-15T19:28:10.000Z</time>
      </trkpt>
      <trkpt lat="45.85615" lon="3.55344">
        <ele>403</ele>
        <time>2024-11-15T19:28:11.000Z</time>
      </trkpt>
      <trkpt lat="45.85615" lon="3.55342">
        <ele>402.79998779297</ele>
        <time>2024-11-15T19:28:12.000Z</time>
      </trkpt>
      <trkpt lat="45.85616" lon="3.5534">
        <ele>402.39999389648</ele>
        <time>2024-11-15T19:28:13.000Z</time>
      </trkpt>
      <trkpt lat="45.85616" lon="3.55338">
        <ele>401.20001220703</ele>
        <time>2024-11-15T19:28:14.000Z</time>
      </trkpt>
      <trkpt lat="45.85616" lon="3.55336">
        <ele>400.60000610352</ele>
        <time>2024-11-15T19:28:15.000Z</time>
      </trkpt>
      <trkpt lat="45.85616" lon="3.55333">
        <ele>400.20001220703</ele>
        <time>2024-11-15T19:28:16.000Z</time>
      </trkpt>
      <trkpt lat="45.85617" lon="3.55331">
        <ele>399.60000610352</ele>
        <time>2024-11-15T19:28:17.000Z</time>
      </trkpt>
      <trkpt lat="45.85618" lon="3.55328">
        <ele>399.20001220703</ele>
        <time>2024-11-15T19:28:18.000Z</time>
      </trkpt>
      <trkpt lat="45.85619" lon="3.55325">
        <ele>398.60000610352</ele>
        <time>2024-11-15T19:28:19.000Z</time>
      </trkpt>
      <trkpt lat="45.8562" lon="3.55322">
        <ele>398</ele>
        <time>2024-11-15T19:28:20.000Z</time>
      </trkpt>
      <trkpt lat="45.85622" lon="3.55318">
        <ele>397.60000610352</ele>
        <time>2024-11-15T19:28:21.000Z</time>
      </trkpt>
      <trkpt lat="45.85623" lon="3.55314">
        <ele>397</ele>
        <time>2024-11-15T19:28:22.000Z</time>
      </trkpt>
      <trkpt lat="45.85625" lon="3.5531">
        <ele>396.60000610352</ele>
        <time>2024-11-15T19:28:23.000Z</time>
      </trkpt>
      <trkpt lat="45.85626" lon="3.55306">
        <ele>396</ele>
        <time>2024-11-15T19:28:24.000Z</time>
      </trkpt>
      <trkpt lat="45.85626" lon="3.55302">
        <ele>394.39999389648</ele>
        <time>2024-11-15T19:28:25.000Z</time>
      </trkpt>
      <trkpt lat="45.85625" lon="3.55298">
        <ele>393.60000610352</ele>
        <time>2024-11-15T19:28:26.000Z</time>
      </trkpt>
      <trkpt lat="45.85623" lon="3.55295">
        <ele>393.20001220703</ele>
        <time>2024-11-15T19:28:27.000Z</time>
      </trkpt>
      <trkpt lat="45.85621" lon="3.55292">
        <ele>392.60000610352</ele>
        <time>2024-11-15T19:28:28.000Z</time>
      </trkpt>
      <trkpt lat="45.85619" lon="3.55288">
        <ele>392.20001220703</ele>
        <time>2024-11-15T19:28:29.000Z</time>
      </trkpt>
      <trkpt lat="45.85616" lon="3.55285">
        <ele>391.79998779297</ele>
        <time>2024-11-15T19:28:30.000Z</time>
      </trkpt>
      <trkpt lat="45.85614" lon="3.55281">
        <ele>391.20001220703</ele>
        <time>2024-11-15T19:28:31.000Z</time>
      </trkpt>
      <trkpt lat="45.85612" lon="3.55277">
        <ele>390.60000610352</ele>
        <time>2024-11-15T19:28:32.000Z</time>
      </trkpt>
      <trkpt lat="45.8561" lon="3.55275">
        <ele>390.20001220703</ele>
        <time>2024-11-15T19:28:33.000Z</time>
      </trkpt>
      <trkpt lat="45.85608" lon="3.55273">
        <ele>389.39999389648</ele>
        <time>2024-11-15T19:28:34.000Z</time>
      </trkpt>
      <trkpt lat="45.85605" lon="3.55273">
        <ele>389.20001220703</ele>
        <time>2024-11-15T19:28:35.000Z</time>
      </trkpt>
      <trkpt lat="45.85603" lon="3.55275">
        <ele>388.79998779297</ele>
        <time>2024-11-15T19:28:36.000Z</time>
      </trkpt>
      <trkpt lat="45.856" lon="3.55278">
        <ele>388.60000610352</ele>
        <time>2024-11-15T19:28:37.000Z</time>
      </trkpt>
      <trkpt lat="45.85598" lon="3.55281">
        <ele>388.20001220703</ele>
        <time>2024-11-15T19:28:38.000Z</time>
      </trkpt>
      <trkpt lat="45.85596" lon="3.55285">
        <ele>387</ele>
        <time>2024-11-15T19:28:39.000Z</time>
      </trkpt>
      <trkpt lat="45.85593" lon="3.5529">
        <ele>386.39999389648</ele>
        <time>2024-11-15T19:28:40.000Z</time>
      </trkpt>
      <trkpt lat="45.85591" lon="3.55294">
        <ele>385.39999389648</ele>
        <time>2024-11-15T19:28:41.000Z</time>
      </trkpt>
      <trkpt lat="45.85588" lon="3.55297">
        <ele>385.20001220703</ele>
        <time>2024-11-15T19:28:42.000Z</time>
      </trkpt>
      <trkpt lat="45.85585" lon="3.553">
        <ele>384.79998779297</ele>
        <time>2024-11-15T19:28:43.000Z</time>
      </trkpt>
      <trkpt lat="45.85582" lon="3.55303">
        <ele>384</ele>
        <time>2024-11-15T19:28:44.000Z</time>
      </trkpt>
      <trkpt lat="45.85579" lon="3.55305">
        <ele>383.20001220703</ele>
        <time>2024-11-15T19:28:45.000Z</time>
      </trkpt>
      <trkpt lat="45.85576" lon="3.55307">
        <ele>382.39999389648</ele>
        <time>2024-11-15T19:28:46.000Z</time>
      </trkpt>
      <trkpt lat="45.85573" lon="3.55309">
        <ele>381.39999389648</ele>
        <time>2024-11-15T19:28:47.000Z</time>
      </trkpt>
      <trkpt lat="45.8557" lon="3.55311">
        <ele>380.60000610352</ele>
        <time>2024-11-15T19:28:48.000Z</time>
      </trkpt>
      <trkpt lat="45.85567" lon="3.55312">
        <ele>380.20001220703</ele>
        <time>2024-11-15T19:28:49.000Z</time>
      </trkpt>
      <trkpt lat="45.85564" lon="3.55313">
        <ele>379.39999389648</ele>
        <time>2024-11-15T19:28:50.000Z</time>
      </trkpt>
      <trkpt lat="45.8556" lon="3.55312">
        <ele>378.39999389648</ele>
        <time>2024-11-15T19:28:51.000Z</time>
      </trkpt>
      <trkpt lat="45.85558" lon="3.55311">
        <ele>377.20001220703</ele>
        <time>2024-11-15T19:28:52.000Z</time>
      </trkpt>
      <trkpt lat="45.85557" lon="3.55308">
        <ele>376.60000610352</ele>
        <time>2024-11-15T19:28:53.000Z</time>
      </trkpt>
      <trkpt lat="45.85556" lon="3.55304">
        <ele>376.60000610352</ele>
        <time>2024-11-15T19:28:54.000Z</time>
      </trkpt>
      <trkpt lat="45.85556" lon="3.553">
        <ele>376.20001220703</ele>
        <time>2024-11-15T19:28:55.000Z</time>
      </trkpt>
      <trkpt lat="45.85555" lon="3.55296">
        <ele>375.79998779297</ele>
        <time>2024-11-15T19:28:56.000Z</time>
      </trkpt>
      <trkpt lat="45.85555" lon="3.55291">
        <ele>375.60000610352</ele>
        <time>2024-11-15T19:28:57.000Z</time>
      </trkpt>
      <trkpt lat="45.85556" lon="3.55286">
        <ele>375.20001220703</ele>
        <time>2024-11-15T19:28:58.000Z</time>
      </trkpt>
      <trkpt lat="45.85557" lon="3.55281">
        <ele>374.79998779297</ele>
        <time>2024-11-15T19:28:59.000Z</time>
      </trkpt>
      <trkpt lat="45.85558" lon="3.55276">
        <ele>374.39999389648</ele>
        <time>2024-11-15T19:29:00.000Z</time>
      </trkpt>
      <trkpt lat="45.8556" lon="3.55272">
        <ele>374.20001220703</ele>
        <time>2024-11-15T19:29:01.000Z</time>
      </trkpt>
      <trkpt lat="45.85561" lon="3.55268">
        <ele>373.39999389648</ele>
        <time>2024-11-15T19:29:02.000Z</time>
      </trkpt>
      <trkpt lat="45.85562" lon="3.55263">
        <ele>372</ele>
        <time>2024-11-15T19:29:03.000Z</time>
      </trkpt>
      <trkpt lat="45.85564" lon="3.55259">
        <ele>371.20001220703</ele>
        <time>2024-11-15T19:29:04.000Z</time>
      </trkpt>
      <trkpt lat="45.85565" lon="3.55255">
        <ele>370.39999389648</ele>
        <time>2024-11-15T19:29:05.000Z</time>
      </trkpt>
      <trkpt lat="45.85565" lon="3.55251">
        <ele>369.20001220703</ele>
        <time>2024-11-15T19:29:06.000Z</time>
      </trkpt>
      <trkpt lat="45.85566" lon="3.55246">
        <ele>368.60000610352</ele>
        <time>2024-11-15T19:29:07.000Z</time>
      </trkpt>
      <trkpt lat="45.85566" lon="3.55242">
        <ele>368</ele>
        <time>2024-11-15T19:29:08.000Z</time>
      </trkpt>
      <trkpt lat="45.85566" lon="3.55237">
        <ele>367.39999389648</ele>
        <time>2024-11-15T19:29:09.000Z</time>
      </trkpt>
      <trkpt lat="45.85565" lon="3.55233">
        <ele>366.60000610352</ele>
        <time>2024-11-15T19:29:10.000Z</time>
      </trkpt>
      <trkpt lat="45.85565" lon="3.55228">
        <ele>365.79998779297</ele>
        <time>2024-11-15T19:29:11.000Z</time>
      </trkpt>
      <trkpt lat="45.85564" lon="3.55223">
        <ele>365.39999389648</ele>
        <time>2024-11-15T19:29:12.000Z</time>
      </trkpt>
      <trkpt lat="45.85563" lon="3.55218">
        <ele>365</ele>
        <time>2024-11-15T19:29:13.000Z</time>
      </trkpt>
      <trkpt lat="45.85562" lon="3.55212">
        <ele>364.39999389648</ele>
        <time>2024-11-15T19:29:14.000Z</time>
      </trkpt>
      <trkpt lat="45.85561" lon="3.55207">
        <ele>364.20001220703</ele>
        <time>2024-11-15T19:29:15.000Z</time>
      </trkpt>
      <trkpt lat="45.8556" lon="3.55203">
        <ele>363.39999389648</ele>
        <time>2024-11-15T19:29:16.000Z</time>
      </trkpt>
      <trkpt lat="45.85559" lon="3.55198">
        <ele>362.79998779297</ele>
        <time>2024-11-15T19:29:17.000Z</time>
      </trkpt>
      <trkpt lat="45.85557" lon="3.55194">
        <ele>362.60000610352</ele>
        <time>2024-11-15T19:29:18.000Z</time>
      </trkpt>
      <trkpt lat="45.85555" lon="3.5519">
        <ele>362</ele>
        <time>2024-11-15T19:29:19.000Z</time>
      </trkpt>
      <trkpt lat="45.85553" lon="3.55186">
        <ele>361.39999389648</ele>
        <time>2024-11-15T19:29:20.000Z</time>
      </trkpt>
      <trkpt lat="45.85551" lon="3.55183">
        <ele>360.79998779297</ele>
        <time>2024-11-15T19:29:21.000Z</time>
      </trkpt>
      <trkpt lat="45.85548" lon="3.55181">
        <ele>360.60000610352</ele>
        <time>2024-11-15T19:29:22.000Z</time>
      </trkpt>
      <trkpt lat="45.85545" lon="3.55179">
        <ele>360.60000610352</ele>
        <time>2024-11-15T19:29:23.000Z</time>
      </trkpt>
      <trkpt lat="45.85542" lon="3.55178">
        <ele>360</ele>
        <time>2024-11-15T19:29:24.000Z</time>
      </trkpt>
      <trkpt lat="45.85539" lon="3.55178">
        <ele>359.79998779297</ele>
        <time>2024-11-15T19:29:25.000Z</time>
      </trkpt>
      <trkpt lat="45.85536" lon="3.55178">
        <ele>359.79998779297</ele>
        <time>2024-11-15T19:29:26.000Z</time>
      </trkpt>
      <trkpt lat="45.85533" lon="3.55179">
        <ele>359.79998779297</ele>
        <time>2024-11-15T19:29:27.000Z</time>
      </trkpt>
      <trkpt lat="45.85529" lon="3.5518">
        <ele>359.60000610352</ele>
        <time>2024-11-15T19:29:28.000Z</time>
      </trkpt>
      <trkpt lat="45.85526" lon="3.5518">
        <ele>359.60000610352</ele>
        <time>2024-11-15T19:29:29.000Z</time>
      </trkpt>
      <trkpt lat="45.85522" lon="3.55181">
        <ele>359.60000610352</ele>
        <time>2024-11-15T19:29:30.000Z</time>
      </trkpt>
      <trkpt lat="45.85519" lon="3.55181">
        <ele>359.60000610352</ele>
        <time>2024-11-15T19:29:31.000Z</time>
      </trkpt>
      <trkpt lat="45.85515" lon="3.55181">
        <ele>359.39999389648</ele>
        <time>2024-11-15T19:29:32.000Z</time>
      </trkpt>
      <trkpt lat="45.85511" lon="3.5518">
        <ele>359.39999389648</ele>
        <time>2024-11-15T19:29:33.000Z</time>
      </trkpt>
      <trkpt lat="45.85508" lon="3.5518">
        <ele>359.20001220703</ele>
        <time>2024-11-15T19:29:34.000Z</time>
      </trkpt>
      <trkpt lat="45.85504" lon="3.55178">
        <ele>359</ele>
        <time>2024-11-15T19:29:35.000Z</time>
      </trkpt>
      <trkpt lat="45.85501" lon="3.55177">
        <ele>359</ele>
        <time>2024-11-15T19:29:36.000Z</time>
      </trkpt>
      <trkpt lat="45.85497" lon="3.55175">
        <ele>358.79998779297</ele>
        <time>2024-11-15T19:29:37.000Z</time>
      </trkpt>
      <trkpt lat="45.85494" lon="3.55174">
        <ele>358.79998779297</ele>
        <time>2024-11-15T19:29:38.000Z</time>
      </trkpt>
      <trkpt lat="45.85491" lon="3.55172">
        <ele>358.60000610352</ele>
        <time>2024-11-15T19:29:39.000Z</time>
      </trkpt>
      <trkpt lat="45.85488" lon="3.55169">
        <ele>358.60000610352</ele>
        <time>2024-11-15T19:29:40.000Z</time>
      </trkpt>
      <trkpt lat="45.85485" lon="3.55166">
        <ele>358.39999389648</ele>
        <time>2024-11-15T19:29:41.000Z</time>
      </trkpt>
      <trkpt lat="45.85482" lon="3.55164">
        <ele>358.39999389648</ele>
        <time>2024-11-15T19:29:42.000Z</time>
      </trkpt>
      <trkpt lat="45.8548" lon="3.55161">
        <ele>358.39999389648</ele>
        <time>2024-11-15T19:29:43.000Z</time>
      </trkpt>
      <trkpt lat="45.85477" lon="3.55158">
        <ele>358.39999389648</ele>
        <time>2024-11-15T19:29:44.000Z</time>
      </trkpt>
      <trkpt lat="45.85475" lon="3.55155">
        <ele>358.39999389648</ele>
        <time>2024-11-15T19:29:45.000Z</time>
      </trkpt>
      <trkpt lat="45.85472" lon="3.55151">
        <ele>358.39999389648</ele>
        <time>2024-11-15T19:29:46.000Z</time>
      </trkpt>
      <trkpt lat="45.8547" lon="3.55148">
        <ele>358.39999389648</ele>
        <time>2024-11-15T19:29:47.000Z</time>
      </trkpt>
      <trkpt lat="45.85468" lon="3.55145">
        <ele>358.20001220703</ele>
        <time>2024-11-15T19:29:48.000Z</time>
      </trkpt>
      <trkpt lat="45.85465" lon="3.55142">
        <ele>358.20001220703</ele>
        <time>2024-11-15T19:29:49.000Z</time>
      </trkpt>
      <trkpt lat="45.85463" lon="3.55139">
        <ele>358.20001220703</ele>
        <time>2024-11-15T19:29:50.000Z</time>
      </trkpt>
      <trkpt lat="45.85461" lon="3.55136">
        <ele>358</ele>
        <time>2024-11-15T19:29:51.000Z</time>
      </trkpt>
      <trkpt lat="45.85458" lon="3.55133">
        <ele>358.20001220703</ele>
        <time>2024-11-15T19:29:52.000Z</time>
      </trkpt>
      <trkpt lat="45.85456" lon="3.5513">
        <ele>358</ele>
        <time>2024-11-15T19:29:53.000Z</time>
      </trkpt>
      <trkpt lat="45.85454" lon="3.55127">
        <ele>358</ele>
        <time>2024-11-15T19:29:54.000Z</time>
      </trkpt>
      <trkpt lat="45.85451" lon="3.55124">
        <ele>358</ele>
        <time>2024-11-15T19:29:55.000Z</time>
      </trkpt>
      <trkpt lat="45.85449" lon="3.55121">
        <ele>357.79998779297</ele>
        <time>2024-11-15T19:29:56.000Z</time>
      </trkpt>
      <trkpt lat="45.85446" lon="3.55118">
        <ele>357.79998779297</ele>
        <time>2024-11-15T19:29:57.000Z</time>
      </trkpt>
      <trkpt lat="45.85444" lon="3.55115">
        <ele>357.79998779297</ele>
        <time>2024-11-15T19:29:58.000Z</time>
      </trkpt>
      <trkpt lat="45.85442" lon="3.55112">
        <ele>357.60000610352</ele>
        <time>2024-11-15T19:29:59.000Z</time>
      </trkpt>
      <trkpt lat="45.8544" lon="3.55109">
        <ele>357.60000610352</ele>
        <time>2024-11-15T19:30:00.000Z</time>
      </trkpt>
      <trkpt lat="45.85437" lon="3.55106">
        <ele>357.60000610352</ele>
        <time>2024-11-15T19:30:01.000Z</time>
      </trkpt>
      <trkpt lat="45.85435" lon="3.55104">
        <ele>357.60000610352</ele>
        <time>2024-11-15T19:30:02.000Z</time>
      </trkpt>
      <trkpt lat="45.85433" lon="3.55101">
        <ele>357.60000610352</ele>
        <time>2024-11-15T19:30:03.000Z</time>
      </trkpt>
      <trkpt lat="45.85431" lon="3.55099">
        <ele>357.60000610352</ele>
        <time>2024-11-15T19:30:04.000Z</time>
      </trkpt>
      <trkpt lat="45.85429" lon="3.55096">
        <ele>357.39999389648</ele>
        <time>2024-11-15T19:30:05.000Z</time>
      </trkpt>
      <trkpt lat="45.85426" lon="3.55094">
        <ele>357.39999389648</ele>
        <time>2024-11-15T19:30:06.000Z</time>
      </trkpt>
      <trkpt lat="45.85424" lon="3.55091">
        <ele>357.39999389648</ele>
        <time>2024-11-15T19:30:07.000Z</time>
      </trkpt>
      <trkpt lat="45.85422" lon="3.55089">
        <ele>357.39999389648</ele>
        <time>2024-11-15T19:30:08.000Z</time>
      </trkpt>
      <trkpt lat="45.85419" lon="3.55087">
        <ele>357.39999389648</ele>
        <time>2024-11-15T19:30:09.000Z</time>
      </trkpt>
      <trkpt lat="45.85417" lon="3.55085">
        <ele>357.20001220703</ele>
        <time>2024-11-15T19:30:10.000Z</time>
      </trkpt>
      <trkpt lat="45.85414" lon="3.55083">
        <ele>357.20001220703</ele>
        <time>2024-11-15T19:30:11.000Z</time>
      </trkpt>
      <trkpt lat="45.85412" lon="3.55081">
        <ele>357</ele>
        <time>2024-11-15T19:30:12.000Z</time>
      </trkpt>
      <trkpt lat="45.85409" lon="3.5508">
        <ele>357</ele>
        <time>2024-11-15T19:30:13.000Z</time>
      </trkpt>
      <trkpt lat="45.85407" lon="3.55078">
        <ele>357</ele>
        <time>2024-11-15T19:30:14.000Z</time>
      </trkpt>
      <trkpt lat="45.85405" lon="3.55077">
        <ele>357</ele>
        <time>2024-11-15T19:30:15.000Z</time>
      </trkpt>
      <trkpt lat="45.85402" lon="3.55075">
        <ele>356.79998779297</ele>
        <time>2024-11-15T19:30:16.000Z</time>
      </trkpt>
      <trkpt lat="45.85399" lon="3.55074">
        <ele>356.79998779297</ele>
        <time>2024-11-15T19:30:17.000Z</time>
      </trkpt>
      <trkpt lat="45.85396" lon="3.55073">
        <ele>356.79998779297</ele>
        <time>2024-11-15T19:30:18.000Z</time>
      </trkpt>
      <trkpt lat="45.85394" lon="3.55073">
        <ele>356.60000610352</ele>
        <time>2024-11-15T19:30:19.000Z</time>
      </trkpt>
      <trkpt lat="45.85391" lon="3.55072">
        <ele>356.60000610352</ele>
        <time>2024-11-15T19:30:20.000Z</time>
      </trkpt>
      <trkpt lat="45.85388" lon="3.55071">
        <ele>356.60000610352</ele>
        <time>2024-11-15T19:30:21.000Z</time>
      </trkpt>
      <trkpt lat="45.85385" lon="3.55071">
        <ele>356.60000610352</ele>
        <time>2024-11-15T19:30:22.000Z</time>
      </trkpt>
      <trkpt lat="45.85382" lon="3.5507">
        <ele>356.39999389648</ele>
        <time>2024-11-15T19:30:23.000Z</time>
      </trkpt>
      <trkpt lat="45.8538" lon="3.5507">
        <ele>356.39999389648</ele>
        <time>2024-11-15T19:30:24.000Z</time>
      </trkpt>
      <trkpt lat="45.85377" lon="3.5507">
        <ele>356.20001220703</ele>
        <time>2024-11-15T19:30:25.000Z</time>
      </trkpt>
      <trkpt lat="45.85374" lon="3.5507">
        <ele>356.20001220703</ele>
        <time>2024-11-15T19:30:26.000Z</time>
      </trkpt>
      <trkpt lat="45.85372" lon="3.5507">
        <ele>356.20001220703</ele>
        <time>2024-11-15T19:30:27.000Z</time>
      </trkpt>
      <trkpt lat="45.85369" lon="3.5507">
        <ele>356.20001220703</ele>
        <time>2024-11-15T19:30:28.000Z</time>
      </trkpt>
      <trkpt lat="45.85366" lon="3.5507">
        <ele>356</ele>
        <time>2024-11-15T19:30:29.000Z</time>
      </trkpt>
      <trkpt lat="45.85363" lon="3.55071">
        <ele>356</ele>
        <time>2024-11-15T19:30:30.000Z</time>
      </trkpt>
      <trkpt lat="45.8536" lon="3.55071">
        <ele>356</ele>
        <time>2024-11-15T19:30:31.000Z</time>
      </trkpt>
      <trkpt lat="45.85357" lon="3.55072">
        <ele>356</ele>
        <time>2024-11-15T19:30:32.000Z</time>
      </trkpt>
      <trkpt lat="45.85354" lon="3.55072">
        <ele>356</ele>
        <time>2024-11-15T19:30:33.000Z</time>
      </trkpt>
      <trkpt lat="45.85351" lon="3.55073">
        <ele>356</ele>
        <time>2024-11-15T19:30:34.000Z</time>
      </trkpt>
      <trkpt lat="45.85348" lon="3.55073">
        <ele>355.79998779297</ele>
        <time>2024-11-15T19:30:35.000Z</time>
      </trkpt>
      <trkpt lat="45.85345" lon="3.55073">
        <ele>355.60000610352</ele>
        <time>2024-11-15T19:30:36.000Z</time>
      </trkpt>
      <trkpt lat="45.85342" lon="3.55072">
        <ele>355.60000610352</ele>
        <time>2024-11-15T19:30:37.000Z</time>
      </trkpt>
      <trkpt lat="45.85339" lon="3.55072">
        <ele>355.60000610352</ele>
        <time>2024-11-15T19:30:38.000Z</time>
      </trkpt>
      <trkpt lat="45.85336" lon="3.55072">
        <ele>355.39999389648</ele>
        <time>2024-11-15T19:30:39.000Z</time>
      </trkpt>
      <trkpt lat="45.85333" lon="3.55072">
        <ele>355.39999389648</ele>
        <time>2024-11-15T19:30:40.000Z</time>
      </trkpt>
      <trkpt lat="45.85331" lon="3.55072">
        <ele>355.20001220703</ele>
        <time>2024-11-15T19:30:41.000Z</time>
      </trkpt>
      <trkpt lat="45.85328" lon="3.55072">
        <ele>355.20001220703</ele>
        <time>2024-11-15T19:30:42.000Z</time>
      </trkpt>
      <trkpt lat="45.85325" lon="3.55071">
        <ele>355.20001220703</ele>
        <time>2024-11-15T19:30:43.000Z</time>
      </trkpt>
      <trkpt lat="45.85322" lon="3.55071">
        <ele>355.20001220703</ele>
        <time>2024-11-15T19:30:44.000Z</time>
      </trkpt>
      <trkpt lat="45.85319" lon="3.55071">
        <ele>355.20001220703</ele>
        <time>2024-11-15T19:30:45.000Z</time>
      </trkpt>
      <trkpt lat="45.85316" lon="3.55071">
        <ele>355</ele>
        <time>2024-11-15T19:30:46.000Z</time>
      </trkpt>
      <trkpt lat="45.85313" lon="3.55071">
        <ele>354.79998779297</ele>
        <time>2024-11-15T19:30:47.000Z</time>
      </trkpt>
      <trkpt lat="45.8531" lon="3.55071">
        <ele>354.79998779297</ele>
        <time>2024-11-15T19:30:48.000Z</time>
      </trkpt>
      <trkpt lat="45.85308" lon="3.55071">
        <ele>354.79998779297</ele>
        <time>2024-11-15T19:30:49.000Z</time>
      </trkpt>
      <trkpt lat="45.85305" lon="3.55071">
        <ele>354.60000610352</ele>
        <time>2024-11-15T19:30:50.000Z</time>
      </trkpt>
      <trkpt lat="45.85302" lon="3.5507">
        <ele>354.60000610352</ele>
        <time>2024-11-15T19:30:51.000Z</time>
      </trkpt>
      <trkpt lat="45.85299" lon="3.5507">
        <ele>354.60000610352</ele>
        <time>2024-11-15T19:30:52.000Z</time>
      </trkpt>
      <trkpt lat="45.85297" lon="3.5507">
        <ele>354.39999389648</ele>
        <time>2024-11-15T19:30:53.000Z</time>
      </trkpt>
      <trkpt lat="45.85294" lon="3.55069">
        <ele>354.39999389648</ele>
        <time>2024-11-15T19:30:54.000Z</time>
      </trkpt>
      <trkpt lat="45.85291" lon="3.55068">
        <ele>354.20001220703</ele>
        <time>2024-11-15T19:30:55.000Z</time>
      </trkpt>
      <trkpt lat="45.85289" lon="3.55068">
        <ele>354.20001220703</ele>
        <time>2024-11-15T19:30:56.000Z</time>
      </trkpt>
      <trkpt lat="45.85286" lon="3.55067">
        <ele>354.39999389648</ele>
        <time>2024-11-15T19:30:57.000Z</time>
      </trkpt>
      <trkpt lat="45.85283" lon="3.55067">
        <ele>354.20001220703</ele>
        <time>2024-11-15T19:30:58.000Z</time>
      </trkpt>
      <trkpt lat="45.8528" lon="3.55066">
        <ele>354</ele>
        <time>2024-11-15T19:30:59.000Z</time>
      </trkpt>
      <trkpt lat="45.85278" lon="3.55066">
        <ele>354</ele>
        <time>2024-11-15T19:31:00.000Z</time>
      </trkpt>
      <trkpt lat="45.85275" lon="3.55065">
        <ele>354</ele>
        <time>2024-11-15T19:31:01.000Z</time>
      </trkpt>
      <trkpt lat="45.85272" lon="3.55064">
        <ele>354.20001220703</ele>
        <time>2024-11-15T19:31:02.000Z</time>
      </trkpt>
      <trkpt lat="45.8527" lon="3.55063">
        <ele>354</ele>
        <time>2024-11-15T19:31:03.000Z</time>
      </trkpt>
      <trkpt lat="45.85267" lon="3.55062">
        <ele>354</ele>
        <time>2024-11-15T19:31:04.000Z</time>
      </trkpt>
      <trkpt lat="45.85265" lon="3.55061">
        <ele>354</ele>
        <time>2024-11-15T19:31:05.000Z</time>
      </trkpt>
      <trkpt lat="45.85262" lon="3.5506">
        <ele>353.79998779297</ele>
        <time>2024-11-15T19:31:06.000Z</time>
      </trkpt>
      <trkpt lat="45.8526" lon="3.55058">
        <ele>353.79998779297</ele>
        <time>2024-11-15T19:31:07.000Z</time>
      </trkpt>
      <trkpt lat="45.85257" lon="3.55057">
        <ele>353.79998779297</ele>
        <time>2024-11-15T19:31:08.000Z</time>
      </trkpt>
      <trkpt lat="45.85255" lon="3.55056">
        <ele>353.79998779297</ele>
        <time>2024-11-15T19:31:09.000Z</time>
      </trkpt>
      <trkpt lat="45.85252" lon="3.55055">
        <ele>353.79998779297</ele>
        <time>2024-11-15T19:31:10.000Z</time>
      </trkpt>
      <trkpt lat="45.8525" lon="3.55054">
        <ele>353.79998779297</ele>
        <time>2024-11-15T19:31:11.000Z</time>
      </trkpt>
      <trkpt lat="45.85247" lon="3.55053">
        <ele>353.79998779297</ele>
        <time>2024-11-15T19:31:12.000Z</time>
      </trkpt>
      <trkpt lat="45.85245" lon="3.55052">
        <ele>353.79998779297</ele>
        <time>2024-11-15T19:31:13.000Z</time>
      </trkpt>
      <trkpt lat="45.85242" lon="3.55052">
        <ele>353.79998779297</ele>
        <time>2024-11-15T19:31:14.000Z</time>
      </trkpt>
      <trkpt lat="45.8524" lon="3.55051">
        <ele>353.60000610352</ele>
        <time>2024-11-15T19:31:15.000Z</time>
      </trkpt>
      <trkpt lat="45.85237" lon="3.55051">
        <ele>353.60000610352</ele>
        <time>2024-11-15T19:31:16.000Z</time>
      </trkpt>
      <trkpt lat="45.85234" lon="3.55051">
        <ele>353.60000610352</ele>
        <time>2024-11-15T19:31:17.000Z</time>
      </trkpt>
      <trkpt lat="45.85231" lon="3.55052">
        <ele>353.60000610352</ele>
        <time>2024-11-15T19:31:18.000Z</time>
      </trkpt>
      <trkpt lat="45.85229" lon="3.55052">
        <ele>353.60000610352</ele>
        <time>2024-11-15T19:31:19.000Z</time>
      </trkpt>
      <trkpt lat="45.85226" lon="3.55053">
        <ele>353.60000610352</ele>
        <time>2024-11-15T19:31:20.000Z</time>
      </trkpt>
      <trkpt lat="45.85224" lon="3.55054">
        <ele>353.60000610352</ele>
        <time>2024-11-15T19:31:21.000Z</time>
      </trkpt>
      <trkpt lat="45.85221" lon="3.55055">
        <ele>353.60000610352</ele>
        <time>2024-11-15T19:31:22.000Z</time>
      </trkpt>
      <trkpt lat="45.85219" lon="3.55057">
        <ele>353.60000610352</ele>
        <time>2024-11-15T19:31:23.000Z</time>
      </trkpt>
      <trkpt lat="45.85217" lon="3.55059">
        <ele>353.60000610352</ele>
        <time>2024-11-15T19:31:24.000Z</time>
      </trkpt>
      <trkpt lat="45.85215" lon="3.55061">
        <ele>353.60000610352</ele>
        <time>2024-11-15T19:31:25.000Z</time>
      </trkpt>
      <trkpt lat="45.85213" lon="3.55063">
        <ele>353.60000610352</ele>
        <time>2024-11-15T19:31:26.000Z</time>
      </trkpt>
      <trkpt lat="45.85211" lon="3.55065">
        <ele>353.39999389648</ele>
        <time>2024-11-15T19:31:27.000Z</time>
      </trkpt>
      <trkpt lat="45.85209" lon="3.55068">
        <ele>353.20001220703</ele>
        <time>2024-11-15T19:31:28.000Z</time>
      </trkpt>
      <trkpt lat="45.85207" lon="3.5507">
        <ele>353.20001220703</ele>
        <time>2024-11-15T19:31:29.000Z</time>
      </trkpt>
      <trkpt lat="45.85205" lon="3.55073">
        <ele>353</ele>
        <time>2024-11-15T19:31:30.000Z</time>
      </trkpt>
      <trkpt lat="45.85204" lon="3.55075">
        <ele>352.60000610352</ele>
        <time>2024-11-15T19:31:31.000Z</time>
      </trkpt>
      <trkpt lat="45.85202" lon="3.55078">
        <ele>352.20001220703</ele>
        <time>2024-11-15T19:31:32.000Z</time>
      </trkpt>
      <trkpt lat="45.852" lon="3.5508">
        <ele>351.60000610352</ele>
        <time>2024-11-15T19:31:33.000Z</time>
      </trkpt>
      <trkpt lat="45.85197" lon="3.55083">
        <ele>351.39999389648</ele>
        <time>2024-11-15T19:31:34.000Z</time>
      </trkpt>
      <trkpt lat="45.85195" lon="3.55084">
        <ele>351</ele>
        <time>2024-11-15T19:31:35.000Z</time>
      </trkpt>
      <trkpt lat="45.85192" lon="3.55085">
        <ele>350.79998779297</ele>
        <time>2024-11-15T19:31:36.000Z</time>
      </trkpt>
      <trkpt lat="45.85189" lon="3.55085">
        <ele>350.39999389648</ele>
        <time>2024-11-15T19:31:37.000Z</time>
      </trkpt>
      <trkpt lat="45.85186" lon="3.55085">
        <ele>350.20001220703</ele>
        <time>2024-11-15T19:31:38.000Z</time>
      </trkpt>
      <trkpt lat="45.85184" lon="3.55083">
        <ele>349.39999389648</ele>
        <time>2024-11-15T19:31:39.000Z</time>
      </trkpt>
      <trkpt lat="45.85181" lon="3.55081">
        <ele>349</ele>
        <time>2024-11-15T19:31:40.000Z</time>
      </trkpt>
      <trkpt lat="45.85178" lon="3.55079">
        <ele>348.39999389648</ele>
        <time>2024-11-15T19:31:41.000Z</time>
      </trkpt>
      <trkpt lat="45.85176" lon="3.55077">
        <ele>348.20001220703</ele>
        <time>2024-11-15T19:31:42.000Z</time>
      </trkpt>
      <trkpt lat="45.85173" lon="3.55076">
        <ele>347.60000610352</ele>
        <time>2024-11-15T19:31:43.000Z</time>
      </trkpt>
      <trkpt lat="45.85171" lon="3.55076">
        <ele>347</ele>
        <time>2024-11-15T19:31:44.000Z</time>
      </trkpt>
      <trkpt lat="45.85168" lon="3.55076">
        <ele>346.79998779297</ele>
        <time>2024-11-15T19:31:45.000Z</time>
      </trkpt>
      <trkpt lat="45.85166" lon="3.55077">
        <ele>346.60000610352</ele>
        <time>2024-11-15T19:31:46.000Z</time>
      </trkpt>
      <trkpt lat="45.85164" lon="3.55077">
        <ele>346.39999389648</ele>
        <time>2024-11-15T19:31:47.000Z</time>
      </trkpt>
      <trkpt lat="45.85161" lon="3.55078">
        <ele>346.39999389648</ele>
        <time>2024-11-15T19:31:48.000Z</time>
      </trkpt>
      <trkpt lat="45.85159" lon="3.55078">
        <ele>346.20001220703</ele>
        <time>2024-11-15T19:31:49.000Z</time>
      </trkpt>
      <trkpt lat="45.85157" lon="3.55078">
        <ele>346.20001220703</ele>
        <time>2024-11-15T19:31:50.000Z</time>
      </trkpt>
      <trkpt lat="45.85155" lon="3.55078">
        <ele>346</ele>
        <time>2024-11-15T19:31:51.000Z</time>
      </trkpt>
      <trkpt lat="45.85152" lon="3.55077">
        <ele>346</ele>
        <time>2024-11-15T19:31:52.000Z</time>
      </trkpt>
      <trkpt lat="45.8515" lon="3.55077">
        <ele>346</ele>
        <time>2024-11-15T19:31:53.000Z</time>
      </trkpt>
      <trkpt lat="45.85148" lon="3.55078">
        <ele>346</ele>
        <time>2024-11-15T19:31:54.000Z</time>
      </trkpt>
      <trkpt lat="45.85145" lon="3.55078">
        <ele>346</ele>
        <time>2024-11-15T19:31:55.000Z</time>
      </trkpt>
      <trkpt lat="45.85143" lon="3.55078">
        <ele>346</ele>
        <time>2024-11-15T19:31:56.000Z</time>
      </trkpt>
      <trkpt lat="45.85141" lon="3.55077">
        <ele>345.79998779297</ele>
        <time>2024-11-15T19:31:57.000Z</time>
      </trkpt>
      <trkpt lat="45.85139" lon="3.55077">
        <ele>345.79998779297</ele>
        <time>2024-11-15T19:31:58.000Z</time>
      </trkpt>
      <trkpt lat="45.85138" lon="3.55076">
        <ele>345.60000610352</ele>
        <time>2024-11-15T19:31:59.000Z</time>
      </trkpt>
      <trkpt lat="45.85137" lon="3.55074">
        <ele>345.60000610352</ele>
        <time>2024-11-15T19:32:00.000Z</time>
      </trkpt>
      <trkpt lat="45.85137" lon="3.55072">
        <ele>345.39999389648</ele>
        <time>2024-11-15T19:32:01.000Z</time>
      </trkpt>
      <trkpt lat="45.85137" lon="3.55069">
        <ele>345.20001220703</ele>
        <time>2024-11-15T19:32:02.000Z</time>
      </trkpt>
      <trkpt lat="45.85137" lon="3.55067">
        <ele>345</ele>
        <time>2024-11-15T19:32:03.000Z</time>
      </trkpt>
      <trkpt lat="45.85138" lon="3.55065">
        <ele>345</ele>
        <time>2024-11-15T19:32:04.000Z</time>
      </trkpt>
      <trkpt lat="45.85138" lon="3.55063">
        <ele>345</ele>
        <time>2024-11-15T19:32:05.000Z</time>
      </trkpt>
      <trkpt lat="45.85138" lon="3.5506">
        <ele>344.79998779297</ele>
        <time>2024-11-15T19:32:06.000Z</time>
      </trkpt>
      <trkpt lat="45.85138" lon="3.55057">
        <ele>344.79998779297</ele>
        <time>2024-11-15T19:32:07.000Z</time>
      </trkpt>
      <trkpt lat="45.85139" lon="3.55054">
        <ele>344.79998779297</ele>
        <time>2024-11-15T19:32:08.000Z</time>
      </trkpt>
      <trkpt lat="45.85139" lon="3.55051">
        <ele>344.79998779297</ele>
        <time>2024-11-15T19:32:09.000Z</time>
      </trkpt>
      <trkpt lat="45.8514" lon="3.55049">
        <ele>344.79998779297</ele>
        <time>2024-11-15T19:32:10.000Z</time>
      </trkpt>
      <trkpt lat="45.8514" lon="3.55047">
        <ele>345</ele>
        <time>2024-11-15T19:32:11.000Z</time>
      </trkpt>
      <trkpt lat="45.8514" lon="3.55045">
        <ele>345.39999389648</ele>
        <time>2024-11-15T19:32:12.000Z</time>
      </trkpt>
      <trkpt lat="45.85141" lon="3.55043">
        <ele>345.39999389648</ele>
        <time>2024-11-15T19:32:13.000Z</time>
      </trkpt>
      <trkpt lat="45.85141" lon="3.55041">
        <ele>345.39999389648</ele>
        <time>2024-11-15T19:32:14.000Z</time>
      </trkpt>
      <trkpt lat="45.85142" lon="3.55039">
        <ele>345.39999389648</ele>
        <time>2024-11-15T19:32:15.000Z</time>
      </trkpt>
      <trkpt lat="45.85142" lon="3.55037">
        <ele>345.39999389648</ele>
        <time>2024-11-15T19:32:16.000Z</time>
      </trkpt>
      <trkpt lat="45.85143" lon="3.55034">
        <ele>345.60000610352</ele>
        <time>2024-11-15T19:32:17.000Z</time>
      </trkpt>
      <trkpt lat="45.85143" lon="3.55032">
        <ele>345.60000610352</ele>
        <time>2024-11-15T19:32:18.000Z</time>
      </trkpt>
      <trkpt lat="45.85144" lon="3.55029">
        <ele>345.60000610352</ele>
        <time>2024-11-15T19:32:19.000Z</time>
      </trkpt>
      <trkpt lat="45.85145" lon="3.55027">
        <ele>345.79998779297</ele>
        <time>2024-11-15T19:32:20.000Z</time>
      </trkpt>
      <trkpt lat="45.85145" lon="3.55025">
        <ele>346</ele>
        <time>2024-11-15T19:32:21.000Z</time>
      </trkpt>
      <trkpt lat="45.85146" lon="3.55023">
        <ele>346</ele>
        <time>2024-11-15T19:32:22.000Z</time>
      </trkpt>
      <trkpt lat="45.85147" lon="3.55021">
        <ele>346.20001220703</ele>
        <time>2024-11-15T19:32:23.000Z</time>
      </trkpt>
      <trkpt lat="45.85148" lon="3.55019">
        <ele>346.20001220703</ele>
        <time>2024-11-15T19:32:24.000Z</time>
      </trkpt>
      <trkpt lat="45.85149" lon="3.55017">
        <ele>346.20001220703</ele>
        <time>2024-11-15T19:32:25.000Z</time>
      </trkpt>
      <trkpt lat="45.8515" lon="3.55015">
        <ele>346.60000610352</ele>
        <time>2024-11-15T19:32:26.000Z</time>
      </trkpt>
      <trkpt lat="45.85151" lon="3.55014">
        <ele>347</ele>
        <time>2024-11-15T19:32:27.000Z</time>
      </trkpt>
      <trkpt lat="45.85152" lon="3.55012">
        <ele>347.20001220703</ele>
        <time>2024-11-15T19:32:28.000Z</time>
      </trkpt>
      <trkpt lat="45.85153" lon="3.55011">
        <ele>347.60000610352</ele>
        <time>2024-11-15T19:32:29.000Z</time>
      </trkpt>
      <trkpt lat="45.85154" lon="3.5501">
        <ele>347.60000610352</ele>
        <time>2024-11-15T19:32:30.000Z</time>
      </trkpt>
      <trkpt lat="45.85155" lon="3.55008">
        <ele>348</ele>
        <time>2024-11-15T19:32:31.000Z</time>
      </trkpt>
      <trkpt lat="45.85156" lon="3.55007">
        <ele>348</ele>
        <time>2024-11-15T19:32:32.000Z</time>
      </trkpt>
      <trkpt lat="45.85158" lon="3.55006">
        <ele>348.79998779297</ele>
        <time>2024-11-15T19:32:33.000Z</time>
      </trkpt>
      <trkpt lat="45.85159" lon="3.55004">
        <ele>349</ele>
        <time>2024-11-15T19:32:34.000Z</time>
      </trkpt>
      <trkpt lat="45.8516" lon="3.55002">
        <ele>349</ele>
        <time>2024-11-15T19:32:35.000Z</time>
      </trkpt>
      <trkpt lat="45.85162" lon="3.54999">
        <ele>349</ele>
        <time>2024-11-15T19:32:36.000Z</time>
      </trkpt>
      <trkpt lat="45.85164" lon="3.54996">
        <ele>349</ele>
        <time>2024-11-15T19:32:37.000Z</time>
      </trkpt>
      <trkpt lat="45.85166" lon="3.54994">
        <ele>348.79998779297</ele>
        <time>2024-11-15T19:32:38.000Z</time>
      </trkpt>
      <trkpt lat="45.85169" lon="3.54992">
        <ele>348.20001220703</ele>
        <time>2024-11-15T19:32:39.000Z</time>
      </trkpt>
      <trkpt lat="45.85171" lon="3.54991">
        <ele>348</ele>
        <time>2024-11-15T19:32:40.000Z</time>
      </trkpt>
      <trkpt lat="45.85172" lon="3.5499">
        <ele>347.39999389648</ele>
        <time>2024-11-15T19:32:41.000Z</time>
      </trkpt>
      <trkpt lat="45.85174" lon="3.54989">
        <ele>347.39999389648</ele>
        <time>2024-11-15T19:32:42.000Z</time>
      </trkpt>
      <trkpt lat="45.85174" lon="3.54989">
        <ele>347.39999389648</ele>
        <time>2024-11-15T19:32:43.000Z</time>
      </trkpt>
      <trkpt lat="45.85174" lon="3.54988">
        <ele>347.39999389648</ele>
        <time>2024-11-15T19:32:44.000Z</time>
      </trkpt>
      <trkpt lat="45.85173" lon="3.54988">
        <ele>347.39999389648</ele>
        <time>2024-11-15T19:32:45.000Z</time>
      </trkpt>
      <trkpt lat="45.85172" lon="3.54989">
        <ele>347.60000610352</ele>
        <time>2024-11-15T19:32:46.000Z</time>
      </trkpt>
      <trkpt lat="45.85171" lon="3.54989">
        <ele>347.60000610352</ele>
        <time>2024-11-15T19:32:47.000Z</time>
      </trkpt>
      <trkpt lat="45.8517" lon="3.54989">
        <ele>347.79998779297</ele>
        <time>2024-11-15T19:32:48.000Z</time>
      </trkpt>
      <trkpt lat="45.85169" lon="3.5499">
        <ele>348</ele>
        <time>2024-11-15T19:32:49.000Z</time>
      </trkpt>
      <trkpt lat="45.85168" lon="3.5499">
        <ele>348.20001220703</ele>
        <time>2024-11-15T19:32:50.000Z</time>
      </trkpt>
      <trkpt lat="45.85167" lon="3.54991">
        <ele>348.60000610352</ele>
        <time>2024-11-15T19:32:51.000Z</time>
      </trkpt>
      <trkpt lat="45.85166" lon="3.54991">
        <ele>349</ele>
        <time>2024-11-15T19:32:52.000Z</time>
      </trkpt>
      <trkpt lat="45.85165" lon="3.54991">
        <ele>349.20001220703</ele>
        <time>2024-11-15T19:32:53.000Z</time>
      </trkpt>
      <trkpt lat="45.85163" lon="3.54992">
        <ele>349.39999389648</ele>
        <time>2024-11-15T19:32:54.000Z</time>
      </trkpt>
      <trkpt lat="45.85163" lon="3.54993">
        <ele>349.39999389648</ele>
        <time>2024-11-15T19:32:55.000Z</time>
      </trkpt>
      <trkpt lat="45.85162" lon="3.54994">
        <ele>349.60000610352</ele>
        <time>2024-11-15T19:32:56.000Z</time>
      </trkpt>
      <trkpt lat="45.85161" lon="3.54995">
        <ele>350</ele>
        <time>2024-11-15T19:32:57.000Z</time>
      </trkpt>
      <trkpt lat="45.8516" lon="3.54997">
        <ele>350.39999389648</ele>
        <time>2024-11-15T19:32:58.000Z</time>
      </trkpt>
      <trkpt lat="45.8516" lon="3.54998">
        <ele>350.79998779297</ele>
        <time>2024-11-15T19:32:59.000Z</time>
      </trkpt>
      <trkpt lat="45.85159" lon="3.54999">
        <ele>351.20001220703</ele>
        <time>2024-11-15T19:33:00.000Z</time>
      </trkpt>
      <trkpt lat="45.85158" lon="3.55001">
        <ele>351.39999389648</ele>
        <time>2024-11-15T19:33:01.000Z</time>
      </trkpt>
      <trkpt lat="45.85157" lon="3.55002">
        <ele>351.39999389648</ele>
        <time>2024-11-15T19:33:02.000Z</time>
      </trkpt>
      <trkpt lat="45.85156" lon="3.55003">
        <ele>351.60000610352</ele>
        <time>2024-11-15T19:33:03.000Z</time>
      </trkpt>
      <trkpt lat="45.85155" lon="3.55004">
        <ele>351.60000610352</ele>
        <time>2024-11-15T19:33:04.000Z</time>
      </trkpt>
      <trkpt lat="45.85154" lon="3.55005">
        <ele>351.79998779297</ele>
        <time>2024-11-15T19:33:05.000Z</time>
      </trkpt>
      <trkpt lat="45.85153" lon="3.55006">
        <ele>351.79998779297</ele>
        <time>2024-11-15T19:33:06.000Z</time>
      </trkpt>
      <trkpt lat="45.85152" lon="3.55006">
        <ele>351.79998779297</ele>
        <time>2024-11-15T19:33:07.000Z</time>
      </trkpt>
      <trkpt lat="45.85151" lon="3.55006">
        <ele>352</ele>
        <time>2024-11-15T19:33:08.000Z</time>
      </trkpt>
      <trkpt lat="45.8515" lon="3.55006">
        <ele>352.20001220703</ele>
        <time>2024-11-15T19:33:09.000Z</time>
      </trkpt>
      <trkpt lat="45.85149" lon="3.55006">
        <ele>352.60000610352</ele>
        <time>2024-11-15T19:33:10.000Z</time>
      </trkpt>
      <trkpt lat="45.85148" lon="3.55006">
        <ele>352.79998779297</ele>
        <time>2024-11-15T19:33:11.000Z</time>
      </trkpt>
      <trkpt lat="45.85148" lon="3.55005">
        <ele>352.79998779297</ele>
        <time>2024-11-15T19:33:12.000Z</time>
      </trkpt>
      <trkpt lat="45.85147" lon="3.55005">
        <ele>353.20001220703</ele>
        <time>2024-11-15T19:33:13.000Z</time>
      </trkpt>
      <trkpt lat="45.85146" lon="3.55004">
        <ele>353.60000610352</ele>
        <time>2024-11-15T19:33:14.000Z</time>
      </trkpt>
      <trkpt lat="45.85146" lon="3.55002">
        <ele>353.79998779297</ele>
        <time>2024-11-15T19:33:15.000Z</time>
      </trkpt>
      <trkpt lat="45.85146" lon="3.55001">
        <ele>354</ele>
        <time>2024-11-15T19:33:16.000Z</time>
      </trkpt>
      <trkpt lat="45.85146" lon="3.55">
        <ele>355</ele>
        <time>2024-11-15T19:33:17.000Z</time>
      </trkpt>
      <trkpt lat="45.85146" lon="3.55">
        <ele>355.39999389648</ele>
        <time>2024-11-15T19:33:18.000Z</time>
      </trkpt>
      <trkpt lat="45.85147" lon="3.54999">
        <ele>355.79998779297</ele>
        <time>2024-11-15T19:33:19.000Z</time>
      </trkpt>
      <trkpt lat="45.85147" lon="3.54998">
        <ele>356</ele>
        <time>2024-11-15T19:33:20.000Z</time>
      </trkpt>
      <trkpt lat="45.85147" lon="3.54997">
        <ele>356</ele>
        <time>2024-11-15T19:33:21.000Z</time>
      </trkpt>
      <trkpt lat="45.85147" lon="3.54996">
        <ele>356.20001220703</ele>
        <time>2024-11-15T19:33:22.000Z</time>
      </trkpt>
      <trkpt lat="45.85148" lon="3.54995">
        <ele>356.39999389648</ele>
        <time>2024-11-15T19:33:23.000Z</time>
      </trkpt>
      <trkpt lat="45.85148" lon="3.54993">
        <ele>356.79998779297</ele>
        <time>2024-11-15T19:33:24.000Z</time>
      </trkpt>
      <trkpt lat="45.85148" lon="3.54992">
        <ele>356.79998779297</ele>
        <time>2024-11-15T19:33:25.000Z</time>
      </trkpt>
      <trkpt lat="45.85148" lon="3.54991">
        <ele>356.79998779297</ele>
        <time>2024-11-15T19:33:26.000Z</time>
      </trkpt>
      <trkpt lat="45.85148" lon="3.5499">
        <ele>357</ele>
        <time>2024-11-15T19:33:27.000Z</time>
      </trkpt>
      <trkpt lat="45.85148" lon="3.54989">
        <ele>357</ele>
        <time>2024-11-15T19:33:28.000Z</time>
      </trkpt>
      <trkpt lat="45.85148" lon="3.54988">
        <ele>357.20001220703</ele>
        <time>2024-11-15T19:33:29.000Z</time>
      </trkpt>
      <trkpt lat="45.85149" lon="3.54987">
        <ele>357.39999389648</ele>
        <time>2024-11-15T19:33:30.000Z</time>
      </trkpt>
      <trkpt lat="45.85149" lon="3.54987">
        <ele>357.39999389648</ele>
        <time>2024-11-15T19:33:31.000Z</time>
      </trkpt>
      <trkpt lat="45.85149" lon="3.54986">
        <ele>357.60000610352</ele>
        <time>2024-11-15T19:33:32.000Z</time>
      </trkpt>
      <trkpt lat="45.85149" lon="3.54985">
        <ele>357.79998779297</ele>
        <time>2024-11-15T19:33:33.000Z</time>
      </trkpt>
      <trkpt lat="45.85149" lon="3.54983">
        <ele>357.79998779297</ele>
        <time>2024-11-15T19:33:34.000Z</time>
      </trkpt>
      <trkpt lat="45.8515" lon="3.54982">
        <ele>357.79998779297</ele>
        <time>2024-11-15T19:33:35.000Z</time>
      </trkpt>
      <trkpt lat="45.8515" lon="3.54981">
        <ele>358</ele>
        <time>2024-11-15T19:33:36.000Z</time>
      </trkpt>
      <trkpt lat="45.85151" lon="3.5498">
        <ele>358.20001220703</ele>
        <time>2024-11-15T19:33:37.000Z</time>
      </trkpt>
      <trkpt lat="45.85151" lon="3.54978">
        <ele>358.39999389648</ele>
        <time>2024-11-15T19:33:38.000Z</time>
      </trkpt>
      <trkpt lat="45.85151" lon="3.54978">
        <ele>358.79998779297</ele>
        <time>2024-11-15T19:33:39.000Z</time>
      </trkpt>
      <trkpt lat="45.85152" lon="3.54977">
        <ele>359</ele>
        <time>2024-11-15T19:33:40.000Z</time>
      </trkpt>
      <trkpt lat="45.85152" lon="3.54976">
        <ele>359</ele>
        <time>2024-11-15T19:33:41.000Z</time>
      </trkpt>
      <trkpt lat="45.85153" lon="3.54975">
        <ele>359</ele>
        <time>2024-11-15T19:33:42.000Z</time>
      </trkpt>
      <trkpt lat="45.85153" lon="3.54974">
        <ele>359.20001220703</ele>
        <time>2024-11-15T19:33:43.000Z</time>
      </trkpt>
      <trkpt lat="45.85153" lon="3.54973">
        <ele>359.20001220703</ele>
        <time>2024-11-15T19:33:44.000Z</time>
      </trkpt>
      <trkpt lat="45.85154" lon="3.54972">
        <ele>359.20001220703</ele>
        <time>2024-11-15T19:33:45.000Z</time>
      </trkpt>
      <trkpt lat="45.85154" lon="3.54972">
        <ele>359.39999389648</ele>
        <time>2024-11-15T19:33:46.000Z</time>
      </trkpt>
      <trkpt lat="45.85154" lon="3.54971">
        <ele>359.60000610352</ele>
        <time>2024-11-15T19:33:47.000Z</time>
      </trkpt>
      <trkpt lat="45.85154" lon="3.5497">
        <ele>359.60000610352</ele>
        <time>2024-11-15T19:33:48.000Z</time>
      </trkpt>
      <trkpt lat="45.85155" lon="3.54969">
        <ele>359.79998779297</ele>
        <time>2024-11-15T19:33:49.000Z</time>
      </trkpt>
      <trkpt lat="45.85155" lon="3.54968">
        <ele>360</ele>
        <time>2024-11-15T19:33:50.000Z</time>
      </trkpt>
      <trkpt lat="45.85156" lon="3.54967">
        <ele>360.39999389648</ele>
        <time>2024-11-15T19:33:51.000Z</time>
      </trkpt>
      <trkpt lat="45.85156" lon="3.54965">
        <ele>360.39999389648</ele>
        <time>2024-11-15T19:33:52.000Z</time>
      </trkpt>
      <trkpt lat="45.85157" lon="3.54964">
        <ele>360.60000610352</ele>
        <time>2024-11-15T19:33:53.000Z</time>
      </trkpt>
      <trkpt lat="45.85157" lon="3.54964">
        <ele>360.60000610352</ele>
        <time>2024-11-15T19:33:54.000Z</time>
      </trkpt>
      <trkpt lat="45.85157" lon="3.54963">
        <ele>360.79998779297</ele>
        <time>2024-11-15T19:33:55.000Z</time>
      </trkpt>
      <trkpt lat="45.85157" lon="3.54963">
        <ele>361.20001220703</ele>
        <time>2024-11-15T19:33:56.000Z</time>
      </trkpt>
      <trkpt lat="45.85158" lon="3.54962">
        <ele>361.39999389648</ele>
        <time>2024-11-15T19:33:57.000Z</time>
      </trkpt>
      <trkpt lat="45.85158" lon="3.54962">
        <ele>361.39999389648</ele>
        <time>2024-11-15T19:33:58.000Z</time>
      </trkpt>
      <trkpt lat="45.85158" lon="3.54961">
        <ele>361.39999389648</ele>
        <time>2024-11-15T19:33:59.000Z</time>
      </trkpt>
      <trkpt lat="45.85158" lon="3.5496">
        <ele>361.60000610352</ele>
        <time>2024-11-15T19:34:00.000Z</time>
      </trkpt>
      <trkpt lat="45.85159" lon="3.54959">
        <ele>361.60000610352</ele>
        <time>2024-11-15T19:34:01.000Z</time>
      </trkpt>
      <trkpt lat="45.85159" lon="3.54959">
        <ele>361.79998779297</ele>
        <time>2024-11-15T19:34:02.000Z</time>
      </trkpt>
      <trkpt lat="45.85159" lon="3.54958">
        <ele>362</ele>
        <time>2024-11-15T19:34:03.000Z</time>
      </trkpt>
      <trkpt lat="45.8516" lon="3.54957">
        <ele>362.20001220703</ele>
        <time>2024-11-15T19:34:04.000Z</time>
      </trkpt>
      <trkpt lat="45.8516" lon="3.54956">
        <ele>362.39999389648</ele>
        <time>2024-11-15T19:34:05.000Z</time>
      </trkpt>
      <trkpt lat="45.85161" lon="3.54955">
        <ele>362.39999389648</ele>
        <time>2024-11-15T19:34:06.000Z</time>
      </trkpt>
      <trkpt lat="45.85161" lon="3.54953">
        <ele>362.60000610352</ele>
        <time>2024-11-15T19:34:07.000Z</time>
      </trkpt>
      <trkpt lat="45.85162" lon="3.54952">
        <ele>363</ele>
        <time>2024-11-15T19:34:08.000Z</time>
      </trkpt>
      <trkpt lat="45.85162" lon="3.54951">
        <ele>363.39999389648</ele>
        <time>2024-11-15T19:34:09.000Z</time>
      </trkpt>
      <trkpt lat="45.85162" lon="3.5495">
        <ele>363.60000610352</ele>
        <time>2024-11-15T19:34:10.000Z</time>
      </trkpt>
      <trkpt lat="45.85163" lon="3.54949">
        <ele>363.60000610352</ele>
        <time>2024-11-15T19:34:11.000Z</time>
      </trkpt>
      <trkpt lat="45.85163" lon="3.54948">
        <ele>363.79998779297</ele>
        <time>2024-11-15T19:34:12.000Z</time>
      </trkpt>
      <trkpt lat="45.85164" lon="3.54947">
        <ele>364.39999389648</ele>
        <time>2024-11-15T19:34:13.000Z</time>
      </trkpt>
      <trkpt lat="45.85164" lon="3.54946">
        <ele>364.60000610352</ele>
        <time>2024-11-15T19:34:14.000Z</time>
      </trkpt>
      <trkpt lat="45.85165" lon="3.54945">
        <ele>364.60000610352</ele>
        <time>2024-11-15T19:34:15.000Z</time>
      </trkpt>
      <trkpt lat="45.85165" lon="3.54944">
        <ele>364.60000610352</ele>
        <time>2024-11-15T19:34:16.000Z</time>
      </trkpt>
      <trkpt lat="45.85166" lon="3.54943">
        <ele>365</ele>
        <time>2024-11-15T19:34:17.000Z</time>
      </trkpt>
      <trkpt lat="45.85166" lon="3.54942">
        <ele>365.20001220703</ele>
        <time>2024-11-15T19:34:18.000Z</time>
      </trkpt>
      <trkpt lat="45.85166" lon="3.54941">
        <ele>365.60000610352</ele>
        <time>2024-11-15T19:34:19.000Z</time>
      </trkpt>
      <trkpt lat="45.85167" lon="3.5494">
        <ele>365.79998779297</ele>
        <time>2024-11-15T19:34:20.000Z</time>
      </trkpt>
      <trkpt lat="45.85167" lon="3.54939">
        <ele>365.79998779297</ele>
        <time>2024-11-15T19:34:21.000Z</time>
      </trkpt>
      <trkpt lat="45.85168" lon="3.54939">
        <ele>366</ele>
        <time>2024-11-15T19:34:22.000Z</time>
      </trkpt>
      <trkpt lat="45.85168" lon="3.54938">
        <ele>366</ele>
        <time>2024-11-15T19:34:23.000Z</time>
      </trkpt>
      <trkpt lat="45.85168" lon="3.54938">
        <ele>366.20001220703</ele>
        <time>2024-11-15T19:34:24.000Z</time>
      </trkpt>
      <trkpt lat="45.85169" lon="3.54938">
        <ele>366.39999389648</ele>
        <time>2024-11-15T19:34:25.000Z</time>
      </trkpt>
      <trkpt lat="45.85169" lon="3.54937">
        <ele>366.79998779297</ele>
        <time>2024-11-15T19:34:26.000Z</time>
      </trkpt>
      <trkpt lat="45.85169" lon="3.54937">
        <ele>366.79998779297</ele>
        <time>2024-11-15T19:34:27.000Z</time>
      </trkpt>
      <trkpt lat="45.85169" lon="3.54937">
        <ele>367</ele>
        <time>2024-11-15T19:34:28.000Z</time>
      </trkpt>
      <trkpt lat="45.85169" lon="3.54937">
        <ele>367.20001220703</ele>
        <time>2024-11-15T19:34:29.000Z</time>
      </trkpt>
      <trkpt lat="45.85169" lon="3.54936">
        <ele>367.60000610352</ele>
        <time>2024-11-15T19:34:30.000Z</time>
      </trkpt>
      <trkpt lat="45.85169" lon="3.54936">
        <ele>367.79998779297</ele>
        <time>2024-11-15T19:34:31.000Z</time>
      </trkpt>
      <trkpt lat="45.85169" lon="3.54936">
        <ele>368</ele>
        <time>2024-11-15T19:34:32.000Z</time>
      </trkpt>
      <trkpt lat="45.85168" lon="3.54935">
        <ele>368.20001220703</ele>
        <time>2024-11-15T19:34:33.000Z</time>
      </trkpt>
      <trkpt lat="45.85167" lon="3.54936">
        <ele>368.79998779297</ele>
        <time>2024-11-15T19:34:34.000Z</time>
      </trkpt>
      <trkpt lat="45.85166" lon="3.54936">
        <ele>369.20001220703</ele>
        <time>2024-11-15T19:34:35.000Z</time>
      </trkpt>
      <trkpt lat="45.85165" lon="3.54936">
        <ele>369.39999389648</ele>
        <time>2024-11-15T19:34:36.000Z</time>
      </trkpt>
      <trkpt lat="45.85164" lon="3.54937">
        <ele>369.39999389648</ele>
        <time>2024-11-15T19:34:37.000Z</time>
      </trkpt>
      <trkpt lat="45.85163" lon="3.54937">
        <ele>369.79998779297</ele>
        <time>2024-11-15T19:34:38.000Z</time>
      </trkpt>
      <trkpt lat="45.85163" lon="3.54937">
        <ele>369.79998779297</ele>
        <time>2024-11-15T19:34:39.000Z</time>
      </trkpt>
      <trkpt lat="45.85162" lon="3.54937">
        <ele>369.79998779297</ele>
        <time>2024-11-15T19:34:40.000Z</time>
      </trkpt>
      <trkpt lat="45.85161" lon="3.54937">
        <ele>370</ele>
        <time>2024-11-15T19:34:41.000Z</time>
      </trkpt>
      <trkpt lat="45.8516" lon="3.54937">
        <ele>370</ele>
        <time>2024-11-15T19:34:42.000Z</time>
      </trkpt>
      <trkpt lat="45.85159" lon="3.54937">
        <ele>370</ele>
        <time>2024-11-15T19:34:43.000Z</time>
      </trkpt>
      <trkpt lat="45.85159" lon="3.54937">
        <ele>370.20001220703</ele>
        <time>2024-11-15T19:34:44.000Z</time>
      </trkpt>
      <trkpt lat="45.85158" lon="3.54938">
        <ele>370.20001220703</ele>
        <time>2024-11-15T19:34:45.000Z</time>
      </trkpt>
      <trkpt lat="45.85157" lon="3.54938">
        <ele>370.39999389648</ele>
        <time>2024-11-15T19:34:46.000Z</time>
      </trkpt>
      <trkpt lat="45.85156" lon="3.54938">
        <ele>370.79998779297</ele>
        <time>2024-11-15T19:34:47.000Z</time>
      </trkpt>
      <trkpt lat="45.85155" lon="3.54939">
        <ele>370.79998779297</ele>
        <time>2024-11-15T19:34:48.000Z</time>
      </trkpt>
      <trkpt lat="45.85155" lon="3.5494">
        <ele>371</ele>
        <time>2024-11-15T19:34:49.000Z</time>
      </trkpt>
      <trkpt lat="45.85154" lon="3.5494">
        <ele>371.20001220703</ele>
        <time>2024-11-15T19:34:50.000Z</time>
      </trkpt>
      <trkpt lat="45.85153" lon="3.54941">
        <ele>371.39999389648</ele>
        <time>2024-11-15T19:34:51.000Z</time>
      </trkpt>
      <trkpt lat="45.85153" lon="3.54942">
        <ele>371.60000610352</ele>
        <time>2024-11-15T19:34:52.000Z</time>
      </trkpt>
      <trkpt lat="45.85152" lon="3.54943">
        <ele>371.60000610352</ele>
        <time>2024-11-15T19:34:53.000Z</time>
      </trkpt>
      <trkpt lat="45.85151" lon="3.54945">
        <ele>371.60000610352</ele>
        <time>2024-11-15T19:34:54.000Z</time>
      </trkpt>
      <trkpt lat="45.8515" lon="3.54946">
        <ele>371.79998779297</ele>
        <time>2024-11-15T19:34:55.000Z</time>
      </trkpt>
      <trkpt lat="45.85149" lon="3.54948">
        <ele>371.60000610352</ele>
        <time>2024-11-15T19:34:56.000Z</time>
      </trkpt>
      <trkpt lat="45.85148" lon="3.54949">
        <ele>371.60000610352</ele>
        <time>2024-11-15T19:34:57.000Z</time>
      </trkpt>
      <trkpt lat="45.85147" lon="3.54949">
        <ele>371.60000610352</ele>
        <time>2024-11-15T19:34:58.000Z</time>
      </trkpt>
      <trkpt lat="45.85146" lon="3.54949">
        <ele>371.60000610352</ele>
        <time>2024-11-15T19:34:59.000Z</time>
      </trkpt>
      <trkpt lat="45.85146" lon="3.54948">
        <ele>371.60000610352</ele>
        <time>2024-11-15T19:35:00.000Z</time>
      </trkpt>
      <trkpt lat="45.85145" lon="3.54947">
        <ele>371.60000610352</ele>
        <time>2024-11-15T19:35:01.000Z</time>
      </trkpt>
      <trkpt lat="45.85146" lon="3.54945">
        <ele>371.60000610352</ele>
        <time>2024-11-15T19:35:02.000Z</time>
      </trkpt>
      <trkpt lat="45.85146" lon="3.54944">
        <ele>371.79998779297</ele>
        <time>2024-11-15T19:35:03.000Z</time>
      </trkpt>
      <trkpt lat="45.85147" lon="3.54943">
        <ele>371.79998779297</ele>
        <time>2024-11-15T19:35:04.000Z</time>
      </trkpt>
      <trkpt lat="45.85148" lon="3.54941">
        <ele>372</ele>
        <time>2024-11-15T19:35:05.000Z</time>
      </trkpt>
      <trkpt lat="45.85149" lon="3.5494">
        <ele>372.20001220703</ele>
        <time>2024-11-15T19:35:06.000Z</time>
      </trkpt>
      <trkpt lat="45.8515" lon="3.54938">
        <ele>372.39999389648</ele>
        <time>2024-11-15T19:35:07.000Z</time>
      </trkpt>
      <trkpt lat="45.85151" lon="3.54937">
        <ele>372.60000610352</ele>
        <time>2024-11-15T19:35:08.000Z</time>
      </trkpt>
      <trkpt lat="45.85151" lon="3.54935">
        <ele>372.79998779297</ele>
        <time>2024-11-15T19:35:09.000Z</time>
      </trkpt>
      <trkpt lat="45.85152" lon="3.54934">
        <ele>373</ele>
        <time>2024-11-15T19:35:10.000Z</time>
      </trkpt>
      <trkpt lat="45.85152" lon="3.54933">
        <ele>373.20001220703</ele>
        <time>2024-11-15T19:35:11.000Z</time>
      </trkpt>
      <trkpt lat="45.85153" lon="3.54932">
        <ele>373.39999389648</ele>
        <time>2024-11-15T19:35:12.000Z</time>
      </trkpt>
      <trkpt lat="45.85153" lon="3.5493">
        <ele>373.39999389648</ele>
        <time>2024-11-15T19:35:13.000Z</time>
      </trkpt>
      <trkpt lat="45.85153" lon="3.54929">
        <ele>373.39999389648</ele>
        <time>2024-11-15T19:35:14.000Z</time>
      </trkpt>
      <trkpt lat="45.85154" lon="3.54927">
        <ele>373.60000610352</ele>
        <time>2024-11-15T19:35:15.000Z</time>
      </trkpt>
      <trkpt lat="45.85154" lon="3.54926">
        <ele>373.60000610352</ele>
        <time>2024-11-15T19:35:16.000Z</time>
      </trkpt>
      <trkpt lat="45.85154" lon="3.54924">
        <ele>374</ele>
        <time>2024-11-15T19:35:17.000Z</time>
      </trkpt>
      <trkpt lat="45.85154" lon="3.54923">
        <ele>374.20001220703</ele>
        <time>2024-11-15T19:35:18.000Z</time>
      </trkpt>
      <trkpt lat="45.85154" lon="3.54922">
        <ele>374.39999389648</ele>
        <time>2024-11-15T19:35:19.000Z</time>
      </trkpt>
      <trkpt lat="45.85154" lon="3.54921">
        <ele>374.60000610352</ele>
        <time>2024-11-15T19:35:20.000Z</time>
      </trkpt>
      <trkpt lat="45.85153" lon="3.54919">
        <ele>374.60000610352</ele>
        <time>2024-11-15T19:35:21.000Z</time>
      </trkpt>
      <trkpt lat="45.85152" lon="3.54918">
        <ele>375</ele>
        <time>2024-11-15T19:35:22.000Z</time>
      </trkpt>
      <trkpt lat="45.85152" lon="3.54917">
        <ele>375.20001220703</ele>
        <time>2024-11-15T19:35:23.000Z</time>
      </trkpt>
      <trkpt lat="45.85151" lon="3.54915">
        <ele>375.39999389648</ele>
        <time>2024-11-15T19:35:24.000Z</time>
      </trkpt>
      <trkpt lat="45.8515" lon="3.54914">
        <ele>375.60000610352</ele>
        <time>2024-11-15T19:35:25.000Z</time>
      </trkpt>
      <trkpt lat="45.85148" lon="3.54911">
        <ele>375.79998779297</ele>
        <time>2024-11-15T19:35:26.000Z</time>
      </trkpt>
      <trkpt lat="45.85147" lon="3.5491">
        <ele>376</ele>
        <time>2024-11-15T19:35:27.000Z</time>
      </trkpt>
      <trkpt lat="45.85146" lon="3.54908">
        <ele>376.20001220703</ele>
        <time>2024-11-15T19:35:28.000Z</time>
      </trkpt>
      <trkpt lat="45.85144" lon="3.54906">
        <ele>376.20001220703</ele>
        <time>2024-11-15T19:35:29.000Z</time>
      </trkpt>
      <trkpt lat="45.85143" lon="3.54904">
        <ele>376.20001220703</ele>
        <time>2024-11-15T19:35:30.000Z</time>
      </trkpt>
      <trkpt lat="45.85141" lon="3.54902">
        <ele>376.20001220703</ele>
        <time>2024-11-15T19:35:31.000Z</time>
      </trkpt>
      <trkpt lat="45.8514" lon="3.54901">
        <ele>376.39999389648</ele>
        <time>2024-11-15T19:35:32.000Z</time>
      </trkpt>
      <trkpt lat="45.85138" lon="3.54899">
        <ele>376.20001220703</ele>
        <time>2024-11-15T19:35:33.000Z</time>
      </trkpt>
      <trkpt lat="45.85137" lon="3.54897">
        <ele>376.20001220703</ele>
        <time>2024-11-15T19:35:34.000Z</time>
      </trkpt>
      <trkpt lat="45.85136" lon="3.54896">
        <ele>376.20001220703</ele>
        <time>2024-11-15T19:35:35.000Z</time>
      </trkpt>
      <trkpt lat="45.85136" lon="3.54894">
        <ele>376.20001220703</ele>
        <time>2024-11-15T19:35:36.000Z</time>
      </trkpt>
      <trkpt lat="45.85135" lon="3.54892">
        <ele>376</ele>
        <time>2024-11-15T19:35:37.000Z</time>
      </trkpt>
      <trkpt lat="45.85135" lon="3.54889">
        <ele>375.39999389648</ele>
        <time>2024-11-15T19:35:38.000Z</time>
      </trkpt>
      <trkpt lat="45.85136" lon="3.54886">
        <ele>375</ele>
        <time>2024-11-15T19:35:39.000Z</time>
      </trkpt>
      <trkpt lat="45.85136" lon="3.54883">
        <ele>374.60000610352</ele>
        <time>2024-11-15T19:35:40.000Z</time>
      </trkpt>
      <trkpt lat="45.85137" lon="3.5488">
        <ele>374.39999389648</ele>
        <time>2024-11-15T19:35:41.000Z</time>
      </trkpt>
      <trkpt lat="45.85138" lon="3.54876">
        <ele>374.20001220703</ele>
        <time>2024-11-15T19:35:42.000Z</time>
      </trkpt>
      <trkpt lat="45.85138" lon="3.54873">
        <ele>374</ele>
        <time>2024-11-15T19:35:43.000Z</time>
      </trkpt>
      <trkpt lat="45.85139" lon="3.54869">
        <ele>374</ele>
        <time>2024-11-15T19:35:44.000Z</time>
      </trkpt>
      <trkpt lat="45.85141" lon="3.54866">
        <ele>373.39999389648</ele>
        <time>2024-11-15T19:35:45.000Z</time>
      </trkpt>
      <trkpt lat="45.85142" lon="3.54862">
        <ele>373.39999389648</ele>
        <time>2024-11-15T19:35:46.000Z</time>
      </trkpt>
      <trkpt lat="45.85143" lon="3.54859">
        <ele>373.20001220703</ele>
        <time>2024-11-15T19:35:47.000Z</time>
      </trkpt>
      <trkpt lat="45.85144" lon="3.54856">
        <ele>373</ele>
        <time>2024-11-15T19:35:48.000Z</time>
      </trkpt>
      <trkpt lat="45.85145" lon="3.54852">
        <ele>372.79998779297</ele>
        <time>2024-11-15T19:35:49.000Z</time>
      </trkpt>
      <trkpt lat="45.85146" lon="3.54849">
        <ele>372.60000610352</ele>
        <time>2024-11-15T19:35:50.000Z</time>
      </trkpt>
      <trkpt lat="45.85146" lon="3.54845">
        <ele>372.39999389648</ele>
        <time>2024-11-15T19:35:51.000Z</time>
      </trkpt>
      <trkpt lat="45.85147" lon="3.54841">
        <ele>372.20001220703</ele>
        <time>2024-11-15T19:35:52.000Z</time>
      </trkpt>
      <trkpt lat="45.85148" lon="3.54838">
        <ele>372</ele>
        <time>2024-11-15T19:35:53.000Z</time>
      </trkpt>
      <trkpt lat="45.85149" lon="3.54835">
        <ele>371.60000610352</ele>
        <time>2024-11-15T19:35:54.000Z</time>
      </trkpt>
      <trkpt lat="45.8515" lon="3.54832">
        <ele>371.39999389648</ele>
        <time>2024-11-15T19:35:55.000Z</time>
      </trkpt>
      <trkpt lat="45.85152" lon="3.54829">
        <ele>371.39999389648</ele>
        <time>2024-11-15T19:35:56.000Z</time>
      </trkpt>
      <trkpt lat="45.85153" lon="3.54827">
        <ele>371.20001220703</ele>
        <time>2024-11-15T19:35:57.000Z</time>
      </trkpt>
      <trkpt lat="45.85154" lon="3.54826">
        <ele>371.20001220703</ele>
        <time>2024-11-15T19:35:58.000Z</time>
      </trkpt>
      <trkpt lat="45.85155" lon="3.54825">
        <ele>371.20001220703</ele>
        <time>2024-11-15T19:35:59.000Z</time>
      </trkpt>
      <trkpt lat="45.85156" lon="3.54825">
        <ele>371.20001220703</ele>
        <time>2024-11-15T19:36:00.000Z</time>
      </trkpt>
      <trkpt lat="45.85158" lon="3.54824">
        <ele>371.20001220703</ele>
        <time>2024-11-15T19:36:01.000Z</time>
      </trkpt>
      <trkpt lat="45.85159" lon="3.54824">
        <ele>371.20001220703</ele>
        <time>2024-11-15T19:36:02.000Z</time>
      </trkpt>
      <trkpt lat="45.8516" lon="3.54823">
        <ele>371.20001220703</ele>
        <time>2024-11-15T19:36:03.000Z</time>
      </trkpt>
      <trkpt lat="45.85161" lon="3.54822">
        <ele>371.39999389648</ele>
        <time>2024-11-15T19:36:04.000Z</time>
      </trkpt>
      <trkpt lat="45.85162" lon="3.5482">
        <ele>371.39999389648</ele>
        <time>2024-11-15T19:36:05.000Z</time>
      </trkpt>
      <trkpt lat="45.85164" lon="3.54818">
        <ele>371.39999389648</ele>
        <time>2024-11-15T19:36:06.000Z</time>
      </trkpt>
      <trkpt lat="45.85165" lon="3.54816">
        <ele>371.60000610352</ele>
        <time>2024-11-15T19:36:07.000Z</time>
      </trkpt>
      <trkpt lat="45.85167" lon="3.54814">
        <ele>371.79998779297</ele>
        <time>2024-11-15T19:36:08.000Z</time>
      </trkpt>
      <trkpt lat="45.85169" lon="3.54812">
        <ele>372</ele>
        <time>2024-11-15T19:36:09.000Z</time>
      </trkpt>
      <trkpt lat="45.85171" lon="3.54811">
        <ele>372.20001220703</ele>
        <time>2024-11-15T19:36:10.000Z</time>
      </trkpt>
      <trkpt lat="45.85172" lon="3.54809">
        <ele>372.39999389648</ele>
        <time>2024-11-15T19:36:11.000Z</time>
      </trkpt>
      <trkpt lat="45.85174" lon="3.54808">
        <ele>372.60000610352</ele>
        <time>2024-11-15T19:36:12.000Z</time>
      </trkpt>
      <trkpt lat="45.85176" lon="3.54806">
        <ele>373</ele>
        <time>2024-11-15T19:36:13.000Z</time>
      </trkpt>
      <trkpt lat="45.85179" lon="3.54805">
        <ele>373.79998779297</ele>
        <time>2024-11-15T19:36:14.000Z</time>
      </trkpt>
      <trkpt lat="45.85181" lon="3.54803">
        <ele>374</ele>
        <time>2024-11-15T19:36:15.000Z</time>
      </trkpt>
      <trkpt lat="45.85183" lon="3.54802">
        <ele>374</ele>
        <time>2024-11-15T19:36:16.000Z</time>
      </trkpt>
      <trkpt lat="45.85186" lon="3.54801">
        <ele>374</ele>
        <time>2024-11-15T19:36:17.000Z</time>
      </trkpt>
      <trkpt lat="45.85188" lon="3.548">
        <ele>373.79998779297</ele>
        <time>2024-11-15T19:36:18.000Z</time>
      </trkpt>
      <trkpt lat="45.85191" lon="3.54799">
        <ele>373.79998779297</ele>
        <time>2024-11-15T19:36:19.000Z</time>
      </trkpt>
      <trkpt lat="45.85193" lon="3.54798">
        <ele>373.79998779297</ele>
        <time>2024-11-15T19:36:20.000Z</time>
      </trkpt>
      <trkpt lat="45.85196" lon="3.54796">
        <ele>373.60000610352</ele>
        <time>2024-11-15T19:36:21.000Z</time>
      </trkpt>
      <trkpt lat="45.85198" lon="3.54794">
        <ele>373.39999389648</ele>
        <time>2024-11-15T19:36:22.000Z</time>
      </trkpt>
      <trkpt lat="45.852" lon="3.54792">
        <ele>373.39999389648</ele>
        <time>2024-11-15T19:36:23.000Z</time>
      </trkpt>
      <trkpt lat="45.85202" lon="3.5479">
        <ele>373.20001220703</ele>
        <time>2024-11-15T19:36:24.000Z</time>
      </trkpt>
      <trkpt lat="45.85204" lon="3.54787">
        <ele>373</ele>
        <time>2024-11-15T19:36:25.000Z</time>
      </trkpt>
      <trkpt lat="45.85205" lon="3.54783">
        <ele>372.39999389648</ele>
        <time>2024-11-15T19:36:26.000Z</time>
      </trkpt>
      <trkpt lat="45.85206" lon="3.54779">
        <ele>372</ele>
        <time>2024-11-15T19:36:27.000Z</time>
      </trkpt>
      <trkpt lat="45.85207" lon="3.54775">
        <ele>371.39999389648</ele>
        <time>2024-11-15T19:36:28.000Z</time>
      </trkpt>
      <trkpt lat="45.85208" lon="3.54771">
        <ele>371.20001220703</ele>
        <time>2024-11-15T19:36:29.000Z</time>
      </trkpt>
      <trkpt lat="45.85208" lon="3.54767">
        <ele>370.79998779297</ele>
        <time>2024-11-15T19:36:30.000Z</time>
      </trkpt>
      <trkpt lat="45.85209" lon="3.54762">
        <ele>370.39999389648</ele>
        <time>2024-11-15T19:36:31.000Z</time>
      </trkpt>
      <trkpt lat="45.8521" lon="3.54758">
        <ele>370.20001220703</ele>
        <time>2024-11-15T19:36:32.000Z</time>
      </trkpt>
      <trkpt lat="45.85211" lon="3.54754">
        <ele>370</ele>
        <time>2024-11-15T19:36:33.000Z</time>
      </trkpt>
      <trkpt lat="45.85212" lon="3.5475">
        <ele>369.79998779297</ele>
        <time>2024-11-15T19:36:34.000Z</time>
      </trkpt>
      <trkpt lat="45.85212" lon="3.54746">
        <ele>369.60000610352</ele>
        <time>2024-11-15T19:36:35.000Z</time>
      </trkpt>
      <trkpt lat="45.85213" lon="3.54742">
        <ele>369.39999389648</ele>
        <time>2024-11-15T19:36:36.000Z</time>
      </trkpt>
      <trkpt lat="45.85214" lon="3.54737">
        <ele>369</ele>
        <time>2024-11-15T19:36:37.000Z</time>
      </trkpt>
      <trkpt lat="45.85214" lon="3.54733">
        <ele>368.60000610352</ele>
        <time>2024-11-15T19:36:38.000Z</time>
      </trkpt>
      <trkpt lat="45.85215" lon="3.54729">
        <ele>367.79998779297</ele>
        <time>2024-11-15T19:36:39.000Z</time>
      </trkpt>
      <trkpt lat="45.85215" lon="3.54724">
        <ele>367</ele>
        <time>2024-11-15T19:36:40.000Z</time>
      </trkpt>
      <trkpt lat="45.85216" lon="3.5472">
        <ele>366.79998779297</ele>
        <time>2024-11-15T19:36:41.000Z</time>
      </trkpt>
      <trkpt lat="45.85216" lon="3.54716">
        <ele>366.60000610352</ele>
        <time>2024-11-15T19:36:42.000Z</time>
      </trkpt>
      <trkpt lat="45.85217" lon="3.54711">
        <ele>366</ele>
        <time>2024-11-15T19:36:43.000Z</time>
      </trkpt>
      <trkpt lat="45.85217" lon="3.54707">
        <ele>365.79998779297</ele>
        <time>2024-11-15T19:36:44.000Z</time>
      </trkpt>
      <trkpt lat="45.85217" lon="3.54703">
        <ele>365.60000610352</ele>
        <time>2024-11-15T19:36:45.000Z</time>
      </trkpt>
      <trkpt lat="45.85217" lon="3.54698">
        <ele>365.60000610352</ele>
        <time>2024-11-15T19:36:46.000Z</time>
      </trkpt>
      <trkpt lat="45.85216" lon="3.54694">
        <ele>365.20001220703</ele>
        <time>2024-11-15T19:36:47.000Z</time>
      </trkpt>
      <trkpt lat="45.85216" lon="3.5469">
        <ele>364.79998779297</ele>
        <time>2024-11-15T19:36:48.000Z</time>
      </trkpt>
      <trkpt lat="45.85216" lon="3.54685">
        <ele>364.60000610352</ele>
        <time>2024-11-15T19:36:49.000Z</time>
      </trkpt>
      <trkpt lat="45.85215" lon="3.5468">
        <ele>364.39999389648</ele>
        <time>2024-11-15T19:36:50.000Z</time>
      </trkpt>
      <trkpt lat="45.85215" lon="3.54676">
        <ele>364.20001220703</ele>
        <time>2024-11-15T19:36:51.000Z</time>
      </trkpt>
      <trkpt lat="45.85215" lon="3.54671">
        <ele>363.79998779297</ele>
        <time>2024-11-15T19:36:52.000Z</time>
      </trkpt>
      <trkpt lat="45.85214" lon="3.54667">
        <ele>363.60000610352</ele>
        <time>2024-11-15T19:36:53.000Z</time>
      </trkpt>
      <trkpt lat="45.85214" lon="3.54663">
        <ele>363.39999389648</ele>
        <time>2024-11-15T19:36:54.000Z</time>
      </trkpt>
      <trkpt lat="45.85214" lon="3.54658">
        <ele>363.20001220703</ele>
        <time>2024-11-15T19:36:55.000Z</time>
      </trkpt>
      <trkpt lat="45.85213" lon="3.54654">
        <ele>363</ele>
        <time>2024-11-15T19:36:56.000Z</time>
      </trkpt>
      <trkpt lat="45.85214" lon="3.54649">
        <ele>362.79998779297</ele>
        <time>2024-11-15T19:36:57.000Z</time>
      </trkpt>
      <trkpt lat="45.85214" lon="3.54645">
        <ele>362.60000610352</ele>
        <time>2024-11-15T19:36:58.000Z</time>
      </trkpt>
      <trkpt lat="45.85215" lon="3.54641">
        <ele>362.20001220703</ele>
        <time>2024-11-15T19:36:59.000Z</time>
      </trkpt>
      <trkpt lat="45.85216" lon="3.54637">
        <ele>362</ele>
        <time>2024-11-15T19:37:00.000Z</time>
      </trkpt>
      <trkpt lat="45.85216" lon="3.54634">
        <ele>361.79998779297</ele>
        <time>2024-11-15T19:37:01.000Z</time>
      </trkpt>
      <trkpt lat="45.85217" lon="3.54632">
        <ele>361.60000610352</ele>
        <time>2024-11-15T19:37:02.000Z</time>
      </trkpt>
      <trkpt lat="45.85216" lon="3.54631">
        <ele>361</ele>
        <time>2024-11-15T19:37:03.000Z</time>
      </trkpt>
      <trkpt lat="45.85214" lon="3.5463">
        <ele>360.60000610352</ele>
        <time>2024-11-15T19:37:04.000Z</time>
      </trkpt>
      <trkpt lat="45.85212" lon="3.54631">
        <ele>360.60000610352</ele>
        <time>2024-11-15T19:37:05.000Z</time>
      </trkpt>
      <trkpt lat="45.85209" lon="3.54632">
        <ele>360.39999389648</ele>
        <time>2024-11-15T19:37:06.000Z</time>
      </trkpt>
      <trkpt lat="45.85206" lon="3.54633">
        <ele>360.20001220703</ele>
        <time>2024-11-15T19:37:07.000Z</time>
      </trkpt>
      <trkpt lat="45.85203" lon="3.54633">
        <ele>359.79998779297</ele>
        <time>2024-11-15T19:37:08.000Z</time>
      </trkpt>
      <trkpt lat="45.852" lon="3.54634">
        <ele>359.20001220703</ele>
        <time>2024-11-15T19:37:09.000Z</time>
      </trkpt>
      <trkpt lat="45.85197" lon="3.54634">
        <ele>358.39999389648</ele>
        <time>2024-11-15T19:37:10.000Z</time>
      </trkpt>
      <trkpt lat="45.85194" lon="3.54634">
        <ele>357.60000610352</ele>
        <time>2024-11-15T19:37:11.000Z</time>
      </trkpt>
      <trkpt lat="45.85192" lon="3.54634">
        <ele>356.79998779297</ele>
        <time>2024-11-15T19:37:12.000Z</time>
      </trkpt>
      <trkpt lat="45.85188" lon="3.54634">
        <ele>356</ele>
        <time>2024-11-15T19:37:13.000Z</time>
      </trkpt>
      <trkpt lat="45.85185" lon="3.54633">
        <ele>355.20001220703</ele>
        <time>2024-11-15T19:37:14.000Z</time>
      </trkpt>
      <trkpt lat="45.85182" lon="3.54633">
        <ele>354.39999389648</ele>
        <time>2024-11-15T19:37:15.000Z</time>
      </trkpt>
      <trkpt lat="45.85179" lon="3.54632">
        <ele>353.79998779297</ele>
        <time>2024-11-15T19:37:16.000Z</time>
      </trkpt>
      <trkpt lat="45.85177" lon="3.54632">
        <ele>352.79998779297</ele>
        <time>2024-11-15T19:37:17.000Z</time>
      </trkpt>
      <trkpt lat="45.85174" lon="3.54632">
        <ele>351.60000610352</ele>
        <time>2024-11-15T19:37:18.000Z</time>
      </trkpt>
      <trkpt lat="45.85171" lon="3.54631">
        <ele>351.20001220703</ele>
        <time>2024-11-15T19:37:19.000Z</time>
      </trkpt>
      <trkpt lat="45.85168" lon="3.54631">
        <ele>350</ele>
        <time>2024-11-15T19:37:20.000Z</time>
      </trkpt>
      <trkpt lat="45.85166" lon="3.5463">
        <ele>348.79998779297</ele>
        <time>2024-11-15T19:37:21.000Z</time>
      </trkpt>
      <trkpt lat="45.85163" lon="3.5463">
        <ele>348.20001220703</ele>
        <time>2024-11-15T19:37:22.000Z</time>
      </trkpt>
      <trkpt lat="45.8516" lon="3.5463">
        <ele>347.39999389648</ele>
        <time>2024-11-15T19:37:23.000Z</time>
      </trkpt>
      <trkpt lat="45.85157" lon="3.5463">
        <ele>346.20001220703</ele>
        <time>2024-11-15T19:37:24.000Z</time>
      </trkpt>
      <trkpt lat="45.85155" lon="3.54631">
        <ele>345.79998779297</ele>
        <time>2024-11-15T19:37:25.000Z</time>
      </trkpt>
      <trkpt lat="45.85152" lon="3.54632">
        <ele>344.79998779297</ele>
        <time>2024-11-15T19:37:26.000Z</time>
      </trkpt>
      <trkpt lat="45.8515" lon="3.54635">
        <ele>343.79998779297</ele>
        <time>2024-11-15T19:37:27.000Z</time>
      </trkpt>
      <trkpt lat="45.85148" lon="3.54637">
        <ele>342.60000610352</ele>
        <time>2024-11-15T19:37:28.000Z</time>
      </trkpt>
      <trkpt lat="45.85146" lon="3.5464">
        <ele>342.20001220703</ele>
        <time>2024-11-15T19:37:29.000Z</time>
      </trkpt>
      <trkpt lat="45.85144" lon="3.54643">
        <ele>341.20001220703</ele>
        <time>2024-11-15T19:37:30.000Z</time>
      </trkpt>
      <trkpt lat="45.85142" lon="3.54645">
        <ele>340.60000610352</ele>
        <time>2024-11-15T19:37:31.000Z</time>
      </trkpt>
      <trkpt lat="45.8514" lon="3.54646">
        <ele>339.60000610352</ele>
        <time>2024-11-15T19:37:32.000Z</time>
      </trkpt>
      <trkpt lat="45.85139" lon="3.54646">
        <ele>338</ele>
        <time>2024-11-15T19:37:33.000Z</time>
      </trkpt>
      <trkpt lat="45.85138" lon="3.54645">
        <ele>337.39999389648</ele>
        <time>2024-11-15T19:37:34.000Z</time>
      </trkpt>
      <trkpt lat="45.85137" lon="3.54644">
        <ele>337.20001220703</ele>
        <time>2024-11-15T19:37:35.000Z</time>
      </trkpt>
      <trkpt lat="45.85136" lon="3.54642">
        <ele>337</ele>
        <time>2024-11-15T19:37:36.000Z</time>
      </trkpt>
      <trkpt lat="45.85135" lon="3.5464">
        <ele>336.39999389648</ele>
        <time>2024-11-15T19:37:37.000Z</time>
      </trkpt>
      <trkpt lat="45.85134" lon="3.54638">
        <ele>335.60000610352</ele>
        <time>2024-11-15T19:37:38.000Z</time>
      </trkpt>
      <trkpt lat="45.85134" lon="3.54635">
        <ele>335.20001220703</ele>
        <time>2024-11-15T19:37:39.000Z</time>
      </trkpt>
      <trkpt lat="45.85134" lon="3.54633">
        <ele>335.20001220703</ele>
        <time>2024-11-15T19:37:40.000Z</time>
      </trkpt>
      <trkpt lat="45.85134" lon="3.5463">
        <ele>334.79998779297</ele>
        <time>2024-11-15T19:37:41.000Z</time>
      </trkpt>
      <trkpt lat="45.85133" lon="3.54628">
        <ele>334</ele>
        <time>2024-11-15T19:37:42.000Z</time>
      </trkpt>
      <trkpt lat="45.85133" lon="3.54625">
        <ele>333.79998779297</ele>
        <time>2024-11-15T19:37:43.000Z</time>
      </trkpt>
      <trkpt lat="45.85133" lon="3.54623">
        <ele>333.60000610352</ele>
        <time>2024-11-15T19:37:44.000Z</time>
      </trkpt>
      <trkpt lat="45.85133" lon="3.54621">
        <ele>332.60000610352</ele>
        <time>2024-11-15T19:37:45.000Z</time>
      </trkpt>
      <trkpt lat="45.85133" lon="3.54619">
        <ele>332.20001220703</ele>
        <time>2024-11-15T19:37:46.000Z</time>
      </trkpt>
      <trkpt lat="45.85132" lon="3.54618">
        <ele>332</ele>
        <time>2024-11-15T19:37:47.000Z</time>
      </trkpt>
      <trkpt lat="45.85131" lon="3.54617">
        <ele>331.79998779297</ele>
        <time>2024-11-15T19:37:48.000Z</time>
      </trkpt>
      <trkpt lat="45.85131" lon="3.54618">
        <ele>331.39999389648</ele>
        <time>2024-11-15T19:37:49.000Z</time>
      </trkpt>
      <trkpt lat="45.8513" lon="3.5462">
        <ele>331</ele>
        <time>2024-11-15T19:37:50.000Z</time>
      </trkpt>
      <trkpt lat="45.8513" lon="3.54621">
        <ele>330.39999389648</ele>
        <time>2024-11-15T19:37:51.000Z</time>
      </trkpt>
      <trkpt lat="45.8513" lon="3.54623">
        <ele>330.20001220703</ele>
        <time>2024-11-15T19:37:52.000Z</time>
      </trkpt>
      <trkpt lat="45.8513" lon="3.54625">
        <ele>329.79998779297</ele>
        <time>2024-11-15T19:37:53.000Z</time>
      </trkpt>
      <trkpt lat="45.85129" lon="3.54626">
        <ele>329.20001220703</ele>
        <time>2024-11-15T19:37:54.000Z</time>
      </trkpt>
      <trkpt lat="45.85129" lon="3.54628">
        <ele>328.79998779297</ele>
        <time>2024-11-15T19:37:55.000Z</time>
      </trkpt>
      <trkpt lat="45.85128" lon="3.54629">
        <ele>328.60000610352</ele>
        <time>2024-11-15T19:37:56.000Z</time>
      </trkpt>
      <trkpt lat="45.85128" lon="3.5463">
        <ele>328.20001220703</ele>
        <time>2024-11-15T19:37:57.000Z</time>
      </trkpt>
      <trkpt lat="45.85127" lon="3.54632">
        <ele>328</ele>
        <time>2024-11-15T19:37:58.000Z</time>
      </trkpt>
      <trkpt lat="45.85126" lon="3.54632">
        <ele>327.60000610352</ele>
        <time>2024-11-15T19:37:59.000Z</time>
      </trkpt>
      <trkpt lat="45.85125" lon="3.54633">
        <ele>326.79998779297</ele>
        <time>2024-11-15T19:38:00.000Z</time>
      </trkpt>
      <trkpt lat="45.85125" lon="3.54632">
        <ele>326.60000610352</ele>
        <time>2024-11-15T19:38:01.000Z</time>
      </trkpt>
      <trkpt lat="45.85125" lon="3.5463">
        <ele>325.60000610352</ele>
        <time>2024-11-15T19:38:02.000Z</time>
      </trkpt>
      <trkpt lat="45.85125" lon="3.54628">
        <ele>324.79998779297</ele>
        <time>2024-11-15T19:38:03.000Z</time>
      </trkpt>
      <trkpt lat="45.85126" lon="3.54624">
        <ele>324.60000610352</ele>
        <time>2024-11-15T19:38:04.000Z</time>
      </trkpt>
      <trkpt lat="45.85126" lon="3.5462">
        <ele>324.20001220703</ele>
        <time>2024-11-15T19:38:05.000Z</time>
      </trkpt>
      <trkpt lat="45.85127" lon="3.54616">
        <ele>324</ele>
        <time>2024-11-15T19:38:06.000Z</time>
      </trkpt>
      <trkpt lat="45.85128" lon="3.54611">
        <ele>323.79998779297</ele>
        <time>2024-11-15T19:38:07.000Z</time>
      </trkpt>
      <trkpt lat="45.85129" lon="3.54607">
        <ele>323.39999389648</ele>
        <time>2024-11-15T19:38:08.000Z</time>
      </trkpt>
      <trkpt lat="45.8513" lon="3.54602">
        <ele>323</ele>
        <time>2024-11-15T19:38:09.000Z</time>
      </trkpt>
      <trkpt lat="45.85132" lon="3.54597">
        <ele>322.60000610352</ele>
        <time>2024-11-15T19:38:10.000Z</time>
      </trkpt>
      <trkpt lat="45.85133" lon="3.54592">
        <ele>322</ele>
        <time>2024-11-15T19:38:11.000Z</time>
      </trkpt>
      <trkpt lat="45.85133" lon="3.54587">
        <ele>321.60000610352</ele>
        <time>2024-11-15T19:38:12.000Z</time>
      </trkpt>
      <trkpt lat="45.85134" lon="3.54583">
        <ele>321</ele>
        <time>2024-11-15T19:38:13.000Z</time>
      </trkpt>
      <trkpt lat="45.85135" lon="3.54578">
        <ele>320.60000610352</ele>
        <time>2024-11-15T19:38:14.000Z</time>
      </trkpt>
      <trkpt lat="45.85136" lon="3.54574">
        <ele>320</ele>
        <time>2024-11-15T19:38:15.000Z</time>
      </trkpt>
      <trkpt lat="45.85138" lon="3.54569">
        <ele>319.60000610352</ele>
        <time>2024-11-15T19:38:16.000Z</time>
      </trkpt>
      <trkpt lat="45.85139" lon="3.54564">
        <ele>318.79998779297</ele>
        <time>2024-11-15T19:38:17.000Z</time>
      </trkpt>
      <trkpt lat="45.8514" lon="3.54559">
        <ele>317.79998779297</ele>
        <time>2024-11-15T19:38:18.000Z</time>
      </trkpt>
      <trkpt lat="45.85142" lon="3.54555">
        <ele>317.60000610352</ele>
        <time>2024-11-15T19:38:19.000Z</time>
      </trkpt>
      <trkpt lat="45.85144" lon="3.5455">
        <ele>316.60000610352</ele>
        <time>2024-11-15T19:38:20.000Z</time>
      </trkpt>
      <trkpt lat="45.85146" lon="3.54546">
        <ele>316.20001220703</ele>
        <time>2024-11-15T19:38:21.000Z</time>
      </trkpt>
      <trkpt lat="45.85148" lon="3.54542">
        <ele>316</ele>
        <time>2024-11-15T19:38:22.000Z</time>
      </trkpt>
      <trkpt lat="45.85151" lon="3.54539">
        <ele>315.39999389648</ele>
        <time>2024-11-15T19:38:23.000Z</time>
      </trkpt>
      <trkpt lat="45.85153" lon="3.54535">
        <ele>315.20001220703</ele>
        <time>2024-11-15T19:38:24.000Z</time>
      </trkpt>
      <trkpt lat="45.85156" lon="3.54533">
        <ele>314.79998779297</ele>
        <time>2024-11-15T19:38:25.000Z</time>
      </trkpt>
      <trkpt lat="45.85158" lon="3.5453">
        <ele>314.39999389648</ele>
        <time>2024-11-15T19:38:26.000Z</time>
      </trkpt>
      <trkpt lat="45.85161" lon="3.54528">
        <ele>314.20001220703</ele>
        <time>2024-11-15T19:38:27.000Z</time>
      </trkpt>
      <trkpt lat="45.85163" lon="3.54526">
        <ele>314</ele>
        <time>2024-11-15T19:38:28.000Z</time>
      </trkpt>
      <trkpt lat="45.85166" lon="3.54523">
        <ele>314</ele>
        <time>2024-11-15T19:38:29.000Z</time>
      </trkpt>
      <trkpt lat="45.85167" lon="3.5452">
        <ele>313.79998779297</ele>
        <time>2024-11-15T19:38:30.000Z</time>
      </trkpt>
      <trkpt lat="45.85168" lon="3.54517">
        <ele>313.79998779297</ele>
        <time>2024-11-15T19:38:31.000Z</time>
      </trkpt>
      <trkpt lat="45.85168" lon="3.54513">
        <ele>313.79998779297</ele>
        <time>2024-11-15T19:38:32.000Z</time>
      </trkpt>
      <trkpt lat="45.85168" lon="3.5451">
        <ele>313.60000610352</ele>
        <time>2024-11-15T19:38:33.000Z</time>
      </trkpt>
      <trkpt lat="45.85167" lon="3.54507">
        <ele>313.60000610352</ele>
        <time>2024-11-15T19:38:34.000Z</time>
      </trkpt>
      <trkpt lat="45.85166" lon="3.54503">
        <ele>313.39999389648</ele>
        <time>2024-11-15T19:38:35.000Z</time>
      </trkpt>
      <trkpt lat="45.85165" lon="3.545">
        <ele>313.39999389648</ele>
        <time>2024-11-15T19:38:36.000Z</time>
      </trkpt>
      <trkpt lat="45.85165" lon="3.54496">
        <ele>313.39999389648</ele>
        <time>2024-11-15T19:38:37.000Z</time>
      </trkpt>
      <trkpt lat="45.85164" lon="3.54492">
        <ele>313.20001220703</ele>
        <time>2024-11-15T19:38:38.000Z</time>
      </trkpt>
      <trkpt lat="45.85163" lon="3.54488">
        <ele>313.20001220703</ele>
        <time>2024-11-15T19:38:39.000Z</time>
      </trkpt>
      <trkpt lat="45.85163" lon="3.54483">
        <ele>313.20001220703</ele>
        <time>2024-11-15T19:38:40.000Z</time>
      </trkpt>
      <trkpt lat="45.85163" lon="3.54479">
        <ele>313</ele>
        <time>2024-11-15T19:38:41.000Z</time>
      </trkpt>
      <trkpt lat="45.85164" lon="3.54475">
        <ele>313</ele>
        <time>2024-11-15T19:38:42.000Z</time>
      </trkpt>
      <trkpt lat="45.85164" lon="3.5447">
        <ele>312.79998779297</ele>
        <time>2024-11-15T19:38:43.000Z</time>
      </trkpt>
      <trkpt lat="45.85163" lon="3.54466">
        <ele>312.60000610352</ele>
        <time>2024-11-15T19:38:44.000Z</time>
      </trkpt>
      <trkpt lat="45.85163" lon="3.54462">
        <ele>312.39999389648</ele>
        <time>2024-11-15T19:38:45.000Z</time>
      </trkpt>
      <trkpt lat="45.85163" lon="3.54458">
        <ele>312.20001220703</ele>
        <time>2024-11-15T19:38:46.000Z</time>
      </trkpt>
      <trkpt lat="45.85162" lon="3.54454">
        <ele>312</ele>
        <time>2024-11-15T19:38:47.000Z</time>
      </trkpt>
      <trkpt lat="45.85162" lon="3.5445">
        <ele>312</ele>
        <time>2024-11-15T19:38:48.000Z</time>
      </trkpt>
      <trkpt lat="45.85161" lon="3.54446">
        <ele>311.79998779297</ele>
        <time>2024-11-15T19:38:49.000Z</time>
      </trkpt>
      <trkpt lat="45.8516" lon="3.54442">
        <ele>311.79998779297</ele>
        <time>2024-11-15T19:38:50.000Z</time>
      </trkpt>
      <trkpt lat="45.85159" lon="3.54438">
        <ele>311.60000610352</ele>
        <time>2024-11-15T19:38:51.000Z</time>
      </trkpt>
      <trkpt lat="45.85158" lon="3.54435">
        <ele>311.60000610352</ele>
        <time>2024-11-15T19:38:52.000Z</time>
      </trkpt>
      <trkpt lat="45.85157" lon="3.54431">
        <ele>311.79998779297</ele>
        <time>2024-11-15T19:38:53.000Z</time>
      </trkpt>
      <trkpt lat="45.85155" lon="3.54429">
        <ele>311.79998779297</ele>
        <time>2024-11-15T19:38:54.000Z</time>
      </trkpt>
      <trkpt lat="45.85153" lon="3.54425">
        <ele>311.79998779297</ele>
        <time>2024-11-15T19:38:55.000Z</time>
      </trkpt>
      <trkpt lat="45.85152" lon="3.54422">
        <ele>311.79998779297</ele>
        <time>2024-11-15T19:38:56.000Z</time>
      </trkpt>
      <trkpt lat="45.8515" lon="3.5442">
        <ele>311.79998779297</ele>
        <time>2024-11-15T19:38:57.000Z</time>
      </trkpt>
      <trkpt lat="45.85148" lon="3.54418">
        <ele>311.79998779297</ele>
        <time>2024-11-15T19:38:58.000Z</time>
      </trkpt>
      <trkpt lat="45.85146" lon="3.54416">
        <ele>311.79998779297</ele>
        <time>2024-11-15T19:38:59.000Z</time>
      </trkpt>
      <trkpt lat="45.85143" lon="3.54415">
        <ele>311.79998779297</ele>
        <time>2024-11-15T19:39:00.000Z</time>
      </trkpt>
      <trkpt lat="45.85141" lon="3.54414">
        <ele>311.79998779297</ele>
        <time>2024-11-15T19:39:01.000Z</time>
      </trkpt>
      <trkpt lat="45.85139" lon="3.54413">
        <ele>311.79998779297</ele>
        <time>2024-11-15T19:39:02.000Z</time>
      </trkpt>
      <trkpt lat="45.85136" lon="3.54413">
        <ele>311.79998779297</ele>
        <time>2024-11-15T19:39:03.000Z</time>
      </trkpt>
      <trkpt lat="45.85134" lon="3.54414">
        <ele>311.79998779297</ele>
        <time>2024-11-15T19:39:04.000Z</time>
      </trkpt>
      <trkpt lat="45.85131" lon="3.54415">
        <ele>311.79998779297</ele>
        <time>2024-11-15T19:39:05.000Z</time>
      </trkpt>
      <trkpt lat="45.85129" lon="3.54418">
        <ele>311.79998779297</ele>
        <time>2024-11-15T19:39:06.000Z</time>
      </trkpt>
      <trkpt lat="45.85127" lon="3.5442">
        <ele>311.79998779297</ele>
        <time>2024-11-15T19:39:07.000Z</time>
      </trkpt>
      <trkpt lat="45.85125" lon="3.54423">
        <ele>311.79998779297</ele>
        <time>2024-11-15T19:39:08.000Z</time>
      </trkpt>
      <trkpt lat="45.85124" lon="3.54425">
        <ele>311.79998779297</ele>
        <time>2024-11-15T19:39:09.000Z</time>
      </trkpt>
      <trkpt lat="45.85122" lon="3.54428">
        <ele>311.79998779297</ele>
        <time>2024-11-15T19:39:10.000Z</time>
      </trkpt>
      <trkpt lat="45.8512" lon="3.54431">
        <ele>311.79998779297</ele>
        <time>2024-11-15T19:39:11.000Z</time>
      </trkpt>
      <trkpt lat="45.85118" lon="3.54433">
        <ele>312</ele>
        <time>2024-11-15T19:39:12.000Z</time>
      </trkpt>
      <trkpt lat="45.85116" lon="3.54436">
        <ele>312</ele>
        <time>2024-11-15T19:39:13.000Z</time>
      </trkpt>
      <trkpt lat="45.85114" lon="3.54438">
        <ele>312</ele>
        <time>2024-11-15T19:39:14.000Z</time>
      </trkpt>
      <trkpt lat="45.85112" lon="3.54441">
        <ele>312.20001220703</ele>
        <time>2024-11-15T19:39:15.000Z</time>
      </trkpt>
      <trkpt lat="45.8511" lon="3.54443">
        <ele>312.20001220703</ele>
        <time>2024-11-15T19:39:16.000Z</time>
      </trkpt>
      <trkpt lat="45.85108" lon="3.54445">
        <ele>312.20001220703</ele>
        <time>2024-11-15T19:39:17.000Z</time>
      </trkpt>
      <trkpt lat="45.85106" lon="3.54447">
        <ele>312.20001220703</ele>
        <time>2024-11-15T19:39:18.000Z</time>
      </trkpt>
      <trkpt lat="45.85104" lon="3.54449">
        <ele>312.20001220703</ele>
        <time>2024-11-15T19:39:19.000Z</time>
      </trkpt>
      <trkpt lat="45.85102" lon="3.54451">
        <ele>312.39999389648</ele>
        <time>2024-11-15T19:39:20.000Z</time>
      </trkpt>
      <trkpt lat="45.851" lon="3.54453">
        <ele>312.60000610352</ele>
        <time>2024-11-15T19:39:21.000Z</time>
      </trkpt>
      <trkpt lat="45.85098" lon="3.54455">
        <ele>312.79998779297</ele>
        <time>2024-11-15T19:39:22.000Z</time>
      </trkpt>
      <trkpt lat="45.85096" lon="3.54456">
        <ele>312.79998779297</ele>
        <time>2024-11-15T19:39:23.000Z</time>
      </trkpt>
      <trkpt lat="45.85093" lon="3.54457">
        <ele>313</ele>
        <time>2024-11-15T19:39:24.000Z</time>
      </trkpt>
      <trkpt lat="45.85091" lon="3.54457">
        <ele>313</ele>
        <time>2024-11-15T19:39:25.000Z</time>
      </trkpt>
      <trkpt lat="45.85089" lon="3.54458">
        <ele>313.20001220703</ele>
        <time>2024-11-15T19:39:26.000Z</time>
      </trkpt>
      <trkpt lat="45.85086" lon="3.54459">
        <ele>313.20001220703</ele>
        <time>2024-11-15T19:39:27.000Z</time>
      </trkpt>
      <trkpt lat="45.85084" lon="3.5446">
        <ele>313.20001220703</ele>
        <time>2024-11-15T19:39:28.000Z</time>
      </trkpt>
      <trkpt lat="45.85082" lon="3.5446">
        <ele>313.20001220703</ele>
        <time>2024-11-15T19:39:29.000Z</time>
      </trkpt>
      <trkpt lat="45.85079" lon="3.54461">
        <ele>313.39999389648</ele>
        <time>2024-11-15T19:39:30.000Z</time>
      </trkpt>
      <trkpt lat="45.85077" lon="3.54462">
        <ele>313.60000610352</ele>
        <time>2024-11-15T19:39:31.000Z</time>
      </trkpt>
      <trkpt lat="45.85075" lon="3.54462">
        <ele>313.60000610352</ele>
        <time>2024-11-15T19:39:32.000Z</time>
      </trkpt>
      <trkpt lat="45.85072" lon="3.54463">
        <ele>313.79998779297</ele>
        <time>2024-11-15T19:39:33.000Z</time>
      </trkpt>
      <trkpt lat="45.8507" lon="3.54463">
        <ele>313.79998779297</ele>
        <time>2024-11-15T19:39:34.000Z</time>
      </trkpt>
      <trkpt lat="45.85067" lon="3.54463">
        <ele>314</ele>
        <time>2024-11-15T19:39:35.000Z</time>
      </trkpt>
      <trkpt lat="45.85065" lon="3.54464">
        <ele>314.20001220703</ele>
        <time>2024-11-15T19:39:36.000Z</time>
      </trkpt>
      <trkpt lat="45.85062" lon="3.54464">
        <ele>314.20001220703</ele>
        <time>2024-11-15T19:39:37.000Z</time>
      </trkpt>
      <trkpt lat="45.8506" lon="3.54464">
        <ele>314.39999389648</ele>
        <time>2024-11-15T19:39:38.000Z</time>
      </trkpt>
      <trkpt lat="45.85058" lon="3.54464">
        <ele>314.39999389648</ele>
        <time>2024-11-15T19:39:39.000Z</time>
      </trkpt>
      <trkpt lat="45.85056" lon="3.54465">
        <ele>314.39999389648</ele>
        <time>2024-11-15T19:39:40.000Z</time>
      </trkpt>
      <trkpt lat="45.85053" lon="3.54465">
        <ele>314.39999389648</ele>
        <time>2024-11-15T19:39:41.000Z</time>
      </trkpt>
      <trkpt lat="45.85051" lon="3.54465">
        <ele>314.20001220703</ele>
        <time>2024-11-15T19:39:42.000Z</time>
      </trkpt>
      <trkpt lat="45.85049" lon="3.54466">
        <ele>314.20001220703</ele>
        <time>2024-11-15T19:39:43.000Z</time>
      </trkpt>
      <trkpt lat="45.85046" lon="3.54466">
        <ele>314.39999389648</ele>
        <time>2024-11-15T19:39:44.000Z</time>
      </trkpt>
      <trkpt lat="45.85044" lon="3.54466">
        <ele>314.20001220703</ele>
        <time>2024-11-15T19:39:45.000Z</time>
      </trkpt>
      <trkpt lat="45.85042" lon="3.54466">
        <ele>314.20001220703</ele>
        <time>2024-11-15T19:39:46.000Z</time>
      </trkpt>
      <trkpt lat="45.85039" lon="3.54466">
        <ele>314.20001220703</ele>
        <time>2024-11-15T19:39:47.000Z</time>
      </trkpt>
      <trkpt lat="45.85037" lon="3.54466">
        <ele>314.20001220703</ele>
        <time>2024-11-15T19:39:48.000Z</time>
      </trkpt>
      <trkpt lat="45.85035" lon="3.54467">
        <ele>314.39999389648</ele>
        <time>2024-11-15T19:39:49.000Z</time>
      </trkpt>
      <trkpt lat="45.85033" lon="3.54467">
        <ele>314.39999389648</ele>
        <time>2024-11-15T19:39:50.000Z</time>
      </trkpt>
      <trkpt lat="45.8503" lon="3.54467">
        <ele>314.39999389648</ele>
        <time>2024-11-15T19:39:51.000Z</time>
      </trkpt>
      <trkpt lat="45.85028" lon="3.54468">
        <ele>314.39999389648</ele>
        <time>2024-11-15T19:39:52.000Z</time>
      </trkpt>
      <trkpt lat="45.85026" lon="3.54468">
        <ele>314.60000610352</ele>
        <time>2024-11-15T19:39:53.000Z</time>
      </trkpt>
      <trkpt lat="45.85024" lon="3.54469">
        <ele>314.60000610352</ele>
        <time>2024-11-15T19:39:54.000Z</time>
      </trkpt>
      <trkpt lat="45.85021" lon="3.54469">
        <ele>314.60000610352</ele>
        <time>2024-11-15T19:39:55.000Z</time>
      </trkpt>
      <trkpt lat="45.85019" lon="3.54469">
        <ele>314.60000610352</ele>
        <time>2024-11-15T19:39:56.000Z</time>
      </trkpt>
      <trkpt lat="45.85017" lon="3.54469">
        <ele>314.79998779297</ele>
        <time>2024-11-15T19:39:57.000Z</time>
      </trkpt>
      <trkpt lat="45.85014" lon="3.5447">
        <ele>314.79998779297</ele>
        <time>2024-11-15T19:39:58.000Z</time>
      </trkpt>
      <trkpt lat="45.85012" lon="3.5447">
        <ele>314.79998779297</ele>
        <time>2024-11-15T19:39:59.000Z</time>
      </trkpt>
      <trkpt lat="45.85009" lon="3.54471">
        <ele>314.79998779297</ele>
        <time>2024-11-15T19:40:00.000Z</time>
      </trkpt>
      <trkpt lat="45.85007" lon="3.54471">
        <ele>315</ele>
        <time>2024-11-15T19:40:01.000Z</time>
      </trkpt>
      <trkpt lat="45.85005" lon="3.54471">
        <ele>315</ele>
        <time>2024-11-15T19:40:02.000Z</time>
      </trkpt>
      <trkpt lat="45.85003" lon="3.54472">
        <ele>315</ele>
        <time>2024-11-15T19:40:03.000Z</time>
      </trkpt>
      <trkpt lat="45.85001" lon="3.54472">
        <ele>315</ele>
        <time>2024-11-15T19:40:04.000Z</time>
      </trkpt>
      <trkpt lat="45.84999" lon="3.54472">
        <ele>315</ele>
        <time>2024-11-15T19:40:05.000Z</time>
      </trkpt>
      <trkpt lat="45.84997" lon="3.54472">
        <ele>315.20001220703</ele>
        <time>2024-11-15T19:40:06.000Z</time>
      </trkpt>
      <trkpt lat="45.84994" lon="3.54472">
        <ele>315.20001220703</ele>
        <time>2024-11-15T19:40:07.000Z</time>
      </trkpt>
      <trkpt lat="45.84992" lon="3.54472">
        <ele>315.20001220703</ele>
        <time>2024-11-15T19:40:08.000Z</time>
      </trkpt>
      <trkpt lat="45.8499" lon="3.54472">
        <ele>315.20001220703</ele>
        <time>2024-11-15T19:40:09.000Z</time>
      </trkpt>
      <trkpt lat="45.84987" lon="3.54472">
        <ele>315.20001220703</ele>
        <time>2024-11-15T19:40:10.000Z</time>
      </trkpt>
      <trkpt lat="45.84985" lon="3.54472">
        <ele>315.39999389648</ele>
        <time>2024-11-15T19:40:11.000Z</time>
      </trkpt>
      <trkpt lat="45.84982" lon="3.54472">
        <ele>315.39999389648</ele>
        <time>2024-11-15T19:40:12.000Z</time>
      </trkpt>
      <trkpt lat="45.8498" lon="3.54471">
        <ele>315.39999389648</ele>
        <time>2024-11-15T19:40:13.000Z</time>
      </trkpt>
      <trkpt lat="45.84978" lon="3.54471">
        <ele>315.60000610352</ele>
        <time>2024-11-15T19:40:14.000Z</time>
      </trkpt>
      <trkpt lat="45.84976" lon="3.5447">
        <ele>315.79998779297</ele>
        <time>2024-11-15T19:40:15.000Z</time>
      </trkpt>
      <trkpt lat="45.84973" lon="3.5447">
        <ele>315.79998779297</ele>
        <time>2024-11-15T19:40:16.000Z</time>
      </trkpt>
      <trkpt lat="45.84971" lon="3.54469">
        <ele>316</ele>
        <time>2024-11-15T19:40:17.000Z</time>
      </trkpt>
      <trkpt lat="45.84969" lon="3.54469">
        <ele>316.20001220703</ele>
        <time>2024-11-15T19:40:18.000Z</time>
      </trkpt>
      <trkpt lat="45.84966" lon="3.54469">
        <ele>316.20001220703</ele>
        <time>2024-11-15T19:40:19.000Z</time>
      </trkpt>
      <trkpt lat="45.84964" lon="3.54468">
        <ele>316.20001220703</ele>
        <time>2024-11-15T19:40:20.000Z</time>
      </trkpt>
      <trkpt lat="45.84962" lon="3.54468">
        <ele>316.20001220703</ele>
        <time>2024-11-15T19:40:21.000Z</time>
      </trkpt>
      <trkpt lat="45.8496" lon="3.54467">
        <ele>316.20001220703</ele>
        <time>2024-11-15T19:40:22.000Z</time>
      </trkpt>
      <trkpt lat="45.84958" lon="3.54467">
        <ele>316.20001220703</ele>
        <time>2024-11-15T19:40:23.000Z</time>
      </trkpt>
      <trkpt lat="45.84956" lon="3.54466">
        <ele>316.20001220703</ele>
        <time>2024-11-15T19:40:24.000Z</time>
      </trkpt>
      <trkpt lat="45.84953" lon="3.54465">
        <ele>316.39999389648</ele>
        <time>2024-11-15T19:40:25.000Z</time>
      </trkpt>
      <trkpt lat="45.84951" lon="3.54464">
        <ele>316.60000610352</ele>
        <time>2024-11-15T19:40:26.000Z</time>
      </trkpt>
      <trkpt lat="45.84949" lon="3.54463">
        <ele>316.60000610352</ele>
        <time>2024-11-15T19:40:27.000Z</time>
      </trkpt>
      <trkpt lat="45.84947" lon="3.54462">
        <ele>316.60000610352</ele>
        <time>2024-11-15T19:40:28.000Z</time>
      </trkpt>
      <trkpt lat="45.84945" lon="3.54461">
        <ele>316.79998779297</ele>
        <time>2024-11-15T19:40:29.000Z</time>
      </trkpt>
      <trkpt lat="45.84943" lon="3.54459">
        <ele>317</ele>
        <time>2024-11-15T19:40:30.000Z</time>
      </trkpt>
      <trkpt lat="45.84941" lon="3.54457">
        <ele>317</ele>
        <time>2024-11-15T19:40:31.000Z</time>
      </trkpt>
      <trkpt lat="45.84939" lon="3.54456">
        <ele>317</ele>
        <time>2024-11-15T19:40:32.000Z</time>
      </trkpt>
      <trkpt lat="45.84938" lon="3.54453">
        <ele>317.20001220703</ele>
        <time>2024-11-15T19:40:33.000Z</time>
      </trkpt>
      <trkpt lat="45.84937" lon="3.54451">
        <ele>317.39999389648</ele>
        <time>2024-11-15T19:40:34.000Z</time>
      </trkpt>
      <trkpt lat="45.84936" lon="3.54449">
        <ele>317.39999389648</ele>
        <time>2024-11-15T19:40:35.000Z</time>
      </trkpt>
      <trkpt lat="45.84934" lon="3.54446">
        <ele>317.39999389648</ele>
        <time>2024-11-15T19:40:36.000Z</time>
      </trkpt>
      <trkpt lat="45.84933" lon="3.54443">
        <ele>317.39999389648</ele>
        <time>2024-11-15T19:40:37.000Z</time>
      </trkpt>
      <trkpt lat="45.84932" lon="3.54441">
        <ele>317.39999389648</ele>
        <time>2024-11-15T19:40:38.000Z</time>
      </trkpt>
      <trkpt lat="45.84931" lon="3.54437">
        <ele>317.20001220703</ele>
        <time>2024-11-15T19:40:39.000Z</time>
      </trkpt>
      <trkpt lat="45.8493" lon="3.54434">
        <ele>317.20001220703</ele>
        <time>2024-11-15T19:40:40.000Z</time>
      </trkpt>
      <trkpt lat="45.8493" lon="3.5443">
        <ele>316.79998779297</ele>
        <time>2024-11-15T19:40:41.000Z</time>
      </trkpt>
      <trkpt lat="45.84929" lon="3.54426">
        <ele>316.79998779297</ele>
        <time>2024-11-15T19:40:42.000Z</time>
      </trkpt>
      <trkpt lat="45.84929" lon="3.54422">
        <ele>316.60000610352</ele>
        <time>2024-11-15T19:40:43.000Z</time>
      </trkpt>
      <trkpt lat="45.84929" lon="3.54418">
        <ele>316.60000610352</ele>
        <time>2024-11-15T19:40:44.000Z</time>
      </trkpt>
      <trkpt lat="45.84929" lon="3.54415">
        <ele>316.39999389648</ele>
        <time>2024-11-15T19:40:45.000Z</time>
      </trkpt>
      <trkpt lat="45.84929" lon="3.54412">
        <ele>316.20001220703</ele>
        <time>2024-11-15T19:40:46.000Z</time>
      </trkpt>
      <trkpt lat="45.84929" lon="3.54409">
        <ele>316</ele>
        <time>2024-11-15T19:40:47.000Z</time>
      </trkpt>
      <trkpt lat="45.84929" lon="3.54405">
        <ele>315.79998779297</ele>
        <time>2024-11-15T19:40:48.000Z</time>
      </trkpt>
      <trkpt lat="45.84928" lon="3.54402">
        <ele>315.60000610352</ele>
        <time>2024-11-15T19:40:49.000Z</time>
      </trkpt>
      <trkpt lat="45.84928" lon="3.54398">
        <ele>315.39999389648</ele>
        <time>2024-11-15T19:40:50.000Z</time>
      </trkpt>
      <trkpt lat="45.84928" lon="3.54395">
        <ele>315.20001220703</ele>
        <time>2024-11-15T19:40:51.000Z</time>
      </trkpt>
      <trkpt lat="45.84928" lon="3.54391">
        <ele>315</ele>
        <time>2024-11-15T19:40:52.000Z</time>
      </trkpt>
      <trkpt lat="45.84927" lon="3.54387">
        <ele>314.79998779297</ele>
        <time>2024-11-15T19:40:53.000Z</time>
      </trkpt>
      <trkpt lat="45.84927" lon="3.54383">
        <ele>314.79998779297</ele>
        <time>2024-11-15T19:40:54.000Z</time>
      </trkpt>
      <trkpt lat="45.84927" lon="3.5438">
        <ele>314.79998779297</ele>
        <time>2024-11-15T19:40:55.000Z</time>
      </trkpt>
      <trkpt lat="45.84926" lon="3.54376">
        <ele>314.39999389648</ele>
        <time>2024-11-15T19:40:56.000Z</time>
      </trkpt>
      <trkpt lat="45.84926" lon="3.54373">
        <ele>314.20001220703</ele>
        <time>2024-11-15T19:40:57.000Z</time>
      </trkpt>
      <trkpt lat="45.84926" lon="3.54369">
        <ele>314.20001220703</ele>
        <time>2024-11-15T19:40:58.000Z</time>
      </trkpt>
      <trkpt lat="45.84926" lon="3.54366">
        <ele>314</ele>
        <time>2024-11-15T19:40:59.000Z</time>
      </trkpt>
      <trkpt lat="45.84925" lon="3.54362">
        <ele>313.79998779297</ele>
        <time>2024-11-15T19:41:00.000Z</time>
      </trkpt>
      <trkpt lat="45.84925" lon="3.54359">
        <ele>313.79998779297</ele>
        <time>2024-11-15T19:41:01.000Z</time>
      </trkpt>
      <trkpt lat="45.84925" lon="3.54355">
        <ele>313.60000610352</ele>
        <time>2024-11-15T19:41:02.000Z</time>
      </trkpt>
      <trkpt lat="45.84924" lon="3.54351">
        <ele>313.39999389648</ele>
        <time>2024-11-15T19:41:03.000Z</time>
      </trkpt>
      <trkpt lat="45.84924" lon="3.54348">
        <ele>313.39999389648</ele>
        <time>2024-11-15T19:41:04.000Z</time>
      </trkpt>
      <trkpt lat="45.84924" lon="3.54344">
        <ele>313.20001220703</ele>
        <time>2024-11-15T19:41:05.000Z</time>
      </trkpt>
      <trkpt lat="45.84923" lon="3.54341">
        <ele>313.20001220703</ele>
        <time>2024-11-15T19:41:06.000Z</time>
      </trkpt>
      <trkpt lat="45.84923" lon="3.54337">
        <ele>313</ele>
        <time>2024-11-15T19:41:07.000Z</time>
      </trkpt>
      <trkpt lat="45.84922" lon="3.54334">
        <ele>313</ele>
        <time>2024-11-15T19:41:08.000Z</time>
      </trkpt>
      <trkpt lat="45.84922" lon="3.5433">
        <ele>312.79998779297</ele>
        <time>2024-11-15T19:41:09.000Z</time>
      </trkpt>
      <trkpt lat="45.84922" lon="3.54326">
        <ele>312.79998779297</ele>
        <time>2024-11-15T19:41:10.000Z</time>
      </trkpt>
      <trkpt lat="45.84922" lon="3.54323">
        <ele>312.60000610352</ele>
        <time>2024-11-15T19:41:11.000Z</time>
      </trkpt>
      <trkpt lat="45.84921" lon="3.54319">
        <ele>312.60000610352</ele>
        <time>2024-11-15T19:41:12.000Z</time>
      </trkpt>
      <trkpt lat="45.84921" lon="3.54316">
        <ele>312.60000610352</ele>
        <time>2024-11-15T19:41:13.000Z</time>
      </trkpt>
      <trkpt lat="45.84921" lon="3.54312">
        <ele>312.60000610352</ele>
        <time>2024-11-15T19:41:14.000Z</time>
      </trkpt>
      <trkpt lat="45.84921" lon="3.54309">
        <ele>312.60000610352</ele>
        <time>2024-11-15T19:41:15.000Z</time>
      </trkpt>
      <trkpt lat="45.8492" lon="3.54305">
        <ele>312.60000610352</ele>
        <time>2024-11-15T19:41:16.000Z</time>
      </trkpt>
      <trkpt lat="45.8492" lon="3.54301">
        <ele>312.39999389648</ele>
        <time>2024-11-15T19:41:17.000Z</time>
      </trkpt>
      <trkpt lat="45.8492" lon="3.54298">
        <ele>312.60000610352</ele>
        <time>2024-11-15T19:41:18.000Z</time>
      </trkpt>
      <trkpt lat="45.84919" lon="3.54294">
        <ele>312.60000610352</ele>
        <time>2024-11-15T19:41:19.000Z</time>
      </trkpt>
      <trkpt lat="45.84919" lon="3.54291">
        <ele>312.39999389648</ele>
        <time>2024-11-15T19:41:20.000Z</time>
      </trkpt>
      <trkpt lat="45.84919" lon="3.54287">
        <ele>312.39999389648</ele>
        <time>2024-11-15T19:41:21.000Z</time>
      </trkpt>
      <trkpt lat="45.84918" lon="3.54284">
        <ele>312.39999389648</ele>
        <time>2024-11-15T19:41:22.000Z</time>
      </trkpt>
      <trkpt lat="45.84918" lon="3.5428">
        <ele>312.39999389648</ele>
        <time>2024-11-15T19:41:23.000Z</time>
      </trkpt>
      <trkpt lat="45.84918" lon="3.54276">
        <ele>312.39999389648</ele>
        <time>2024-11-15T19:41:24.000Z</time>
      </trkpt>
      <trkpt lat="45.84917" lon="3.54273">
        <ele>312.39999389648</ele>
        <time>2024-11-15T19:41:25.000Z</time>
      </trkpt>
      <trkpt lat="45.84917" lon="3.54269">
        <ele>312.39999389648</ele>
        <time>2024-11-15T19:41:26.000Z</time>
      </trkpt>
      <trkpt lat="45.84917" lon="3.54266">
        <ele>312.39999389648</ele>
        <time>2024-11-15T19:41:27.000Z</time>
      </trkpt>
      <trkpt lat="45.84917" lon="3.54262">
        <ele>312.20001220703</ele>
        <time>2024-11-15T19:41:28.000Z</time>
      </trkpt>
      <trkpt lat="45.84916" lon="3.54259">
        <ele>312.20001220703</ele>
        <time>2024-11-15T19:41:29.000Z</time>
      </trkpt>
      <trkpt lat="45.84915" lon="3.54255">
        <ele>312.20001220703</ele>
        <time>2024-11-15T19:41:30.000Z</time>
      </trkpt>
      <trkpt lat="45.84915" lon="3.54252">
        <ele>312.20001220703</ele>
        <time>2024-11-15T19:41:31.000Z</time>
      </trkpt>
      <trkpt lat="45.84913" lon="3.54249">
        <ele>312.20001220703</ele>
        <time>2024-11-15T19:41:32.000Z</time>
      </trkpt>
      <trkpt lat="45.84912" lon="3.54246">
        <ele>312.20001220703</ele>
        <time>2024-11-15T19:41:33.000Z</time>
      </trkpt>
      <trkpt lat="45.84911" lon="3.54244">
        <ele>312.20001220703</ele>
        <time>2024-11-15T19:41:34.000Z</time>
      </trkpt>
      <trkpt lat="45.84909" lon="3.54242">
        <ele>312.20001220703</ele>
        <time>2024-11-15T19:41:35.000Z</time>
      </trkpt>
      <trkpt lat="45.84907" lon="3.5424">
        <ele>312.20001220703</ele>
        <time>2024-11-15T19:41:36.000Z</time>
      </trkpt>
      <trkpt lat="45.84905" lon="3.54239">
        <ele>312.20001220703</ele>
        <time>2024-11-15T19:41:37.000Z</time>
      </trkpt>
      <trkpt lat="45.84902" lon="3.54238">
        <ele>312.20001220703</ele>
        <time>2024-11-15T19:41:38.000Z</time>
      </trkpt>
      <trkpt lat="45.849" lon="3.54237">
        <ele>312.20001220703</ele>
        <time>2024-11-15T19:41:39.000Z</time>
      </trkpt>
      <trkpt lat="45.84898" lon="3.54237">
        <ele>312.20001220703</ele>
        <time>2024-11-15T19:41:40.000Z</time>
      </trkpt>
      <trkpt lat="45.84895" lon="3.54236">
        <ele>312.39999389648</ele>
        <time>2024-11-15T19:41:41.000Z</time>
      </trkpt>
      <trkpt lat="45.84893" lon="3.54236">
        <ele>312.39999389648</ele>
        <time>2024-11-15T19:41:42.000Z</time>
      </trkpt>
      <trkpt lat="45.84891" lon="3.54236">
        <ele>312.60000610352</ele>
        <time>2024-11-15T19:41:43.000Z</time>
      </trkpt>
      <trkpt lat="45.84888" lon="3.54236">
        <ele>312.79998779297</ele>
        <time>2024-11-15T19:41:44.000Z</time>
      </trkpt>
      <trkpt lat="45.84886" lon="3.54236">
        <ele>312.79998779297</ele>
        <time>2024-11-15T19:41:45.000Z</time>
      </trkpt>
      <trkpt lat="45.84883" lon="3.54236">
        <ele>312.79998779297</ele>
        <time>2024-11-15T19:41:46.000Z</time>
      </trkpt>
      <trkpt lat="45.84881" lon="3.54236">
        <ele>312.79998779297</ele>
        <time>2024-11-15T19:41:47.000Z</time>
      </trkpt>
      <trkpt lat="45.84879" lon="3.54236">
        <ele>313</ele>
        <time>2024-11-15T19:41:48.000Z</time>
      </trkpt>
      <trkpt lat="45.84876" lon="3.54236">
        <ele>313</ele>
        <time>2024-11-15T19:41:49.000Z</time>
      </trkpt>
      <trkpt lat="45.84874" lon="3.54235">
        <ele>313</ele>
        <time>2024-11-15T19:41:50.000Z</time>
      </trkpt>
      <trkpt lat="45.84872" lon="3.54235">
        <ele>313.20001220703</ele>
        <time>2024-11-15T19:41:51.000Z</time>
      </trkpt>
      <trkpt lat="45.8487" lon="3.54235">
        <ele>313.20001220703</ele>
        <time>2024-11-15T19:41:52.000Z</time>
      </trkpt>
      <trkpt lat="45.84867" lon="3.54235">
        <ele>313.39999389648</ele>
        <time>2024-11-15T19:41:53.000Z</time>
      </trkpt>
      <trkpt lat="45.84865" lon="3.54235">
        <ele>313.39999389648</ele>
        <time>2024-11-15T19:41:54.000Z</time>
      </trkpt>
      <trkpt lat="45.84862" lon="3.54235">
        <ele>313.60000610352</ele>
        <time>2024-11-15T19:41:55.000Z</time>
      </trkpt>
      <trkpt lat="45.8486" lon="3.54235">
        <ele>313.60000610352</ele>
        <time>2024-11-15T19:41:56.000Z</time>
      </trkpt>
      <trkpt lat="45.84858" lon="3.54235">
        <ele>313.79998779297</ele>
        <time>2024-11-15T19:41:57.000Z</time>
      </trkpt>
      <trkpt lat="45.84856" lon="3.54235">
        <ele>314</ele>
        <time>2024-11-15T19:41:58.000Z</time>
      </trkpt>
      <trkpt lat="45.84853" lon="3.54235">
        <ele>314</ele>
        <time>2024-11-15T19:41:59.000Z</time>
      </trkpt>
      <trkpt lat="45.84851" lon="3.54235">
        <ele>314</ele>
        <time>2024-11-15T19:42:00.000Z</time>
      </trkpt>
      <trkpt lat="45.84848" lon="3.54235">
        <ele>314.20001220703</ele>
        <time>2024-11-15T19:42:01.000Z</time>
      </trkpt>
      <trkpt lat="45.84846" lon="3.54235">
        <ele>314</ele>
        <time>2024-11-15T19:42:02.000Z</time>
      </trkpt>
      <trkpt lat="45.84844" lon="3.54235">
        <ele>314</ele>
        <time>2024-11-15T19:42:03.000Z</time>
      </trkpt>
      <trkpt lat="45.84842" lon="3.54234">
        <ele>314</ele>
        <time>2024-11-15T19:42:04.000Z</time>
      </trkpt>
      <trkpt lat="45.84839" lon="3.54234">
        <ele>314.20001220703</ele>
        <time>2024-11-15T19:42:05.000Z</time>
      </trkpt>
      <trkpt lat="45.84837" lon="3.54234">
        <ele>314.39999389648</ele>
        <time>2024-11-15T19:42:06.000Z</time>
      </trkpt>
      <trkpt lat="45.84835" lon="3.54234">
        <ele>314.39999389648</ele>
        <time>2024-11-15T19:42:07.000Z</time>
      </trkpt>
      <trkpt lat="45.84833" lon="3.54234">
        <ele>314.39999389648</ele>
        <time>2024-11-15T19:42:08.000Z</time>
      </trkpt>
      <trkpt lat="45.84831" lon="3.54234">
        <ele>314.60000610352</ele>
        <time>2024-11-15T19:42:09.000Z</time>
      </trkpt>
      <trkpt lat="45.84828" lon="3.54234">
        <ele>314.60000610352</ele>
        <time>2024-11-15T19:42:10.000Z</time>
      </trkpt>
      <trkpt lat="45.84826" lon="3.54234">
        <ele>314.60000610352</ele>
        <time>2024-11-15T19:42:11.000Z</time>
      </trkpt>
      <trkpt lat="45.84824" lon="3.54234">
        <ele>314.79998779297</ele>
        <time>2024-11-15T19:42:12.000Z</time>
      </trkpt>
      <trkpt lat="45.84821" lon="3.54234">
        <ele>314.79998779297</ele>
        <time>2024-11-15T19:42:13.000Z</time>
      </trkpt>
      <trkpt lat="45.84819" lon="3.54234">
        <ele>314.79998779297</ele>
        <time>2024-11-15T19:42:14.000Z</time>
      </trkpt>
      <trkpt lat="45.84817" lon="3.54234">
        <ele>314.79998779297</ele>
        <time>2024-11-15T19:42:15.000Z</time>
      </trkpt>
      <trkpt lat="45.84814" lon="3.54234">
        <ele>314.79998779297</ele>
        <time>2024-11-15T19:42:16.000Z</time>
      </trkpt>
      <trkpt lat="45.84812" lon="3.54234">
        <ele>315</ele>
        <time>2024-11-15T19:42:17.000Z</time>
      </trkpt>
      <trkpt lat="45.8481" lon="3.54234">
        <ele>315</ele>
        <time>2024-11-15T19:42:18.000Z</time>
      </trkpt>
      <trkpt lat="45.84807" lon="3.54234">
        <ele>315</ele>
        <time>2024-11-15T19:42:19.000Z</time>
      </trkpt>
      <trkpt lat="45.84805" lon="3.54234">
        <ele>315</ele>
        <time>2024-11-15T19:42:20.000Z</time>
      </trkpt>
      <trkpt lat="45.84803" lon="3.54235">
        <ele>315</ele>
        <time>2024-11-15T19:42:21.000Z</time>
      </trkpt>
      <trkpt lat="45.84801" lon="3.54235">
        <ele>315.20001220703</ele>
        <time>2024-11-15T19:42:22.000Z</time>
      </trkpt>
      <trkpt lat="45.84799" lon="3.54235">
        <ele>315.39999389648</ele>
        <time>2024-11-15T19:42:23.000Z</time>
      </trkpt>
      <trkpt lat="45.84797" lon="3.54235">
        <ele>315.39999389648</ele>
        <time>2024-11-15T19:42:24.000Z</time>
      </trkpt>
      <trkpt lat="45.84794" lon="3.54235">
        <ele>315.60000610352</ele>
        <time>2024-11-15T19:42:25.000Z</time>
      </trkpt>
      <trkpt lat="45.84792" lon="3.54234">
        <ele>315.60000610352</ele>
        <time>2024-11-15T19:42:26.000Z</time>
      </trkpt>
      <trkpt lat="45.8479" lon="3.54234">
        <ele>315.60000610352</ele>
        <time>2024-11-15T19:42:27.000Z</time>
      </trkpt>
      <trkpt lat="45.84787" lon="3.54234">
        <ele>315.60000610352</ele>
        <time>2024-11-15T19:42:28.000Z</time>
      </trkpt>
      <trkpt lat="45.84785" lon="3.54234">
        <ele>315.60000610352</ele>
        <time>2024-11-15T19:42:29.000Z</time>
      </trkpt>
      <trkpt lat="45.84783" lon="3.54234">
        <ele>315.60000610352</ele>
        <time>2024-11-15T19:42:30.000Z</time>
      </trkpt>
      <trkpt lat="45.84781" lon="3.54234">
        <ele>315.79998779297</ele>
        <time>2024-11-15T19:42:31.000Z</time>
      </trkpt>
      <trkpt lat="45.84778" lon="3.54234">
        <ele>315.79998779297</ele>
        <time>2024-11-15T19:42:32.000Z</time>
      </trkpt>
      <trkpt lat="45.84776" lon="3.54234">
        <ele>315.79998779297</ele>
        <time>2024-11-15T19:42:33.000Z</time>
      </trkpt>
      <trkpt lat="45.84774" lon="3.54234">
        <ele>316</ele>
        <time>2024-11-15T19:42:34.000Z</time>
      </trkpt>
      <trkpt lat="45.84772" lon="3.54235">
        <ele>316</ele>
        <time>2024-11-15T19:42:35.000Z</time>
      </trkpt>
      <trkpt lat="45.8477" lon="3.54236">
        <ele>316</ele>
        <time>2024-11-15T19:42:36.000Z</time>
      </trkpt>
      <trkpt lat="45.84769" lon="3.54239">
        <ele>316.20001220703</ele>
        <time>2024-11-15T19:42:37.000Z</time>
      </trkpt>
      <trkpt lat="45.84768" lon="3.54242">
        <ele>316.39999389648</ele>
        <time>2024-11-15T19:42:38.000Z</time>
      </trkpt>
      <trkpt lat="45.84768" lon="3.54246">
        <ele>316.60000610352</ele>
        <time>2024-11-15T19:42:39.000Z</time>
      </trkpt>
      <trkpt lat="45.84767" lon="3.5425">
        <ele>316.60000610352</ele>
        <time>2024-11-15T19:42:40.000Z</time>
      </trkpt>
      <trkpt lat="45.84767" lon="3.54254">
        <ele>316.60000610352</ele>
        <time>2024-11-15T19:42:41.000Z</time>
      </trkpt>
      <trkpt lat="45.84767" lon="3.54258">
        <ele>316.60000610352</ele>
        <time>2024-11-15T19:42:42.000Z</time>
      </trkpt>
      <trkpt lat="45.84766" lon="3.54261">
        <ele>316.60000610352</ele>
        <time>2024-11-15T19:42:43.000Z</time>
      </trkpt>
      <trkpt lat="45.84766" lon="3.54265">
        <ele>316.79998779297</ele>
        <time>2024-11-15T19:42:44.000Z</time>
      </trkpt>
      <trkpt lat="45.84766" lon="3.54269">
        <ele>316.79998779297</ele>
        <time>2024-11-15T19:42:45.000Z</time>
      </trkpt>
      <trkpt lat="45.84766" lon="3.54273">
        <ele>316.79998779297</ele>
        <time>2024-11-15T19:42:46.000Z</time>
      </trkpt>
      <trkpt lat="45.84766" lon="3.54277">
        <ele>317</ele>
        <time>2024-11-15T19:42:47.000Z</time>
      </trkpt>
      <trkpt lat="45.84766" lon="3.5428">
        <ele>317.20001220703</ele>
        <time>2024-11-15T19:42:48.000Z</time>
      </trkpt>
      <trkpt lat="45.84766" lon="3.54284">
        <ele>317.20001220703</ele>
        <time>2024-11-15T19:42:49.000Z</time>
      </trkpt>
      <trkpt lat="45.84766" lon="3.54287">
        <ele>317.20001220703</ele>
        <time>2024-11-15T19:42:50.000Z</time>
      </trkpt>
      <trkpt lat="45.84766" lon="3.5429">
        <ele>317.39999389648</ele>
        <time>2024-11-15T19:42:51.000Z</time>
      </trkpt>
      <trkpt lat="45.84767" lon="3.54293">
        <ele>317.39999389648</ele>
        <time>2024-11-15T19:42:52.000Z</time>
      </trkpt>
      <trkpt lat="45.84767" lon="3.54295">
        <ele>317.39999389648</ele>
        <time>2024-11-15T19:42:53.000Z</time>
      </trkpt>
      <trkpt lat="45.84768" lon="3.54296">
        <ele>317.39999389648</ele>
        <time>2024-11-15T19:42:54.000Z</time>
      </trkpt>
      <trkpt lat="45.84769" lon="3.54297">
        <ele>317.39999389648</ele>
        <time>2024-11-15T19:42:55.000Z</time>
      </trkpt>
      <trkpt lat="45.8477" lon="3.54297">
        <ele>317.39999389648</ele>
        <time>2024-11-15T19:42:56.000Z</time>
      </trkpt>
      <trkpt lat="45.84771" lon="3.54297">
        <ele>317.60000610352</ele>
        <time>2024-11-15T19:42:57.000Z</time>
      </trkpt>
      <trkpt lat="45.84771" lon="3.54298">
        <ele>317.60000610352</ele>
        <time>2024-11-15T19:42:58.000Z</time>
      </trkpt>
      <trkpt lat="45.84772" lon="3.54297">
        <ele>318</ele>
        <time>2024-11-15T19:42:59.000Z</time>
      </trkpt>
      <trkpt lat="45.84772" lon="3.54296">
        <ele>318.39999389648</ele>
        <time>2024-11-15T19:43:00.000Z</time>
      </trkpt>
      <trkpt lat="45.84771" lon="3.54296">
        <ele>318.60000610352</ele>
        <time>2024-11-15T19:43:01.000Z</time>
      </trkpt>
      <trkpt lat="45.84771" lon="3.54296">
        <ele>319</ele>
        <time>2024-11-15T19:43:02.000Z</time>
      </trkpt>
      <trkpt lat="45.8477" lon="3.54295">
        <ele>319.20001220703</ele>
        <time>2024-11-15T19:43:03.000Z</time>
      </trkpt>
      <trkpt lat="45.84769" lon="3.54296">
        <ele>319.60000610352</ele>
        <time>2024-11-15T19:43:04.000Z</time>
      </trkpt>
      <trkpt lat="45.84769" lon="3.54296">
        <ele>319.79998779297</ele>
        <time>2024-11-15T19:43:05.000Z</time>
      </trkpt>
      <trkpt lat="45.8477" lon="3.54296">
        <ele>320.20001220703</ele>
        <time>2024-11-15T19:43:06.000Z</time>
      </trkpt>
      <trkpt lat="45.8477" lon="3.54296">
        <ele>320.60000610352</ele>
        <time>2024-11-15T19:43:07.000Z</time>
      </trkpt>
      <trkpt lat="45.8477" lon="3.54296">
        <ele>320.79998779297</ele>
        <time>2024-11-15T19:43:08.000Z</time>
      </trkpt>
      <trkpt lat="45.8477" lon="3.54295">
        <ele>321</ele>
        <time>2024-11-15T19:43:09.000Z</time>
      </trkpt>
      <trkpt lat="45.8477" lon="3.54294">
        <ele>321.20001220703</ele>
        <time>2024-11-15T19:43:10.000Z</time>
      </trkpt>
      <trkpt lat="45.8477" lon="3.54293">
        <ele>321.60000610352</ele>
        <time>2024-11-15T19:43:11.000Z</time>
      </trkpt>
      <trkpt lat="45.84769" lon="3.54293">
        <ele>322</ele>
        <time>2024-11-15T19:43:12.000Z</time>
      </trkpt>
      <trkpt lat="45.84769" lon="3.54293">
        <ele>322.20001220703</ele>
        <time>2024-11-15T19:43:13.000Z</time>
      </trkpt>
      <trkpt lat="45.84769" lon="3.54294">
        <ele>322.60000610352</ele>
        <time>2024-11-15T19:43:14.000Z</time>
      </trkpt>
      <trkpt lat="45.84769" lon="3.54294">
        <ele>322.79998779297</ele>
        <time>2024-11-15T19:43:15.000Z</time>
      </trkpt>
      <trkpt lat="45.8477" lon="3.54295">
        <ele>323.39999389648</ele>
        <time>2024-11-15T19:43:16.000Z</time>
      </trkpt>
      <trkpt lat="45.8477" lon="3.54295">
        <ele>323.60000610352</ele>
        <time>2024-11-15T19:43:17.000Z</time>
      </trkpt>
      <trkpt lat="45.8477" lon="3.54294">
        <ele>323.79998779297</ele>
        <time>2024-11-15T19:43:18.000Z</time>
      </trkpt>
      <trkpt lat="45.8477" lon="3.54293">
        <ele>324</ele>
        <time>2024-11-15T19:43:19.000Z</time>
      </trkpt>
      <trkpt lat="45.84769" lon="3.54292">
        <ele>324</ele>
        <time>2024-11-15T19:43:20.000Z</time>
      </trkpt>
      <trkpt lat="45.84769" lon="3.54292">
        <ele>324.79998779297</ele>
        <time>2024-11-15T19:43:21.000Z</time>
      </trkpt>
      <trkpt lat="45.84769" lon="3.54292">
        <ele>324.79998779297</ele>
        <time>2024-11-15T19:43:22.000Z</time>
      </trkpt>
      <trkpt lat="45.84768" lon="3.54292">
        <ele>325</ele>
        <time>2024-11-15T19:43:23.000Z</time>
      </trkpt>
      <trkpt lat="45.84768" lon="3.54293">
        <ele>325</ele>
        <time>2024-11-15T19:43:24.000Z</time>
      </trkpt>
      <trkpt lat="45.84768" lon="3.54293">
        <ele>325.39999389648</ele>
        <time>2024-11-15T19:43:25.000Z</time>
      </trkpt>
      <trkpt lat="45.84768" lon="3.54294">
        <ele>325.79998779297</ele>
        <time>2024-11-15T19:43:26.000Z</time>
      </trkpt>
      <trkpt lat="45.84769" lon="3.54294">
        <ele>326.39999389648</ele>
        <time>2024-11-15T19:43:27.000Z</time>
      </trkpt>
      <trkpt lat="45.84769" lon="3.54294">
        <ele>326.39999389648</ele>
        <time>2024-11-15T19:43:28.000Z</time>
      </trkpt>
      <trkpt lat="45.84769" lon="3.54294">
        <ele>326.60000610352</ele>
        <time>2024-11-15T19:43:29.000Z</time>
      </trkpt>
      <trkpt lat="45.8477" lon="3.54294">
        <ele>326.60000610352</ele>
        <time>2024-11-15T19:43:30.000Z</time>
      </trkpt>
      <trkpt lat="45.8477" lon="3.54293">
        <ele>327</ele>
        <time>2024-11-15T19:43:31.000Z</time>
      </trkpt>
      <trkpt lat="45.8477" lon="3.54292">
        <ele>327.20001220703</ele>
        <time>2024-11-15T19:43:32.000Z</time>
      </trkpt>
      <trkpt lat="45.8477" lon="3.54292">
        <ele>327.79998779297</ele>
        <time>2024-11-15T19:43:33.000Z</time>
      </trkpt>
      <trkpt lat="45.84769" lon="3.54292">
        <ele>328</ele>
        <time>2024-11-15T19:43:34.000Z</time>
      </trkpt>
      <trkpt lat="45.84769" lon="3.54292">
        <ele>328.20001220703</ele>
        <time>2024-11-15T19:43:35.000Z</time>
      </trkpt>
      <trkpt lat="45.84769" lon="3.54292">
        <ele>328.60000610352</ele>
        <time>2024-11-15T19:43:36.000Z</time>
      </trkpt>
      <trkpt lat="45.84769" lon="3.54292">
        <ele>328.60000610352</ele>
        <time>2024-11-15T19:43:37.000Z</time>
      </trkpt>
      <trkpt lat="45.84769" lon="3.54293">
        <ele>329</ele>
        <time>2024-11-15T19:43:38.000Z</time>
      </trkpt>
      <trkpt lat="45.84769" lon="3.54294">
        <ele>329.39999389648</ele>
        <time>2024-11-15T19:43:39.000Z</time>
      </trkpt>
      <trkpt lat="45.8477" lon="3.54295">
        <ele>329.60000610352</ele>
        <time>2024-11-15T19:43:40.000Z</time>
      </trkpt>
      <trkpt lat="45.84771" lon="3.54295">
        <ele>329.60000610352</ele>
        <time>2024-11-15T19:43:41.000Z</time>
      </trkpt>
      <trkpt lat="45.84771" lon="3.54295">
        <ele>329.79998779297</ele>
        <time>2024-11-15T19:43:42.000Z</time>
      </trkpt>
      <trkpt lat="45.84771" lon="3.54295">
        <ele>329.79998779297</ele>
        <time>2024-11-15T19:43:43.000Z</time>
      </trkpt>
      <trkpt lat="45.84771" lon="3.54295">
        <ele>330</ele>
        <time>2024-11-15T19:43:44.000Z</time>
      </trkpt>
      <trkpt lat="45.84771" lon="3.54295">
        <ele>330.20001220703</ele>
        <time>2024-11-15T19:43:45.000Z</time>
      </trkpt>
      <trkpt lat="45.8477" lon="3.54294">
        <ele>330.39999389648</ele>
        <time>2024-11-15T19:43:46.000Z</time>
      </trkpt>
      <trkpt lat="45.8477" lon="3.54294">
        <ele>330.39999389648</ele>
        <time>2024-11-15T19:43:47.000Z</time>
      </trkpt>
      <trkpt lat="45.8477" lon="3.54294">
        <ele>330.60000610352</ele>
        <time>2024-11-15T19:43:48.000Z</time>
      </trkpt>
    </trkseg>
  </trk>
</gpx>